<?xml version='1.0' encoding='UTF-8'?><gpx version="1.1" creator="JPX - https://github.com/jenetics/jpx" xmlns="http://www.topografix.com/GPX/1/1"><trk><trkseg><trkpt lat="36.9131520615941" lon="15.151713291318762"><ele>10.0</ele><time>2026-04-18T12:49:42.999Z</time></trkpt><trkpt lat="36.91317466185628" lon="15.151789458742924"><ele>10.0</ele><time>2026-04-18T12:49:45.999Z</time></trkpt><trkpt lat="36.91322570452315" lon="15.151842235676563"><ele>10.0</ele><time>2026-04-18T12:49:48.999Z</time></trkpt><trkpt lat="36.913287364458846" lon="15.151883001243885"><ele>10.0</ele><time>2026-04-18T12:49:50.999Z</time></trkpt><trkpt lat="36.91336514300336" lon="15.151891653368926"><ele>10.0</ele><time>2026-04-18T12:49:53.999Z</time></trkpt><trkpt lat="36.9134419803767" lon="15.151862570832003"><ele>10.0</ele><time>2026-04-18T12:49:57.999Z</time></trkpt><trkpt lat="36.91351404852303" lon="15.151723684024523"><ele>10.4</ele><time>2026-04-18T12:49:59.999Z</time></trkpt><trkpt lat="36.91353848422004" lon="15.151645562655574"><ele>10.8</ele><time>2026-04-18T12:50:00.999Z</time></trkpt><trkpt lat="36.91358498631914" lon="15.151514534065088"><ele>11.2</ele><time>2026-04-18T12:50:02.999Z</time></trkpt><trkpt lat="36.91361938928219" lon="15.151382661249531"><ele>11.6</ele><time>2026-04-18T12:50:04.999Z</time></trkpt><trkpt lat="36.91366540342953" lon="15.151258948382647"><ele>12.0</ele><time>2026-04-18T12:50:06.999Z</time></trkpt><trkpt lat="36.913705878636094" lon="15.151127943251561"><ele>12.166666666666666</ele><time>2026-04-18T12:50:08.999Z</time></trkpt><trkpt lat="36.913748463583396" lon="15.150982220041996"><ele>12.333333333333332</ele><time>2026-04-18T12:50:10.999Z</time></trkpt><trkpt lat="36.91377139577498" lon="15.150906193017505"><ele>12.5</ele><time>2026-04-18T12:50:11.999Z</time></trkpt><trkpt lat="36.91379711665277" lon="15.15083255118589"><ele>12.666666666666666</ele><time>2026-04-18T12:50:12.999Z</time></trkpt><trkpt lat="36.913819853265984" lon="15.150753684617964"><ele>12.833333333333332</ele><time>2026-04-18T12:50:13.999Z</time></trkpt><trkpt lat="36.91384041257814" lon="15.15067518653214"><ele>13.0</ele><time>2026-04-18T12:50:14.999Z</time></trkpt><trkpt lat="36.91386583858946" lon="15.150594527356278"><ele>13.142857142857142</ele><time>2026-04-18T12:50:15.999Z</time></trkpt><trkpt lat="36.91388511558929" lon="15.150513669254586"><ele>13.285714285714286</ele><time>2026-04-18T12:50:16.999Z</time></trkpt><trkpt lat="36.913908828391875" lon="15.150431207341693"><ele>13.428571428571429</ele><time>2026-04-18T12:50:17.999Z</time></trkpt><trkpt lat="36.913934375752824" lon="15.150348470734597"><ele>13.571428571428571</ele><time>2026-04-18T12:50:18.999Z</time></trkpt><trkpt lat="36.913960026640986" lon="15.150263390736873"><ele>13.714285714285715</ele><time>2026-04-18T12:50:19.998Z</time></trkpt><trkpt lat="36.91398815804696" lon="15.150176229332217"><ele>13.857142857142858</ele><time>2026-04-18T12:50:20.998Z</time></trkpt><trkpt lat="36.91401574717224" lon="15.150090030999008"><ele>14.0</ele><time>2026-04-18T12:50:21.998Z</time></trkpt><trkpt lat="36.91404756412353" lon="15.149995736709869"><ele>14.000000000000002</ele><time>2026-04-18T12:50:22.998Z</time></trkpt><trkpt lat="36.91407185913563" lon="15.149915010954247"><ele>14.0</ele><time>2026-04-18T12:50:23.998Z</time></trkpt><trkpt lat="36.914097114266504" lon="15.149826435887002"><ele>14.0</ele><time>2026-04-18T12:50:24.998Z</time></trkpt><trkpt lat="36.91413336367911" lon="15.149728860773296"><ele>14.0</ele><time>2026-04-18T12:50:25.998Z</time></trkpt><trkpt lat="36.91416957857308" lon="15.149641101620327"><ele>14.000000000000002</ele><time>2026-04-18T12:50:26.998Z</time></trkpt><trkpt lat="36.91419125890419" lon="15.149565737004714"><ele>14.0</ele><time>2026-04-18T12:50:27.998Z</time></trkpt><trkpt lat="36.91422974058623" lon="15.149478076449268"><ele>14.166666666666668</ele><time>2026-04-18T12:50:28.998Z</time></trkpt><trkpt lat="36.91426275693461" lon="15.14938559663974"><ele>14.333333333333334</ele><time>2026-04-18T12:50:29.998Z</time></trkpt><trkpt lat="36.914298881271726" lon="15.149293292703065"><ele>14.5</ele><time>2026-04-18T12:50:30.998Z</time></trkpt><trkpt lat="36.91433679438437" lon="15.149207965180938"><ele>14.666666666666668</ele><time>2026-04-18T12:50:31.998Z</time></trkpt><trkpt lat="36.914369577359714" lon="15.149123004712147"><ele>14.833333333333334</ele><time>2026-04-18T12:50:32.999Z</time></trkpt><trkpt lat="36.91440057128709" lon="15.149016996240167"><ele>15.0</ele><time>2026-04-18T12:50:33.999Z</time></trkpt><trkpt lat="36.914431539434766" lon="15.148924344190464"><ele>15.75</ele><time>2026-04-18T12:50:34.999Z</time></trkpt><trkpt lat="36.91450369899951" lon="15.14879787367795"><ele>16.5</ele><time>2026-04-18T12:50:35.999Z</time></trkpt><trkpt lat="36.914589081160976" lon="15.14866124811419"><ele>17.25</ele><time>2026-04-18T12:50:36.999Z</time></trkpt><trkpt lat="36.91467197026572" lon="15.148520709925513"><ele>18.0</ele><time>2026-04-18T12:50:37.999Z</time></trkpt><trkpt lat="36.91473783886019" lon="15.148375215401648"><ele>18.0</ele><time>2026-04-18T12:50:38.999Z</time></trkpt><trkpt lat="36.914815406022406" lon="15.148217542363604"><ele>18.0</ele><time>2026-04-18T12:50:39.999Z</time></trkpt><trkpt lat="36.91490966389071" lon="15.14807524529675"><ele>18.0</ele><time>2026-04-18T12:50:40.999Z</time></trkpt><trkpt lat="36.9150025973021" lon="15.147935049642875"><ele>18.0</ele><time>2026-04-18T12:50:42Z</time></trkpt><trkpt lat="36.91509439660229" lon="15.14778880830309"><ele>17.666666666666668</ele><time>2026-04-18T12:50:43Z</time></trkpt><trkpt lat="36.91518999116502" lon="15.147643860519846"><ele>17.333333333333336</ele><time>2026-04-18T12:50:44Z</time></trkpt><trkpt lat="36.915285885230475" lon="15.147496967693364"><ele>17.0</ele><time>2026-04-18T12:50:45Z</time></trkpt><trkpt lat="36.915379795716355" lon="15.147350644416713"><ele>18.0</ele><time>2026-04-18T12:50:46Z</time></trkpt><trkpt lat="36.915473738173056" lon="15.147200628912026"><ele>19.0</ele><time>2026-04-18T12:50:47Z</time></trkpt><trkpt lat="36.91556560883411" lon="15.14705336296645"><ele>20.0</ele><time>2026-04-18T12:50:48Z</time></trkpt><trkpt lat="36.91565602526077" lon="15.146903625832612"><ele>20.0</ele><time>2026-04-18T12:50:49Z</time></trkpt><trkpt lat="36.91574536302603" lon="15.146757456857648"><ele>20.0</ele><time>2026-04-18T12:50:50Z</time></trkpt><trkpt lat="36.915835931306425" lon="15.146612001453752"><ele>20.0</ele><time>2026-04-18T12:50:51Z</time></trkpt><trkpt lat="36.91592403446714" lon="15.146463488771415"><ele>20.0</ele><time>2026-04-18T12:50:52Z</time></trkpt><trkpt lat="36.91600835450583" lon="15.146315002094"><ele>20.5</ele><time>2026-04-18T12:50:53Z</time></trkpt><trkpt lat="36.91608401795943" lon="15.146162306756079"><ele>21.0</ele><time>2026-04-18T12:50:54Z</time></trkpt><trkpt lat="36.91615819302278" lon="15.146005564150817"><ele>21.5</ele><time>2026-04-18T12:50:55Z</time></trkpt><trkpt lat="36.91622962618713" lon="15.145855424704322"><ele>22.0</ele><time>2026-04-18T12:50:56Z</time></trkpt><trkpt lat="36.91630581896954" lon="15.14570592664769"><ele>22.25</ele><time>2026-04-18T12:50:57Z</time></trkpt><trkpt lat="36.916376385439634" lon="15.145563877977978"><ele>22.5</ele><time>2026-04-18T12:50:58Z</time></trkpt><trkpt lat="36.91645947748381" lon="15.145408500972335"><ele>22.75</ele><time>2026-04-18T12:50:59Z</time></trkpt><trkpt lat="36.916531120364404" lon="15.145256779145516"><ele>23.0</ele><time>2026-04-18T12:51:00Z</time></trkpt><trkpt lat="36.916605814081024" lon="15.145107206487134"><ele>23.0</ele><time>2026-04-18T12:51:01Z</time></trkpt><trkpt lat="36.916672606701994" lon="15.144963694030555"><ele>23.0</ele><time>2026-04-18T12:51:02Z</time></trkpt><trkpt lat="36.91673209108535" lon="15.144838943816149"><ele>23.0</ele><time>2026-04-18T12:51:03Z</time></trkpt><trkpt lat="36.916773085156784" lon="15.144744724362715"><ele>23.0</ele><time>2026-04-18T12:51:04Z</time></trkpt><trkpt lat="36.91683506635596" lon="15.144671395181371"><ele>23.0</ele><time>2026-04-18T12:51:06Z</time></trkpt><trkpt lat="36.916924545114234" lon="15.144695707105502"><ele>23.599999999999998</ele><time>2026-04-18T12:51:07.999Z</time></trkpt><trkpt lat="36.916994249308885" lon="15.144735578140214"><ele>24.2</ele><time>2026-04-18T12:51:08.999Z</time></trkpt><trkpt lat="36.91707605999188" lon="15.144796841329418"><ele>24.8</ele><time>2026-04-18T12:51:09.999Z</time></trkpt><trkpt lat="36.91716014866038" lon="15.144869036325542"><ele>25.4</ele><time>2026-04-18T12:51:10.999Z</time></trkpt><trkpt lat="36.9172561519394" lon="15.144948479797428"><ele>26.0</ele><time>2026-04-18T12:51:11.999Z</time></trkpt><trkpt lat="36.91736390596751" lon="15.145034576183635"><ele>26.0</ele><time>2026-04-18T12:51:12.999Z</time></trkpt><trkpt lat="36.91747828063805" lon="15.145132092156619"><ele>26.0</ele><time>2026-04-18T12:51:13.999Z</time></trkpt><trkpt lat="36.917595740417035" lon="15.145238881942037"><ele>26.0</ele><time>2026-04-18T12:51:14.999Z</time></trkpt><trkpt lat="36.91771860073205" lon="15.145343139402039"><ele>26.0</ele><time>2026-04-18T12:51:15.999Z</time></trkpt><trkpt lat="36.91784168842289" lon="15.145455255289033"><ele>26.0</ele><time>2026-04-18T12:51:16.999Z</time></trkpt><trkpt lat="36.91796247394778" lon="15.145568966875679"><ele>26.0</ele><time>2026-04-18T12:51:17.999Z</time></trkpt><trkpt lat="36.918076179739565" lon="15.145679621842751"><ele>26.0</ele><time>2026-04-18T12:51:18.999Z</time></trkpt><trkpt lat="36.918185937459135" lon="15.14578806586266"><ele>26.0</ele><time>2026-04-18T12:51:19.999Z</time></trkpt><trkpt lat="36.91829624267836" lon="15.145889443568244"><ele>26.25</ele><time>2026-04-18T12:51:20.999Z</time></trkpt><trkpt lat="36.91840638168019" lon="15.145986779476864"><ele>26.5</ele><time>2026-04-18T12:51:21.999Z</time></trkpt><trkpt lat="36.91851998392428" lon="15.146084775319542"><ele>26.75</ele><time>2026-04-18T12:51:22.999Z</time></trkpt><trkpt lat="36.91864179426031" lon="15.14617838214188"><ele>27.0</ele><time>2026-04-18T12:51:23.999Z</time></trkpt><trkpt lat="36.9187751935833" lon="15.14627353178772"><ele>27.0</ele><time>2026-04-18T12:51:24.999Z</time></trkpt><trkpt lat="36.91891627332635" lon="15.146375663038384"><ele>27.0</ele><time>2026-04-18T12:51:25.999Z</time></trkpt><trkpt lat="36.91905102545491" lon="15.146489146646847"><ele>27.0</ele><time>2026-04-18T12:51:26.999Z</time></trkpt><trkpt lat="36.91917085766269" lon="15.146605376877668"><ele>26.75</ele><time>2026-04-18T12:51:27.999Z</time></trkpt><trkpt lat="36.9192801557139" lon="15.14672049844153"><ele>26.5</ele><time>2026-04-18T12:51:28.999Z</time></trkpt><trkpt lat="36.919381263517245" lon="15.146828619496349"><ele>26.25</ele><time>2026-04-18T12:51:29.999Z</time></trkpt><trkpt lat="36.919464667920955" lon="15.14693848079283"><ele>26.0</ele><time>2026-04-18T12:51:30.999Z</time></trkpt><trkpt lat="36.919516324154195" lon="15.14703797439402"><ele>26.0</ele><time>2026-04-18T12:51:31.999Z</time></trkpt><trkpt lat="36.9195462885601" lon="15.14712859682441"><ele>26.0</ele><time>2026-04-18T12:51:33.999Z</time></trkpt><trkpt lat="36.919594481796594" lon="15.147251475884422"><ele>26.0</ele><time>2026-04-18T12:51:36.999Z</time></trkpt><trkpt lat="36.919632395476576" lon="15.147348561099504"><ele>26.0</ele><time>2026-04-18T12:51:37.999Z</time></trkpt><trkpt lat="36.91968725582836" lon="15.147443389773242"><ele>26.0</ele><time>2026-04-18T12:51:38.999Z</time></trkpt><trkpt lat="36.919772553684865" lon="15.147512334863954"><ele>25.8</ele><time>2026-04-18T12:51:39.999Z</time></trkpt><trkpt lat="36.919881617803675" lon="15.147527537954762"><ele>25.6</ele><time>2026-04-18T12:51:40.999Z</time></trkpt><trkpt lat="36.91998857319776" lon="15.147490067633173"><ele>25.4</ele><time>2026-04-18T12:51:41.999Z</time></trkpt><trkpt lat="36.92007020345294" lon="15.147408154363697"><ele>25.2</ele><time>2026-04-18T12:51:42.999Z</time></trkpt><trkpt lat="36.92012433092665" lon="15.147283852539172"><ele>25.0</ele><time>2026-04-18T12:51:43.999Z</time></trkpt><trkpt lat="36.92014553263217" lon="15.147141262070512"><ele>25.75</ele><time>2026-04-18T12:51:44.999Z</time></trkpt><trkpt lat="36.92014501640511" lon="15.146993451437513"><ele>26.5</ele><time>2026-04-18T12:51:45.999Z</time></trkpt><trkpt lat="36.920142955321886" lon="15.14683176267611"><ele>27.25</ele><time>2026-04-18T12:51:46.999Z</time></trkpt><trkpt lat="36.92016060400112" lon="15.146663622865354"><ele>28.0</ele><time>2026-04-18T12:51:47.999Z</time></trkpt><trkpt lat="36.920195630911934" lon="15.146495145896854"><ele>28.666666666666668</ele><time>2026-04-18T12:51:48.999Z</time></trkpt><trkpt lat="36.9202417861841" lon="15.14632731390164"><ele>29.333333333333336</ele><time>2026-04-18T12:51:49.999Z</time></trkpt><trkpt lat="36.92029578393673" lon="15.146141265347758"><ele>30.0</ele><time>2026-04-18T12:51:50.999Z</time></trkpt><trkpt lat="36.920349723842556" lon="15.145942972314675"><ele>30.0</ele><time>2026-04-18T12:51:51.999Z</time></trkpt><trkpt lat="36.92039763357076" lon="15.145739657484546"><ele>30.0</ele><time>2026-04-18T12:51:52.999Z</time></trkpt><trkpt lat="36.920442795245975" lon="15.145535304457725"><ele>30.0</ele><time>2026-04-18T12:51:53.999Z</time></trkpt><trkpt lat="36.920488006308055" lon="15.145326365385802"><ele>30.333333333333336</ele><time>2026-04-18T12:51:54.999Z</time></trkpt><trkpt lat="36.92053398072337" lon="15.14511725497914"><ele>30.666666666666668</ele><time>2026-04-18T12:51:55.999Z</time></trkpt><trkpt lat="36.920579836539176" lon="15.144907225071066"><ele>31.0</ele><time>2026-04-18T12:51:56.999Z</time></trkpt><trkpt lat="36.92062473495619" lon="15.14468896040303"><ele>31.0</ele><time>2026-04-18T12:51:57.999Z</time></trkpt><trkpt lat="36.920667366979785" lon="15.144461932363367"><ele>31.0</ele><time>2026-04-18T12:51:58.999Z</time></trkpt><trkpt lat="36.920710562900105" lon="15.144227111452643"><ele>31.0</ele><time>2026-04-18T12:51:59.999Z</time></trkpt><trkpt lat="36.92075626697183" lon="15.143994240390455"><ele>31.333333333333336</ele><time>2026-04-18T12:52:00.999Z</time></trkpt><trkpt lat="36.92080124030829" lon="15.143757517722843"><ele>31.666666666666664</ele><time>2026-04-18T12:52:01.999Z</time></trkpt><trkpt lat="36.92084129040304" lon="15.14351382801444"><ele>32.0</ele><time>2026-04-18T12:52:02.999Z</time></trkpt><trkpt lat="36.920874337518775" lon="15.143276122647906"><ele>33.0</ele><time>2026-04-18T12:52:03.999Z</time></trkpt><trkpt lat="36.92090269825239" lon="15.143040052847343"><ele>34.0</ele><time>2026-04-18T12:52:04.999Z</time></trkpt><trkpt lat="36.92092933372611" lon="15.142809714088507"><ele>35.0</ele><time>2026-04-18T12:52:05.999Z</time></trkpt><trkpt lat="36.92095456456439" lon="15.142578760842879"><ele>35.666666666666664</ele><time>2026-04-18T12:52:06.999Z</time></trkpt><trkpt lat="36.92098062889111" lon="15.142346283071175"><ele>36.333333333333336</ele><time>2026-04-18T12:52:07.999Z</time></trkpt><trkpt lat="36.92100218630555" lon="15.142119691295864"><ele>37.0</ele><time>2026-04-18T12:52:08.999Z</time></trkpt><trkpt lat="36.92102675756128" lon="15.14188161144427"><ele>37.0</ele><time>2026-04-18T12:52:09.999Z</time></trkpt><trkpt lat="36.92104346663264" lon="15.141641133837709"><ele>37.0</ele><time>2026-04-18T12:52:10.999Z</time></trkpt><trkpt lat="36.92105835822588" lon="15.141393491910334"><ele>37.0</ele><time>2026-04-18T12:52:11.999Z</time></trkpt><trkpt lat="36.92107107910471" lon="15.141143223198853"><ele>37.66666666666667</ele><time>2026-04-18T12:52:12.999Z</time></trkpt><trkpt lat="36.92108225563088" lon="15.140892736516482"><ele>38.333333333333336</ele><time>2026-04-18T12:52:13.999Z</time></trkpt><trkpt lat="36.921087713598624" lon="15.14064614681284"><ele>39.0</ele><time>2026-04-18T12:52:14.999Z</time></trkpt><trkpt lat="36.92108889868487" lon="15.140398012455952"><ele>40.0</ele><time>2026-04-18T12:52:15.999Z</time></trkpt><trkpt lat="36.92108395344318" lon="15.140154342901699"><ele>41.0</ele><time>2026-04-18T12:52:16.999Z</time></trkpt><trkpt lat="36.92107434704106" lon="15.139914232666092"><ele>42.0</ele><time>2026-04-18T12:52:17.999Z</time></trkpt><trkpt lat="36.92106066330607" lon="15.139675977743483"><ele>42.666666666666664</ele><time>2026-04-18T12:52:18.999Z</time></trkpt><trkpt lat="36.9210394627545" lon="15.13943826661779"><ele>43.33333333333333</ele><time>2026-04-18T12:52:19.999Z</time></trkpt><trkpt lat="36.921017532064475" lon="15.139206424455667"><ele>44.0</ele><time>2026-04-18T12:52:20.999Z</time></trkpt><trkpt lat="36.920993801840766" lon="15.138959680479406"><ele>44.33333333333333</ele><time>2026-04-18T12:52:21.999Z</time></trkpt><trkpt lat="36.92097140941053" lon="15.138715501546125"><ele>44.666666666666664</ele><time>2026-04-18T12:52:22.999Z</time></trkpt><trkpt lat="36.92094290443328" lon="15.138462379708"><ele>45.0</ele><time>2026-04-18T12:52:23.999Z</time></trkpt><trkpt lat="36.9209155924042" lon="15.138210957313044"><ele>45.333333333333336</ele><time>2026-04-18T12:52:24.999Z</time></trkpt><trkpt lat="36.9208885484206" lon="15.13794600694507"><ele>45.66666666666667</ele><time>2026-04-18T12:52:25.999Z</time></trkpt><trkpt lat="36.92085408872464" lon="15.137696175024763"><ele>46.0</ele><time>2026-04-18T12:52:26.999Z</time></trkpt><trkpt lat="36.920822999532454" lon="15.137414088258883"><ele>46.0</ele><time>2026-04-18T12:52:27.999Z</time></trkpt><trkpt lat="36.92079472471917" lon="15.137136882541784"><ele>46.0</ele><time>2026-04-18T12:52:28.999Z</time></trkpt><trkpt lat="36.92075325506117" lon="15.136863731706473"><ele>46.0</ele><time>2026-04-18T12:52:29.998Z</time></trkpt><trkpt lat="36.9207021726955" lon="15.136594010777744"><ele>47.333333333333336</ele><time>2026-04-18T12:52:30.998Z</time></trkpt><trkpt lat="36.920653042002925" lon="15.13631845487825"><ele>48.66666666666667</ele><time>2026-04-18T12:52:31.998Z</time></trkpt><trkpt lat="36.92060281692263" lon="15.136048433373176"><ele>50.0</ele><time>2026-04-18T12:52:32.998Z</time></trkpt><trkpt lat="36.92054562682227" lon="15.1357815502833"><ele>51.0</ele><time>2026-04-18T12:52:33.998Z</time></trkpt><trkpt lat="36.92048062830969" lon="15.135507523339864"><ele>52.0</ele><time>2026-04-18T12:52:34.998Z</time></trkpt><trkpt lat="36.9204150132702" lon="15.135237933104252"><ele>52.0</ele><time>2026-04-18T12:52:35.998Z</time></trkpt><trkpt lat="36.92034342403281" lon="15.134974289996073"><ele>52.0</ele><time>2026-04-18T12:52:36.998Z</time></trkpt><trkpt lat="36.920270218874926" lon="15.134710977865428"><ele>52.0</ele><time>2026-04-18T12:52:37.998Z</time></trkpt><trkpt lat="36.920194859729115" lon="15.13445172539268"><ele>53.0</ele><time>2026-04-18T12:52:38.999Z</time></trkpt><trkpt lat="36.920115318510966" lon="15.134192106158599"><ele>54.0</ele><time>2026-04-18T12:52:39.999Z</time></trkpt><trkpt lat="36.92003349474489" lon="15.13393426865049"><ele>55.0</ele><time>2026-04-18T12:52:40.999Z</time></trkpt><trkpt lat="36.919948417697476" lon="15.133678502562777"><ele>55.33333333333333</ele><time>2026-04-18T12:52:41.999Z</time></trkpt><trkpt lat="36.91986022946621" lon="15.133426135908921"><ele>55.66666666666667</ele><time>2026-04-18T12:52:42.999Z</time></trkpt><trkpt lat="36.91976580609278" lon="15.133173127785195"><ele>56.0</ele><time>2026-04-18T12:52:43.999Z</time></trkpt><trkpt lat="36.919665350505944" lon="15.132922605402864"><ele>56.66666666666667</ele><time>2026-04-18T12:52:44.999Z</time></trkpt><trkpt lat="36.9195699569643" lon="15.132685053201918"><ele>57.33333333333333</ele><time>2026-04-18T12:52:45.999Z</time></trkpt><trkpt lat="36.919471691821" lon="15.132456769678717"><ele>58.0</ele><time>2026-04-18T12:52:46.999Z</time></trkpt><trkpt lat="36.91937023400143" lon="15.132232646534835"><ele>58.0</ele><time>2026-04-18T12:52:48Z</time></trkpt><trkpt lat="36.91927062701327" lon="15.13201412031763"><ele>58.0</ele><time>2026-04-18T12:52:49Z</time></trkpt><trkpt lat="36.919168231494396" lon="15.131796925863306"><ele>58.0</ele><time>2026-04-18T12:52:50Z</time></trkpt><trkpt lat="36.919064967269" lon="15.131580742196698"><ele>58.666666666666664</ele><time>2026-04-18T12:52:51Z</time></trkpt><trkpt lat="36.918959831589405" lon="15.131360579635384"><ele>59.33333333333333</ele><time>2026-04-18T12:52:52Z</time></trkpt><trkpt lat="36.918853710970275" lon="15.13114254224446"><ele>60.0</ele><time>2026-04-18T12:52:53Z</time></trkpt><trkpt lat="36.9187430768912" lon="15.130924336169134"><ele>61.0</ele><time>2026-04-18T12:52:54Z</time></trkpt><trkpt lat="36.91863189233128" lon="15.130704324377772"><ele>62.0</ele><time>2026-04-18T12:52:55Z</time></trkpt><trkpt lat="36.918525776805524" lon="15.130487226135944"><ele>63.0</ele><time>2026-04-18T12:52:56Z</time></trkpt><trkpt lat="36.91842145634017" lon="15.130269172816297"><ele>62.0</ele><time>2026-04-18T12:52:57Z</time></trkpt><trkpt lat="36.91831575844681" lon="15.130059793616564"><ele>61.0</ele><time>2026-04-18T12:52:58Z</time></trkpt><trkpt lat="36.91820367685434" lon="15.12985443177431"><ele>60.0</ele><time>2026-04-18T12:52:59Z</time></trkpt><trkpt lat="36.91808574591416" lon="15.129662470102444"><ele>60.0</ele><time>2026-04-18T12:53:00Z</time></trkpt><trkpt lat="36.91796075151553" lon="15.129489637919164"><ele>60.0</ele><time>2026-04-18T12:53:01Z</time></trkpt><trkpt lat="36.91783438560117" lon="15.12931316731153"><ele>60.0</ele><time>2026-04-18T12:53:02Z</time></trkpt><trkpt lat="36.91770401476519" lon="15.129132117806842"><ele>60.0</ele><time>2026-04-18T12:53:03Z</time></trkpt><trkpt lat="36.917573873135055" lon="15.128963920307049"><ele>60.0</ele><time>2026-04-18T12:53:04Z</time></trkpt><trkpt lat="36.917440156505016" lon="15.128796945880609"><ele>60.0</ele><time>2026-04-18T12:53:05Z</time></trkpt><trkpt lat="36.917300877543944" lon="15.12863507271992"><ele>60.0</ele><time>2026-04-18T12:53:06Z</time></trkpt><trkpt lat="36.917161628030556" lon="15.128483429386392"><ele>60.0</ele><time>2026-04-18T12:53:07Z</time></trkpt><trkpt lat="36.91702683998088" lon="15.12834640570015"><ele>60.0</ele><time>2026-04-18T12:53:08Z</time></trkpt><trkpt lat="36.91689439584606" lon="15.128209564999256"><ele>59.66666666666667</ele><time>2026-04-18T12:53:09Z</time></trkpt><trkpt lat="36.9167556153074" lon="15.12807805969022"><ele>59.333333333333336</ele><time>2026-04-18T12:53:10Z</time></trkpt><trkpt lat="36.91660710689668" lon="15.127953149720932"><ele>59.0</ele><time>2026-04-18T12:53:11Z</time></trkpt><trkpt lat="36.916453937023206" lon="15.127832799139112"><ele>59.0</ele><time>2026-04-18T12:53:12Z</time></trkpt><trkpt lat="36.91629525549182" lon="15.127708980874596"><ele>59.0</ele><time>2026-04-18T12:53:13Z</time></trkpt><trkpt lat="36.91613054230843" lon="15.127587699582048"><ele>59.0</ele><time>2026-04-18T12:53:14Z</time></trkpt><trkpt lat="36.91596060171689" lon="15.12746073004186"><ele>59.333333333333336</ele><time>2026-04-18T12:53:15Z</time></trkpt><trkpt lat="36.9157907020549" lon="15.127338554341597"><ele>59.66666666666667</ele><time>2026-04-18T12:53:16Z</time></trkpt><trkpt lat="36.91561363512754" lon="15.127226970554144"><ele>60.0</ele><time>2026-04-18T12:53:17Z</time></trkpt><trkpt lat="36.9154344207975" lon="15.127129448254658"><ele>60.0</ele><time>2026-04-18T12:53:17.999Z</time></trkpt><trkpt lat="36.91524905234634" lon="15.12704095304163"><ele>60.0</ele><time>2026-04-18T12:53:18.999Z</time></trkpt><trkpt lat="36.9150575412844" lon="15.126961686579728"><ele>60.0</ele><time>2026-04-18T12:53:19.999Z</time></trkpt><trkpt lat="36.91485903046457" lon="15.12689427971501"><ele>59.66666666666667</ele><time>2026-04-18T12:53:20.999Z</time></trkpt><trkpt lat="36.91466406819569" lon="15.126832649156347"><ele>59.333333333333336</ele><time>2026-04-18T12:53:21.999Z</time></trkpt><trkpt lat="36.91446226337053" lon="15.126779489326555"><ele>59.0</ele><time>2026-04-18T12:53:22.999Z</time></trkpt><trkpt lat="36.914262566279376" lon="15.126739865454027"><ele>59.333333333333336</ele><time>2026-04-18T12:53:23.999Z</time></trkpt><trkpt lat="36.91406615176304" lon="15.126712032808072"><ele>59.66666666666667</ele><time>2026-04-18T12:53:24.999Z</time></trkpt><trkpt lat="36.91388180093121" lon="15.1266931515242"><ele>60.0</ele><time>2026-04-18T12:53:25.999Z</time></trkpt><trkpt lat="36.91371201473448" lon="15.126678196605791"><ele>60.0</ele><time>2026-04-18T12:53:26.999Z</time></trkpt><trkpt lat="36.91356384321883" lon="15.126664595431329"><ele>60.0</ele><time>2026-04-18T12:53:27.999Z</time></trkpt><trkpt lat="36.91344153776708" lon="15.126655127493652"><ele>60.0</ele><time>2026-04-18T12:53:28.999Z</time></trkpt><trkpt lat="36.91335232565595" lon="15.126631190909066"><ele>60.0</ele><time>2026-04-18T12:53:29.999Z</time></trkpt><trkpt lat="36.91328804973714" lon="15.126589355871813"><ele>60.0</ele><time>2026-04-18T12:53:30.999Z</time></trkpt><trkpt lat="36.913251617983526" lon="15.126438947160185"><ele>61.0</ele><time>2026-04-18T12:53:32.999Z</time></trkpt><trkpt lat="36.91325706207167" lon="15.126311045185421"><ele>62.0</ele><time>2026-04-18T12:53:33.999Z</time></trkpt><trkpt lat="36.913268692061195" lon="15.126173246382402"><ele>63.0</ele><time>2026-04-18T12:53:34.999Z</time></trkpt><trkpt lat="36.91327819044934" lon="15.126019851030675"><ele>64.0</ele><time>2026-04-18T12:53:35.999Z</time></trkpt><trkpt lat="36.91328105316988" lon="15.125868743654733"><ele>64.25</ele><time>2026-04-18T12:53:36.999Z</time></trkpt><trkpt lat="36.913283000161904" lon="15.125708569019874"><ele>64.5</ele><time>2026-04-18T12:53:37.999Z</time></trkpt><trkpt lat="36.91328718704114" lon="15.12554079462092"><ele>64.75</ele><time>2026-04-18T12:53:38.999Z</time></trkpt><trkpt lat="36.91329165258962" lon="15.125362639519677"><ele>65.0</ele><time>2026-04-18T12:53:39.999Z</time></trkpt><trkpt lat="36.913296039366614" lon="15.125179139578817"><ele>65.0</ele><time>2026-04-18T12:53:40.999Z</time></trkpt><trkpt lat="36.91329887027674" lon="15.12499012555215"><ele>65.0</ele><time>2026-04-18T12:53:41.999Z</time></trkpt><trkpt lat="36.91329757874539" lon="15.124794000230779"><ele>65.0</ele><time>2026-04-18T12:53:42.999Z</time></trkpt><trkpt lat="36.91329218092193" lon="15.124599373007134"><ele>65.33333333333334</ele><time>2026-04-18T12:53:43.999Z</time></trkpt><trkpt lat="36.913283352338084" lon="15.124394281531352"><ele>65.66666666666667</ele><time>2026-04-18T12:53:44.999Z</time></trkpt><trkpt lat="36.91327141779775" lon="15.124201346207744"><ele>66.0</ele><time>2026-04-18T12:53:45.999Z</time></trkpt><trkpt lat="36.91325629367344" lon="15.124005105990022"><ele>67.0</ele><time>2026-04-18T12:53:46.999Z</time></trkpt><trkpt lat="36.913239932800664" lon="15.123800686162687"><ele>68.0</ele><time>2026-04-18T12:53:47.999Z</time></trkpt><trkpt lat="36.91322453084028" lon="15.123593150667611"><ele>69.0</ele><time>2026-04-18T12:53:48.999Z</time></trkpt><trkpt lat="36.91321162540143" lon="15.123384235609459"><ele>69.66666666666667</ele><time>2026-04-18T12:53:49.999Z</time></trkpt><trkpt lat="36.913199250048564" lon="15.123176656326352"><ele>70.33333333333334</ele><time>2026-04-18T12:53:50.999Z</time></trkpt><trkpt lat="36.913183843616764" lon="15.122968169182279"><ele>71.0</ele><time>2026-04-18T12:53:51.999Z</time></trkpt><trkpt lat="36.91316967323036" lon="15.122751829858494"><ele>71.0</ele><time>2026-04-18T12:53:52.999Z</time></trkpt><trkpt lat="36.91315771630297" lon="15.122531827616399"><ele>71.0</ele><time>2026-04-18T12:53:53.999Z</time></trkpt><trkpt lat="36.913143753717385" lon="15.122311602857462"><ele>71.0</ele><time>2026-04-18T12:53:54.999Z</time></trkpt><trkpt lat="36.913128247332004" lon="15.12209258831693"><ele>72.0</ele><time>2026-04-18T12:53:55.999Z</time></trkpt><trkpt lat="36.913110799007" lon="15.12186039522855"><ele>73.0</ele><time>2026-04-18T12:53:56.999Z</time></trkpt><trkpt lat="36.913091031912835" lon="15.121606896809855"><ele>74.0</ele><time>2026-04-18T12:53:57.999Z</time></trkpt><trkpt lat="36.913074653584154" lon="15.121353554604806"><ele>74.0</ele><time>2026-04-18T12:53:58.999Z</time></trkpt><trkpt lat="36.9130619768653" lon="15.12109277375571"><ele>74.0</ele><time>2026-04-18T12:53:59.999Z</time></trkpt><trkpt lat="36.91305521879998" lon="15.120851379215093"><ele>74.0</ele><time>2026-04-18T12:54:00.999Z</time></trkpt><trkpt lat="36.91303698363232" lon="15.120624277893523"><ele>74.66666666666667</ele><time>2026-04-18T12:54:01.999Z</time></trkpt><trkpt lat="36.913032659358045" lon="15.120375339103283"><ele>75.33333333333333</ele><time>2026-04-18T12:54:02.999Z</time></trkpt><trkpt lat="36.91303677581279" lon="15.120136290722371"><ele>76.0</ele><time>2026-04-18T12:54:03.999Z</time></trkpt><trkpt lat="36.913064018088114" lon="15.119911335056091"><ele>76.66666666666666</ele><time>2026-04-18T12:54:04.999Z</time></trkpt><trkpt lat="36.913105276675864" lon="15.119688967194072"><ele>77.33333333333333</ele><time>2026-04-18T12:54:05.999Z</time></trkpt><trkpt lat="36.91316410225084" lon="15.119480515263207"><ele>78.0</ele><time>2026-04-18T12:54:06.999Z</time></trkpt><trkpt lat="36.91324587095162" lon="15.119288345530801"><ele>78.0</ele><time>2026-04-18T12:54:07.999Z</time></trkpt><trkpt lat="36.913336602137875" lon="15.119095669008662"><ele>78.0</ele><time>2026-04-18T12:54:08.999Z</time></trkpt><trkpt lat="36.9134250181212" lon="15.11889617568223"><ele>78.0</ele><time>2026-04-18T12:54:09.999Z</time></trkpt><trkpt lat="36.91351018260295" lon="15.11870173812248"><ele>79.33333333333333</ele><time>2026-04-18T12:54:10.999Z</time></trkpt><trkpt lat="36.913588203676824" lon="15.118507291586175"><ele>80.66666666666666</ele><time>2026-04-18T12:54:11.999Z</time></trkpt><trkpt lat="36.9136725020921" lon="15.118308431332546"><ele>82.0</ele><time>2026-04-18T12:54:12.999Z</time></trkpt><trkpt lat="36.91375256884857" lon="15.118114655735145"><ele>83.33333333333333</ele><time>2026-04-18T12:54:13.999Z</time></trkpt><trkpt lat="36.91383779470199" lon="15.117923720481707"><ele>84.66666666666667</ele><time>2026-04-18T12:54:14.999Z</time></trkpt><trkpt lat="36.91392561301252" lon="15.117736158247766"><ele>86.0</ele><time>2026-04-18T12:54:15.999Z</time></trkpt><trkpt lat="36.914039286402684" lon="15.117568404952884"><ele>87.0</ele><time>2026-04-18T12:54:16.999Z</time></trkpt><trkpt lat="36.91414522486309" lon="15.117399785977527"><ele>88.0</ele><time>2026-04-18T12:54:17.999Z</time></trkpt><trkpt lat="36.91424297104905" lon="15.117218038760726"><ele>89.0</ele><time>2026-04-18T12:54:18.999Z</time></trkpt><trkpt lat="36.914351784671894" lon="15.117053244332858"><ele>89.0</ele><time>2026-04-18T12:54:19.999Z</time></trkpt><trkpt lat="36.914453433049054" lon="15.116890200276687"><ele>89.0</ele><time>2026-04-18T12:54:20.999Z</time></trkpt><trkpt lat="36.91455740615834" lon="15.116727810579318"><ele>89.0</ele><time>2026-04-18T12:54:21.999Z</time></trkpt><trkpt lat="36.91459847567291" lon="15.116512775160471"><ele>90.66666666666667</ele><time>2026-04-18T12:54:22.999Z</time></trkpt><trkpt lat="36.91463924530233" lon="15.116288767760432"><ele>92.33333333333333</ele><time>2026-04-18T12:54:23.999Z</time></trkpt><trkpt lat="36.91471341339874" lon="15.116068275363858"><ele>94.0</ele><time>2026-04-18T12:54:24.999Z</time></trkpt><trkpt lat="36.91477794351582" lon="15.115829119180527"><ele>94.33333333333333</ele><time>2026-04-18T12:54:25.999Z</time></trkpt><trkpt lat="36.914847168347784" lon="15.11559426121954"><ele>94.66666666666667</ele><time>2026-04-18T12:54:26.999Z</time></trkpt><trkpt lat="36.914918952587755" lon="15.115364277763403"><ele>95.0</ele><time>2026-04-18T12:54:27.999Z</time></trkpt><trkpt lat="36.91498982140947" lon="15.1151328795099"><ele>95.66666666666667</ele><time>2026-04-18T12:54:28.999Z</time></trkpt><trkpt lat="36.91506017042154" lon="15.114898745061824"><ele>96.33333333333334</ele><time>2026-04-18T12:54:29.999Z</time></trkpt><trkpt lat="36.91512977837795" lon="15.114667977445887"><ele>97.0</ele><time>2026-04-18T12:54:30.999Z</time></trkpt><trkpt lat="36.915198159397654" lon="15.114445965551962"><ele>98.33333333333334</ele><time>2026-04-18T12:54:31.999Z</time></trkpt><trkpt lat="36.91526402013535" lon="15.114233837918212"><ele>99.66666666666666</ele><time>2026-04-18T12:54:32.999Z</time></trkpt><trkpt lat="36.915326444436836" lon="15.114040022955542"><ele>101.0</ele><time>2026-04-18T12:54:33.999Z</time></trkpt><trkpt lat="36.915388982612306" lon="15.113864205907001"><ele>101.0</ele><time>2026-04-18T12:54:34.999Z</time></trkpt><trkpt lat="36.91544053699594" lon="15.11370601794575"><ele>101.0</ele><time>2026-04-18T12:54:35.999Z</time></trkpt><trkpt lat="36.9155010689164" lon="15.113573609709146"><ele>101.0</ele><time>2026-04-18T12:54:36.999Z</time></trkpt><trkpt lat="36.91557843069414" lon="15.113476349258443"><ele>101.0</ele><time>2026-04-18T12:54:37.999Z</time></trkpt><trkpt lat="36.91567066097767" lon="15.113424324006388"><ele>101.0</ele><time>2026-04-18T12:54:38.999Z</time></trkpt><trkpt lat="36.91576578894688" lon="15.113405814217217"><ele>101.0</ele><time>2026-04-18T12:54:39.999Z</time></trkpt><trkpt lat="36.91586827647757" lon="15.113391997809495"><ele>101.0</ele><time>2026-04-18T12:54:40.999Z</time></trkpt><trkpt lat="36.91594834060885" lon="15.113382270888"><ele>101.0</ele><time>2026-04-18T12:54:41.999Z</time></trkpt><trkpt lat="36.9160193644039" lon="15.11313407742421"><ele>101.0</ele><time>2026-04-18T12:54:43.999Z</time></trkpt><trkpt lat="36.91601047972275" lon="15.113014631744406"><ele>101.0</ele><time>2026-04-18T12:54:45Z</time></trkpt><trkpt lat="36.9159807970292" lon="15.112896443126614"><ele>101.0</ele><time>2026-04-18T12:54:46Z</time></trkpt><trkpt lat="36.91595235432328" lon="15.112769972895771"><ele>101.0</ele><time>2026-04-18T12:54:47Z</time></trkpt><trkpt lat="36.91592171592615" lon="15.112629077468728"><ele>101.0</ele><time>2026-04-18T12:54:48Z</time></trkpt><trkpt lat="36.915888183399986" lon="15.112470475447545"><ele>100.5</ele><time>2026-04-18T12:54:49Z</time></trkpt><trkpt lat="36.91585210691765" lon="15.112312384999575"><ele>100.0</ele><time>2026-04-18T12:54:50Z</time></trkpt><trkpt lat="36.91581245581942" lon="15.112147374836313"><ele>99.5</ele><time>2026-04-18T12:54:51Z</time></trkpt><trkpt lat="36.915772850965396" lon="15.111973934504894"><ele>99.0</ele><time>2026-04-18T12:54:52Z</time></trkpt><trkpt lat="36.91573821287807" lon="15.11180119656658"><ele>99.0</ele><time>2026-04-18T12:54:53Z</time></trkpt><trkpt lat="36.91571003384198" lon="15.111628382415965"><ele>99.0</ele><time>2026-04-18T12:54:54Z</time></trkpt><trkpt lat="36.915680345985756" lon="15.111451013089917"><ele>99.0</ele><time>2026-04-18T12:54:55Z</time></trkpt><trkpt lat="36.91564745940561" lon="15.111274701240902"><ele>99.0</ele><time>2026-04-18T12:54:56Z</time></trkpt><trkpt lat="36.9156137622522" lon="15.111097596037151"><ele>99.0</ele><time>2026-04-18T12:54:57Z</time></trkpt><trkpt lat="36.91556403640175" lon="15.110922896296143"><ele>99.0</ele><time>2026-04-18T12:54:58Z</time></trkpt><trkpt lat="36.91548949756794" lon="15.110771722741685"><ele>99.0</ele><time>2026-04-18T12:54:59Z</time></trkpt><trkpt lat="36.91539142137427" lon="15.110634397222807"><ele>99.0</ele><time>2026-04-18T12:55:00Z</time></trkpt><trkpt lat="36.91529600123331" lon="15.110513692327578"><ele>100.75</ele><time>2026-04-18T12:55:01Z</time></trkpt><trkpt lat="36.9152242956253" lon="15.11038776203579"><ele>102.5</ele><time>2026-04-18T12:55:02Z</time></trkpt><trkpt lat="36.915188339770225" lon="15.110250664599748"><ele>104.25</ele><time>2026-04-18T12:55:03Z</time></trkpt><trkpt lat="36.91518902505013" lon="15.11011162061195"><ele>106.0</ele><time>2026-04-18T12:55:04Z</time></trkpt><trkpt lat="36.91519997260299" lon="15.109966242469786"><ele>106.75</ele><time>2026-04-18T12:55:05Z</time></trkpt><trkpt lat="36.91519964491776" lon="15.10979582220646"><ele>107.5</ele><time>2026-04-18T12:55:06Z</time></trkpt><trkpt lat="36.915219540327485" lon="15.109611363639795"><ele>108.25</ele><time>2026-04-18T12:55:07Z</time></trkpt><trkpt lat="36.915238358680405" lon="15.109413284097426"><ele>109.0</ele><time>2026-04-18T12:55:08Z</time></trkpt><trkpt lat="36.91525975537173" lon="15.109206096956834"><ele>109.33333333333334</ele><time>2026-04-18T12:55:09Z</time></trkpt><trkpt lat="36.91527665060827" lon="15.108998246885276"><ele>109.66666666666666</ele><time>2026-04-18T12:55:10Z</time></trkpt><trkpt lat="36.91529278915317" lon="15.108796521850008"><ele>110.0</ele><time>2026-04-18T12:55:11Z</time></trkpt><trkpt lat="36.91531616671383" lon="15.108600068794965"><ele>110.0</ele><time>2026-04-18T12:55:12Z</time></trkpt><trkpt lat="36.91534106251977" lon="15.108410507588204"><ele>110.0</ele><time>2026-04-18T12:55:13Z</time></trkpt><trkpt lat="36.91537937245142" lon="15.108226593536758"><ele>110.0</ele><time>2026-04-18T12:55:14Z</time></trkpt><trkpt lat="36.91543285116392" lon="15.10805444048561"><ele>112.0</ele><time>2026-04-18T12:55:15Z</time></trkpt><trkpt lat="36.91551140619406" lon="15.107877736688211"><ele>114.0</ele><time>2026-04-18T12:55:16Z</time></trkpt><trkpt lat="36.915607427536045" lon="15.107703015975204"><ele>116.0</ele><time>2026-04-18T12:55:17Z</time></trkpt><trkpt lat="36.915699217166946" lon="15.107534351088766"><ele>115.66666666666666</ele><time>2026-04-18T12:55:18Z</time></trkpt><trkpt lat="36.915804801221746" lon="15.107362802490373"><ele>115.33333333333334</ele><time>2026-04-18T12:55:19Z</time></trkpt><trkpt lat="36.91591166112091" lon="15.107193202613738"><ele>115.0</ele><time>2026-04-18T12:55:20Z</time></trkpt><trkpt lat="36.9160121484401" lon="15.107025548922127"><ele>115.0</ele><time>2026-04-18T12:55:21Z</time></trkpt><trkpt lat="36.91609799322499" lon="15.106851775266685"><ele>115.0</ele><time>2026-04-18T12:55:22Z</time></trkpt><trkpt lat="36.91616225782127" lon="15.106668608752305"><ele>115.0</ele><time>2026-04-18T12:55:23Z</time></trkpt><trkpt lat="36.91621906494527" lon="15.10646334009913"><ele>117.33333333333334</ele><time>2026-04-18T12:55:24Z</time></trkpt><trkpt lat="36.916277148885456" lon="15.106254990356433"><ele>119.66666666666666</ele><time>2026-04-18T12:55:25Z</time></trkpt><trkpt lat="36.916332613616994" lon="15.106055273495539"><ele>122.0</ele><time>2026-04-18T12:55:26Z</time></trkpt><trkpt lat="36.91638875696903" lon="15.105866347480797"><ele>124.25</ele><time>2026-04-18T12:55:27Z</time></trkpt><trkpt lat="36.91644831966956" lon="15.105700074462074"><ele>126.5</ele><time>2026-04-18T12:55:28Z</time></trkpt><trkpt lat="36.916527183231345" lon="15.105539371201832"><ele>128.75</ele><time>2026-04-18T12:55:29Z</time></trkpt><trkpt lat="36.91662573033194" lon="15.105400341657393"><ele>131.0</ele><time>2026-04-18T12:55:30Z</time></trkpt><trkpt lat="36.91673464785472" lon="15.105298254138813"><ele>129.75</ele><time>2026-04-18T12:55:31Z</time></trkpt><trkpt lat="36.91683946146997" lon="15.105196220452834"><ele>128.5</ele><time>2026-04-18T12:55:32Z</time></trkpt><trkpt lat="36.91691964565762" lon="15.10506482421796"><ele>127.25</ele><time>2026-04-18T12:55:33Z</time></trkpt><trkpt lat="36.91697963530667" lon="15.104925373802477"><ele>126.0</ele><time>2026-04-18T12:55:34Z</time></trkpt><trkpt lat="36.91700863555191" lon="15.104784317459576"><ele>126.0</ele><time>2026-04-18T12:55:35Z</time></trkpt><trkpt lat="36.91705713538112" lon="15.104639202843604"><ele>126.0</ele><time>2026-04-18T12:55:36Z</time></trkpt><trkpt lat="36.91710522376026" lon="15.104487032803505"><ele>126.0</ele><time>2026-04-18T12:55:37Z</time></trkpt><trkpt lat="36.91718553250484" lon="15.104360559030301"><ele>126.0</ele><time>2026-04-18T12:55:38Z</time></trkpt><trkpt lat="36.91727647962592" lon="15.10421979217288"><ele>127.33333333333334</ele><time>2026-04-18T12:55:38.999Z</time></trkpt><trkpt lat="36.91733925299939" lon="15.104046913174285"><ele>128.66666666666669</ele><time>2026-04-18T12:55:39.999Z</time></trkpt><trkpt lat="36.91740216958271" lon="15.103873033358465"><ele>130.0</ele><time>2026-04-18T12:55:40.999Z</time></trkpt><trkpt lat="36.917473921077075" lon="15.10369883971879"><ele>130.0</ele><time>2026-04-18T12:55:41.999Z</time></trkpt><trkpt lat="36.917532886279666" lon="15.103521136540202"><ele>130.0</ele><time>2026-04-18T12:55:42.999Z</time></trkpt><trkpt lat="36.91757213289977" lon="15.103330937765724"><ele>130.0</ele><time>2026-04-18T12:55:43.999Z</time></trkpt><trkpt lat="36.917576848617905" lon="15.103133052314654"><ele>130.5</ele><time>2026-04-18T12:55:44.999Z</time></trkpt><trkpt lat="36.91755044467833" lon="15.102949667581274"><ele>131.0</ele><time>2026-04-18T12:55:45.999Z</time></trkpt><trkpt lat="36.917558784668465" lon="15.102787235414148"><ele>131.5</ele><time>2026-04-18T12:55:46.999Z</time></trkpt><trkpt lat="36.917607511785654" lon="15.102648687752147"><ele>132.0</ele><time>2026-04-18T12:55:47.999Z</time></trkpt><trkpt lat="36.91766805525085" lon="15.102505777926867"><ele>133.66666666666666</ele><time>2026-04-18T12:55:48.999Z</time></trkpt><trkpt lat="36.917728239253194" lon="15.10233758975591"><ele>135.33333333333331</ele><time>2026-04-18T12:55:49.999Z</time></trkpt><trkpt lat="36.91780448163187" lon="15.102170747969824"><ele>137.0</ele><time>2026-04-18T12:55:50.999Z</time></trkpt><trkpt lat="36.91788467281299" lon="15.102003077641566"><ele>137.0</ele><time>2026-04-18T12:55:51.999Z</time></trkpt><trkpt lat="36.91796173911621" lon="15.101842132782355"><ele>137.0</ele><time>2026-04-18T12:55:52.999Z</time></trkpt><trkpt lat="36.918013885379985" lon="15.101684400434312"><ele>137.0</ele><time>2026-04-18T12:55:53.999Z</time></trkpt><trkpt lat="36.91803120547018" lon="15.101530450117012"><ele>137.0</ele><time>2026-04-18T12:55:54.999Z</time></trkpt><trkpt lat="36.918028938222335" lon="15.101375700366898"><ele>138.0</ele><time>2026-04-18T12:55:55.999Z</time></trkpt><trkpt lat="36.91800483422112" lon="15.101219786888652"><ele>139.0</ele><time>2026-04-18T12:55:56.999Z</time></trkpt><trkpt lat="36.917966794994" lon="15.101060036097424"><ele>140.0</ele><time>2026-04-18T12:55:57.999Z</time></trkpt><trkpt lat="36.917912560279355" lon="15.100900823755039"><ele>141.0</ele><time>2026-04-18T12:55:58.999Z</time></trkpt><trkpt lat="36.91783186813762" lon="15.100752947933776"><ele>142.0</ele><time>2026-04-18T12:55:59.999Z</time></trkpt><trkpt lat="36.9177324486953" lon="15.10060690616667"><ele>143.0</ele><time>2026-04-18T12:56:00.999Z</time></trkpt><trkpt lat="36.917619775113856" lon="15.100467379773287"><ele>144.0</ele><time>2026-04-18T12:56:01.999Z</time></trkpt><trkpt lat="36.91749408627912" lon="15.10034154200521"><ele>144.0</ele><time>2026-04-18T12:56:02.999Z</time></trkpt><trkpt lat="36.91735888871153" lon="15.100219532285495"><ele>144.0</ele><time>2026-04-18T12:56:03.999Z</time></trkpt><trkpt lat="36.91722158130748" lon="15.100089644874187"><ele>144.0</ele><time>2026-04-18T12:56:04.999Z</time></trkpt><trkpt lat="36.91708675212818" lon="15.099958216894375"><ele>144.33333333333334</ele><time>2026-04-18T12:56:05.999Z</time></trkpt><trkpt lat="36.91695223797013" lon="15.099832985836265"><ele>144.66666666666669</ele><time>2026-04-18T12:56:06.999Z</time></trkpt><trkpt lat="36.916812229628384" lon="15.099713561622352"><ele>145.0</ele><time>2026-04-18T12:56:07.999Z</time></trkpt><trkpt lat="36.91666795604391" lon="15.099597228865644"><ele>145.0</ele><time>2026-04-18T12:56:08.999Z</time></trkpt><trkpt lat="36.91652334484014" lon="15.099481911148997"><ele>145.0</ele><time>2026-04-18T12:56:09.999Z</time></trkpt><trkpt lat="36.91637960467143" lon="15.099361359943183"><ele>145.0</ele><time>2026-04-18T12:56:10.999Z</time></trkpt><trkpt lat="36.91624049977028" lon="15.099228179245678"><ele>146.0</ele><time>2026-04-18T12:56:11.999Z</time></trkpt><trkpt lat="36.91611932701426" lon="15.099078683888486"><ele>147.0</ele><time>2026-04-18T12:56:12.999Z</time></trkpt><trkpt lat="36.91601076689554" lon="15.098915816325492"><ele>148.0</ele><time>2026-04-18T12:56:13.999Z</time></trkpt><trkpt lat="36.91591590559779" lon="15.098755889645153"><ele>146.33333333333334</ele><time>2026-04-18T12:56:14.999Z</time></trkpt><trkpt lat="36.91583485307076" lon="15.098581580239747"><ele>144.66666666666666</ele><time>2026-04-18T12:56:15.999Z</time></trkpt><trkpt lat="36.91576068157298" lon="15.098396320349645"><ele>143.0</ele><time>2026-04-18T12:56:16.999Z</time></trkpt><trkpt lat="36.915683327731486" lon="15.098212033851654"><ele>143.0</ele><time>2026-04-18T12:56:17.999Z</time></trkpt><trkpt lat="36.91559992021957" lon="15.098023200533444"><ele>143.0</ele><time>2026-04-18T12:56:18.999Z</time></trkpt><trkpt lat="36.915520966442905" lon="15.09783623998987"><ele>143.0</ele><time>2026-04-18T12:56:19.999Z</time></trkpt><trkpt lat="36.91544483609309" lon="15.097656100398119"><ele>143.0</ele><time>2026-04-18T12:56:20.999Z</time></trkpt><trkpt lat="36.91537133479399" lon="15.0974846971818"><ele>143.0</ele><time>2026-04-18T12:56:21.999Z</time></trkpt><trkpt lat="36.91530250723788" lon="15.09732033550986"><ele>143.0</ele><time>2026-04-18T12:56:22.999Z</time></trkpt><trkpt lat="36.915235778135624" lon="15.097162524268976"><ele>143.0</ele><time>2026-04-18T12:56:23.999Z</time></trkpt><trkpt lat="36.91516673634346" lon="15.097018601592486"><ele>142.75</ele><time>2026-04-18T12:56:24.999Z</time></trkpt><trkpt lat="36.915078074057796" lon="15.096903530771911"><ele>142.5</ele><time>2026-04-18T12:56:25.999Z</time></trkpt><trkpt lat="36.91495138867603" lon="15.09681509880077"><ele>142.25</ele><time>2026-04-18T12:56:26.999Z</time></trkpt><trkpt lat="36.914802153139625" lon="15.096737524277584"><ele>142.0</ele><time>2026-04-18T12:56:27.999Z</time></trkpt><trkpt lat="36.914653485475185" lon="15.096662068508993"><ele>142.33333333333334</ele><time>2026-04-18T12:56:28.999Z</time></trkpt><trkpt lat="36.914507668252284" lon="15.096579377424385"><ele>142.66666666666666</ele><time>2026-04-18T12:56:29.999Z</time></trkpt><trkpt lat="36.914367119431965" lon="15.096494288321058"><ele>143.0</ele><time>2026-04-18T12:56:30.999Z</time></trkpt><trkpt lat="36.91422656929623" lon="15.096405654318783"><ele>143.0</ele><time>2026-04-18T12:56:31.999Z</time></trkpt><trkpt lat="36.91409943717606" lon="15.096314570214599"><ele>143.0</ele><time>2026-04-18T12:56:32.999Z</time></trkpt><trkpt lat="36.91398193449428" lon="15.096225728013458"><ele>143.0</ele><time>2026-04-18T12:56:33.999Z</time></trkpt><trkpt lat="36.91386745448099" lon="15.09614073884865"><ele>143.0</ele><time>2026-04-18T12:56:34.999Z</time></trkpt><trkpt lat="36.913763131911715" lon="15.09605115538032"><ele>143.0</ele><time>2026-04-18T12:56:35.999Z</time></trkpt><trkpt lat="36.913677011271716" lon="15.095960158672716"><ele>143.0</ele><time>2026-04-18T12:56:36.999Z</time></trkpt><trkpt lat="36.91360567113976" lon="15.095851996607381"><ele>143.0</ele><time>2026-04-18T12:56:37.999Z</time></trkpt><trkpt lat="36.913536893434376" lon="15.09574010260309"><ele>143.0</ele><time>2026-04-18T12:56:38.999Z</time></trkpt><trkpt lat="36.91346414560561" lon="15.095627576782972"><ele>143.0</ele><time>2026-04-18T12:56:39.999Z</time></trkpt><trkpt lat="36.91339341436584" lon="15.095513261967527"><ele>143.0</ele><time>2026-04-18T12:56:40.999Z</time></trkpt><trkpt lat="36.91331870846731" lon="15.095397141061879"><ele>143.0</ele><time>2026-04-18T12:56:41.999Z</time></trkpt><trkpt lat="36.91323781751313" lon="15.095274101176013"><ele>143.0</ele><time>2026-04-18T12:56:42.999Z</time></trkpt><trkpt lat="36.91314939107855" lon="15.09514707088888"><ele>143.0</ele><time>2026-04-18T12:56:43.999Z</time></trkpt><trkpt lat="36.913047515790176" lon="15.095002545845434"><ele>143.0</ele><time>2026-04-18T12:56:44.999Z</time></trkpt><trkpt lat="36.91294025472298" lon="15.09485238489472"><ele>143.0</ele><time>2026-04-18T12:56:45.999Z</time></trkpt><trkpt lat="36.91284368874115" lon="15.094674987135056"><ele>143.33333333333331</ele><time>2026-04-18T12:56:46.999Z</time></trkpt><trkpt lat="36.91273472573643" lon="15.09450727677553"><ele>143.66666666666666</ele><time>2026-04-18T12:56:47.999Z</time></trkpt><trkpt lat="36.912605149233904" lon="15.09432607693061"><ele>144.0</ele><time>2026-04-18T12:56:48.999Z</time></trkpt><trkpt lat="36.91249593247375" lon="15.094137944483476"><ele>144.33333333333334</ele><time>2026-04-18T12:56:49.999Z</time></trkpt><trkpt lat="36.912402698141854" lon="15.093929190926927"><ele>144.66666666666669</ele><time>2026-04-18T12:56:51Z</time></trkpt><trkpt lat="36.91230780863709" lon="15.093709253155547"><ele>145.0</ele><time>2026-04-18T12:56:52Z</time></trkpt><trkpt lat="36.91220109375369" lon="15.093489724263668"><ele>145.0</ele><time>2026-04-18T12:56:53Z</time></trkpt><trkpt lat="36.912092433195134" lon="15.093274789631048"><ele>145.0</ele><time>2026-04-18T12:56:54Z</time></trkpt><trkpt lat="36.911977452041064" lon="15.093070825536797"><ele>145.0</ele><time>2026-04-18T12:56:55Z</time></trkpt><trkpt lat="36.911850881685424" lon="15.092869327900312"><ele>145.33333333333334</ele><time>2026-04-18T12:56:56Z</time></trkpt><trkpt lat="36.91172554883588" lon="15.092672969641885"><ele>145.66666666666666</ele><time>2026-04-18T12:56:57Z</time></trkpt><trkpt lat="36.91161027620395" lon="15.092473820314272"><ele>146.0</ele><time>2026-04-18T12:56:58Z</time></trkpt><trkpt lat="36.91151319279026" lon="15.092273731331895"><ele>147.33333333333331</ele><time>2026-04-18T12:56:59Z</time></trkpt><trkpt lat="36.91142051985315" lon="15.09206714665811"><ele>148.66666666666666</ele><time>2026-04-18T12:57:00Z</time></trkpt><trkpt lat="36.91132122303634" lon="15.091871215043959"><ele>150.0</ele><time>2026-04-18T12:57:01Z</time></trkpt><trkpt lat="36.911212545871244" lon="15.09167857410291"><ele>150.33333333333334</ele><time>2026-04-18T12:57:02Z</time></trkpt><trkpt lat="36.911098884654706" lon="15.091486419857581"><ele>150.66666666666669</ele><time>2026-04-18T12:57:03Z</time></trkpt><trkpt lat="36.91099301570611" lon="15.091302343452798"><ele>151.0</ele><time>2026-04-18T12:57:04Z</time></trkpt><trkpt lat="36.910893038741364" lon="15.091133684930874"><ele>151.0</ele><time>2026-04-18T12:57:05Z</time></trkpt><trkpt lat="36.91077112021654" lon="15.090983157615113"><ele>151.0</ele><time>2026-04-18T12:57:06Z</time></trkpt><trkpt lat="36.9106282057139" lon="15.090841736559298"><ele>151.0</ele><time>2026-04-18T12:57:07Z</time></trkpt><trkpt lat="36.91049698610443" lon="15.090705467809373"><ele>152.0</ele><time>2026-04-18T12:57:08Z</time></trkpt><trkpt lat="36.910365103902954" lon="15.09056700383462"><ele>153.0</ele><time>2026-04-18T12:57:09Z</time></trkpt><trkpt lat="36.91023220991527" lon="15.090425035701752"><ele>154.0</ele><time>2026-04-18T12:57:10Z</time></trkpt><trkpt lat="36.91010319231675" lon="15.090290234395116"><ele>151.0</ele><time>2026-04-18T12:57:11Z</time></trkpt><trkpt lat="36.909969364109145" lon="15.090170060726688"><ele>148.0</ele><time>2026-04-18T12:57:12Z</time></trkpt><trkpt lat="36.90983009260833" lon="15.090066867461857"><ele>145.0</ele><time>2026-04-18T12:57:13Z</time></trkpt><trkpt lat="36.90967820177704" lon="15.089983097577807"><ele>145.66666666666669</ele><time>2026-04-18T12:57:14Z</time></trkpt><trkpt lat="36.9095184506428" lon="15.08991650024046"><ele>146.33333333333334</ele><time>2026-04-18T12:57:15Z</time></trkpt><trkpt lat="36.90934333911247" lon="15.089869061112354"><ele>147.0</ele><time>2026-04-18T12:57:16Z</time></trkpt><trkpt lat="36.909160133358306" lon="15.08982068401383"><ele>144.66666666666666</ele><time>2026-04-18T12:57:17Z</time></trkpt><trkpt lat="36.90897881785076" lon="15.089771708949131"><ele>142.33333333333331</ele><time>2026-04-18T12:57:18Z</time></trkpt><trkpt lat="36.90879915345656" lon="15.089733706054075"><ele>140.0</ele><time>2026-04-18T12:57:19Z</time></trkpt><trkpt lat="36.908621520037556" lon="15.089727314027964"><ele>140.0</ele><time>2026-04-18T12:57:20Z</time></trkpt><trkpt lat="36.908441538208066" lon="15.089734967506937"><ele>140.0</ele><time>2026-04-18T12:57:21Z</time></trkpt><trkpt lat="36.90826822008154" lon="15.08970477890036"><ele>140.0</ele><time>2026-04-18T12:57:22Z</time></trkpt><trkpt lat="36.908090334198164" lon="15.089658627150442"><ele>137.66666666666666</ele><time>2026-04-18T12:57:23Z</time></trkpt><trkpt lat="36.907915556297844" lon="15.089604234003321"><ele>135.33333333333334</ele><time>2026-04-18T12:57:24Z</time></trkpt><trkpt lat="36.90774173444051" lon="15.089545625894653"><ele>133.0</ele><time>2026-04-18T12:57:25Z</time></trkpt><trkpt lat="36.90756950634321" lon="15.08948264614511"><ele>132.0</ele><time>2026-04-18T12:57:26Z</time></trkpt><trkpt lat="36.9074069921579" lon="15.089409118273128"><ele>131.0</ele><time>2026-04-18T12:57:27Z</time></trkpt><trkpt lat="36.90725367641535" lon="15.08933388514427"><ele>130.0</ele><time>2026-04-18T12:57:28Z</time></trkpt><trkpt lat="36.907105239410065" lon="15.089261791604798"><ele>130.0</ele><time>2026-04-18T12:57:29Z</time></trkpt><trkpt lat="36.90696662654474" lon="15.089189705144642"><ele>130.0</ele><time>2026-04-18T12:57:30Z</time></trkpt><trkpt lat="36.90684259201177" lon="15.089103066628365"><ele>130.0</ele><time>2026-04-18T12:57:31Z</time></trkpt><trkpt lat="36.906725629168974" lon="15.08900936681388"><ele>130.0</ele><time>2026-04-18T12:57:32Z</time></trkpt><trkpt lat="36.90660101729761" lon="15.088944687400042"><ele>129.0</ele><time>2026-04-18T12:57:33Z</time></trkpt><trkpt lat="36.90646288631315" lon="15.088922154014854"><ele>128.0</ele><time>2026-04-18T12:57:34Z</time></trkpt><trkpt lat="36.90632929088841" lon="15.088875113541935"><ele>127.0</ele><time>2026-04-18T12:57:35Z</time></trkpt><trkpt lat="36.90618829829061" lon="15.088864960673561"><ele>126.0</ele><time>2026-04-18T12:57:36Z</time></trkpt><trkpt lat="36.90604700111199" lon="15.088790934941969"><ele>126.33333333333334</ele><time>2026-04-18T12:57:37Z</time></trkpt><trkpt lat="36.90589033240562" lon="15.088698474973814"><ele>126.66666666666667</ele><time>2026-04-18T12:57:38Z</time></trkpt><trkpt lat="36.90572496267667" lon="15.088592717258697"><ele>127.0</ele><time>2026-04-18T12:57:39Z</time></trkpt><trkpt lat="36.90558443082392" lon="15.088468713218209"><ele>127.0</ele><time>2026-04-18T12:57:40Z</time></trkpt><trkpt lat="36.90543465945789" lon="15.088329806121862"><ele>127.0</ele><time>2026-04-18T12:57:41Z</time></trkpt><trkpt lat="36.90527136455787" lon="15.088180087383163"><ele>127.0</ele><time>2026-04-18T12:57:42Z</time></trkpt><trkpt lat="36.90509566961233" lon="15.08804488682148"><ele>128.33333333333334</ele><time>2026-04-18T12:57:43Z</time></trkpt><trkpt lat="36.904925098935465" lon="15.087904855750956"><ele>129.66666666666666</ele><time>2026-04-18T12:57:44Z</time></trkpt><trkpt lat="36.90474945156875" lon="15.087771239735368"><ele>131.0</ele><time>2026-04-18T12:57:45Z</time></trkpt><trkpt lat="36.9046032497966" lon="15.087629733539545"><ele>131.0</ele><time>2026-04-18T12:57:45.999Z</time></trkpt><trkpt lat="36.904430610876744" lon="15.087505561123578"><ele>131.0</ele><time>2026-04-18T12:57:46.999Z</time></trkpt><trkpt lat="36.90426370892329" lon="15.087368350791591"><ele>131.0</ele><time>2026-04-18T12:57:47.999Z</time></trkpt><trkpt lat="36.904081432517785" lon="15.087238718331664"><ele>130.66666666666666</ele><time>2026-04-18T12:57:48.999Z</time></trkpt><trkpt lat="36.90392130711557" lon="15.087120933494296"><ele>130.33333333333334</ele><time>2026-04-18T12:57:49.999Z</time></trkpt><trkpt lat="36.90378222574382" lon="15.0870164156793"><ele>130.0</ele><time>2026-04-18T12:57:50.999Z</time></trkpt><trkpt lat="36.90363069895875" lon="15.086951919542456"><ele>130.0</ele><time>2026-04-18T12:57:51.999Z</time></trkpt><trkpt lat="36.90346433548326" lon="15.086909575437387"><ele>130.0</ele><time>2026-04-18T12:57:52.999Z</time></trkpt><trkpt lat="36.90328853389087" lon="15.08688431948044"><ele>130.0</ele><time>2026-04-18T12:57:53.999Z</time></trkpt><trkpt lat="36.90312016985101" lon="15.086850660241248"><ele>128.33333333333334</ele><time>2026-04-18T12:57:54.999Z</time></trkpt><trkpt lat="36.90294790570983" lon="15.086796753887802"><ele>126.66666666666666</ele><time>2026-04-18T12:57:55.999Z</time></trkpt><trkpt lat="36.902777546056214" lon="15.086727366841684"><ele>125.0</ele><time>2026-04-18T12:57:56.999Z</time></trkpt><trkpt lat="36.902614820729475" lon="15.086654202007136"><ele>127.33333333333333</ele><time>2026-04-18T12:57:57.999Z</time></trkpt><trkpt lat="36.90245302480217" lon="15.086574507048377"><ele>129.66666666666666</ele><time>2026-04-18T12:57:58.999Z</time></trkpt><trkpt lat="36.902300442081454" lon="15.086495848297387"><ele>132.0</ele><time>2026-04-18T12:57:59.999Z</time></trkpt><trkpt lat="36.90215179422823" lon="15.086413841338375"><ele>132.0</ele><time>2026-04-18T12:58:00.999Z</time></trkpt><trkpt lat="36.90200408044963" lon="15.086325880216288"><ele>132.0</ele><time>2026-04-18T12:58:01.999Z</time></trkpt><trkpt lat="36.90185676541285" lon="15.086232200065453"><ele>132.0</ele><time>2026-04-18T12:58:02.999Z</time></trkpt><trkpt lat="36.90170278374247" lon="15.086153548849506"><ele>132.0</ele><time>2026-04-18T12:58:03.999Z</time></trkpt><trkpt lat="36.90154399875794" lon="15.086094482290722"><ele>132.0</ele><time>2026-04-18T12:58:04.999Z</time></trkpt><trkpt lat="36.90137600949911" lon="15.086051144066712"><ele>132.0</ele><time>2026-04-18T12:58:05.999Z</time></trkpt><trkpt lat="36.90121418543914" lon="15.086012569075361"><ele>132.0</ele><time>2026-04-18T12:58:06.999Z</time></trkpt><trkpt lat="36.90108194591466" lon="15.08595804637518"><ele>132.0</ele><time>2026-04-18T12:58:07.999Z</time></trkpt><trkpt lat="36.90097413715876" lon="15.085857565493646"><ele>132.0</ele><time>2026-04-18T12:58:08.999Z</time></trkpt><trkpt lat="36.90085323080171" lon="15.085769460200742"><ele>132.0</ele><time>2026-04-18T12:58:09.999Z</time></trkpt><trkpt lat="36.90073892546432" lon="15.085646057491882"><ele>135.33333333333334</ele><time>2026-04-18T12:58:10.999Z</time></trkpt><trkpt lat="36.90062512391985" lon="15.085511453740422"><ele>138.66666666666669</ele><time>2026-04-18T12:58:11.999Z</time></trkpt><trkpt lat="36.900506896055504" lon="15.085380492758281"><ele>142.0</ele><time>2026-04-18T12:58:12.999Z</time></trkpt><trkpt lat="36.9003883809671" lon="15.08525648731886"><ele>142.0</ele><time>2026-04-18T12:58:13.999Z</time></trkpt><trkpt lat="36.90028078290917" lon="15.085120062677808"><ele>142.0</ele><time>2026-04-18T12:58:14.999Z</time></trkpt><trkpt lat="36.900170686178335" lon="15.08496104185113"><ele>142.0</ele><time>2026-04-18T12:58:15.999Z</time></trkpt><trkpt lat="36.900061036859995" lon="15.08479581634828"><ele>140.66666666666669</ele><time>2026-04-18T12:58:16.999Z</time></trkpt><trkpt lat="36.8999528676466" lon="15.08464662207011"><ele>139.33333333333334</ele><time>2026-04-18T12:58:17.999Z</time></trkpt><trkpt lat="36.89983922734368" lon="15.084515277884254"><ele>138.0</ele><time>2026-04-18T12:58:18.999Z</time></trkpt><trkpt lat="36.899715336197026" lon="15.084400071557624"><ele>138.0</ele><time>2026-04-18T12:58:19.999Z</time></trkpt><trkpt lat="36.899579169872204" lon="15.08429498476252"><ele>138.0</ele><time>2026-04-18T12:58:20.999Z</time></trkpt><trkpt lat="36.89945247267395" lon="15.084185211412121"><ele>138.0</ele><time>2026-04-18T12:58:21.999Z</time></trkpt><trkpt lat="36.899357962800146" lon="15.084038416623333"><ele>137.25</ele><time>2026-04-18T12:58:22.999Z</time></trkpt><trkpt lat="36.899258937250536" lon="15.083899248318945"><ele>136.5</ele><time>2026-04-18T12:58:23.999Z</time></trkpt><trkpt lat="36.89921011809316" lon="15.083727551225257"><ele>135.75</ele><time>2026-04-18T12:58:24.999Z</time></trkpt><trkpt lat="36.899168637166866" lon="15.083559336868504"><ele>135.0</ele><time>2026-04-18T12:58:25.999Z</time></trkpt><trkpt lat="36.89912215328572" lon="15.083387177565221"><ele>130.75</ele><time>2026-04-18T12:58:26.999Z</time></trkpt><trkpt lat="36.89908779070663" lon="15.08320685098361"><ele>126.5</ele><time>2026-04-18T12:58:27.999Z</time></trkpt><trkpt lat="36.89901668887647" lon="15.08304523480127"><ele>122.25</ele><time>2026-04-18T12:58:28.999Z</time></trkpt><trkpt lat="36.898933844308495" lon="15.082897646910194"><ele>118.0</ele><time>2026-04-18T12:58:29.999Z</time></trkpt><trkpt lat="36.898877659413635" lon="15.08272785689886"><ele>118.0</ele><time>2026-04-18T12:58:30.999Z</time></trkpt><trkpt lat="36.8987890057953" lon="15.08257449562458"><ele>118.0</ele><time>2026-04-18T12:58:31.999Z</time></trkpt><trkpt lat="36.89870936511845" lon="15.08239860064901"><ele>118.0</ele><time>2026-04-18T12:58:32.999Z</time></trkpt><trkpt lat="36.89862505991155" lon="15.08223941577203"><ele>117.0</ele><time>2026-04-18T12:58:33.999Z</time></trkpt><trkpt lat="36.89853439548213" lon="15.08209080641258"><ele>116.0</ele><time>2026-04-18T12:58:34.999Z</time></trkpt><trkpt lat="36.89845904044353" lon="15.081952108217084"><ele>115.0</ele><time>2026-04-18T12:58:35.999Z</time></trkpt><trkpt lat="36.898372354850025" lon="15.08184802832487"><ele>114.0</ele><time>2026-04-18T12:58:36.999Z</time></trkpt><trkpt lat="36.8982671864088" lon="15.08177909425713"><ele>114.0</ele><time>2026-04-18T12:58:37.999Z</time></trkpt><trkpt lat="36.8981415229029" lon="15.081729839413809"><ele>114.0</ele><time>2026-04-18T12:58:38.999Z</time></trkpt><trkpt lat="36.89801290963016" lon="15.081673707154273"><ele>114.0</ele><time>2026-04-18T12:58:39.999Z</time></trkpt><trkpt lat="36.89787742988414" lon="15.081627912106729"><ele>114.0</ele><time>2026-04-18T12:58:40.999Z</time></trkpt><trkpt lat="36.89773881085104" lon="15.081566832164343"><ele>111.75</ele><time>2026-04-18T12:58:41.999Z</time></trkpt><trkpt lat="36.89760428318746" lon="15.08149362562745"><ele>109.5</ele><time>2026-04-18T12:58:42.999Z</time></trkpt><trkpt lat="36.89747966762357" lon="15.081414510597845"><ele>107.25</ele><time>2026-04-18T12:58:43.999Z</time></trkpt><trkpt lat="36.89738405659206" lon="15.081300004826504"><ele>105.0</ele><time>2026-04-18T12:58:44.999Z</time></trkpt><trkpt lat="36.8972779851251" lon="15.081203054250668"><ele>105.0</ele><time>2026-04-18T12:58:45.999Z</time></trkpt><trkpt lat="36.897187712446836" lon="15.081089401964311"><ele>105.0</ele><time>2026-04-18T12:58:46.999Z</time></trkpt><trkpt lat="36.897092581728245" lon="15.080992789496097"><ele>105.0</ele><time>2026-04-18T12:58:47.999Z</time></trkpt><trkpt lat="36.89699579797994" lon="15.080918550117483"><ele>105.0</ele><time>2026-04-18T12:58:48.999Z</time></trkpt><trkpt lat="36.89690646762534" lon="15.080878789480304"><ele>105.0</ele><time>2026-04-18T12:58:49.999Z</time></trkpt><trkpt lat="36.896836723814225" lon="15.080798443838312"><ele>105.0</ele><time>2026-04-18T12:58:51.999Z</time></trkpt><trkpt lat="36.89686746538212" lon="15.08069674743314"><ele>105.0</ele><time>2026-04-18T12:58:53.999Z</time></trkpt><trkpt lat="36.89693927142646" lon="15.08063195464524"><ele>105.0</ele><time>2026-04-18T12:58:54.999Z</time></trkpt><trkpt lat="36.896985243491855" lon="15.080515171717423"><ele>105.0</ele><time>2026-04-18T12:58:55.999Z</time></trkpt><trkpt lat="36.897026143371846" lon="15.080394181039503"><ele>103.6</ele><time>2026-04-18T12:58:57Z</time></trkpt><trkpt lat="36.89704723650434" lon="15.080264461550131"><ele>102.2</ele><time>2026-04-18T12:58:58Z</time></trkpt><trkpt lat="36.897073985940175" lon="15.08013868304366"><ele>100.80000000000001</ele><time>2026-04-18T12:58:59Z</time></trkpt><trkpt lat="36.89705464541976" lon="15.079999306173049"><ele>99.4</ele><time>2026-04-18T12:59:00Z</time></trkpt><trkpt lat="36.89704104038261" lon="15.07985542315879"><ele>98.0</ele><time>2026-04-18T12:59:01Z</time></trkpt><trkpt lat="36.897011738899245" lon="15.07971471638352"><ele>97.4</ele><time>2026-04-18T12:59:02Z</time></trkpt><trkpt lat="36.896969131514645" lon="15.07956942875492"><ele>96.80000000000001</ele><time>2026-04-18T12:59:03Z</time></trkpt><trkpt lat="36.89691141691965" lon="15.079464953361754"><ele>96.2</ele><time>2026-04-18T12:59:04Z</time></trkpt><trkpt lat="36.89683530072738" lon="15.079376486352384"><ele>95.6</ele><time>2026-04-18T12:59:05Z</time></trkpt><trkpt lat="36.89673433841417" lon="15.079321021489218"><ele>95.0</ele><time>2026-04-18T12:59:06Z</time></trkpt><trkpt lat="36.896611506508854" lon="15.079257355322401"><ele>95.0</ele><time>2026-04-18T12:59:07Z</time></trkpt><trkpt lat="36.896482483841304" lon="15.079162037140868"><ele>95.0</ele><time>2026-04-18T12:59:08Z</time></trkpt><trkpt lat="36.8963264756208" lon="15.079077589623084"><ele>95.0</ele><time>2026-04-18T12:59:09Z</time></trkpt><trkpt lat="36.89616889378904" lon="15.078990840816363"><ele>93.66666666666667</ele><time>2026-04-18T12:59:10Z</time></trkpt><trkpt lat="36.89600833392349" lon="15.078900973963135"><ele>92.33333333333333</ele><time>2026-04-18T12:59:11Z</time></trkpt><trkpt lat="36.89585268400856" lon="15.078799834608207"><ele>91.0</ele><time>2026-04-18T12:59:12Z</time></trkpt><trkpt lat="36.89571607013489" lon="15.078667099181827"><ele>90.33333333333333</ele><time>2026-04-18T12:59:13Z</time></trkpt><trkpt lat="36.89558762876607" lon="15.078514799173123"><ele>89.66666666666667</ele><time>2026-04-18T12:59:14Z</time></trkpt><trkpt lat="36.8954560257022" lon="15.078363429849219"><ele>89.0</ele><time>2026-04-18T12:59:15Z</time></trkpt><trkpt lat="36.89532365881551" lon="15.078210475213925"><ele>91.0</ele><time>2026-04-18T12:59:16Z</time></trkpt><trkpt lat="36.89519174385727" lon="15.078057619115809"><ele>93.0</ele><time>2026-04-18T12:59:17Z</time></trkpt><trkpt lat="36.89506277647152" lon="15.077908178197301"><ele>95.0</ele><time>2026-04-18T12:59:18Z</time></trkpt><trkpt lat="36.89492412168431" lon="15.077779142233645"><ele>95.0</ele><time>2026-04-18T12:59:19Z</time></trkpt><trkpt lat="36.89480496106629" lon="15.077630225766384"><ele>95.0</ele><time>2026-04-18T12:59:20Z</time></trkpt><trkpt lat="36.89469487429644" lon="15.077486037569077"><ele>95.0</ele><time>2026-04-18T12:59:21Z</time></trkpt><trkpt lat="36.89457998096136" lon="15.077365848350729"><ele>97.75</ele><time>2026-04-18T12:59:22Z</time></trkpt><trkpt lat="36.89445320153431" lon="15.077295172617584"><ele>100.5</ele><time>2026-04-18T12:59:23Z</time></trkpt><trkpt lat="36.894310532668705" lon="15.077273946763764"><ele>103.25</ele><time>2026-04-18T12:59:24Z</time></trkpt><trkpt lat="36.89416400049193" lon="15.077283847109761"><ele>106.0</ele><time>2026-04-18T12:59:25Z</time></trkpt><trkpt lat="36.894022846334096" lon="15.077290437771705"><ele>106.0</ele><time>2026-04-18T12:59:26Z</time></trkpt><trkpt lat="36.89390041224967" lon="15.077217717812767"><ele>106.0</ele><time>2026-04-18T12:59:27Z</time></trkpt><trkpt lat="36.893795589957804" lon="15.07712468742282"><ele>106.0</ele><time>2026-04-18T12:59:28Z</time></trkpt><trkpt lat="36.89369089981797" lon="15.077003173202556"><ele>106.0</ele><time>2026-04-18T12:59:29Z</time></trkpt><trkpt lat="36.893559278170365" lon="15.076882971779078"><ele>106.0</ele><time>2026-04-18T12:59:30Z</time></trkpt><trkpt lat="36.89343254734565" lon="15.076757392777873"><ele>106.0</ele><time>2026-04-18T12:59:31Z</time></trkpt><trkpt lat="36.89329584365291" lon="15.076654505792543"><ele>106.0</ele><time>2026-04-18T12:59:32Z</time></trkpt><trkpt lat="36.893151901847396" lon="15.076579668257214"><ele>112.33333333333334</ele><time>2026-04-18T12:59:33Z</time></trkpt><trkpt lat="36.89299898663522" lon="15.076529470472941"><ele>118.66666666666666</ele><time>2026-04-18T12:59:34Z</time></trkpt><trkpt lat="36.89284034906822" lon="15.076497229454308"><ele>125.0</ele><time>2026-04-18T12:59:35Z</time></trkpt><trkpt lat="36.892682421450615" lon="15.076477326207835"><ele>124.0</ele><time>2026-04-18T12:59:36Z</time></trkpt><trkpt lat="36.892527996419325" lon="15.076468500006255"><ele>123.0</ele><time>2026-04-18T12:59:37Z</time></trkpt><trkpt lat="36.89239233939735" lon="15.076446772136354"><ele>122.0</ele><time>2026-04-18T12:59:38Z</time></trkpt><trkpt lat="36.892278861160705" lon="15.076412488700184"><ele>121.0</ele><time>2026-04-18T12:59:39Z</time></trkpt><trkpt lat="36.8921919474485" lon="15.076354839809994"><ele>121.0</ele><time>2026-04-18T12:59:40Z</time></trkpt><trkpt lat="36.89214813931609" lon="15.076244590153566"><ele>121.0</ele><time>2026-04-18T12:59:41Z</time></trkpt><trkpt lat="36.892089314061494" lon="15.076138787413884"><ele>121.0</ele><time>2026-04-18T12:59:42Z</time></trkpt><trkpt lat="36.892020707900116" lon="15.076031388031526"><ele>121.0</ele><time>2026-04-18T12:59:43Z</time></trkpt><trkpt lat="36.89193600885873" lon="15.07595032854035"><ele>121.0</ele><time>2026-04-18T12:59:44Z</time></trkpt><trkpt lat="36.89185859668876" lon="15.075878519068251"><ele>121.00000000000001</ele><time>2026-04-18T12:59:45Z</time></trkpt><trkpt lat="36.89177277242564" lon="15.075827669877125"><ele>121.0</ele><time>2026-04-18T12:59:46Z</time></trkpt><trkpt lat="36.891688825444845" lon="15.07580188922123"><ele>121.0</ele><time>2026-04-18T12:59:47Z</time></trkpt><trkpt lat="36.89160498833778" lon="15.075791771659206"><ele>121.0</ele><time>2026-04-18T12:59:48Z</time></trkpt><trkpt lat="36.891526071973104" lon="15.07581414351361"><ele>121.00000000000001</ele><time>2026-04-18T12:59:49Z</time></trkpt><trkpt lat="36.89145354198323" lon="15.075855631072516"><ele>121.0</ele><time>2026-04-18T12:59:50Z</time></trkpt><trkpt lat="36.891383315651375" lon="15.075869250492104"><ele>120.33333333333334</ele><time>2026-04-18T12:59:51Z</time></trkpt><trkpt lat="36.89130779201194" lon="15.075792543420913"><ele>119.66666666666667</ele><time>2026-04-18T12:59:53Z</time></trkpt><trkpt lat="36.89123520530528" lon="15.07578091737867"><ele>119.0</ele><time>2026-04-18T12:59:55Z</time></trkpt><trkpt lat="36.89117363874579" lon="15.075745122131577"><ele>118.33333333333334</ele><time>2026-04-18T13:00:08.999Z</time></trkpt><trkpt lat="36.89110045244095" lon="15.075738077501818"><ele>117.66666666666667</ele><time>2026-04-18T13:00:09.999Z</time></trkpt><trkpt lat="36.89103271028128" lon="15.075710337671733"><ele>117.0</ele><time>2026-04-18T13:00:10.999Z</time></trkpt><trkpt lat="36.89095547959099" lon="15.07566274975141"><ele>117.0</ele><time>2026-04-18T13:00:11.999Z</time></trkpt><trkpt lat="36.89089054801873" lon="15.075634320544575"><ele>116.99999999999999</ele><time>2026-04-18T13:00:12.999Z</time></trkpt><trkpt lat="36.89080666386795" lon="15.075585357450377"><ele>116.99999999999999</ele><time>2026-04-18T13:00:14.999Z</time></trkpt><trkpt lat="36.890770333368" lon="15.075470928971852"><ele>117.0</ele><time>2026-04-18T13:00:18.999Z</time></trkpt><trkpt lat="36.89082565445553" lon="15.075323460826182"><ele>117.0</ele><time>2026-04-18T13:00:20.999Z</time></trkpt><trkpt lat="36.890856420580185" lon="15.07523051722614"><ele>117.0</ele><time>2026-04-18T13:00:21.999Z</time></trkpt><trkpt lat="36.89088321175621" lon="15.075139643192324"><ele>117.0</ele><time>2026-04-18T13:00:22.999Z</time></trkpt><trkpt lat="36.89091197231408" lon="15.07503754312041"><ele>117.0</ele><time>2026-04-18T13:00:23.999Z</time></trkpt><trkpt lat="36.8909451855156" lon="15.074929835233887"><ele>117.0</ele><time>2026-04-18T13:00:24.999Z</time></trkpt><trkpt lat="36.89097720834128" lon="15.07481742972084"><ele>117.0</ele><time>2026-04-18T13:00:25.999Z</time></trkpt><trkpt lat="36.891006458919556" lon="15.07470265404984"><ele>117.0</ele><time>2026-04-18T13:00:26.999Z</time></trkpt><trkpt lat="36.891034451070766" lon="15.074595104250776"><ele>119.19999999999999</ele><time>2026-04-18T13:00:27.999Z</time></trkpt><trkpt lat="36.891063181248214" lon="15.074491791217755"><ele>121.39999999999999</ele><time>2026-04-18T13:00:28.999Z</time></trkpt><trkpt lat="36.891094088702985" lon="15.07438751402273"><ele>123.60000000000001</ele><time>2026-04-18T13:00:29.999Z</time></trkpt><trkpt lat="36.89112325800595" lon="15.074286552089895"><ele>125.80000000000001</ele><time>2026-04-18T13:00:30.999Z</time></trkpt><trkpt lat="36.89115246924334" lon="15.074168504747606"><ele>128.0</ele><time>2026-04-18T13:00:31.999Z</time></trkpt><trkpt lat="36.891180505801735" lon="15.074054980020323"><ele>128.83333333333331</ele><time>2026-04-18T13:00:32.999Z</time></trkpt><trkpt lat="36.89122584909315" lon="15.073956766556305"><ele>129.66666666666666</ele><time>2026-04-18T13:00:33.999Z</time></trkpt><trkpt lat="36.89125102296627" lon="15.073830920584845"><ele>130.5</ele><time>2026-04-18T13:00:34.999Z</time></trkpt><trkpt lat="36.891281971197" lon="15.073720585823775"><ele>131.33333333333334</ele><time>2026-04-18T13:00:35.999Z</time></trkpt><trkpt lat="36.89130638603056" lon="15.07363707061124"><ele>132.16666666666669</ele><time>2026-04-18T13:00:36.999Z</time></trkpt><trkpt lat="36.89133052975373" lon="15.073559514297921"><ele>133.0</ele><time>2026-04-18T13:00:37.999Z</time></trkpt><trkpt lat="36.89134468636665" lon="15.073481648150734"><ele>133.0</ele><time>2026-04-18T13:00:44.999Z</time></trkpt><trkpt lat="36.89136875226752" lon="15.073352620226318"><ele>133.0</ele><time>2026-04-18T13:00:46.999Z</time></trkpt><trkpt lat="36.89142019613638" lon="15.073213322772315"><ele>133.0</ele><time>2026-04-18T13:00:48.999Z</time></trkpt><trkpt lat="36.89145633666821" lon="15.073065437549014"><ele>133.0</ele><time>2026-04-18T13:00:50.999Z</time></trkpt><trkpt lat="36.89149536199875" lon="15.072931364883335"><ele>133.66666666666669</ele><time>2026-04-18T13:00:52.999Z</time></trkpt><trkpt lat="36.89152359759564" lon="15.072850592873191"><ele>134.33333333333334</ele><time>2026-04-18T13:00:54.999Z</time></trkpt><trkpt lat="36.8915206377197" lon="15.072742303508177"><ele>135.0</ele><time>2026-04-18T13:01:00.999Z</time></trkpt><trkpt lat="36.89155256148562" lon="15.072650765686362"><ele>135.66666666666666</ele><time>2026-04-18T13:01:03Z</time></trkpt><trkpt lat="36.89159252356899" lon="15.072578668041517"><ele>136.33333333333331</ele><time>2026-04-18T13:01:10Z</time></trkpt><trkpt lat="36.89162295244664" lon="15.072470774430174"><ele>137.0</ele><time>2026-04-18T13:01:12Z</time></trkpt><trkpt lat="36.89164982630362" lon="15.07237817501747"><ele>137.0</ele><time>2026-04-18T13:01:14Z</time></trkpt><trkpt lat="36.89168188937144" lon="15.072249398621645"><ele>137.0</ele><time>2026-04-18T13:01:16Z</time></trkpt><trkpt lat="36.89171426027268" lon="15.072134245363404"><ele>137.0</ele><time>2026-04-18T13:01:18Z</time></trkpt><trkpt lat="36.89173972210489" lon="15.072041886558424"><ele>137.0</ele><time>2026-04-18T13:01:20Z</time></trkpt><trkpt lat="36.89176132077208" lon="15.071936163615147"><ele>137.0</ele><time>2026-04-18T13:01:22Z</time></trkpt><trkpt lat="36.89179075477442" lon="15.071838775698653"><ele>139.2</ele><time>2026-04-18T13:01:24Z</time></trkpt><trkpt lat="36.891828001298975" lon="15.071718574168337"><ele>141.39999999999998</ele><time>2026-04-18T13:01:26Z</time></trkpt><trkpt lat="36.89185364612013" lon="15.071587191525419"><ele>143.60000000000002</ele><time>2026-04-18T13:01:28Z</time></trkpt><trkpt lat="36.89191129888304" lon="15.071447963176057"><ele>145.8</ele><time>2026-04-18T13:01:30Z</time></trkpt><trkpt lat="36.8919349006033" lon="15.071370769750597"><ele>148.0</ele><time>2026-04-18T13:01:31Z</time></trkpt><trkpt lat="36.89194828065859" lon="15.071292760295288"><ele>148.0</ele><time>2026-04-18T13:01:32Z</time></trkpt><trkpt lat="36.89196358638985" lon="15.071212661147484"><ele>148.0</ele><time>2026-04-18T13:01:33Z</time></trkpt><trkpt lat="36.891996186266816" lon="15.07107990850546"><ele>148.0</ele><time>2026-04-18T13:01:35Z</time></trkpt><trkpt lat="36.89202592920091" lon="15.071002837377158"><ele>148.0</ele><time>2026-04-18T13:01:37Z</time></trkpt><trkpt lat="36.89205882043156" lon="15.070881444431665"><ele>148.0</ele><time>2026-04-18T13:01:47Z</time></trkpt><trkpt lat="36.89208370387141" lon="15.070771191625347"><ele>148.0</ele><time>2026-04-18T13:01:49Z</time></trkpt><trkpt lat="36.892111830623094" lon="15.0706417768626"><ele>146.0</ele><time>2026-04-18T13:01:51Z</time></trkpt><trkpt lat="36.89216536095769" lon="15.070509552296217"><ele>144.0</ele><time>2026-04-18T13:01:53Z</time></trkpt><trkpt lat="36.89220347218844" lon="15.070378643791644"><ele>142.0</ele><time>2026-04-18T13:01:55Z</time></trkpt><trkpt lat="36.8922474240304" lon="15.07026497376776"><ele>140.0</ele><time>2026-04-18T13:01:57Z</time></trkpt><trkpt lat="36.892293173822665" lon="15.070137818487828"><ele>138.0</ele><time>2026-04-18T13:01:59Z</time></trkpt><trkpt lat="36.892314036277156" lon="15.07006269285383"><ele>137.0</ele><time>2026-04-18T13:02:00Z</time></trkpt><trkpt lat="36.89235954657209" lon="15.06992865970186"><ele>136.0</ele><time>2026-04-18T13:02:02Z</time></trkpt><trkpt lat="36.89239779716556" lon="15.069777900144988"><ele>135.0</ele><time>2026-04-18T13:02:04Z</time></trkpt><trkpt lat="36.89242456445896" lon="15.069699524773469"><ele>134.0</ele><time>2026-04-18T13:02:05Z</time></trkpt><trkpt lat="36.89244896792763" lon="15.0696237277933"><ele>133.0</ele><time>2026-04-18T13:02:06Z</time></trkpt><trkpt lat="36.892472452020726" lon="15.069544401634518"><ele>132.0</ele><time>2026-04-18T13:02:07Z</time></trkpt><trkpt lat="36.89251372385782" lon="15.069399438274093"><ele>132.0</ele><time>2026-04-18T13:02:09Z</time></trkpt><trkpt lat="36.89255287316005" lon="15.06925485553266"><ele>132.0</ele><time>2026-04-18T13:02:11Z</time></trkpt><trkpt lat="36.892572620457365" lon="15.069176976126355"><ele>132.0</ele><time>2026-04-18T13:02:12Z</time></trkpt><trkpt lat="36.89258560193524" lon="15.06908260176732"><ele>132.0</ele><time>2026-04-18T13:02:13Z</time></trkpt><trkpt lat="36.89260623160969" lon="15.068991120094863"><ele>132.0</ele><time>2026-04-18T13:02:13.999Z</time></trkpt><trkpt lat="36.892631981807156" lon="15.068895212373484"><ele>132.0</ele><time>2026-04-18T13:02:14.999Z</time></trkpt><trkpt lat="36.892689343468284" lon="15.068821305986715"><ele>133.16666666666666</ele><time>2026-04-18T13:02:15.999Z</time></trkpt><trkpt lat="36.89271720651128" lon="15.068718513936952"><ele>134.33333333333334</ele><time>2026-04-18T13:02:16.999Z</time></trkpt><trkpt lat="36.89273230493411" lon="15.068605168635633"><ele>135.5</ele><time>2026-04-18T13:02:17.999Z</time></trkpt><trkpt lat="36.89275344552603" lon="15.068510790441804"><ele>136.66666666666669</ele><time>2026-04-18T13:02:18.999Z</time></trkpt><trkpt lat="36.89277681839874" lon="15.06842131872597"><ele>137.83333333333334</ele><time>2026-04-18T13:02:19.999Z</time></trkpt><trkpt lat="36.89279770847795" lon="15.068346569059653"><ele>139.0</ele><time>2026-04-18T13:02:20.999Z</time></trkpt><trkpt lat="36.89282456940474" lon="15.068274381029003"><ele>139.0</ele><time>2026-04-18T13:02:21.999Z</time></trkpt><trkpt lat="36.892848943330584" lon="15.068189896836161"><ele>139.0</ele><time>2026-04-18T13:02:22.999Z</time></trkpt><trkpt lat="36.89286677489736" lon="15.068091877100066"><ele>139.0</ele><time>2026-04-18T13:02:23.999Z</time></trkpt><trkpt lat="36.89288424045749" lon="15.06800404460071"><ele>139.0</ele><time>2026-04-18T13:02:24.999Z</time></trkpt><trkpt lat="36.89293342133507" lon="15.067877518747066"><ele>139.0</ele><time>2026-04-18T13:02:26.999Z</time></trkpt><trkpt lat="36.89295268065952" lon="15.067794289435493"><ele>139.0</ele><time>2026-04-18T13:02:28.999Z</time></trkpt><trkpt lat="36.89297185833776" lon="15.06771782254828"><ele>139.0</ele><time>2026-04-18T13:02:34.999Z</time></trkpt><trkpt lat="36.89279974651369" lon="15.067627175794776"><ele>139.0</ele><time>2026-04-18T13:02:37.999Z</time></trkpt><trkpt lat="36.89268385477107" lon="15.067614559713055"><ele>139.0</ele><time>2026-04-18T13:02:39.999Z</time></trkpt><trkpt lat="36.89261899211063" lon="15.067580356113355"><ele>139.0</ele><time>2026-04-18T13:02:41.999Z</time></trkpt><trkpt lat="36.89255796186046" lon="15.067551157690223"><ele>139.0</ele><time>2026-04-18T13:02:43.999Z</time></trkpt><trkpt lat="36.892496737214415" lon="15.067515198586625"><ele>137.33333333333334</ele><time>2026-04-18T13:02:45.999Z</time></trkpt><trkpt lat="36.892416438324354" lon="15.067484965833017"><ele>135.66666666666669</ele><time>2026-04-18T13:02:47.999Z</time></trkpt><trkpt lat="36.89235654934785" lon="15.067454378797175"><ele>134.0</ele><time>2026-04-18T13:02:49.999Z</time></trkpt><trkpt lat="36.89227071028016" lon="15.06741026719404"><ele>132.33333333333334</ele><time>2026-04-18T13:02:51.999Z</time></trkpt><trkpt lat="36.8921908739908" lon="15.067352938519768"><ele>130.66666666666666</ele><time>2026-04-18T13:02:53.999Z</time></trkpt><trkpt lat="36.892108749838236" lon="15.067321311905216"><ele>129.0</ele><time>2026-04-18T13:02:55.999Z</time></trkpt><trkpt lat="36.89201961765732" lon="15.067289135245888"><ele>128.16666666666666</ele><time>2026-04-18T13:02:58.999Z</time></trkpt><trkpt lat="36.891950525042866" lon="15.067236583269269"><ele>127.33333333333334</ele><time>2026-04-18T13:03:01.999Z</time></trkpt><trkpt lat="36.89189072248968" lon="15.067195101715942"><ele>126.5</ele><time>2026-04-18T13:03:06.999Z</time></trkpt><trkpt lat="36.89187383449955" lon="15.06705062323142"><ele>125.66666666666667</ele><time>2026-04-18T13:03:12Z</time></trkpt><trkpt lat="36.89190031932984" lon="15.066944285316945"><ele>124.83333333333334</ele><time>2026-04-18T13:03:13Z</time></trkpt><trkpt lat="36.891929759368765" lon="15.066850149670158"><ele>124.0</ele><time>2026-04-18T13:03:14Z</time></trkpt><trkpt lat="36.891964198343835" lon="15.066773833727828"><ele>124.00000000000001</ele><time>2026-04-18T13:03:15Z</time></trkpt><trkpt lat="36.89198571886103" lon="15.066699160793709"><ele>124.0</ele><time>2026-04-18T13:03:16Z</time></trkpt><trkpt lat="36.89204085877611" lon="15.066555400143608"><ele>124.0</ele><time>2026-04-18T13:03:18Z</time></trkpt><trkpt lat="36.89206692477931" lon="15.066478624186503"><ele>124.0</ele><time>2026-04-18T13:03:19Z</time></trkpt><trkpt lat="36.892091768156696" lon="15.06639234784135"><ele>124.00000000000001</ele><time>2026-04-18T13:03:20Z</time></trkpt><trkpt lat="36.89212160568875" lon="15.066288727687"><ele>124.0</ele><time>2026-04-18T13:03:21Z</time></trkpt><trkpt lat="36.89215418744001" lon="15.066175577413317"><ele>122.83333333333334</ele><time>2026-04-18T13:03:22Z</time></trkpt><trkpt lat="36.89218552872912" lon="15.066066734988409"><ele>121.66666666666667</ele><time>2026-04-18T13:03:23Z</time></trkpt><trkpt lat="36.89222276796988" lon="15.065975746954528"><ele>120.5</ele><time>2026-04-18T13:03:24Z</time></trkpt><trkpt lat="36.89224076725795" lon="15.065880606621786"><ele>119.33333333333334</ele><time>2026-04-18T13:03:25Z</time></trkpt><trkpt lat="36.89226119445202" lon="15.065787085223553"><ele>118.16666666666667</ele><time>2026-04-18T13:03:26Z</time></trkpt><trkpt lat="36.892278027948755" lon="15.065698395635012"><ele>117.0</ele><time>2026-04-18T13:03:27Z</time></trkpt><trkpt lat="36.89230876396072" lon="15.065625672779829"><ele>115.19999999999999</ele><time>2026-04-18T13:03:28Z</time></trkpt><trkpt lat="36.892326638960654" lon="15.065542189987724"><ele>113.39999999999999</ele><time>2026-04-18T13:03:29Z</time></trkpt><trkpt lat="36.89236417066264" lon="15.065405143585606"><ele>111.60000000000001</ele><time>2026-04-18T13:03:31Z</time></trkpt><trkpt lat="36.89240830218327" lon="15.065310925182565"><ele>109.80000000000001</ele><time>2026-04-18T13:03:33Z</time></trkpt><trkpt lat="36.89230681038759" lon="15.065240387029046"><ele>108.0</ele><time>2026-04-18T13:03:35Z</time></trkpt><trkpt lat="36.89224702739752" lon="15.065188043555146"><ele>108.0</ele><time>2026-04-18T13:03:36Z</time></trkpt><trkpt lat="36.89216359277411" lon="15.065123418844149"><ele>108.00000000000001</ele><time>2026-04-18T13:03:37Z</time></trkpt><trkpt lat="36.89206294467086" lon="15.065034643775814"><ele>108.00000000000001</ele><time>2026-04-18T13:03:38Z</time></trkpt><trkpt lat="36.89199072260848" lon="15.064967141009845"><ele>108.0</ele><time>2026-04-18T13:03:39Z</time></trkpt><trkpt lat="36.891929060177624" lon="15.064907064875248"><ele>108.0</ele><time>2026-04-18T13:03:40Z</time></trkpt><trkpt lat="36.89183397947158" lon="15.064817768258193"><ele>106.2</ele><time>2026-04-18T13:03:42Z</time></trkpt><trkpt lat="36.89174833774555" lon="15.064714459703646"><ele>104.4</ele><time>2026-04-18T13:03:44Z</time></trkpt><trkpt lat="36.89164969555165" lon="15.064650351857496"><ele>102.60000000000001</ele><time>2026-04-18T13:03:46Z</time></trkpt><trkpt lat="36.89157516608944" lon="15.064556820769452"><ele>100.80000000000001</ele><time>2026-04-18T13:03:48Z</time></trkpt><trkpt lat="36.89150830362842" lon="15.064499298690908"><ele>99.0</ele><time>2026-04-18T13:03:50Z</time></trkpt><trkpt lat="36.89143221201347" lon="15.064429393743064"><ele>99.0</ele><time>2026-04-18T13:03:52Z</time></trkpt><trkpt lat="36.89138774464715" lon="15.064367493401326"><ele>99.0</ele><time>2026-04-18T13:03:53Z</time></trkpt><trkpt lat="36.89132270884335" lon="15.064229025140264"><ele>99.0</ele><time>2026-04-18T13:03:55Z</time></trkpt><trkpt lat="36.891292711204514" lon="15.064157970952486"><ele>99.0</ele><time>2026-04-18T13:03:56Z</time></trkpt><trkpt lat="36.891259502654584" lon="15.064089937413742"><ele>99.0</ele><time>2026-04-18T13:03:57Z</time></trkpt><trkpt lat="36.89119699113702" lon="15.063968565060428"><ele>99.0</ele><time>2026-04-18T13:03:59Z</time></trkpt><trkpt lat="36.89113917385032" lon="15.063861750374791"><ele>99.0</ele><time>2026-04-18T13:04:01Z</time></trkpt><trkpt lat="36.891082431327575" lon="15.063744434944866"><ele>99.0</ele><time>2026-04-18T13:04:03Z</time></trkpt><trkpt lat="36.891024872057294" lon="15.06361862282577"><ele>99.0</ele><time>2026-04-18T13:04:05Z</time></trkpt><trkpt lat="36.890967034424" lon="15.063499555774296"><ele>99.0</ele><time>2026-04-18T13:04:07Z</time></trkpt><trkpt lat="36.890905533429745" lon="15.063368376838167"><ele>97.80000000000001</ele><time>2026-04-18T13:04:09Z</time></trkpt><trkpt lat="36.890842936854824" lon="15.063243137609357"><ele>96.60000000000001</ele><time>2026-04-18T13:04:11Z</time></trkpt><trkpt lat="36.89079592403976" lon="15.063127936428547"><ele>95.4</ele><time>2026-04-18T13:04:13Z</time></trkpt><trkpt lat="36.89075294245738" lon="15.06302373513719"><ele>94.2</ele><time>2026-04-18T13:04:15Z</time></trkpt><trkpt lat="36.89070469751836" lon="15.062923105547332"><ele>93.0</ele><time>2026-04-18T13:04:17Z</time></trkpt><trkpt lat="36.890665709074085" lon="15.062812723779514"><ele>93.0</ele><time>2026-04-18T13:04:18.999Z</time></trkpt><trkpt lat="36.89065982315238" lon="15.062687856132591"><ele>93.0</ele><time>2026-04-18T13:04:20.999Z</time></trkpt><trkpt lat="36.890682849512245" lon="15.062506104284793"><ele>93.0</ele><time>2026-04-18T13:04:22.999Z</time></trkpt><trkpt lat="36.89066980416797" lon="15.062384926745876"><ele>93.0</ele><time>2026-04-18T13:04:23.999Z</time></trkpt><trkpt lat="36.890653675095216" lon="15.062256195676847"><ele>93.0</ele><time>2026-04-18T13:04:24.999Z</time></trkpt><trkpt lat="36.890633034823864" lon="15.062120168637945"><ele>92.5</ele><time>2026-04-18T13:04:25.999Z</time></trkpt><trkpt lat="36.89060129443818" lon="15.061961048340478"><ele>92.0</ele><time>2026-04-18T13:04:26.999Z</time></trkpt><trkpt lat="36.890574577545294" lon="15.061793427603098"><ele>91.5</ele><time>2026-04-18T13:04:27.999Z</time></trkpt><trkpt lat="36.89054868438305" lon="15.06162383045774"><ele>91.0</ele><time>2026-04-18T13:04:28.999Z</time></trkpt><trkpt lat="36.890528518047994" lon="15.061471153190803"><ele>90.8</ele><time>2026-04-18T13:04:29.999Z</time></trkpt><trkpt lat="36.89051906462491" lon="15.061333013833393"><ele>90.6</ele><time>2026-04-18T13:04:30.999Z</time></trkpt><trkpt lat="36.890514247187625" lon="15.061218613361389"><ele>90.4</ele><time>2026-04-18T13:04:31.999Z</time></trkpt><trkpt lat="36.8905154908663" lon="15.06110789528935"><ele>90.2</ele><time>2026-04-18T13:04:32.999Z</time></trkpt><trkpt lat="36.89050917499066" lon="15.060978165278"><ele>90.0</ele><time>2026-04-18T13:04:34.999Z</time></trkpt><trkpt lat="36.89052083657991" lon="15.060853983244213"><ele>89.2</ele><time>2026-04-18T13:04:36.999Z</time></trkpt><trkpt lat="36.89052406872236" lon="15.060757473490892"><ele>88.4</ele><time>2026-04-18T13:04:37.999Z</time></trkpt><trkpt lat="36.89052813263499" lon="15.060636127621342"><ele>87.6</ele><time>2026-04-18T13:04:38.999Z</time></trkpt><trkpt lat="36.890530470096365" lon="15.060516380205147"><ele>86.8</ele><time>2026-04-18T13:04:39.999Z</time></trkpt><trkpt lat="36.89051353972984" lon="15.06039568447217"><ele>86.0</ele><time>2026-04-18T13:04:40.999Z</time></trkpt><trkpt lat="36.890506433040734" lon="15.060273410998702"><ele>86.0</ele><time>2026-04-18T13:04:41.999Z</time></trkpt><trkpt lat="36.890468118716846" lon="15.060139976119764"><ele>86.0</ele><time>2026-04-18T13:04:42.999Z</time></trkpt><trkpt lat="36.89039100077941" lon="15.059990129156802"><ele>86.0</ele><time>2026-04-18T13:04:43.999Z</time></trkpt><trkpt lat="36.89031769279651" lon="15.059846879628576"><ele>86.0</ele><time>2026-04-18T13:04:44.999Z</time></trkpt><trkpt lat="36.89028809555845" lon="15.059705112234564"><ele>85.19999999999999</ele><time>2026-04-18T13:04:45.999Z</time></trkpt><trkpt lat="36.890254912001545" lon="15.059572722378647"><ele>84.39999999999999</ele><time>2026-04-18T13:04:46.999Z</time></trkpt><trkpt lat="36.89022304774713" lon="15.0594612292831"><ele>83.6</ele><time>2026-04-18T13:04:47.999Z</time></trkpt><trkpt lat="36.890301970118344" lon="15.059377990800641"><ele>82.8</ele><time>2026-04-18T13:04:48.999Z</time></trkpt><trkpt lat="36.89031265917703" lon="15.059234739532315"><ele>82.0</ele><time>2026-04-18T13:04:51.999Z</time></trkpt><trkpt lat="36.8902798735152" lon="15.059160445177268"><ele>82.0</ele><time>2026-04-18T13:04:52.999Z</time></trkpt><trkpt lat="36.890222844837275" lon="15.059032464240879"><ele>82.0</ele><time>2026-04-18T13:04:54.999Z</time></trkpt><trkpt lat="36.89014275526028" lon="15.05893795402168"><ele>82.0</ele><time>2026-04-18T13:04:56.999Z</time></trkpt><trkpt lat="36.89006096407821" lon="15.058849896001892"><ele>82.0</ele><time>2026-04-18T13:04:58.999Z</time></trkpt><trkpt lat="36.89000155147088" lon="15.05875093408482"><ele>82.0</ele><time>2026-04-18T13:05:00.999Z</time></trkpt><trkpt lat="36.890029152701814" lon="15.058653213766403"><ele>82.0</ele><time>2026-04-18T13:05:02.999Z</time></trkpt><trkpt lat="36.890121817268145" lon="15.058553013651352"><ele>82.0</ele><time>2026-04-18T13:05:04.999Z</time></trkpt><trkpt lat="36.89017789566189" lon="15.058447188821331"><ele>82.0</ele><time>2026-04-18T13:05:05.999Z</time></trkpt><trkpt lat="36.890246852812766" lon="15.058317060693263"><ele>82.0</ele><time>2026-04-18T13:05:06.999Z</time></trkpt><trkpt lat="36.89031432292266" lon="15.058193794802232"><ele>82.0</ele><time>2026-04-18T13:05:07.999Z</time></trkpt><trkpt lat="36.89038969917948" lon="15.058056917973037"><ele>82.0</ele><time>2026-04-18T13:05:08.999Z</time></trkpt><trkpt lat="36.890463711840574" lon="15.0579275524187"><ele>82.0</ele><time>2026-04-18T13:05:09.999Z</time></trkpt><trkpt lat="36.8905409221446" lon="15.057809941241683"><ele>82.0</ele><time>2026-04-18T13:05:10.999Z</time></trkpt><trkpt lat="36.89063021188398" lon="15.057681958580494"><ele>82.0</ele><time>2026-04-18T13:05:11.999Z</time></trkpt><trkpt lat="36.890709697881086" lon="15.057545293901349"><ele>82.0</ele><time>2026-04-18T13:05:12.999Z</time></trkpt><trkpt lat="36.890803738101376" lon="15.057434410039903"><ele>82.0</ele><time>2026-04-18T13:05:13.999Z</time></trkpt><trkpt lat="36.89088398187227" lon="15.057316592313603"><ele>82.0</ele><time>2026-04-18T13:05:15Z</time></trkpt><trkpt lat="36.89096436204117" lon="15.057197162698593"><ele>82.75</ele><time>2026-04-18T13:05:16Z</time></trkpt><trkpt lat="36.891044174941946" lon="15.05708253272116"><ele>83.5</ele><time>2026-04-18T13:05:17Z</time></trkpt><trkpt lat="36.89112613337036" lon="15.056966233429765"><ele>84.25</ele><time>2026-04-18T13:05:18Z</time></trkpt><trkpt lat="36.891206389229225" lon="15.056849293362893"><ele>85.0</ele><time>2026-04-18T13:05:19Z</time></trkpt><trkpt lat="36.89130084367217" lon="15.056755317625635"><ele>85.0</ele><time>2026-04-18T13:05:20Z</time></trkpt><trkpt lat="36.89138091962116" lon="15.056651847172713"><ele>85.0</ele><time>2026-04-18T13:05:21Z</time></trkpt><trkpt lat="36.89146383375995" lon="15.056575203013281"><ele>85.0</ele><time>2026-04-18T13:05:22Z</time></trkpt><trkpt lat="36.89151927761318" lon="15.056480647267863"><ele>85.0</ele><time>2026-04-18T13:05:23Z</time></trkpt><trkpt lat="36.891550368473425" lon="15.056370282226363"><ele>85.0</ele><time>2026-04-18T13:05:24Z</time></trkpt><trkpt lat="36.891549425638516" lon="15.056225017880934"><ele>87.4</ele><time>2026-04-18T13:05:25Z</time></trkpt><trkpt lat="36.891545316404994" lon="15.056075055719473"><ele>89.8</ele><time>2026-04-18T13:05:26Z</time></trkpt><trkpt lat="36.89154180034559" lon="15.055934010157683"><ele>92.19999999999999</ele><time>2026-04-18T13:05:27Z</time></trkpt><trkpt lat="36.89153333411422" lon="15.055807099197999"><ele>94.6</ele><time>2026-04-18T13:05:28Z</time></trkpt><trkpt lat="36.8915144521406" lon="15.05569633679949"><ele>97.0</ele><time>2026-04-18T13:05:29Z</time></trkpt><trkpt lat="36.89146862533459" lon="15.05561789172916"><ele>100.00000000000001</ele><time>2026-04-18T13:05:30Z</time></trkpt><trkpt lat="36.891404355942036" lon="15.05560491187685"><ele>103.0</ele><time>2026-04-18T13:05:31Z</time></trkpt><trkpt lat="36.89133316036302" lon="15.055630760750871"><ele>106.0</ele><time>2026-04-18T13:05:32Z</time></trkpt><trkpt lat="36.89127248300024" lon="15.055672495142955"><ele>109.0</ele><time>2026-04-18T13:05:33Z</time></trkpt><trkpt lat="36.89118953025546" lon="15.055620571831291"><ele>112.00000000000001</ele><time>2026-04-18T13:05:35Z</time></trkpt><trkpt lat="36.891232128420995" lon="15.055490479216415"><ele>115.0</ele><time>2026-04-18T13:05:37Z</time></trkpt><trkpt lat="36.89126816019028" lon="15.055399195558978"><ele>115.0</ele><time>2026-04-18T13:05:38Z</time></trkpt><trkpt lat="36.89132613403543" lon="15.055338756444835"><ele>115.0</ele><time>2026-04-18T13:05:39Z</time></trkpt><trkpt lat="36.89140358035053" lon="15.05532194104806"><ele>115.0</ele><time>2026-04-18T13:05:40Z</time></trkpt><trkpt lat="36.89147765028798" lon="15.05527301017822"><ele>115.0</ele><time>2026-04-18T13:05:41Z</time></trkpt><trkpt lat="36.89152898622669" lon="15.055211215458275"><ele>115.0</ele><time>2026-04-18T13:05:42Z</time></trkpt><trkpt lat="36.891485991180446" lon="15.055037102303853"><ele>115.0</ele><time>2026-04-18T13:05:44Z</time></trkpt><trkpt lat="36.89141679331344" lon="15.054979474984238"><ele>115.0</ele><time>2026-04-18T13:05:45Z</time></trkpt><trkpt lat="36.89137423625401" lon="15.05490472421497"><ele>115.0</ele><time>2026-04-18T13:05:46Z</time></trkpt><trkpt lat="36.89151415877681" lon="15.054815635551394"><ele>115.0</ele><time>2026-04-18T13:05:48Z</time></trkpt><trkpt lat="36.89157583244908" lon="15.05468970293612"><ele>115.0</ele><time>2026-04-18T13:05:50Z</time></trkpt><trkpt lat="36.89156270946016" lon="15.054546190957476"><ele>117.2</ele><time>2026-04-18T13:05:51Z</time></trkpt><trkpt lat="36.89160489691238" lon="15.054441301552302"><ele>119.4</ele><time>2026-04-18T13:05:52Z</time></trkpt><trkpt lat="36.89163957777342" lon="15.054333574851348"><ele>121.6</ele><time>2026-04-18T13:05:53Z</time></trkpt><trkpt lat="36.891680652454596" lon="15.054223808661735"><ele>123.8</ele><time>2026-04-18T13:05:54Z</time></trkpt><trkpt lat="36.89172893677677" lon="15.054122120773163"><ele>126.0</ele><time>2026-04-18T13:05:55Z</time></trkpt><trkpt lat="36.89179142361057" lon="15.054012868701971"><ele>127.6</ele><time>2026-04-18T13:05:56Z</time></trkpt><trkpt lat="36.89185656772707" lon="15.053905778038635"><ele>129.2</ele><time>2026-04-18T13:05:57Z</time></trkpt><trkpt lat="36.89191856797793" lon="15.053811100027747"><ele>130.8</ele><time>2026-04-18T13:05:58Z</time></trkpt><trkpt lat="36.89197828771674" lon="15.053716584805285"><ele>132.4</ele><time>2026-04-18T13:05:59Z</time></trkpt><trkpt lat="36.89205035426253" lon="15.053600121126246"><ele>134.0</ele><time>2026-04-18T13:06:00Z</time></trkpt><trkpt lat="36.89213118861995" lon="15.053464810497653"><ele>134.0</ele><time>2026-04-18T13:06:01Z</time></trkpt><trkpt lat="36.892203059270294" lon="15.053305046344931"><ele>134.0</ele><time>2026-04-18T13:06:02Z</time></trkpt><trkpt lat="36.89230748684669" lon="15.053163962161772"><ele>134.0</ele><time>2026-04-18T13:06:03Z</time></trkpt><trkpt lat="36.89240976767858" lon="15.053036164447503"><ele>134.0</ele><time>2026-04-18T13:06:04Z</time></trkpt><trkpt lat="36.89251318345643" lon="15.052890213084682"><ele>133.66666666666666</ele><time>2026-04-18T13:06:05Z</time></trkpt><trkpt lat="36.89259109569005" lon="15.052720235521035"><ele>133.33333333333334</ele><time>2026-04-18T13:06:06Z</time></trkpt><trkpt lat="36.89267963270943" lon="15.052559123089276"><ele>133.0</ele><time>2026-04-18T13:06:07Z</time></trkpt><trkpt lat="36.892755524954296" lon="15.052388463003455"><ele>133.66666666666669</ele><time>2026-04-18T13:06:08Z</time></trkpt><trkpt lat="36.89282617460988" lon="15.052214955988138"><ele>134.33333333333334</ele><time>2026-04-18T13:06:09Z</time></trkpt><trkpt lat="36.892914483545155" lon="15.05205278980418"><ele>135.0</ele><time>2026-04-18T13:06:10Z</time></trkpt><trkpt lat="36.89298826285347" lon="15.051885244447929"><ele>135.0</ele><time>2026-04-18T13:06:11Z</time></trkpt><trkpt lat="36.893062037075595" lon="15.051721620848287"><ele>135.0</ele><time>2026-04-18T13:06:12Z</time></trkpt><trkpt lat="36.89313491670042" lon="15.051558935718033"><ele>135.0</ele><time>2026-04-18T13:06:13Z</time></trkpt><trkpt lat="36.89320526024199" lon="15.051424778131521"><ele>135.0</ele><time>2026-04-18T13:06:14Z</time></trkpt><trkpt lat="36.8932875161586" lon="15.051329562999577"><ele>136.5</ele><time>2026-04-18T13:06:15Z</time></trkpt><trkpt lat="36.89338943782399" lon="15.051293682929368"><ele>138.0</ele><time>2026-04-18T13:06:16Z</time></trkpt><trkpt lat="36.89350170185089" lon="15.051220492603903"><ele>139.5</ele><time>2026-04-18T13:06:17Z</time></trkpt><trkpt lat="36.89360613690078" lon="15.051132195113183"><ele>141.0</ele><time>2026-04-18T13:06:18Z</time></trkpt><trkpt lat="36.89369956011204" lon="15.05101849437663"><ele>141.5</ele><time>2026-04-18T13:06:19Z</time></trkpt><trkpt lat="36.893753279167605" lon="15.050877346338249"><ele>142.0</ele><time>2026-04-18T13:06:19.999Z</time></trkpt><trkpt lat="36.89381041175854" lon="15.050749947420734"><ele>142.5</ele><time>2026-04-18T13:06:20.999Z</time></trkpt><trkpt lat="36.893886903961125" lon="15.050620090346182"><ele>143.0</ele><time>2026-04-18T13:06:21.999Z</time></trkpt><trkpt lat="36.89396286768943" lon="15.050500315175713"><ele>145.5</ele><time>2026-04-18T13:06:22.999Z</time></trkpt><trkpt lat="36.894046925091274" lon="15.050384077774021"><ele>148.0</ele><time>2026-04-18T13:06:23.999Z</time></trkpt><trkpt lat="36.894157920520925" lon="15.050314498750126"><ele>150.5</ele><time>2026-04-18T13:06:24.999Z</time></trkpt><trkpt lat="36.89426445855687" lon="15.050231509271791"><ele>153.0</ele><time>2026-04-18T13:06:25.999Z</time></trkpt><trkpt lat="36.89436427151006" lon="15.050145644164036"><ele>153.0</ele><time>2026-04-18T13:06:26.999Z</time></trkpt><trkpt lat="36.89443600052306" lon="15.0500259032165"><ele>153.0</ele><time>2026-04-18T13:06:27.999Z</time></trkpt><trkpt lat="36.89450830019789" lon="15.0499107789642"><ele>153.0</ele><time>2026-04-18T13:06:28.999Z</time></trkpt><trkpt lat="36.894583752300306" lon="15.049809560456568"><ele>153.0</ele><time>2026-04-18T13:06:29.999Z</time></trkpt><trkpt lat="36.8946600345348" lon="15.049698611908235"><ele>154.75</ele><time>2026-04-18T13:06:30.999Z</time></trkpt><trkpt lat="36.89475439085825" lon="15.049581321573218"><ele>156.5</ele><time>2026-04-18T13:06:31.999Z</time></trkpt><trkpt lat="36.894869524512764" lon="15.049468633324631"><ele>158.25</ele><time>2026-04-18T13:06:32.999Z</time></trkpt><trkpt lat="36.894992135759175" lon="15.049351202162978"><ele>160.0</ele><time>2026-04-18T13:06:33.999Z</time></trkpt><trkpt lat="36.895117597765754" lon="15.049218679371673"><ele>162.66666666666669</ele><time>2026-04-18T13:06:34.999Z</time></trkpt><trkpt lat="36.89522530760424" lon="15.049073878986345"><ele>165.33333333333334</ele><time>2026-04-18T13:06:35.999Z</time></trkpt><trkpt lat="36.89534251732425" lon="15.04892013630509"><ele>168.0</ele><time>2026-04-18T13:06:36.999Z</time></trkpt><trkpt lat="36.8954593820286" lon="15.048772814856145"><ele>168.0</ele><time>2026-04-18T13:06:37.999Z</time></trkpt><trkpt lat="36.895578261906195" lon="15.04863828917797"><ele>168.0</ele><time>2026-04-18T13:06:38.999Z</time></trkpt><trkpt lat="36.89569759759925" lon="15.048507666056683"><ele>168.0</ele><time>2026-04-18T13:06:39.999Z</time></trkpt><trkpt lat="36.89580711683256" lon="15.04837091732152"><ele>168.75</ele><time>2026-04-18T13:06:40.999Z</time></trkpt><trkpt lat="36.89591098818789" lon="15.048243076785312"><ele>169.5</ele><time>2026-04-18T13:06:41.999Z</time></trkpt><trkpt lat="36.89602208043284" lon="15.048136979245214"><ele>170.25</ele><time>2026-04-18T13:06:42.999Z</time></trkpt><trkpt lat="36.896141723726856" lon="15.048038261518078"><ele>171.0</ele><time>2026-04-18T13:06:43.999Z</time></trkpt><trkpt lat="36.89626443964649" lon="15.047946096085749"><ele>171.0</ele><time>2026-04-18T13:06:44.999Z</time></trkpt><trkpt lat="36.8963914135506" lon="15.047854498245005"><ele>171.0</ele><time>2026-04-18T13:06:45.999Z</time></trkpt><trkpt lat="36.89651425732165" lon="15.047767948074336"><ele>171.0</ele><time>2026-04-18T13:06:46.999Z</time></trkpt><trkpt lat="36.89662638123047" lon="15.047672536044773"><ele>171.0</ele><time>2026-04-18T13:06:47.999Z</time></trkpt><trkpt lat="36.89672298809745" lon="15.047550024592821"><ele>173.75</ele><time>2026-04-18T13:06:48.999Z</time></trkpt><trkpt lat="36.896796053732665" lon="15.047431957494581"><ele>176.5</ele><time>2026-04-18T13:06:49.999Z</time></trkpt><trkpt lat="36.89684795024365" lon="15.047293624680087"><ele>179.25</ele><time>2026-04-18T13:06:50.999Z</time></trkpt><trkpt lat="36.896879929877656" lon="15.047149086082767"><ele>182.0</ele><time>2026-04-18T13:06:51.999Z</time></trkpt><trkpt lat="36.896889187187654" lon="15.046997853004548"><ele>182.0</ele><time>2026-04-18T13:06:52.999Z</time></trkpt><trkpt lat="36.89691142361072" lon="15.046852889473424"><ele>182.0</ele><time>2026-04-18T13:06:53.999Z</time></trkpt><trkpt lat="36.89698890073293" lon="15.04675557265016"><ele>182.0</ele><time>2026-04-18T13:06:54.999Z</time></trkpt><trkpt lat="36.89706105106477" lon="15.046631582152372"><ele>182.0</ele><time>2026-04-18T13:06:55.999Z</time></trkpt><trkpt lat="36.897129213776275" lon="15.04648322840675"><ele>182.2</ele><time>2026-04-18T13:06:56.999Z</time></trkpt><trkpt lat="36.89721304485067" lon="15.046348172081942"><ele>182.39999999999998</ele><time>2026-04-18T13:06:57.999Z</time></trkpt><trkpt lat="36.89727386220522" lon="15.046227328550879"><ele>182.60000000000002</ele><time>2026-04-18T13:06:58.999Z</time></trkpt><trkpt lat="36.897311424904245" lon="15.046119586813589"><ele>182.8</ele><time>2026-04-18T13:06:59.999Z</time></trkpt><trkpt lat="36.89731141906347" lon="15.046015996473887"><ele>183.0</ele><time>2026-04-18T13:07:00.999Z</time></trkpt><trkpt lat="36.89727950422558" lon="15.04591852900628"><ele>183.0</ele><time>2026-04-18T13:07:01.999Z</time></trkpt><trkpt lat="36.89723755608491" lon="15.045814612492235"><ele>183.0</ele><time>2026-04-18T13:07:02.999Z</time></trkpt><trkpt lat="36.897225219737685" lon="15.045725601925044"><ele>183.0</ele><time>2026-04-18T13:07:03.999Z</time></trkpt><trkpt lat="36.89725391128485" lon="15.045648343607875"><ele>183.0</ele><time>2026-04-18T13:07:04.999Z</time></trkpt><trkpt lat="36.89733651315642" lon="15.045606946960367"><ele>183.0</ele><time>2026-04-18T13:07:05.999Z</time></trkpt><trkpt lat="36.89740949927089" lon="15.045513724011709"><ele>183.0</ele><time>2026-04-18T13:07:06.999Z</time></trkpt><trkpt lat="36.897504508694766" lon="15.045425351756798"><ele>184.5</ele><time>2026-04-18T13:07:07.999Z</time></trkpt><trkpt lat="36.89762061053619" lon="15.045337980202145"><ele>186.0</ele><time>2026-04-18T13:07:08.999Z</time></trkpt><trkpt lat="36.89772972342166" lon="15.045253603115324"><ele>187.5</ele><time>2026-04-18T13:07:09.999Z</time></trkpt><trkpt lat="36.897844055025686" lon="15.045190814452424"><ele>189.0</ele><time>2026-04-18T13:07:10.999Z</time></trkpt><trkpt lat="36.89796834827565" lon="15.045147844791483"><ele>189.0</ele><time>2026-04-18T13:07:11.999Z</time></trkpt><trkpt lat="36.89809872933874" lon="15.045117627012726"><ele>189.0</ele><time>2026-04-18T13:07:12.999Z</time></trkpt><trkpt lat="36.89823390955706" lon="15.045087554933522"><ele>189.0</ele><time>2026-04-18T13:07:13.999Z</time></trkpt><trkpt lat="36.89836468863413" lon="15.045042024395158"><ele>189.0</ele><time>2026-04-18T13:07:14.999Z</time></trkpt><trkpt lat="36.898484391491294" lon="15.044996286678122"><ele>189.25</ele><time>2026-04-18T13:07:15.999Z</time></trkpt><trkpt lat="36.89860784257555" lon="15.044949116773909"><ele>189.5</ele><time>2026-04-18T13:07:16.999Z</time></trkpt><trkpt lat="36.898735941010735" lon="15.044900171150253"><ele>189.75</ele><time>2026-04-18T13:07:17.999Z</time></trkpt><trkpt lat="36.89886444481564" lon="15.044842520141193"><ele>190.0</ele><time>2026-04-18T13:07:18.999Z</time></trkpt><trkpt lat="36.898980854544476" lon="15.044743403206608"><ele>190.0</ele><time>2026-04-18T13:07:19.999Z</time></trkpt><trkpt lat="36.89910579785518" lon="15.04464227950141"><ele>190.0</ele><time>2026-04-18T13:07:21Z</time></trkpt><trkpt lat="36.8992320767896" lon="15.04452935510956"><ele>190.0</ele><time>2026-04-18T13:07:22Z</time></trkpt><trkpt lat="36.89935429120579" lon="15.044416878115273"><ele>192.25</ele><time>2026-04-18T13:07:23Z</time></trkpt><trkpt lat="36.89947028378422" lon="15.044307416168065"><ele>194.5</ele><time>2026-04-18T13:07:24Z</time></trkpt><trkpt lat="36.89958943156183" lon="15.044221683062492"><ele>196.75</ele><time>2026-04-18T13:07:25Z</time></trkpt><trkpt lat="36.89969944789671" lon="15.044118749620448"><ele>199.0</ele><time>2026-04-18T13:07:26Z</time></trkpt><trkpt lat="36.89979879252088" lon="15.04400372659991"><ele>199.0</ele><time>2026-04-18T13:07:27Z</time></trkpt><trkpt lat="36.89987276289802" lon="15.043870062083746"><ele>199.0</ele><time>2026-04-18T13:07:28Z</time></trkpt><trkpt lat="36.89995063183631" lon="15.043763398211944"><ele>199.0</ele><time>2026-04-18T13:07:29Z</time></trkpt><trkpt lat="36.900018742803496" lon="15.043668720543657"><ele>199.0</ele><time>2026-04-18T13:07:30Z</time></trkpt><trkpt lat="36.900079713504134" lon="15.043582665968012"><ele>199.0</ele><time>2026-04-18T13:07:31Z</time></trkpt><trkpt lat="36.90012597009375" lon="15.043500656014723"><ele>200.39999999999998</ele><time>2026-04-18T13:07:32Z</time></trkpt><trkpt lat="36.90016787192821" lon="15.043427465609186"><ele>201.8</ele><time>2026-04-18T13:07:33Z</time></trkpt><trkpt lat="36.90021913870344" lon="15.043350585238882"><ele>203.2</ele><time>2026-04-18T13:07:34Z</time></trkpt><trkpt lat="36.90027756351815" lon="15.04325578400145"><ele>204.60000000000002</ele><time>2026-04-18T13:07:35Z</time></trkpt><trkpt lat="36.90034994252593" lon="15.043143178257495"><ele>206.0</ele><time>2026-04-18T13:07:36Z</time></trkpt><trkpt lat="36.900441915699645" lon="15.043019466408122"><ele>206.0</ele><time>2026-04-18T13:07:37Z</time></trkpt><trkpt lat="36.900543009500346" lon="15.042883021607468"><ele>206.0</ele><time>2026-04-18T13:07:38Z</time></trkpt><trkpt lat="36.90063548446724" lon="15.04273847543331"><ele>206.0</ele><time>2026-04-18T13:07:39Z</time></trkpt><trkpt lat="36.90070822406306" lon="15.042580441922842"><ele>206.0</ele><time>2026-04-18T13:07:40Z</time></trkpt><trkpt lat="36.90077939842263" lon="15.042419149949497"><ele>206.5</ele><time>2026-04-18T13:07:41Z</time></trkpt><trkpt lat="36.90085508287795" lon="15.042264817091278"><ele>207.0</ele><time>2026-04-18T13:07:42Z</time></trkpt><trkpt lat="36.90093713698851" lon="15.042121269586408"><ele>207.5</ele><time>2026-04-18T13:07:43Z</time></trkpt><trkpt lat="36.90102861291056" lon="15.041995858240409"><ele>208.0</ele><time>2026-04-18T13:07:44Z</time></trkpt><trkpt lat="36.90110705531171" lon="15.041886676470746"><ele>208.49999999999997</ele><time>2026-04-18T13:07:45Z</time></trkpt><trkpt lat="36.90115925195336" lon="15.041785511723548"><ele>209.0</ele><time>2026-04-18T13:07:46Z</time></trkpt><trkpt lat="36.90119531257605" lon="15.041700571358822"><ele>209.5</ele><time>2026-04-18T13:07:47Z</time></trkpt><trkpt lat="36.90122625205966" lon="15.041615009381038"><ele>210.0</ele><time>2026-04-18T13:07:49Z</time></trkpt><trkpt lat="36.9012920713874" lon="15.04152665502482"><ele>210.49999999999997</ele><time>2026-04-18T13:07:59Z</time></trkpt><trkpt lat="36.90134248224322" lon="15.041447237956312"><ele>211.0</ele><time>2026-04-18T13:08:00Z</time></trkpt><trkpt lat="36.9013862856316" lon="15.041374016799734"><ele>211.5</ele><time>2026-04-18T13:08:01Z</time></trkpt><trkpt lat="36.90146758294425" lon="15.041292151693542"><ele>212.0</ele><time>2026-04-18T13:08:02Z</time></trkpt><trkpt lat="36.901559604672634" lon="15.041167307212163"><ele>212.5</ele><time>2026-04-18T13:08:03Z</time></trkpt><trkpt lat="36.90165039115289" lon="15.041042065402973"><ele>213.0</ele><time>2026-04-18T13:08:04Z</time></trkpt><trkpt lat="36.90173368752369" lon="15.040894587978656"><ele>211.66666666666669</ele><time>2026-04-18T13:08:05Z</time></trkpt><trkpt lat="36.90182817609294" lon="15.04073526743221"><ele>210.33333333333334</ele><time>2026-04-18T13:08:06Z</time></trkpt><trkpt lat="36.90190780534731" lon="15.040539082196629"><ele>209.0</ele><time>2026-04-18T13:08:07Z</time></trkpt><trkpt lat="36.90198980522232" lon="15.040357128521386"><ele>209.0</ele><time>2026-04-18T13:08:08Z</time></trkpt><trkpt lat="36.90204081595765" lon="15.040146708473115"><ele>209.0</ele><time>2026-04-18T13:08:09Z</time></trkpt><trkpt lat="36.902114187220526" lon="15.039931169593821"><ele>209.0</ele><time>2026-04-18T13:08:10Z</time></trkpt><trkpt lat="36.90219157397622" lon="15.039717195066581"><ele>209.33333333333334</ele><time>2026-04-18T13:08:11Z</time></trkpt><trkpt lat="36.90227702643068" lon="15.03951499678416"><ele>209.66666666666669</ele><time>2026-04-18T13:08:12Z</time></trkpt><trkpt lat="36.90238278925512" lon="15.039315289147547"><ele>210.0</ele><time>2026-04-18T13:08:13Z</time></trkpt><trkpt lat="36.90249599840001" lon="15.039107082159235"><ele>211.33333333333331</ele><time>2026-04-18T13:08:14Z</time></trkpt><trkpt lat="36.902605408919015" lon="15.038886286861048"><ele>212.66666666666666</ele><time>2026-04-18T13:08:15Z</time></trkpt><trkpt lat="36.902713719269414" lon="15.03866700869476"><ele>214.0</ele><time>2026-04-18T13:08:16Z</time></trkpt><trkpt lat="36.90283900791712" lon="15.038465030342316"><ele>216.0</ele><time>2026-04-18T13:08:17Z</time></trkpt><trkpt lat="36.902948825778324" lon="15.038255979093487"><ele>218.0</ele><time>2026-04-18T13:08:18Z</time></trkpt><trkpt lat="36.9030512068276" lon="15.038026844031133"><ele>220.0</ele><time>2026-04-18T13:08:19Z</time></trkpt><trkpt lat="36.903182858202285" lon="15.037814860611407"><ele>220.0</ele><time>2026-04-18T13:08:20Z</time></trkpt><trkpt lat="36.90329725165209" lon="15.0375934515755"><ele>220.0</ele><time>2026-04-18T13:08:21Z</time></trkpt><trkpt lat="36.9034129242894" lon="15.037367895688774"><ele>220.0</ele><time>2026-04-18T13:08:22Z</time></trkpt><trkpt lat="36.903529424784374" lon="15.03713907116227"><ele>223.33333333333331</ele><time>2026-04-18T13:08:22.999Z</time></trkpt><trkpt lat="36.90363828607764" lon="15.036924346073173"><ele>226.66666666666669</ele><time>2026-04-18T13:08:23.999Z</time></trkpt><trkpt lat="36.9037489368783" lon="15.036706091085556"><ele>230.0</ele><time>2026-04-18T13:08:24.999Z</time></trkpt><trkpt lat="36.903857330007" lon="15.036492289316199"><ele>231.33333333333334</ele><time>2026-04-18T13:08:25.999Z</time></trkpt><trkpt lat="36.903966214024706" lon="15.036277519422198"><ele>232.66666666666669</ele><time>2026-04-18T13:08:26.999Z</time></trkpt><trkpt lat="36.904062480048744" lon="15.036051845251421"><ele>234.0</ele><time>2026-04-18T13:08:27.999Z</time></trkpt><trkpt lat="36.90417632638577" lon="15.03583601138664"><ele>235.66666666666669</ele><time>2026-04-18T13:08:28.999Z</time></trkpt><trkpt lat="36.904290226561386" lon="15.03561561394339"><ele>237.33333333333334</ele><time>2026-04-18T13:08:29.999Z</time></trkpt><trkpt lat="36.90440897586229" lon="15.03539530215066"><ele>239.0</ele><time>2026-04-18T13:08:30.999Z</time></trkpt><trkpt lat="36.90453236459052" lon="15.035176672095632"><ele>239.33333333333334</ele><time>2026-04-18T13:08:31.999Z</time></trkpt><trkpt lat="36.90465817187017" lon="15.034956709293716"><ele>239.66666666666669</ele><time>2026-04-18T13:08:32.999Z</time></trkpt><trkpt lat="36.904784922903204" lon="15.03474661360406"><ele>240.0</ele><time>2026-04-18T13:08:33.999Z</time></trkpt><trkpt lat="36.9049032424817" lon="15.034553740410269"><ele>240.0</ele><time>2026-04-18T13:08:34.999Z</time></trkpt><trkpt lat="36.905075505999335" lon="15.034343862758734"><ele>240.0</ele><time>2026-04-18T13:08:35.999Z</time></trkpt><trkpt lat="36.90522884692928" lon="15.034137019199518"><ele>241.0</ele><time>2026-04-18T13:08:36.999Z</time></trkpt><trkpt lat="36.90539995537766" lon="15.033964154282248"><ele>242.0</ele><time>2026-04-18T13:08:37.999Z</time></trkpt><trkpt lat="36.90557807366659" lon="15.03380861510419"><ele>243.0</ele><time>2026-04-18T13:08:38.999Z</time></trkpt><trkpt lat="36.90576299658951" lon="15.033668929365728"><ele>242.33333333333331</ele><time>2026-04-18T13:08:39.999Z</time></trkpt><trkpt lat="36.90593116320801" lon="15.033495909912176"><ele>241.66666666666666</ele><time>2026-04-18T13:08:40.999Z</time></trkpt><trkpt lat="36.906083310932544" lon="15.033298292593237"><ele>241.0</ele><time>2026-04-18T13:08:41.999Z</time></trkpt><trkpt lat="36.90622804071919" lon="15.033087225398921"><ele>243.0</ele><time>2026-04-18T13:08:42.999Z</time></trkpt><trkpt lat="36.90635909573528" lon="15.032865760966962"><ele>245.0</ele><time>2026-04-18T13:08:43.999Z</time></trkpt><trkpt lat="36.90648442062888" lon="15.03264021617187"><ele>247.0</ele><time>2026-04-18T13:08:44.999Z</time></trkpt><trkpt lat="36.90660858130841" lon="15.03241224845427"><ele>248.0</ele><time>2026-04-18T13:08:45.999Z</time></trkpt><trkpt lat="36.906730278205906" lon="15.03217216755471"><ele>249.0</ele><time>2026-04-18T13:08:46.999Z</time></trkpt><trkpt lat="36.90684341339615" lon="15.031930308544004"><ele>249.66666666666669</ele><time>2026-04-18T13:08:47.999Z</time></trkpt><trkpt lat="36.90694070290203" lon="15.031682888129598"><ele>250.33333333333334</ele><time>2026-04-18T13:08:48.999Z</time></trkpt><trkpt lat="36.907061754882044" lon="15.031449940387324"><ele>251.0</ele><time>2026-04-18T13:08:49.999Z</time></trkpt><trkpt lat="36.90716537735009" lon="15.031213182858204"><ele>252.66666666666669</ele><time>2026-04-18T13:08:50.999Z</time></trkpt><trkpt lat="36.90726043945497" lon="15.030969127880123"><ele>254.33333333333331</ele><time>2026-04-18T13:08:51.999Z</time></trkpt><trkpt lat="36.907343666642895" lon="15.030721161834016"><ele>256.0</ele><time>2026-04-18T13:08:52.999Z</time></trkpt><trkpt lat="36.90740630456144" lon="15.030457079697248"><ele>257.66666666666663</ele><time>2026-04-18T13:08:53.999Z</time></trkpt><trkpt lat="36.90747626840706" lon="15.03022358796745"><ele>259.3333333333333</ele><time>2026-04-18T13:08:54.999Z</time></trkpt><trkpt lat="36.90754418528065" lon="15.030008419433546"><ele>261.0</ele><time>2026-04-18T13:08:55.999Z</time></trkpt><trkpt lat="36.90760646259238" lon="15.029834891455181"><ele>262.75</ele><time>2026-04-18T13:08:56.999Z</time></trkpt><trkpt lat="36.90761547173077" lon="15.029677745870696"><ele>264.5</ele><time>2026-04-18T13:08:57.999Z</time></trkpt><trkpt lat="36.907570047498645" lon="15.029541261393843"><ele>266.25</ele><time>2026-04-18T13:08:58.999Z</time></trkpt><trkpt lat="36.90746212204132" lon="15.029453666620546"><ele>268.0</ele><time>2026-04-18T13:08:59.999Z</time></trkpt><trkpt lat="36.90739317617407" lon="15.029335170084975"><ele>268.0</ele><time>2026-04-18T13:09:00.999Z</time></trkpt><trkpt lat="36.907296056230656" lon="15.029219550988886"><ele>268.0</ele><time>2026-04-18T13:09:01.999Z</time></trkpt><trkpt lat="36.90721153552434" lon="15.02909036712692"><ele>268.0</ele><time>2026-04-18T13:09:02.999Z</time></trkpt><trkpt lat="36.90713471312161" lon="15.028966660236756"><ele>268.0</ele><time>2026-04-18T13:09:03.999Z</time></trkpt><trkpt lat="36.90709145574251" lon="15.028820576029485"><ele>269.25</ele><time>2026-04-18T13:09:04.999Z</time></trkpt><trkpt lat="36.907114069589404" lon="15.028660291762689"><ele>270.5</ele><time>2026-04-18T13:09:05.999Z</time></trkpt><trkpt lat="36.90714645741791" lon="15.028499393153318"><ele>271.75</ele><time>2026-04-18T13:09:06.999Z</time></trkpt><trkpt lat="36.90719221460944" lon="15.028323067223415"><ele>273.0</ele><time>2026-04-18T13:09:07.999Z</time></trkpt><trkpt lat="36.90724950416386" lon="15.028142489830612"><ele>274.6666666666667</ele><time>2026-04-18T13:09:08.999Z</time></trkpt><trkpt lat="36.90731305914573" lon="15.027957642172412"><ele>276.33333333333337</ele><time>2026-04-18T13:09:09.999Z</time></trkpt><trkpt lat="36.907390928359426" lon="15.02778774997681"><ele>278.0</ele><time>2026-04-18T13:09:10.999Z</time></trkpt><trkpt lat="36.90745523500352" lon="15.027616171766406"><ele>279.0</ele><time>2026-04-18T13:09:11.999Z</time></trkpt><trkpt lat="36.9074678365665" lon="15.027436232485003"><ele>280.0</ele><time>2026-04-18T13:09:12.999Z</time></trkpt><trkpt lat="36.907471141233145" lon="15.02726258015813"><ele>281.0</ele><time>2026-04-18T13:09:13.999Z</time></trkpt><trkpt lat="36.90751685173102" lon="15.027109372691504"><ele>282.0</ele><time>2026-04-18T13:09:14.999Z</time></trkpt><trkpt lat="36.90759636524476" lon="15.026979341569563"><ele>285.4</ele><time>2026-04-18T13:09:15.999Z</time></trkpt><trkpt lat="36.90769095903163" lon="15.026834606426533"><ele>288.79999999999995</ele><time>2026-04-18T13:09:16.999Z</time></trkpt><trkpt lat="36.90777210591513" lon="15.026718478086915"><ele>292.2</ele><time>2026-04-18T13:09:17.999Z</time></trkpt><trkpt lat="36.90783315978224" lon="15.026638464233423"><ele>295.59999999999997</ele><time>2026-04-18T13:09:18.999Z</time></trkpt><trkpt lat="36.9079187838646" lon="15.026640196472298"><ele>299.0</ele><time>2026-04-18T13:09:20.999Z</time></trkpt><trkpt lat="36.90790819633559" lon="15.02680167656387"><ele>299.0</ele><time>2026-04-18T13:09:22.999Z</time></trkpt><trkpt lat="36.90790206925998" lon="15.026926259032177"><ele>299.0</ele><time>2026-04-18T13:09:23.999Z</time></trkpt><trkpt lat="36.90789771453966" lon="15.02704914438982"><ele>299.0</ele><time>2026-04-18T13:09:24.999Z</time></trkpt><trkpt lat="36.90791120192032" lon="15.027175465793384"><ele>299.0</ele><time>2026-04-18T13:09:25.999Z</time></trkpt><trkpt lat="36.9079426904136" lon="15.027319135928352"><ele>299.0</ele><time>2026-04-18T13:09:27Z</time></trkpt><trkpt lat="36.90798536230422" lon="15.027455272810505"><ele>298.0</ele><time>2026-04-18T13:09:28Z</time></trkpt><trkpt lat="36.908062961178324" lon="15.027580226771025"><ele>297.0</ele><time>2026-04-18T13:09:29Z</time></trkpt><trkpt lat="36.90816618493504" lon="15.027674461413527"><ele>296.0</ele><time>2026-04-18T13:09:30Z</time></trkpt><trkpt lat="36.908275874449856" lon="15.02774889450671"><ele>295.0</ele><time>2026-04-18T13:09:31Z</time></trkpt><trkpt lat="36.90839558533355" lon="15.027796736340012"><ele>295.25</ele><time>2026-04-18T13:09:32Z</time></trkpt><trkpt lat="36.90851788190905" lon="15.027800206188894"><ele>295.5</ele><time>2026-04-18T13:09:33Z</time></trkpt><trkpt lat="36.908636594010495" lon="15.027756514148065"><ele>295.75</ele><time>2026-04-18T13:09:34Z</time></trkpt><trkpt lat="36.90875296197718" lon="15.027678548266524"><ele>296.0</ele><time>2026-04-18T13:09:35Z</time></trkpt><trkpt lat="36.908885068301295" lon="15.027604493097975"><ele>296.0</ele><time>2026-04-18T13:09:36Z</time></trkpt><trkpt lat="36.908994434499164" lon="15.027511221896322"><ele>296.0</ele><time>2026-04-18T13:09:37Z</time></trkpt><trkpt lat="36.909083185711665" lon="15.02738797673144"><ele>296.0</ele><time>2026-04-18T13:09:38Z</time></trkpt><trkpt lat="36.90919116327963" lon="15.02729030027491"><ele>296.0</ele><time>2026-04-18T13:09:39Z</time></trkpt><trkpt lat="36.90928921724022" lon="15.027176747010925"><ele>299.25</ele><time>2026-04-18T13:09:40Z</time></trkpt><trkpt lat="36.90939295468927" lon="15.027056611895516"><ele>302.5</ele><time>2026-04-18T13:09:41Z</time></trkpt><trkpt lat="36.90950278344212" lon="15.026929422553051"><ele>305.75</ele><time>2026-04-18T13:09:42Z</time></trkpt><trkpt lat="36.90961044694837" lon="15.02680817586843"><ele>309.0</ele><time>2026-04-18T13:09:43Z</time></trkpt><trkpt lat="36.909717671062964" lon="15.026719371572064"><ele>309.0</ele><time>2026-04-18T13:09:44Z</time></trkpt><trkpt lat="36.9098224570113" lon="15.026657983695474"><ele>309.0</ele><time>2026-04-18T13:09:45Z</time></trkpt><trkpt lat="36.90993671495029" lon="15.026660558206903"><ele>309.0</ele><time>2026-04-18T13:09:46Z</time></trkpt><trkpt lat="36.910084888379636" lon="15.026645941738106"><ele>309.0</ele><time>2026-04-18T13:09:47Z</time></trkpt><trkpt lat="36.91022629325" lon="15.026640261875965"><ele>309.0</ele><time>2026-04-18T13:09:48Z</time></trkpt><trkpt lat="36.91034663126507" lon="15.026702386739665"><ele>309.0</ele><time>2026-04-18T13:09:49Z</time></trkpt><trkpt lat="36.91046979608547" lon="15.02672024940849"><ele>309.0</ele><time>2026-04-18T13:09:50Z</time></trkpt><trkpt lat="36.910595668401044" lon="15.026730246446132"><ele>309.0</ele><time>2026-04-18T13:09:51Z</time></trkpt><trkpt lat="36.91071850606646" lon="15.02669327183898"><ele>311.75</ele><time>2026-04-18T13:09:52Z</time></trkpt><trkpt lat="36.91083077341456" lon="15.026620543982084"><ele>314.5</ele><time>2026-04-18T13:09:53Z</time></trkpt><trkpt lat="36.910923987071946" lon="15.026514143741824"><ele>317.25</ele><time>2026-04-18T13:09:54Z</time></trkpt><trkpt lat="36.911005852649886" lon="15.026379083802809"><ele>320.0</ele><time>2026-04-18T13:09:55Z</time></trkpt><trkpt lat="36.91108822720084" lon="15.026250776571098"><ele>320.0</ele><time>2026-04-18T13:09:56Z</time></trkpt><trkpt lat="36.91117605985609" lon="15.026135389334453"><ele>320.0</ele><time>2026-04-18T13:09:57Z</time></trkpt><trkpt lat="36.91127509161198" lon="15.026044764494943"><ele>320.0</ele><time>2026-04-18T13:09:58Z</time></trkpt><trkpt lat="36.91136871750315" lon="15.025949366151808"><ele>320.0</ele><time>2026-04-18T13:09:59Z</time></trkpt><trkpt lat="36.91146794552032" lon="15.025872465509767"><ele>320.0</ele><time>2026-04-18T13:10:00Z</time></trkpt><trkpt lat="36.91157707117845" lon="15.02581876288418"><ele>320.0</ele><time>2026-04-18T13:10:01Z</time></trkpt><trkpt lat="36.9116921370142" lon="15.025766341201079"><ele>320.0</ele><time>2026-04-18T13:10:02Z</time></trkpt><trkpt lat="36.91180838556984" lon="15.025713380678393"><ele>320.0</ele><time>2026-04-18T13:10:03Z</time></trkpt><trkpt lat="36.91191871800931" lon="15.02564265488626"><ele>326.5</ele><time>2026-04-18T13:10:04Z</time></trkpt><trkpt lat="36.91203743032729" lon="15.025591899104803"><ele>333.0</ele><time>2026-04-18T13:10:05Z</time></trkpt><trkpt lat="36.91215255279018" lon="15.025548610928558"><ele>339.5</ele><time>2026-04-18T13:10:06Z</time></trkpt><trkpt lat="36.912269949402024" lon="15.025483536827075"><ele>346.0</ele><time>2026-04-18T13:10:07Z</time></trkpt><trkpt lat="36.9123850322971" lon="15.025417742332278"><ele>346.0</ele><time>2026-04-18T13:10:08Z</time></trkpt><trkpt lat="36.91250069571522" lon="15.025346619278885"><ele>346.0</ele><time>2026-04-18T13:10:09Z</time></trkpt><trkpt lat="36.9126230872954" lon="15.025267451813031"><ele>346.0</ele><time>2026-04-18T13:10:10Z</time></trkpt><trkpt lat="36.9127374677246" lon="15.02519053125721"><ele>346.0</ele><time>2026-04-18T13:10:11Z</time></trkpt><trkpt lat="36.912864528824606" lon="15.025142751722901"><ele>344.0</ele><time>2026-04-18T13:10:12Z</time></trkpt><trkpt lat="36.91297927127445" lon="15.025069238287411"><ele>342.0</ele><time>2026-04-18T13:10:13Z</time></trkpt><trkpt lat="36.91310633102897" lon="15.025011686317207"><ele>340.0</ele><time>2026-04-18T13:10:14Z</time></trkpt><trkpt lat="36.91323874737391" lon="15.024948456232632"><ele>338.0</ele><time>2026-04-18T13:10:15Z</time></trkpt><trkpt lat="36.9133753430511" lon="15.024877072089703"><ele>342.25</ele><time>2026-04-18T13:10:16Z</time></trkpt><trkpt lat="36.91350609009902" lon="15.024790525310673"><ele>346.5</ele><time>2026-04-18T13:10:17Z</time></trkpt><trkpt lat="36.91363754227347" lon="15.024720211090688"><ele>350.75</ele><time>2026-04-18T13:10:18Z</time></trkpt><trkpt lat="36.9137755111104" lon="15.024676564375175"><ele>355.0</ele><time>2026-04-18T13:10:19Z</time></trkpt><trkpt lat="36.91391193949431" lon="15.024639155934715"><ele>355.0</ele><time>2026-04-18T13:10:20Z</time></trkpt><trkpt lat="36.91405217942527" lon="15.024572430639807"><ele>355.0</ele><time>2026-04-18T13:10:21Z</time></trkpt><trkpt lat="36.914201032040445" lon="15.024511249902604"><ele>355.0</ele><time>2026-04-18T13:10:22Z</time></trkpt><trkpt lat="36.91437139553196" lon="15.024434499193367"><ele>352.0</ele><time>2026-04-18T13:10:23Z</time></trkpt><trkpt lat="36.91456039137813" lon="15.024363643979747"><ele>349.0</ele><time>2026-04-18T13:10:24Z</time></trkpt><trkpt lat="36.91475424472014" lon="15.024308766691085"><ele>346.0</ele><time>2026-04-18T13:10:25Z</time></trkpt><trkpt lat="36.91495489620181" lon="15.024246590451659"><ele>345.66666666666663</ele><time>2026-04-18T13:10:26Z</time></trkpt><trkpt lat="36.91515957732631" lon="15.024176581898477"><ele>345.3333333333333</ele><time>2026-04-18T13:10:27Z</time></trkpt><trkpt lat="36.91536316268455" lon="15.024111096089786"><ele>345.0</ele><time>2026-04-18T13:10:28Z</time></trkpt><trkpt lat="36.91556478466151" lon="15.02407068224293"><ele>342.6666666666667</ele><time>2026-04-18T13:10:29Z</time></trkpt><trkpt lat="36.91575571061827" lon="15.024023769634532"><ele>340.33333333333337</ele><time>2026-04-18T13:10:30Z</time></trkpt><trkpt lat="36.91594851810528" lon="15.023996017424253"><ele>338.0</ele><time>2026-04-18T13:10:31Z</time></trkpt><trkpt lat="36.91614223162568" lon="15.023976273297224"><ele>342.6666666666667</ele><time>2026-04-18T13:10:32Z</time></trkpt><trkpt lat="36.91632877791565" lon="15.023937533100947"><ele>347.3333333333333</ele><time>2026-04-18T13:10:32.999Z</time></trkpt><trkpt lat="36.91651234970249" lon="15.023922791877206"><ele>352.0</ele><time>2026-04-18T13:10:33.999Z</time></trkpt><trkpt lat="36.91669740210091" lon="15.023930595679607"><ele>355.0</ele><time>2026-04-18T13:10:34.999Z</time></trkpt><trkpt lat="36.91688151920902" lon="15.02392625252558"><ele>358.0</ele><time>2026-04-18T13:10:35.999Z</time></trkpt><trkpt lat="36.91706393593906" lon="15.023930164714821"><ele>361.0</ele><time>2026-04-18T13:10:36.999Z</time></trkpt><trkpt lat="36.91724758992497" lon="15.023942947448589"><ele>361.0</ele><time>2026-04-18T13:10:37.999Z</time></trkpt><trkpt lat="36.91742604319103" lon="15.023957789744042"><ele>361.0</ele><time>2026-04-18T13:10:38.999Z</time></trkpt><trkpt lat="36.917594952676254" lon="15.02395329221619"><ele>361.0</ele><time>2026-04-18T13:10:39.999Z</time></trkpt><trkpt lat="36.91775371575032" lon="15.023964637855913"><ele>362.75</ele><time>2026-04-18T13:10:40.999Z</time></trkpt><trkpt lat="36.91790364791608" lon="15.0239519646164"><ele>364.5</ele><time>2026-04-18T13:10:41.999Z</time></trkpt><trkpt lat="36.91804053472654" lon="15.023901896264839"><ele>366.25</ele><time>2026-04-18T13:10:42.999Z</time></trkpt><trkpt lat="36.91816807692488" lon="15.023797127808317"><ele>368.0</ele><time>2026-04-18T13:10:43.999Z</time></trkpt><trkpt lat="36.91829411286496" lon="15.023649139371265"><ele>364.33333333333337</ele><time>2026-04-18T13:10:44.999Z</time></trkpt><trkpt lat="36.91843120240077" lon="15.02351162492835"><ele>360.6666666666667</ele><time>2026-04-18T13:10:45.999Z</time></trkpt><trkpt lat="36.918559223411705" lon="15.02336463516596"><ele>357.0</ele><time>2026-04-18T13:10:46.999Z</time></trkpt><trkpt lat="36.918687117245035" lon="15.023218829923543"><ele>357.0</ele><time>2026-04-18T13:10:47.999Z</time></trkpt><trkpt lat="36.91881569836011" lon="15.023085259296046"><ele>357.0</ele><time>2026-04-18T13:10:48.999Z</time></trkpt><trkpt lat="36.91895352174263" lon="15.022966088091012"><ele>357.0</ele><time>2026-04-18T13:10:49.999Z</time></trkpt><trkpt lat="36.91908823556397" lon="15.022874801234936"><ele>357.0</ele><time>2026-04-18T13:10:50.999Z</time></trkpt><trkpt lat="36.91922002982928" lon="15.022829874323588"><ele>357.0</ele><time>2026-04-18T13:10:51.999Z</time></trkpt><trkpt lat="36.91934694539591" lon="15.022843028661374"><ele>357.0</ele><time>2026-04-18T13:10:52.999Z</time></trkpt><trkpt lat="36.91949014769113" lon="15.022877917828044"><ele>357.0</ele><time>2026-04-18T13:10:53.999Z</time></trkpt><trkpt lat="36.91964685474778" lon="15.022919320657454"><ele>357.6666666666667</ele><time>2026-04-18T13:10:54.999Z</time></trkpt><trkpt lat="36.91981018288271" lon="15.022962852727517"><ele>358.33333333333337</ele><time>2026-04-18T13:10:55.999Z</time></trkpt><trkpt lat="36.919963963804875" lon="15.023032982711046"><ele>359.0</ele><time>2026-04-18T13:10:56.999Z</time></trkpt><trkpt lat="36.92011421040131" lon="15.023114809617441"><ele>360.6666666666667</ele><time>2026-04-18T13:10:57.999Z</time></trkpt><trkpt lat="36.92026944704426" lon="15.02320241866713"><ele>362.3333333333333</ele><time>2026-04-18T13:10:58.999Z</time></trkpt><trkpt lat="36.92043747121069" lon="15.023268876515175"><ele>364.0</ele><time>2026-04-18T13:10:59.999Z</time></trkpt><trkpt lat="36.920611245787455" lon="15.02329124059177"><ele>364.0</ele><time>2026-04-18T13:11:00.999Z</time></trkpt><trkpt lat="36.92079136784393" lon="15.023300240417944"><ele>364.0</ele><time>2026-04-18T13:11:01.999Z</time></trkpt><trkpt lat="36.92097240212858" lon="15.023268588914474"><ele>364.0</ele><time>2026-04-18T13:11:02.999Z</time></trkpt><trkpt lat="36.921144246032796" lon="15.023183699724191"><ele>368.3333333333333</ele><time>2026-04-18T13:11:03.999Z</time></trkpt><trkpt lat="36.92131229533338" lon="15.02309784816477"><ele>372.6666666666667</ele><time>2026-04-18T13:11:04.999Z</time></trkpt><trkpt lat="36.92148401865063" lon="15.023003683495618"><ele>377.0</ele><time>2026-04-18T13:11:05.999Z</time></trkpt><trkpt lat="36.92164284994157" lon="15.022873428276327"><ele>376.6666666666667</ele><time>2026-04-18T13:11:06.999Z</time></trkpt><trkpt lat="36.92176308968488" lon="15.022705502340159"><ele>376.3333333333333</ele><time>2026-04-18T13:11:07.999Z</time></trkpt><trkpt lat="36.92187385417022" lon="15.02252035244986"><ele>376.0</ele><time>2026-04-18T13:11:08.999Z</time></trkpt><trkpt lat="36.921971335086305" lon="15.022309719832528"><ele>381.3333333333333</ele><time>2026-04-18T13:11:09.999Z</time></trkpt><trkpt lat="36.92208368658129" lon="15.02211605656593"><ele>386.66666666666663</ele><time>2026-04-18T13:11:10.999Z</time></trkpt><trkpt lat="36.922164810798506" lon="15.021932128064321"><ele>392.0</ele><time>2026-04-18T13:11:11.999Z</time></trkpt><trkpt lat="36.92218288322092" lon="15.021741717871631"><ele>391.75</ele><time>2026-04-18T13:11:12.999Z</time></trkpt><trkpt lat="36.92214505767296" lon="15.021572748301153"><ele>391.5</ele><time>2026-04-18T13:11:13.999Z</time></trkpt><trkpt lat="36.92209211576449" lon="15.021434315241962"><ele>391.25</ele><time>2026-04-18T13:11:14.999Z</time></trkpt><trkpt lat="36.92211196478523" lon="15.021312670589435"><ele>391.0</ele><time>2026-04-18T13:11:15.999Z</time></trkpt><trkpt lat="36.92216716146952" lon="15.021224404854822"><ele>391.0</ele><time>2026-04-18T13:11:16.999Z</time></trkpt><trkpt lat="36.922242478410475" lon="15.021140194632785"><ele>391.0</ele><time>2026-04-18T13:11:17.999Z</time></trkpt><trkpt lat="36.922343491379934" lon="15.02103337738116"><ele>391.0</ele><time>2026-04-18T13:11:18.999Z</time></trkpt><trkpt lat="36.92246710568535" lon="15.020914553119765"><ele>391.0</ele><time>2026-04-18T13:11:19.999Z</time></trkpt><trkpt lat="36.922599391249335" lon="15.020786758904581"><ele>395.0</ele><time>2026-04-18T13:11:20.999Z</time></trkpt><trkpt lat="36.922716098036645" lon="15.02063583841081"><ele>399.0</ele><time>2026-04-18T13:11:21.999Z</time></trkpt><trkpt lat="36.92281697449451" lon="15.020488030183401"><ele>403.0</ele><time>2026-04-18T13:11:22.999Z</time></trkpt><trkpt lat="36.92287399450153" lon="15.020327738851414"><ele>403.0</ele><time>2026-04-18T13:11:23.999Z</time></trkpt><trkpt lat="36.92288503417779" lon="15.020168982524952"><ele>403.0</ele><time>2026-04-18T13:11:24.999Z</time></trkpt><trkpt lat="36.92284956814226" lon="15.020020789785002"><ele>403.0</ele><time>2026-04-18T13:11:25.999Z</time></trkpt><trkpt lat="36.92276735885842" lon="15.019891259593164"><ele>403.0</ele><time>2026-04-18T13:11:26.999Z</time></trkpt><trkpt lat="36.92267770108204" lon="15.019771552559265"><ele>403.59999999999997</ele><time>2026-04-18T13:11:27.999Z</time></trkpt><trkpt lat="36.92264509382322" lon="15.019650167727141"><ele>404.2</ele><time>2026-04-18T13:11:28.999Z</time></trkpt><trkpt lat="36.922651801870565" lon="15.019547547977668"><ele>404.8</ele><time>2026-04-18T13:11:29.999Z</time></trkpt><trkpt lat="36.922697518831214" lon="15.019441537290946"><ele>405.4</ele><time>2026-04-18T13:11:30.999Z</time></trkpt><trkpt lat="36.922776555364656" lon="15.019347865872202"><ele>406.0</ele><time>2026-04-18T13:11:31.999Z</time></trkpt><trkpt lat="36.92288394202969" lon="15.019237005972446"><ele>406.5</ele><time>2026-04-18T13:11:33Z</time></trkpt><trkpt lat="36.92298262435001" lon="15.01911105993622"><ele>407.0</ele><time>2026-04-18T13:11:34Z</time></trkpt><trkpt lat="36.92307270613672" lon="15.01898251177874"><ele>407.5</ele><time>2026-04-18T13:11:35Z</time></trkpt><trkpt lat="36.923127629425586" lon="15.018822745348409"><ele>408.0</ele><time>2026-04-18T13:11:36Z</time></trkpt><trkpt lat="36.92315566093169" lon="15.018640731753255"><ele>408.0</ele><time>2026-04-18T13:11:37Z</time></trkpt><trkpt lat="36.92316657728313" lon="15.01845843551509"><ele>408.0</ele><time>2026-04-18T13:11:38Z</time></trkpt><trkpt lat="36.92316888809887" lon="15.018267714263933"><ele>408.0</ele><time>2026-04-18T13:11:39Z</time></trkpt><trkpt lat="36.92320681904985" lon="15.018098856088747"><ele>408.0</ele><time>2026-04-18T13:11:40Z</time></trkpt><trkpt lat="36.92325674199281" lon="15.017956863065438"><ele>408.25</ele><time>2026-04-18T13:11:41Z</time></trkpt><trkpt lat="36.923333407973516" lon="15.017852967288366"><ele>408.5</ele><time>2026-04-18T13:11:42Z</time></trkpt><trkpt lat="36.92343381447792" lon="15.017757316203335"><ele>408.75</ele><time>2026-04-18T13:11:43Z</time></trkpt><trkpt lat="36.92354449461026" lon="15.017634008839432"><ele>409.0</ele><time>2026-04-18T13:11:44Z</time></trkpt><trkpt lat="36.92363975956018" lon="15.017477699782816"><ele>407.6666666666667</ele><time>2026-04-18T13:11:45Z</time></trkpt><trkpt lat="36.9237246826059" lon="15.017310008720818"><ele>406.33333333333337</ele><time>2026-04-18T13:11:46Z</time></trkpt><trkpt lat="36.92379167094709" lon="15.01711801826973"><ele>405.0</ele><time>2026-04-18T13:11:47Z</time></trkpt><trkpt lat="36.923863352172134" lon="15.016939002584516"><ele>405.0</ele><time>2026-04-18T13:11:48Z</time></trkpt><trkpt lat="36.92390442106422" lon="15.016758139914694"><ele>405.0</ele><time>2026-04-18T13:11:49Z</time></trkpt><trkpt lat="36.92391286915187" lon="15.0165873431612"><ele>405.0</ele><time>2026-04-18T13:11:50Z</time></trkpt><trkpt lat="36.9238864764206" lon="15.016434885327518"><ele>405.0</ele><time>2026-04-18T13:11:51Z</time></trkpt><trkpt lat="36.92379131184223" lon="15.01631802517004"><ele>405.0</ele><time>2026-04-18T13:11:52Z</time></trkpt><trkpt lat="36.92369065139805" lon="15.016211492301014"><ele>405.0</ele><time>2026-04-18T13:11:53Z</time></trkpt><trkpt lat="36.92356276459967" lon="15.016103928036554"><ele>405.0</ele><time>2026-04-18T13:11:54Z</time></trkpt><trkpt lat="36.92344915454746" lon="15.016000047581532"><ele>405.0</ele><time>2026-04-18T13:11:55Z</time></trkpt><trkpt lat="36.92335781976579" lon="15.015900246196253"><ele>405.6</ele><time>2026-04-18T13:11:56Z</time></trkpt><trkpt lat="36.92329215625937" lon="15.015791915327378"><ele>406.2</ele><time>2026-04-18T13:11:57Z</time></trkpt><trkpt lat="36.923282399259676" lon="15.01566767814313"><ele>406.79999999999995</ele><time>2026-04-18T13:11:58Z</time></trkpt><trkpt lat="36.923303773396874" lon="15.015562194222655"><ele>407.4</ele><time>2026-04-18T13:11:59Z</time></trkpt><trkpt lat="36.92336189219138" lon="15.015449151102649"><ele>408.0</ele><time>2026-04-18T13:12:00Z</time></trkpt><trkpt lat="36.923433011624866" lon="15.015307079567037"><ele>408.0</ele><time>2026-04-18T13:12:01Z</time></trkpt><trkpt lat="36.92351744145108" lon="15.01514413325914"><ele>408.0</ele><time>2026-04-18T13:12:02Z</time></trkpt><trkpt lat="36.9236046417404" lon="15.014970683186343"><ele>408.0</ele><time>2026-04-18T13:12:03Z</time></trkpt><trkpt lat="36.923670962418235" lon="15.014784412159852"><ele>406.33333333333337</ele><time>2026-04-18T13:12:04Z</time></trkpt><trkpt lat="36.923743773876154" lon="15.01460654567449"><ele>404.6666666666667</ele><time>2026-04-18T13:12:05Z</time></trkpt><trkpt lat="36.92379167107884" lon="15.014418329897643"><ele>403.0</ele><time>2026-04-18T13:12:06Z</time></trkpt><trkpt lat="36.9238004443945" lon="15.014223291303585"><ele>403.6666666666667</ele><time>2026-04-18T13:12:07Z</time></trkpt><trkpt lat="36.92378248279528" lon="15.01402096559199"><ele>404.33333333333337</ele><time>2026-04-18T13:12:08Z</time></trkpt><trkpt lat="36.92375591156464" lon="15.013804811922292"><ele>405.0</ele><time>2026-04-18T13:12:09Z</time></trkpt><trkpt lat="36.92370241219787" lon="15.013592106947433"><ele>405.0</ele><time>2026-04-18T13:12:10Z</time></trkpt><trkpt lat="36.92362277996237" lon="15.013398546157639"><ele>405.0</ele><time>2026-04-18T13:12:11Z</time></trkpt><trkpt lat="36.923556588789815" lon="15.013188866304802"><ele>405.0</ele><time>2026-04-18T13:12:12Z</time></trkpt><trkpt lat="36.92349390201345" lon="15.012967211489578"><ele>406.0</ele><time>2026-04-18T13:12:13Z</time></trkpt><trkpt lat="36.923442082535324" lon="15.012742605306393"><ele>407.0</ele><time>2026-04-18T13:12:14Z</time></trkpt><trkpt lat="36.92339118808752" lon="15.012513260284015"><ele>408.0</ele><time>2026-04-18T13:12:15Z</time></trkpt><trkpt lat="36.923339121138916" lon="15.012284971586885"><ele>411.66666666666663</ele><time>2026-04-18T13:12:16Z</time></trkpt><trkpt lat="36.92328544527314" lon="15.012057484653713"><ele>415.3333333333333</ele><time>2026-04-18T13:12:17Z</time></trkpt><trkpt lat="36.9232301733114" lon="15.011830974781727"><ele>419.0</ele><time>2026-04-18T13:12:18Z</time></trkpt><trkpt lat="36.92316704849425" lon="15.011604399981136"><ele>419.0</ele><time>2026-04-18T13:12:19Z</time></trkpt><trkpt lat="36.92308024675058" lon="15.011387227179616"><ele>419.0</ele><time>2026-04-18T13:12:20Z</time></trkpt><trkpt lat="36.92300024409462" lon="15.011164350789572"><ele>419.0</ele><time>2026-04-18T13:12:21Z</time></trkpt><trkpt lat="36.922909250885404" lon="15.010940451945869"><ele>416.0</ele><time>2026-04-18T13:12:22Z</time></trkpt><trkpt lat="36.922815341282664" lon="15.010730957841695"><ele>413.0</ele><time>2026-04-18T13:12:23Z</time></trkpt><trkpt lat="36.92275294558297" lon="15.010500548756312"><ele>410.0</ele><time>2026-04-18T13:12:24Z</time></trkpt><trkpt lat="36.922719458163755" lon="15.01024715772699"><ele>412.0</ele><time>2026-04-18T13:12:25Z</time></trkpt><trkpt lat="36.922683351034344" lon="15.00996967270434"><ele>414.0</ele><time>2026-04-18T13:12:26Z</time></trkpt><trkpt lat="36.922648235130225" lon="15.009667904142232"><ele>414.0</ele><time>2026-04-18T13:12:27Z</time></trkpt><trkpt lat="36.922603852180146" lon="15.009379670605895"><ele>414.0</ele><time>2026-04-18T13:12:28Z</time></trkpt><trkpt lat="36.92258479426912" lon="15.009119370705184"><ele>414.0</ele><time>2026-04-18T13:12:29Z</time></trkpt><trkpt lat="36.92257100701509" lon="15.008880989274255"><ele>418.66666666666663</ele><time>2026-04-18T13:12:30Z</time></trkpt><trkpt lat="36.92257658385361" lon="15.008668229243149"><ele>423.3333333333333</ele><time>2026-04-18T13:12:31Z</time></trkpt><trkpt lat="36.922637088294906" lon="15.00848817216881"><ele>428.0</ele><time>2026-04-18T13:12:32Z</time></trkpt><trkpt lat="36.9226827069717" lon="15.008278574939274"><ele>432.0</ele><time>2026-04-18T13:12:33Z</time></trkpt><trkpt lat="36.922753729857746" lon="15.00804480058721"><ele>436.0</ele><time>2026-04-18T13:12:34Z</time></trkpt><trkpt lat="36.922828411766424" lon="15.007791375060545"><ele>440.0</ele><time>2026-04-18T13:12:35Z</time></trkpt><trkpt lat="36.92286020805697" lon="15.007528551434937"><ele>442.0</ele><time>2026-04-18T13:12:36Z</time></trkpt><trkpt lat="36.92291242519856" lon="15.007292116975439"><ele>444.0</ele><time>2026-04-18T13:12:37Z</time></trkpt><trkpt lat="36.922982501930974" lon="15.007083684900092"><ele>446.0</ele><time>2026-04-18T13:12:38Z</time></trkpt><trkpt lat="36.92310195611758" lon="15.006913137642163"><ele>446.0</ele><time>2026-04-18T13:12:39Z</time></trkpt><trkpt lat="36.92320960473557" lon="15.006745357163032"><ele>446.0</ele><time>2026-04-18T13:12:40Z</time></trkpt><trkpt lat="36.923287213062814" lon="15.00658880186993"><ele>446.0</ele><time>2026-04-18T13:12:41Z</time></trkpt><trkpt lat="36.923365536189614" lon="15.006444351520582"><ele>444.5</ele><time>2026-04-18T13:12:41.999Z</time></trkpt><trkpt lat="36.92339207011984" lon="15.006268073817651"><ele>443.0</ele><time>2026-04-18T13:12:42.999Z</time></trkpt><trkpt lat="36.92345645043046" lon="15.006118819850292"><ele>441.5</ele><time>2026-04-18T13:12:43.999Z</time></trkpt><trkpt lat="36.92355709008421" lon="15.006013950469054"><ele>440.0</ele><time>2026-04-18T13:12:44.999Z</time></trkpt><trkpt lat="36.92368717606534" lon="15.005924052879124"><ele>439.66666666666663</ele><time>2026-04-18T13:12:45.999Z</time></trkpt><trkpt lat="36.92382215451315" lon="15.005804458774525"><ele>439.33333333333337</ele><time>2026-04-18T13:12:46.999Z</time></trkpt><trkpt lat="36.92394604669799" lon="15.005653095404778"><ele>439.0</ele><time>2026-04-18T13:12:47.999Z</time></trkpt><trkpt lat="36.92405935074528" lon="15.005468343365735"><ele>439.0</ele><time>2026-04-18T13:12:48.999Z</time></trkpt><trkpt lat="36.92416195736636" lon="15.005266557357372"><ele>439.0</ele><time>2026-04-18T13:12:49.999Z</time></trkpt><trkpt lat="36.92424678869546" lon="15.005046897953141"><ele>439.0</ele><time>2026-04-18T13:12:50.999Z</time></trkpt><trkpt lat="36.92431365804694" lon="15.004811245934949"><ele>438.6666666666667</ele><time>2026-04-18T13:12:51.999Z</time></trkpt><trkpt lat="36.92435451977057" lon="15.0045660599464"><ele>438.33333333333337</ele><time>2026-04-18T13:12:52.999Z</time></trkpt><trkpt lat="36.92439513367265" lon="15.004321091123627"><ele>438.0</ele><time>2026-04-18T13:12:53.999Z</time></trkpt><trkpt lat="36.92444663756389" lon="15.004081875449648"><ele>438.0</ele><time>2026-04-18T13:12:54.999Z</time></trkpt><trkpt lat="36.92451900493996" lon="15.00384777146414"><ele>438.0</ele><time>2026-04-18T13:12:55.999Z</time></trkpt><trkpt lat="36.92458835022337" lon="15.003582824636513"><ele>438.0</ele><time>2026-04-18T13:12:56.999Z</time></trkpt><trkpt lat="36.92467277602784" lon="15.003325273710757"><ele>439.66666666666663</ele><time>2026-04-18T13:12:57.999Z</time></trkpt><trkpt lat="36.9247597735793" lon="15.003063664876876"><ele>441.3333333333333</ele><time>2026-04-18T13:12:58.999Z</time></trkpt><trkpt lat="36.924826754442655" lon="15.002807318261082"><ele>443.0</ele><time>2026-04-18T13:12:59.999Z</time></trkpt><trkpt lat="36.924891068335334" lon="15.002561178461223"><ele>441.3333333333333</ele><time>2026-04-18T13:13:00.999Z</time></trkpt><trkpt lat="36.92495532996931" lon="15.002324807451052"><ele>439.66666666666663</ele><time>2026-04-18T13:13:01.999Z</time></trkpt><trkpt lat="36.92500789895522" lon="15.002087379018706"><ele>438.0</ele><time>2026-04-18T13:13:02.999Z</time></trkpt><trkpt lat="36.92507961521442" lon="15.001867233074195"><ele>439.33333333333337</ele><time>2026-04-18T13:13:03.999Z</time></trkpt><trkpt lat="36.92517295206672" lon="15.001677956775666"><ele>440.6666666666667</ele><time>2026-04-18T13:13:04.999Z</time></trkpt><trkpt lat="36.92526358233965" lon="15.001497194883479"><ele>442.0</ele><time>2026-04-18T13:13:05.999Z</time></trkpt><trkpt lat="36.92535307917449" lon="15.001334141630865"><ele>442.0</ele><time>2026-04-18T13:13:06.999Z</time></trkpt><trkpt lat="36.925432509721304" lon="15.001154067690807"><ele>442.0</ele><time>2026-04-18T13:13:07.999Z</time></trkpt><trkpt lat="36.925530680613136" lon="15.000981576761475"><ele>442.0</ele><time>2026-04-18T13:13:08.999Z</time></trkpt><trkpt lat="36.92562568744524" lon="15.000794673837978"><ele>442.0</ele><time>2026-04-18T13:13:09.999Z</time></trkpt><trkpt lat="36.925716780128326" lon="15.000601842072566"><ele>442.0</ele><time>2026-04-18T13:13:10.999Z</time></trkpt><trkpt lat="36.92580896112517" lon="15.000400726549687"><ele>442.0</ele><time>2026-04-18T13:13:11.999Z</time></trkpt><trkpt lat="36.925910662577564" lon="15.000202597219884"><ele>442.33333333333337</ele><time>2026-04-18T13:13:12.999Z</time></trkpt><trkpt lat="36.92598094613315" lon="14.999972343506855"><ele>442.66666666666663</ele><time>2026-04-18T13:13:13.999Z</time></trkpt><trkpt lat="36.92607902431507" lon="14.999758705382455"><ele>443.0</ele><time>2026-04-18T13:13:14.999Z</time></trkpt><trkpt lat="36.92616387784721" lon="14.999525604623754"><ele>443.0</ele><time>2026-04-18T13:13:15.999Z</time></trkpt><trkpt lat="36.92621414476203" lon="14.999275050971551"><ele>443.0</ele><time>2026-04-18T13:13:16.999Z</time></trkpt><trkpt lat="36.92626114160332" lon="14.99903001973247"><ele>443.0</ele><time>2026-04-18T13:13:17.999Z</time></trkpt><trkpt lat="36.926299560258606" lon="14.998789807445487"><ele>447.0</ele><time>2026-04-18T13:13:18.999Z</time></trkpt><trkpt lat="36.92634120764899" lon="14.998552123627023"><ele>451.0</ele><time>2026-04-18T13:13:19.999Z</time></trkpt><trkpt lat="36.92638440174121" lon="14.99833018212954"><ele>455.0</ele><time>2026-04-18T13:13:20.999Z</time></trkpt><trkpt lat="36.926446788775095" lon="14.998123460913847"><ele>457.0</ele><time>2026-04-18T13:13:21.999Z</time></trkpt><trkpt lat="36.92654882243576" lon="14.997953434662513"><ele>459.0</ele><time>2026-04-18T13:13:22.999Z</time></trkpt><trkpt lat="36.926648795623976" lon="14.997811644837105"><ele>461.0</ele><time>2026-04-18T13:13:23.999Z</time></trkpt><trkpt lat="36.92676164232245" lon="14.997694133164863"><ele>461.0</ele><time>2026-04-18T13:13:24.999Z</time></trkpt><trkpt lat="36.926875229240316" lon="14.997549992675964"><ele>461.0</ele><time>2026-04-18T13:13:25.999Z</time></trkpt><trkpt lat="36.9270019981778" lon="14.997405396953441"><ele>461.0</ele><time>2026-04-18T13:13:26.999Z</time></trkpt><trkpt lat="36.92713001158626" lon="14.997231858453212"><ele>462.3333333333333</ele><time>2026-04-18T13:13:27.999Z</time></trkpt><trkpt lat="36.92720086789825" lon="14.997001499823861"><ele>463.66666666666663</ele><time>2026-04-18T13:13:28.999Z</time></trkpt><trkpt lat="36.92727508705096" lon="14.996754959413135"><ele>465.0</ele><time>2026-04-18T13:13:29.999Z</time></trkpt><trkpt lat="36.9273462892644" lon="14.99648128938666"><ele>466.66666666666663</ele><time>2026-04-18T13:13:30.999Z</time></trkpt><trkpt lat="36.92743204902703" lon="14.996226319830024"><ele>468.3333333333333</ele><time>2026-04-18T13:13:31.999Z</time></trkpt><trkpt lat="36.92749821554453" lon="14.995970834854523"><ele>470.0</ele><time>2026-04-18T13:13:32.999Z</time></trkpt><trkpt lat="36.92755559302873" lon="14.995725056857687"><ele>473.3333333333333</ele><time>2026-04-18T13:13:33.999Z</time></trkpt><trkpt lat="36.9275924588745" lon="14.995474523338798"><ele>476.66666666666663</ele><time>2026-04-18T13:13:34.999Z</time></trkpt><trkpt lat="36.92759605102596" lon="14.995227937132743"><ele>480.0</ele><time>2026-04-18T13:13:35.999Z</time></trkpt><trkpt lat="36.927565121994235" lon="14.994994255956701"><ele>479.33333333333337</ele><time>2026-04-18T13:13:36.999Z</time></trkpt><trkpt lat="36.92747999539755" lon="14.9947841443248"><ele>478.6666666666667</ele><time>2026-04-18T13:13:37.999Z</time></trkpt><trkpt lat="36.92737953678206" lon="14.994593807749458"><ele>478.0</ele><time>2026-04-18T13:13:39Z</time></trkpt><trkpt lat="36.92727353657582" lon="14.994396201959853"><ele>479.6666666666667</ele><time>2026-04-18T13:13:40Z</time></trkpt><trkpt lat="36.92720302240319" lon="14.994169362844524"><ele>481.33333333333337</ele><time>2026-04-18T13:13:41Z</time></trkpt><trkpt lat="36.92711402794713" lon="14.993944733135995"><ele>483.0</ele><time>2026-04-18T13:13:42Z</time></trkpt><trkpt lat="36.927036832374704" lon="14.993710503998697"><ele>483.0</ele><time>2026-04-18T13:13:43Z</time></trkpt><trkpt lat="36.92695056835092" lon="14.99348171493387"><ele>483.0</ele><time>2026-04-18T13:13:44Z</time></trkpt><trkpt lat="36.926849367113924" lon="14.993258822364371"><ele>483.0</ele><time>2026-04-18T13:13:45Z</time></trkpt><trkpt lat="36.926733708320796" lon="14.993048846653336"><ele>483.66666666666663</ele><time>2026-04-18T13:13:46Z</time></trkpt><trkpt lat="36.92660811306664" lon="14.992848725934547"><ele>484.3333333333333</ele><time>2026-04-18T13:13:47Z</time></trkpt><trkpt lat="36.926490832494444" lon="14.992661288731066"><ele>485.0</ele><time>2026-04-18T13:13:48Z</time></trkpt><trkpt lat="36.92639250410906" lon="14.992478008863285"><ele>486.3333333333333</ele><time>2026-04-18T13:13:49Z</time></trkpt><trkpt lat="36.926313251390255" lon="14.992282301994878"><ele>487.66666666666663</ele><time>2026-04-18T13:13:50Z</time></trkpt><trkpt lat="36.92625664337848" lon="14.992067064270673"><ele>489.0</ele><time>2026-04-18T13:13:51Z</time></trkpt><trkpt lat="36.92624567987777" lon="14.991852565104395"><ele>490.33333333333337</ele><time>2026-04-18T13:13:52Z</time></trkpt><trkpt lat="36.926252075325145" lon="14.991643459861145"><ele>491.6666666666667</ele><time>2026-04-18T13:13:53Z</time></trkpt><trkpt lat="36.926273057798404" lon="14.9914127575643"><ele>493.0</ele><time>2026-04-18T13:13:54Z</time></trkpt><trkpt lat="36.92627999579484" lon="14.991158661224066"><ele>493.0</ele><time>2026-04-18T13:13:55Z</time></trkpt><trkpt lat="36.92632142123317" lon="14.99089848663358"><ele>493.0</ele><time>2026-04-18T13:13:56Z</time></trkpt><trkpt lat="36.92634930669908" lon="14.990623862650477"><ele>493.0</ele><time>2026-04-18T13:13:57Z</time></trkpt><trkpt lat="36.92637757890952" lon="14.990353484766482"><ele>493.0</ele><time>2026-04-18T13:13:58Z</time></trkpt><trkpt lat="36.92640644124187" lon="14.9900816875869"><ele>493.0</ele><time>2026-04-18T13:13:59Z</time></trkpt><trkpt lat="36.926418546295494" lon="14.989827870801161"><ele>493.0</ele><time>2026-04-18T13:14:00Z</time></trkpt><trkpt lat="36.92644763957005" lon="14.989584966806907"><ele>493.25</ele><time>2026-04-18T13:14:01Z</time></trkpt><trkpt lat="36.92648399275739" lon="14.989371084417078"><ele>493.5</ele><time>2026-04-18T13:14:02Z</time></trkpt><trkpt lat="36.9265055845179" lon="14.989170853684847"><ele>493.75</ele><time>2026-04-18T13:14:03Z</time></trkpt><trkpt lat="36.926521071242455" lon="14.98903543007312"><ele>494.0</ele><time>2026-04-18T13:14:04Z</time></trkpt><trkpt lat="36.92655089338898" lon="14.988944181383989"><ele>494.6</ele><time>2026-04-18T13:14:05Z</time></trkpt><trkpt lat="36.92660418538824" lon="14.988878151047924"><ele>495.2</ele><time>2026-04-18T13:14:06Z</time></trkpt><trkpt lat="36.92668618132269" lon="14.988867142628191"><ele>495.80000000000007</ele><time>2026-04-18T13:14:07Z</time></trkpt><trkpt lat="36.926796331928344" lon="14.98887037367334"><ele>496.40000000000003</ele><time>2026-04-18T13:14:08Z</time></trkpt><trkpt lat="36.92695117871302" lon="14.988873378066552"><ele>497.0</ele><time>2026-04-18T13:14:09Z</time></trkpt><trkpt lat="36.9271057238187" lon="14.988846761280136"><ele>497.0</ele><time>2026-04-18T13:14:10Z</time></trkpt><trkpt lat="36.92723749716855" lon="14.988842384116529"><ele>497.0</ele><time>2026-04-18T13:14:11Z</time></trkpt><trkpt lat="36.92735203496098" lon="14.988794234252694"><ele>497.0</ele><time>2026-04-18T13:14:12Z</time></trkpt><trkpt lat="36.92744384785458" lon="14.98872329218918"><ele>497.0</ele><time>2026-04-18T13:14:13Z</time></trkpt><trkpt lat="36.92749755749866" lon="14.988600154141896"><ele>497.0</ele><time>2026-04-18T13:14:14Z</time></trkpt><trkpt lat="36.92751536058327" lon="14.988455573973685"><ele>497.0</ele><time>2026-04-18T13:14:15Z</time></trkpt><trkpt lat="36.9275019090989" lon="14.988306081300095"><ele>497.0</ele><time>2026-04-18T13:14:16Z</time></trkpt><trkpt lat="36.92746932802338" lon="14.988138590334383"><ele>497.0</ele><time>2026-04-18T13:14:17Z</time></trkpt><trkpt lat="36.927421683664996" lon="14.987952204824959"><ele>498.3333333333333</ele><time>2026-04-18T13:14:18Z</time></trkpt><trkpt lat="36.92735904436946" lon="14.98778451162581"><ele>499.66666666666663</ele><time>2026-04-18T13:14:19Z</time></trkpt><trkpt lat="36.927305224469606" lon="14.987599373947168"><ele>501.0</ele><time>2026-04-18T13:14:20Z</time></trkpt><trkpt lat="36.927245312951804" lon="14.9874052612555"><ele>501.33333333333337</ele><time>2026-04-18T13:14:21Z</time></trkpt><trkpt lat="36.92717856843739" lon="14.98720724493559"><ele>501.6666666666667</ele><time>2026-04-18T13:14:22Z</time></trkpt><trkpt lat="36.927110315757034" lon="14.987003731757643"><ele>502.0</ele><time>2026-04-18T13:14:23Z</time></trkpt><trkpt lat="36.9270651722757" lon="14.986795801868082"><ele>502.6666666666667</ele><time>2026-04-18T13:14:24Z</time></trkpt><trkpt lat="36.92702520788879" lon="14.986598410920985"><ele>503.33333333333337</ele><time>2026-04-18T13:14:25Z</time></trkpt><trkpt lat="36.927002576525254" lon="14.986391654624857"><ele>504.0</ele><time>2026-04-18T13:14:26Z</time></trkpt><trkpt lat="36.927001423461206" lon="14.986173063733776"><ele>504.0</ele><time>2026-04-18T13:14:27Z</time></trkpt><trkpt lat="36.92701412940068" lon="14.985946577886807"><ele>504.0</ele><time>2026-04-18T13:14:28Z</time></trkpt><trkpt lat="36.9270454699859" lon="14.985712289343684"><ele>504.0</ele><time>2026-04-18T13:14:29Z</time></trkpt><trkpt lat="36.92709278296035" lon="14.98548938717395"><ele>504.75</ele><time>2026-04-18T13:14:30Z</time></trkpt><trkpt lat="36.92715288027135" lon="14.985310988390994"><ele>505.5</ele><time>2026-04-18T13:14:31Z</time></trkpt><trkpt lat="36.927228582012276" lon="14.98518119157915"><ele>506.25</ele><time>2026-04-18T13:14:32Z</time></trkpt><trkpt lat="36.927327481540985" lon="14.985098067226279"><ele>507.0</ele><time>2026-04-18T13:14:33Z</time></trkpt><trkpt lat="36.92745269692801" lon="14.98500113532388"><ele>509.33333333333337</ele><time>2026-04-18T13:14:34Z</time></trkpt><trkpt lat="36.92759961937088" lon="14.984897599060238"><ele>511.6666666666667</ele><time>2026-04-18T13:14:35Z</time></trkpt><trkpt lat="36.92774325065529" lon="14.984802812681341"><ele>514.0</ele><time>2026-04-18T13:14:36Z</time></trkpt><trkpt lat="36.92788132583932" lon="14.984726122790493"><ele>514.0</ele><time>2026-04-18T13:14:37Z</time></trkpt><trkpt lat="36.92805445825992" lon="14.984724396668774"><ele>514.0</ele><time>2026-04-18T13:14:38Z</time></trkpt><trkpt lat="36.92824782220347" lon="14.984678502759648"><ele>514.0</ele><time>2026-04-18T13:14:39Z</time></trkpt><trkpt lat="36.92843752341016" lon="14.984641894899836"><ele>513.0</ele><time>2026-04-18T13:14:40Z</time></trkpt><trkpt lat="36.92862036641102" lon="14.984614652761612"><ele>512.0</ele><time>2026-04-18T13:14:41Z</time></trkpt><trkpt lat="36.92877946101488" lon="14.984535379800944"><ele>511.0</ele><time>2026-04-18T13:14:42Z</time></trkpt><trkpt lat="36.928932728887524" lon="14.984473939928993"><ele>511.0</ele><time>2026-04-18T13:14:43Z</time></trkpt><trkpt lat="36.92906147619827" lon="14.984366609940913"><ele>511.0</ele><time>2026-04-18T13:14:44Z</time></trkpt><trkpt lat="36.92916499509004" lon="14.984210129269217"><ele>511.0</ele><time>2026-04-18T13:14:45Z</time></trkpt><trkpt lat="36.92924365994618" lon="14.984034123552298"><ele>511.6666666666667</ele><time>2026-04-18T13:14:46Z</time></trkpt><trkpt lat="36.9292922708464" lon="14.983837745774569"><ele>512.3333333333334</ele><time>2026-04-18T13:14:46.999Z</time></trkpt><trkpt lat="36.92933399989353" lon="14.983652036070653"><ele>513.0</ele><time>2026-04-18T13:14:47.999Z</time></trkpt><trkpt lat="36.92937775479414" lon="14.983497013458374"><ele>513.0</ele><time>2026-04-18T13:14:48.999Z</time></trkpt><trkpt lat="36.929457952443016" lon="14.983367212865076"><ele>513.0</ele><time>2026-04-18T13:14:49.999Z</time></trkpt><trkpt lat="36.9295572714684" lon="14.9832507309779"><ele>513.0</ele><time>2026-04-18T13:14:50.999Z</time></trkpt><trkpt lat="36.92966719331326" lon="14.983126282809044"><ele>513.0</ele><time>2026-04-18T13:14:51.999Z</time></trkpt><trkpt lat="36.92978142066248" lon="14.983015606700615"><ele>514.25</ele><time>2026-04-18T13:14:52.999Z</time></trkpt><trkpt lat="36.92991735273989" lon="14.982932509943565"><ele>515.5</ele><time>2026-04-18T13:14:53.999Z</time></trkpt><trkpt lat="36.93005405823643" lon="14.982864198529997"><ele>516.75</ele><time>2026-04-18T13:14:54.999Z</time></trkpt><trkpt lat="36.93017404551987" lon="14.982783524781102"><ele>518.0</ele><time>2026-04-18T13:14:55.999Z</time></trkpt><trkpt lat="36.93028965975323" lon="14.9827224541816"><ele>518.75</ele><time>2026-04-18T13:14:56.999Z</time></trkpt><trkpt lat="36.93038871009298" lon="14.982655977292248"><ele>519.5</ele><time>2026-04-18T13:14:57.999Z</time></trkpt><trkpt lat="36.93049232444727" lon="14.982602925592216"><ele>520.25</ele><time>2026-04-18T13:14:58.999Z</time></trkpt><trkpt lat="36.93059170596179" lon="14.982522115128956"><ele>521.0</ele><time>2026-04-18T13:14:59.999Z</time></trkpt><trkpt lat="36.93068171679548" lon="14.982433448613484"><ele>522.75</ele><time>2026-04-18T13:15:00.999Z</time></trkpt><trkpt lat="36.930772728419235" lon="14.982330809842487"><ele>524.5</ele><time>2026-04-18T13:15:01.999Z</time></trkpt><trkpt lat="36.9308990880591" lon="14.982280114852996"><ele>526.25</ele><time>2026-04-18T13:15:02.999Z</time></trkpt><trkpt lat="36.93102728612097" lon="14.982234300707239"><ele>528.0</ele><time>2026-04-18T13:15:03.999Z</time></trkpt><trkpt lat="36.93116412979692" lon="14.982197668186478"><ele>528.5</ele><time>2026-04-18T13:15:04.999Z</time></trkpt><trkpt lat="36.93131717635472" lon="14.98215607941018"><ele>529.0</ele><time>2026-04-18T13:15:05.999Z</time></trkpt><trkpt lat="36.9314695455752" lon="14.982143977462592"><ele>529.5</ele><time>2026-04-18T13:15:06.999Z</time></trkpt><trkpt lat="36.93160782751571" lon="14.982159071353594"><ele>530.0</ele><time>2026-04-18T13:15:07.999Z</time></trkpt><trkpt lat="36.93174635679846" lon="14.982195923724177"><ele>531.25</ele><time>2026-04-18T13:15:08.999Z</time></trkpt><trkpt lat="36.93187747072875" lon="14.98224051838348"><ele>532.5</ele><time>2026-04-18T13:15:09.999Z</time></trkpt><trkpt lat="36.9320021490211" lon="14.982277038397415"><ele>533.75</ele><time>2026-04-18T13:15:10.999Z</time></trkpt><trkpt lat="36.93211252039198" lon="14.982311038326918"><ele>535.0</ele><time>2026-04-18T13:15:11.999Z</time></trkpt><trkpt lat="36.93221088293174" lon="14.982284331876242"><ele>535.0</ele><time>2026-04-18T13:15:12.999Z</time></trkpt><trkpt lat="36.932277358437496" lon="14.982186438846437"><ele>535.0</ele><time>2026-04-18T13:15:13.999Z</time></trkpt><trkpt lat="36.93227658931818" lon="14.982073854654615"><ele>535.0</ele><time>2026-04-18T13:15:14.999Z</time></trkpt><trkpt lat="36.93225815224347" lon="14.981978226993226"><ele>535.0</ele><time>2026-04-18T13:15:15.999Z</time></trkpt><trkpt lat="36.93221224035934" lon="14.981890101949142"><ele>535.0</ele><time>2026-04-18T13:15:16.999Z</time></trkpt><trkpt lat="36.93215062842535" lon="14.98181818262458"><ele>535.0</ele><time>2026-04-18T13:15:17.999Z</time></trkpt><trkpt lat="36.932084567957205" lon="14.981740825807062"><ele>536.6</ele><time>2026-04-18T13:15:18.999Z</time></trkpt><trkpt lat="36.932017172602414" lon="14.981658776388555"><ele>538.2</ele><time>2026-04-18T13:15:19.999Z</time></trkpt><trkpt lat="36.93194105391892" lon="14.981578166281281"><ele>539.8</ele><time>2026-04-18T13:15:20.999Z</time></trkpt><trkpt lat="36.93187854232658" lon="14.981471744950653"><ele>541.4</ele><time>2026-04-18T13:15:21.999Z</time></trkpt><trkpt lat="36.931791379741966" lon="14.981376332901638"><ele>543.0</ele><time>2026-04-18T13:15:22.999Z</time></trkpt><trkpt lat="36.93173401855192" lon="14.98123301616252"><ele>542.75</ele><time>2026-04-18T13:15:23.999Z</time></trkpt><trkpt lat="36.93168253821387" lon="14.98108501845388"><ele>542.5</ele><time>2026-04-18T13:15:24.999Z</time></trkpt><trkpt lat="36.931639602869474" lon="14.980940697300515"><ele>542.25</ele><time>2026-04-18T13:15:25.999Z</time></trkpt><trkpt lat="36.931600467024694" lon="14.980780134158412"><ele>542.0</ele><time>2026-04-18T13:15:26.999Z</time></trkpt><trkpt lat="36.931559146971864" lon="14.980640244975605"><ele>542.0</ele><time>2026-04-18T13:15:27.999Z</time></trkpt><trkpt lat="36.931548267788045" lon="14.980507063788334"><ele>542.0</ele><time>2026-04-18T13:15:28.999Z</time></trkpt><trkpt lat="36.931557359960635" lon="14.980383298713056"><ele>542.0</ele><time>2026-04-18T13:15:29.999Z</time></trkpt><trkpt lat="36.93161750766327" lon="14.980266433435336"><ele>542.0</ele><time>2026-04-18T13:15:30.999Z</time></trkpt><trkpt lat="36.93169006833184" lon="14.980162861160693"><ele>542.0</ele><time>2026-04-18T13:15:31.999Z</time></trkpt><trkpt lat="36.93178189335723" lon="14.980059734739093"><ele>544.6666666666666</ele><time>2026-04-18T13:15:32.999Z</time></trkpt><trkpt lat="36.931885182386225" lon="14.979920630124084"><ele>547.3333333333334</ele><time>2026-04-18T13:15:33.999Z</time></trkpt><trkpt lat="36.932009340075" lon="14.979799136601756"><ele>550.0</ele><time>2026-04-18T13:15:34.999Z</time></trkpt><trkpt lat="36.932140086924214" lon="14.979677128310257"><ele>550.0</ele><time>2026-04-18T13:15:35.999Z</time></trkpt><trkpt lat="36.93227370576874" lon="14.979562866755169"><ele>550.0</ele><time>2026-04-18T13:15:36.999Z</time></trkpt><trkpt lat="36.932426001830535" lon="14.979479420314838"><ele>550.0</ele><time>2026-04-18T13:15:37.999Z</time></trkpt><trkpt lat="36.93256907399417" lon="14.979387036863441"><ele>552.3333333333334</ele><time>2026-04-18T13:15:38.999Z</time></trkpt><trkpt lat="36.93272155868308" lon="14.979312868914285"><ele>554.6666666666666</ele><time>2026-04-18T13:15:39.999Z</time></trkpt><trkpt lat="36.932879904522764" lon="14.979249604686176"><ele>557.0</ele><time>2026-04-18T13:15:40.999Z</time></trkpt><trkpt lat="36.93303821996873" lon="14.979195700751792"><ele>553.6666666666666</ele><time>2026-04-18T13:15:41.999Z</time></trkpt><trkpt lat="36.933195749310855" lon="14.979131729353657"><ele>550.3333333333334</ele><time>2026-04-18T13:15:42.999Z</time></trkpt><trkpt lat="36.933363825863466" lon="14.979112800629284"><ele>547.0</ele><time>2026-04-18T13:15:43.999Z</time></trkpt><trkpt lat="36.933523579283424" lon="14.979059820939499"><ele>547.0</ele><time>2026-04-18T13:15:45Z</time></trkpt><trkpt lat="36.933684914730044" lon="14.979031539885206"><ele>547.0</ele><time>2026-04-18T13:15:46Z</time></trkpt><trkpt lat="36.933845909208465" lon="14.979012652803405"><ele>547.0</ele><time>2026-04-18T13:15:47Z</time></trkpt><trkpt lat="36.934008663243254" lon="14.979016344027102"><ele>547.0</ele><time>2026-04-18T13:15:48Z</time></trkpt><trkpt lat="36.93418118605989" lon="14.979044593550416"><ele>547.0</ele><time>2026-04-18T13:15:49Z</time></trkpt><trkpt lat="36.93436383330438" lon="14.979069437458248"><ele>547.0</ele><time>2026-04-18T13:15:50Z</time></trkpt><trkpt lat="36.934553379560576" lon="14.979086612056534"><ele>546.6666666666667</ele><time>2026-04-18T13:15:51Z</time></trkpt><trkpt lat="36.93474995246153" lon="14.979094059115589"><ele>546.3333333333334</ele><time>2026-04-18T13:15:52Z</time></trkpt><trkpt lat="36.934958097154" lon="14.979090654347807"><ele>546.0</ele><time>2026-04-18T13:15:53Z</time></trkpt><trkpt lat="36.93517016105641" lon="14.979072830300476"><ele>546.6666666666666</ele><time>2026-04-18T13:15:54Z</time></trkpt><trkpt lat="36.93536645153538" lon="14.97904697946664"><ele>547.3333333333333</ele><time>2026-04-18T13:15:55Z</time></trkpt><trkpt lat="36.93558009542821" lon="14.979050111449235"><ele>548.0</ele><time>2026-04-18T13:15:56Z</time></trkpt><trkpt lat="36.935789897845105" lon="14.979029401846505"><ele>549.0</ele><time>2026-04-18T13:15:57Z</time></trkpt><trkpt lat="36.93600638059268" lon="14.979009045521778"><ele>550.0</ele><time>2026-04-18T13:15:58Z</time></trkpt><trkpt lat="36.93621315939408" lon="14.978972826292395"><ele>551.0</ele><time>2026-04-18T13:15:59Z</time></trkpt><trkpt lat="36.93642364518425" lon="14.978963149987942"><ele>551.0</ele><time>2026-04-18T13:16:00Z</time></trkpt><trkpt lat="36.936634040993795" lon="14.97896185571085"><ele>551.0</ele><time>2026-04-18T13:16:01Z</time></trkpt><trkpt lat="36.93684407501984" lon="14.978973147427011"><ele>551.0</ele><time>2026-04-18T13:16:02Z</time></trkpt><trkpt lat="36.93705748958198" lon="14.978981800151143"><ele>550.6666666666666</ele><time>2026-04-18T13:16:03Z</time></trkpt><trkpt lat="36.93727604037011" lon="14.978993509217316"><ele>550.3333333333334</ele><time>2026-04-18T13:16:04Z</time></trkpt><trkpt lat="36.9374992314734" lon="14.979022684190516"><ele>550.0</ele><time>2026-04-18T13:16:05Z</time></trkpt><trkpt lat="36.937708115641286" lon="14.979031413220282"><ele>550.6666666666667</ele><time>2026-04-18T13:16:06Z</time></trkpt><trkpt lat="36.93791407436759" lon="14.979040721938036"><ele>551.3333333333334</ele><time>2026-04-18T13:16:07Z</time></trkpt><trkpt lat="36.938115032128785" lon="14.97905413968485"><ele>552.0</ele><time>2026-04-18T13:16:08Z</time></trkpt><trkpt lat="36.93831666410745" lon="14.979065597387493"><ele>552.6666666666666</ele><time>2026-04-18T13:16:09Z</time></trkpt><trkpt lat="36.938515883749645" lon="14.979076551829086"><ele>553.3333333333333</ele><time>2026-04-18T13:16:10Z</time></trkpt><trkpt lat="36.93871117625583" lon="14.979083521142854"><ele>554.0</ele><time>2026-04-18T13:16:11Z</time></trkpt><trkpt lat="36.93890473991741" lon="14.979090887017527"><ele>554.0</ele><time>2026-04-18T13:16:12Z</time></trkpt><trkpt lat="36.93907504497453" lon="14.979097367806881"><ele>554.0</ele><time>2026-04-18T13:16:13Z</time></trkpt><trkpt lat="36.9392183073832" lon="14.979087404122422"><ele>554.0</ele><time>2026-04-18T13:16:14Z</time></trkpt><trkpt lat="36.93933675622659" lon="14.979096749962002"><ele>554.0</ele><time>2026-04-18T13:16:15Z</time></trkpt><trkpt lat="36.9394261514844" lon="14.979102129732306"><ele>554.5</ele><time>2026-04-18T13:16:16Z</time></trkpt><trkpt lat="36.93950959716547" lon="14.979103693351032"><ele>555.0</ele><time>2026-04-18T13:16:18Z</time></trkpt><trkpt lat="36.93958036073212" lon="14.979107541454892"><ele>555.5</ele><time>2026-04-18T13:17:30.999Z</time></trkpt><trkpt lat="36.939643964094536" lon="14.979091472117055"><ele>556.0</ele><time>2026-04-18T13:17:35.999Z</time></trkpt><trkpt lat="36.93972336481316" lon="14.979085420921736"><ele>556.5</ele><time>2026-04-18T13:17:40.999Z</time></trkpt><trkpt lat="36.939789839523414" lon="14.979090900736882"><ele>557.0</ele><time>2026-04-18T13:17:44.999Z</time></trkpt><trkpt lat="36.939924934341725" lon="14.979096947498503"><ele>557.0</ele><time>2026-04-18T13:18:19Z</time></trkpt><trkpt lat="36.9400399983714" lon="14.979090201983864"><ele>557.0</ele><time>2026-04-18T13:18:21Z</time></trkpt><trkpt lat="36.94011079063152" lon="14.979086051856052"><ele>557.0</ele><time>2026-04-18T13:18:22Z</time></trkpt><trkpt lat="36.94018496918377" lon="14.979081703213557"><ele>557.0</ele><time>2026-04-18T13:18:23Z</time></trkpt><trkpt lat="36.94026338700028" lon="14.979077106032614"><ele>557.0</ele><time>2026-04-18T13:18:24Z</time></trkpt><trkpt lat="36.94034688307218" lon="14.979072211013388"><ele>557.0</ele><time>2026-04-18T13:18:25Z</time></trkpt><trkpt lat="36.94043046242432" lon="14.97906653969668"><ele>557.6666666666666</ele><time>2026-04-18T13:18:26Z</time></trkpt><trkpt lat="36.94051144185324" lon="14.979061318356417"><ele>558.3333333333333</ele><time>2026-04-18T13:18:27Z</time></trkpt><trkpt lat="36.940592895667855" lon="14.979054931171326"><ele>559.0</ele><time>2026-04-18T13:18:28Z</time></trkpt><trkpt lat="36.94068100540434" lon="14.979046995383897"><ele>559.6666666666666</ele><time>2026-04-18T13:18:29Z</time></trkpt><trkpt lat="36.94077155285899" lon="14.979038840039461"><ele>560.3333333333334</ele><time>2026-04-18T13:18:30Z</time></trkpt><trkpt lat="36.94087165745128" lon="14.979029358783656"><ele>561.0</ele><time>2026-04-18T13:18:31Z</time></trkpt><trkpt lat="36.940969196799315" lon="14.979015814480395"><ele>561.0</ele><time>2026-04-18T13:18:32Z</time></trkpt><trkpt lat="36.94106996401893" lon="14.978997132783299"><ele>561.0</ele><time>2026-04-18T13:18:33Z</time></trkpt><trkpt lat="36.941174775332954" lon="14.978975673695597"><ele>561.0</ele><time>2026-04-18T13:18:34Z</time></trkpt><trkpt lat="36.94127927861714" lon="14.978952733649015"><ele>561.0</ele><time>2026-04-18T13:18:35Z</time></trkpt><trkpt lat="36.94138798029653" lon="14.97892887200332"><ele>561.0</ele><time>2026-04-18T13:18:36Z</time></trkpt><trkpt lat="36.94149473183401" lon="14.978905438432328"><ele>561.0</ele><time>2026-04-18T13:18:37Z</time></trkpt><trkpt lat="36.941585786420845" lon="14.978885450569296"><ele>561.0</ele><time>2026-04-18T13:18:38Z</time></trkpt><trkpt lat="36.941669359817865" lon="14.978867104964442"><ele>561.0</ele><time>2026-04-18T13:18:39Z</time></trkpt><trkpt lat="36.941744553393754" lon="14.97885059884636"><ele>561.0</ele><time>2026-04-18T13:18:40Z</time></trkpt><trkpt lat="36.94181407438737" lon="14.978835337940348"><ele>561.0</ele><time>2026-04-18T13:18:41Z</time></trkpt><trkpt lat="36.94192535676854" lon="14.978810909786832"><ele>561.0</ele><time>2026-04-18T13:18:43Z</time></trkpt><trkpt lat="36.94192908740782" lon="14.978592812022637"><ele>561.1666666666666</ele><time>2026-04-18T13:18:47Z</time></trkpt><trkpt lat="36.941894594442644" lon="14.978514100999337"><ele>561.3333333333334</ele><time>2026-04-18T13:18:48Z</time></trkpt><trkpt lat="36.94185592223633" lon="14.978419295756598"><ele>561.5</ele><time>2026-04-18T13:18:49Z</time></trkpt><trkpt lat="36.941823001451425" lon="14.978323384201563"><ele>561.6666666666667</ele><time>2026-04-18T13:18:50Z</time></trkpt><trkpt lat="36.94179236897341" lon="14.978222126493575"><ele>561.8333333333334</ele><time>2026-04-18T13:18:51Z</time></trkpt><trkpt lat="36.94174561073991" lon="14.978108999473072"><ele>562.0</ele><time>2026-04-18T13:18:52Z</time></trkpt><trkpt lat="36.94170765208896" lon="14.978018800233142"><ele>562.1666666666667</ele><time>2026-04-18T13:18:53Z</time></trkpt><trkpt lat="36.94166648187863" lon="14.977947064324093"><ele>562.3333333333334</ele><time>2026-04-18T13:18:54Z</time></trkpt><trkpt lat="36.94161577568717" lon="14.97787317426967"><ele>562.5</ele><time>2026-04-18T13:18:55Z</time></trkpt><trkpt lat="36.94156592636448" lon="14.977785086249806"><ele>562.6666666666666</ele><time>2026-04-18T13:18:56Z</time></trkpt><trkpt lat="36.94151624836761" lon="14.977688150317345"><ele>562.8333333333333</ele><time>2026-04-18T13:18:57Z</time></trkpt><trkpt lat="36.941470089403786" lon="14.977584963177334"><ele>563.0</ele><time>2026-04-18T13:18:58Z</time></trkpt><trkpt lat="36.94141011724979" lon="14.977488232837505"><ele>563.3333333333333</ele><time>2026-04-18T13:18:59Z</time></trkpt><trkpt lat="36.94136346801126" lon="14.9774020149966"><ele>563.6666666666666</ele><time>2026-04-18T13:18:59.999Z</time></trkpt><trkpt lat="36.941318797586995" lon="14.977322702061477"><ele>564.0</ele><time>2026-04-18T13:19:00.999Z</time></trkpt><trkpt lat="36.94127650930094" lon="14.977246760530626"><ele>564.3333333333334</ele><time>2026-04-18T13:19:01.999Z</time></trkpt><trkpt lat="36.94123071615469" lon="14.97716259138135"><ele>564.6666666666667</ele><time>2026-04-18T13:19:02.999Z</time></trkpt><trkpt lat="36.94119549811983" lon="14.977072738234636"><ele>565.0</ele><time>2026-04-18T13:19:03.999Z</time></trkpt><trkpt lat="36.94115555543333" lon="14.976982064387467"><ele>565.0</ele><time>2026-04-18T13:19:04.999Z</time></trkpt><trkpt lat="36.94111904430093" lon="14.97689872723371"><ele>565.0</ele><time>2026-04-18T13:19:05.999Z</time></trkpt><trkpt lat="36.941084206256875" lon="14.976796704572823"><ele>565.0</ele><time>2026-04-18T13:19:06.999Z</time></trkpt><trkpt lat="36.941048631575434" lon="14.976708181086513"><ele>565.0</ele><time>2026-04-18T13:19:07.999Z</time></trkpt><trkpt lat="36.941019407541035" lon="14.976605901099875"><ele>565.0</ele><time>2026-04-18T13:19:08.999Z</time></trkpt><trkpt lat="36.94097774866468" lon="14.976508111495795"><ele>565.0</ele><time>2026-04-18T13:19:09.999Z</time></trkpt><trkpt lat="36.940923299170244" lon="14.976418002729122"><ele>563.4</ele><time>2026-04-18T13:19:10.999Z</time></trkpt><trkpt lat="36.94088042873574" lon="14.9763163042372"><ele>561.8</ele><time>2026-04-18T13:19:11.999Z</time></trkpt><trkpt lat="36.94083977028949" lon="14.97621299616597"><ele>560.2</ele><time>2026-04-18T13:19:12.999Z</time></trkpt><trkpt lat="36.9407951423421" lon="14.976105399805487"><ele>558.6</ele><time>2026-04-18T13:19:13.999Z</time></trkpt><trkpt lat="36.94075031209985" lon="14.975995600348027"><ele>557.0</ele><time>2026-04-18T13:19:14.999Z</time></trkpt><trkpt lat="36.94071174668493" lon="14.975888902396173"><ele>555.2</ele><time>2026-04-18T13:19:15.999Z</time></trkpt><trkpt lat="36.94069831800285" lon="14.975767700133384"><ele>553.4000000000001</ele><time>2026-04-18T13:19:16.999Z</time></trkpt><trkpt lat="36.94066247655804" lon="14.975640817672785"><ele>551.5999999999999</ele><time>2026-04-18T13:19:17.999Z</time></trkpt><trkpt lat="36.94061641968571" lon="14.97551758602715"><ele>549.8</ele><time>2026-04-18T13:19:18.999Z</time></trkpt><trkpt lat="36.94057153369688" lon="14.975387763342725"><ele>548.0</ele><time>2026-04-18T13:19:19.999Z</time></trkpt><trkpt lat="36.94053883539648" lon="14.975249785117056"><ele>548.0</ele><time>2026-04-18T13:19:20.999Z</time></trkpt><trkpt lat="36.94051709093221" lon="14.9751172459718"><ele>548.0</ele><time>2026-04-18T13:19:21.999Z</time></trkpt><trkpt lat="36.94052435280635" lon="14.975004998953162"><ele>548.0</ele><time>2026-04-18T13:19:22.999Z</time></trkpt><trkpt lat="36.94054365324613" lon="14.974871062505622"><ele>548.0</ele><time>2026-04-18T13:19:23.999Z</time></trkpt><trkpt lat="36.94054344231337" lon="14.974710893471"><ele>548.0</ele><time>2026-04-18T13:19:24.999Z</time></trkpt><trkpt lat="36.940521451508076" lon="14.97454733119555"><ele>545.5</ele><time>2026-04-18T13:19:25.999Z</time></trkpt><trkpt lat="36.940473023694956" lon="14.974387696671347"><ele>543.0</ele><time>2026-04-18T13:19:26.999Z</time></trkpt><trkpt lat="36.94045020260019" lon="14.974212060016953"><ele>540.5</ele><time>2026-04-18T13:19:27.999Z</time></trkpt><trkpt lat="36.94040175832042" lon="14.97405651419043"><ele>538.0</ele><time>2026-04-18T13:19:28.999Z</time></trkpt><trkpt lat="36.94038500802712" lon="14.973893736667307"><ele>535.6</ele><time>2026-04-18T13:19:29.999Z</time></trkpt><trkpt lat="36.94035848467467" lon="14.973752241362481"><ele>533.1999999999999</ele><time>2026-04-18T13:19:30.999Z</time></trkpt><trkpt lat="36.9403331388563" lon="14.973617357154751"><ele>530.8</ele><time>2026-04-18T13:19:31.999Z</time></trkpt><trkpt lat="36.94031264784876" lon="14.973485922557062"><ele>528.4</ele><time>2026-04-18T13:19:32.999Z</time></trkpt><trkpt lat="36.94029767349563" lon="14.9733537964097"><ele>526.0</ele><time>2026-04-18T13:19:33.999Z</time></trkpt><trkpt lat="36.94029296882709" lon="14.97321493825395"><ele>524.25</ele><time>2026-04-18T13:19:34.999Z</time></trkpt><trkpt lat="36.94029817365511" lon="14.973073112754356"><ele>522.5</ele><time>2026-04-18T13:19:35.999Z</time></trkpt><trkpt lat="36.94031976411141" lon="14.972941604278752"><ele>520.75</ele><time>2026-04-18T13:19:36.999Z</time></trkpt><trkpt lat="36.9403480457563" lon="14.972792840284466"><ele>519.0</ele><time>2026-04-18T13:19:37.999Z</time></trkpt><trkpt lat="36.940378647469565" lon="14.972642383689378"><ele>517.25</ele><time>2026-04-18T13:19:38.999Z</time></trkpt><trkpt lat="36.94040031643858" lon="14.97248926576013"><ele>515.5</ele><time>2026-04-18T13:19:39.999Z</time></trkpt><trkpt lat="36.94040528047901" lon="14.972337182578851"><ele>513.75</ele><time>2026-04-18T13:19:40.999Z</time></trkpt><trkpt lat="36.94039904455923" lon="14.972173064425634"><ele>512.0</ele><time>2026-04-18T13:19:41.999Z</time></trkpt><trkpt lat="36.940386040022354" lon="14.972012777120392"><ele>512.0</ele><time>2026-04-18T13:19:42.999Z</time></trkpt><trkpt lat="36.94038562771438" lon="14.971846141901889"><ele>512.0</ele><time>2026-04-18T13:19:43.999Z</time></trkpt><trkpt lat="36.94039108921904" lon="14.971663509272583"><ele>512.0</ele><time>2026-04-18T13:19:44.999Z</time></trkpt><trkpt lat="36.940398697233064" lon="14.971483446527387"><ele>512.0</ele><time>2026-04-18T13:19:45.999Z</time></trkpt><trkpt lat="36.94040791629382" lon="14.971304257286269"><ele>511.0</ele><time>2026-04-18T13:19:46.999Z</time></trkpt><trkpt lat="36.94042025946531" lon="14.971149331278781"><ele>510.0</ele><time>2026-04-18T13:19:47.999Z</time></trkpt><trkpt lat="36.94044210012499" lon="14.970988749042515"><ele>509.0</ele><time>2026-04-18T13:19:48.999Z</time></trkpt><trkpt lat="36.94047625231957" lon="14.970826118670807"><ele>508.0</ele><time>2026-04-18T13:19:49.999Z</time></trkpt><trkpt lat="36.94051040474211" lon="14.970652736304443"><ele>507.5</ele><time>2026-04-18T13:19:50.999Z</time></trkpt><trkpt lat="36.940541875404" lon="14.970478480275176"><ele>507.0</ele><time>2026-04-18T13:19:51.999Z</time></trkpt><trkpt lat="36.94055243582681" lon="14.970294267803393"><ele>506.5</ele><time>2026-04-18T13:19:52.999Z</time></trkpt><trkpt lat="36.94057642987028" lon="14.970105333180484"><ele>506.0</ele><time>2026-04-18T13:19:53.999Z</time></trkpt><trkpt lat="36.940618821748515" lon="14.969916764709604"><ele>506.0</ele><time>2026-04-18T13:19:54.999Z</time></trkpt><trkpt lat="36.94063928440566" lon="14.969729044863675"><ele>506.0</ele><time>2026-04-18T13:19:55.999Z</time></trkpt><trkpt lat="36.94065994995715" lon="14.969542683909463"><ele>506.0</ele><time>2026-04-18T13:19:57Z</time></trkpt><trkpt lat="36.940685983608724" lon="14.969358572516384"><ele>506.4</ele><time>2026-04-18T13:19:58.001Z</time></trkpt><trkpt lat="36.94071270833281" lon="14.969188550937835"><ele>506.8</ele><time>2026-04-18T13:19:59Z</time></trkpt><trkpt lat="36.940745877887224" lon="14.96903788761372"><ele>507.19999999999993</ele><time>2026-04-18T13:20:00Z</time></trkpt><trkpt lat="36.94076994476725" lon="14.968910607162355"><ele>507.59999999999997</ele><time>2026-04-18T13:20:01Z</time></trkpt><trkpt lat="36.94081585384555" lon="14.96883331833957"><ele>508.0</ele><time>2026-04-18T13:20:02Z</time></trkpt><trkpt lat="36.94087961665652" lon="14.968769447908667"><ele>508.4</ele><time>2026-04-18T13:20:03Z</time></trkpt><trkpt lat="36.94094181099993" lon="14.968683781820785"><ele>508.79999999999995</ele><time>2026-04-18T13:20:04Z</time></trkpt><trkpt lat="36.940999580943085" lon="14.968591912353705"><ele>509.2</ele><time>2026-04-18T13:20:05Z</time></trkpt><trkpt lat="36.941052021654706" lon="14.968481510434229"><ele>509.6</ele><time>2026-04-18T13:20:06Z</time></trkpt><trkpt lat="36.94109731506008" lon="14.968367823733518"><ele>510.0</ele><time>2026-04-18T13:20:07Z</time></trkpt><trkpt lat="36.94113805666734" lon="14.96823927402902"><ele>510.0</ele><time>2026-04-18T13:20:08Z</time></trkpt><trkpt lat="36.94117588628218" lon="14.968112757141657"><ele>510.0</ele><time>2026-04-18T13:20:09Z</time></trkpt><trkpt lat="36.94120944989506" lon="14.967981854791345"><ele>510.0</ele><time>2026-04-18T13:20:10Z</time></trkpt><trkpt lat="36.941226254193914" lon="14.96783911196959"><ele>510.0</ele><time>2026-04-18T13:20:11Z</time></trkpt><trkpt lat="36.94126024190676" lon="14.967702317069364"><ele>510.0</ele><time>2026-04-18T13:20:12Z</time></trkpt><trkpt lat="36.941307815955064" lon="14.967565771909738"><ele>510.6</ele><time>2026-04-18T13:20:13Z</time></trkpt><trkpt lat="36.941342168525296" lon="14.967432524059637"><ele>511.2</ele><time>2026-04-18T13:20:14Z</time></trkpt><trkpt lat="36.941378414475864" lon="14.967303964862943"><ele>511.79999999999995</ele><time>2026-04-18T13:20:15Z</time></trkpt><trkpt lat="36.9414205555309" lon="14.96717825657435"><ele>512.4</ele><time>2026-04-18T13:20:16Z</time></trkpt><trkpt lat="36.941462903304775" lon="14.967051648329727"><ele>513.0</ele><time>2026-04-18T13:20:17Z</time></trkpt><trkpt lat="36.941506901927426" lon="14.966920104719701"><ele>513.0</ele><time>2026-04-18T13:20:18Z</time></trkpt><trkpt lat="36.941549258861556" lon="14.966788779793774"><ele>513.0</ele><time>2026-04-18T13:20:19Z</time></trkpt><trkpt lat="36.94157420057496" lon="14.966647132001176"><ele>513.0</ele><time>2026-04-18T13:20:20Z</time></trkpt><trkpt lat="36.94161329026956" lon="14.966508895116553"><ele>513.0</ele><time>2026-04-18T13:20:21Z</time></trkpt><trkpt lat="36.94159748666997" lon="14.966367386962885"><ele>512.0</ele><time>2026-04-18T13:20:22Z</time></trkpt><trkpt lat="36.94159080497151" lon="14.966217788536076"><ele>510.99999999999994</ele><time>2026-04-18T13:20:23Z</time></trkpt><trkpt lat="36.94160804939615" lon="14.966090775175628"><ele>509.99999999999994</ele><time>2026-04-18T13:20:24Z</time></trkpt><trkpt lat="36.9415924765842" lon="14.965969885726656"><ele>509.0</ele><time>2026-04-18T13:20:25Z</time></trkpt><trkpt lat="36.94158987098804" lon="14.965848581865522"><ele>508.0</ele><time>2026-04-18T13:20:26Z</time></trkpt><trkpt lat="36.94158872801336" lon="14.965727054113668"><ele>507.59999999999997</ele><time>2026-04-18T13:20:27Z</time></trkpt><trkpt lat="36.94157323599507" lon="14.965589816916312"><ele>507.19999999999993</ele><time>2026-04-18T13:20:28Z</time></trkpt><trkpt lat="36.941551718916244" lon="14.965466375791316"><ele>506.8</ele><time>2026-04-18T13:20:29Z</time></trkpt><trkpt lat="36.941512928207146" lon="14.965372136094448"><ele>506.4</ele><time>2026-04-18T13:20:30Z</time></trkpt><trkpt lat="36.941463970763515" lon="14.965280333096668"><ele>506.0</ele><time>2026-04-18T13:20:31Z</time></trkpt><trkpt lat="36.94141103144758" lon="14.965169880922385"><ele>506.0</ele><time>2026-04-18T13:20:32Z</time></trkpt><trkpt lat="36.94136154538627" lon="14.96505143319961"><ele>506.0</ele><time>2026-04-18T13:20:33Z</time></trkpt><trkpt lat="36.94134266505257" lon="14.964933043819276"><ele>506.0</ele><time>2026-04-18T13:20:34Z</time></trkpt><trkpt lat="36.94133892699361" lon="14.964832767123099"><ele>506.0</ele><time>2026-04-18T13:20:35Z</time></trkpt><trkpt lat="36.941338907846145" lon="14.964724544345355"><ele>506.0</ele><time>2026-04-18T13:20:36Z</time></trkpt><trkpt lat="36.94133664954997" lon="14.96460062241538"><ele>504.4</ele><time>2026-04-18T13:20:37Z</time></trkpt><trkpt lat="36.94133301951234" lon="14.964466516486409"><ele>502.8</ele><time>2026-04-18T13:20:38Z</time></trkpt><trkpt lat="36.9413131360143" lon="14.9643242878008"><ele>501.19999999999993</ele><time>2026-04-18T13:20:39Z</time></trkpt><trkpt lat="36.9412727369896" lon="14.96421822684387"><ele>499.59999999999997</ele><time>2026-04-18T13:20:40Z</time></trkpt><trkpt lat="36.94124305425649" lon="14.964101004060371"><ele>498.0</ele><time>2026-04-18T13:20:41Z</time></trkpt><trkpt lat="36.94119925498049" lon="14.963992054677673"><ele>495.8333333333333</ele><time>2026-04-18T13:20:42Z</time></trkpt><trkpt lat="36.941158839800224" lon="14.963888506727908"><ele>493.66666666666663</ele><time>2026-04-18T13:20:43Z</time></trkpt><trkpt lat="36.94111614482823" lon="14.963794693156672"><ele>491.5</ele><time>2026-04-18T13:20:44Z</time></trkpt><trkpt lat="36.94106893842362" lon="14.963725713922566"><ele>489.3333333333333</ele><time>2026-04-18T13:20:45Z</time></trkpt><trkpt lat="36.941005593975845" lon="14.963673132750273"><ele>487.16666666666663</ele><time>2026-04-18T13:20:46Z</time></trkpt><trkpt lat="36.940925640588326" lon="14.96363122792964"><ele>485.0</ele><time>2026-04-18T13:20:47Z</time></trkpt><trkpt lat="36.940842396051366" lon="14.963585403169027"><ele>488.8</ele><time>2026-04-18T13:20:48Z</time></trkpt><trkpt lat="36.94075886596538" lon="14.963525728309353"><ele>492.6</ele><time>2026-04-18T13:20:49Z</time></trkpt><trkpt lat="36.94067814058802" lon="14.9634625726612"><ele>496.4</ele><time>2026-04-18T13:20:50Z</time></trkpt><trkpt lat="36.940612539232056" lon="14.963402674264296"><ele>500.2</ele><time>2026-04-18T13:20:51Z</time></trkpt><trkpt lat="36.94055768415346" lon="14.963303839697053"><ele>504.0</ele><time>2026-04-18T13:20:52Z</time></trkpt><trkpt lat="36.94049976766254" lon="14.9632146693458"><ele>504.0</ele><time>2026-04-18T13:20:53Z</time></trkpt><trkpt lat="36.94042797226032" lon="14.963103334845433"><ele>504.0</ele><time>2026-04-18T13:20:54Z</time></trkpt><trkpt lat="36.9403612516843" lon="14.963000940547811"><ele>504.0</ele><time>2026-04-18T13:20:55Z</time></trkpt><trkpt lat="36.94028333277313" lon="14.962912738984889"><ele>504.0</ele><time>2026-04-18T13:20:56Z</time></trkpt><trkpt lat="36.940227499101105" lon="14.962795673930481"><ele>504.0</ele><time>2026-04-18T13:20:57Z</time></trkpt><trkpt lat="36.94015616905866" lon="14.96268854704384"><ele>504.0</ele><time>2026-04-18T13:20:58Z</time></trkpt><trkpt lat="36.940066853664646" lon="14.962597320946157"><ele>504.0</ele><time>2026-04-18T13:20:59Z</time></trkpt><trkpt lat="36.940008659811305" lon="14.96248419029449"><ele>504.0</ele><time>2026-04-18T13:20:59.999Z</time></trkpt><trkpt lat="36.93995972536902" lon="14.962389270390371"><ele>504.0</ele><time>2026-04-18T13:21:00.999Z</time></trkpt><trkpt lat="36.93993323787647" lon="14.96227028717182"><ele>504.0</ele><time>2026-04-18T13:21:01.999Z</time></trkpt><trkpt lat="36.93991679022276" lon="14.962149499742065"><ele>503.0</ele><time>2026-04-18T13:21:02.999Z</time></trkpt><trkpt lat="36.9399002602642" lon="14.962021153226354"><ele>502.0</ele><time>2026-04-18T13:21:03.999Z</time></trkpt><trkpt lat="36.93987993941867" lon="14.96189584199374"><ele>501.0</ele><time>2026-04-18T13:21:04.999Z</time></trkpt><trkpt lat="36.93985318928107" lon="14.961779523109433"><ele>500.0</ele><time>2026-04-18T13:21:05.999Z</time></trkpt><trkpt lat="36.93982270613747" lon="14.961693505876886"><ele>499.0</ele><time>2026-04-18T13:21:06.999Z</time></trkpt><trkpt lat="36.93975904471989" lon="14.961617716874947"><ele>495.4</ele><time>2026-04-18T13:21:07.999Z</time></trkpt><trkpt lat="36.93969741529509" lon="14.961541281018704"><ele>491.79999999999995</ele><time>2026-04-18T13:21:08.999Z</time></trkpt><trkpt lat="36.939638886955464" lon="14.961435972030484"><ele>488.20000000000005</ele><time>2026-04-18T13:21:09.999Z</time></trkpt><trkpt lat="36.93958180847996" lon="14.961334041422592"><ele>484.6</ele><time>2026-04-18T13:21:10.999Z</time></trkpt><trkpt lat="36.939531409915105" lon="14.961239026137136"><ele>481.0</ele><time>2026-04-18T13:21:11.999Z</time></trkpt><trkpt lat="36.93947486410119" lon="14.961141025103247"><ele>481.00000000000006</ele><time>2026-04-18T13:21:12.999Z</time></trkpt><trkpt lat="36.93941307982269" lon="14.961055609601178"><ele>481.0</ele><time>2026-04-18T13:21:13.999Z</time></trkpt><trkpt lat="36.939357526621606" lon="14.960962465781643"><ele>481.0</ele><time>2026-04-18T13:21:14.999Z</time></trkpt><trkpt lat="36.939310284722836" lon="14.960881513413199"><ele>481.0</ele><time>2026-04-18T13:21:15.999Z</time></trkpt><trkpt lat="36.939259071104836" lon="14.960802335434629"><ele>481.00000000000006</ele><time>2026-04-18T13:21:16.999Z</time></trkpt><trkpt lat="36.93919606577373" lon="14.960728515727334"><ele>481.0</ele><time>2026-04-18T13:21:17.999Z</time></trkpt><trkpt lat="36.9391338180305" lon="14.960660293324167"><ele>480.71428571428567</ele><time>2026-04-18T13:21:18.999Z</time></trkpt><trkpt lat="36.93910893145939" lon="14.960573588683408"><ele>480.42857142857144</ele><time>2026-04-18T13:21:19.999Z</time></trkpt><trkpt lat="36.93907334607653" lon="14.960500637745659"><ele>480.1428571428571</ele><time>2026-04-18T13:21:20.999Z</time></trkpt><trkpt lat="36.93904069907962" lon="14.960432768680937"><ele>479.85714285714283</ele><time>2026-04-18T13:21:21.999Z</time></trkpt><trkpt lat="36.93898460670844" lon="14.960344786318917"><ele>479.57142857142856</ele><time>2026-04-18T13:21:23.999Z</time></trkpt><trkpt lat="36.93894852848813" lon="14.960266361446129"><ele>479.2857142857143</ele><time>2026-04-18T13:21:26.999Z</time></trkpt><trkpt lat="36.93892205611586" lon="14.960173381432739"><ele>479.0</ele><time>2026-04-18T13:21:46.999Z</time></trkpt><trkpt lat="36.938887607030715" lon="14.960090754820609"><ele>476.2</ele><time>2026-04-18T13:21:47.999Z</time></trkpt><trkpt lat="36.93884786902332" lon="14.960013996964099"><ele>473.4</ele><time>2026-04-18T13:21:48.999Z</time></trkpt><trkpt lat="36.93877255667982" lon="14.95988218442181"><ele>470.6</ele><time>2026-04-18T13:21:50.999Z</time></trkpt><trkpt lat="36.93872301363182" lon="14.959789878692433"><ele>467.8</ele><time>2026-04-18T13:21:51.999Z</time></trkpt><trkpt lat="36.93866959262505" lon="14.959660557509805"><ele>465.0</ele><time>2026-04-18T13:21:52.999Z</time></trkpt><trkpt lat="36.938626310585676" lon="14.959513605001018"><ele>465.0</ele><time>2026-04-18T13:21:53.999Z</time></trkpt><trkpt lat="36.93858018635789" lon="14.959391136349037"><ele>465.0</ele><time>2026-04-18T13:21:54.999Z</time></trkpt><trkpt lat="36.93854840180995" lon="14.959292464166285"><ele>465.0</ele><time>2026-04-18T13:21:55.999Z</time></trkpt><trkpt lat="36.93852090346661" lon="14.959192847258103"><ele>465.0</ele><time>2026-04-18T13:21:56.999Z</time></trkpt><trkpt lat="36.93850098941794" lon="14.959095861613552"><ele>465.0</ele><time>2026-04-18T13:21:57.999Z</time></trkpt><trkpt lat="36.93849397351262" lon="14.95899824257243"><ele>465.0</ele><time>2026-04-18T13:21:58.999Z</time></trkpt><trkpt lat="36.9384858389951" lon="14.95887940540866"><ele>460.5</ele><time>2026-04-18T13:21:59.999Z</time></trkpt><trkpt lat="36.938482059023066" lon="14.95877277068004"><ele>456.0</ele><time>2026-04-18T13:22:00.999Z</time></trkpt><trkpt lat="36.9384789144827" lon="14.958657454361662"><ele>451.5</ele><time>2026-04-18T13:22:01.999Z</time></trkpt><trkpt lat="36.938472380078" lon="14.95854675425702"><ele>447.0</ele><time>2026-04-18T13:22:03Z</time></trkpt><trkpt lat="36.93846002015352" lon="14.958439231477747"><ele>442.5</ele><time>2026-04-18T13:22:04Z</time></trkpt><trkpt lat="36.938430392929966" lon="14.958351545004342"><ele>438.0</ele><time>2026-04-18T13:22:05Z</time></trkpt><trkpt lat="36.93841928508249" lon="14.958266704283558"><ele>442.1666666666667</ele><time>2026-04-18T13:22:06Z</time></trkpt><trkpt lat="36.938374325038424" lon="14.958147456532446"><ele>446.33333333333337</ele><time>2026-04-18T13:22:08Z</time></trkpt><trkpt lat="36.9383016912112" lon="14.958174779553742"><ele>450.5</ele><time>2026-04-18T13:22:10Z</time></trkpt><trkpt lat="36.93824030379478" lon="14.958268863830758"><ele>454.6666666666667</ele><time>2026-04-18T13:22:13Z</time></trkpt><trkpt lat="36.93823003719601" lon="14.958380446308942"><ele>458.83333333333337</ele><time>2026-04-18T13:22:14Z</time></trkpt><trkpt lat="36.93821452736112" lon="14.95846775766734"><ele>463.0</ele><time>2026-04-18T13:22:15Z</time></trkpt><trkpt lat="36.93819693421395" lon="14.958554145714466"><ele>463.6666666666667</ele><time>2026-04-18T13:22:16Z</time></trkpt><trkpt lat="36.938170466523104" lon="14.958626883950798"><ele>464.33333333333337</ele><time>2026-04-18T13:22:17Z</time></trkpt><trkpt lat="36.93813821090109" lon="14.958709942614858"><ele>465.0</ele><time>2026-04-18T13:22:18Z</time></trkpt><trkpt lat="36.93813389599625" lon="14.95878964351645"><ele>465.66666666666663</ele><time>2026-04-18T13:22:19Z</time></trkpt><trkpt lat="36.93812288886874" lon="14.958897690733176"><ele>466.3333333333333</ele><time>2026-04-18T13:22:20Z</time></trkpt><trkpt lat="36.93812242923863" lon="14.95902102796291"><ele>467.0</ele><time>2026-04-18T13:22:21Z</time></trkpt><trkpt lat="36.938122031002564" lon="14.959138907019723"><ele>464.8</ele><time>2026-04-18T13:22:22Z</time></trkpt><trkpt lat="36.938124715828785" lon="14.959270269629659"><ele>462.6</ele><time>2026-04-18T13:22:23Z</time></trkpt><trkpt lat="36.93812830663401" lon="14.959387961659628"><ele>460.40000000000003</ele><time>2026-04-18T13:22:24Z</time></trkpt><trkpt lat="36.93813615747136" lon="14.959512410862821"><ele>458.20000000000005</ele><time>2026-04-18T13:22:25Z</time></trkpt><trkpt lat="36.93814677963038" lon="14.959615366940229"><ele>456.0</ele><time>2026-04-18T13:22:26Z</time></trkpt><trkpt lat="36.938160828056" lon="14.959722822252594"><ele>456.0</ele><time>2026-04-18T13:22:27Z</time></trkpt><trkpt lat="36.93817963158702" lon="14.959834848278513"><ele>456.0</ele><time>2026-04-18T13:22:28Z</time></trkpt><trkpt lat="36.93820441002745" lon="14.959939522034748"><ele>456.0</ele><time>2026-04-18T13:22:29Z</time></trkpt><trkpt lat="36.93822308237727" lon="14.960018421189838"><ele>456.0</ele><time>2026-04-18T13:22:30Z</time></trkpt><trkpt lat="36.93823596487635" lon="14.96013931745942"><ele>456.0</ele><time>2026-04-18T13:22:32Z</time></trkpt><trkpt lat="36.93821928519682" lon="14.96025186962523"><ele>456.0</ele><time>2026-04-18T13:22:34Z</time></trkpt><trkpt lat="36.93813776096177" lon="14.960251733896577"><ele>456.0</ele><time>2026-04-18T13:22:36Z</time></trkpt><trkpt lat="36.93810017816774" lon="14.960167038289972"><ele>456.0</ele><time>2026-04-18T13:22:37Z</time></trkpt><trkpt lat="36.938117843677404" lon="14.960070882737835"><ele>456.0</ele><time>2026-04-18T13:22:38Z</time></trkpt><trkpt lat="36.93810974386426" lon="14.959968762547955"><ele>456.0</ele><time>2026-04-18T13:22:39Z</time></trkpt><trkpt lat="36.93806550910075" lon="14.95984570417903"><ele>456.0</ele><time>2026-04-18T13:22:40Z</time></trkpt><trkpt lat="36.93803704058285" lon="14.959728425501652"><ele>456.0</ele><time>2026-04-18T13:22:41Z</time></trkpt><trkpt lat="36.93799112640607" lon="14.9596297957311"><ele>456.0</ele><time>2026-04-18T13:22:42Z</time></trkpt><trkpt lat="36.93794097277818" lon="14.95953369026367"><ele>456.0</ele><time>2026-04-18T13:22:43Z</time></trkpt><trkpt lat="36.937915186904824" lon="14.959436903479116"><ele>456.0</ele><time>2026-04-18T13:22:44Z</time></trkpt><trkpt lat="36.93788451935297" lon="14.959354349783322"><ele>456.0</ele><time>2026-04-18T13:22:45Z</time></trkpt><trkpt lat="36.93785057003866" lon="14.959262961850715"><ele>456.0</ele><time>2026-04-18T13:22:46Z</time></trkpt><trkpt lat="36.93781980412448" lon="14.959180143273604"><ele>456.0</ele><time>2026-04-18T13:22:47Z</time></trkpt><trkpt lat="36.93778526435694" lon="14.959087165943108"><ele>457.8333333333333</ele><time>2026-04-18T13:22:48Z</time></trkpt><trkpt lat="36.93773449383517" lon="14.958996038266266"><ele>459.66666666666663</ele><time>2026-04-18T13:22:49Z</time></trkpt><trkpt lat="36.9376938738303" lon="14.958896980627602"><ele>461.5</ele><time>2026-04-18T13:22:50Z</time></trkpt><trkpt lat="36.93767330182527" lon="14.958803553149727"><ele>463.3333333333333</ele><time>2026-04-18T13:22:51Z</time></trkpt><trkpt lat="36.93763996244584" lon="14.958715916664632"><ele>465.16666666666663</ele><time>2026-04-18T13:22:52Z</time></trkpt><trkpt lat="36.93760751078481" lon="14.958632185851693"><ele>467.0</ele><time>2026-04-18T13:22:53Z</time></trkpt><trkpt lat="36.937565017973185" lon="14.958560511923702"><ele>461.4285714285714</ele><time>2026-04-18T13:22:54Z</time></trkpt><trkpt lat="36.93753204248063" lon="14.958465029161198"><ele>455.85714285714283</ele><time>2026-04-18T13:22:55Z</time></trkpt><trkpt lat="36.937458006383665" lon="14.958415062644882"><ele>450.2857142857143</ele><time>2026-04-18T13:22:56Z</time></trkpt><trkpt lat="36.93740652867117" lon="14.958348156582494"><ele>444.71428571428567</ele><time>2026-04-18T13:22:57Z</time></trkpt><trkpt lat="36.937351374841604" lon="14.958295044206892"><ele>439.1428571428571</ele><time>2026-04-18T13:22:58Z</time></trkpt><trkpt lat="36.93730184811129" lon="14.958245195693355"><ele>433.5714285714286</ele><time>2026-04-18T13:22:59Z</time></trkpt><trkpt lat="36.937244056037464" lon="14.958203076365562"><ele>428.0</ele><time>2026-04-18T13:23:00Z</time></trkpt><trkpt lat="36.937174880260315" lon="14.958152504823813"><ele>427.99999999999994</ele><time>2026-04-18T13:23:00.999Z</time></trkpt><trkpt lat="36.9371003187753" lon="14.958103611633245"><ele>428.0</ele><time>2026-04-18T13:23:01.999Z</time></trkpt><trkpt lat="36.93703777347702" lon="14.958054153861575"><ele>428.0</ele><time>2026-04-18T13:23:02.999Z</time></trkpt><trkpt lat="36.936971567916004" lon="14.958009136038072"><ele>428.0</ele><time>2026-04-18T13:23:03.999Z</time></trkpt><trkpt lat="36.93690857060413" lon="14.957961406737066"><ele>427.99999999999994</ele><time>2026-04-18T13:23:04.999Z</time></trkpt><trkpt lat="36.936852575268894" lon="14.95791374820702"><ele>428.0</ele><time>2026-04-18T13:23:05.999Z</time></trkpt><trkpt lat="36.93680709052226" lon="14.957839641314186"><ele>422.4</ele><time>2026-04-18T13:23:06.999Z</time></trkpt><trkpt lat="36.93671829753689" lon="14.957723791417495"><ele>416.79999999999995</ele><time>2026-04-18T13:23:08.999Z</time></trkpt><trkpt lat="36.936657598305274" lon="14.957666611792389"><ele>411.2</ele><time>2026-04-18T13:23:09.999Z</time></trkpt><trkpt lat="36.93660216327096" lon="14.957586836740203"><ele>405.6</ele><time>2026-04-18T13:23:10.999Z</time></trkpt><trkpt lat="36.93654959465655" lon="14.957498902177932"><ele>400.0</ele><time>2026-04-18T13:23:11.999Z</time></trkpt><trkpt lat="36.93649111815498" lon="14.957413561464884"><ele>400.00000000000006</ele><time>2026-04-18T13:23:12.999Z</time></trkpt><trkpt lat="36.93644545163411" lon="14.95733217998701"><ele>400.0</ele><time>2026-04-18T13:23:13.999Z</time></trkpt><trkpt lat="36.936426745473646" lon="14.95724504592672"><ele>400.0</ele><time>2026-04-18T13:23:14.999Z</time></trkpt><trkpt lat="36.93639129037173" lon="14.957178291366162"><ele>400.0</ele><time>2026-04-18T13:23:15.999Z</time></trkpt><trkpt lat="36.936343227027606" lon="14.957118066742975"><ele>400.0</ele><time>2026-04-18T13:23:16.999Z</time></trkpt><trkpt lat="36.93628056159126" lon="14.957073149156853"><ele>400.00000000000006</ele><time>2026-04-18T13:23:17.999Z</time></trkpt><trkpt lat="36.93626900270244" lon="14.956978224964532"><ele>400.0</ele><time>2026-04-18T13:23:18.999Z</time></trkpt><trkpt lat="36.93623732064253" lon="14.956882648855737"><ele>400.00000000000006</ele><time>2026-04-18T13:23:19.999Z</time></trkpt><trkpt lat="36.93620289480017" lon="14.956778794690376"><ele>400.0</ele><time>2026-04-18T13:23:20.999Z</time></trkpt><trkpt lat="36.93616420225935" lon="14.956661654671054"><ele>400.0</ele><time>2026-04-18T13:23:21.999Z</time></trkpt><trkpt lat="36.936138493553244" lon="14.956553416642707"><ele>400.0</ele><time>2026-04-18T13:23:22.999Z</time></trkpt><trkpt lat="36.93611928347314" lon="14.956450394815567"><ele>400.00000000000006</ele><time>2026-04-18T13:23:23.999Z</time></trkpt><trkpt lat="36.93610097870066" lon="14.956348731600253"><ele>400.0</ele><time>2026-04-18T13:23:24.999Z</time></trkpt><trkpt lat="36.93608062346208" lon="14.956248792732389"><ele>399.83333333333337</ele><time>2026-04-18T13:23:25.999Z</time></trkpt><trkpt lat="36.93605510315886" lon="14.956153671072402"><ele>399.6666666666667</ele><time>2026-04-18T13:23:26.999Z</time></trkpt><trkpt lat="36.93603285135667" lon="14.95605117474362"><ele>399.5</ele><time>2026-04-18T13:23:27.999Z</time></trkpt><trkpt lat="36.93600256703729" lon="14.955951856185575"><ele>399.33333333333337</ele><time>2026-04-18T13:23:28.999Z</time></trkpt><trkpt lat="36.93597097307889" lon="14.95584794362883"><ele>399.1666666666667</ele><time>2026-04-18T13:23:29.999Z</time></trkpt><trkpt lat="36.935941259965524" lon="14.95574702707445"><ele>399.0</ele><time>2026-04-18T13:23:30.999Z</time></trkpt><trkpt lat="36.935914108107575" lon="14.955654492044495"><ele>395.0</ele><time>2026-04-18T13:23:31.999Z</time></trkpt><trkpt lat="36.935880624511036" lon="14.955560323559716"><ele>391.0</ele><time>2026-04-18T13:23:32.999Z</time></trkpt><trkpt lat="36.93584983540011" lon="14.955463333332693"><ele>387.0</ele><time>2026-04-18T13:23:33.999Z</time></trkpt><trkpt lat="36.935820621083664" lon="14.955365488769912"><ele>383.0</ele><time>2026-04-18T13:23:34.999Z</time></trkpt><trkpt lat="36.935809867052335" lon="14.955267517097088"><ele>379.0</ele><time>2026-04-18T13:23:35.999Z</time></trkpt><trkpt lat="36.93578592984843" lon="14.955181917541564"><ele>375.0</ele><time>2026-04-18T13:23:36.999Z</time></trkpt><trkpt lat="36.935761409351535" lon="14.955100521799734"><ele>373.8333333333333</ele><time>2026-04-18T13:23:37.999Z</time></trkpt><trkpt lat="36.93572253401697" lon="14.955035372161486"><ele>372.6666666666667</ele><time>2026-04-18T13:23:38.999Z</time></trkpt><trkpt lat="36.93569099678847" lon="14.954944431959161"><ele>371.5</ele><time>2026-04-18T13:23:39.999Z</time></trkpt><trkpt lat="36.93565797798809" lon="14.954846442740127"><ele>370.33333333333337</ele><time>2026-04-18T13:23:40.999Z</time></trkpt><trkpt lat="36.93564859428127" lon="14.954746229272471"><ele>369.1666666666667</ele><time>2026-04-18T13:23:41.999Z</time></trkpt><trkpt lat="36.935625952313785" lon="14.95464830236824"><ele>368.0</ele><time>2026-04-18T13:23:42.999Z</time></trkpt><trkpt lat="36.935603274033284" lon="14.954550796182023"><ele>368.0</ele><time>2026-04-18T13:23:43.999Z</time></trkpt><trkpt lat="36.935574517129204" lon="14.95444578322721"><ele>368.0</ele><time>2026-04-18T13:23:44.999Z</time></trkpt><trkpt lat="36.935537747475514" lon="14.954340879061798"><ele>368.0</ele><time>2026-04-18T13:23:45.999Z</time></trkpt><trkpt lat="36.935491305205865" lon="14.954234886427525"><ele>368.0</ele><time>2026-04-18T13:23:46.999Z</time></trkpt><trkpt lat="36.935426360236775" lon="14.954143017420051"><ele>368.0</ele><time>2026-04-18T13:23:47.999Z</time></trkpt><trkpt lat="36.93538055432326" lon="14.954034847023852"><ele>365.2</ele><time>2026-04-18T13:23:48.999Z</time></trkpt><trkpt lat="36.93532700363069" lon="14.95392973801026"><ele>362.4</ele><time>2026-04-18T13:23:49.999Z</time></trkpt><trkpt lat="36.93528043543611" lon="14.953822391541713"><ele>359.59999999999997</ele><time>2026-04-18T13:23:50.999Z</time></trkpt><trkpt lat="36.935265797634656" lon="14.95370280160325"><ele>356.79999999999995</ele><time>2026-04-18T13:23:51.999Z</time></trkpt><trkpt lat="36.93524751458681" lon="14.953579558071914"><ele>354.0</ele><time>2026-04-18T13:23:52.999Z</time></trkpt><trkpt lat="36.93523535371316" lon="14.953422640784721"><ele>348.0</ele><time>2026-04-18T13:23:53.999Z</time></trkpt><trkpt lat="36.93522240967579" lon="14.953217718297566"><ele>342.0</ele><time>2026-04-18T13:23:54.999Z</time></trkpt><trkpt lat="36.935204349145664" lon="14.952999842078846"><ele>336.0</ele><time>2026-04-18T13:23:55.999Z</time></trkpt><trkpt lat="36.9351862962903" lon="14.952811036007311"><ele>336.0</ele><time>2026-04-18T13:23:56.999Z</time></trkpt><trkpt lat="36.93517225737058" lon="14.952662973661951"><ele>336.0</ele><time>2026-04-18T13:23:57.999Z</time></trkpt><trkpt lat="36.93516201744611" lon="14.952534098978694"><ele>336.0</ele><time>2026-04-18T13:23:58.999Z</time></trkpt><trkpt lat="36.93515720298359" lon="14.952421460894119"><ele>336.0</ele><time>2026-04-18T13:23:59.999Z</time></trkpt><trkpt lat="36.93516302167849" lon="14.95232473624758"><ele>336.0</ele><time>2026-04-18T13:24:00.999Z</time></trkpt><trkpt lat="36.935245214900775" lon="14.952213729491996"><ele>333.20000000000005</ele><time>2026-04-18T13:24:02.999Z</time></trkpt><trkpt lat="36.93535746817297" lon="14.952145643517396"><ele>330.40000000000003</ele><time>2026-04-18T13:24:04.999Z</time></trkpt><trkpt lat="36.93542566563237" lon="14.952088049650605"><ele>327.6</ele><time>2026-04-18T13:24:05.999Z</time></trkpt><trkpt lat="36.93548379483837" lon="14.952036567159116"><ele>324.8</ele><time>2026-04-18T13:24:06.999Z</time></trkpt><trkpt lat="36.93559139846734" lon="14.951936114881407"><ele>322.0</ele><time>2026-04-18T13:24:09Z</time></trkpt><trkpt lat="36.93565081249296" lon="14.951871530323672"><ele>322.0</ele><time>2026-04-18T13:24:10Z</time></trkpt><trkpt lat="36.9357041643012" lon="14.951800962300151"><ele>322.0</ele><time>2026-04-18T13:24:11Z</time></trkpt><trkpt lat="36.93575379308379" lon="14.951725323552756"><ele>322.0</ele><time>2026-04-18T13:24:12Z</time></trkpt><trkpt lat="36.93579956475787" lon="14.951631993011741"><ele>322.0</ele><time>2026-04-18T13:24:13Z</time></trkpt><trkpt lat="36.93581929345187" lon="14.95154810978036"><ele>322.0</ele><time>2026-04-18T13:24:14Z</time></trkpt><trkpt lat="36.93583029622221" lon="14.951459767343978"><ele>322.0</ele><time>2026-04-18T13:24:15Z</time></trkpt><trkpt lat="36.9357737558938" lon="14.95135815483296"><ele>323.66666666666663</ele><time>2026-04-18T13:24:16Z</time></trkpt><trkpt lat="36.935747559232155" lon="14.951275002020665"><ele>325.3333333333333</ele><time>2026-04-18T13:24:17Z</time></trkpt><trkpt lat="36.935744213824464" lon="14.95117988286389"><ele>327.0</ele><time>2026-04-18T13:24:18Z</time></trkpt><trkpt lat="36.935730329490575" lon="14.951082366108011"><ele>328.6666666666667</ele><time>2026-04-18T13:24:19Z</time></trkpt><trkpt lat="36.93574216885676" lon="14.950988857025084"><ele>330.33333333333337</ele><time>2026-04-18T13:24:20Z</time></trkpt><trkpt lat="36.935763369554174" lon="14.950892859102273"><ele>332.0</ele><time>2026-04-18T13:24:21Z</time></trkpt><trkpt lat="36.93576594666247" lon="14.95080626544519"><ele>332.1666666666667</ele><time>2026-04-18T13:24:22Z</time></trkpt><trkpt lat="36.93576835417424" lon="14.95072536872064"><ele>332.33333333333337</ele><time>2026-04-18T13:24:23Z</time></trkpt><trkpt lat="36.935726888995944" lon="14.950635584911181"><ele>332.5</ele><time>2026-04-18T13:24:24Z</time></trkpt><trkpt lat="36.93566229451185" lon="14.950567095776496"><ele>332.6666666666667</ele><time>2026-04-18T13:24:25Z</time></trkpt><trkpt lat="36.93561721860193" lon="14.950486543850602"><ele>332.8333333333333</ele><time>2026-04-18T13:24:26Z</time></trkpt><trkpt lat="36.935577980227855" lon="14.950392919396203"><ele>333.0</ele><time>2026-04-18T13:24:27Z</time></trkpt><trkpt lat="36.9355804134962" lon="14.950277198737682"><ele>333.0</ele><time>2026-04-18T13:24:28Z</time></trkpt><trkpt lat="36.93560659215755" lon="14.950176814839931"><ele>333.0</ele><time>2026-04-18T13:24:29Z</time></trkpt><trkpt lat="36.935611287308866" lon="14.95006896369457"><ele>333.0</ele><time>2026-04-18T13:24:30Z</time></trkpt><trkpt lat="36.93560029197032" lon="14.949969600593642"><ele>333.0</ele><time>2026-04-18T13:24:31Z</time></trkpt><trkpt lat="36.935562285513264" lon="14.949885874599087"><ele>333.0</ele><time>2026-04-18T13:24:32Z</time></trkpt><trkpt lat="36.93553496225563" lon="14.949809068209753"><ele>333.0</ele><time>2026-04-18T13:24:33Z</time></trkpt><trkpt lat="36.935520848067426" lon="14.94972039556808"><ele>331.3333333333333</ele><time>2026-04-18T13:24:34Z</time></trkpt><trkpt lat="36.93553337960182" lon="14.949630959557371"><ele>329.6666666666667</ele><time>2026-04-18T13:24:35Z</time></trkpt><trkpt lat="36.93549618638134" lon="14.949513957953055"><ele>328.0</ele><time>2026-04-18T13:24:36Z</time></trkpt><trkpt lat="36.9354474257687" lon="14.949418333059745"><ele>326.33333333333337</ele><time>2026-04-18T13:24:37Z</time></trkpt><trkpt lat="36.93540883461953" lon="14.949317510920135"><ele>324.6666666666667</ele><time>2026-04-18T13:24:38Z</time></trkpt><trkpt lat="36.935391617630685" lon="14.949203122176591"><ele>323.0</ele><time>2026-04-18T13:24:39Z</time></trkpt><trkpt lat="36.935367092435655" lon="14.949089758308249"><ele>321.6666666666667</ele><time>2026-04-18T13:24:40Z</time></trkpt><trkpt lat="36.93534963615469" lon="14.948972000228375"><ele>320.33333333333337</ele><time>2026-04-18T13:24:41Z</time></trkpt><trkpt lat="36.93533596227373" lon="14.948860650154305"><ele>319.0</ele><time>2026-04-18T13:24:42Z</time></trkpt><trkpt lat="36.93532250743316" lon="14.948751299698555"><ele>317.6666666666667</ele><time>2026-04-18T13:24:43Z</time></trkpt><trkpt lat="36.93530863637286" lon="14.948647173418099"><ele>316.3333333333333</ele><time>2026-04-18T13:24:44Z</time></trkpt><trkpt lat="36.935286374162985" lon="14.948541930154121"><ele>315.0</ele><time>2026-04-18T13:24:45Z</time></trkpt><trkpt lat="36.93526506454578" lon="14.948449889388668"><ele>313.3333333333333</ele><time>2026-04-18T13:24:46Z</time></trkpt><trkpt lat="36.93524544121697" lon="14.948354017910628"><ele>311.6666666666667</ele><time>2026-04-18T13:24:47Z</time></trkpt><trkpt lat="36.93523323026766" lon="14.94826281308162"><ele>310.0</ele><time>2026-04-18T13:24:48Z</time></trkpt><trkpt lat="36.93522590905201" lon="14.948169758566426"><ele>308.33333333333337</ele><time>2026-04-18T13:24:49Z</time></trkpt><trkpt lat="36.93522003406386" lon="14.948078024865938"><ele>306.6666666666667</ele><time>2026-04-18T13:24:50Z</time></trkpt><trkpt lat="36.93521361569789" lon="14.947991141540786"><ele>305.0</ele><time>2026-04-18T13:24:51Z</time></trkpt><trkpt lat="36.93519286964026" lon="14.947834835649655"><ele>305.0</ele><time>2026-04-18T13:24:53Z</time></trkpt><trkpt lat="36.93517365099944" lon="14.947691565698063"><ele>305.0</ele><time>2026-04-18T13:24:55Z</time></trkpt><trkpt lat="36.93517645481176" lon="14.94754948602327"><ele>305.0</ele><time>2026-04-18T13:24:57Z</time></trkpt><trkpt lat="36.93518942705464" lon="14.94739520774782"><ele>305.0</ele><time>2026-04-18T13:24:59Z</time></trkpt><trkpt lat="36.935196331451564" lon="14.94730839542673"><ele>305.0</ele><time>2026-04-18T13:24:59.999Z</time></trkpt><trkpt lat="36.93520251536934" lon="14.94722027688248"><ele>304.1666666666667</ele><time>2026-04-18T13:25:00.999Z</time></trkpt><trkpt lat="36.9351698278656" lon="14.947133486202684"><ele>303.33333333333337</ele><time>2026-04-18T13:25:01.999Z</time></trkpt><trkpt lat="36.93515361418868" lon="14.947051083110862"><ele>302.5</ele><time>2026-04-18T13:25:02.999Z</time></trkpt><trkpt lat="36.935130809958835" lon="14.946913414554317"><ele>301.6666666666667</ele><time>2026-04-18T13:25:04.999Z</time></trkpt><trkpt lat="36.93505683504149" lon="14.946816462178289"><ele>300.8333333333333</ele><time>2026-04-18T13:25:06.999Z</time></trkpt><trkpt lat="36.93499086731352" lon="14.946824605535976"><ele>300.0</ele><time>2026-04-18T13:25:07.999Z</time></trkpt><trkpt lat="36.93487810400668" lon="14.946818281950733"><ele>302.4</ele><time>2026-04-18T13:25:09.999Z</time></trkpt><trkpt lat="36.93478353393824" lon="14.94679230991007"><ele>304.8</ele><time>2026-04-18T13:25:11.999Z</time></trkpt><trkpt lat="36.93467701569618" lon="14.94673525677915"><ele>307.2</ele><time>2026-04-18T13:25:13.999Z</time></trkpt><trkpt lat="36.93457263949486" lon="14.94667653041422"><ele>309.6</ele><time>2026-04-18T13:25:15.999Z</time></trkpt><trkpt lat="36.934504865424984" lon="14.946596778973488"><ele>312.0</ele><time>2026-04-18T13:25:17.999Z</time></trkpt><trkpt lat="36.934446437318364" lon="14.946545450422866"><ele>312.0</ele><time>2026-04-18T13:25:20.999Z</time></trkpt><trkpt lat="36.934431143291945" lon="14.946424658669411"><ele>312.0</ele><time>2026-04-18T13:29:34.999Z</time></trkpt><trkpt lat="36.934426330167575" lon="14.946311659924941"><ele>312.0</ele><time>2026-04-18T13:29:35.999Z</time></trkpt><trkpt lat="36.93442994127515" lon="14.946161788230741"><ele>312.0</ele><time>2026-04-18T13:29:36.999Z</time></trkpt><trkpt lat="36.93447255015309" lon="14.946025591405919"><ele>312.0</ele><time>2026-04-18T13:29:37.999Z</time></trkpt><trkpt lat="36.934481694733336" lon="14.945872946278453"><ele>311.3333333333333</ele><time>2026-04-18T13:29:38.999Z</time></trkpt><trkpt lat="36.9344954209494" lon="14.945656231976681"><ele>310.66666666666663</ele><time>2026-04-18T13:29:39.999Z</time></trkpt><trkpt lat="36.93450867476723" lon="14.945468730079613"><ele>310.0</ele><time>2026-04-18T13:29:40.999Z</time></trkpt><trkpt lat="36.93452077845046" lon="14.945301473739004"><ele>310.0</ele><time>2026-04-18T13:29:41.999Z</time></trkpt><trkpt lat="36.934531917927636" lon="14.945147541449469"><ele>310.0</ele><time>2026-04-18T13:29:42.999Z</time></trkpt><trkpt lat="36.934541805724706" lon="14.945010905594204"><ele>310.0</ele><time>2026-04-18T13:29:43.999Z</time></trkpt><trkpt lat="36.93455389809472" lon="14.944878946712892"><ele>310.0</ele><time>2026-04-18T13:29:44.999Z</time></trkpt><trkpt lat="36.93456861867653" lon="14.944738917606923"><ele>308.8</ele><time>2026-04-18T13:29:45.999Z</time></trkpt><trkpt lat="36.93458395705196" lon="14.944614260827754"><ele>307.6</ele><time>2026-04-18T13:29:46.999Z</time></trkpt><trkpt lat="36.93458684646078" lon="14.944506801485907"><ele>306.4</ele><time>2026-04-18T13:29:47.999Z</time></trkpt><trkpt lat="36.93461784550196" lon="14.944402750121245"><ele>305.2</ele><time>2026-04-18T13:29:48.999Z</time></trkpt><trkpt lat="36.93464439901006" lon="14.944285012247779"><ele>304.0</ele><time>2026-04-18T13:29:49.999Z</time></trkpt><trkpt lat="36.93467710778166" lon="14.944171856913172"><ele>302.8</ele><time>2026-04-18T13:29:50.999Z</time></trkpt><trkpt lat="36.93470882379233" lon="14.944078820080597"><ele>301.59999999999997</ele><time>2026-04-18T13:29:51.999Z</time></trkpt><trkpt lat="36.93475067800662" lon="14.943967673426576"><ele>300.4</ele><time>2026-04-18T13:29:52.999Z</time></trkpt><trkpt lat="36.93479649845687" lon="14.9438688706317"><ele>299.2</ele><time>2026-04-18T13:29:53.999Z</time></trkpt><trkpt lat="36.934854975692325" lon="14.943774182462862"><ele>298.0</ele><time>2026-04-18T13:29:54.999Z</time></trkpt><trkpt lat="36.934920385555984" lon="14.943682537301882"><ele>298.0</ele><time>2026-04-18T13:29:55.999Z</time></trkpt><trkpt lat="36.9349914267504" lon="14.943588362865649"><ele>298.0</ele><time>2026-04-18T13:29:56.999Z</time></trkpt><trkpt lat="36.93508036949104" lon="14.94347292917533"><ele>298.0</ele><time>2026-04-18T13:29:57.999Z</time></trkpt><trkpt lat="36.935169937181904" lon="14.943348902547168"><ele>298.0</ele><time>2026-04-18T13:29:58.999Z</time></trkpt><trkpt lat="36.93527014022357" lon="14.943201063658119"><ele>296.75</ele><time>2026-04-18T13:29:59.999Z</time></trkpt><trkpt lat="36.93536262119516" lon="14.94306509465531"><ele>295.5</ele><time>2026-04-18T13:30:00.999Z</time></trkpt><trkpt lat="36.93543804791511" lon="14.942946818692551"><ele>294.25</ele><time>2026-04-18T13:30:01.999Z</time></trkpt><trkpt lat="36.93550065980567" lon="14.942837506244155"><ele>293.0</ele><time>2026-04-18T13:30:02.999Z</time></trkpt><trkpt lat="36.93554188837939" lon="14.94272008347923"><ele>293.0</ele><time>2026-04-18T13:30:03.999Z</time></trkpt><trkpt lat="36.935593409986744" lon="14.942587893956409"><ele>293.0</ele><time>2026-04-18T13:30:04.999Z</time></trkpt><trkpt lat="36.935632932381786" lon="14.942434367259688"><ele>293.0</ele><time>2026-04-18T13:30:05.998Z</time></trkpt><trkpt lat="36.93568204054018" lon="14.942287324178551"><ele>293.0</ele><time>2026-04-18T13:30:06.998Z</time></trkpt><trkpt lat="36.93572153622315" lon="14.942136899143668"><ele>292.25</ele><time>2026-04-18T13:30:07.998Z</time></trkpt><trkpt lat="36.93575847697536" lon="14.941985995347503"><ele>291.5</ele><time>2026-04-18T13:30:08.998Z</time></trkpt><trkpt lat="36.93579464959642" lon="14.941831282995212"><ele>290.75</ele><time>2026-04-18T13:30:09.998Z</time></trkpt><trkpt lat="36.935828701423596" lon="14.941680972086173"><ele>290.0</ele><time>2026-04-18T13:30:10.998Z</time></trkpt><trkpt lat="36.93586146908102" lon="14.941533108619897"><ele>288.0</ele><time>2026-04-18T13:30:11.998Z</time></trkpt><trkpt lat="36.935891489609084" lon="14.941397641582139"><ele>286.0</ele><time>2026-04-18T13:30:12.998Z</time></trkpt><trkpt lat="36.93592588944425" lon="14.941257061452973"><ele>284.0</ele><time>2026-04-18T13:30:13.998Z</time></trkpt><trkpt lat="36.93596398288412" lon="14.941106209337372"><ele>282.0</ele><time>2026-04-18T13:30:14.998Z</time></trkpt><trkpt lat="36.936002883886474" lon="14.940962881555965"><ele>282.2</ele><time>2026-04-18T13:30:15.998Z</time></trkpt><trkpt lat="36.93603872316675" lon="14.940842366386338"><ele>282.4</ele><time>2026-04-18T13:30:16.998Z</time></trkpt><trkpt lat="36.93608007736644" lon="14.940735646915394"><ele>282.6</ele><time>2026-04-18T13:30:17.998Z</time></trkpt><trkpt lat="36.93613175160704" lon="14.940610605630381"><ele>282.8</ele><time>2026-04-18T13:30:18.998Z</time></trkpt><trkpt lat="36.93618476070339" lon="14.940476201163078"><ele>283.0</ele><time>2026-04-18T13:30:19.998Z</time></trkpt><trkpt lat="36.93623779010559" lon="14.940341745129667"><ele>283.0</ele><time>2026-04-18T13:30:20.998Z</time></trkpt><trkpt lat="36.93628481745037" lon="14.940213461342946"><ele>283.0</ele><time>2026-04-18T13:30:21.998Z</time></trkpt><trkpt lat="36.93632388951624" lon="14.940093237370577"><ele>283.0</ele><time>2026-04-18T13:30:22.998Z</time></trkpt><trkpt lat="36.93635710598025" lon="14.93996016460877"><ele>283.0</ele><time>2026-04-18T13:30:23.998Z</time></trkpt><trkpt lat="36.9363613339597" lon="14.939836450154527"><ele>283.0</ele><time>2026-04-18T13:30:24.998Z</time></trkpt><trkpt lat="36.93637171419643" lon="14.939700994859155"><ele>281.25</ele><time>2026-04-18T13:30:25.998Z</time></trkpt><trkpt lat="36.936363243036304" lon="14.939550721012566"><ele>279.5</ele><time>2026-04-18T13:30:27Z</time></trkpt><trkpt lat="36.93637555992591" lon="14.939404208946142"><ele>277.75</ele><time>2026-04-18T13:30:28Z</time></trkpt><trkpt lat="36.936364257112196" lon="14.939273395206158"><ele>276.0</ele><time>2026-04-18T13:30:29Z</time></trkpt><trkpt lat="36.93635436003386" lon="14.939138124312139"><ele>275.0</ele><time>2026-04-18T13:30:30Z</time></trkpt><trkpt lat="36.93635350711518" lon="14.939003493735436"><ele>274.0</ele><time>2026-04-18T13:30:31Z</time></trkpt><trkpt lat="36.93637000228959" lon="14.938883041707703"><ele>273.0</ele><time>2026-04-18T13:30:32Z</time></trkpt><trkpt lat="36.936367827941595" lon="14.938766248892545"><ele>272.0</ele><time>2026-04-18T13:30:33Z</time></trkpt><trkpt lat="36.936355648395626" lon="14.938677171379686"><ele>271.0</ele><time>2026-04-18T13:30:34Z</time></trkpt><trkpt lat="36.936330853358164" lon="14.938557886832452"><ele>271.0</ele><time>2026-04-18T13:30:36Z</time></trkpt><trkpt lat="36.93623280853743" lon="14.938535714537691"><ele>271.0</ele><time>2026-04-18T13:30:38Z</time></trkpt><trkpt lat="36.9361719002856" lon="14.938567906526362"><ele>271.0</ele><time>2026-04-18T13:30:39Z</time></trkpt><trkpt lat="36.93610422648703" lon="14.938621709674468"><ele>271.0</ele><time>2026-04-18T13:30:40Z</time></trkpt><trkpt lat="36.93602562392366" lon="14.938696759816281"><ele>271.0</ele><time>2026-04-18T13:30:41Z</time></trkpt><trkpt lat="36.935949443594" lon="14.938783189545823"><ele>271.0</ele><time>2026-04-18T13:30:42Z</time></trkpt><trkpt lat="36.93586598244902" lon="14.938868301603605"><ele>270.8</ele><time>2026-04-18T13:30:43Z</time></trkpt><trkpt lat="36.93577485227911" lon="14.938956176127995"><ele>270.6</ele><time>2026-04-18T13:30:44Z</time></trkpt><trkpt lat="36.93568483769447" lon="14.939036032716226"><ele>270.4</ele><time>2026-04-18T13:30:45Z</time></trkpt><trkpt lat="36.9356018716697" lon="14.939109664197069"><ele>270.2</ele><time>2026-04-18T13:30:46Z</time></trkpt><trkpt lat="36.93552453182278" lon="14.939190626585136"><ele>270.0</ele><time>2026-04-18T13:30:47Z</time></trkpt><trkpt lat="36.93545077228954" lon="14.939260354483448"><ele>270.0</ele><time>2026-04-18T13:30:48Z</time></trkpt><trkpt lat="36.93538476414084" lon="14.939337779088023"><ele>270.0</ele><time>2026-04-18T13:30:49Z</time></trkpt><trkpt lat="36.935288799752946" lon="14.939403272747496"><ele>270.0</ele><time>2026-04-18T13:30:51Z</time></trkpt><trkpt lat="36.935214870542914" lon="14.939308654370473"><ele>270.0</ele><time>2026-04-18T13:30:53Z</time></trkpt><trkpt lat="36.93525985029463" lon="14.939149762864721"><ele>270.0</ele><time>2026-04-18T13:30:55Z</time></trkpt><trkpt lat="36.935277799409796" lon="14.939049624153425"><ele>268.0</ele><time>2026-04-18T13:30:56Z</time></trkpt><trkpt lat="36.93529913829086" lon="14.938927304661723"><ele>266.0</ele><time>2026-04-18T13:30:57Z</time></trkpt><trkpt lat="36.935323157012704" lon="14.938784850348057"><ele>264.0</ele><time>2026-04-18T13:30:58Z</time></trkpt><trkpt lat="36.93534733918623" lon="14.938641426616869"><ele>262.0</ele><time>2026-04-18T13:30:59Z</time></trkpt><trkpt lat="36.935355680198185" lon="14.938490934553732"><ele>260.0</ele><time>2026-04-18T13:31:00Z</time></trkpt><trkpt lat="36.935395834858326" lon="14.938353800323746"><ele>258.0</ele><time>2026-04-18T13:31:01Z</time></trkpt><trkpt lat="36.935418584406584" lon="14.938220558201444"><ele>256.0</ele><time>2026-04-18T13:31:02Z</time></trkpt><trkpt lat="36.93544529488376" lon="14.938068432155365"><ele>254.0</ele><time>2026-04-18T13:31:03Z</time></trkpt><trkpt lat="36.935472636718984" lon="14.93791570927023"><ele>254.0</ele><time>2026-04-18T13:31:04Z</time></trkpt><trkpt lat="36.935501627659185" lon="14.937760093674106"><ele>254.0</ele><time>2026-04-18T13:31:05Z</time></trkpt><trkpt lat="36.935528914184694" lon="14.937614961630654"><ele>254.0</ele><time>2026-04-18T13:31:06Z</time></trkpt><trkpt lat="36.93555473301069" lon="14.937487347555246"><ele>254.0</ele><time>2026-04-18T13:31:07Z</time></trkpt><trkpt lat="36.93558697492596" lon="14.937365951372634"><ele>252.39999999999998</ele><time>2026-04-18T13:31:07.999Z</time></trkpt><trkpt lat="36.93562847302153" lon="14.937269517706273"><ele>250.79999999999998</ele><time>2026-04-18T13:31:08.999Z</time></trkpt><trkpt lat="36.93567809243987" lon="14.937175182536363"><ele>249.20000000000002</ele><time>2026-04-18T13:31:09.999Z</time></trkpt><trkpt lat="36.93573883636535" lon="14.937074436575823"><ele>247.60000000000002</ele><time>2026-04-18T13:31:10.999Z</time></trkpt><trkpt lat="36.93580481325014" lon="14.93696889607162"><ele>246.0</ele><time>2026-04-18T13:31:11.999Z</time></trkpt><trkpt lat="36.93587920262874" lon="14.936856453377588"><ele>246.4</ele><time>2026-04-18T13:31:12.999Z</time></trkpt><trkpt lat="36.935951099008705" lon="14.936747261289664"><ele>246.8</ele><time>2026-04-18T13:31:13.999Z</time></trkpt><trkpt lat="36.93601634339522" lon="14.936648017496028"><ele>247.20000000000002</ele><time>2026-04-18T13:31:14.999Z</time></trkpt><trkpt lat="36.936078585371845" lon="14.936552358405983"><ele>247.60000000000002</ele><time>2026-04-18T13:31:15.999Z</time></trkpt><trkpt lat="36.936137944471184" lon="14.936459511485594"><ele>248.0</ele><time>2026-04-18T13:31:16.999Z</time></trkpt><trkpt lat="36.936185690553664" lon="14.936379909860824"><ele>245.85714285714286</ele><time>2026-04-18T13:31:17.999Z</time></trkpt><trkpt lat="36.936228103020284" lon="14.93630766630202"><ele>243.71428571428572</ele><time>2026-04-18T13:31:18.999Z</time></trkpt><trkpt lat="36.93625503709497" lon="14.93623555497673"><ele>241.57142857142858</ele><time>2026-04-18T13:31:19.999Z</time></trkpt><trkpt lat="36.93624226622504" lon="14.936154340536632"><ele>239.42857142857144</ele><time>2026-04-18T13:31:20.999Z</time></trkpt><trkpt lat="36.936229057218824" lon="14.936075796069398"><ele>237.28571428571428</ele><time>2026-04-18T13:31:21.999Z</time></trkpt><trkpt lat="36.93619638301602" lon="14.936002810368317"><ele>235.14285714285717</ele><time>2026-04-18T13:31:22.999Z</time></trkpt><trkpt lat="36.93615329860697" lon="14.935931515330807"><ele>233.0</ele><time>2026-04-18T13:31:23.999Z</time></trkpt><trkpt lat="36.936104171516" lon="14.935875427986387"><ele>233.50000000000003</ele><time>2026-04-18T13:31:24.999Z</time></trkpt><trkpt lat="36.936045763362834" lon="14.935841091453035"><ele>234.0</ele><time>2026-04-18T13:31:25.999Z</time></trkpt><trkpt lat="36.93598128502147" lon="14.935830007330367"><ele>234.5</ele><time>2026-04-18T13:31:26.999Z</time></trkpt><trkpt lat="36.93591583199188" lon="14.935854903067074"><ele>235.0</ele><time>2026-04-18T13:31:27.999Z</time></trkpt><trkpt lat="36.93584880944088" lon="14.935902497873998"><ele>235.50000000000003</ele><time>2026-04-18T13:31:28.999Z</time></trkpt><trkpt lat="36.93578440542673" lon="14.935974610273982"><ele>236.0</ele><time>2026-04-18T13:31:29.999Z</time></trkpt><trkpt lat="36.93571750126533" lon="14.936067864078632"><ele>236.0</ele><time>2026-04-18T13:31:30.999Z</time></trkpt><trkpt lat="36.93564059805017" lon="14.936168819442765"><ele>236.00000000000003</ele><time>2026-04-18T13:31:31.999Z</time></trkpt><trkpt lat="36.935563545159866" lon="14.93626885454536"><ele>236.00000000000003</ele><time>2026-04-18T13:31:32.999Z</time></trkpt><trkpt lat="36.93550303558427" lon="14.936368958771327"><ele>236.0</ele><time>2026-04-18T13:31:33.999Z</time></trkpt><trkpt lat="36.93544833695379" lon="14.936431312520414"><ele>236.0</ele><time>2026-04-18T13:31:34.999Z</time></trkpt><trkpt lat="36.93539101975119" lon="14.93649101471112"><ele>236.0</ele><time>2026-04-18T13:31:36.999Z</time></trkpt><trkpt lat="36.93532813606766" lon="14.936388902866181"><ele>236.00000000000003</ele><time>2026-04-18T13:31:38.999Z</time></trkpt><trkpt lat="36.935362180993565" lon="14.936300722082718"><ele>236.00000000000003</ele><time>2026-04-18T13:31:39.999Z</time></trkpt><trkpt lat="36.93536328530409" lon="14.936196288065057"><ele>236.0</ele><time>2026-04-18T13:31:40.999Z</time></trkpt><trkpt lat="36.935366547572855" lon="14.93607469933328"><ele>236.0</ele><time>2026-04-18T13:31:41.999Z</time></trkpt><trkpt lat="36.935356148202466" lon="14.93593304277603"><ele>234.25</ele><time>2026-04-18T13:31:42.999Z</time></trkpt><trkpt lat="36.93537232176326" lon="14.935768638217766"><ele>232.5</ele><time>2026-04-18T13:31:43.999Z</time></trkpt><trkpt lat="36.93536199403585" lon="14.935614969624307"><ele>230.75</ele><time>2026-04-18T13:31:44.999Z</time></trkpt><trkpt lat="36.935364616011704" lon="14.935450480553026"><ele>229.0</ele><time>2026-04-18T13:31:45.999Z</time></trkpt><trkpt lat="36.935382186131946" lon="14.93527957771008"><ele>229.0</ele><time>2026-04-18T13:31:46.999Z</time></trkpt><trkpt lat="36.93536841813145" lon="14.935110166631937"><ele>229.0</ele><time>2026-04-18T13:31:47.999Z</time></trkpt><trkpt lat="36.93538633444574" lon="14.934957138850379"><ele>229.0</ele><time>2026-04-18T13:31:48.999Z</time></trkpt><trkpt lat="36.93539006471272" lon="14.934820984153854"><ele>229.0</ele><time>2026-04-18T13:31:49.999Z</time></trkpt><trkpt lat="36.93539361153628" lon="14.934691524942544"><ele>227.99999999999997</ele><time>2026-04-18T13:31:50.999Z</time></trkpt><trkpt lat="36.935394769639686" lon="14.934589535340697"><ele>227.0</ele><time>2026-04-18T13:31:51.999Z</time></trkpt><trkpt lat="36.93539349297443" lon="14.934498983064247"><ele>226.0</ele><time>2026-04-18T13:31:52.999Z</time></trkpt><trkpt lat="36.93537380266189" lon="14.934421713167255"><ele>225.0</ele><time>2026-04-18T13:31:53.999Z</time></trkpt><trkpt lat="36.93531943243348" lon="14.934339042084893"><ele>223.99999999999997</ele><time>2026-04-18T13:31:55.999Z</time></trkpt><trkpt lat="36.935232986929236" lon="14.934374815787887"><ele>223.0</ele><time>2026-04-18T13:31:57.999Z</time></trkpt><trkpt lat="36.935192201131976" lon="14.93444202111727"><ele>222.99999999999997</ele><time>2026-04-18T13:31:58.999Z</time></trkpt><trkpt lat="36.935145483758795" lon="14.934506338213016"><ele>223.0</ele><time>2026-04-18T13:31:59.999Z</time></trkpt><trkpt lat="36.93505572281104" lon="14.934547227525224"><ele>223.0</ele><time>2026-04-18T13:32:01.999Z</time></trkpt><trkpt lat="36.93500884869916" lon="14.934402363631833"><ele>223.0</ele><time>2026-04-18T13:32:03.999Z</time></trkpt><trkpt lat="36.935047441118506" lon="14.93431836663174"><ele>222.99999999999997</ele><time>2026-04-18T13:32:04.999Z</time></trkpt><trkpt lat="36.93504041914421" lon="14.934220378575565"><ele>223.0</ele><time>2026-04-18T13:32:05.999Z</time></trkpt><trkpt lat="36.93505642202781" lon="14.934104970675131"><ele>221.75</ele><time>2026-04-18T13:32:06.999Z</time></trkpt><trkpt lat="36.93508108069352" lon="14.93397326001145"><ele>220.5</ele><time>2026-04-18T13:32:07.999Z</time></trkpt><trkpt lat="36.93509607603434" lon="14.933827348188036"><ele>219.25</ele><time>2026-04-18T13:32:08.999Z</time></trkpt><trkpt lat="36.93510872385937" lon="14.933674423149254"><ele>218.0</ele><time>2026-04-18T13:32:09.999Z</time></trkpt><trkpt lat="36.93511789840506" lon="14.933536601087672"><ele>218.0</ele><time>2026-04-18T13:32:10.999Z</time></trkpt><trkpt lat="36.93512602645375" lon="14.93341449990506"><ele>218.0</ele><time>2026-04-18T13:32:11.999Z</time></trkpt><trkpt lat="36.935142630002176" lon="14.933297148136607"><ele>218.0</ele><time>2026-04-18T13:32:12.999Z</time></trkpt><trkpt lat="36.9351530919633" lon="14.93319373624444"><ele>218.0</ele><time>2026-04-18T13:32:13.999Z</time></trkpt><trkpt lat="36.935157567588355" lon="14.93311195526978"><ele>218.0</ele><time>2026-04-18T13:32:14.999Z</time></trkpt><trkpt lat="36.9350462433436" lon="14.933054440356926"><ele>215.83333333333334</ele><time>2026-04-18T13:32:16.999Z</time></trkpt><trkpt lat="36.93492477555844" lon="14.933093069039971"><ele>213.66666666666669</ele><time>2026-04-18T13:32:18.998Z</time></trkpt><trkpt lat="36.93485756561286" lon="14.933084742123544"><ele>211.5</ele><time>2026-04-18T13:32:19.998Z</time></trkpt><trkpt lat="36.9348009363981" lon="14.933049153646078"><ele>209.33333333333331</ele><time>2026-04-18T13:32:20.998Z</time></trkpt><trkpt lat="36.93476098039443" lon="14.932959822342093"><ele>207.16666666666666</ele><time>2026-04-18T13:32:21.998Z</time></trkpt><trkpt lat="36.93474772919174" lon="14.93282726657163"><ele>205.0</ele><time>2026-04-18T13:32:22.998Z</time></trkpt><trkpt lat="36.934723327587115" lon="14.932719037389043"><ele>204.99999999999997</ele><time>2026-04-18T13:32:23.998Z</time></trkpt><trkpt lat="36.934706298263656" lon="14.932640854111098"><ele>205.0</ele><time>2026-04-18T13:32:24.998Z</time></trkpt><trkpt lat="36.93468986025732" lon="14.932555055245734"><ele>205.0</ele><time>2026-04-18T13:32:26.998Z</time></trkpt><trkpt lat="36.934746493093186" lon="14.932479433343193"><ele>205.0</ele><time>2026-04-18T13:33:19.999Z</time></trkpt><trkpt lat="36.934812042359354" lon="14.932424441523919"><ele>204.99999999999997</ele><time>2026-04-18T13:33:20.999Z</time></trkpt><trkpt lat="36.93488303944916" lon="14.932366380781541"><ele>205.0</ele><time>2026-04-18T13:33:21.999Z</time></trkpt><trkpt lat="36.9349987720816" lon="14.932321910521603"><ele>204.0</ele><time>2026-04-18T13:33:22.999Z</time></trkpt><trkpt lat="36.93508766228729" lon="14.932220548997517"><ele>203.0</ele><time>2026-04-18T13:33:23.999Z</time></trkpt><trkpt lat="36.93517938592939" lon="14.93212102373189"><ele>202.0</ele><time>2026-04-18T13:33:24.999Z</time></trkpt><trkpt lat="36.93527703996013" lon="14.932016442847258"><ele>201.0</ele><time>2026-04-18T13:33:25.999Z</time></trkpt><trkpt lat="36.93537683575188" lon="14.931908967117549"><ele>201.0</ele><time>2026-04-18T13:33:26.999Z</time></trkpt><trkpt lat="36.93547859101797" lon="14.93179819030742"><ele>201.0</ele><time>2026-04-18T13:33:27.999Z</time></trkpt><trkpt lat="36.93558321566876" lon="14.93168583119848"><ele>201.0</ele><time>2026-04-18T13:33:28.999Z</time></trkpt><trkpt lat="36.93568841842562" lon="14.931571365980812"><ele>201.0</ele><time>2026-04-18T13:33:29.999Z</time></trkpt><trkpt lat="36.93578126696597" lon="14.931453398221919"><ele>200.75</ele><time>2026-04-18T13:33:30.999Z</time></trkpt><trkpt lat="36.935864811874" lon="14.931319481267646"><ele>200.5</ele><time>2026-04-18T13:33:31.999Z</time></trkpt><trkpt lat="36.935937098587836" lon="14.931176533870024"><ele>200.25</ele><time>2026-04-18T13:33:32.999Z</time></trkpt><trkpt lat="36.935984259971406" lon="14.93103787708254"><ele>200.0</ele><time>2026-04-18T13:33:33.999Z</time></trkpt><trkpt lat="36.93599991817469" lon="14.930904066937432"><ele>200.4</ele><time>2026-04-18T13:33:34.999Z</time></trkpt><trkpt lat="36.93601850991195" lon="14.930769935131428"><ele>200.8</ele><time>2026-04-18T13:33:35.999Z</time></trkpt><trkpt lat="36.93602981718487" lon="14.930625854409442"><ele>201.2</ele><time>2026-04-18T13:33:36.999Z</time></trkpt><trkpt lat="36.93604353275434" lon="14.930483674310297"><ele>201.6</ele><time>2026-04-18T13:33:37.999Z</time></trkpt><trkpt lat="36.93606143702333" lon="14.930360608921712"><ele>202.0</ele><time>2026-04-18T13:33:38.999Z</time></trkpt><trkpt lat="36.93606827693373" lon="14.930248534107143"><ele>201.99999999999997</ele><time>2026-04-18T13:33:39.999Z</time></trkpt><trkpt lat="36.936075784079335" lon="14.93014828082278"><ele>202.0</ele><time>2026-04-18T13:33:40.999Z</time></trkpt><trkpt lat="36.93606553986425" lon="14.930052622062412"><ele>202.0</ele><time>2026-04-18T13:33:41.999Z</time></trkpt><trkpt lat="36.93606162039335" lon="14.929965517184451"><ele>202.0</ele><time>2026-04-18T13:33:42.999Z</time></trkpt><trkpt lat="36.93603243425708" lon="14.929883402945206"><ele>201.99999999999997</ele><time>2026-04-18T13:33:43.999Z</time></trkpt><trkpt lat="36.93598718864949" lon="14.929805743286346"><ele>202.0</ele><time>2026-04-18T13:33:44.999Z</time></trkpt><trkpt lat="36.93591538204166" lon="14.929733580100757"><ele>200.5</ele><time>2026-04-18T13:33:45.999Z</time></trkpt><trkpt lat="36.93583512418781" lon="14.929637687249045"><ele>199.0</ele><time>2026-04-18T13:33:46.999Z</time></trkpt><trkpt lat="36.93576338883759" lon="14.92952499468878"><ele>197.5</ele><time>2026-04-18T13:33:47.999Z</time></trkpt><trkpt lat="36.93566224577411" lon="14.929383647368528"><ele>196.0</ele><time>2026-04-18T13:33:48.999Z</time></trkpt><trkpt lat="36.935562379599475" lon="14.92923215201264"><ele>198.66666666666666</ele><time>2026-04-18T13:33:49.999Z</time></trkpt><trkpt lat="36.9354637778505" lon="14.929086915243154"><ele>201.33333333333331</ele><time>2026-04-18T13:33:50.999Z</time></trkpt><trkpt lat="36.93537103664805" lon="14.928933148616045"><ele>204.0</ele><time>2026-04-18T13:33:51.999Z</time></trkpt><trkpt lat="36.935280655231125" lon="14.928772424896513"><ele>204.0</ele><time>2026-04-18T13:33:52.999Z</time></trkpt><trkpt lat="36.93519605061994" lon="14.928604209446725"><ele>204.0</ele><time>2026-04-18T13:33:53.999Z</time></trkpt><trkpt lat="36.93510665657955" lon="14.928427510583159"><ele>204.0</ele><time>2026-04-18T13:33:54.999Z</time></trkpt><trkpt lat="36.93502517415781" lon="14.92825783992157"><ele>202.66666666666669</ele><time>2026-04-18T13:33:55.999Z</time></trkpt><trkpt lat="36.934938720070974" lon="14.92812081879033"><ele>201.33333333333334</ele><time>2026-04-18T13:33:56.999Z</time></trkpt><trkpt lat="36.93482974696338" lon="14.927981502669686"><ele>200.0</ele><time>2026-04-18T13:33:57.999Z</time></trkpt><trkpt lat="36.93470366987686" lon="14.927836461655902"><ele>200.0</ele><time>2026-04-18T13:33:58.999Z</time></trkpt><trkpt lat="36.93457264970597" lon="14.927680575627196"><ele>200.0</ele><time>2026-04-18T13:33:59.999Z</time></trkpt><trkpt lat="36.93444248331691" lon="14.927515600164723"><ele>200.0</ele><time>2026-04-18T13:34:00.999Z</time></trkpt><trkpt lat="36.93431479081908" lon="14.927368317682081"><ele>198.66666666666669</ele><time>2026-04-18T13:34:01.999Z</time></trkpt><trkpt lat="36.93418460480656" lon="14.92720890725267"><ele>197.33333333333331</ele><time>2026-04-18T13:34:02.999Z</time></trkpt><trkpt lat="36.93406014516393" lon="14.92705494355293"><ele>196.0</ele><time>2026-04-18T13:34:03.999Z</time></trkpt><trkpt lat="36.93393782601387" lon="14.926904894719723"><ele>196.0</ele><time>2026-04-18T13:34:04.999Z</time></trkpt><trkpt lat="36.93381065103023" lon="14.926755158545504"><ele>196.0</ele><time>2026-04-18T13:34:05.999Z</time></trkpt><trkpt lat="36.93367907862832" lon="14.926605751259507"><ele>196.0</ele><time>2026-04-18T13:34:06.999Z</time></trkpt><trkpt lat="36.933546064221716" lon="14.926455825850121"><ele>194.33333333333331</ele><time>2026-04-18T13:34:07.999Z</time></trkpt><trkpt lat="36.93341527820302" lon="14.926300004806766"><ele>192.66666666666666</ele><time>2026-04-18T13:34:08.999Z</time></trkpt><trkpt lat="36.933287994522" lon="14.926138127567857"><ele>191.0</ele><time>2026-04-18T13:34:09.999Z</time></trkpt><trkpt lat="36.933163659029546" lon="14.92597122126104"><ele>192.33333333333331</ele><time>2026-04-18T13:34:10.999Z</time></trkpt><trkpt lat="36.93304008358001" lon="14.92579919140945"><ele>193.66666666666666</ele><time>2026-04-18T13:34:11.999Z</time></trkpt><trkpt lat="36.93291381637381" lon="14.925629665300884"><ele>195.0</ele><time>2026-04-18T13:34:12.999Z</time></trkpt><trkpt lat="36.93278853755443" lon="14.92546590696705"><ele>195.0</ele><time>2026-04-18T13:34:13.999Z</time></trkpt><trkpt lat="36.932665008214954" lon="14.925302410884392"><ele>195.0</ele><time>2026-04-18T13:34:14.999Z</time></trkpt><trkpt lat="36.93253344436712" lon="14.925148675041703"><ele>195.0</ele><time>2026-04-18T13:34:15.999Z</time></trkpt><trkpt lat="36.93240181747839" lon="14.9250026887304"><ele>194.66666666666669</ele><time>2026-04-18T13:34:16.999Z</time></trkpt><trkpt lat="36.9322779605213" lon="14.92486563506144"><ele>194.33333333333334</ele><time>2026-04-18T13:34:17.999Z</time></trkpt><trkpt lat="36.93215850653479" lon="14.92473960120046"><ele>194.0</ele><time>2026-04-18T13:34:18.999Z</time></trkpt><trkpt lat="36.93204307061616" lon="14.924624858984727"><ele>194.0</ele><time>2026-04-18T13:34:19.999Z</time></trkpt><trkpt lat="36.93192647656325" lon="14.924526424821018"><ele>194.0</ele><time>2026-04-18T13:34:20.999Z</time></trkpt><trkpt lat="36.93179691449355" lon="14.924448521206866"><ele>194.0</ele><time>2026-04-18T13:34:21.999Z</time></trkpt><trkpt lat="36.93165394892691" lon="14.924395777873741"><ele>194.0</ele><time>2026-04-18T13:34:22.999Z</time></trkpt><trkpt lat="36.931496300197495" lon="14.924361590331753"><ele>192.33333333333334</ele><time>2026-04-18T13:34:23.999Z</time></trkpt><trkpt lat="36.93133816439602" lon="14.92432556071168"><ele>190.66666666666669</ele><time>2026-04-18T13:34:24.999Z</time></trkpt><trkpt lat="36.93118350343275" lon="14.924286564413949"><ele>189.0</ele><time>2026-04-18T13:34:25.999Z</time></trkpt><trkpt lat="36.93103007724037" lon="14.924245461467901"><ele>188.33333333333334</ele><time>2026-04-18T13:34:26.999Z</time></trkpt><trkpt lat="36.930873071642836" lon="14.92419825315168"><ele>187.66666666666669</ele><time>2026-04-18T13:34:27.999Z</time></trkpt><trkpt lat="36.9307176674694" lon="14.924151576793266"><ele>187.0</ele><time>2026-04-18T13:34:28.999Z</time></trkpt><trkpt lat="36.93056301174992" lon="14.924107591708077"><ele>187.0</ele><time>2026-04-18T13:34:29.999Z</time></trkpt><trkpt lat="36.930417464354385" lon="14.924062079075947"><ele>187.0</ele><time>2026-04-18T13:34:30.999Z</time></trkpt><trkpt lat="36.93028240079634" lon="14.924014531979584"><ele>187.0</ele><time>2026-04-18T13:34:31.998Z</time></trkpt><trkpt lat="36.93015641202066" lon="14.923971562785216"><ele>187.0</ele><time>2026-04-18T13:34:32.998Z</time></trkpt><trkpt lat="36.93003762384696" lon="14.923909171122947"><ele>185.5</ele><time>2026-04-18T13:34:33.998Z</time></trkpt><trkpt lat="36.929929110503764" lon="14.92381999114903"><ele>184.0</ele><time>2026-04-18T13:34:34.998Z</time></trkpt><trkpt lat="36.92982576913478" lon="14.923716135886746"><ele>182.5</ele><time>2026-04-18T13:34:35.998Z</time></trkpt><trkpt lat="36.929727743619694" lon="14.923608135057785"><ele>181.0</ele><time>2026-04-18T13:34:36.998Z</time></trkpt><trkpt lat="36.92965263281385" lon="14.923503975736834"><ele>180.8</ele><time>2026-04-18T13:34:37.998Z</time></trkpt><trkpt lat="36.9295983051803" lon="14.923387890709561"><ele>180.60000000000002</ele><time>2026-04-18T13:34:39Z</time></trkpt><trkpt lat="36.929572792834065" lon="14.92325362280625"><ele>180.4</ele><time>2026-04-18T13:34:40Z</time></trkpt><trkpt lat="36.929581317470706" lon="14.923129134852886"><ele>180.2</ele><time>2026-04-18T13:34:41Z</time></trkpt><trkpt lat="36.92959257723344" lon="14.923020264730734"><ele>180.0</ele><time>2026-04-18T13:34:42Z</time></trkpt><trkpt lat="36.92958783811375" lon="14.922922036988588"><ele>180.0</ele><time>2026-04-18T13:34:43Z</time></trkpt><trkpt lat="36.92976445647273" lon="14.922813160476732"><ele>180.0</ele><time>2026-04-18T13:34:44Z</time></trkpt><trkpt lat="36.92985561388095" lon="14.922666894257189"><ele>180.0</ele><time>2026-04-18T13:34:45Z</time></trkpt><trkpt lat="36.92994672571343" lon="14.922499843073362"><ele>181.5</ele><time>2026-04-18T13:34:46Z</time></trkpt><trkpt lat="36.93002413756034" lon="14.922333316482119"><ele>183.0</ele><time>2026-04-18T13:34:47Z</time></trkpt><trkpt lat="36.93008949251059" lon="14.922177628855504"><ele>184.5</ele><time>2026-04-18T13:34:48Z</time></trkpt><trkpt lat="36.93013692925241" lon="14.92201857295366"><ele>186.0</ele><time>2026-04-18T13:34:49Z</time></trkpt><trkpt lat="36.93014606726859" lon="14.92185601715266"><ele>183.8</ele><time>2026-04-18T13:34:50Z</time></trkpt><trkpt lat="36.930130239652925" lon="14.921716241301459"><ele>181.60000000000002</ele><time>2026-04-18T13:34:51Z</time></trkpt><trkpt lat="36.93008286248094" lon="14.921610468755285"><ele>179.4</ele><time>2026-04-18T13:34:52Z</time></trkpt><trkpt lat="36.930011889988386" lon="14.921515872435423"><ele>177.2</ele><time>2026-04-18T13:34:53Z</time></trkpt><trkpt lat="36.92994799125333" lon="14.921425133653965"><ele>175.0</ele><time>2026-04-18T13:34:54Z</time></trkpt><trkpt lat="36.92988677397295" lon="14.92133468782379"><ele>174.0</ele><time>2026-04-18T13:34:55Z</time></trkpt><trkpt lat="36.92984611825706" lon="14.921244507117443"><ele>173.0</ele><time>2026-04-18T13:34:56Z</time></trkpt><trkpt lat="36.92982497948166" lon="14.921149480859958"><ele>172.0</ele><time>2026-04-18T13:34:57Z</time></trkpt><trkpt lat="36.929836262666356" lon="14.921062330670878"><ele>171.0</ele><time>2026-04-18T13:34:58Z</time></trkpt><trkpt lat="36.929865888687935" lon="14.920968361576818"><ele>170.0</ele><time>2026-04-18T13:34:59Z</time></trkpt><trkpt lat="36.92990001098565" lon="14.92086643549259"><ele>169.0</ele><time>2026-04-18T13:35:00Z</time></trkpt><trkpt lat="36.92993323912212" lon="14.920755685453278"><ele>168.79999999999998</ele><time>2026-04-18T13:35:01Z</time></trkpt><trkpt lat="36.929955629258465" lon="14.920641362688578"><ele>168.6</ele><time>2026-04-18T13:35:02Z</time></trkpt><trkpt lat="36.929968055973035" lon="14.920514689674366"><ele>168.4</ele><time>2026-04-18T13:35:03Z</time></trkpt><trkpt lat="36.929962900436486" lon="14.920364348820712"><ele>168.2</ele><time>2026-04-18T13:35:04Z</time></trkpt><trkpt lat="36.929959351651846" lon="14.920213115053748"><ele>168.0</ele><time>2026-04-18T13:35:05Z</time></trkpt><trkpt lat="36.929955797554555" lon="14.920056003321532"><ele>168.5</ele><time>2026-04-18T13:35:06Z</time></trkpt><trkpt lat="36.929953792754226" lon="14.919893375278262"><ele>169.0</ele><time>2026-04-18T13:35:07Z</time></trkpt><trkpt lat="36.92995426733716" lon="14.919724790423874"><ele>169.5</ele><time>2026-04-18T13:35:08Z</time></trkpt><trkpt lat="36.9299551823109" lon="14.919551560367372"><ele>170.0</ele><time>2026-04-18T13:35:09Z</time></trkpt><trkpt lat="36.92996172787468" lon="14.919389007750175"><ele>170.75</ele><time>2026-04-18T13:35:10Z</time></trkpt><trkpt lat="36.929972162841054" lon="14.919233516101283"><ele>171.5</ele><time>2026-04-18T13:35:11Z</time></trkpt><trkpt lat="36.929996819842835" lon="14.919079172395552"><ele>172.25</ele><time>2026-04-18T13:35:12Z</time></trkpt><trkpt lat="36.93004071892696" lon="14.918938177232167"><ele>173.0</ele><time>2026-04-18T13:35:13Z</time></trkpt><trkpt lat="36.93009148574598" lon="14.918802349098737"><ele>173.5</ele><time>2026-04-18T13:35:14Z</time></trkpt><trkpt lat="36.93015910191432" lon="14.918669991374262"><ele>174.0</ele><time>2026-04-18T13:35:15Z</time></trkpt><trkpt lat="36.93024389348511" lon="14.918550519619654"><ele>174.5</ele><time>2026-04-18T13:35:16Z</time></trkpt><trkpt lat="36.9303454941857" lon="14.918434482992664"><ele>175.0</ele><time>2026-04-18T13:35:17Z</time></trkpt><trkpt lat="36.93046562553096" lon="14.918325074546114"><ele>177.0</ele><time>2026-04-18T13:35:18Z</time></trkpt><trkpt lat="36.93060581803996" lon="14.91823001165983"><ele>179.0</ele><time>2026-04-18T13:35:19Z</time></trkpt><trkpt lat="36.93075622352317" lon="14.91814895225409"><ele>181.0</ele><time>2026-04-18T13:35:20Z</time></trkpt><trkpt lat="36.930906167900226" lon="14.91806375597334"><ele>181.0</ele><time>2026-04-18T13:35:21Z</time></trkpt><trkpt lat="36.931057498551674" lon="14.917976487827218"><ele>181.0</ele><time>2026-04-18T13:35:22Z</time></trkpt><trkpt lat="36.93121410000437" lon="14.917881645443682"><ele>181.0</ele><time>2026-04-18T13:35:23Z</time></trkpt><trkpt lat="36.9313710803732" lon="14.917780847090905"><ele>181.0</ele><time>2026-04-18T13:35:24Z</time></trkpt><trkpt lat="36.9315300507216" lon="14.91768547350285"><ele>181.0</ele><time>2026-04-18T13:35:25Z</time></trkpt><trkpt lat="36.93169531690678" lon="14.917583714413786"><ele>181.0</ele><time>2026-04-18T13:35:26Z</time></trkpt><trkpt lat="36.93185634654122" lon="14.917489870596834"><ele>183.0</ele><time>2026-04-18T13:35:27Z</time></trkpt><trkpt lat="36.93201261896269" lon="14.917387327997028"><ele>185.0</ele><time>2026-04-18T13:35:28Z</time></trkpt><trkpt lat="36.932165002729455" lon="14.917301030077605"><ele>187.0</ele><time>2026-04-18T13:35:28.999Z</time></trkpt><trkpt lat="36.93232998791834" lon="14.917209558503922"><ele>187.0</ele><time>2026-04-18T13:35:29.999Z</time></trkpt><trkpt lat="36.9324852323135" lon="14.917109807871478"><ele>187.0</ele><time>2026-04-18T13:35:30.999Z</time></trkpt><trkpt lat="36.93264055300015" lon="14.917010286977673"><ele>187.0</ele><time>2026-04-18T13:35:31.999Z</time></trkpt><trkpt lat="36.93279019578634" lon="14.916921095556983"><ele>186.5</ele><time>2026-04-18T13:35:32.999Z</time></trkpt><trkpt lat="36.932931416043594" lon="14.916835365578729"><ele>186.0</ele><time>2026-04-18T13:35:33.999Z</time></trkpt><trkpt lat="36.9330503908258" lon="14.916737528246117"><ele>185.5</ele><time>2026-04-18T13:35:34.999Z</time></trkpt><trkpt lat="36.93314543865556" lon="14.916615790524961"><ele>185.0</ele><time>2026-04-18T13:35:35.999Z</time></trkpt><trkpt lat="36.93321856509352" lon="14.916468747896847"><ele>187.0</ele><time>2026-04-18T13:35:36.999Z</time></trkpt><trkpt lat="36.93326338168695" lon="14.916316496382574"><ele>189.0</ele><time>2026-04-18T13:35:37.999Z</time></trkpt><trkpt lat="36.93328825543053" lon="14.916152658600414"><ele>191.0</ele><time>2026-04-18T13:35:38.999Z</time></trkpt><trkpt lat="36.933298806621735" lon="14.915956140671728"><ele>193.0</ele><time>2026-04-18T13:35:39.999Z</time></trkpt><trkpt lat="36.93330464356975" lon="14.915757746363447"><ele>195.0</ele><time>2026-04-18T13:35:40.999Z</time></trkpt><trkpt lat="36.93331492714163" lon="14.915568081543778"><ele>197.0</ele><time>2026-04-18T13:35:41.999Z</time></trkpt><trkpt lat="36.933314627261915" lon="14.915379757099258"><ele>199.0</ele><time>2026-04-18T13:35:42.999Z</time></trkpt><trkpt lat="36.93330039521749" lon="14.915205867889838"><ele>201.0</ele><time>2026-04-18T13:35:43.999Z</time></trkpt><trkpt lat="36.93326098685947" lon="14.915036022965907"><ele>202.0</ele><time>2026-04-18T13:35:44.999Z</time></trkpt><trkpt lat="36.93320883030021" lon="14.914875871984968"><ele>203.0</ele><time>2026-04-18T13:35:45.999Z</time></trkpt><trkpt lat="36.93313896704091" lon="14.914729972618508"><ele>204.0</ele><time>2026-04-18T13:35:46.999Z</time></trkpt><trkpt lat="36.933045077683005" lon="14.91459768641702"><ele>205.0</ele><time>2026-04-18T13:35:47.999Z</time></trkpt><trkpt lat="36.93293464110108" lon="14.914486429804528"><ele>205.0</ele><time>2026-04-18T13:35:48.999Z</time></trkpt><trkpt lat="36.93280231404088" lon="14.91438345187998"><ele>205.0</ele><time>2026-04-18T13:35:49.999Z</time></trkpt><trkpt lat="36.932648599542" lon="14.914280995600778"><ele>205.0</ele><time>2026-04-18T13:35:50.999Z</time></trkpt><trkpt lat="36.93248882808416" lon="14.914175618224688"><ele>207.66666666666666</ele><time>2026-04-18T13:35:51.999Z</time></trkpt><trkpt lat="36.93232943116892" lon="14.914071107060735"><ele>210.33333333333331</ele><time>2026-04-18T13:35:52.999Z</time></trkpt><trkpt lat="36.93217390451929" lon="14.91396476484159"><ele>213.0</ele><time>2026-04-18T13:35:53.999Z</time></trkpt><trkpt lat="36.93202205209766" lon="14.913858735315381"><ele>213.0</ele><time>2026-04-18T13:35:54.999Z</time></trkpt><trkpt lat="36.93186870725699" lon="14.9137545686903"><ele>213.0</ele><time>2026-04-18T13:35:55.999Z</time></trkpt><trkpt lat="36.931719761685684" lon="14.91365249958647"><ele>213.0</ele><time>2026-04-18T13:35:56.999Z</time></trkpt><trkpt lat="36.93157691327576" lon="14.913553294354696"><ele>215.5</ele><time>2026-04-18T13:35:57.999Z</time></trkpt><trkpt lat="36.931443230653315" lon="14.913466192039705"><ele>218.0</ele><time>2026-04-18T13:35:58.999Z</time></trkpt><trkpt lat="36.931320653961414" lon="14.913379618307244"><ele>220.5</ele><time>2026-04-18T13:35:59.999Z</time></trkpt><trkpt lat="36.93120702543798" lon="14.913276383841838"><ele>223.0</ele><time>2026-04-18T13:36:00.999Z</time></trkpt><trkpt lat="36.93110763540931" lon="14.913156221617493"><ele>223.0</ele><time>2026-04-18T13:36:01.999Z</time></trkpt><trkpt lat="36.93102305893964" lon="14.913021884742344"><ele>223.0</ele><time>2026-04-18T13:36:02.999Z</time></trkpt><trkpt lat="36.93095145400595" lon="14.912876565058857"><ele>223.0</ele><time>2026-04-18T13:36:03.999Z</time></trkpt><trkpt lat="36.930891152826476" lon="14.912713838582592"><ele>223.0</ele><time>2026-04-18T13:36:04.999Z</time></trkpt><trkpt lat="36.93084574260476" lon="14.912542187424705"><ele>224.66666666666666</ele><time>2026-04-18T13:36:05.999Z</time></trkpt><trkpt lat="36.93080261709676" lon="14.912353954036274"><ele>226.33333333333331</ele><time>2026-04-18T13:36:06.999Z</time></trkpt><trkpt lat="36.93075079740002" lon="14.912148523269025"><ele>228.0</ele><time>2026-04-18T13:36:07.999Z</time></trkpt><trkpt lat="36.930716565697026" lon="14.911946900171447"><ele>228.0</ele><time>2026-04-18T13:36:08.999Z</time></trkpt><trkpt lat="36.9306752543668" lon="14.91174441613814"><ele>228.0</ele><time>2026-04-18T13:36:09.999Z</time></trkpt><trkpt lat="36.930633282681775" lon="14.911547377301195"><ele>228.0</ele><time>2026-04-18T13:36:10.999Z</time></trkpt><trkpt lat="36.93058972658371" lon="14.911352473449826"><ele>228.0</ele><time>2026-04-18T13:36:11.999Z</time></trkpt><trkpt lat="36.930550047347936" lon="14.911160471021532"><ele>228.0</ele><time>2026-04-18T13:36:12.999Z</time></trkpt><trkpt lat="36.93050958118118" lon="14.910970584334919"><ele>228.0</ele><time>2026-04-18T13:36:13.999Z</time></trkpt><trkpt lat="36.93047101720074" lon="14.910784062444504"><ele>229.25</ele><time>2026-04-18T13:36:14.999Z</time></trkpt><trkpt lat="36.93044062015985" lon="14.910599898306694"><ele>230.5</ele><time>2026-04-18T13:36:15.999Z</time></trkpt><trkpt lat="36.930414792936396" lon="14.910418598441163"><ele>231.75</ele><time>2026-04-18T13:36:16.999Z</time></trkpt><trkpt lat="36.930395088777175" lon="14.910237546044721"><ele>233.0</ele><time>2026-04-18T13:36:17.999Z</time></trkpt><trkpt lat="36.93039098010894" lon="14.910051295492078"><ele>235.0</ele><time>2026-04-18T13:36:18.999Z</time></trkpt><trkpt lat="36.93039966455075" lon="14.909850712825788"><ele>237.0</ele><time>2026-04-18T13:36:19.999Z</time></trkpt><trkpt lat="36.93042121901286" lon="14.909645504992847"><ele>239.0</ele><time>2026-04-18T13:36:20.999Z</time></trkpt><trkpt lat="36.9304547107873" lon="14.909444394881577"><ele>240.33333333333334</ele><time>2026-04-18T13:36:21.999Z</time></trkpt><trkpt lat="36.930489620159" lon="14.909235039053737"><ele>241.66666666666669</ele><time>2026-04-18T13:36:22.999Z</time></trkpt><trkpt lat="36.930528722000176" lon="14.909021691593516"><ele>243.0</ele><time>2026-04-18T13:36:23.999Z</time></trkpt><trkpt lat="36.93057926526508" lon="14.908811058260987"><ele>243.0</ele><time>2026-04-18T13:36:24.999Z</time></trkpt><trkpt lat="36.930630995960264" lon="14.908599527866647"><ele>243.0</ele><time>2026-04-18T13:36:25.999Z</time></trkpt><trkpt lat="36.93067166270098" lon="14.908403638416095"><ele>243.0</ele><time>2026-04-18T13:36:26.999Z</time></trkpt><trkpt lat="36.930715659836714" lon="14.908230379280907"><ele>243.8</ele><time>2026-04-18T13:36:27.999Z</time></trkpt><trkpt lat="36.930771586341585" lon="14.908099741074295"><ele>244.60000000000002</ele><time>2026-04-18T13:36:28.999Z</time></trkpt><trkpt lat="36.9308436150109" lon="14.908003909364421"><ele>245.39999999999998</ele><time>2026-04-18T13:36:29.999Z</time></trkpt><trkpt lat="36.930927821572624" lon="14.907948300032134"><ele>246.2</ele><time>2026-04-18T13:36:30.999Z</time></trkpt><trkpt lat="36.931012165124315" lon="14.907905545259283"><ele>247.0</ele><time>2026-04-18T13:36:31.999Z</time></trkpt><trkpt lat="36.931112682615804" lon="14.907850945548356"><ele>248.0</ele><time>2026-04-18T13:36:32.999Z</time></trkpt><trkpt lat="36.93123359809702" lon="14.907780343307948"><ele>249.0</ele><time>2026-04-18T13:36:33.999Z</time></trkpt><trkpt lat="36.93137047583394" lon="14.90769764186161"><ele>250.0</ele><time>2026-04-18T13:36:34.999Z</time></trkpt><trkpt lat="36.93151310959874" lon="14.907610381442245"><ele>251.0</ele><time>2026-04-18T13:36:35.999Z</time></trkpt><trkpt lat="36.93166066480106" lon="14.907522052739305"><ele>252.33333333333334</ele><time>2026-04-18T13:36:36.999Z</time></trkpt><trkpt lat="36.931804349780215" lon="14.907442747514066"><ele>253.66666666666669</ele><time>2026-04-18T13:36:37.999Z</time></trkpt><trkpt lat="36.93193868969728" lon="14.907376914379947"><ele>255.0</ele><time>2026-04-18T13:36:38.999Z</time></trkpt><trkpt lat="36.93207999591763" lon="14.907318993844175"><ele>255.0</ele><time>2026-04-18T13:36:39.998Z</time></trkpt><trkpt lat="36.93223270693786" lon="14.907277809436609"><ele>255.0</ele><time>2026-04-18T13:36:40.998Z</time></trkpt><trkpt lat="36.93241534393562" lon="14.907235024632687"><ele>255.0</ele><time>2026-04-18T13:36:41.998Z</time></trkpt><trkpt lat="36.93259406902528" lon="14.907205472230117"><ele>255.66666666666669</ele><time>2026-04-18T13:36:42.998Z</time></trkpt><trkpt lat="36.93277670154804" lon="14.907177522188235"><ele>256.33333333333337</ele><time>2026-04-18T13:36:43.998Z</time></trkpt><trkpt lat="36.93295691927881" lon="14.907153106522326"><ele>257.0</ele><time>2026-04-18T13:36:45Z</time></trkpt><trkpt lat="36.93313177533162" lon="14.907128358380469"><ele>257.0</ele><time>2026-04-18T13:36:46Z</time></trkpt><trkpt lat="36.93330398624116" lon="14.907099729673552"><ele>257.0</ele><time>2026-04-18T13:36:47Z</time></trkpt><trkpt lat="36.933479990752595" lon="14.907065212231826"><ele>257.0</ele><time>2026-04-18T13:36:48Z</time></trkpt><trkpt lat="36.93365717279497" lon="14.90701688612107"><ele>255.66666666666669</ele><time>2026-04-18T13:36:49Z</time></trkpt><trkpt lat="36.93383899980713" lon="14.906990559199897"><ele>254.33333333333331</ele><time>2026-04-18T13:36:50Z</time></trkpt><trkpt lat="36.934006653773636" lon="14.906961734325535"><ele>253.0</ele><time>2026-04-18T13:36:51Z</time></trkpt><trkpt lat="36.93414717139286" lon="14.906930817173919"><ele>252.75</ele><time>2026-04-18T13:36:52Z</time></trkpt><trkpt lat="36.93427865632312" lon="14.906898278860856"><ele>252.5</ele><time>2026-04-18T13:36:53Z</time></trkpt><trkpt lat="36.934400953366826" lon="14.906845780932715"><ele>252.25</ele><time>2026-04-18T13:36:54Z</time></trkpt><trkpt lat="36.934527410228775" lon="14.906777264348742"><ele>252.0</ele><time>2026-04-18T13:36:55Z</time></trkpt><trkpt lat="36.93465312398303" lon="14.906694791175202"><ele>253.0</ele><time>2026-04-18T13:36:56Z</time></trkpt><trkpt lat="36.934781723375245" lon="14.906589857591714"><ele>254.0</ele><time>2026-04-18T13:36:57Z</time></trkpt><trkpt lat="36.934921920654816" lon="14.90647665444367"><ele>255.0</ele><time>2026-04-18T13:36:58Z</time></trkpt><trkpt lat="36.93505270922464" lon="14.906361453907191"><ele>256.0</ele><time>2026-04-18T13:36:59Z</time></trkpt><trkpt lat="36.93518439354931" lon="14.90623283676108"><ele>257.0</ele><time>2026-04-18T13:37:00Z</time></trkpt><trkpt lat="36.93531342281134" lon="14.906103259479353"><ele>258.0</ele><time>2026-04-18T13:37:01Z</time></trkpt><trkpt lat="36.935440154684564" lon="14.905976343130108"><ele>258.0</ele><time>2026-04-18T13:37:02Z</time></trkpt><trkpt lat="36.93556080760135" lon="14.90585395482845"><ele>258.0</ele><time>2026-04-18T13:37:03Z</time></trkpt><trkpt lat="36.935674199483564" lon="14.905730178697137"><ele>258.0</ele><time>2026-04-18T13:37:04Z</time></trkpt><trkpt lat="36.935772014086204" lon="14.905603975026652"><ele>258.0</ele><time>2026-04-18T13:37:05Z</time></trkpt><trkpt lat="36.93583789839045" lon="14.905448068289125"><ele>258.6666666666667</ele><time>2026-04-18T13:37:06Z</time></trkpt><trkpt lat="36.935913978086255" lon="14.905286014696452"><ele>259.33333333333337</ele><time>2026-04-18T13:37:07Z</time></trkpt><trkpt lat="36.935988083404254" lon="14.905110420425633"><ele>260.0</ele><time>2026-04-18T13:37:08Z</time></trkpt><trkpt lat="36.936064014502605" lon="14.904932684156554"><ele>260.0</ele><time>2026-04-18T13:37:09Z</time></trkpt><trkpt lat="36.93614003127661" lon="14.904743733318398"><ele>260.0</ele><time>2026-04-18T13:37:10Z</time></trkpt><trkpt lat="36.93621546001522" lon="14.904551689576252"><ele>260.0</ele><time>2026-04-18T13:37:11Z</time></trkpt><trkpt lat="36.936291441801636" lon="14.904363297092972"><ele>261.0</ele><time>2026-04-18T13:37:12Z</time></trkpt><trkpt lat="36.93636254029526" lon="14.904182229420247"><ele>262.0</ele><time>2026-04-18T13:37:13Z</time></trkpt><trkpt lat="36.936434425233365" lon="14.90401684175948"><ele>263.0</ele><time>2026-04-18T13:37:14Z</time></trkpt><trkpt lat="36.93651071022305" lon="14.903853107736817"><ele>263.0</ele><time>2026-04-18T13:37:15Z</time></trkpt><trkpt lat="36.93657707724957" lon="14.903692121066607"><ele>263.0</ele><time>2026-04-18T13:37:16Z</time></trkpt><trkpt lat="36.93662699301561" lon="14.90351943702755"><ele>263.0</ele><time>2026-04-18T13:37:17Z</time></trkpt><trkpt lat="36.93664760654943" lon="14.903338187783463"><ele>263.0</ele><time>2026-04-18T13:37:18Z</time></trkpt><trkpt lat="36.936642512497656" lon="14.903144740464423"><ele>264.33333333333337</ele><time>2026-04-18T13:37:19Z</time></trkpt><trkpt lat="36.93662405959352" lon="14.90294072142362"><ele>265.6666666666667</ele><time>2026-04-18T13:37:20Z</time></trkpt><trkpt lat="36.93660715093864" lon="14.902719451297214"><ele>267.0</ele><time>2026-04-18T13:37:21Z</time></trkpt><trkpt lat="36.93659266967972" lon="14.902505078310503"><ele>267.75</ele><time>2026-04-18T13:37:22Z</time></trkpt><trkpt lat="36.93658013099444" lon="14.902310165129967"><ele>268.5</ele><time>2026-04-18T13:37:23Z</time></trkpt><trkpt lat="36.936578698722606" lon="14.902137083586855"><ele>269.25</ele><time>2026-04-18T13:37:24Z</time></trkpt><trkpt lat="36.93659924918103" lon="14.901980424206856"><ele>270.0</ele><time>2026-04-18T13:37:25Z</time></trkpt><trkpt lat="36.936666912752784" lon="14.901847942406313"><ele>271.5</ele><time>2026-04-18T13:37:26Z</time></trkpt><trkpt lat="36.93675006959078" lon="14.901716411903163"><ele>273.0</ele><time>2026-04-18T13:37:27Z</time></trkpt><trkpt lat="36.93684925386252" lon="14.90159330977641"><ele>274.5</ele><time>2026-04-18T13:37:28Z</time></trkpt><trkpt lat="36.93694382437009" lon="14.901462347252773"><ele>276.0</ele><time>2026-04-18T13:37:29Z</time></trkpt><trkpt lat="36.93702621470933" lon="14.901346243881727"><ele>276.0</ele><time>2026-04-18T13:37:30Z</time></trkpt><trkpt lat="36.93710258223336" lon="14.901235815804778"><ele>276.0</ele><time>2026-04-18T13:37:31Z</time></trkpt><trkpt lat="36.9371635164471" lon="14.901128941210812"><ele>276.0</ele><time>2026-04-18T13:37:32Z</time></trkpt><trkpt lat="36.93717896619141" lon="14.90101874937131"><ele>276.0</ele><time>2026-04-18T13:37:33Z</time></trkpt><trkpt lat="36.93714890718599" lon="14.900921747860007"><ele>276.0</ele><time>2026-04-18T13:37:34Z</time></trkpt><trkpt lat="36.937102168001545" lon="14.900845678951242"><ele>276.5</ele><time>2026-04-18T13:37:35Z</time></trkpt><trkpt lat="36.93703870072213" lon="14.900779297614543"><ele>277.0</ele><time>2026-04-18T13:37:35.999Z</time></trkpt><trkpt lat="36.93695670750516" lon="14.900740041752835"><ele>277.5</ele><time>2026-04-18T13:37:36.999Z</time></trkpt><trkpt lat="36.936881099371774" lon="14.900739453040643"><ele>278.0</ele><time>2026-04-18T13:37:37.999Z</time></trkpt><trkpt lat="36.936809967106996" lon="14.900784791661234"><ele>278.5</ele><time>2026-04-18T13:37:38.999Z</time></trkpt><trkpt lat="36.93674753318473" lon="14.90085072259409"><ele>279.0</ele><time>2026-04-18T13:37:39.999Z</time></trkpt><trkpt lat="36.93668993812158" lon="14.900909174506946"><ele>279.0</ele><time>2026-04-18T13:37:40.999Z</time></trkpt><trkpt lat="36.93662034097604" lon="14.900924737061851"><ele>279.0</ele><time>2026-04-18T13:37:41.999Z</time></trkpt><trkpt lat="36.93654563240664" lon="14.900895881844374"><ele>279.0</ele><time>2026-04-18T13:37:42.999Z</time></trkpt><trkpt lat="36.93649259897764" lon="14.900813505813248"><ele>279.0</ele><time>2026-04-18T13:37:43.999Z</time></trkpt><trkpt lat="36.936464705707" lon="14.900703764645833"><ele>279.0</ele><time>2026-04-18T13:37:44.999Z</time></trkpt><trkpt lat="36.93645236988174" lon="14.900569232705331"><ele>279.0</ele><time>2026-04-18T13:37:45.999Z</time></trkpt><trkpt lat="36.93644370249797" lon="14.900413648149641"><ele>279.0</ele><time>2026-04-18T13:37:46.999Z</time></trkpt><trkpt lat="36.9364306155483" lon="14.900246523267667"><ele>279.0</ele><time>2026-04-18T13:37:47.999Z</time></trkpt><trkpt lat="36.936412294007134" lon="14.900086938894779"><ele>279.0</ele><time>2026-04-18T13:37:48.999Z</time></trkpt><trkpt lat="36.93639420047267" lon="14.89992266671424"><ele>279.0</ele><time>2026-04-18T13:37:49.999Z</time></trkpt><trkpt lat="36.9363708638077" lon="14.899760001947314"><ele>280.5</ele><time>2026-04-18T13:37:50.999Z</time></trkpt><trkpt lat="36.93635287409988" lon="14.899593022228279"><ele>282.0</ele><time>2026-04-18T13:37:51.999Z</time></trkpt><trkpt lat="36.936345044189665" lon="14.899436361726881"><ele>283.5</ele><time>2026-04-18T13:37:52.999Z</time></trkpt><trkpt lat="36.93636207225379" lon="14.899281392694041"><ele>285.0</ele><time>2026-04-18T13:37:53.999Z</time></trkpt><trkpt lat="36.93640427283292" lon="14.899099850674796"><ele>286.6666666666667</ele><time>2026-04-18T13:37:54.999Z</time></trkpt><trkpt lat="36.93646028206642" lon="14.898905176096802"><ele>288.33333333333337</ele><time>2026-04-18T13:37:55.999Z</time></trkpt><trkpt lat="36.93651764012923" lon="14.898727469998747"><ele>290.0</ele><time>2026-04-18T13:37:56.999Z</time></trkpt><trkpt lat="36.93657201586328" lon="14.898569475593687"><ele>290.0</ele><time>2026-04-18T13:37:57.999Z</time></trkpt><trkpt lat="36.936648369840526" lon="14.898438278953687"><ele>290.0</ele><time>2026-04-18T13:37:58.999Z</time></trkpt><trkpt lat="36.93675189993583" lon="14.898327213623878"><ele>290.0</ele><time>2026-04-18T13:37:59.999Z</time></trkpt><trkpt lat="36.93686556790831" lon="14.898215105108463"><ele>290.0</ele><time>2026-04-18T13:38:00.999Z</time></trkpt><trkpt lat="36.9369593693274" lon="14.898089422556078"><ele>291.33333333333337</ele><time>2026-04-18T13:38:01.999Z</time></trkpt><trkpt lat="36.93705499917952" lon="14.897942889695607"><ele>292.6666666666667</ele><time>2026-04-18T13:38:02.999Z</time></trkpt><trkpt lat="36.93714552007121" lon="14.897766312187102"><ele>294.0</ele><time>2026-04-18T13:38:03.999Z</time></trkpt><trkpt lat="36.93724223633294" lon="14.897561314119852"><ele>295.6666666666667</ele><time>2026-04-18T13:38:04.999Z</time></trkpt><trkpt lat="36.93733806405627" lon="14.897343486966532"><ele>297.33333333333337</ele><time>2026-04-18T13:38:05.999Z</time></trkpt><trkpt lat="36.93743898772633" lon="14.897129635285483"><ele>299.0</ele><time>2026-04-18T13:38:06.999Z</time></trkpt><trkpt lat="36.937531362905055" lon="14.896922165473088"><ele>299.6666666666667</ele><time>2026-04-18T13:38:07.999Z</time></trkpt><trkpt lat="36.93762814799336" lon="14.896709044069118"><ele>300.3333333333333</ele><time>2026-04-18T13:38:08.999Z</time></trkpt><trkpt lat="36.93772149016474" lon="14.896483431514406"><ele>301.0</ele><time>2026-04-18T13:38:09.999Z</time></trkpt><trkpt lat="36.937823948768354" lon="14.896254543949242"><ele>301.0</ele><time>2026-04-18T13:38:10.999Z</time></trkpt><trkpt lat="36.93793141655353" lon="14.896036352834772"><ele>301.0</ele><time>2026-04-18T13:38:11.999Z</time></trkpt><trkpt lat="36.938037164740685" lon="14.895816421468083"><ele>301.0</ele><time>2026-04-18T13:38:12.999Z</time></trkpt><trkpt lat="36.938133901491504" lon="14.895601231390645"><ele>301.0</ele><time>2026-04-18T13:38:13.999Z</time></trkpt><trkpt lat="36.93823114373232" lon="14.89538898184446"><ele>301.0</ele><time>2026-04-18T13:38:14.999Z</time></trkpt><trkpt lat="36.93832430182863" lon="14.895188732706012"><ele>301.0</ele><time>2026-04-18T13:38:15.999Z</time></trkpt><trkpt lat="36.93841108571331" lon="14.895001601343322"><ele>298.0</ele><time>2026-04-18T13:38:16.999Z</time></trkpt><trkpt lat="36.93849062557833" lon="14.89482527952865"><ele>295.0</ele><time>2026-04-18T13:38:17.999Z</time></trkpt><trkpt lat="36.93856723550771" lon="14.894654614896451"><ele>292.0</ele><time>2026-04-18T13:38:18.999Z</time></trkpt><trkpt lat="36.9386480191252" lon="14.894490059271297"><ele>292.0</ele><time>2026-04-18T13:38:19.999Z</time></trkpt><trkpt lat="36.938737796855605" lon="14.89433824578646"><ele>292.0</ele><time>2026-04-18T13:38:20.999Z</time></trkpt><trkpt lat="36.938849290951225" lon="14.894215253711847"><ele>292.0</ele><time>2026-04-18T13:38:21.999Z</time></trkpt><trkpt lat="36.93896160367946" lon="14.894093243624516"><ele>292.0</ele><time>2026-04-18T13:38:22.999Z</time></trkpt><trkpt lat="36.939062609664944" lon="14.893949203158227"><ele>291.0</ele><time>2026-04-18T13:38:23.999Z</time></trkpt><trkpt lat="36.939146465314835" lon="14.893802867320314"><ele>290.0</ele><time>2026-04-18T13:38:24.999Z</time></trkpt><trkpt lat="36.9392261787784" lon="14.893653123076469"><ele>289.0</ele><time>2026-04-18T13:38:25.999Z</time></trkpt><trkpt lat="36.93930374599657" lon="14.893496819419394"><ele>288.0</ele><time>2026-04-18T13:38:26.999Z</time></trkpt><trkpt lat="36.93937583203376" lon="14.89334186750943"><ele>288.0</ele><time>2026-04-18T13:38:27.999Z</time></trkpt><trkpt lat="36.93943882179037" lon="14.893185704329186"><ele>288.0</ele><time>2026-04-18T13:38:28.999Z</time></trkpt><trkpt lat="36.939497195362115" lon="14.893034901071598"><ele>288.0</ele><time>2026-04-18T13:38:29.999Z</time></trkpt><trkpt lat="36.939555957973035" lon="14.89289424734683"><ele>288.0</ele><time>2026-04-18T13:38:30.999Z</time></trkpt><trkpt lat="36.93959819100662" lon="14.892745205140187"><ele>288.0</ele><time>2026-04-18T13:38:31.999Z</time></trkpt><trkpt lat="36.939629631819756" lon="14.89259269771395"><ele>288.0</ele><time>2026-04-18T13:38:32.999Z</time></trkpt><trkpt lat="36.93965049886492" lon="14.892435782381948"><ele>288.0</ele><time>2026-04-18T13:38:33.999Z</time></trkpt><trkpt lat="36.93967660624819" lon="14.892274263199162"><ele>288.0</ele><time>2026-04-18T13:38:34.999Z</time></trkpt><trkpt lat="36.939698660103204" lon="14.89211842420297"><ele>290.2</ele><time>2026-04-18T13:38:35.999Z</time></trkpt><trkpt lat="36.9397264579546" lon="14.891990868804426"><ele>292.4</ele><time>2026-04-18T13:38:36.999Z</time></trkpt><trkpt lat="36.93976355349766" lon="14.891873427451063"><ele>294.59999999999997</ele><time>2026-04-18T13:38:37.999Z</time></trkpt><trkpt lat="36.939821659488835" lon="14.891780866964115"><ele>296.8</ele><time>2026-04-18T13:38:38.999Z</time></trkpt><trkpt lat="36.93989459868726" lon="14.891721784706341"><ele>299.0</ele><time>2026-04-18T13:38:39.999Z</time></trkpt><trkpt lat="36.9399730491813" lon="14.891677052236876"><ele>298.6666666666667</ele><time>2026-04-18T13:38:40.999Z</time></trkpt><trkpt lat="36.940043410194036" lon="14.8916386935613"><ele>298.33333333333337</ele><time>2026-04-18T13:38:41.999Z</time></trkpt><trkpt lat="36.940101408832106" lon="14.891582397053114"><ele>298.0</ele><time>2026-04-18T13:38:42.999Z</time></trkpt><trkpt lat="36.94014506678935" lon="14.891488450325586"><ele>297.6666666666667</ele><time>2026-04-18T13:38:43.999Z</time></trkpt><trkpt lat="36.94018411122204" lon="14.891387265603298"><ele>297.3333333333333</ele><time>2026-04-18T13:38:44.999Z</time></trkpt><trkpt lat="36.94021646061919" lon="14.891268247481142"><ele>297.0</ele><time>2026-04-18T13:38:45.998Z</time></trkpt><trkpt lat="36.94025610252057" lon="14.891137369066136"><ele>297.0</ele><time>2026-04-18T13:38:46.998Z</time></trkpt><trkpt lat="36.940306964773235" lon="14.891024703374288"><ele>297.0</ele><time>2026-04-18T13:38:47.998Z</time></trkpt><trkpt lat="36.94037087197967" lon="14.890917455222143"><ele>297.0</ele><time>2026-04-18T13:38:48.998Z</time></trkpt><trkpt lat="36.94044633190166" lon="14.890824767660046"><ele>297.0</ele><time>2026-04-18T13:38:49.998Z</time></trkpt><trkpt lat="36.94052188778334" lon="14.890725689676277"><ele>297.0</ele><time>2026-04-18T13:38:51Z</time></trkpt><trkpt lat="36.94059532328999" lon="14.89062534543207"><ele>300.0</ele><time>2026-04-18T13:38:52Z</time></trkpt><trkpt lat="36.940666663638744" lon="14.890524827545581"><ele>303.0</ele><time>2026-04-18T13:38:53Z</time></trkpt><trkpt lat="36.94073880572486" lon="14.890416793951086"><ele>306.0</ele><time>2026-04-18T13:38:54Z</time></trkpt><trkpt lat="36.94080494316774" lon="14.890296678040245"><ele>309.0</ele><time>2026-04-18T13:38:55Z</time></trkpt><trkpt lat="36.94087845634547" lon="14.890181793864095"><ele>311.79999999999995</ele><time>2026-04-18T13:38:56Z</time></trkpt><trkpt lat="36.94094874928148" lon="14.890077522967113"><ele>314.59999999999997</ele><time>2026-04-18T13:38:57Z</time></trkpt><trkpt lat="36.94101537589146" lon="14.88999086061087"><ele>317.4</ele><time>2026-04-18T13:38:58Z</time></trkpt><trkpt lat="36.94108859692671" lon="14.88992438745319"><ele>320.2</ele><time>2026-04-18T13:38:59Z</time></trkpt><trkpt lat="36.94117769940994" lon="14.889890118829642"><ele>323.0</ele><time>2026-04-18T13:39:00Z</time></trkpt><trkpt lat="36.94127352621316" lon="14.88987845199907"><ele>323.0</ele><time>2026-04-18T13:39:01Z</time></trkpt><trkpt lat="36.94137793457201" lon="14.889893387601314"><ele>323.0</ele><time>2026-04-18T13:39:02Z</time></trkpt><trkpt lat="36.94147965778377" lon="14.889931527082311"><ele>323.0</ele><time>2026-04-18T13:39:03Z</time></trkpt><trkpt lat="36.94156820895519" lon="14.889967114241875"><ele>323.0</ele><time>2026-04-18T13:39:04Z</time></trkpt><trkpt lat="36.94163878779495" lon="14.889988251985612"><ele>323.0</ele><time>2026-04-18T13:39:05Z</time></trkpt><trkpt lat="36.94173371910589" lon="14.889934186005853"><ele>323.0</ele><time>2026-04-18T13:39:07Z</time></trkpt><trkpt lat="36.94174078554776" lon="14.889812373324787"><ele>323.0</ele><time>2026-04-18T13:39:09Z</time></trkpt><trkpt lat="36.941639389207076" lon="14.889726439943036"><ele>323.0</ele><time>2026-04-18T13:39:11Z</time></trkpt><trkpt lat="36.94156422845077" lon="14.889712550566728"><ele>323.0</ele><time>2026-04-18T13:39:12Z</time></trkpt><trkpt lat="36.94148683311249" lon="14.889702014971606"><ele>323.0</ele><time>2026-04-18T13:39:13Z</time></trkpt><trkpt lat="36.941406211942" lon="14.889680995217484"><ele>323.0</ele><time>2026-04-18T13:39:14Z</time></trkpt><trkpt lat="36.9413242050863" lon="14.889650247058182"><ele>323.0</ele><time>2026-04-18T13:39:15Z</time></trkpt><trkpt lat="36.94124208235601" lon="14.889621755533922"><ele>323.0</ele><time>2026-04-18T13:39:16Z</time></trkpt><trkpt lat="36.941181646978926" lon="14.889579184935695"><ele>323.0</ele><time>2026-04-18T13:39:17Z</time></trkpt><trkpt lat="36.94116888154894" lon="14.889443019252287"><ele>323.0</ele><time>2026-04-18T13:39:19Z</time></trkpt><trkpt lat="36.94126709934166" lon="14.889363997974785"><ele>323.0</ele><time>2026-04-18T13:39:21Z</time></trkpt><trkpt lat="36.941351677170424" lon="14.88936293239093"><ele>323.0</ele><time>2026-04-18T13:39:22Z</time></trkpt><trkpt lat="36.94144193477799" lon="14.889367140709409"><ele>323.0</ele><time>2026-04-18T13:39:23Z</time></trkpt><trkpt lat="36.94152798808886" lon="14.889363089685"><ele>323.0</ele><time>2026-04-18T13:39:24Z</time></trkpt><trkpt lat="36.941616432747345" lon="14.889340283867028"><ele>323.0</ele><time>2026-04-18T13:39:25Z</time></trkpt><trkpt lat="36.94170025433024" lon="14.889295196084056"><ele>323.0</ele><time>2026-04-18T13:39:26Z</time></trkpt><trkpt lat="36.941783024408885" lon="14.889225942483687"><ele>326.25</ele><time>2026-04-18T13:39:27Z</time></trkpt><trkpt lat="36.941867502913084" lon="14.889128909999243"><ele>329.5</ele><time>2026-04-18T13:39:28Z</time></trkpt><trkpt lat="36.94196424179781" lon="14.889036141868504"><ele>332.75</ele><time>2026-04-18T13:39:29Z</time></trkpt><trkpt lat="36.94207013635737" lon="14.888927645101127"><ele>336.0</ele><time>2026-04-18T13:39:30Z</time></trkpt><trkpt lat="36.94217542755244" lon="14.888834851204862"><ele>336.0</ele><time>2026-04-18T13:39:31Z</time></trkpt><trkpt lat="36.942282795563344" lon="14.888717781403791"><ele>336.0</ele><time>2026-04-18T13:39:32Z</time></trkpt><trkpt lat="36.94238875755081" lon="14.888578766811172"><ele>336.0</ele><time>2026-04-18T13:39:33Z</time></trkpt><trkpt lat="36.94248703370064" lon="14.888419163370735"><ele>335.0</ele><time>2026-04-18T13:39:34Z</time></trkpt><trkpt lat="36.94256298373476" lon="14.88824446262423"><ele>334.0</ele><time>2026-04-18T13:39:35Z</time></trkpt><trkpt lat="36.94263595290846" lon="14.88807437953113"><ele>333.0</ele><time>2026-04-18T13:39:36Z</time></trkpt><trkpt lat="36.94270499419092" lon="14.887905902813802"><ele>333.0</ele><time>2026-04-18T13:39:37Z</time></trkpt><trkpt lat="36.94277806929296" lon="14.8877348831823"><ele>333.0</ele><time>2026-04-18T13:39:38Z</time></trkpt><trkpt lat="36.942840412073856" lon="14.887572914703556"><ele>333.0</ele><time>2026-04-18T13:39:39Z</time></trkpt><trkpt lat="36.942894140736136" lon="14.887405421657702"><ele>333.0</ele><time>2026-04-18T13:39:40Z</time></trkpt><trkpt lat="36.94295414474656" lon="14.887240863714904"><ele>335.0</ele><time>2026-04-18T13:39:40.999Z</time></trkpt><trkpt lat="36.94300418002045" lon="14.887081919818609"><ele>337.0</ele><time>2026-04-18T13:39:41.999Z</time></trkpt><trkpt lat="36.943066552106195" lon="14.88693669281103"><ele>339.0</ele><time>2026-04-18T13:39:42.999Z</time></trkpt><trkpt lat="36.9431397615107" lon="14.886788296875984"><ele>341.0</ele><time>2026-04-18T13:39:43.999Z</time></trkpt><trkpt lat="36.943221153419245" lon="14.886635631041244"><ele>341.75</ele><time>2026-04-18T13:39:44.999Z</time></trkpt><trkpt lat="36.94331812020557" lon="14.886492284765275"><ele>342.5</ele><time>2026-04-18T13:39:45.999Z</time></trkpt><trkpt lat="36.94341687289853" lon="14.886358677420782"><ele>343.25</ele><time>2026-04-18T13:39:46.999Z</time></trkpt><trkpt lat="36.94351276993601" lon="14.886230441722944"><ele>344.0</ele><time>2026-04-18T13:39:47.999Z</time></trkpt><trkpt lat="36.94360321130418" lon="14.886099136470131"><ele>343.25</ele><time>2026-04-18T13:39:48.999Z</time></trkpt><trkpt lat="36.943692196855594" lon="14.885982980112583"><ele>342.5</ele><time>2026-04-18T13:39:49.999Z</time></trkpt><trkpt lat="36.94377980387534" lon="14.885878485533722"><ele>341.75</ele><time>2026-04-18T13:39:50.999Z</time></trkpt><trkpt lat="36.943858733562735" lon="14.885775387180262"><ele>341.0</ele><time>2026-04-18T13:39:51.999Z</time></trkpt><trkpt lat="36.9439263863615" lon="14.885654397680826"><ele>341.0</ele><time>2026-04-18T13:39:52.999Z</time></trkpt><trkpt lat="36.94398961029576" lon="14.885517652475036"><ele>341.0</ele><time>2026-04-18T13:39:53.999Z</time></trkpt><trkpt lat="36.944046796296256" lon="14.885366145531833"><ele>341.0</ele><time>2026-04-18T13:39:54.999Z</time></trkpt><trkpt lat="36.94411188373367" lon="14.885206799834425"><ele>341.0</ele><time>2026-04-18T13:39:55.999Z</time></trkpt><trkpt lat="36.94417881202949" lon="14.885038140396901"><ele>342.0</ele><time>2026-04-18T13:39:56.999Z</time></trkpt><trkpt lat="36.9442841502733" lon="14.884884577520774"><ele>343.0</ele><time>2026-04-18T13:39:57.999Z</time></trkpt><trkpt lat="36.94432195266015" lon="14.884687318271695"><ele>344.0</ele><time>2026-04-18T13:39:58.999Z</time></trkpt><trkpt lat="36.94439561382554" lon="14.884519808904118"><ele>344.0</ele><time>2026-04-18T13:39:59.999Z</time></trkpt><trkpt lat="36.94446444061044" lon="14.88435350759778"><ele>344.0</ele><time>2026-04-18T13:40:00.999Z</time></trkpt><trkpt lat="36.94453248130403" lon="14.884191069311933"><ele>344.0</ele><time>2026-04-18T13:40:01.999Z</time></trkpt><trkpt lat="36.94462073948881" lon="14.884065573649588"><ele>344.0</ele><time>2026-04-18T13:40:02.999Z</time></trkpt><trkpt lat="36.94467597908617" lon="14.883931138513576"><ele>344.2</ele><time>2026-04-18T13:40:03.999Z</time></trkpt><trkpt lat="36.944728836334484" lon="14.883808899265782"><ele>344.4</ele><time>2026-04-18T13:40:04.999Z</time></trkpt><trkpt lat="36.94478601461975" lon="14.883683574591105"><ele>344.6</ele><time>2026-04-18T13:40:05.999Z</time></trkpt><trkpt lat="36.944844824826646" lon="14.88358253040507"><ele>344.8</ele><time>2026-04-18T13:40:06.999Z</time></trkpt><trkpt lat="36.94490861704911" lon="14.883501809345194"><ele>345.0</ele><time>2026-04-18T13:40:07.999Z</time></trkpt><trkpt lat="36.94497274835789" lon="14.883424809932734"><ele>345.1666666666667</ele><time>2026-04-18T13:40:08.999Z</time></trkpt><trkpt lat="36.94502753336012" lon="14.883352818451883"><ele>345.3333333333333</ele><time>2026-04-18T13:40:09.999Z</time></trkpt><trkpt lat="36.94507945834597" lon="14.88328676148731"><ele>345.5</ele><time>2026-04-18T13:40:10.999Z</time></trkpt><trkpt lat="36.94513965544775" lon="14.88322362379045"><ele>345.66666666666663</ele><time>2026-04-18T13:40:11.999Z</time></trkpt><trkpt lat="36.94521123587529" lon="14.883166854763399"><ele>345.8333333333333</ele><time>2026-04-18T13:40:12.999Z</time></trkpt><trkpt lat="36.94530193670407" lon="14.883134720948972"><ele>346.0</ele><time>2026-04-18T13:40:13.999Z</time></trkpt><trkpt lat="36.94541279628437" lon="14.883102839091974"><ele>345.0</ele><time>2026-04-18T13:40:14.999Z</time></trkpt><trkpt lat="36.94553522848288" lon="14.883069612272552"><ele>344.0</ele><time>2026-04-18T13:40:15.999Z</time></trkpt><trkpt lat="36.9456518711354" lon="14.88303530105342"><ele>343.0</ele><time>2026-04-18T13:40:16.999Z</time></trkpt><trkpt lat="36.9457753007446" lon="14.882998993408034"><ele>342.0</ele><time>2026-04-18T13:40:17.999Z</time></trkpt><trkpt lat="36.94591132879417" lon="14.882957903363758"><ele>340.3333333333333</ele><time>2026-04-18T13:40:18.999Z</time></trkpt><trkpt lat="36.94605932355368" lon="14.882909930429387"><ele>338.66666666666663</ele><time>2026-04-18T13:40:19.999Z</time></trkpt><trkpt lat="36.94620872898244" lon="14.882859975289485"><ele>337.0</ele><time>2026-04-18T13:40:20.999Z</time></trkpt><trkpt lat="36.94636229772902" lon="14.882809495658519"><ele>337.0</ele><time>2026-04-18T13:40:21.999Z</time></trkpt><trkpt lat="36.94651796833929" lon="14.882761423671582"><ele>337.0</ele><time>2026-04-18T13:40:22.999Z</time></trkpt><trkpt lat="36.946671626278814" lon="14.882717644796482"><ele>337.0</ele><time>2026-04-18T13:40:23.999Z</time></trkpt><trkpt lat="36.94681117854268" lon="14.882665133909125"><ele>336.5</ele><time>2026-04-18T13:40:24.999Z</time></trkpt><trkpt lat="36.946947444159356" lon="14.882652057582874"><ele>336.0</ele><time>2026-04-18T13:40:25.999Z</time></trkpt><trkpt lat="36.947073172359445" lon="14.882634901085874"><ele>335.5</ele><time>2026-04-18T13:40:26.999Z</time></trkpt><trkpt lat="36.947198417372945" lon="14.88262696643913"><ele>335.0</ele><time>2026-04-18T13:40:27.999Z</time></trkpt><trkpt lat="36.947324885061136" lon="14.88257758172646"><ele>338.6666666666667</ele><time>2026-04-18T13:40:28.999Z</time></trkpt><trkpt lat="36.947455668375575" lon="14.882492760429948"><ele>342.3333333333333</ele><time>2026-04-18T13:40:29.999Z</time></trkpt><trkpt lat="36.94761762196641" lon="14.882430440541304"><ele>346.0</ele><time>2026-04-18T13:40:30.999Z</time></trkpt><trkpt lat="36.947778553763776" lon="14.882345763758678"><ele>346.66666666666663</ele><time>2026-04-18T13:40:31.999Z</time></trkpt><trkpt lat="36.94794191600337" lon="14.882260278737096"><ele>347.3333333333333</ele><time>2026-04-18T13:40:32.999Z</time></trkpt><trkpt lat="36.948108679915954" lon="14.882173013668815"><ele>348.0</ele><time>2026-04-18T13:40:33.999Z</time></trkpt><trkpt lat="36.948272563658676" lon="14.88208725574773"><ele>346.0</ele><time>2026-04-18T13:40:34.999Z</time></trkpt><trkpt lat="36.94843630087821" lon="14.882000418342537"><ele>344.0</ele><time>2026-04-18T13:40:35.999Z</time></trkpt><trkpt lat="36.94859974712393" lon="14.881913258809679"><ele>342.0</ele><time>2026-04-18T13:40:36.999Z</time></trkpt><trkpt lat="36.94875645744464" lon="14.88182969128579"><ele>344.3333333333333</ele><time>2026-04-18T13:40:37.999Z</time></trkpt><trkpt lat="36.94890408221231" lon="14.881750968736121"><ele>346.66666666666663</ele><time>2026-04-18T13:40:38.999Z</time></trkpt><trkpt lat="36.94904233321801" lon="14.881676236303615"><ele>349.0</ele><time>2026-04-18T13:40:39.999Z</time></trkpt><trkpt lat="36.949175429509204" lon="14.881594085350672"><ele>346.0</ele><time>2026-04-18T13:40:40.999Z</time></trkpt><trkpt lat="36.949306818842174" lon="14.881505146894591"><ele>343.0</ele><time>2026-04-18T13:40:41.999Z</time></trkpt><trkpt lat="36.949439484488465" lon="14.88140532806719"><ele>340.0</ele><time>2026-04-18T13:40:42.999Z</time></trkpt><trkpt lat="36.94956690700757" lon="14.88130213792288"><ele>340.0</ele><time>2026-04-18T13:40:43.999Z</time></trkpt><trkpt lat="36.949695754470085" lon="14.881190415405134"><ele>340.0</ele><time>2026-04-18T13:40:44.999Z</time></trkpt><trkpt lat="36.949825831327104" lon="14.881077043064538"><ele>340.0</ele><time>2026-04-18T13:40:45.999Z</time></trkpt><trkpt lat="36.94995337674304" lon="14.880963124354881"><ele>343.75</ele><time>2026-04-18T13:40:46.999Z</time></trkpt><trkpt lat="36.95007220980466" lon="14.880853240440523"><ele>347.5</ele><time>2026-04-18T13:40:47.999Z</time></trkpt><trkpt lat="36.95017856849656" lon="14.880755666936299"><ele>351.25</ele><time>2026-04-18T13:40:48.999Z</time></trkpt><trkpt lat="36.950286270021614" lon="14.880665717306382"><ele>355.0</ele><time>2026-04-18T13:40:49.999Z</time></trkpt><trkpt lat="36.95040020407924" lon="14.880587789582941"><ele>355.0</ele><time>2026-04-18T13:40:50.998Z</time></trkpt><trkpt lat="36.950536116409715" lon="14.88051701908688"><ele>355.0</ele><time>2026-04-18T13:40:51.998Z</time></trkpt><trkpt lat="36.950671630575066" lon="14.88045059390757"><ele>355.0</ele><time>2026-04-18T13:40:52.998Z</time></trkpt><trkpt lat="36.95079703517127" lon="14.880387278701576"><ele>355.0</ele><time>2026-04-18T13:40:53.998Z</time></trkpt><trkpt lat="36.950905312196376" lon="14.88032749052596"><ele>354.5</ele><time>2026-04-18T13:40:54.998Z</time></trkpt><trkpt lat="36.95099635803452" lon="14.880261658201505"><ele>354.0</ele><time>2026-04-18T13:40:55.998Z</time></trkpt><trkpt lat="36.951060403681375" lon="14.880147815581138"><ele>353.5</ele><time>2026-04-18T13:40:57Z</time></trkpt><trkpt lat="36.9511477442423" lon="14.880023043741536"><ele>353.0</ele><time>2026-04-18T13:40:58Z</time></trkpt><trkpt lat="36.951231862119606" lon="14.879877082962444"><ele>355.75</ele><time>2026-04-18T13:40:59Z</time></trkpt><trkpt lat="36.951319845634316" lon="14.879724434252317"><ele>358.5</ele><time>2026-04-18T13:41:00Z</time></trkpt><trkpt lat="36.95140425988727" lon="14.87957948299926"><ele>361.25</ele><time>2026-04-18T13:41:01Z</time></trkpt><trkpt lat="36.951487447749706" lon="14.879441291031428"><ele>364.0</ele><time>2026-04-18T13:41:02Z</time></trkpt><trkpt lat="36.9515679360118" lon="14.879316176964048"><ele>364.0</ele><time>2026-04-18T13:41:03Z</time></trkpt><trkpt lat="36.951650822933324" lon="14.879185849495704"><ele>364.0</ele><time>2026-04-18T13:41:04Z</time></trkpt><trkpt lat="36.951718027859954" lon="14.879052813983732"><ele>364.0</ele><time>2026-04-18T13:41:05Z</time></trkpt><trkpt lat="36.95175558951181" lon="14.8788855923632"><ele>364.0</ele><time>2026-04-18T13:41:06Z</time></trkpt><trkpt lat="36.95176638467461" lon="14.878710196392502"><ele>363.0</ele><time>2026-04-18T13:41:07Z</time></trkpt><trkpt lat="36.95176583690252" lon="14.878537853525746"><ele>362.0</ele><time>2026-04-18T13:41:08Z</time></trkpt><trkpt lat="36.951757580313675" lon="14.87837448900579"><ele>361.0</ele><time>2026-04-18T13:41:09Z</time></trkpt><trkpt lat="36.9517577315729" lon="14.87822875740102"><ele>360.0</ele><time>2026-04-18T13:41:10Z</time></trkpt><trkpt lat="36.95177866412878" lon="14.878100595777594"><ele>362.75</ele><time>2026-04-18T13:41:11Z</time></trkpt><trkpt lat="36.95183476001366" lon="14.877996681707932"><ele>365.5</ele><time>2026-04-18T13:41:12Z</time></trkpt><trkpt lat="36.95190044018707" lon="14.87787814265218"><ele>368.25</ele><time>2026-04-18T13:41:13Z</time></trkpt><trkpt lat="36.95194773071572" lon="14.877744081993995"><ele>371.0</ele><time>2026-04-18T13:41:14Z</time></trkpt><trkpt lat="36.95196304385056" lon="14.877598206059531"><ele>371.25</ele><time>2026-04-18T13:41:15Z</time></trkpt><trkpt lat="36.951975125471385" lon="14.877434699493907"><ele>371.5</ele><time>2026-04-18T13:41:16Z</time></trkpt><trkpt lat="36.95200695532382" lon="14.877257971783584"><ele>371.75</ele><time>2026-04-18T13:41:17Z</time></trkpt><trkpt lat="36.95201291773601" lon="14.877083747122754"><ele>372.0</ele><time>2026-04-18T13:41:18Z</time></trkpt><trkpt lat="36.95205388929652" lon="14.876909773495374"><ele>372.0</ele><time>2026-04-18T13:41:19Z</time></trkpt><trkpt lat="36.95208812143753" lon="14.876740636826453"><ele>372.0</ele><time>2026-04-18T13:41:20Z</time></trkpt><trkpt lat="36.952133534167366" lon="14.876580970941982"><ele>372.0</ele><time>2026-04-18T13:41:21Z</time></trkpt><trkpt lat="36.952195122883246" lon="14.87642928317364"><ele>372.0</ele><time>2026-04-18T13:41:22Z</time></trkpt><trkpt lat="36.95226901499607" lon="14.876276277688076"><ele>372.0</ele><time>2026-04-18T13:41:23Z</time></trkpt><trkpt lat="36.95234843912039" lon="14.876115318566605"><ele>372.0</ele><time>2026-04-18T13:41:24Z</time></trkpt><trkpt lat="36.95242656242286" lon="14.875955216862318"><ele>372.0</ele><time>2026-04-18T13:41:25Z</time></trkpt><trkpt lat="36.95249571304274" lon="14.875809187374346"><ele>372.0</ele><time>2026-04-18T13:41:26Z</time></trkpt><trkpt lat="36.952559830081164" lon="14.875683444411726"><ele>371.75</ele><time>2026-04-18T13:41:27Z</time></trkpt><trkpt lat="36.95263090001145" lon="14.875573814214476"><ele>371.5</ele><time>2026-04-18T13:41:28Z</time></trkpt><trkpt lat="36.95271118548226" lon="14.875475870146357"><ele>371.25</ele><time>2026-04-18T13:41:29Z</time></trkpt><trkpt lat="36.9528109136914" lon="14.87539111893055"><ele>371.0</ele><time>2026-04-18T13:41:30Z</time></trkpt><trkpt lat="36.95291657269213" lon="14.875307178470424"><ele>371.0</ele><time>2026-04-18T13:41:31Z</time></trkpt><trkpt lat="36.95303273684476" lon="14.875215148520624"><ele>371.0</ele><time>2026-04-18T13:41:32Z</time></trkpt><trkpt lat="36.95313889306937" lon="14.875111072554619"><ele>371.0</ele><time>2026-04-18T13:41:33Z</time></trkpt><trkpt lat="36.95322821027206" lon="14.874975072780087"><ele>371.0</ele><time>2026-04-18T13:41:34Z</time></trkpt><trkpt lat="36.953306446913125" lon="14.874823937815444"><ele>371.33333333333337</ele><time>2026-04-18T13:41:35Z</time></trkpt><trkpt lat="36.95337004518851" lon="14.874651206691414"><ele>371.6666666666667</ele><time>2026-04-18T13:41:36Z</time></trkpt><trkpt lat="36.95343183248117" lon="14.874469414506834"><ele>372.0</ele><time>2026-04-18T13:41:37Z</time></trkpt><trkpt lat="36.95348282142841" lon="14.87426258091542"><ele>372.0</ele><time>2026-04-18T13:41:38Z</time></trkpt><trkpt lat="36.95355110619367" lon="14.874047703786951"><ele>372.0</ele><time>2026-04-18T13:41:39Z</time></trkpt><trkpt lat="36.95363553739058" lon="14.873847075927626"><ele>372.0</ele><time>2026-04-18T13:41:40Z</time></trkpt><trkpt lat="36.95369990500961" lon="14.873654422039193"><ele>372.0</ele><time>2026-04-18T13:41:41Z</time></trkpt><trkpt lat="36.9537613331679" lon="14.873478242506636"><ele>372.0</ele><time>2026-04-18T13:41:42Z</time></trkpt><trkpt lat="36.95382062938414" lon="14.873314718755372"><ele>372.0</ele><time>2026-04-18T13:41:43Z</time></trkpt><trkpt lat="36.95387890005296" lon="14.873158810419344"><ele>372.0</ele><time>2026-04-18T13:41:43.999Z</time></trkpt><trkpt lat="36.95393634877019" lon="14.873012739612246"><ele>373.0</ele><time>2026-04-18T13:41:44.999Z</time></trkpt><trkpt lat="36.953993710487126" lon="14.872885601469322"><ele>374.0</ele><time>2026-04-18T13:41:45.999Z</time></trkpt><trkpt lat="36.95406227637333" lon="14.872797235039078"><ele>375.0</ele><time>2026-04-18T13:41:46.999Z</time></trkpt><trkpt lat="36.954142442290554" lon="14.872743527035647"><ele>376.0</ele><time>2026-04-18T13:41:47.999Z</time></trkpt><trkpt lat="36.954238421504705" lon="14.872712695353618"><ele>377.0</ele><time>2026-04-18T13:41:48.999Z</time></trkpt><trkpt lat="36.95435797746721" lon="14.87267465691644"><ele>375.5</ele><time>2026-04-18T13:41:49.999Z</time></trkpt><trkpt lat="36.95447331846555" lon="14.872620906436813"><ele>374.0</ele><time>2026-04-18T13:41:50.999Z</time></trkpt><trkpt lat="36.95458933149428" lon="14.872539853163246"><ele>372.5</ele><time>2026-04-18T13:41:51.999Z</time></trkpt><trkpt lat="36.954707349590066" lon="14.872462341519201"><ele>371.0</ele><time>2026-04-18T13:41:52.999Z</time></trkpt><trkpt lat="36.95482348547979" lon="14.872378573476807"><ele>371.0</ele><time>2026-04-18T13:41:53.999Z</time></trkpt><trkpt lat="36.954937666649634" lon="14.872297718293067"><ele>371.0</ele><time>2026-04-18T13:41:54.999Z</time></trkpt><trkpt lat="36.95504570923012" lon="14.872221210029714"><ele>371.0</ele><time>2026-04-18T13:41:55.999Z</time></trkpt><trkpt lat="36.955157983467295" lon="14.872141705158914"><ele>371.0</ele><time>2026-04-18T13:41:56.999Z</time></trkpt><trkpt lat="36.955272980387534" lon="14.872060272288802"><ele>370.0</ele><time>2026-04-18T13:41:57.999Z</time></trkpt><trkpt lat="36.95538906952883" lon="14.871978065975984"><ele>369.0</ele><time>2026-04-18T13:41:58.999Z</time></trkpt><trkpt lat="36.955504828712755" lon="14.871893411346218"><ele>368.0</ele><time>2026-04-18T13:41:59.999Z</time></trkpt><trkpt lat="36.95562504173595" lon="14.871792082394858"><ele>367.0</ele><time>2026-04-18T13:42:00.999Z</time></trkpt><trkpt lat="36.95575480484228" lon="14.871679360280853"><ele>369.75</ele><time>2026-04-18T13:42:01.999Z</time></trkpt><trkpt lat="36.9558793631854" lon="14.871568344173168"><ele>372.5</ele><time>2026-04-18T13:42:02.999Z</time></trkpt><trkpt lat="36.955999211073284" lon="14.871455012568081"><ele>375.25</ele><time>2026-04-18T13:42:03.999Z</time></trkpt><trkpt lat="36.95611105884022" lon="14.871341879546163"><ele>378.0</ele><time>2026-04-18T13:42:04.999Z</time></trkpt><trkpt lat="36.95621900066086" lon="14.871227308240487"><ele>378.0</ele><time>2026-04-18T13:42:05.999Z</time></trkpt><trkpt lat="36.9563242617146" lon="14.871115582338026"><ele>378.0</ele><time>2026-04-18T13:42:06.999Z</time></trkpt><trkpt lat="36.9564260936919" lon="14.870988308016434"><ele>378.0</ele><time>2026-04-18T13:42:07.999Z</time></trkpt><trkpt lat="36.95649097753057" lon="14.870827251244902"><ele>378.0</ele><time>2026-04-18T13:42:08.999Z</time></trkpt><trkpt lat="36.9565192703261" lon="14.870654010784746"><ele>379.25</ele><time>2026-04-18T13:42:09.999Z</time></trkpt><trkpt lat="36.95656756982079" lon="14.870471989837812"><ele>380.5</ele><time>2026-04-18T13:42:10.999Z</time></trkpt><trkpt lat="36.956600397148996" lon="14.870311240197795"><ele>381.75</ele><time>2026-04-18T13:42:11.999Z</time></trkpt><trkpt lat="36.956634244649926" lon="14.87014441233555"><ele>383.0</ele><time>2026-04-18T13:42:12.999Z</time></trkpt><trkpt lat="36.95666632320676" lon="14.869982975736344"><ele>383.0</ele><time>2026-04-18T13:42:13.999Z</time></trkpt><trkpt lat="36.956698525242885" lon="14.86983658627859"><ele>383.0</ele><time>2026-04-18T13:42:14.999Z</time></trkpt><trkpt lat="36.95673406885375" lon="14.869703106558728"><ele>383.0</ele><time>2026-04-18T13:42:15.999Z</time></trkpt><trkpt lat="36.956785444317084" lon="14.869599411212626"><ele>383.0</ele><time>2026-04-18T13:42:16.999Z</time></trkpt><trkpt lat="36.956854741708185" lon="14.869496922156813"><ele>383.0</ele><time>2026-04-18T13:42:17.999Z</time></trkpt><trkpt lat="36.9569375492252" lon="14.869389688419025"><ele>384.75</ele><time>2026-04-18T13:42:18.999Z</time></trkpt><trkpt lat="36.9570179568691" lon="14.869266530457786"><ele>386.5</ele><time>2026-04-18T13:42:19.999Z</time></trkpt><trkpt lat="36.95708171775944" lon="14.869147062538877"><ele>388.25</ele><time>2026-04-18T13:42:20.999Z</time></trkpt><trkpt lat="36.957110302037016" lon="14.869008021249154"><ele>390.0</ele><time>2026-04-18T13:42:21.999Z</time></trkpt><trkpt lat="36.95713374141293" lon="14.868870982336938"><ele>390.0</ele><time>2026-04-18T13:42:22.999Z</time></trkpt><trkpt lat="36.95712975141887" lon="14.868735500861773"><ele>390.0</ele><time>2026-04-18T13:42:23.999Z</time></trkpt><trkpt lat="36.9571074747411" lon="14.868596065767031"><ele>390.0</ele><time>2026-04-18T13:42:24.999Z</time></trkpt><trkpt lat="36.957051276501446" lon="14.868477536460965"><ele>390.0</ele><time>2026-04-18T13:42:25.999Z</time></trkpt><trkpt lat="36.95698112648562" lon="14.868358896898831"><ele>390.6</ele><time>2026-04-18T13:42:26.999Z</time></trkpt><trkpt lat="36.95690446578532" lon="14.868234443567482"><ele>391.2</ele><time>2026-04-18T13:42:27.999Z</time></trkpt><trkpt lat="36.95687415640503" lon="14.868128877078824"><ele>391.79999999999995</ele><time>2026-04-18T13:42:28.999Z</time></trkpt><trkpt lat="36.95688541570682" lon="14.868010926430763"><ele>392.4</ele><time>2026-04-18T13:42:29.999Z</time></trkpt><trkpt lat="36.956918140305206" lon="14.867924395831075"><ele>393.0</ele><time>2026-04-18T13:42:30.999Z</time></trkpt><trkpt lat="36.95695073218255" lon="14.867848689257677"><ele>393.0</ele><time>2026-04-18T13:42:31.999Z</time></trkpt><trkpt lat="36.95699192001369" lon="14.867761572681921"><ele>393.0</ele><time>2026-04-18T13:42:32.999Z</time></trkpt><trkpt lat="36.95704337415963" lon="14.867660334037192"><ele>393.0</ele><time>2026-04-18T13:42:33.999Z</time></trkpt><trkpt lat="36.95710380963177" lon="14.867554096963785"><ele>393.0</ele><time>2026-04-18T13:42:34.999Z</time></trkpt><trkpt lat="36.95716841243795" lon="14.86746106407948"><ele>393.0</ele><time>2026-04-18T13:42:35.999Z</time></trkpt><trkpt lat="36.95724416846259" lon="14.86737400106283"><ele>393.25</ele><time>2026-04-18T13:42:36.999Z</time></trkpt><trkpt lat="36.95733370488167" lon="14.867293111591497"><ele>393.5</ele><time>2026-04-18T13:42:37.999Z</time></trkpt><trkpt lat="36.95743570360476" lon="14.867209343733748"><ele>393.75</ele><time>2026-04-18T13:42:38.999Z</time></trkpt><trkpt lat="36.957531796386604" lon="14.867127880866494"><ele>394.0</ele><time>2026-04-18T13:42:39.999Z</time></trkpt><trkpt lat="36.95761502790483" lon="14.867038560631691"><ele>394.6</ele><time>2026-04-18T13:42:40.999Z</time></trkpt><trkpt lat="36.95767361967597" lon="14.866938443643013"><ele>395.2</ele><time>2026-04-18T13:42:41.999Z</time></trkpt><trkpt lat="36.957703837895615" lon="14.866816624030319"><ele>395.8</ele><time>2026-04-18T13:42:42.999Z</time></trkpt><trkpt lat="36.95770286149896" lon="14.866674448357127"><ele>396.40000000000003</ele><time>2026-04-18T13:42:43.999Z</time></trkpt><trkpt lat="36.9577048364918" lon="14.866524452334287"><ele>397.0</ele><time>2026-04-18T13:42:44.999Z</time></trkpt><trkpt lat="36.957697977075505" lon="14.866361289511044"><ele>397.0</ele><time>2026-04-18T13:42:45.999Z</time></trkpt><trkpt lat="36.957711455129925" lon="14.866176417568711"><ele>397.0</ele><time>2026-04-18T13:42:46.999Z</time></trkpt><trkpt lat="36.957693928302106" lon="14.86600171371945"><ele>397.0</ele><time>2026-04-18T13:42:47.999Z</time></trkpt><trkpt lat="36.957708184431375" lon="14.86581706574206"><ele>397.0</ele><time>2026-04-18T13:42:48.999Z</time></trkpt><trkpt lat="36.9576894754144" lon="14.86562955135593"><ele>395.25</ele><time>2026-04-18T13:42:49.999Z</time></trkpt><trkpt lat="36.95768719450019" lon="14.865451720584812"><ele>393.5</ele><time>2026-04-18T13:42:50.999Z</time></trkpt><trkpt lat="36.95768536109934" lon="14.865280799509705"><ele>391.75</ele><time>2026-04-18T13:42:51.999Z</time></trkpt><trkpt lat="36.95768984494793" lon="14.86512542991647"><ele>390.0</ele><time>2026-04-18T13:42:52.998Z</time></trkpt><trkpt lat="36.95769464539406" lon="14.864977692065633"><ele>389.25</ele><time>2026-04-18T13:42:53.998Z</time></trkpt><trkpt lat="36.9576870275214" lon="14.86482919520023"><ele>388.5</ele><time>2026-04-18T13:42:54.998Z</time></trkpt><trkpt lat="36.95767107146702" lon="14.864691174764706"><ele>387.75</ele><time>2026-04-18T13:42:55.998Z</time></trkpt><trkpt lat="36.95763193331185" lon="14.864564646758764"><ele>387.0</ele><time>2026-04-18T13:42:56.998Z</time></trkpt><trkpt lat="36.95757628244291" lon="14.86444229112986"><ele>386.0</ele><time>2026-04-18T13:42:57.998Z</time></trkpt><trkpt lat="36.95750859483317" lon="14.8643197425406"><ele>385.0</ele><time>2026-04-18T13:42:58.998Z</time></trkpt><trkpt lat="36.95742814355008" lon="14.864189184968344"><ele>384.0</ele><time>2026-04-18T13:42:59.998Z</time></trkpt><trkpt lat="36.957346622753" lon="14.864045436041554"><ele>383.0</ele><time>2026-04-18T13:43:00.998Z</time></trkpt><trkpt lat="36.95727538799641" lon="14.863890951035655"><ele>383.0</ele><time>2026-04-18T13:43:01.998Z</time></trkpt><trkpt lat="36.95721700712424" lon="14.86373089723719"><ele>383.0</ele><time>2026-04-18T13:43:03Z</time></trkpt><trkpt lat="36.95717178045959" lon="14.863585837063763"><ele>383.0</ele><time>2026-04-18T13:43:04Z</time></trkpt><trkpt lat="36.9571453877957" lon="14.863459344674782"><ele>383.0</ele><time>2026-04-18T13:43:05Z</time></trkpt><trkpt lat="36.9571357749136" lon="14.863346399523051"><ele>384.2</ele><time>2026-04-18T13:43:06Z</time></trkpt><trkpt lat="36.95715566072276" lon="14.863238397245954"><ele>385.4</ele><time>2026-04-18T13:43:07Z</time></trkpt><trkpt lat="36.95720286401135" lon="14.863132000905809"><ele>386.59999999999997</ele><time>2026-04-18T13:43:08Z</time></trkpt><trkpt lat="36.957275605838205" lon="14.863048094914271"><ele>387.79999999999995</ele><time>2026-04-18T13:43:09Z</time></trkpt><trkpt lat="36.95734607853521" lon="14.862962686010263"><ele>389.0</ele><time>2026-04-18T13:43:10Z</time></trkpt><trkpt lat="36.95742613924179" lon="14.862854747923292"><ele>389.0</ele><time>2026-04-18T13:43:11Z</time></trkpt><trkpt lat="36.95747825252556" lon="14.862718872787902"><ele>389.0</ele><time>2026-04-18T13:43:12Z</time></trkpt><trkpt lat="36.957480615519835" lon="14.862566620908535"><ele>389.0</ele><time>2026-04-18T13:43:13Z</time></trkpt><trkpt lat="36.95748995638125" lon="14.862408340625333"><ele>389.0</ele><time>2026-04-18T13:43:14Z</time></trkpt><trkpt lat="36.95749963979619" lon="14.862247527812858"><ele>391.25</ele><time>2026-04-18T13:43:15Z</time></trkpt><trkpt lat="36.95754964657355" lon="14.86210539873881"><ele>393.5</ele><time>2026-04-18T13:43:16Z</time></trkpt><trkpt lat="36.95760234457306" lon="14.861961890985674"><ele>395.75</ele><time>2026-04-18T13:43:17Z</time></trkpt><trkpt lat="36.95763761096249" lon="14.861811105217017"><ele>398.0</ele><time>2026-04-18T13:43:18Z</time></trkpt><trkpt lat="36.957647748943266" lon="14.861653933148796"><ele>398.0</ele><time>2026-04-18T13:43:19Z</time></trkpt><trkpt lat="36.95761096565141" lon="14.861488716421444"><ele>398.0</ele><time>2026-04-18T13:43:20Z</time></trkpt><trkpt lat="36.95759077083129" lon="14.861326061489155"><ele>398.0</ele><time>2026-04-18T13:43:21Z</time></trkpt><trkpt lat="36.95756873827588" lon="14.86114371580387"><ele>398.0</ele><time>2026-04-18T13:43:22Z</time></trkpt><trkpt lat="36.95756800729416" lon="14.860965759996047"><ele>400.0</ele><time>2026-04-18T13:43:23Z</time></trkpt><trkpt lat="36.95756971635006" lon="14.860788147282648"><ele>402.0</ele><time>2026-04-18T13:43:24Z</time></trkpt><trkpt lat="36.95756946619523" lon="14.860611003699628"><ele>404.0</ele><time>2026-04-18T13:43:25Z</time></trkpt><trkpt lat="36.9575746669957" lon="14.860439458217023"><ele>406.0</ele><time>2026-04-18T13:43:26Z</time></trkpt><trkpt lat="36.95761690920557" lon="14.860255930014155"><ele>405.33333333333337</ele><time>2026-04-18T13:43:27Z</time></trkpt><trkpt lat="36.95766259128415" lon="14.860044150575854"><ele>404.66666666666663</ele><time>2026-04-18T13:43:28Z</time></trkpt><trkpt lat="36.9577181206415" lon="14.859800245432293"><ele>404.0</ele><time>2026-04-18T13:43:29Z</time></trkpt><trkpt lat="36.95776982479155" lon="14.85954497313461"><ele>404.0</ele><time>2026-04-18T13:43:30Z</time></trkpt><trkpt lat="36.95781289502899" lon="14.859304125999989"><ele>404.0</ele><time>2026-04-18T13:43:31Z</time></trkpt><trkpt lat="36.957853357755276" lon="14.859060628511713"><ele>404.0</ele><time>2026-04-18T13:43:32Z</time></trkpt><trkpt lat="36.957894791384426" lon="14.858811288281226"><ele>402.66666666666663</ele><time>2026-04-18T13:43:33Z</time></trkpt><trkpt lat="36.95794113851143" lon="14.858559192135514"><ele>401.33333333333337</ele><time>2026-04-18T13:43:34Z</time></trkpt><trkpt lat="36.9579864382426" lon="14.858315884648935"><ele>400.0</ele><time>2026-04-18T13:43:35Z</time></trkpt><trkpt lat="36.9580297162026" lon="14.858083436806238"><ele>400.0</ele><time>2026-04-18T13:43:36Z</time></trkpt><trkpt lat="36.958072813124225" lon="14.857850677245647"><ele>400.0</ele><time>2026-04-18T13:43:37Z</time></trkpt><trkpt lat="36.95811866140365" lon="14.857623995963328"><ele>400.0</ele><time>2026-04-18T13:43:38Z</time></trkpt><trkpt lat="36.95816810556264" lon="14.857429653517773"><ele>400.0</ele><time>2026-04-18T13:43:39Z</time></trkpt><trkpt lat="36.95821793196089" lon="14.857278679341789"><ele>400.0</ele><time>2026-04-18T13:43:40Z</time></trkpt><trkpt lat="36.958286193999754" lon="14.857147361354976"><ele>400.0</ele><time>2026-04-18T13:43:41Z</time></trkpt><trkpt lat="36.95837128962958" lon="14.85701154814808"><ele>400.0</ele><time>2026-04-18T13:43:42Z</time></trkpt><trkpt lat="36.9584726081673" lon="14.856864890687403"><ele>403.6666666666667</ele><time>2026-04-18T13:43:43Z</time></trkpt><trkpt lat="36.958577556859275" lon="14.85671203554353"><ele>407.33333333333337</ele><time>2026-04-18T13:43:44Z</time></trkpt><trkpt lat="36.95868568582129" lon="14.856554548772715"><ele>411.0</ele><time>2026-04-18T13:43:45Z</time></trkpt><trkpt lat="36.958794690249285" lon="14.856403518887152"><ele>411.0</ele><time>2026-04-18T13:43:46Z</time></trkpt><trkpt lat="36.95890299862813" lon="14.856254550862324"><ele>411.0</ele><time>2026-04-18T13:43:47Z</time></trkpt><trkpt lat="36.95900888467419" lon="14.856111974550004"><ele>411.0</ele><time>2026-04-18T13:43:48Z</time></trkpt><trkpt lat="36.95911225114163" lon="14.85596673140755"><ele>414.75</ele><time>2026-04-18T13:43:49Z</time></trkpt><trkpt lat="36.95920760002153" lon="14.855824830701"><ele>418.5</ele><time>2026-04-18T13:43:49.999Z</time></trkpt><trkpt lat="36.959300919692154" lon="14.855684395975693"><ele>422.25</ele><time>2026-04-18T13:43:50.999Z</time></trkpt><trkpt lat="36.95939242913821" lon="14.855540896235278"><ele>426.0</ele><time>2026-04-18T13:43:51.999Z</time></trkpt><trkpt lat="36.959480595836524" lon="14.855397694305273"><ele>426.0</ele><time>2026-04-18T13:43:52.999Z</time></trkpt><trkpt lat="36.959547555624546" lon="14.855238510891834"><ele>426.0</ele><time>2026-04-18T13:43:53.999Z</time></trkpt><trkpt lat="36.959596029217664" lon="14.855105720571931"><ele>426.0</ele><time>2026-04-18T13:43:54.999Z</time></trkpt><trkpt lat="36.95963920893982" lon="14.854973602346575"><ele>426.0</ele><time>2026-04-18T13:43:55.999Z</time></trkpt><trkpt lat="36.95968568356829" lon="14.854841563485348"><ele>425.4</ele><time>2026-04-18T13:43:56.999Z</time></trkpt><trkpt lat="36.95971570620155" lon="14.854713448947209"><ele>424.8</ele><time>2026-04-18T13:43:57.999Z</time></trkpt><trkpt lat="36.959725025331636" lon="14.854588349465264"><ele>424.2</ele><time>2026-04-18T13:43:58.999Z</time></trkpt><trkpt lat="36.95970296557047" lon="14.854466865429508"><ele>423.59999999999997</ele><time>2026-04-18T13:43:59.999Z</time></trkpt><trkpt lat="36.95964463936801" lon="14.854354849628475"><ele>423.0</ele><time>2026-04-18T13:44:00.999Z</time></trkpt><trkpt lat="36.95958574228648" lon="14.854245919953371"><ele>423.0</ele><time>2026-04-18T13:44:01.999Z</time></trkpt><trkpt lat="36.95949985292631" lon="14.854133257336459"><ele>423.0</ele><time>2026-04-18T13:44:02.999Z</time></trkpt><trkpt lat="36.95939388505992" lon="14.85401064813744"><ele>423.0</ele><time>2026-04-18T13:44:03.999Z</time></trkpt><trkpt lat="36.959291823244264" lon="14.853888465476585"><ele>423.0</ele><time>2026-04-18T13:44:04.999Z</time></trkpt><trkpt lat="36.95921260752502" lon="14.853776254061342"><ele>422.79999999999995</ele><time>2026-04-18T13:44:05.999Z</time></trkpt><trkpt lat="36.95914688114725" lon="14.85367325872498"><ele>422.6</ele><time>2026-04-18T13:44:06.999Z</time></trkpt><trkpt lat="36.95907957828255" lon="14.853591035683753"><ele>422.4</ele><time>2026-04-18T13:44:07.999Z</time></trkpt><trkpt lat="36.95900202888246" lon="14.853540848620899"><ele>422.20000000000005</ele><time>2026-04-18T13:44:08.999Z</time></trkpt><trkpt lat="36.95892152285288" lon="14.853519482249274"><ele>422.0</ele><time>2026-04-18T13:44:09.999Z</time></trkpt><trkpt lat="36.958839031533415" lon="14.853531568943204"><ele>422.0</ele><time>2026-04-18T13:44:10.999Z</time></trkpt><trkpt lat="36.958748676276606" lon="14.853578867251157"><ele>422.0</ele><time>2026-04-18T13:44:11.999Z</time></trkpt><trkpt lat="36.958661489322616" lon="14.853649793991588"><ele>422.0</ele><time>2026-04-18T13:44:12.999Z</time></trkpt><trkpt lat="36.95856874511406" lon="14.85373669063016"><ele>422.0</ele><time>2026-04-18T13:44:13.999Z</time></trkpt><trkpt lat="36.95846887373574" lon="14.853832286271496"><ele>422.0</ele><time>2026-04-18T13:44:14.999Z</time></trkpt><trkpt lat="36.95834917306082" lon="14.853929274959535"><ele>422.20000000000005</ele><time>2026-04-18T13:44:15.999Z</time></trkpt><trkpt lat="36.95824207742096" lon="14.854014004284442"><ele>422.4</ele><time>2026-04-18T13:44:16.999Z</time></trkpt><trkpt lat="36.95814713490051" lon="14.854092485874798"><ele>422.6</ele><time>2026-04-18T13:44:17.999Z</time></trkpt><trkpt lat="36.95805754854377" lon="14.85416331166621"><ele>422.79999999999995</ele><time>2026-04-18T13:44:18.999Z</time></trkpt><trkpt lat="36.95797349004381" lon="14.854211432667368"><ele>423.0</ele><time>2026-04-18T13:44:19.999Z</time></trkpt><trkpt lat="36.957890563310244" lon="14.854231570332178"><ele>423.0</ele><time>2026-04-18T13:44:20.999Z</time></trkpt><trkpt lat="36.95780904705533" lon="14.854214076001842"><ele>423.0</ele><time>2026-04-18T13:44:21.999Z</time></trkpt><trkpt lat="36.95773616536536" lon="14.854169859711915"><ele>423.0</ele><time>2026-04-18T13:44:22.999Z</time></trkpt><trkpt lat="36.95769275730677" lon="14.854079227304354"><ele>423.0</ele><time>2026-04-18T13:44:23.999Z</time></trkpt><trkpt lat="36.95765863535356" lon="14.853986332235248"><ele>423.0</ele><time>2026-04-18T13:44:24.999Z</time></trkpt><trkpt lat="36.95764025751776" lon="14.853882107199492"><ele>423.0</ele><time>2026-04-18T13:44:25.999Z</time></trkpt><trkpt lat="36.95762582998885" lon="14.853763082901969"><ele>423.0</ele><time>2026-04-18T13:44:26.999Z</time></trkpt><trkpt lat="36.95761153671227" lon="14.853637788098617"><ele>423.0</ele><time>2026-04-18T13:44:27.999Z</time></trkpt><trkpt lat="36.957597967539414" lon="14.853504659301876"><ele>423.0</ele><time>2026-04-18T13:44:28.999Z</time></trkpt><trkpt lat="36.95758527213456" lon="14.85336738208407"><ele>423.0</ele><time>2026-04-18T13:44:29.999Z</time></trkpt><trkpt lat="36.95757220694119" lon="14.85322610621614"><ele>423.0</ele><time>2026-04-18T13:44:30.999Z</time></trkpt><trkpt lat="36.95756169288483" lon="14.853088172748654"><ele>425.4</ele><time>2026-04-18T13:44:31.999Z</time></trkpt><trkpt lat="36.95756421798772" lon="14.8529548354657"><ele>427.79999999999995</ele><time>2026-04-18T13:44:32.999Z</time></trkpt><trkpt lat="36.95758059913068" lon="14.85283020584676"><ele>430.2</ele><time>2026-04-18T13:44:33.999Z</time></trkpt><trkpt lat="36.9576242349076" lon="14.852721744428052"><ele>432.6</ele><time>2026-04-18T13:44:34.999Z</time></trkpt><trkpt lat="36.95768157657767" lon="14.852625782718265"><ele>435.0</ele><time>2026-04-18T13:44:35.999Z</time></trkpt><trkpt lat="36.957746067470005" lon="14.852525951576888"><ele>436.6</ele><time>2026-04-18T13:44:36.999Z</time></trkpt><trkpt lat="36.95780772806621" lon="14.852415614893847"><ele>438.2</ele><time>2026-04-18T13:44:37.999Z</time></trkpt><trkpt lat="36.95784677674219" lon="14.852288109926723"><ele>439.79999999999995</ele><time>2026-04-18T13:44:38.999Z</time></trkpt><trkpt lat="36.957847569008244" lon="14.852159078954301"><ele>441.4</ele><time>2026-04-18T13:44:39.999Z</time></trkpt><trkpt lat="36.95781293975335" lon="14.852037218484167"><ele>443.0</ele><time>2026-04-18T13:44:40.999Z</time></trkpt><trkpt lat="36.9577860142382" lon="14.851917369618095"><ele>443.59999999999997</ele><time>2026-04-18T13:44:41.999Z</time></trkpt><trkpt lat="36.95777127618607" lon="14.85178976179664"><ele>444.19999999999993</ele><time>2026-04-18T13:44:42.999Z</time></trkpt><trkpt lat="36.9577540405736" lon="14.851663435755789"><ele>444.8</ele><time>2026-04-18T13:44:43.999Z</time></trkpt><trkpt lat="36.95775545049108" lon="14.851548234813896"><ele>445.4</ele><time>2026-04-18T13:44:44.999Z</time></trkpt><trkpt lat="36.95776971765287" lon="14.85141908381646"><ele>446.0</ele><time>2026-04-18T13:44:45.999Z</time></trkpt><trkpt lat="36.95779044884508" lon="14.851279130776618"><ele>446.0</ele><time>2026-04-18T13:44:46.999Z</time></trkpt><trkpt lat="36.957821625103946" lon="14.85112951450101"><ele>446.0</ele><time>2026-04-18T13:44:47.999Z</time></trkpt><trkpt lat="36.957855035251725" lon="14.850972729617446"><ele>446.0</ele><time>2026-04-18T13:44:48.999Z</time></trkpt><trkpt lat="36.95789109665118" lon="14.850803503696854"><ele>446.0</ele><time>2026-04-18T13:44:49.999Z</time></trkpt><trkpt lat="36.95792763995553" lon="14.85063587327669"><ele>446.0</ele><time>2026-04-18T13:44:50.999Z</time></trkpt><trkpt lat="36.95796528197376" lon="14.85045779540614"><ele>446.0</ele><time>2026-04-18T13:44:51.999Z</time></trkpt><trkpt lat="36.95799910857932" lon="14.850265293769622"><ele>446.0</ele><time>2026-04-18T13:44:52.999Z</time></trkpt><trkpt lat="36.95802994135845" lon="14.850065722224196"><ele>446.0</ele><time>2026-04-18T13:44:53.999Z</time></trkpt><trkpt lat="36.95805703803551" lon="14.849875842074441"><ele>446.0</ele><time>2026-04-18T13:44:54.999Z</time></trkpt><trkpt lat="36.95808101527977" lon="14.849681692946884"><ele>446.0</ele><time>2026-04-18T13:44:55.999Z</time></trkpt><trkpt lat="36.958105006373415" lon="14.849482389108724"><ele>448.3333333333333</ele><time>2026-04-18T13:44:56.999Z</time></trkpt><trkpt lat="36.958129268546735" lon="14.849280833230619"><ele>450.66666666666663</ele><time>2026-04-18T13:44:57.999Z</time></trkpt><trkpt lat="36.958152350501734" lon="14.849089081873966"><ele>453.0</ele><time>2026-04-18T13:44:58.999Z</time></trkpt><trkpt lat="36.95815999128237" lon="14.848900004687"><ele>453.0</ele><time>2026-04-18T13:44:59.999Z</time></trkpt><trkpt lat="36.958204293104465" lon="14.848737733964066"><ele>453.0</ele><time>2026-04-18T13:45:00.998Z</time></trkpt><trkpt lat="36.95822522773497" lon="14.848576562186619"><ele>453.0</ele><time>2026-04-18T13:45:01.998Z</time></trkpt><trkpt lat="36.958260235594736" lon="14.848415753816713"><ele>453.0</ele><time>2026-04-18T13:45:02.998Z</time></trkpt><trkpt lat="36.958291010289024" lon="14.848265220563928"><ele>453.59999999999997</ele><time>2026-04-18T13:45:03.998Z</time></trkpt><trkpt lat="36.95832543391518" lon="14.848138214393542"><ele>454.19999999999993</ele><time>2026-04-18T13:45:04.998Z</time></trkpt><trkpt lat="36.95836259985371" lon="14.848021696917094"><ele>454.8</ele><time>2026-04-18T13:45:05.998Z</time></trkpt><trkpt lat="36.958431424506884" lon="14.84792989858345"><ele>455.4</ele><time>2026-04-18T13:45:06.998Z</time></trkpt><trkpt lat="36.95849692712578" lon="14.847821758365644"><ele>456.0</ele><time>2026-04-18T13:45:07.998Z</time></trkpt><trkpt lat="36.95857180818305" lon="14.847702905656856"><ele>455.0</ele><time>2026-04-18T13:45:09Z</time></trkpt><trkpt lat="36.95865458146676" lon="14.847577959877771"><ele>454.0</ele><time>2026-04-18T13:45:10Z</time></trkpt><trkpt lat="36.95874214675743" lon="14.847463081281813"><ele>453.0</ele><time>2026-04-18T13:45:11Z</time></trkpt><trkpt lat="36.95883130608874" lon="14.8473537348432"><ele>452.0</ele><time>2026-04-18T13:45:12Z</time></trkpt><trkpt lat="36.95892017831703" lon="14.847246542526063"><ele>452.0</ele><time>2026-04-18T13:45:13Z</time></trkpt><trkpt lat="36.95901232990629" lon="14.847145285568645"><ele>452.00000000000006</ele><time>2026-04-18T13:45:14Z</time></trkpt><trkpt lat="36.95908501848593" lon="14.847047981916559"><ele>452.00000000000006</ele><time>2026-04-18T13:45:15Z</time></trkpt><trkpt lat="36.959136693384856" lon="14.846948391596998"><ele>452.0</ele><time>2026-04-18T13:45:16Z</time></trkpt><trkpt lat="36.95916284581519" lon="14.846837107854391"><ele>452.0</ele><time>2026-04-18T13:45:17Z</time></trkpt><trkpt lat="36.95916968057571" lon="14.846721726617131"><ele>450.6</ele><time>2026-04-18T13:45:18Z</time></trkpt><trkpt lat="36.95917185256476" lon="14.84660005844671"><ele>449.20000000000005</ele><time>2026-04-18T13:45:19Z</time></trkpt><trkpt lat="36.9591571362984" lon="14.846470680453313"><ele>447.8</ele><time>2026-04-18T13:45:20Z</time></trkpt><trkpt lat="36.959163492434136" lon="14.846327446293554"><ele>446.4</ele><time>2026-04-18T13:45:21Z</time></trkpt><trkpt lat="36.959169583026615" lon="14.846174426038795"><ele>445.0</ele><time>2026-04-18T13:45:22Z</time></trkpt><trkpt lat="36.959171515987165" lon="14.846031703093967"><ele>444.0</ele><time>2026-04-18T13:45:23Z</time></trkpt><trkpt lat="36.95917201917321" lon="14.84588961170154"><ele>443.0</ele><time>2026-04-18T13:45:24Z</time></trkpt><trkpt lat="36.95918226918831" lon="14.845766209458908"><ele>442.0</ele><time>2026-04-18T13:45:25Z</time></trkpt><trkpt lat="36.95921857480504" lon="14.845695650339914"><ele>441.0</ele><time>2026-04-18T13:45:26Z</time></trkpt><trkpt lat="36.95930494175134" lon="14.845616148439742"><ele>440.0</ele><time>2026-04-18T13:45:28Z</time></trkpt><trkpt lat="36.95942514433096" lon="14.845582643587726"><ele>438.2</ele><time>2026-04-18T13:45:30Z</time></trkpt><trkpt lat="36.959510620172324" lon="14.845572154195954"><ele>436.4</ele><time>2026-04-18T13:45:31Z</time></trkpt><trkpt lat="36.95960351371132" lon="14.84555702418282"><ele>434.6</ele><time>2026-04-18T13:45:32Z</time></trkpt><trkpt lat="36.95970598945804" lon="14.845538592436396"><ele>432.8</ele><time>2026-04-18T13:45:33Z</time></trkpt><trkpt lat="36.959814469489544" lon="14.84551328212523"><ele>431.0</ele><time>2026-04-18T13:45:34Z</time></trkpt><trkpt lat="36.95991725258836" lon="14.845484797208629"><ele>431.0</ele><time>2026-04-18T13:45:35Z</time></trkpt><trkpt lat="36.96001735880845" lon="14.845448616847678"><ele>431.0</ele><time>2026-04-18T13:45:36Z</time></trkpt><trkpt lat="36.960113719018224" lon="14.845401433046622"><ele>431.0</ele><time>2026-04-18T13:45:37Z</time></trkpt><trkpt lat="36.960199098602025" lon="14.845319591429858"><ele>431.0</ele><time>2026-04-18T13:45:38Z</time></trkpt><trkpt lat="36.96026583054693" lon="14.845217475176016"><ele>431.0</ele><time>2026-04-18T13:45:39Z</time></trkpt><trkpt lat="36.96030358185021" lon="14.845095821643307"><ele>430.0</ele><time>2026-04-18T13:45:40Z</time></trkpt><trkpt lat="36.960353908215325" lon="14.844974809657694"><ele>429.0</ele><time>2026-04-18T13:45:41Z</time></trkpt><trkpt lat="36.960425229124255" lon="14.844850066607696"><ele>428.0</ele><time>2026-04-18T13:45:42Z</time></trkpt><trkpt lat="36.96048584969203" lon="14.844709865460379"><ele>427.0</ele><time>2026-04-18T13:45:43Z</time></trkpt><trkpt lat="36.96055046884522" lon="14.844560441981734"><ele>427.0</ele><time>2026-04-18T13:45:44Z</time></trkpt><trkpt lat="36.96061407021187" lon="14.844413823153348"><ele>427.0</ele><time>2026-04-18T13:45:45Z</time></trkpt><trkpt lat="36.960677365657304" lon="14.84426856271265"><ele>427.0</ele><time>2026-04-18T13:45:46Z</time></trkpt><trkpt lat="36.96074111259975" lon="14.84412226614737"><ele>427.0</ele><time>2026-04-18T13:45:47Z</time></trkpt><trkpt lat="36.96080243545689" lon="14.843981532688952"><ele>425.25</ele><time>2026-04-18T13:45:48Z</time></trkpt><trkpt lat="36.960863525451465" lon="14.843840376520532"><ele>423.5</ele><time>2026-04-18T13:45:49Z</time></trkpt><trkpt lat="36.96091939470046" lon="14.843709878238421"><ele>421.75</ele><time>2026-04-18T13:45:50Z</time></trkpt><trkpt lat="36.96097791158827" lon="14.843573195726151"><ele>420.0</ele><time>2026-04-18T13:45:51Z</time></trkpt><trkpt lat="36.96103732945244" lon="14.843424132790341"><ele>419.5</ele><time>2026-04-18T13:45:52Z</time></trkpt><trkpt lat="36.96108273297907" lon="14.843260362349639"><ele>419.0</ele><time>2026-04-18T13:45:53Z</time></trkpt><trkpt lat="36.96114237172284" lon="14.843108135037804"><ele>418.5</ele><time>2026-04-18T13:45:54Z</time></trkpt><trkpt lat="36.96119085640355" lon="14.842940211406374"><ele>418.0</ele><time>2026-04-18T13:45:55Z</time></trkpt><trkpt lat="36.96123735429778" lon="14.84276628034256"><ele>416.33333333333337</ele><time>2026-04-18T13:45:56Z</time></trkpt><trkpt lat="36.961279483284244" lon="14.842574325624566"><ele>414.66666666666663</ele><time>2026-04-18T13:45:56.999Z</time></trkpt><trkpt lat="36.961316748801806" lon="14.842390177471202"><ele>413.0</ele><time>2026-04-18T13:45:57.999Z</time></trkpt><trkpt lat="36.961350465400294" lon="14.842203386939964"><ele>413.0</ele><time>2026-04-18T13:45:58.999Z</time></trkpt><trkpt lat="36.96137565153757" lon="14.842021686627664"><ele>413.0</ele><time>2026-04-18T13:45:59.999Z</time></trkpt><trkpt lat="36.96140419790996" lon="14.841837669073842"><ele>413.0</ele><time>2026-04-18T13:46:00.999Z</time></trkpt><trkpt lat="36.96142854851321" lon="14.841663200544541"><ele>413.0</ele><time>2026-04-18T13:46:01.999Z</time></trkpt><trkpt lat="36.9614496380524" lon="14.841496671061714"><ele>413.0</ele><time>2026-04-18T13:46:02.999Z</time></trkpt><trkpt lat="36.96146875016469" lon="14.8413430478637"><ele>413.0</ele><time>2026-04-18T13:46:03.999Z</time></trkpt><trkpt lat="36.96147323734049" lon="14.841191876375706"><ele>413.0</ele><time>2026-04-18T13:46:04.999Z</time></trkpt><trkpt lat="36.961474976152104" lon="14.84104389782822"><ele>413.0</ele><time>2026-04-18T13:46:05.999Z</time></trkpt><trkpt lat="36.96147008803244" lon="14.840902277501199"><ele>413.2</ele><time>2026-04-18T13:46:06.999Z</time></trkpt><trkpt lat="36.96145886955148" lon="14.840764320631102"><ele>413.4</ele><time>2026-04-18T13:46:07.999Z</time></trkpt><trkpt lat="36.96143960435616" lon="14.840627736969923"><ele>413.59999999999997</ele><time>2026-04-18T13:46:08.999Z</time></trkpt><trkpt lat="36.96141755911787" lon="14.840508404543204"><ele>413.79999999999995</ele><time>2026-04-18T13:46:09.999Z</time></trkpt><trkpt lat="36.96139911480174" lon="14.840404079886119"><ele>414.0</ele><time>2026-04-18T13:46:10.999Z</time></trkpt><trkpt lat="36.961394459928165" lon="14.840314552429819"><ele>414.0</ele><time>2026-04-18T13:46:11.999Z</time></trkpt><trkpt lat="36.961440065864274" lon="14.840189107896776"><ele>414.0</ele><time>2026-04-18T13:46:13.999Z</time></trkpt><trkpt lat="36.961533513113636" lon="14.840118993090528"><ele>414.0</ele><time>2026-04-18T13:46:15.999Z</time></trkpt><trkpt lat="36.9615949161657" lon="14.840099150748378"><ele>414.0</ele><time>2026-04-18T13:46:16.999Z</time></trkpt><trkpt lat="36.961665455672154" lon="14.840109826164955"><ele>414.0</ele><time>2026-04-18T13:46:17.999Z</time></trkpt><trkpt lat="36.961741367725494" lon="14.840113101019213"><ele>414.0</ele><time>2026-04-18T13:46:18.999Z</time></trkpt><trkpt lat="36.961824542480684" lon="14.840123048353481"><ele>415.0</ele><time>2026-04-18T13:46:19.999Z</time></trkpt><trkpt lat="36.961918967316066" lon="14.840134121033643"><ele>416.0</ele><time>2026-04-18T13:46:20.999Z</time></trkpt><trkpt lat="36.96202084176921" lon="14.84014711862359"><ele>417.0</ele><time>2026-04-18T13:46:21.999Z</time></trkpt><trkpt lat="36.96212381687881" lon="14.840160256627998"><ele>418.0</ele><time>2026-04-18T13:46:22.999Z</time></trkpt><trkpt lat="36.962228447645394" lon="14.840173605879171"><ele>419.0</ele><time>2026-04-18T13:46:23.999Z</time></trkpt><trkpt lat="36.962335200792026" lon="14.8401811355797"><ele>419.0</ele><time>2026-04-18T13:46:24.999Z</time></trkpt><trkpt lat="36.962444326603816" lon="14.840171864294105"><ele>419.0</ele><time>2026-04-18T13:46:25.999Z</time></trkpt><trkpt lat="36.96255490460813" lon="14.840147135647841"><ele>419.0</ele><time>2026-04-18T13:46:26.999Z</time></trkpt><trkpt lat="36.96266616628554" lon="14.840116770292045"><ele>419.0</ele><time>2026-04-18T13:46:27.999Z</time></trkpt><trkpt lat="36.96279357188121" lon="14.8400819989043"><ele>417.0</ele><time>2026-04-18T13:46:28.999Z</time></trkpt><trkpt lat="36.962946883892094" lon="14.840040157304246"><ele>415.0</ele><time>2026-04-18T13:46:29.999Z</time></trkpt><trkpt lat="36.963099711907496" lon="14.840007114655094"><ele>413.0</ele><time>2026-04-18T13:46:30.999Z</time></trkpt><trkpt lat="36.963256358409495" lon="14.83998028032876"><ele>414.0</ele><time>2026-04-18T13:46:31.999Z</time></trkpt><trkpt lat="36.963419361815184" lon="14.839967759166921"><ele>415.0</ele><time>2026-04-18T13:46:32.999Z</time></trkpt><trkpt lat="36.963594334037126" lon="14.839984289566619"><ele>416.0</ele><time>2026-04-18T13:46:33.999Z</time></trkpt><trkpt lat="36.96378348014358" lon="14.840007865054949"><ele>416.0</ele><time>2026-04-18T13:46:34.999Z</time></trkpt><trkpt lat="36.96397389416812" lon="14.840037065596723"><ele>416.0</ele><time>2026-04-18T13:46:35.999Z</time></trkpt><trkpt lat="36.964149219059486" lon="14.840066595835124"><ele>416.0</ele><time>2026-04-18T13:46:36.999Z</time></trkpt><trkpt lat="36.96431181396135" lon="14.840089953934395"><ele>417.0</ele><time>2026-04-18T13:46:37.999Z</time></trkpt><trkpt lat="36.964476448326536" lon="14.84010188534208"><ele>418.0</ele><time>2026-04-18T13:46:38.999Z</time></trkpt><trkpt lat="36.964658210127894" lon="14.840088198052857"><ele>419.0</ele><time>2026-04-18T13:46:39.999Z</time></trkpt><trkpt lat="36.96484707345775" lon="14.840016926990058"><ele>419.3333333333333</ele><time>2026-04-18T13:46:40.999Z</time></trkpt><trkpt lat="36.965040285254624" lon="14.839953247514112"><ele>419.66666666666663</ele><time>2026-04-18T13:46:41.999Z</time></trkpt><trkpt lat="36.96523907268806" lon="14.83988214165075"><ele>420.0</ele><time>2026-04-18T13:46:42.999Z</time></trkpt><trkpt lat="36.96545110718631" lon="14.839814377083101"><ele>420.0</ele><time>2026-04-18T13:46:43.999Z</time></trkpt><trkpt lat="36.96567710721222" lon="14.839790628255518"><ele>420.0</ele><time>2026-04-18T13:46:44.999Z</time></trkpt><trkpt lat="36.96590769299918" lon="14.839752794333382"><ele>421.0</ele><time>2026-04-18T13:46:45.999Z</time></trkpt><trkpt lat="36.966149188842905" lon="14.839715473254635"><ele>422.0</ele><time>2026-04-18T13:46:46.999Z</time></trkpt><trkpt lat="36.96638946008872" lon="14.839669869126746"><ele>422.0</ele><time>2026-04-18T13:46:47.999Z</time></trkpt><trkpt lat="36.96661687874779" lon="14.839614080277464"><ele>422.0</ele><time>2026-04-18T13:46:48.999Z</time></trkpt><trkpt lat="36.96682230328196" lon="14.83956654094531"><ele>422.0</ele><time>2026-04-18T13:46:49.999Z</time></trkpt><trkpt lat="36.96699992755031" lon="14.839530041952907"><ele>423.0</ele><time>2026-04-18T13:46:50.999Z</time></trkpt><trkpt lat="36.96716821919124" lon="14.83948857211077"><ele>424.0</ele><time>2026-04-18T13:46:51.999Z</time></trkpt><trkpt lat="36.96732867814076" lon="14.839440826500306"><ele>425.0</ele><time>2026-04-18T13:46:52.999Z</time></trkpt><trkpt lat="36.96747878079335" lon="14.839369606751097"><ele>425.66666666666663</ele><time>2026-04-18T13:46:53.999Z</time></trkpt><trkpt lat="36.96764195245817" lon="14.839276677000791"><ele>426.33333333333337</ele><time>2026-04-18T13:46:54.999Z</time></trkpt><trkpt lat="36.967798575418605" lon="14.839172807663907"><ele>427.0</ele><time>2026-04-18T13:46:55.999Z</time></trkpt><trkpt lat="36.96794939712592" lon="14.839061997255415"><ele>427.0</ele><time>2026-04-18T13:46:56.999Z</time></trkpt><trkpt lat="36.96810658782414" lon="14.838945563437548"><ele>427.0</ele><time>2026-04-18T13:46:57.999Z</time></trkpt><trkpt lat="36.96825987831999" lon="14.838831187610833"><ele>427.0</ele><time>2026-04-18T13:46:58.999Z</time></trkpt><trkpt lat="36.96841051467022" lon="14.838697008307765"><ele>427.0</ele><time>2026-04-18T13:46:59.999Z</time></trkpt><trkpt lat="36.968580541393386" lon="14.838591529095583"><ele>427.0</ele><time>2026-04-18T13:47:00.999Z</time></trkpt><trkpt lat="36.96874330158016" lon="14.838467811736118"><ele>427.0</ele><time>2026-04-18T13:47:01.999Z</time></trkpt><trkpt lat="36.968903981788095" lon="14.838346720203232"><ele>427.0</ele><time>2026-04-18T13:47:02.999Z</time></trkpt><trkpt lat="36.96906667928941" lon="14.838218814817461"><ele>427.0</ele><time>2026-04-18T13:47:03.999Z</time></trkpt><trkpt lat="36.96921948043458" lon="14.838081389712235"><ele>427.0</ele><time>2026-04-18T13:47:04.999Z</time></trkpt><trkpt lat="36.96936280047888" lon="14.837943876488444"><ele>428.0</ele><time>2026-04-18T13:47:05.999Z</time></trkpt><trkpt lat="36.969507745317074" lon="14.837803007688077"><ele>429.0</ele><time>2026-04-18T13:47:06.999Z</time></trkpt><trkpt lat="36.96965314393908" lon="14.83766648395358"><ele>430.0</ele><time>2026-04-18T13:47:07.998Z</time></trkpt><trkpt lat="36.96980095431658" lon="14.837543078874608"><ele>430.0</ele><time>2026-04-18T13:47:08.998Z</time></trkpt><trkpt lat="36.969960677218694" lon="14.837432626766946"><ele>430.0</ele><time>2026-04-18T13:47:09.998Z</time></trkpt><trkpt lat="36.97013527906855" lon="14.8373250091299"><ele>430.0</ele><time>2026-04-18T13:47:10.998Z</time></trkpt><trkpt lat="36.97032004703011" lon="14.837215885477871"><ele>430.6666666666667</ele><time>2026-04-18T13:47:11.998Z</time></trkpt><trkpt lat="36.97051935104238" lon="14.837098176961089"><ele>431.33333333333337</ele><time>2026-04-18T13:47:12.998Z</time></trkpt><trkpt lat="36.970722159754736" lon="14.836975557723143"><ele>432.0</ele><time>2026-04-18T13:47:13.998Z</time></trkpt><trkpt lat="36.970926602138704" lon="14.836845714044951"><ele>434.5</ele><time>2026-04-18T13:47:15Z</time></trkpt><trkpt lat="36.97112574875572" lon="14.836702943953657"><ele>437.0</ele><time>2026-04-18T13:47:16Z</time></trkpt><trkpt lat="36.9713345457801" lon="14.836551420741925"><ele>437.0</ele><time>2026-04-18T13:47:17Z</time></trkpt><trkpt lat="36.971523880303984" lon="14.836418070957597"><ele>437.0</ele><time>2026-04-18T13:47:18Z</time></trkpt><trkpt lat="36.97169549061314" lon="14.83630867122264"><ele>437.0</ele><time>2026-04-18T13:47:19Z</time></trkpt><trkpt lat="36.97184674611335" lon="14.836221976117812"><ele>437.75</ele><time>2026-04-18T13:47:20Z</time></trkpt><trkpt lat="36.971987048325076" lon="14.836142438562256"><ele>438.5</ele><time>2026-04-18T13:47:21Z</time></trkpt><trkpt lat="36.9721100770387" lon="14.836049942385769"><ele>439.25</ele><time>2026-04-18T13:47:22Z</time></trkpt><trkpt lat="36.97221061205704" lon="14.83593954720578"><ele>440.0</ele><time>2026-04-18T13:47:23Z</time></trkpt><trkpt lat="36.97229878498874" lon="14.835789825545563"><ele>440.3333333333333</ele><time>2026-04-18T13:47:24Z</time></trkpt><trkpt lat="36.97236749479988" lon="14.83560727792309"><ele>440.66666666666663</ele><time>2026-04-18T13:47:25Z</time></trkpt><trkpt lat="36.972482147080655" lon="14.835464027320008"><ele>441.0</ele><time>2026-04-18T13:47:26Z</time></trkpt><trkpt lat="36.97259320824397" lon="14.835312498756423"><ele>441.0</ele><time>2026-04-18T13:47:27Z</time></trkpt><trkpt lat="36.97271381238052" lon="14.835153491565025"><ele>441.0</ele><time>2026-04-18T13:47:28Z</time></trkpt><trkpt lat="36.97283681586969" lon="14.834984647001994"><ele>441.0</ele><time>2026-04-18T13:47:29Z</time></trkpt><trkpt lat="36.97296827807026" lon="14.834821794917064"><ele>443.33333333333337</ele><time>2026-04-18T13:47:30Z</time></trkpt><trkpt lat="36.97309817718606" lon="14.834681173588029"><ele>445.6666666666667</ele><time>2026-04-18T13:47:31Z</time></trkpt><trkpt lat="36.973215993333135" lon="14.834537365376983"><ele>448.0</ele><time>2026-04-18T13:47:32Z</time></trkpt><trkpt lat="36.973316494445896" lon="14.834377731765018"><ele>448.6666666666667</ele><time>2026-04-18T13:47:33Z</time></trkpt><trkpt lat="36.97338300958678" lon="14.834195009355936"><ele>449.33333333333337</ele><time>2026-04-18T13:47:34Z</time></trkpt><trkpt lat="36.97345231405379" lon="14.834020900654322"><ele>450.0</ele><time>2026-04-18T13:47:35Z</time></trkpt><trkpt lat="36.97349861125495" lon="14.833831478518"><ele>450.0</ele><time>2026-04-18T13:47:36Z</time></trkpt><trkpt lat="36.97356589341588" lon="14.833663331187271"><ele>450.0</ele><time>2026-04-18T13:47:37Z</time></trkpt><trkpt lat="36.973651511431015" lon="14.833535400753256"><ele>450.0</ele><time>2026-04-18T13:47:38Z</time></trkpt><trkpt lat="36.97372710718402" lon="14.833418085486487"><ele>450.0</ele><time>2026-04-18T13:47:39Z</time></trkpt><trkpt lat="36.97381902572948" lon="14.833322178816623"><ele>453.0</ele><time>2026-04-18T13:47:40Z</time></trkpt><trkpt lat="36.97392683399388" lon="14.833208233138631"><ele>456.0</ele><time>2026-04-18T13:47:41Z</time></trkpt><trkpt lat="36.974050955441705" lon="14.833068643717098"><ele>459.0</ele><time>2026-04-18T13:47:42Z</time></trkpt><trkpt lat="36.974167862761114" lon="14.832923442840611"><ele>459.75</ele><time>2026-04-18T13:47:43Z</time></trkpt><trkpt lat="36.9742756896011" lon="14.832790892049472"><ele>460.5</ele><time>2026-04-18T13:47:44Z</time></trkpt><trkpt lat="36.97437611541812" lon="14.832672333502588"><ele>461.25</ele><time>2026-04-18T13:47:45Z</time></trkpt><trkpt lat="36.974480573988785" lon="14.832543787917842"><ele>462.0</ele><time>2026-04-18T13:47:46Z</time></trkpt><trkpt lat="36.974614298841786" lon="14.832458222032388"><ele>462.0</ele><time>2026-04-18T13:47:47Z</time></trkpt><trkpt lat="36.97476143631722" lon="14.832360147126199"><ele>462.0</ele><time>2026-04-18T13:47:48Z</time></trkpt><trkpt lat="36.974918584694116" lon="14.83226181994292"><ele>462.0</ele><time>2026-04-18T13:47:49Z</time></trkpt><trkpt lat="36.975077623919205" lon="14.832152297472456"><ele>461.66666666666663</ele><time>2026-04-18T13:47:50Z</time></trkpt><trkpt lat="36.97521460323238" lon="14.832029307975038"><ele>461.3333333333333</ele><time>2026-04-18T13:47:51Z</time></trkpt><trkpt lat="36.97534772603233" lon="14.83190605192457"><ele>461.0</ele><time>2026-04-18T13:47:52Z</time></trkpt><trkpt lat="36.975482699780684" lon="14.831792130072776"><ele>463.3333333333333</ele><time>2026-04-18T13:47:53Z</time></trkpt><trkpt lat="36.975623650231704" lon="14.831694184912138"><ele>465.66666666666663</ele><time>2026-04-18T13:47:54Z</time></trkpt><trkpt lat="36.97576102994562" lon="14.831600200412245"><ele>468.0</ele><time>2026-04-18T13:47:55Z</time></trkpt><trkpt lat="36.97589718639865" lon="14.831506392508654"><ele>468.0</ele><time>2026-04-18T13:47:56Z</time></trkpt><trkpt lat="36.976028035279" lon="14.831392965946813"><ele>468.0</ele><time>2026-04-18T13:47:57Z</time></trkpt><trkpt lat="36.97614973990261" lon="14.831260016152424"><ele>468.0</ele><time>2026-04-18T13:47:58Z</time></trkpt><trkpt lat="36.976277168349725" lon="14.831111916387261"><ele>470.0</ele><time>2026-04-18T13:47:59Z</time></trkpt><trkpt lat="36.97640920392596" lon="14.830961290692892"><ele>472.0</ele><time>2026-04-18T13:48:00Z</time></trkpt><trkpt lat="36.97655131069269" lon="14.830822912766648"><ele>474.0</ele><time>2026-04-18T13:48:01Z</time></trkpt><trkpt lat="36.97669624832433" lon="14.8307052651171"><ele>476.0</ele><time>2026-04-18T13:48:01.999Z</time></trkpt><trkpt lat="36.97686270830178" lon="14.830594266754614"><ele>478.0</ele><time>2026-04-18T13:48:02.999Z</time></trkpt><trkpt lat="36.97703286110185" lon="14.83048956423077"><ele>480.0</ele><time>2026-04-18T13:48:03.999Z</time></trkpt><trkpt lat="36.97721318007212" lon="14.830377385277783"><ele>480.0</ele><time>2026-04-18T13:48:04.999Z</time></trkpt><trkpt lat="36.97739413766846" lon="14.830264724222506"><ele>480.0</ele><time>2026-04-18T13:48:05.999Z</time></trkpt><trkpt lat="36.977565402041705" lon="14.830163209258066"><ele>480.0</ele><time>2026-04-18T13:48:06.999Z</time></trkpt><trkpt lat="36.97772371533205" lon="14.830077434791667"><ele>484.0</ele><time>2026-04-18T13:48:07.999Z</time></trkpt><trkpt lat="36.977872429390686" lon="14.830014833990047"><ele>488.0</ele><time>2026-04-18T13:48:08.999Z</time></trkpt><trkpt lat="36.97802019307272" lon="14.829967133194346"><ele>492.0</ele><time>2026-04-18T13:48:09.999Z</time></trkpt><trkpt lat="36.97815313896408" lon="14.829903708840119"><ele>492.0</ele><time>2026-04-18T13:48:10.999Z</time></trkpt><trkpt lat="36.97828358059714" lon="14.829827631281416"><ele>492.0</ele><time>2026-04-18T13:48:11.999Z</time></trkpt><trkpt lat="36.97841952744548" lon="14.829737305705644"><ele>492.0</ele><time>2026-04-18T13:48:12.999Z</time></trkpt><trkpt lat="36.978551713496564" lon="14.829645968017003"><ele>492.0</ele><time>2026-04-18T13:48:13.999Z</time></trkpt><trkpt lat="36.97868673209221" lon="14.829552673080878"><ele>492.0</ele><time>2026-04-18T13:48:14.999Z</time></trkpt><trkpt lat="36.97882655802178" lon="14.829449985610948"><ele>492.0</ele><time>2026-04-18T13:48:15.999Z</time></trkpt><trkpt lat="36.97896358868103" lon="14.829373467604091"><ele>492.0</ele><time>2026-04-18T13:48:16.999Z</time></trkpt><trkpt lat="36.97909969339096" lon="14.829300047424436"><ele>495.33333333333337</ele><time>2026-04-18T13:48:17.999Z</time></trkpt><trkpt lat="36.97924545995858" lon="14.82926815214386"><ele>498.6666666666667</ele><time>2026-04-18T13:48:18.999Z</time></trkpt><trkpt lat="36.97939246614939" lon="14.82921307175799"><ele>502.0</ele><time>2026-04-18T13:48:19.999Z</time></trkpt><trkpt lat="36.97954648369301" lon="14.829191527943737"><ele>502.0</ele><time>2026-04-18T13:48:20.999Z</time></trkpt><trkpt lat="36.97968907367901" lon="14.829175410260207"><ele>502.0</ele><time>2026-04-18T13:48:21.999Z</time></trkpt><trkpt lat="36.97982433235025" lon="14.82916268091169"><ele>502.0</ele><time>2026-04-18T13:48:22.999Z</time></trkpt><trkpt lat="36.97994030035297" lon="14.829174584095322"><ele>502.0</ele><time>2026-04-18T13:48:23.999Z</time></trkpt><trkpt lat="36.98003872354061" lon="14.829143643064432"><ele>502.50000000000006</ele><time>2026-04-18T13:48:24.999Z</time></trkpt><trkpt lat="36.980113739229445" lon="14.829133928501422"><ele>503.0</ele><time>2026-04-18T13:48:25.999Z</time></trkpt><trkpt lat="36.980179813764465" lon="14.829113069046945"><ele>503.5</ele><time>2026-04-18T13:48:26.999Z</time></trkpt><trkpt lat="36.98026171613362" lon="14.829017230111239"><ele>504.0</ele><time>2026-04-18T13:48:28.999Z</time></trkpt><trkpt lat="36.9802591917535" lon="14.828905263410007"><ele>504.50000000000006</ele><time>2026-04-18T13:48:30.999Z</time></trkpt><trkpt lat="36.98018643475429" lon="14.828851373792105"><ele>505.0</ele><time>2026-04-18T13:48:32.999Z</time></trkpt><trkpt lat="36.98011913471067" lon="14.82881519350609"><ele>505.0</ele><time>2026-04-18T13:48:34.999Z</time></trkpt><trkpt lat="36.980111409713" lon="14.828725397488988"><ele>505.0</ele><time>2026-04-18T13:48:35.999Z</time></trkpt><trkpt lat="36.980067618565734" lon="14.82865534708621"><ele>505.0</ele><time>2026-04-18T13:48:36.999Z</time></trkpt><trkpt lat="36.980009503416234" lon="14.828541493469306"><ele>505.0</ele><time>2026-04-18T13:48:37.999Z</time></trkpt><trkpt lat="36.97995366876848" lon="14.82842710233973"><ele>505.0</ele><time>2026-04-18T13:48:38.999Z</time></trkpt><trkpt lat="36.979895932775115" lon="14.828311552074158"><ele>505.0</ele><time>2026-04-18T13:48:39.999Z</time></trkpt><trkpt lat="36.979837660718196" lon="14.828179904177516"><ele>505.0</ele><time>2026-04-18T13:48:40.999Z</time></trkpt><trkpt lat="36.97981131002555" lon="14.828023971939295"><ele>505.0</ele><time>2026-04-18T13:48:41.999Z</time></trkpt><trkpt lat="36.97976673734952" lon="14.827874297040827"><ele>505.0</ele><time>2026-04-18T13:48:42.999Z</time></trkpt><trkpt lat="36.979736746405024" lon="14.827692296055417"><ele>505.25</ele><time>2026-04-18T13:48:43.999Z</time></trkpt><trkpt lat="36.979702274595915" lon="14.827498248958003"><ele>505.5</ele><time>2026-04-18T13:48:44.999Z</time></trkpt><trkpt lat="36.97967221761069" lon="14.827320241318278"><ele>505.75</ele><time>2026-04-18T13:48:45.999Z</time></trkpt><trkpt lat="36.9796446172564" lon="14.827160191292853"><ele>506.0</ele><time>2026-04-18T13:48:46.999Z</time></trkpt><trkpt lat="36.9796209646849" lon="14.827016719313008"><ele>506.0</ele><time>2026-04-18T13:48:47.999Z</time></trkpt><trkpt lat="36.9796031144978" lon="14.826888582028369"><ele>506.0</ele><time>2026-04-18T13:48:48.999Z</time></trkpt><trkpt lat="36.979613623343795" lon="14.826783062989882"><ele>506.0</ele><time>2026-04-18T13:48:49.999Z</time></trkpt><trkpt lat="36.979639730812984" lon="14.826692810188764"><ele>506.0</ele><time>2026-04-18T13:48:50.999Z</time></trkpt><trkpt lat="36.97967721799089" lon="14.826612746712499"><ele>506.0</ele><time>2026-04-18T13:48:51.999Z</time></trkpt><trkpt lat="36.97977747055625" lon="14.826499521368795"><ele>506.8333333333333</ele><time>2026-04-18T13:48:53.999Z</time></trkpt><trkpt lat="36.979867842713084" lon="14.82648048530987"><ele>507.66666666666663</ele><time>2026-04-18T13:48:54.999Z</time></trkpt><trkpt lat="36.97994815697599" lon="14.82642141785123"><ele>508.5</ele><time>2026-04-18T13:48:55.999Z</time></trkpt><trkpt lat="36.980029706159804" lon="14.826361442158754"><ele>509.33333333333337</ele><time>2026-04-18T13:48:56.999Z</time></trkpt><trkpt lat="36.980104125097135" lon="14.826308125992764"><ele>510.1666666666667</ele><time>2026-04-18T13:48:57.999Z</time></trkpt><trkpt lat="36.980174836074106" lon="14.826259462327428"><ele>511.0</ele><time>2026-04-18T13:48:58.999Z</time></trkpt><trkpt lat="36.98024176435399" lon="14.826215872578489"><ele>511.8</ele><time>2026-04-18T13:48:59.999Z</time></trkpt><trkpt lat="36.980314418125175" lon="14.826169983951205"><ele>512.6</ele><time>2026-04-18T13:49:00.999Z</time></trkpt><trkpt lat="36.98039267417838" lon="14.82612300773259"><ele>513.4</ele><time>2026-04-18T13:49:01.999Z</time></trkpt><trkpt lat="36.98047522751764" lon="14.82607345190261"><ele>514.2</ele><time>2026-04-18T13:49:02.999Z</time></trkpt><trkpt lat="36.98057205955746" lon="14.82601517276805"><ele>515.0</ele><time>2026-04-18T13:49:03.999Z</time></trkpt><trkpt lat="36.980674242998695" lon="14.825953577031132"><ele>515.0</ele><time>2026-04-18T13:49:04.999Z</time></trkpt><trkpt lat="36.980773657146756" lon="14.825870955168345"><ele>515.0</ele><time>2026-04-18T13:49:05.999Z</time></trkpt><trkpt lat="36.980888474016716" lon="14.82582443949075"><ele>515.0</ele><time>2026-04-18T13:49:06.999Z</time></trkpt><trkpt lat="36.98100100769379" lon="14.825757145429796"><ele>515.0</ele><time>2026-04-18T13:49:07.999Z</time></trkpt><trkpt lat="36.98111224917211" lon="14.825689760378983"><ele>517.75</ele><time>2026-04-18T13:49:08.999Z</time></trkpt><trkpt lat="36.981230508115125" lon="14.825593370323032"><ele>520.5</ele><time>2026-04-18T13:49:09.999Z</time></trkpt><trkpt lat="36.981324405071504" lon="14.825472587740107"><ele>523.25</ele><time>2026-04-18T13:49:10.999Z</time></trkpt><trkpt lat="36.98141474879335" lon="14.825346440742344"><ele>526.0</ele><time>2026-04-18T13:49:11.999Z</time></trkpt><trkpt lat="36.98151014286857" lon="14.82522325137887"><ele>524.75</ele><time>2026-04-18T13:49:12.999Z</time></trkpt><trkpt lat="36.98159568865491" lon="14.825099251213768"><ele>523.5</ele><time>2026-04-18T13:49:13.998Z</time></trkpt><trkpt lat="36.98167528899283" lon="14.82499911891507"><ele>522.25</ele><time>2026-04-18T13:49:14.998Z</time></trkpt><trkpt lat="36.9817454131626" lon="14.824904594618689"><ele>521.0</ele><time>2026-04-18T13:49:15.998Z</time></trkpt><trkpt lat="36.98184893877622" lon="14.824877469135796"><ele>521.0</ele><time>2026-04-18T13:49:16.998Z</time></trkpt><trkpt lat="36.9819447886607" lon="14.824866377584733"><ele>521.0</ele><time>2026-04-18T13:49:17.998Z</time></trkpt><trkpt lat="36.982029135740234" lon="14.824894015306281"><ele>521.0</ele><time>2026-04-18T13:49:18.998Z</time></trkpt><trkpt lat="36.98212293725547" lon="14.824944955392098"><ele>521.0</ele><time>2026-04-18T13:49:19.998Z</time></trkpt><trkpt lat="36.982216153467" lon="14.825010369869297"><ele>521.0</ele><time>2026-04-18T13:49:21Z</time></trkpt><trkpt lat="36.982310398252885" lon="14.825061504054261"><ele>521.0</ele><time>2026-04-18T13:49:22Z</time></trkpt><trkpt lat="36.982400924615455" lon="14.825117261636574"><ele>521.0</ele><time>2026-04-18T13:49:23Z</time></trkpt><trkpt lat="36.9824962331637" lon="14.825156136170568"><ele>521.0</ele><time>2026-04-18T13:49:24Z</time></trkpt><trkpt lat="36.982615307691866" lon="14.82512958804607"><ele>521.0</ele><time>2026-04-18T13:49:25Z</time></trkpt><trkpt lat="36.982729784569756" lon="14.825076642256583"><ele>521.0</ele><time>2026-04-18T13:49:26Z</time></trkpt><trkpt lat="36.98283527702062" lon="14.824998247671196"><ele>520.8</ele><time>2026-04-18T13:49:27Z</time></trkpt><trkpt lat="36.9829190651382" lon="14.824896064906111"><ele>520.6</ele><time>2026-04-18T13:49:28Z</time></trkpt><trkpt lat="36.98298432304963" lon="14.824796029600336"><ele>520.4</ele><time>2026-04-18T13:49:29Z</time></trkpt><trkpt lat="36.98305521810894" lon="14.824689019990418"><ele>520.2</ele><time>2026-04-18T13:49:30Z</time></trkpt><trkpt lat="36.983141608098016" lon="14.824600027472858"><ele>520.0</ele><time>2026-04-18T13:49:31Z</time></trkpt><trkpt lat="36.98324331253498" lon="14.824541379697227"><ele>518.25</ele><time>2026-04-18T13:49:32Z</time></trkpt><trkpt lat="36.983357084347034" lon="14.824493930445882"><ele>516.5</ele><time>2026-04-18T13:49:33Z</time></trkpt><trkpt lat="36.98347246748507" lon="14.824475576343177"><ele>514.75</ele><time>2026-04-18T13:49:34Z</time></trkpt><trkpt lat="36.98358341914162" lon="14.824464231160173"><ele>513.0</ele><time>2026-04-18T13:49:35Z</time></trkpt><trkpt lat="36.9837067942085" lon="14.824517606770318"><ele>513.0</ele><time>2026-04-18T13:49:36Z</time></trkpt><trkpt lat="36.98384363926167" lon="14.824567514515191"><ele>513.0</ele><time>2026-04-18T13:49:37Z</time></trkpt><trkpt lat="36.983973674680726" lon="14.82462302389404"><ele>513.0</ele><time>2026-04-18T13:49:38Z</time></trkpt><trkpt lat="36.98410309484269" lon="14.82469069401898"><ele>513.0</ele><time>2026-04-18T13:49:39Z</time></trkpt><trkpt lat="36.98424784210666" lon="14.824726043781121"><ele>511.33333333333337</ele><time>2026-04-18T13:49:40Z</time></trkpt><trkpt lat="36.98441021895034" lon="14.824744918533366"><ele>509.6666666666667</ele><time>2026-04-18T13:49:41Z</time></trkpt><trkpt lat="36.984583689083365" lon="14.824759577672824"><ele>508.0</ele><time>2026-04-18T13:49:42Z</time></trkpt><trkpt lat="36.98476865375236" lon="14.824774945313965"><ele>508.0</ele><time>2026-04-18T13:49:43Z</time></trkpt><trkpt lat="36.98495023746912" lon="14.82479003204406"><ele>508.0</ele><time>2026-04-18T13:49:44Z</time></trkpt><trkpt lat="36.98513814279963" lon="14.824806232224514"><ele>508.0</ele><time>2026-04-18T13:49:45Z</time></trkpt><trkpt lat="36.98533357037682" lon="14.82482331329978"><ele>506.6666666666667</ele><time>2026-04-18T13:49:46Z</time></trkpt><trkpt lat="36.98553084695972" lon="14.8248405560624"><ele>505.33333333333337</ele><time>2026-04-18T13:49:47Z</time></trkpt><trkpt lat="36.9857294346499" lon="14.824862161353176"><ele>504.0</ele><time>2026-04-18T13:49:48Z</time></trkpt><trkpt lat="36.98593261820963" lon="14.824882883294793"><ele>503.0</ele><time>2026-04-18T13:49:49Z</time></trkpt><trkpt lat="36.98613564074943" lon="14.824902221486163"><ele>502.0</ele><time>2026-04-18T13:49:50Z</time></trkpt><trkpt lat="36.98633980386177" lon="14.824921521705402"><ele>501.0</ele><time>2026-04-18T13:49:51Z</time></trkpt><trkpt lat="36.986545396536876" lon="14.824940957063978"><ele>500.0</ele><time>2026-04-18T13:49:52Z</time></trkpt><trkpt lat="36.98674812933955" lon="14.824960122065034"><ele>499.0</ele><time>2026-04-18T13:49:53Z</time></trkpt><trkpt lat="36.98693911321091" lon="14.824977709821408"><ele>498.0</ele><time>2026-04-18T13:49:54Z</time></trkpt><trkpt lat="36.987120169171185" lon="14.82499191936118"><ele>498.0</ele><time>2026-04-18T13:49:55Z</time></trkpt><trkpt lat="36.98729569756058" lon="14.825005695074084"><ele>498.0</ele><time>2026-04-18T13:49:56Z</time></trkpt><trkpt lat="36.98746728628309" lon="14.82501916159286"><ele>498.0</ele><time>2026-04-18T13:49:57Z</time></trkpt><trkpt lat="36.98763072582837" lon="14.825032601068125"><ele>497.75</ele><time>2026-04-18T13:49:58Z</time></trkpt><trkpt lat="36.98778640925164" lon="14.82504657711258"><ele>497.5</ele><time>2026-04-18T13:49:59Z</time></trkpt><trkpt lat="36.987929294833584" lon="14.825073786067275"><ele>497.25</ele><time>2026-04-18T13:50:00Z</time></trkpt><trkpt lat="36.98806907762031" lon="14.82511912497421"><ele>497.0</ele><time>2026-04-18T13:50:01Z</time></trkpt><trkpt lat="36.98821522752372" lon="14.825206474477698"><ele>494.3333333333333</ele><time>2026-04-18T13:50:02Z</time></trkpt><trkpt lat="36.98838454479998" lon="14.82531800121848"><ele>491.66666666666663</ele><time>2026-04-18T13:50:03Z</time></trkpt><trkpt lat="36.9885510649104" lon="14.825438870732155"><ele>489.0</ele><time>2026-04-18T13:50:04Z</time></trkpt><trkpt lat="36.98870342956244" lon="14.825567714771944"><ele>489.0</ele><time>2026-04-18T13:50:05Z</time></trkpt><trkpt lat="36.988844310652965" lon="14.825689416997175"><ele>489.0</ele><time>2026-04-18T13:50:06Z</time></trkpt><trkpt lat="36.98896639536648" lon="14.825801012956079"><ele>489.0</ele><time>2026-04-18T13:50:07Z</time></trkpt><trkpt lat="36.98907306856128" lon="14.825929209761881"><ele>488.66666666666663</ele><time>2026-04-18T13:50:08Z</time></trkpt><trkpt lat="36.98917233545812" lon="14.826078339547752"><ele>488.3333333333333</ele><time>2026-04-18T13:50:08.999Z</time></trkpt><trkpt lat="36.98926017729188" lon="14.826254554125569"><ele>488.0</ele><time>2026-04-18T13:50:09.999Z</time></trkpt><trkpt lat="36.98934513956388" lon="14.826442055433619"><ele>487.3333333333333</ele><time>2026-04-18T13:50:10.999Z</time></trkpt><trkpt lat="36.98946353586136" lon="14.82662555076108"><ele>486.66666666666663</ele><time>2026-04-18T13:50:11.999Z</time></trkpt><trkpt lat="36.98960946228094" lon="14.826787742850334"><ele>486.0</ele><time>2026-04-18T13:50:12.999Z</time></trkpt><trkpt lat="36.989759729551345" lon="14.826947733912526"><ele>485.66666666666663</ele><time>2026-04-18T13:50:13.999Z</time></trkpt><trkpt lat="36.989911860119214" lon="14.827109708874525"><ele>485.3333333333333</ele><time>2026-04-18T13:50:14.999Z</time></trkpt><trkpt lat="36.990061024734686" lon="14.82726997096813"><ele>485.0</ele><time>2026-04-18T13:50:15.999Z</time></trkpt><trkpt lat="36.990209683549956" lon="14.827430036764037"><ele>485.0</ele><time>2026-04-18T13:50:16.999Z</time></trkpt><trkpt lat="36.9903614293088" lon="14.827589138233895"><ele>485.0</ele><time>2026-04-18T13:50:17.999Z</time></trkpt><trkpt lat="36.99051184588469" lon="14.827737792628454"><ele>485.0</ele><time>2026-04-18T13:50:18.999Z</time></trkpt><trkpt lat="36.990661802230214" lon="14.827863257099873"><ele>483.3333333333333</ele><time>2026-04-18T13:50:19.999Z</time></trkpt><trkpt lat="36.99081546385327" lon="14.827967931761844"><ele>481.66666666666663</ele><time>2026-04-18T13:50:20.999Z</time></trkpt><trkpt lat="36.99097061683081" lon="14.82804933364092"><ele>480.0</ele><time>2026-04-18T13:50:21.999Z</time></trkpt><trkpt lat="36.99113464835655" lon="14.828084248596342"><ele>479.33333333333337</ele><time>2026-04-18T13:50:22.999Z</time></trkpt><trkpt lat="36.99130634687899" lon="14.828105833038505"><ele>478.6666666666667</ele><time>2026-04-18T13:50:23.999Z</time></trkpt><trkpt lat="36.99148310197146" lon="14.828108002228271"><ele>478.0</ele><time>2026-04-18T13:50:24.999Z</time></trkpt><trkpt lat="36.99166214459479" lon="14.828131180571216"><ele>477.0</ele><time>2026-04-18T13:50:25.999Z</time></trkpt><trkpt lat="36.991851094452315" lon="14.828144853600572"><ele>476.0</ele><time>2026-04-18T13:50:26.999Z</time></trkpt><trkpt lat="36.99204356185706" lon="14.82815878119789"><ele>475.0</ele><time>2026-04-18T13:50:27.999Z</time></trkpt><trkpt lat="36.9922319248096" lon="14.828152236211688"><ele>475.0</ele><time>2026-04-18T13:50:28.999Z</time></trkpt><trkpt lat="36.992410233081806" lon="14.828165622563793"><ele>475.0</ele><time>2026-04-18T13:50:29.999Z</time></trkpt><trkpt lat="36.99258080506566" lon="14.82816905169171"><ele>475.0</ele><time>2026-04-18T13:50:30.999Z</time></trkpt><trkpt lat="36.99275228937046" lon="14.8281500410599"><ele>473.6666666666667</ele><time>2026-04-18T13:50:31.999Z</time></trkpt><trkpt lat="36.99293349325926" lon="14.828109468101205"><ele>472.33333333333337</ele><time>2026-04-18T13:50:32.999Z</time></trkpt><trkpt lat="36.99311502703225" lon="14.828055568384752"><ele>471.0</ele><time>2026-04-18T13:50:33.999Z</time></trkpt><trkpt lat="36.99329275397266" lon="14.82797225297415"><ele>470.0</ele><time>2026-04-18T13:50:34.999Z</time></trkpt><trkpt lat="36.99345931948063" lon="14.827878674571542"><ele>469.0</ele><time>2026-04-18T13:50:35.999Z</time></trkpt><trkpt lat="36.99361272634783" lon="14.827775217126726"><ele>468.0</ele><time>2026-04-18T13:50:36.999Z</time></trkpt><trkpt lat="36.99375401926256" lon="14.827643716314567"><ele>468.0</ele><time>2026-04-18T13:50:37.999Z</time></trkpt><trkpt lat="36.99389349418104" lon="14.827516131865433"><ele>468.0</ele><time>2026-04-18T13:50:38.999Z</time></trkpt><trkpt lat="36.99403675315459" lon="14.827371671281632"><ele>468.0</ele><time>2026-04-18T13:50:39.999Z</time></trkpt><trkpt lat="36.99417767930625" lon="14.82722794119384"><ele>467.33333333333337</ele><time>2026-04-18T13:50:40.999Z</time></trkpt><trkpt lat="36.99430183252489" lon="14.82708065671871"><ele>466.6666666666667</ele><time>2026-04-18T13:50:41.999Z</time></trkpt><trkpt lat="36.99442812252245" lon="14.826934253539655"><ele>466.0</ele><time>2026-04-18T13:50:42.999Z</time></trkpt><trkpt lat="36.994512573549" lon="14.826747888549656"><ele>466.0</ele><time>2026-04-18T13:50:43.999Z</time></trkpt><trkpt lat="36.99460541304616" lon="14.826581900939187"><ele>466.0</ele><time>2026-04-18T13:50:44.999Z</time></trkpt><trkpt lat="36.9947151627033" lon="14.826449646054838"><ele>466.0</ele><time>2026-04-18T13:50:45.999Z</time></trkpt><trkpt lat="36.99482897291141" lon="14.82631662899836"><ele>466.0</ele><time>2026-04-18T13:50:46.999Z</time></trkpt><trkpt lat="36.99496263198522" lon="14.826198111931978"><ele>466.0</ele><time>2026-04-18T13:50:47.999Z</time></trkpt><trkpt lat="36.99511378706004" lon="14.826074628503822"><ele>466.0</ele><time>2026-04-18T13:50:48.999Z</time></trkpt><trkpt lat="36.99526789357192" lon="14.825959940142672"><ele>466.6666666666667</ele><time>2026-04-18T13:50:49.999Z</time></trkpt><trkpt lat="36.99541407993139" lon="14.825852912259142"><ele>467.33333333333337</ele><time>2026-04-18T13:50:50.999Z</time></trkpt><trkpt lat="36.99555324086193" lon="14.825751027977395"><ele>468.0</ele><time>2026-04-18T13:50:51.999Z</time></trkpt><trkpt lat="36.995690826081336" lon="14.825642469918083"><ele>468.0</ele><time>2026-04-18T13:50:52.999Z</time></trkpt><trkpt lat="36.99581009729146" lon="14.825493751330798"><ele>468.0</ele><time>2026-04-18T13:50:53.999Z</time></trkpt><trkpt lat="36.99592641947751" lon="14.825331550455369"><ele>468.0</ele><time>2026-04-18T13:50:54.999Z</time></trkpt><trkpt lat="36.99604121504946" lon="14.82516974758164"><ele>469.66666666666663</ele><time>2026-04-18T13:50:55.999Z</time></trkpt><trkpt lat="36.99612073829946" lon="14.824994931166234"><ele>471.3333333333333</ele><time>2026-04-18T13:50:56.999Z</time></trkpt><trkpt lat="36.99620212777001" lon="14.824824460639226"><ele>473.0</ele><time>2026-04-18T13:50:57.999Z</time></trkpt><trkpt lat="36.996268319921874" lon="14.824643201565637"><ele>473.0</ele><time>2026-04-18T13:50:58.999Z</time></trkpt><trkpt lat="36.996313657084265" lon="14.824450304655564"><ele>473.0</ele><time>2026-04-18T13:50:59.999Z</time></trkpt><trkpt lat="36.99633704304877" lon="14.824244222462209"><ele>473.0</ele><time>2026-04-18T13:51:00.999Z</time></trkpt><trkpt lat="36.99634610896903" lon="14.824024032616874"><ele>472.66666666666663</ele><time>2026-04-18T13:51:01.999Z</time></trkpt><trkpt lat="36.996352255222" lon="14.82379705377293"><ele>472.33333333333337</ele><time>2026-04-18T13:51:02.999Z</time></trkpt><trkpt lat="36.996356094276024" lon="14.823573797051905"><ele>472.0</ele><time>2026-04-18T13:51:03.999Z</time></trkpt><trkpt lat="36.996366564802244" lon="14.823340795000588"><ele>471.6666666666667</ele><time>2026-04-18T13:51:04.999Z</time></trkpt><trkpt lat="36.99637528739885" lon="14.82309750221374"><ele>471.33333333333337</ele><time>2026-04-18T13:51:05.999Z</time></trkpt><trkpt lat="36.99638923814373" lon="14.8228556679854"><ele>471.0</ele><time>2026-04-18T13:51:06.999Z</time></trkpt><trkpt lat="36.996399016633184" lon="14.822623233106723"><ele>470.66666666666663</ele><time>2026-04-18T13:51:07.999Z</time></trkpt><trkpt lat="36.996408656362505" lon="14.822412330873036"><ele>470.3333333333333</ele><time>2026-04-18T13:51:08.999Z</time></trkpt><trkpt lat="36.996417609619556" lon="14.822216987509943"><ele>470.0</ele><time>2026-04-18T13:51:09.999Z</time></trkpt><trkpt lat="36.99643527227123" lon="14.822037690934776"><ele>470.0</ele><time>2026-04-18T13:51:10.999Z</time></trkpt><trkpt lat="36.996470947077604" lon="14.821868152153034"><ele>470.0</ele><time>2026-04-18T13:51:11.999Z</time></trkpt><trkpt lat="36.99655102425536" lon="14.821727558948302"><ele>470.0</ele><time>2026-04-18T13:51:12.999Z</time></trkpt><trkpt lat="36.99662935635334" lon="14.821577098072252"><ele>470.0</ele><time>2026-04-18T13:51:13.999Z</time></trkpt><trkpt lat="36.996722975276604" lon="14.821404732462756"><ele>472.66666666666663</ele><time>2026-04-18T13:51:14.999Z</time></trkpt><trkpt lat="36.99682345297211" lon="14.821219738410568"><ele>475.33333333333337</ele><time>2026-04-18T13:51:15.999Z</time></trkpt><trkpt lat="36.99691145169113" lon="14.821022836856796"><ele>478.0</ele><time>2026-04-18T13:51:16.999Z</time></trkpt><trkpt lat="36.99700748602438" lon="14.820847477896452"><ele>478.0</ele><time>2026-04-18T13:51:17.999Z</time></trkpt><trkpt lat="36.99710712358434" lon="14.820697460346668"><ele>478.0</ele><time>2026-04-18T13:51:18.999Z</time></trkpt><trkpt lat="36.997182208551" lon="14.82055936245341"><ele>478.0</ele><time>2026-04-18T13:51:19.999Z</time></trkpt><trkpt lat="36.997244595226654" lon="14.820446319294035"><ele>478.0</ele><time>2026-04-18T13:51:20.999Z</time></trkpt><trkpt lat="36.99730255060461" lon="14.820356425153566"><ele>478.0</ele><time>2026-04-18T13:51:21.998Z</time></trkpt><trkpt lat="36.997359109646354" lon="14.82027422716418"><ele>477.99999999999994</ele><time>2026-04-18T13:51:22.998Z</time></trkpt><trkpt lat="36.997449145888744" lon="14.820233502957064"><ele>477.99999999999994</ele><time>2026-04-18T13:51:23.998Z</time></trkpt><trkpt lat="36.99756328503923" lon="14.820271167898934"><ele>478.0</ele><time>2026-04-18T13:51:24.998Z</time></trkpt><trkpt lat="36.997687959952216" lon="14.820292562663484"><ele>478.0</ele><time>2026-04-18T13:51:25.998Z</time></trkpt><trkpt lat="36.99782232979395" lon="14.820305188226811"><ele>479.0</ele><time>2026-04-18T13:51:27Z</time></trkpt><trkpt lat="36.99796073720895" lon="14.820310606837428"><ele>480.0</ele><time>2026-04-18T13:51:28Z</time></trkpt><trkpt lat="36.99809523038436" lon="14.820289130259667"><ele>481.0</ele><time>2026-04-18T13:51:29Z</time></trkpt><trkpt lat="36.998241401635454" lon="14.820293246984095"><ele>482.0</ele><time>2026-04-18T13:51:30Z</time></trkpt><trkpt lat="36.9983859870507" lon="14.820296607298346"><ele>479.75</ele><time>2026-04-18T13:51:31Z</time></trkpt><trkpt lat="36.99852958773958" lon="14.820294321616206"><ele>477.5</ele><time>2026-04-18T13:51:32Z</time></trkpt><trkpt lat="36.99867494403483" lon="14.820305211145532"><ele>475.25</ele><time>2026-04-18T13:51:33Z</time></trkpt><trkpt lat="36.99882412027168" lon="14.820261482681302"><ele>473.0</ele><time>2026-04-18T13:51:34Z</time></trkpt><trkpt lat="36.998976723162976" lon="14.820230302939882"><ele>473.0</ele><time>2026-04-18T13:51:35Z</time></trkpt><trkpt lat="36.99913397346212" lon="14.820191932962354"><ele>473.0</ele><time>2026-04-18T13:51:36Z</time></trkpt><trkpt lat="36.999288143984735" lon="14.820160987982517"><ele>473.0</ele><time>2026-04-18T13:51:37Z</time></trkpt><trkpt lat="36.99944612274872" lon="14.820128264495546"><ele>467.0</ele><time>2026-04-18T13:51:38Z</time></trkpt><trkpt lat="36.99960620537979" lon="14.820092630243463"><ele>461.0</ele><time>2026-04-18T13:51:39Z</time></trkpt><trkpt lat="36.99976407984053" lon="14.820053992767381"><ele>455.0</ele><time>2026-04-18T13:51:40Z</time></trkpt><trkpt lat="36.999926578794536" lon="14.820015694842482"><ele>455.0</ele><time>2026-04-18T13:51:41Z</time></trkpt><trkpt lat="37.000083051911616" lon="14.81996404974243"><ele>455.0</ele><time>2026-04-18T13:51:42Z</time></trkpt><trkpt lat="37.00023468398243" lon="14.81990165220057"><ele>455.0</ele><time>2026-04-18T13:51:43Z</time></trkpt><trkpt lat="37.00038373723749" lon="14.819836280044132"><ele>455.0</ele><time>2026-04-18T13:51:44Z</time></trkpt><trkpt lat="37.0005351547057" lon="14.819771930160423"><ele>455.0</ele><time>2026-04-18T13:51:45Z</time></trkpt><trkpt lat="37.000691298151196" lon="14.819705996405222"><ele>455.0</ele><time>2026-04-18T13:51:46Z</time></trkpt><trkpt lat="37.000846507048195" lon="14.819636887572226"><ele>457.66666666666663</ele><time>2026-04-18T13:51:47Z</time></trkpt><trkpt lat="37.00099582747247" lon="14.819552130935286"><ele>460.33333333333337</ele><time>2026-04-18T13:51:48Z</time></trkpt><trkpt lat="37.00114870702947" lon="14.819475544164389"><ele>463.0</ele><time>2026-04-18T13:51:49Z</time></trkpt><trkpt lat="37.00128250407648" lon="14.819361369886376"><ele>461.0</ele><time>2026-04-18T13:51:50Z</time></trkpt><trkpt lat="37.0013916364692" lon="14.819206735662918"><ele>459.0</ele><time>2026-04-18T13:51:51Z</time></trkpt><trkpt lat="37.001478789146915" lon="14.819053043493406"><ele>457.0</ele><time>2026-04-18T13:51:52Z</time></trkpt><trkpt lat="37.001539197735184" lon="14.818865767482706"><ele>457.0</ele><time>2026-04-18T13:51:53Z</time></trkpt><trkpt lat="37.00155739287638" lon="14.81868166466199"><ele>457.0</ele><time>2026-04-18T13:51:54Z</time></trkpt><trkpt lat="37.00152831630904" lon="14.818496913677567"><ele>457.0</ele><time>2026-04-18T13:51:55Z</time></trkpt><trkpt lat="37.001510358885135" lon="14.818306015062094"><ele>457.6666666666667</ele><time>2026-04-18T13:51:56Z</time></trkpt><trkpt lat="37.001499877320164" lon="14.818093927995"><ele>458.33333333333337</ele><time>2026-04-18T13:51:57Z</time></trkpt><trkpt lat="37.001457488267796" lon="14.81788947267744"><ele>459.0</ele><time>2026-04-18T13:51:58Z</time></trkpt><trkpt lat="37.001440287274384" lon="14.817685554387902"><ele>459.0</ele><time>2026-04-18T13:51:59Z</time></trkpt><trkpt lat="37.0014245763607" lon="14.817490430613732"><ele>459.0</ele><time>2026-04-18T13:52:00Z</time></trkpt><trkpt lat="37.00141508076109" lon="14.817309247516047"><ele>459.0</ele><time>2026-04-18T13:52:01Z</time></trkpt><trkpt lat="37.00143311831098" lon="14.81713619112546"><ele>459.0</ele><time>2026-04-18T13:52:02Z</time></trkpt><trkpt lat="37.00145670989992" lon="14.816979218260625"><ele>459.0</ele><time>2026-04-18T13:52:03Z</time></trkpt><trkpt lat="37.00148644167079" lon="14.816830001275518"><ele>459.0</ele><time>2026-04-18T13:52:04Z</time></trkpt><trkpt lat="37.00157909993139" lon="14.816749906818616"><ele>459.0</ele><time>2026-04-18T13:52:05Z</time></trkpt><trkpt lat="37.00166856656504" lon="14.816693792923374"><ele>459.0</ele><time>2026-04-18T13:52:06Z</time></trkpt><trkpt lat="37.00176367671837" lon="14.816659809601378"><ele>459.0</ele><time>2026-04-18T13:52:07Z</time></trkpt><trkpt lat="37.00185409666252" lon="14.816618465083984"><ele>461.33333333333337</ele><time>2026-04-18T13:52:08Z</time></trkpt><trkpt lat="37.00193602810562" lon="14.81685364697652"><ele>463.6666666666667</ele><time>2026-04-18T13:52:09Z</time></trkpt><trkpt lat="37.002066638522585" lon="14.816962795786607"><ele>466.0</ele><time>2026-04-18T13:52:10Z</time></trkpt><trkpt lat="37.00215417163356" lon="14.81708212404754"><ele>466.0</ele><time>2026-04-18T13:52:11Z</time></trkpt><trkpt lat="37.00226761712817" lon="14.81720972860811"><ele>466.0</ele><time>2026-04-18T13:52:12Z</time></trkpt><trkpt lat="37.002381097484836" lon="14.81733737161044"><ele>466.0</ele><time>2026-04-18T13:52:13Z</time></trkpt><trkpt lat="37.002480636964144" lon="14.817440949542373"><ele>466.0</ele><time>2026-04-18T13:52:14Z</time></trkpt><trkpt lat="37.002574114835156" lon="14.817547062111"><ele>471.5</ele><time>2026-04-18T13:52:15Z</time></trkpt><trkpt lat="37.00268384963852" lon="14.81766063339851"><ele>477.0</ele><time>2026-04-18T13:52:15.999Z</time></trkpt><trkpt lat="37.003307047173884" lon="14.817187609632832"><ele>477.0</ele><time>2026-04-18T13:52:16.999Z</time></trkpt><trkpt lat="37.00347402177818" lon="14.81720402561177"><ele>477.0</ele><time>2026-04-18T13:52:17.999Z</time></trkpt><trkpt lat="37.00364376872689" lon="14.81721192607347"><ele>477.0</ele><time>2026-04-18T13:52:18.999Z</time></trkpt><trkpt lat="37.003813577044326" lon="14.817216101478285"><ele>477.0</ele><time>2026-04-18T13:52:19.999Z</time></trkpt><trkpt lat="37.00398272682283" lon="14.817219373218627"><ele>477.0</ele><time>2026-04-18T13:52:20.999Z</time></trkpt><trkpt lat="37.00415083010025" lon="14.817219010885466"><ele>477.0</ele><time>2026-04-18T13:52:21.999Z</time></trkpt><trkpt lat="37.00431820217918" lon="14.817214887146546"><ele>478.33333333333337</ele><time>2026-04-18T13:52:22.999Z</time></trkpt><trkpt lat="37.00448023688152" lon="14.817208051989269"><ele>479.6666666666667</ele><time>2026-04-18T13:52:23.999Z</time></trkpt><trkpt lat="37.00463221063973" lon="14.817193076890518"><ele>481.0</ele><time>2026-04-18T13:52:24.999Z</time></trkpt><trkpt lat="37.00478028034776" lon="14.817163305456146"><ele>481.0</ele><time>2026-04-18T13:52:25.999Z</time></trkpt><trkpt lat="37.00492280929541" lon="14.817112809121676"><ele>481.0</ele><time>2026-04-18T13:52:26.999Z</time></trkpt><trkpt lat="37.00505848158871" lon="14.817048659990864"><ele>481.0</ele><time>2026-04-18T13:52:27.999Z</time></trkpt><trkpt lat="37.005192890416325" lon="14.8169749178147"><ele>481.0</ele><time>2026-04-18T13:52:28.999Z</time></trkpt><trkpt lat="37.005322145860305" lon="14.816882833840095"><ele>478.25</ele><time>2026-04-18T13:52:29.999Z</time></trkpt><trkpt lat="37.005444710301816" lon="14.816776751841006"><ele>475.5</ele><time>2026-04-18T13:52:30.999Z</time></trkpt><trkpt lat="37.005566052493556" lon="14.816670674733905"><ele>472.75</ele><time>2026-04-18T13:52:31.999Z</time></trkpt><trkpt lat="37.0056890178307" lon="14.816561899066853"><ele>470.0</ele><time>2026-04-18T13:52:32.999Z</time></trkpt><trkpt lat="37.00581145501431" lon="14.816457407298978"><ele>472.5</ele><time>2026-04-18T13:52:33.999Z</time></trkpt><trkpt lat="37.00592666219489" lon="14.816368812948182"><ele>475.0</ele><time>2026-04-18T13:52:34.999Z</time></trkpt><trkpt lat="37.006039185005356" lon="14.816296531067904"><ele>477.5</ele><time>2026-04-18T13:52:35.999Z</time></trkpt><trkpt lat="37.00615627552414" lon="14.816253725384476"><ele>480.0</ele><time>2026-04-18T13:52:36.999Z</time></trkpt><trkpt lat="37.0062823087562" lon="14.816233133472785"><ele>480.0</ele><time>2026-04-18T13:52:37.999Z</time></trkpt><trkpt lat="37.00642606142262" lon="14.816231485123634"><ele>480.0</ele><time>2026-04-18T13:52:38.999Z</time></trkpt><trkpt lat="37.00657519270092" lon="14.816247440279291"><ele>480.0</ele><time>2026-04-18T13:52:39.999Z</time></trkpt><trkpt lat="37.00671834424953" lon="14.816283574152905"><ele>480.0</ele><time>2026-04-18T13:52:40.999Z</time></trkpt><trkpt lat="37.0068484983838" lon="14.816333096304682"><ele>480.0</ele><time>2026-04-18T13:52:41.999Z</time></trkpt><trkpt lat="37.0069736157589" lon="14.81640774007898"><ele>480.0</ele><time>2026-04-18T13:52:42.999Z</time></trkpt><trkpt lat="37.00709919193407" lon="14.816502596056123"><ele>480.0</ele><time>2026-04-18T13:52:43.999Z</time></trkpt><trkpt lat="37.007201803310316" lon="14.816619242630837"><ele>480.0</ele><time>2026-04-18T13:52:44.999Z</time></trkpt><trkpt lat="37.00729972551648" lon="14.816753567836827"><ele>481.25</ele><time>2026-04-18T13:52:45.999Z</time></trkpt><trkpt lat="37.007397516975125" lon="14.81689003564686"><ele>482.5</ele><time>2026-04-18T13:52:46.999Z</time></trkpt><trkpt lat="37.00748943236733" lon="14.817012739571606"><ele>483.75</ele><time>2026-04-18T13:52:47.999Z</time></trkpt><trkpt lat="37.00758208001705" lon="14.817103019674722"><ele>485.0</ele><time>2026-04-18T13:52:48.999Z</time></trkpt><trkpt lat="37.007677776501154" lon="14.817162820581762"><ele>483.0</ele><time>2026-04-18T13:52:49.999Z</time></trkpt><trkpt lat="37.00777663331503" lon="14.817183765461532"><ele>481.0</ele><time>2026-04-18T13:52:50.999Z</time></trkpt><trkpt lat="37.00786372204526" lon="14.817172635237993"><ele>479.0</ele><time>2026-04-18T13:52:51.999Z</time></trkpt><trkpt lat="37.00794001413199" lon="14.817140793506928"><ele>477.0</ele><time>2026-04-18T13:52:52.999Z</time></trkpt><trkpt lat="37.00800497457258" lon="14.817093236565128"><ele>475.0</ele><time>2026-04-18T13:52:53.999Z</time></trkpt><trkpt lat="37.008079878852776" lon="14.81697679326763"><ele>475.00000000000006</ele><time>2026-04-18T13:52:55.999Z</time></trkpt><trkpt lat="37.008103315455415" lon="14.816895366902402"><ele>475.0</ele><time>2026-04-18T13:52:56.999Z</time></trkpt><trkpt lat="37.00812963139032" lon="14.816814305987151"><ele>475.0</ele><time>2026-04-18T13:52:57.999Z</time></trkpt><trkpt lat="37.00815663334193" lon="14.816724283594885"><ele>475.0</ele><time>2026-04-18T13:52:58.999Z</time></trkpt><trkpt lat="37.00819454336051" lon="14.81662496675546"><ele>475.00000000000006</ele><time>2026-04-18T13:52:59.999Z</time></trkpt><trkpt lat="37.00823317460734" lon="14.81651163435421"><ele>475.0</ele><time>2026-04-18T13:53:00.999Z</time></trkpt><trkpt lat="37.008269905359974" lon="14.816384581365089"><ele>474.5</ele><time>2026-04-18T13:53:01.999Z</time></trkpt><trkpt lat="37.00829697899731" lon="14.816251688752782"><ele>474.0</ele><time>2026-04-18T13:53:02.999Z</time></trkpt><trkpt lat="37.008304743230745" lon="14.816117068895874"><ele>473.5</ele><time>2026-04-18T13:53:03.999Z</time></trkpt><trkpt lat="37.008288921778956" lon="14.815963844204656"><ele>473.0</ele><time>2026-04-18T13:53:04.999Z</time></trkpt><trkpt lat="37.00826089665731" lon="14.81579478511159"><ele>472.75</ele><time>2026-04-18T13:53:05.999Z</time></trkpt><trkpt lat="37.00821434808379" lon="14.815629061557335"><ele>472.5</ele><time>2026-04-18T13:53:06.999Z</time></trkpt><trkpt lat="37.00818288602565" lon="14.815482241776904"><ele>472.25</ele><time>2026-04-18T13:53:07.999Z</time></trkpt><trkpt lat="37.00817330207123" lon="14.815335778974104"><ele>472.0</ele><time>2026-04-18T13:53:08.999Z</time></trkpt><trkpt lat="37.00819004516423" lon="14.815179486976028"><ele>473.5</ele><time>2026-04-18T13:53:09.999Z</time></trkpt><trkpt lat="37.00821106640514" lon="14.81502760962784"><ele>475.0</ele><time>2026-04-18T13:53:10.999Z</time></trkpt><trkpt lat="37.00819064606219" lon="14.814878397375887"><ele>476.5</ele><time>2026-04-18T13:53:11.999Z</time></trkpt><trkpt lat="37.008131183930416" lon="14.814734466672618"><ele>478.0</ele><time>2026-04-18T13:53:12.999Z</time></trkpt><trkpt lat="37.008053956490876" lon="14.814595986222972"><ele>478.0</ele><time>2026-04-18T13:53:13.999Z</time></trkpt><trkpt lat="37.00797593900326" lon="14.814454847498492"><ele>478.0</ele><time>2026-04-18T13:53:14.999Z</time></trkpt><trkpt lat="37.00791451910162" lon="14.814302095399782"><ele>478.0</ele><time>2026-04-18T13:53:15.999Z</time></trkpt><trkpt lat="37.00785717782755" lon="14.814149799771563"><ele>478.0</ele><time>2026-04-18T13:53:16.999Z</time></trkpt><trkpt lat="37.00778023820377" lon="14.81401295458915"><ele>481.5</ele><time>2026-04-18T13:53:17.999Z</time></trkpt><trkpt lat="37.00769441255948" lon="14.813905632063888"><ele>485.0</ele><time>2026-04-18T13:53:18.999Z</time></trkpt><trkpt lat="37.00760959602512" lon="14.813800641780487"><ele>488.5</ele><time>2026-04-18T13:53:19.999Z</time></trkpt><trkpt lat="37.00756942001021" lon="14.813679283736358"><ele>492.0</ele><time>2026-04-18T13:53:20.999Z</time></trkpt><trkpt lat="37.00754525687784" lon="14.813547410509052"><ele>492.75</ele><time>2026-04-18T13:53:21.999Z</time></trkpt><trkpt lat="37.00755163272384" lon="14.813417465219858"><ele>493.5</ele><time>2026-04-18T13:53:22.999Z</time></trkpt><trkpt lat="37.007582995268685" lon="14.8132788628423"><ele>494.25</ele><time>2026-04-18T13:53:23.999Z</time></trkpt><trkpt lat="37.007656635112994" lon="14.813144836673674"><ele>495.0</ele><time>2026-04-18T13:53:24.999Z</time></trkpt><trkpt lat="37.00775023360436" lon="14.81299579609331"><ele>495.0</ele><time>2026-04-18T13:53:25.999Z</time></trkpt><trkpt lat="37.00784330561914" lon="14.812833734570745"><ele>495.0</ele><time>2026-04-18T13:53:26.999Z</time></trkpt><trkpt lat="37.00793456727631" lon="14.812670591166619"><ele>495.0</ele><time>2026-04-18T13:53:27.999Z</time></trkpt><trkpt lat="37.00802589878838" lon="14.81250621805837"><ele>493.66666666666663</ele><time>2026-04-18T13:53:28.998Z</time></trkpt><trkpt lat="37.00811921535568" lon="14.812340310884057"><ele>492.3333333333333</ele><time>2026-04-18T13:53:29.998Z</time></trkpt><trkpt lat="37.008208860322554" lon="14.81217552430271"><ele>491.0</ele><time>2026-04-18T13:53:30.998Z</time></trkpt><trkpt lat="37.00829608039286" lon="14.812014237892024"><ele>493.25</ele><time>2026-04-18T13:53:31.998Z</time></trkpt><trkpt lat="37.00837805162079" lon="14.811853693263153"><ele>495.5</ele><time>2026-04-18T13:53:33Z</time></trkpt><trkpt lat="37.00845938856991" lon="14.811716751220251"><ele>497.75</ele><time>2026-04-18T13:53:34Z</time></trkpt><trkpt lat="37.00854392377185" lon="14.811609590970079"><ele>500.0</ele><time>2026-04-18T13:53:35Z</time></trkpt><trkpt lat="37.00865950827162" lon="14.811561293568095"><ele>500.0</ele><time>2026-04-18T13:53:36Z</time></trkpt><trkpt lat="37.008781545753145" lon="14.811523624756012"><ele>500.0</ele><time>2026-04-18T13:53:37Z</time></trkpt><trkpt lat="37.00892750342731" lon="14.811515805212098"><ele>500.0</ele><time>2026-04-18T13:53:38Z</time></trkpt><trkpt lat="37.00907513116234" lon="14.811503798909307"><ele>500.0</ele><time>2026-04-18T13:53:39Z</time></trkpt><trkpt lat="37.00922344176605" lon="14.81148377702841"><ele>502.0</ele><time>2026-04-18T13:53:40Z</time></trkpt><trkpt lat="37.009364105466126" lon="14.811453500288255"><ele>504.0</ele><time>2026-04-18T13:53:41Z</time></trkpt><trkpt lat="37.00949440337999" lon="14.811402493310162"><ele>506.0</ele><time>2026-04-18T13:53:42Z</time></trkpt><trkpt lat="37.00962323669251" lon="14.811318404019755"><ele>508.0</ele><time>2026-04-18T13:53:43Z</time></trkpt><trkpt lat="37.00973745843269" lon="14.811219312156307"><ele>508.0</ele><time>2026-04-18T13:53:44Z</time></trkpt><trkpt lat="37.009849217841555" lon="14.811125653829535"><ele>508.0</ele><time>2026-04-18T13:53:45Z</time></trkpt><trkpt lat="37.009971907471446" lon="14.811025484966992"><ele>508.0</ele><time>2026-04-18T13:53:46Z</time></trkpt><trkpt lat="37.01009101357176" lon="14.810930566985984"><ele>508.0</ele><time>2026-04-18T13:53:47Z</time></trkpt><trkpt lat="37.01021490090844" lon="14.810838168047647"><ele>505.33333333333337</ele><time>2026-04-18T13:53:48Z</time></trkpt><trkpt lat="37.01034676383032" lon="14.810746923844025"><ele>502.66666666666663</ele><time>2026-04-18T13:53:49Z</time></trkpt><trkpt lat="37.01047999363053" lon="14.810675003614355"><ele>500.0</ele><time>2026-04-18T13:53:50Z</time></trkpt><trkpt lat="37.01062319367115" lon="14.810601849336914"><ele>500.0</ele><time>2026-04-18T13:53:51Z</time></trkpt><trkpt lat="37.010764679946185" lon="14.810521283235412"><ele>500.0</ele><time>2026-04-18T13:53:52Z</time></trkpt><trkpt lat="37.01090567818767" lon="14.810443523166112"><ele>500.0</ele><time>2026-04-18T13:53:53Z</time></trkpt><trkpt lat="37.011051490042895" lon="14.810370402419835"><ele>503.66666666666663</ele><time>2026-04-18T13:53:54Z</time></trkpt><trkpt lat="37.01120136593653" lon="14.810303298132387"><ele>507.33333333333337</ele><time>2026-04-18T13:53:55Z</time></trkpt><trkpt lat="37.01134877654319" lon="14.810231201724532"><ele>511.0</ele><time>2026-04-18T13:53:56Z</time></trkpt><trkpt lat="37.01149951734018" lon="14.810158458364715"><ele>508.6666666666667</ele><time>2026-04-18T13:53:57Z</time></trkpt><trkpt lat="37.01166153936612" lon="14.810103268656665"><ele>506.33333333333337</ele><time>2026-04-18T13:53:58Z</time></trkpt><trkpt lat="37.011818570315434" lon="14.810044522951623"><ele>504.0</ele><time>2026-04-18T13:53:59Z</time></trkpt><trkpt lat="37.01197510491026" lon="14.809984282031317"><ele>504.0</ele><time>2026-04-18T13:54:00Z</time></trkpt><trkpt lat="37.012133935557664" lon="14.80992095186823"><ele>504.0</ele><time>2026-04-18T13:54:01Z</time></trkpt><trkpt lat="37.012298784204475" lon="14.809873411534202"><ele>504.0</ele><time>2026-04-18T13:54:02Z</time></trkpt><trkpt lat="37.01244304565937" lon="14.809827222528584"><ele>506.33333333333337</ele><time>2026-04-18T13:54:03Z</time></trkpt><trkpt lat="37.012583964117425" lon="14.809810592178215"><ele>508.6666666666667</ele><time>2026-04-18T13:54:04Z</time></trkpt><trkpt lat="37.01273191797158" lon="14.809828735556957"><ele>511.0</ele><time>2026-04-18T13:54:05Z</time></trkpt><trkpt lat="37.012891131162526" lon="14.809854412976001"><ele>511.0</ele><time>2026-04-18T13:54:06Z</time></trkpt><trkpt lat="37.01304813860882" lon="14.809865319291122"><ele>511.0</ele><time>2026-04-18T13:54:07Z</time></trkpt><trkpt lat="37.0132146517461" lon="14.809878536962843"><ele>511.0</ele><time>2026-04-18T13:54:08Z</time></trkpt><trkpt lat="37.013390508863644" lon="14.809892945767972"><ele>510.33333333333337</ele><time>2026-04-18T13:54:09Z</time></trkpt><trkpt lat="37.01357234646463" lon="14.809898752896444"><ele>509.66666666666663</ele><time>2026-04-18T13:54:10Z</time></trkpt><trkpt lat="37.01375136904066" lon="14.809888335780197"><ele>509.0</ele><time>2026-04-18T13:54:11Z</time></trkpt><trkpt lat="37.01392313834805" lon="14.809854651088445"><ele>509.0</ele><time>2026-04-18T13:54:12Z</time></trkpt><trkpt lat="37.01408726653864" lon="14.809803888836722"><ele>509.0</ele><time>2026-04-18T13:54:13Z</time></trkpt><trkpt lat="37.01425461972706" lon="14.809746839134036"><ele>509.0</ele><time>2026-04-18T13:54:14Z</time></trkpt><trkpt lat="37.014424524472396" lon="14.809713686013094"><ele>509.66666666666663</ele><time>2026-04-18T13:54:15Z</time></trkpt><trkpt lat="37.014577367436026" lon="14.809677610814804"><ele>510.33333333333337</ele><time>2026-04-18T13:54:16Z</time></trkpt><trkpt lat="37.01475002695292" lon="14.809649952653443"><ele>511.0</ele><time>2026-04-18T13:54:17Z</time></trkpt><trkpt lat="37.01490216362128" lon="14.809633241464686"><ele>512.5</ele><time>2026-04-18T13:54:18Z</time></trkpt><trkpt lat="37.0150528041263" lon="14.80963379360238"><ele>514.0</ele><time>2026-04-18T13:54:19Z</time></trkpt><trkpt lat="37.015188507901335" lon="14.809670957354625"><ele>515.5</ele><time>2026-04-18T13:54:20Z</time></trkpt><trkpt lat="37.0153259245111" lon="14.809733677929446"><ele>517.0</ele><time>2026-04-18T13:54:21Z</time></trkpt><trkpt lat="37.01545000356684" lon="14.80981851295691"><ele>517.0</ele><time>2026-04-18T13:54:22Z</time></trkpt><trkpt lat="37.01557726865955" lon="14.809922782708767"><ele>517.0</ele><time>2026-04-18T13:54:23Z</time></trkpt><trkpt lat="37.01571206188726" lon="14.81001396159679"><ele>517.0</ele><time>2026-04-18T13:54:24Z</time></trkpt><trkpt lat="37.01585200373485" lon="14.810081310587488"><ele>517.0</ele><time>2026-04-18T13:54:24.999Z</time></trkpt><trkpt lat="37.01596824886929" lon="14.810129890434245"><ele>517.0</ele><time>2026-04-18T13:54:25.999Z</time></trkpt><trkpt lat="37.01607353152847" lon="14.810159662702024"><ele>517.0</ele><time>2026-04-18T13:54:26.999Z</time></trkpt><trkpt lat="37.016168630648956" lon="14.810155849252132"><ele>517.0</ele><time>2026-04-18T13:54:27.999Z</time></trkpt><trkpt lat="37.01625465578605" lon="14.810092388816859"><ele>517.0</ele><time>2026-04-18T13:54:28.999Z</time></trkpt><trkpt lat="37.01631974983581" lon="14.810014032651555"><ele>517.0</ele><time>2026-04-18T13:54:29.999Z</time></trkpt><trkpt lat="37.0163729352189" lon="14.809932066599613"><ele>517.0</ele><time>2026-04-18T13:54:30.999Z</time></trkpt><trkpt lat="37.01643027157038" lon="14.809888693050404"><ele>517.0</ele><time>2026-04-18T13:54:31.999Z</time></trkpt><trkpt lat="37.0165008421045" lon="14.809878147246094"><ele>517.0</ele><time>2026-04-18T13:54:32.999Z</time></trkpt><trkpt lat="37.01656233794168" lon="14.809898615670875"><ele>517.0</ele><time>2026-04-18T13:54:33.999Z</time></trkpt><trkpt lat="37.016626631090354" lon="14.80991362936728"><ele>517.0</ele><time>2026-04-18T13:54:34.999Z</time></trkpt><trkpt lat="37.01670031300187" lon="14.809946913194576"><ele>517.0</ele><time>2026-04-18T13:54:35.999Z</time></trkpt><trkpt lat="37.01677412836479" lon="14.80998847675547"><ele>517.0</ele><time>2026-04-18T13:54:36.999Z</time></trkpt><trkpt lat="37.01685526086187" lon="14.81003112700666"><ele>517.0</ele><time>2026-04-18T13:54:37.999Z</time></trkpt><trkpt lat="37.01694171442113" lon="14.810083524107984"><ele>517.0</ele><time>2026-04-18T13:54:38.999Z</time></trkpt><trkpt lat="37.01703711630631" lon="14.810134716990076"><ele>517.0</ele><time>2026-04-18T13:54:39.999Z</time></trkpt><trkpt lat="37.01714196730439" lon="14.810186379453143"><ele>517.0</ele><time>2026-04-18T13:54:40.999Z</time></trkpt><trkpt lat="37.01725261859658" lon="14.810233573174997"><ele>517.25</ele><time>2026-04-18T13:54:41.999Z</time></trkpt><trkpt lat="37.017376742096936" lon="14.810289985137974"><ele>517.5</ele><time>2026-04-18T13:54:42.999Z</time></trkpt><trkpt lat="37.01749565901032" lon="14.810329283177628"><ele>517.75</ele><time>2026-04-18T13:54:43.999Z</time></trkpt><trkpt lat="37.01761653333272" lon="14.810370054571587"><ele>518.0</ele><time>2026-04-18T13:54:44.999Z</time></trkpt><trkpt lat="37.01774705126328" lon="14.810402126974807"><ele>518.0</ele><time>2026-04-18T13:54:45.999Z</time></trkpt><trkpt lat="37.01788165104605" lon="14.810434862267487"><ele>518.0</ele><time>2026-04-18T13:54:46.999Z</time></trkpt><trkpt lat="37.01801761367618" lon="14.810468618040103"><ele>518.0</ele><time>2026-04-18T13:54:47.999Z</time></trkpt><trkpt lat="37.01815146395549" lon="14.810484993911057"><ele>518.0</ele><time>2026-04-18T13:54:48.999Z</time></trkpt><trkpt lat="37.01828521473128" lon="14.810484590131232"><ele>518.75</ele><time>2026-04-18T13:54:49.999Z</time></trkpt><trkpt lat="37.018415370324725" lon="14.810469878489448"><ele>519.5</ele><time>2026-04-18T13:54:50.999Z</time></trkpt><trkpt lat="37.01854847858858" lon="14.810467700641885"><ele>520.25</ele><time>2026-04-18T13:54:51.999Z</time></trkpt><trkpt lat="37.018688263426334" lon="14.810471754867084"><ele>521.0</ele><time>2026-04-18T13:54:52.999Z</time></trkpt><trkpt lat="37.01883143923667" lon="14.810475010751308"><ele>521.0</ele><time>2026-04-18T13:54:53.999Z</time></trkpt><trkpt lat="37.018981286441885" lon="14.810491449864571"><ele>521.0</ele><time>2026-04-18T13:54:54.999Z</time></trkpt><trkpt lat="37.019128885926705" lon="14.81052938080033"><ele>521.0</ele><time>2026-04-18T13:54:55.999Z</time></trkpt><trkpt lat="37.01927710122766" lon="14.810568219134602"><ele>521.3333333333333</ele><time>2026-04-18T13:54:56.999Z</time></trkpt><trkpt lat="37.0194240894683" lon="14.810589101908437"><ele>521.6666666666666</ele><time>2026-04-18T13:54:57.999Z</time></trkpt><trkpt lat="37.019581504353646" lon="14.810591394116907"><ele>522.0</ele><time>2026-04-18T13:54:58.999Z</time></trkpt><trkpt lat="37.019747024712885" lon="14.810577155323811"><ele>522.0</ele><time>2026-04-18T13:54:59.999Z</time></trkpt><trkpt lat="37.01990680580493" lon="14.810555149571027"><ele>522.0</ele><time>2026-04-18T13:55:00.999Z</time></trkpt><trkpt lat="37.020059582734135" lon="14.810523877671592"><ele>522.0</ele><time>2026-04-18T13:55:01.999Z</time></trkpt><trkpt lat="37.02022165468532" lon="14.81049783535921"><ele>522.0</ele><time>2026-04-18T13:55:02.999Z</time></trkpt><trkpt lat="37.02038686144292" lon="14.81048093007504"><ele>522.0</ele><time>2026-04-18T13:55:03.999Z</time></trkpt><trkpt lat="37.02054582994333" lon="14.810471278374372"><ele>522.0</ele><time>2026-04-18T13:55:04.999Z</time></trkpt><trkpt lat="37.02070446127418" lon="14.810475196914307"><ele>523.0</ele><time>2026-04-18T13:55:05.999Z</time></trkpt><trkpt lat="37.02086767394767" lon="14.810495292213323"><ele>524.0</ele><time>2026-04-18T13:55:06.999Z</time></trkpt><trkpt lat="37.02103865012491" lon="14.8105328333422"><ele>525.0</ele><time>2026-04-18T13:55:07.999Z</time></trkpt><trkpt lat="37.021205239551556" lon="14.810576708552304"><ele>525.0</ele><time>2026-04-18T13:55:08.999Z</time></trkpt><trkpt lat="37.02136469689358" lon="14.810623571335787"><ele>525.0</ele><time>2026-04-18T13:55:09.999Z</time></trkpt><trkpt lat="37.02151420029868" lon="14.810666247548061"><ele>525.0</ele><time>2026-04-18T13:55:10.999Z</time></trkpt><trkpt lat="37.02165635135178" lon="14.810697742426555"><ele>527.3333333333334</ele><time>2026-04-18T13:55:11.999Z</time></trkpt><trkpt lat="37.021803693274535" lon="14.810711287140144"><ele>529.6666666666667</ele><time>2026-04-18T13:55:12.999Z</time></trkpt><trkpt lat="37.02197492236021" lon="14.810708494070738"><ele>532.0</ele><time>2026-04-18T13:55:13.999Z</time></trkpt><trkpt lat="37.0221442411583" lon="14.810687609426068"><ele>532.0</ele><time>2026-04-18T13:55:14.999Z</time></trkpt><trkpt lat="37.0223043873522" lon="14.810670671790097"><ele>532.0</ele><time>2026-04-18T13:55:15.999Z</time></trkpt><trkpt lat="37.022458191731374" lon="14.810653431822724"><ele>532.0</ele><time>2026-04-18T13:55:16.999Z</time></trkpt><trkpt lat="37.02259473295223" lon="14.810641302130193"><ele>533.25</ele><time>2026-04-18T13:55:17.999Z</time></trkpt><trkpt lat="37.02271989117943" lon="14.810626411474935"><ele>534.5</ele><time>2026-04-18T13:55:18.999Z</time></trkpt><trkpt lat="37.0228451688651" lon="14.810598426522459"><ele>535.75</ele><time>2026-04-18T13:55:19.999Z</time></trkpt><trkpt lat="37.02295953111494" lon="14.810548091490746"><ele>537.0</ele><time>2026-04-18T13:55:20.999Z</time></trkpt><trkpt lat="37.0230668862605" lon="14.810477484777381"><ele>537.0</ele><time>2026-04-18T13:55:21.999Z</time></trkpt><trkpt lat="37.023163337180776" lon="14.810375882131805"><ele>537.0</ele><time>2026-04-18T13:55:22.999Z</time></trkpt><trkpt lat="37.02327059744662" lon="14.810238717887257"><ele>537.0</ele><time>2026-04-18T13:55:23.999Z</time></trkpt><trkpt lat="37.02336052579622" lon="14.810091596104359"><ele>537.0</ele><time>2026-04-18T13:55:24.999Z</time></trkpt><trkpt lat="37.02343474442406" lon="14.809945977992381"><ele>539.75</ele><time>2026-04-18T13:55:25.999Z</time></trkpt><trkpt lat="37.0234890375424" lon="14.809791464827649"><ele>542.5</ele><time>2026-04-18T13:55:26.999Z</time></trkpt><trkpt lat="37.02352321336868" lon="14.80963736321688"><ele>545.25</ele><time>2026-04-18T13:55:27.999Z</time></trkpt><trkpt lat="37.02356039737839" lon="14.809496968001438"><ele>548.0</ele><time>2026-04-18T13:55:28.999Z</time></trkpt><trkpt lat="37.0235953146723" lon="14.809361479525323"><ele>548.8</ele><time>2026-04-18T13:55:29.999Z</time></trkpt><trkpt lat="37.02362969401508" lon="14.809242009373966"><ele>549.5999999999999</ele><time>2026-04-18T13:55:30.999Z</time></trkpt><trkpt lat="37.02367794895938" lon="14.809129261514348"><ele>550.4000000000001</ele><time>2026-04-18T13:55:31.999Z</time></trkpt><trkpt lat="37.02374568611114" lon="14.809018970091135"><ele>551.2</ele><time>2026-04-18T13:55:32.999Z</time></trkpt><trkpt lat="37.02383262686479" lon="14.80890672073787"><ele>552.0</ele><time>2026-04-18T13:55:33.999Z</time></trkpt><trkpt lat="37.02392584541275" lon="14.808786437289779"><ele>552.0</ele><time>2026-04-18T13:55:34.999Z</time></trkpt><trkpt lat="37.0240139992756" lon="14.808645347131653"><ele>552.0</ele><time>2026-04-18T13:55:35.999Z</time></trkpt><trkpt lat="37.02409139124033" lon="14.808491220202916"><ele>552.0</ele><time>2026-04-18T13:55:36.998Z</time></trkpt><trkpt lat="37.02416629947689" lon="14.808336626972975"><ele>552.0</ele><time>2026-04-18T13:55:37.998Z</time></trkpt><trkpt lat="37.02424485124758" lon="14.80818798862248"><ele>548.75</ele><time>2026-04-18T13:55:39Z</time></trkpt><trkpt lat="37.02433014751998" lon="14.808042661014127"><ele>545.5</ele><time>2026-04-18T13:55:40Z</time></trkpt><trkpt lat="37.024417227824244" lon="14.807893119300891"><ele>542.25</ele><time>2026-04-18T13:55:41Z</time></trkpt><trkpt lat="37.02450726788285" lon="14.807735541631203"><ele>539.0</ele><time>2026-04-18T13:55:42Z</time></trkpt><trkpt lat="37.024588255804524" lon="14.807575194568487"><ele>535.75</ele><time>2026-04-18T13:55:43Z</time></trkpt><trkpt lat="37.02466189942381" lon="14.80741171762111"><ele>532.5</ele><time>2026-04-18T13:55:44Z</time></trkpt><trkpt lat="37.02473530729752" lon="14.80725445428159"><ele>529.25</ele><time>2026-04-18T13:55:45Z</time></trkpt><trkpt lat="37.024811875590125" lon="14.807105056059552"><ele>526.0</ele><time>2026-04-18T13:55:46Z</time></trkpt><trkpt lat="37.02487848831499" lon="14.806971109263147"><ele>526.0</ele><time>2026-04-18T13:55:47Z</time></trkpt><trkpt lat="37.02494273542578" lon="14.80685359503407"><ele>526.0</ele><time>2026-04-18T13:55:48Z</time></trkpt><trkpt lat="37.0250169181562" lon="14.80676110550847"><ele>526.0</ele><time>2026-04-18T13:55:49Z</time></trkpt><trkpt lat="37.02509930458796" lon="14.806696121619474"><ele>526.0</ele><time>2026-04-18T13:55:50Z</time></trkpt><trkpt lat="37.02519244282515" lon="14.806661599362036"><ele>526.0</ele><time>2026-04-18T13:55:51Z</time></trkpt><trkpt lat="37.02529051129796" lon="14.806655746354346"><ele>524.8</ele><time>2026-04-18T13:55:52Z</time></trkpt><trkpt lat="37.02539027143219" lon="14.806680167191676"><ele>523.6</ele><time>2026-04-18T13:55:53Z</time></trkpt><trkpt lat="37.025490373105676" lon="14.806638159579926"><ele>522.4</ele><time>2026-04-18T13:55:54Z</time></trkpt><trkpt lat="37.025582046439446" lon="14.806556561445237"><ele>521.2</ele><time>2026-04-18T13:55:55Z</time></trkpt><trkpt lat="37.02564848205427" lon="14.806457362775564"><ele>520.0</ele><time>2026-04-18T13:55:56Z</time></trkpt><trkpt lat="37.02567306996895" lon="14.80632768064784"><ele>520.0</ele><time>2026-04-18T13:55:57Z</time></trkpt><trkpt lat="37.02570042389874" lon="14.806215678423076"><ele>520.0</ele><time>2026-04-18T13:55:58Z</time></trkpt><trkpt lat="37.025751842969996" lon="14.806127500129332"><ele>520.0</ele><time>2026-04-18T13:55:59Z</time></trkpt><trkpt lat="37.025813152091345" lon="14.806045503468637"><ele>520.0</ele><time>2026-04-18T13:56:00Z</time></trkpt><trkpt lat="37.02588555575439" lon="14.805980537573635"><ele>520.0</ele><time>2026-04-18T13:56:01Z</time></trkpt><trkpt lat="37.02596903635303" lon="14.805909314745852"><ele>519.0</ele><time>2026-04-18T13:56:02Z</time></trkpt><trkpt lat="37.02605184789657" lon="14.805841410916567"><ele>518.0</ele><time>2026-04-18T13:56:03Z</time></trkpt><trkpt lat="37.02614220759613" lon="14.805771460598399"><ele>517.0</ele><time>2026-04-18T13:56:04Z</time></trkpt><trkpt lat="37.026232229058785" lon="14.805705811092247"><ele>516.0</ele><time>2026-04-18T13:56:05Z</time></trkpt><trkpt lat="37.02632212460008" lon="14.80565738091446"><ele>515.0</ele><time>2026-04-18T13:56:06Z</time></trkpt><trkpt lat="37.026418298674045" lon="14.805625290391308"><ele>515.0</ele><time>2026-04-18T13:56:07Z</time></trkpt><trkpt lat="37.02651658093635" lon="14.80560689608051"><ele>515.0</ele><time>2026-04-18T13:56:08Z</time></trkpt><trkpt lat="37.02661948916665" lon="14.805591757344466"><ele>515.0</ele><time>2026-04-18T13:56:09Z</time></trkpt><trkpt lat="37.026732509972895" lon="14.805575130951576"><ele>515.0</ele><time>2026-04-18T13:56:10Z</time></trkpt><trkpt lat="37.02684926189125" lon="14.805556966690133"><ele>515.0</ele><time>2026-04-18T13:56:11Z</time></trkpt><trkpt lat="37.0269757000309" lon="14.805536610688206"><ele>515.4</ele><time>2026-04-18T13:56:12Z</time></trkpt><trkpt lat="37.027091196010744" lon="14.805520227479226"><ele>515.8</ele><time>2026-04-18T13:56:13Z</time></trkpt><trkpt lat="37.027201536893116" lon="14.80551162151128"><ele>516.2</ele><time>2026-04-18T13:56:14Z</time></trkpt><trkpt lat="37.027305577964846" lon="14.805523091901575"><ele>516.6</ele><time>2026-04-18T13:56:15Z</time></trkpt><trkpt lat="37.02740092719492" lon="14.805543722630565"><ele>517.0</ele><time>2026-04-18T13:56:16Z</time></trkpt><trkpt lat="37.027494682673506" lon="14.805556900017995"><ele>517.0</ele><time>2026-04-18T13:56:17Z</time></trkpt><trkpt lat="37.02757715625991" lon="14.8055471250378"><ele>517.0</ele><time>2026-04-18T13:56:18Z</time></trkpt><trkpt lat="37.027658087746126" lon="14.805482139925505"><ele>517.0</ele><time>2026-04-18T13:56:19Z</time></trkpt><trkpt lat="37.02769653937459" lon="14.805367401166595"><ele>517.0</ele><time>2026-04-18T13:56:20Z</time></trkpt><trkpt lat="37.02773170178829" lon="14.805255864996663"><ele>517.0</ele><time>2026-04-18T13:56:21Z</time></trkpt><trkpt lat="37.027760207605084" lon="14.805143194097596"><ele>514.6</ele><time>2026-04-18T13:56:22Z</time></trkpt><trkpt lat="37.02782246972941" lon="14.805053609196616"><ele>512.2</ele><time>2026-04-18T13:56:23Z</time></trkpt><trkpt lat="37.02788468146975" lon="14.804964250086922"><ele>509.8</ele><time>2026-04-18T13:56:24Z</time></trkpt><trkpt lat="37.02795711424264" lon="14.80488920841099"><ele>507.4</ele><time>2026-04-18T13:56:25Z</time></trkpt><trkpt lat="37.02804180097526" lon="14.804822444590341"><ele>505.0</ele><time>2026-04-18T13:56:26Z</time></trkpt><trkpt lat="37.028132091111836" lon="14.804765339820776"><ele>505.0</ele><time>2026-04-18T13:56:27Z</time></trkpt><trkpt lat="37.02822369507755" lon="14.804728491807278"><ele>505.0</ele><time>2026-04-18T13:56:28Z</time></trkpt><trkpt lat="37.028314485282145" lon="14.804719166396286"><ele>505.0</ele><time>2026-04-18T13:56:29Z</time></trkpt><trkpt lat="37.02841177938902" lon="14.804711307543831"><ele>505.0</ele><time>2026-04-18T13:56:29.999Z</time></trkpt><trkpt lat="37.02850808645976" lon="14.80470285656587"><ele>505.0</ele><time>2026-04-18T13:56:30.999Z</time></trkpt><trkpt lat="37.02861696183163" lon="14.804691120768368"><ele>506.0</ele><time>2026-04-18T13:56:31.999Z</time></trkpt><trkpt lat="37.02872007731336" lon="14.804691266943669"><ele>507.0</ele><time>2026-04-18T13:56:32.999Z</time></trkpt><trkpt lat="37.02882948579667" lon="14.80471395047189"><ele>508.0</ele><time>2026-04-18T13:56:33.999Z</time></trkpt><trkpt lat="37.02894209575074" lon="14.804746636850176"><ele>509.0</ele><time>2026-04-18T13:56:34.999Z</time></trkpt><trkpt lat="37.029064144289" lon="14.804781699428915"><ele>508.25</ele><time>2026-04-18T13:56:35.999Z</time></trkpt><trkpt lat="37.0291955633492" lon="14.80479931473274"><ele>507.5</ele><time>2026-04-18T13:56:36.999Z</time></trkpt><trkpt lat="37.02932851242014" lon="14.804787116688901"><ele>506.75</ele><time>2026-04-18T13:56:37.999Z</time></trkpt><trkpt lat="37.02945726752878" lon="14.804761157164979"><ele>506.0</ele><time>2026-04-18T13:56:38.999Z</time></trkpt><trkpt lat="37.02958851309036" lon="14.804734567031181"><ele>506.0</ele><time>2026-04-18T13:56:39.999Z</time></trkpt><trkpt lat="37.02971044898085" lon="14.804700593375395"><ele>506.0</ele><time>2026-04-18T13:56:40.999Z</time></trkpt><trkpt lat="37.029828522351764" lon="14.804657047054185"><ele>506.0</ele><time>2026-04-18T13:56:41.999Z</time></trkpt><trkpt lat="37.029941938157755" lon="14.804614421727198"><ele>506.0</ele><time>2026-04-18T13:56:42.999Z</time></trkpt><trkpt lat="37.0300585409728" lon="14.804601160370146"><ele>504.5</ele><time>2026-04-18T13:56:43.999Z</time></trkpt><trkpt lat="37.03017287101726" lon="14.804611913330168"><ele>503.0</ele><time>2026-04-18T13:56:44.999Z</time></trkpt><trkpt lat="37.030281250017225" lon="14.804635630005732"><ele>501.5</ele><time>2026-04-18T13:56:45.999Z</time></trkpt><trkpt lat="37.03039961643637" lon="14.804626357144139"><ele>500.0</ele><time>2026-04-18T13:56:46.999Z</time></trkpt><trkpt lat="37.030512510139154" lon="14.804577733375712"><ele>500.0</ele><time>2026-04-18T13:56:47.999Z</time></trkpt><trkpt lat="37.03063121300675" lon="14.804566447784708"><ele>500.0</ele><time>2026-04-18T13:56:48.999Z</time></trkpt><trkpt lat="37.030737643772355" lon="14.804512313968518"><ele>500.0</ele><time>2026-04-18T13:56:49.999Z</time></trkpt><trkpt lat="37.0308441427244" lon="14.804489257098304"><ele>500.0</ele><time>2026-04-18T13:56:50.999Z</time></trkpt><trkpt lat="37.0309315912857" lon="14.804415211034044"><ele>500.0</ele><time>2026-04-18T13:56:51.999Z</time></trkpt><trkpt lat="37.03102973378233" lon="14.804354473865361"><ele>498.0</ele><time>2026-04-18T13:56:52.999Z</time></trkpt><trkpt lat="37.0311201721972" lon="14.80425814504191"><ele>496.0</ele><time>2026-04-18T13:56:53.999Z</time></trkpt><trkpt lat="37.03121364815981" lon="14.804172678109982"><ele>494.0</ele><time>2026-04-18T13:56:54.999Z</time></trkpt><trkpt lat="37.03131523410472" lon="14.804099000570986"><ele>492.0</ele><time>2026-04-18T13:56:55.999Z</time></trkpt><trkpt lat="37.03143550286675" lon="14.804047489397902"><ele>492.0</ele><time>2026-04-18T13:56:56.999Z</time></trkpt><trkpt lat="37.03158392031275" lon="14.80403274271966"><ele>492.0</ele><time>2026-04-18T13:56:57.999Z</time></trkpt><trkpt lat="37.03174318566006" lon="14.803992838950276"><ele>492.0</ele><time>2026-04-18T13:56:58.999Z</time></trkpt><trkpt lat="37.03188976932818" lon="14.803922239021952"><ele>491.66666666666663</ele><time>2026-04-18T13:56:59.999Z</time></trkpt><trkpt lat="37.03202276386702" lon="14.803859835405648"><ele>491.3333333333333</ele><time>2026-04-18T13:57:00.999Z</time></trkpt><trkpt lat="37.032147412794714" lon="14.803765623714414"><ele>491.0</ele><time>2026-04-18T13:57:01.999Z</time></trkpt><trkpt lat="37.03226639052265" lon="14.803600762747275"><ele>490.3333333333333</ele><time>2026-04-18T13:57:02.999Z</time></trkpt><trkpt lat="37.03241694732145" lon="14.803460267314797"><ele>489.66666666666663</ele><time>2026-04-18T13:57:03.999Z</time></trkpt><trkpt lat="37.032548994977226" lon="14.80331525699215"><ele>489.0</ele><time>2026-04-18T13:57:04.999Z</time></trkpt><trkpt lat="37.03266134155672" lon="14.803155458587382"><ele>489.0</ele><time>2026-04-18T13:57:05.999Z</time></trkpt><trkpt lat="37.03277896806088" lon="14.803011913398517"><ele>489.0</ele><time>2026-04-18T13:57:06.999Z</time></trkpt><trkpt lat="37.032865855607234" lon="14.802860044450679"><ele>489.0</ele><time>2026-04-18T13:57:07.999Z</time></trkpt><trkpt lat="37.03292663603867" lon="14.80270071546775"><ele>488.75</ele><time>2026-04-18T13:57:08.999Z</time></trkpt><trkpt lat="37.032989700309884" lon="14.802557084304786"><ele>488.5</ele><time>2026-04-18T13:57:09.999Z</time></trkpt><trkpt lat="37.03305995666684" lon="14.802424889602857"><ele>488.25</ele><time>2026-04-18T13:57:10.999Z</time></trkpt><trkpt lat="37.03313448053188" lon="14.802320325729674"><ele>488.0</ele><time>2026-04-18T13:57:11.999Z</time></trkpt><trkpt lat="37.033215158882705" lon="14.802206147773225"><ele>488.0</ele><time>2026-04-18T13:57:12.999Z</time></trkpt><trkpt lat="37.03328781942693" lon="14.802095499572665"><ele>487.99999999999994</ele><time>2026-04-18T13:57:13.999Z</time></trkpt><trkpt lat="37.03333040219858" lon="14.801964510422167"><ele>487.99999999999994</ele><time>2026-04-18T13:57:14.999Z</time></trkpt><trkpt lat="37.03333379674974" lon="14.801828664298075"><ele>488.0</ele><time>2026-04-18T13:57:15.999Z</time></trkpt><trkpt lat="37.03333512197221" lon="14.801701421064616"><ele>488.0</ele><time>2026-04-18T13:57:16.999Z</time></trkpt><trkpt lat="37.03333541093872" lon="14.801541068119239"><ele>488.0</ele><time>2026-04-18T13:57:17.999Z</time></trkpt><trkpt lat="37.03331962686661" lon="14.80137230101119"><ele>488.0</ele><time>2026-04-18T13:57:18.999Z</time></trkpt><trkpt lat="37.0333099865427" lon="14.80122937091119"><ele>488.0</ele><time>2026-04-18T13:57:19.999Z</time></trkpt><trkpt lat="37.03332691817887" lon="14.801100776398144"><ele>488.0</ele><time>2026-04-18T13:57:20.999Z</time></trkpt><trkpt lat="37.03338355831498" lon="14.800995583083301"><ele>487.4</ele><time>2026-04-18T13:57:21.999Z</time></trkpt><trkpt lat="37.03344441884109" lon="14.800900573799256"><ele>486.79999999999995</ele><time>2026-04-18T13:57:22.999Z</time></trkpt><trkpt lat="37.033517828559965" lon="14.800806082546792"><ele>486.2</ele><time>2026-04-18T13:57:23.999Z</time></trkpt><trkpt lat="37.03360921996455" lon="14.800729588373292"><ele>485.6</ele><time>2026-04-18T13:57:24.999Z</time></trkpt><trkpt lat="37.033707835736465" lon="14.800677816421175"><ele>485.0</ele><time>2026-04-18T13:57:25.999Z</time></trkpt><trkpt lat="37.033822384024944" lon="14.800643390246185"><ele>485.0</ele><time>2026-04-18T13:57:26.999Z</time></trkpt><trkpt lat="37.03396382188917" lon="14.800603446962894"><ele>485.0</ele><time>2026-04-18T13:57:27.999Z</time></trkpt><trkpt lat="37.03411383859378" lon="14.80055036199026"><ele>485.0</ele><time>2026-04-18T13:57:28.999Z</time></trkpt><trkpt lat="37.03424444967007" lon="14.800468103763642"><ele>485.0</ele><time>2026-04-18T13:57:29.999Z</time></trkpt><trkpt lat="37.03437428389801" lon="14.800376002721308"><ele>486.0</ele><time>2026-04-18T13:57:30.999Z</time></trkpt><trkpt lat="37.03451265155807" lon="14.800257881162686"><ele>487.0</ele><time>2026-04-18T13:57:31.999Z</time></trkpt><trkpt lat="37.03464956870081" lon="14.800150657478849"><ele>488.0</ele><time>2026-04-18T13:57:32.999Z</time></trkpt><trkpt lat="37.034790757797154" lon="14.800041036145267"><ele>486.66666666666663</ele><time>2026-04-18T13:57:33.999Z</time></trkpt><trkpt lat="37.03492868530863" lon="14.799933948286828"><ele>485.33333333333337</ele><time>2026-04-18T13:57:34.999Z</time></trkpt><trkpt lat="37.035064253518435" lon="14.79982903474818"><ele>484.0</ele><time>2026-04-18T13:57:35.999Z</time></trkpt><trkpt lat="37.035190183527654" lon="14.799730430414177"><ele>484.0</ele><time>2026-04-18T13:57:36.999Z</time></trkpt><trkpt lat="37.03530706698401" lon="14.799633895857205"><ele>484.0</ele><time>2026-04-18T13:57:37.999Z</time></trkpt><trkpt lat="37.03541095943735" lon="14.799536954073988"><ele>484.0</ele><time>2026-04-18T13:57:38.999Z</time></trkpt><trkpt lat="37.035507960869616" lon="14.799418210616462"><ele>484.0</ele><time>2026-04-18T13:57:39.999Z</time></trkpt><trkpt lat="37.03557937261107" lon="14.799277835883936"><ele>483.5</ele><time>2026-04-18T13:57:40.999Z</time></trkpt><trkpt lat="37.0356480489632" lon="14.799149481420024"><ele>483.0</ele><time>2026-04-18T13:57:41.998Z</time></trkpt><trkpt lat="37.03572320558276" lon="14.799015745877538"><ele>482.5</ele><time>2026-04-18T13:57:42.998Z</time></trkpt><trkpt lat="37.03580369065733" lon="14.7989012512598"><ele>482.0</ele><time>2026-04-18T13:57:43.998Z</time></trkpt><trkpt lat="37.0358929272176" lon="14.798810324538715"><ele>482.0</ele><time>2026-04-18T13:57:45Z</time></trkpt><trkpt lat="37.03596619062768" lon="14.798713188509614"><ele>482.00000000000006</ele><time>2026-04-18T13:57:46Z</time></trkpt><trkpt lat="37.03603699946139" lon="14.798622132648562"><ele>482.00000000000006</ele><time>2026-04-18T13:57:47Z</time></trkpt><trkpt lat="37.03610119582171" lon="14.79850498038512"><ele>482.0</ele><time>2026-04-18T13:57:48Z</time></trkpt><trkpt lat="37.03611789904681" lon="14.79835616179055"><ele>482.0</ele><time>2026-04-18T13:57:49Z</time></trkpt><trkpt lat="37.03613702523419" lon="14.798202830211048"><ele>480.6</ele><time>2026-04-18T13:57:50Z</time></trkpt><trkpt lat="37.03619441329535" lon="14.798074096925232"><ele>479.20000000000005</ele><time>2026-04-18T13:57:51Z</time></trkpt><trkpt lat="37.03625400400216" lon="14.797965115742086"><ele>477.8</ele><time>2026-04-18T13:57:52Z</time></trkpt><trkpt lat="37.03631745857072" lon="14.797866463650212"><ele>476.4</ele><time>2026-04-18T13:57:53Z</time></trkpt><trkpt lat="37.036372775950156" lon="14.797770743166708"><ele>475.0</ele><time>2026-04-18T13:57:54Z</time></trkpt><trkpt lat="37.03643984774404" lon="14.797708778367854"><ele>475.0</ele><time>2026-04-18T13:57:55Z</time></trkpt><trkpt lat="37.036538650986785" lon="14.797648172435075"><ele>475.0</ele><time>2026-04-18T13:57:56Z</time></trkpt><trkpt lat="37.036631802119345" lon="14.797573365730079"><ele>475.0</ele><time>2026-04-18T13:57:57Z</time></trkpt><trkpt lat="37.03673190597123" lon="14.797497726388551"><ele>475.0</ele><time>2026-04-18T13:57:58Z</time></trkpt><trkpt lat="37.03683870630214" lon="14.797420756375947"><ele>475.0</ele><time>2026-04-18T13:57:59Z</time></trkpt><trkpt lat="37.036952491943936" lon="14.797345525802543"><ele>475.0</ele><time>2026-04-18T13:58:00Z</time></trkpt><trkpt lat="37.03707335993695" lon="14.797266251783924"><ele>475.0</ele><time>2026-04-18T13:58:01Z</time></trkpt><trkpt lat="37.037196958192126" lon="14.797179470896907"><ele>475.0</ele><time>2026-04-18T13:58:02Z</time></trkpt><trkpt lat="37.03731949185816" lon="14.797085036297192"><ele>475.0</ele><time>2026-04-18T13:58:03Z</time></trkpt><trkpt lat="37.03744082760049" lon="14.796979462174145"><ele>475.0</ele><time>2026-04-18T13:58:04Z</time></trkpt><trkpt lat="37.03755071111601" lon="14.796865339760394"><ele>475.0</ele><time>2026-04-18T13:58:05Z</time></trkpt><trkpt lat="37.03765997567446" lon="14.796748177044513"><ele>475.0</ele><time>2026-04-18T13:58:06Z</time></trkpt><trkpt lat="37.037765308865936" lon="14.796631785906794"><ele>474.5</ele><time>2026-04-18T13:58:07Z</time></trkpt><trkpt lat="37.03787010695765" lon="14.796516356102082"><ele>474.0</ele><time>2026-04-18T13:58:08Z</time></trkpt><trkpt lat="37.03797241584363" lon="14.796403917651183"><ele>473.5</ele><time>2026-04-18T13:58:09Z</time></trkpt><trkpt lat="37.038072146118836" lon="14.796296283117039"><ele>473.0</ele><time>2026-04-18T13:58:10Z</time></trkpt><trkpt lat="37.03816484159623" lon="14.796196240943283"><ele>473.0</ele><time>2026-04-18T13:58:11Z</time></trkpt><trkpt lat="37.03824984176881" lon="14.796092148967988"><ele>473.0</ele><time>2026-04-18T13:58:12Z</time></trkpt><trkpt lat="37.0382930133179" lon="14.795959354005685"><ele>473.0</ele><time>2026-04-18T13:58:13Z</time></trkpt><trkpt lat="37.03831499274116" lon="14.795819123973695"><ele>473.0</ele><time>2026-04-18T13:58:14Z</time></trkpt><trkpt lat="37.03835301108066" lon="14.795685146504415"><ele>472.59999999999997</ele><time>2026-04-18T13:58:15Z</time></trkpt><trkpt lat="37.03838523768992" lon="14.7955545332696"><ele>472.19999999999993</ele><time>2026-04-18T13:58:16Z</time></trkpt><trkpt lat="37.03841669907048" lon="14.795463846323448"><ele>471.8</ele><time>2026-04-18T13:58:17Z</time></trkpt><trkpt lat="37.038442384981764" lon="14.79535735482445"><ele>471.4</ele><time>2026-04-18T13:58:19Z</time></trkpt><trkpt lat="37.03847658413956" lon="14.795203375117326"><ele>471.0</ele><time>2026-04-18T14:00:52.999Z</time></trkpt><trkpt lat="37.03849763203977" lon="14.795106823559905"><ele>470.6</ele><time>2026-04-18T14:00:53.999Z</time></trkpt><trkpt lat="37.038532233956715" lon="14.795010742290295"><ele>470.20000000000005</ele><time>2026-04-18T14:00:54.999Z</time></trkpt><trkpt lat="37.03857039184183" lon="14.794901619084364"><ele>469.79999999999995</ele><time>2026-04-18T14:00:55.999Z</time></trkpt><trkpt lat="37.038600571398696" lon="14.794774617855824"><ele>469.4</ele><time>2026-04-18T14:00:56.999Z</time></trkpt><trkpt lat="37.038640389802026" lon="14.794654367577028"><ele>469.0</ele><time>2026-04-18T14:00:57.999Z</time></trkpt><trkpt lat="37.03871516792052" lon="14.794586119010939"><ele>469.0</ele><time>2026-04-18T14:00:58.999Z</time></trkpt><trkpt lat="37.0387899894944" lon="14.794543303019912"><ele>469.0</ele><time>2026-04-18T14:00:59.999Z</time></trkpt><trkpt lat="37.03887290054036" lon="14.794516316408291"><ele>469.0</ele><time>2026-04-18T14:01:00.999Z</time></trkpt><trkpt lat="37.03895673288561" lon="14.794523291843667"><ele>469.0</ele><time>2026-04-18T14:01:01.999Z</time></trkpt><trkpt lat="37.03904653123542" lon="14.794546479803092"><ele>469.0</ele><time>2026-04-18T14:01:02.999Z</time></trkpt><trkpt lat="37.03915454908212" lon="14.79457160528139"><ele>469.0</ele><time>2026-04-18T14:01:03.999Z</time></trkpt><trkpt lat="37.039268689762885" lon="14.794605279664689"><ele>469.0</ele><time>2026-04-18T14:01:04.999Z</time></trkpt><trkpt lat="37.03942120162639" lon="14.794643978729907"><ele>469.0</ele><time>2026-04-18T14:01:05.999Z</time></trkpt><trkpt lat="37.03958722867394" lon="14.794688589435284"><ele>469.0</ele><time>2026-04-18T14:01:06.999Z</time></trkpt><trkpt lat="37.03974589914981" lon="14.794731986095398"><ele>469.0</ele><time>2026-04-18T14:01:07.999Z</time></trkpt><trkpt lat="37.039914062795454" lon="14.794778395727908"><ele>469.0</ele><time>2026-04-18T14:01:08.999Z</time></trkpt><trkpt lat="37.04008715127314" lon="14.79477996628426"><ele>469.0</ele><time>2026-04-18T14:01:09.999Z</time></trkpt><trkpt lat="37.04027780280632" lon="14.79483225817638"><ele>471.0</ele><time>2026-04-18T14:01:10.999Z</time></trkpt><trkpt lat="37.04049925180889" lon="14.794897139257246"><ele>473.0</ele><time>2026-04-18T14:01:11.999Z</time></trkpt><trkpt lat="37.04072451660077" lon="14.794953000454445"><ele>474.3333333333333</ele><time>2026-04-18T14:01:12.999Z</time></trkpt><trkpt lat="37.0409408853593" lon="14.795002109814723"><ele>475.66666666666663</ele><time>2026-04-18T14:01:13.999Z</time></trkpt><trkpt lat="37.04114278955442" lon="14.795064436921882"><ele>477.0</ele><time>2026-04-18T14:01:14.999Z</time></trkpt><trkpt lat="37.04133361807545" lon="14.795162445063038"><ele>477.0</ele><time>2026-04-18T14:01:15.999Z</time></trkpt><trkpt lat="37.041526915006344" lon="14.795214816828075"><ele>477.0</ele><time>2026-04-18T14:01:16.999Z</time></trkpt><trkpt lat="37.041693713525405" lon="14.795260009098484"><ele>477.0</ele><time>2026-04-18T14:01:17.999Z</time></trkpt><trkpt lat="37.04184930020674" lon="14.795291526397852"><ele>478.0</ele><time>2026-04-18T14:01:18.999Z</time></trkpt><trkpt lat="37.04199059204452" lon="14.795278328601874"><ele>479.0</ele><time>2026-04-18T14:01:19.999Z</time></trkpt><trkpt lat="37.04213638295628" lon="14.79526641992058"><ele>480.0</ele><time>2026-04-18T14:01:20.999Z</time></trkpt><trkpt lat="37.042277032756616" lon="14.795219085519514"><ele>481.0</ele><time>2026-04-18T14:01:21.999Z</time></trkpt><trkpt lat="37.04242217246269" lon="14.79515374457145"><ele>483.5</ele><time>2026-04-18T14:01:22.999Z</time></trkpt><trkpt lat="37.04257296581736" lon="14.795131365516959"><ele>486.0</ele><time>2026-04-18T14:01:23.999Z</time></trkpt><trkpt lat="37.04271885505947" lon="14.795091833813478"><ele>488.5</ele><time>2026-04-18T14:01:24.999Z</time></trkpt><trkpt lat="37.042862746879344" lon="14.79505284335851"><ele>491.0</ele><time>2026-04-18T14:01:25.999Z</time></trkpt><trkpt lat="37.04301197299183" lon="14.795012407482217"><ele>491.0</ele><time>2026-04-18T14:01:26.999Z</time></trkpt><trkpt lat="37.043156099293654" lon="14.794973353826467"><ele>491.0</ele><time>2026-04-18T14:01:27.999Z</time></trkpt><trkpt lat="37.0432942596674" lon="14.794936096829918"><ele>491.0</ele><time>2026-04-18T14:01:28.999Z</time></trkpt><trkpt lat="37.04343189637163" lon="14.794898930612462"><ele>491.0</ele><time>2026-04-18T14:01:29.999Z</time></trkpt><trkpt lat="37.04356751547882" lon="14.794862941477932"><ele>491.75</ele><time>2026-04-18T14:01:30.999Z</time></trkpt><trkpt lat="37.04370024475222" lon="14.794827677125248"><ele>492.5</ele><time>2026-04-18T14:01:31.999Z</time></trkpt><trkpt lat="37.04382215306168" lon="14.794795347596889"><ele>493.25</ele><time>2026-04-18T14:01:32.999Z</time></trkpt><trkpt lat="37.04394430513364" lon="14.794762953385003"><ele>494.0</ele><time>2026-04-18T14:01:33.999Z</time></trkpt><trkpt lat="37.04405639745201" lon="14.794733227004057"><ele>496.0</ele><time>2026-04-18T14:01:34.999Z</time></trkpt><trkpt lat="37.044168646652125" lon="14.794703458998223"><ele>498.0</ele><time>2026-04-18T14:01:35.999Z</time></trkpt><trkpt lat="37.04428242330319" lon="14.794673287197492"><ele>500.0</ele><time>2026-04-18T14:01:36.999Z</time></trkpt><trkpt lat="37.04439344109881" lon="14.794643588786002"><ele>502.0</ele><time>2026-04-18T14:01:37.999Z</time></trkpt><trkpt lat="37.04451130741756" lon="14.794611717345877"><ele>502.0</ele><time>2026-04-18T14:01:38.999Z</time></trkpt><trkpt lat="37.044630540281545" lon="14.79457798588355"><ele>502.0</ele><time>2026-04-18T14:01:39.999Z</time></trkpt><trkpt lat="37.044742476606615" lon="14.794545705301301"><ele>502.0</ele><time>2026-04-18T14:01:40.999Z</time></trkpt><trkpt lat="37.04485343133678" lon="14.794513706975758"><ele>502.0</ele><time>2026-04-18T14:01:41.999Z</time></trkpt><trkpt lat="37.04495015805019" lon="14.794485457562844"><ele>503.6666666666667</ele><time>2026-04-18T14:01:42.999Z</time></trkpt><trkpt lat="37.04503372190754" lon="14.794463235496192"><ele>505.33333333333337</ele><time>2026-04-18T14:01:43.999Z</time></trkpt><trkpt lat="37.045111523856626" lon="14.794442677394445"><ele>507.0</ele><time>2026-04-18T14:01:44.999Z</time></trkpt><trkpt lat="37.04518782803768" lon="14.794423056565218"><ele>508.66666666666663</ele><time>2026-04-18T14:01:45.999Z</time></trkpt><trkpt lat="37.04526059304867" lon="14.794404241791112"><ele>510.3333333333333</ele><time>2026-04-18T14:01:46.999Z</time></trkpt><trkpt lat="37.04533609634801" lon="14.794384718944844"><ele>512.0</ele><time>2026-04-18T14:01:47.999Z</time></trkpt><trkpt lat="37.04539864980587" lon="14.794368544572704"><ele>512.0</ele><time>2026-04-18T14:01:48.999Z</time></trkpt><trkpt lat="37.04551240913464" lon="14.794339129933547"><ele>512.0</ele><time>2026-04-18T14:01:50.999Z</time></trkpt><trkpt lat="37.045540702451866" lon="14.794212714169344"><ele>512.0</ele><time>2026-04-18T14:01:51.999Z</time></trkpt><trkpt lat="37.04562113872547" lon="14.79413773593427"><ele>512.0</ele><time>2026-04-18T14:01:53.998Z</time></trkpt><trkpt lat="37.045719518220636" lon="14.794081513882682"><ele>512.0</ele><time>2026-04-18T14:01:55.998Z</time></trkpt><trkpt lat="37.04581265773692" lon="14.79426380226059"><ele>512.0</ele><time>2026-04-18T14:01:57Z</time></trkpt><trkpt lat="37.04584237429627" lon="14.794025227925975"><ele>512.0</ele><time>2026-04-18T14:01:58Z</time></trkpt><trkpt lat="37.04590977974771" lon="14.793992198195376"><ele>512.0</ele><time>2026-04-18T14:01:59Z</time></trkpt><trkpt lat="37.04597010259483" lon="14.793961048759058"><ele>512.0</ele><time>2026-04-18T14:02:00Z</time></trkpt><trkpt lat="37.04606148367541" lon="14.79389484731038"><ele>512.0</ele><time>2026-04-18T14:02:02Z</time></trkpt><trkpt lat="37.04606270635296" lon="14.793760300996064"><ele>512.0</ele><time>2026-04-18T14:02:04Z</time></trkpt><trkpt lat="37.046019175104654" lon="14.793589885631762"><ele>512.0</ele><time>2026-04-18T14:02:06Z</time></trkpt><trkpt lat="37.04598418936655" lon="14.793473881691853"><ele>512.0</ele><time>2026-04-18T14:02:07Z</time></trkpt><trkpt lat="37.04595110060059" lon="14.793307171644278"><ele>512.0</ele><time>2026-04-18T14:02:08Z</time></trkpt><trkpt lat="37.045935861317375" lon="14.793140146453412"><ele>511.0</ele><time>2026-04-18T14:02:09Z</time></trkpt><trkpt lat="37.04592228197366" lon="14.792979029641042"><ele>510.0</ele><time>2026-04-18T14:02:10Z</time></trkpt><trkpt lat="37.0459105060488" lon="14.79283028921445"><ele>509.0</ele><time>2026-04-18T14:02:11Z</time></trkpt><trkpt lat="37.04590911515322" lon="14.792680081720786"><ele>508.0</ele><time>2026-04-18T14:02:12Z</time></trkpt><trkpt lat="37.0459203251224" lon="14.79252484963034"><ele>507.25</ele><time>2026-04-18T14:02:13Z</time></trkpt><trkpt lat="37.045941083104296" lon="14.792359067235731"><ele>506.5</ele><time>2026-04-18T14:02:14Z</time></trkpt><trkpt lat="37.04595007079064" lon="14.7921820739473"><ele>505.75</ele><time>2026-04-18T14:02:15Z</time></trkpt><trkpt lat="37.045962223867875" lon="14.792028252929514"><ele>505.0</ele><time>2026-04-18T14:02:16Z</time></trkpt><trkpt lat="37.045972647592315" lon="14.791886244537706"><ele>503.8</ele><time>2026-04-18T14:02:17Z</time></trkpt><trkpt lat="37.04596776133365" lon="14.79175013099912"><ele>502.6</ele><time>2026-04-18T14:02:18Z</time></trkpt><trkpt lat="37.04595508814335" lon="14.79162199581601"><ele>501.4</ele><time>2026-04-18T14:02:19Z</time></trkpt><trkpt lat="37.045936345741254" lon="14.791500429815798"><ele>500.2</ele><time>2026-04-18T14:02:20Z</time></trkpt><trkpt lat="37.045902732736664" lon="14.791387964172376"><ele>499.0</ele><time>2026-04-18T14:02:21Z</time></trkpt><trkpt lat="37.04587092392995" lon="14.791286374416424"><ele>499.0</ele><time>2026-04-18T14:02:22Z</time></trkpt><trkpt lat="37.04584565840997" lon="14.791194309580117"><ele>499.0</ele><time>2026-04-18T14:02:23Z</time></trkpt><trkpt lat="37.045794998854014" lon="14.79107316509009"><ele>499.0</ele><time>2026-04-18T14:02:25Z</time></trkpt><trkpt lat="37.045938254965186" lon="14.790968246194357"><ele>499.0</ele><time>2026-04-18T14:02:27Z</time></trkpt><trkpt lat="37.04600834187609" lon="14.790926263441461"><ele>499.0</ele><time>2026-04-18T14:02:28Z</time></trkpt><trkpt lat="37.046079885001255" lon="14.790847609513598"><ele>499.1666666666667</ele><time>2026-04-18T14:02:29Z</time></trkpt><trkpt lat="37.04612872556772" lon="14.790765668832812"><ele>499.33333333333337</ele><time>2026-04-18T14:02:30Z</time></trkpt><trkpt lat="37.046131579588774" lon="14.790657913427477"><ele>499.5</ele><time>2026-04-18T14:02:31Z</time></trkpt><trkpt lat="37.046126868595664" lon="14.790554630638733"><ele>499.66666666666663</ele><time>2026-04-18T14:02:32Z</time></trkpt><trkpt lat="37.046111453925384" lon="14.790446678346918"><ele>499.8333333333333</ele><time>2026-04-18T14:02:33Z</time></trkpt><trkpt lat="37.04609548089991" lon="14.790336358637315"><ele>500.0</ele><time>2026-04-18T14:02:34Z</time></trkpt><trkpt lat="37.046079214204774" lon="14.790224011136816"><ele>502.8</ele><time>2026-04-18T14:02:35Z</time></trkpt><trkpt lat="37.0460425272641" lon="14.790122653402918"><ele>505.6</ele><time>2026-04-18T14:02:36Z</time></trkpt><trkpt lat="37.04603205032721" lon="14.790019423617503"><ele>508.4</ele><time>2026-04-18T14:02:37Z</time></trkpt><trkpt lat="37.046014521787406" lon="14.789920328534691"><ele>511.2</ele><time>2026-04-18T14:02:38Z</time></trkpt><trkpt lat="37.04598147101555" lon="14.789797469928216"><ele>514.0</ele><time>2026-04-18T14:02:39Z</time></trkpt><trkpt lat="37.04594426256102" lon="14.789670781580714"><ele>514.0</ele><time>2026-04-18T14:02:40Z</time></trkpt><trkpt lat="37.04591188612201" lon="14.789534659450748"><ele>514.0</ele><time>2026-04-18T14:02:41Z</time></trkpt><trkpt lat="37.04588372861364" lon="14.789424255589934"><ele>514.0</ele><time>2026-04-18T14:02:42Z</time></trkpt><trkpt lat="37.04585623806356" lon="14.789326152772452"><ele>514.0</ele><time>2026-04-18T14:02:43Z</time></trkpt><trkpt lat="37.04583020074164" lon="14.789229815640565"><ele>514.0</ele><time>2026-04-18T14:02:44Z</time></trkpt><trkpt lat="37.04580284218216" lon="14.789142556604117"><ele>514.0</ele><time>2026-04-18T14:02:45Z</time></trkpt><trkpt lat="37.045775414112384" lon="14.78906107648835"><ele>515.5</ele><time>2026-04-18T14:02:46Z</time></trkpt><trkpt lat="37.04575913869315" lon="14.788970838129844"><ele>517.0</ele><time>2026-04-18T14:02:47Z</time></trkpt><trkpt lat="37.045788325747765" lon="14.78888943514384"><ele>518.5</ele><time>2026-04-18T14:02:48Z</time></trkpt><trkpt lat="37.04579873181684" lon="14.788806049277555"><ele>520.0</ele><time>2026-04-18T14:02:48.999Z</time></trkpt><trkpt lat="37.04577576922206" lon="14.78870081098416"><ele>521.5</ele><time>2026-04-18T14:02:50.999Z</time></trkpt><trkpt lat="37.045683803583536" lon="14.788732705803092"><ele>523.0</ele><time>2026-04-18T14:02:52.999Z</time></trkpt><trkpt lat="37.04563955747295" lon="14.788796413177554"><ele>526.0</ele><time>2026-04-18T14:02:53.999Z</time></trkpt><trkpt lat="37.045606120506235" lon="14.788892049268151"><ele>529.0</ele><time>2026-04-18T14:02:54.999Z</time></trkpt><trkpt lat="37.045574940599984" lon="14.788971152591776"><ele>532.0</ele><time>2026-04-18T14:02:55.999Z</time></trkpt><trkpt lat="37.045488996649176" lon="14.788930966360217"><ele>535.0</ele><time>2026-04-18T14:02:58.999Z</time></trkpt><trkpt lat="37.04550709058531" lon="14.788813294392927"><ele>538.0</ele><time>2026-04-18T14:03:00.999Z</time></trkpt><trkpt lat="37.04558065229956" lon="14.788692029491552"><ele>538.0</ele><time>2026-04-18T14:03:02.999Z</time></trkpt><trkpt lat="37.0456181718248" lon="14.788624906540665"><ele>538.0</ele><time>2026-04-18T14:03:03.999Z</time></trkpt><trkpt lat="37.04567663051979" lon="14.788573499167583"><ele>538.0</ele><time>2026-04-18T14:03:04.999Z</time></trkpt><trkpt lat="37.04570452707595" lon="14.78849340640746"><ele>538.0</ele><time>2026-04-18T14:03:05.999Z</time></trkpt><trkpt lat="37.04569891330636" lon="14.788365993513588"><ele>538.0</ele><time>2026-04-18T14:03:06.999Z</time></trkpt><trkpt lat="37.045659379698925" lon="14.788249289124172"><ele>538.0</ele><time>2026-04-18T14:03:07.999Z</time></trkpt><trkpt lat="37.04562585100425" lon="14.788122549128978"><ele>540.1999999999999</ele><time>2026-04-18T14:03:08.999Z</time></trkpt><trkpt lat="37.04557587932383" lon="14.788001557901763"><ele>542.4</ele><time>2026-04-18T14:03:09.999Z</time></trkpt><trkpt lat="37.04552528958391" lon="14.787867701542087"><ele>544.5999999999999</ele><time>2026-04-18T14:03:10.999Z</time></trkpt><trkpt lat="37.04548059062923" lon="14.787746763313079"><ele>546.8</ele><time>2026-04-18T14:03:11.999Z</time></trkpt><trkpt lat="37.04543120640145" lon="14.787622048027748"><ele>549.0</ele><time>2026-04-18T14:03:12.999Z</time></trkpt><trkpt lat="37.04539867373797" lon="14.787490436582386"><ele>551.0</ele><time>2026-04-18T14:03:13.999Z</time></trkpt><trkpt lat="37.04542036847278" lon="14.787351275986394"><ele>553.0</ele><time>2026-04-18T14:03:14.999Z</time></trkpt><trkpt lat="37.045418922049926" lon="14.78720640201391"><ele>555.0</ele><time>2026-04-18T14:03:15.999Z</time></trkpt><trkpt lat="37.04540412278744" lon="14.787074639771008"><ele>557.0</ele><time>2026-04-18T14:03:16.999Z</time></trkpt><trkpt lat="37.04539730109873" lon="14.786954792835166"><ele>559.0</ele><time>2026-04-18T14:03:17.999Z</time></trkpt><trkpt lat="37.04540812023042" lon="14.786819063146565"><ele>561.8</ele><time>2026-04-18T14:03:18.999Z</time></trkpt><trkpt lat="37.04543431813802" lon="14.786674174997152"><ele>564.5999999999999</ele><time>2026-04-18T14:03:19.999Z</time></trkpt><trkpt lat="37.04547304021509" lon="14.78654641262171"><ele>567.4</ele><time>2026-04-18T14:03:20.999Z</time></trkpt><trkpt lat="37.045535937488516" lon="14.7864516673395"><ele>570.1999999999999</ele><time>2026-04-18T14:03:21.999Z</time></trkpt><trkpt lat="37.04560609357099" lon="14.786335585631624"><ele>573.0</ele><time>2026-04-18T14:03:22.999Z</time></trkpt><trkpt lat="37.04564937108976" lon="14.786225808330862"><ele>573.0</ele><time>2026-04-18T14:03:23.999Z</time></trkpt><trkpt lat="37.04567305698726" lon="14.786128551890467"><ele>573.0</ele><time>2026-04-18T14:03:24.999Z</time></trkpt><trkpt lat="37.045671087023216" lon="14.786033394299334"><ele>573.0</ele><time>2026-04-18T14:03:25.999Z</time></trkpt><trkpt lat="37.0456706338027" lon="14.785872967033692"><ele>573.0</ele><time>2026-04-18T14:03:27.999Z</time></trkpt><trkpt lat="37.04567661970898" lon="14.785770295240544"><ele>573.0</ele><time>2026-04-18T14:03:28.999Z</time></trkpt><trkpt lat="37.04570153322939" lon="14.78565987161188"><ele>575.6</ele><time>2026-04-18T14:03:29.999Z</time></trkpt><trkpt lat="37.04569907929777" lon="14.785537269186431"><ele>578.1999999999999</ele><time>2026-04-18T14:03:30.999Z</time></trkpt><trkpt lat="37.04571610432299" lon="14.78542152576485"><ele>580.8</ele><time>2026-04-18T14:03:31.999Z</time></trkpt><trkpt lat="37.04573100640538" lon="14.785311641237463"><ele>583.4</ele><time>2026-04-18T14:03:32.999Z</time></trkpt><trkpt lat="37.0457562285124" lon="14.785180779867156"><ele>586.0</ele><time>2026-04-18T14:03:33.999Z</time></trkpt><trkpt lat="37.045771431646465" lon="14.78505345046228"><ele>585.4</ele><time>2026-04-18T14:03:34.999Z</time></trkpt><trkpt lat="37.04578323453833" lon="14.784917438353478"><ele>584.8</ele><time>2026-04-18T14:03:35.999Z</time></trkpt><trkpt lat="37.04578402262597" lon="14.784787261599973"><ele>584.1999999999999</ele><time>2026-04-18T14:03:36.999Z</time></trkpt><trkpt lat="37.04577951918068" lon="14.784666389755715"><ele>583.6</ele><time>2026-04-18T14:03:37.999Z</time></trkpt><trkpt lat="37.04580819257369" lon="14.784568604813325"><ele>583.0</ele><time>2026-04-18T14:03:38.999Z</time></trkpt><trkpt lat="37.0458675335711" lon="14.784493718199498"><ele>583.0</ele><time>2026-04-18T14:03:39.999Z</time></trkpt><trkpt lat="37.04589893065595" lon="14.784391179965374"><ele>583.0</ele><time>2026-04-18T14:03:40.999Z</time></trkpt><trkpt lat="37.04592839141502" lon="14.784277666422843"><ele>583.0</ele><time>2026-04-18T14:03:41.999Z</time></trkpt><trkpt lat="37.04594507026389" lon="14.784158066222536"><ele>583.0</ele><time>2026-04-18T14:03:42.999Z</time></trkpt><trkpt lat="37.045917767824406" lon="14.784046946208118"><ele>583.0</ele><time>2026-04-18T14:03:43.999Z</time></trkpt><trkpt lat="37.04590309001596" lon="14.783943449788413"><ele>584.3333333333334</ele><time>2026-04-18T14:03:44.999Z</time></trkpt><trkpt lat="37.045873231681796" lon="14.78383312421448"><ele>585.6666666666667</ele><time>2026-04-18T14:03:45.999Z</time></trkpt><trkpt lat="37.04588200394639" lon="14.783742374137832"><ele>587.0</ele><time>2026-04-18T14:03:46.999Z</time></trkpt><trkpt lat="37.045886623298564" lon="14.783650026962823"><ele>588.3333333333334</ele><time>2026-04-18T14:03:47.999Z</time></trkpt><trkpt lat="37.04592444199124" lon="14.783579072486447"><ele>589.6666666666666</ele><time>2026-04-18T14:03:48.999Z</time></trkpt><trkpt lat="37.04597319332139" lon="14.783509740552029"><ele>591.0</ele><time>2026-04-18T14:03:49.999Z</time></trkpt><trkpt lat="37.04602567950351" lon="14.78341239203709"><ele>593.0</ele><time>2026-04-18T14:03:50.999Z</time></trkpt><trkpt lat="37.04607666583014" lon="14.783299664274532"><ele>595.0</ele><time>2026-04-18T14:03:51.999Z</time></trkpt><trkpt lat="37.04614218375167" lon="14.78319748237767"><ele>597.0</ele><time>2026-04-18T14:03:52.999Z</time></trkpt><trkpt lat="37.04620058111936" lon="14.78307835919946"><ele>599.0</ele><time>2026-04-18T14:03:53.999Z</time></trkpt><trkpt lat="37.04625411772017" lon="14.782964549416965"><ele>601.0</ele><time>2026-04-18T14:03:54.999Z</time></trkpt><trkpt lat="37.04628926183172" lon="14.782851276182907"><ele>601.0</ele><time>2026-04-18T14:03:55.999Z</time></trkpt><trkpt lat="37.04632616316958" lon="14.782771487116195"><ele>601.0</ele><time>2026-04-18T14:03:56.998Z</time></trkpt><trkpt lat="37.04634640402278" lon="14.782669665656623"><ele>601.0</ele><time>2026-04-18T14:03:57.998Z</time></trkpt><trkpt lat="37.04635765039139" lon="14.78256296082943"><ele>601.0</ele><time>2026-04-18T14:03:58.998Z</time></trkpt><trkpt lat="37.046363287285196" lon="14.78245922512443"><ele>601.0</ele><time>2026-04-18T14:03:59.998Z</time></trkpt><trkpt lat="37.04637092770971" lon="14.78236373208044"><ele>601.0</ele><time>2026-04-18T14:04:00.998Z</time></trkpt><trkpt lat="37.04639804082776" lon="14.78226554608336"><ele>602.7142857142857</ele><time>2026-04-18T14:04:01.998Z</time></trkpt><trkpt lat="37.046413058452465" lon="14.782181303246121"><ele>604.4285714285714</ele><time>2026-04-18T14:04:03Z</time></trkpt><trkpt lat="37.04643319744566" lon="14.782105387768006"><ele>606.1428571428571</ele><time>2026-04-18T14:04:04Z</time></trkpt><trkpt lat="37.04646351998344" lon="14.78202863090239"><ele>607.8571428571429</ele><time>2026-04-18T14:04:05Z</time></trkpt><trkpt lat="37.04650586001796" lon="14.781968439878018"><ele>609.5714285714286</ele><time>2026-04-18T14:04:06Z</time></trkpt><trkpt lat="37.04655605755345" lon="14.781900785132478"><ele>611.2857142857143</ele><time>2026-04-18T14:04:07Z</time></trkpt><trkpt lat="37.04661274408976" lon="14.781840778888625"><ele>613.0</ele><time>2026-04-18T14:04:08Z</time></trkpt><trkpt lat="37.04667398579557" lon="14.781784087851486"><ele>613.0</ele><time>2026-04-18T14:04:09Z</time></trkpt><trkpt lat="37.046734881515334" lon="14.78172738254329"><ele>613.0</ele><time>2026-04-18T14:04:10Z</time></trkpt><trkpt lat="37.04680000251596" lon="14.781666963582719"><ele>613.0</ele><time>2026-04-18T14:04:11Z</time></trkpt><trkpt lat="37.04686541511996" lon="14.78160650160659"><ele>613.0</ele><time>2026-04-18T14:04:12Z</time></trkpt><trkpt lat="37.046933411896035" lon="14.781543650919062"><ele>613.0</ele><time>2026-04-18T14:04:13Z</time></trkpt><trkpt lat="37.046995738374534" lon="14.781468693244802"><ele>613.0</ele><time>2026-04-18T14:04:14Z</time></trkpt><trkpt lat="37.04707013769542" lon="14.781410032454964"><ele>613.0</ele><time>2026-04-18T14:04:15Z</time></trkpt><trkpt lat="37.04714410468944" lon="14.781342308678628"><ele>613.0</ele><time>2026-04-18T14:04:16Z</time></trkpt><trkpt lat="37.04720740567697" lon="14.781274755180064"><ele>613.0</ele><time>2026-04-18T14:04:17Z</time></trkpt><trkpt lat="37.047286594873185" lon="14.781204225636019"><ele>613.0</ele><time>2026-04-18T14:04:18Z</time></trkpt><trkpt lat="37.047374302141314" lon="14.78111773719004"><ele>613.0</ele><time>2026-04-18T14:04:19Z</time></trkpt><trkpt lat="37.04747901682393" lon="14.781048136190202"><ele>615.8</ele><time>2026-04-18T14:04:20Z</time></trkpt><trkpt lat="37.04756605991823" lon="14.780974824872622"><ele>618.5999999999999</ele><time>2026-04-18T14:04:21Z</time></trkpt><trkpt lat="37.04765156951999" lon="14.780902805049674"><ele>621.4000000000001</ele><time>2026-04-18T14:04:22Z</time></trkpt><trkpt lat="37.04772439272755" lon="14.780821133019147"><ele>624.2</ele><time>2026-04-18T14:04:23Z</time></trkpt><trkpt lat="37.04781882343993" lon="14.780752429914052"><ele>627.0</ele><time>2026-04-18T14:04:24Z</time></trkpt><trkpt lat="37.047918222507775" lon="14.780659272517434"><ele>627.0</ele><time>2026-04-18T14:04:25Z</time></trkpt><trkpt lat="37.04802249746611" lon="14.780550278278803"><ele>627.0</ele><time>2026-04-18T14:04:26Z</time></trkpt><trkpt lat="37.04811068425632" lon="14.780435031378646"><ele>627.0</ele><time>2026-04-18T14:04:27Z</time></trkpt><trkpt lat="37.04816847216319" lon="14.780306422118466"><ele>627.0</ele><time>2026-04-18T14:04:28Z</time></trkpt><trkpt lat="37.04822007643936" lon="14.780185059220113"><ele>629.4</ele><time>2026-04-18T14:04:29Z</time></trkpt><trkpt lat="37.048259268121136" lon="14.780060078295936"><ele>631.8000000000001</ele><time>2026-04-18T14:04:30Z</time></trkpt><trkpt lat="37.04829633965384" lon="14.779935754948228"><ele>634.2</ele><time>2026-04-18T14:04:31Z</time></trkpt><trkpt lat="37.048321011679064" lon="14.779829952942926"><ele>636.6</ele><time>2026-04-18T14:04:32Z</time></trkpt><trkpt lat="37.04837178244546" lon="14.779752486940298"><ele>639.0</ele><time>2026-04-18T14:04:33Z</time></trkpt><trkpt lat="37.04841737333706" lon="14.779673866947736"><ele>639.6</ele><time>2026-04-18T14:04:34Z</time></trkpt><trkpt lat="37.04848054741496" lon="14.779600308529949"><ele>640.2</ele><time>2026-04-18T14:04:35Z</time></trkpt><trkpt lat="37.04856003089515" lon="14.779523935085193"><ele>640.8000000000001</ele><time>2026-04-18T14:04:36Z</time></trkpt><trkpt lat="37.0486478899364" lon="14.779443125341036"><ele>641.4</ele><time>2026-04-18T14:04:37Z</time></trkpt><trkpt lat="37.04875027479954" lon="14.779354401605032"><ele>642.0</ele><time>2026-04-18T14:04:38Z</time></trkpt><trkpt lat="37.04884824325483" lon="14.779272373234495"><ele>642.6</ele><time>2026-04-18T14:04:39Z</time></trkpt><trkpt lat="37.048932893074834" lon="14.779180810628104"><ele>643.2</ele><time>2026-04-18T14:04:40Z</time></trkpt><trkpt lat="37.04902073354775" lon="14.779124308981975"><ele>643.8</ele><time>2026-04-18T14:04:41Z</time></trkpt><trkpt lat="37.04910584884619" lon="14.7790676100281"><ele>644.4</ele><time>2026-04-18T14:04:42Z</time></trkpt><trkpt lat="37.049182936113695" lon="14.778999498375535"><ele>645.0</ele><time>2026-04-18T14:04:43Z</time></trkpt><trkpt lat="37.0492581437847" lon="14.77892200766804"><ele>645.0</ele><time>2026-04-18T14:04:44Z</time></trkpt><trkpt lat="37.04934294102781" lon="14.778857614049436"><ele>645.0</ele><time>2026-04-18T14:04:45Z</time></trkpt><trkpt lat="37.049413418697654" lon="14.778786017121051"><ele>645.0</ele><time>2026-04-18T14:04:46Z</time></trkpt><trkpt lat="37.04947617052493" lon="14.778707399671422"><ele>645.0</ele><time>2026-04-18T14:04:47Z</time></trkpt><trkpt lat="37.04952597748465" lon="14.778633605112569"><ele>645.0</ele><time>2026-04-18T14:04:48Z</time></trkpt><trkpt lat="37.049567428650306" lon="14.77855161172483"><ele>645.0</ele><time>2026-04-18T14:04:49Z</time></trkpt><trkpt lat="37.04959891657527" lon="14.778448871202508"><ele>647.0</ele><time>2026-04-18T14:04:50Z</time></trkpt><trkpt lat="37.04962265632855" lon="14.778331201659439"><ele>649.0</ele><time>2026-04-18T14:04:51Z</time></trkpt><trkpt lat="37.04964223267978" lon="14.778212233663686"><ele>651.0</ele><time>2026-04-18T14:04:52Z</time></trkpt><trkpt lat="37.049659741616935" lon="14.778088466010914"><ele>653.0</ele><time>2026-04-18T14:04:52.999Z</time></trkpt><trkpt lat="37.04967226492517" lon="14.777960944104876"><ele>655.0</ele><time>2026-04-18T14:04:53.999Z</time></trkpt><trkpt lat="37.04968377935831" lon="14.777838945221651"><ele>655.0</ele><time>2026-04-18T14:04:54.999Z</time></trkpt><trkpt lat="37.049693487921694" lon="14.777719984311592"><ele>655.0</ele><time>2026-04-18T14:04:55.999Z</time></trkpt><trkpt lat="37.0497026987761" lon="14.777611833838964"><ele>655.0</ele><time>2026-04-18T14:04:56.999Z</time></trkpt><trkpt lat="37.0497156303712" lon="14.777501637926907"><ele>655.0</ele><time>2026-04-18T14:04:57.999Z</time></trkpt><trkpt lat="37.04974089995163" lon="14.77739956293982"><ele>655.0</ele><time>2026-04-18T14:04:58.999Z</time></trkpt><trkpt lat="37.04977636126777" lon="14.777293843955626"><ele>655.0</ele><time>2026-04-18T14:04:59.999Z</time></trkpt><trkpt lat="37.04980740849545" lon="14.777183722593623"><ele>655.2</ele><time>2026-04-18T14:05:00.999Z</time></trkpt><trkpt lat="37.04983404876295" lon="14.777075169925071"><ele>655.4</ele><time>2026-04-18T14:05:01.999Z</time></trkpt><trkpt lat="37.049860362259615" lon="14.776950217100335"><ele>655.5999999999999</ele><time>2026-04-18T14:05:02.999Z</time></trkpt><trkpt lat="37.04987848071144" lon="14.776792302633854"><ele>655.8</ele><time>2026-04-18T14:05:03.999Z</time></trkpt><trkpt lat="37.0498863310896" lon="14.776633699995203"><ele>656.0</ele><time>2026-04-18T14:05:04.999Z</time></trkpt><trkpt lat="37.04989573211617" lon="14.776489465698782"><ele>656.4</ele><time>2026-04-18T14:05:05.999Z</time></trkpt><trkpt lat="37.04991393350663" lon="14.776350742501235"><ele>656.8</ele><time>2026-04-18T14:05:06.999Z</time></trkpt><trkpt lat="37.04994622516289" lon="14.776232037244851"><ele>657.1999999999999</ele><time>2026-04-18T14:05:07.999Z</time></trkpt><trkpt lat="37.050006459937926" lon="14.776124373156573"><ele>657.5999999999999</ele><time>2026-04-18T14:05:08.999Z</time></trkpt><trkpt lat="37.05005835115205" lon="14.776035485336381"><ele>658.0</ele><time>2026-04-18T14:05:09.999Z</time></trkpt><trkpt lat="37.05011420587639" lon="14.7759433689118"><ele>655.8333333333334</ele><time>2026-04-18T14:05:10.999Z</time></trkpt><trkpt lat="37.05016225976125" lon="14.77586273854884"><ele>653.6666666666667</ele><time>2026-04-18T14:05:11.999Z</time></trkpt><trkpt lat="37.05021330087055" lon="14.77577760306593"><ele>651.5</ele><time>2026-04-18T14:05:12.999Z</time></trkpt><trkpt lat="37.05026428955092" lon="14.775692554917468"><ele>649.3333333333334</ele><time>2026-04-18T14:05:13.999Z</time></trkpt><trkpt lat="37.05030908738568" lon="14.7755950905677"><ele>647.1666666666666</ele><time>2026-04-18T14:05:14.999Z</time></trkpt><trkpt lat="37.05038484898175" lon="14.775526355902908"><ele>645.0</ele><time>2026-04-18T14:05:15.999Z</time></trkpt><trkpt lat="37.05046358150521" lon="14.77544554536047"><ele>645.0</ele><time>2026-04-18T14:05:16.999Z</time></trkpt><trkpt lat="37.050559242063585" lon="14.775346203936303"><ele>645.0</ele><time>2026-04-18T14:05:17.999Z</time></trkpt><trkpt lat="37.050648356951264" lon="14.775247279797973"><ele>645.0</ele><time>2026-04-18T14:05:18.999Z</time></trkpt><trkpt lat="37.05073740083927" lon="14.775143823807165"><ele>645.0</ele><time>2026-04-18T14:05:19.999Z</time></trkpt><trkpt lat="37.05082008137172" lon="14.775044890445846"><ele>646.2</ele><time>2026-04-18T14:05:20.999Z</time></trkpt><trkpt lat="37.05090816196402" lon="14.774966030981513"><ele>647.4</ele><time>2026-04-18T14:05:21.999Z</time></trkpt><trkpt lat="37.051004411832345" lon="14.774913702050531"><ele>648.5999999999999</ele><time>2026-04-18T14:05:22.999Z</time></trkpt><trkpt lat="37.05109883064286" lon="14.774837920457937"><ele>649.8</ele><time>2026-04-18T14:05:23.999Z</time></trkpt><trkpt lat="37.051184136446686" lon="14.7747776824613"><ele>651.0</ele><time>2026-04-18T14:05:24.999Z</time></trkpt><trkpt lat="37.05127171978227" lon="14.774720197418796"><ele>651.0</ele><time>2026-04-18T14:05:25.999Z</time></trkpt><trkpt lat="37.05135563186419" lon="14.774664718810435"><ele>651.0</ele><time>2026-04-18T14:05:26.999Z</time></trkpt><trkpt lat="37.051446820094185" lon="14.774604429618028"><ele>651.0</ele><time>2026-04-18T14:05:27.999Z</time></trkpt><trkpt lat="37.05154390922586" lon="14.77453490978729"><ele>651.0</ele><time>2026-04-18T14:05:28.999Z</time></trkpt><trkpt lat="37.051642202851546" lon="14.7744625698447"><ele>651.0</ele><time>2026-04-18T14:05:29.999Z</time></trkpt><trkpt lat="37.05174132229466" lon="14.77439522542345"><ele>654.5999999999999</ele><time>2026-04-18T14:05:30.999Z</time></trkpt><trkpt lat="37.051846114317655" lon="14.77433012760335"><ele>658.2</ele><time>2026-04-18T14:05:31.999Z</time></trkpt><trkpt lat="37.05192329427598" lon="14.77425067358413"><ele>661.8</ele><time>2026-04-18T14:05:32.999Z</time></trkpt><trkpt lat="37.05195097109843" lon="14.774162465786976"><ele>665.4000000000001</ele><time>2026-04-18T14:05:33.999Z</time></trkpt><trkpt lat="37.051984598541104" lon="14.774071204494044"><ele>669.0</ele><time>2026-04-18T14:05:34.999Z</time></trkpt><trkpt lat="37.05204526396128" lon="14.773991166840036"><ele>669.0</ele><time>2026-04-18T14:05:35.999Z</time></trkpt><trkpt lat="37.052108576490774" lon="14.773926679175592"><ele>669.0</ele><time>2026-04-18T14:05:36.999Z</time></trkpt><trkpt lat="37.05217509022304" lon="14.773866485193505"><ele>669.0</ele><time>2026-04-18T14:05:37.999Z</time></trkpt><trkpt lat="37.05224809101573" lon="14.77387466881655"><ele>669.0</ele><time>2026-04-18T14:05:38.999Z</time></trkpt><trkpt lat="37.05232051963073" lon="14.773881886578206"><ele>669.0</ele><time>2026-04-18T14:05:39.999Z</time></trkpt><trkpt lat="37.05241245257035" lon="14.773892581697718"><ele>669.0</ele><time>2026-04-18T14:05:40.999Z</time></trkpt><trkpt lat="37.0525285197152" lon="14.773913464487366"><ele>670.25</ele><time>2026-04-18T14:05:41.999Z</time></trkpt><trkpt lat="37.052637841806124" lon="14.773931592217018"><ele>671.5</ele><time>2026-04-18T14:05:42.999Z</time></trkpt><trkpt lat="37.05275135844516" lon="14.773950702331371"><ele>672.75</ele><time>2026-04-18T14:05:43.999Z</time></trkpt><trkpt lat="37.05286880633606" lon="14.77397462081269"><ele>674.0</ele><time>2026-04-18T14:05:44.999Z</time></trkpt><trkpt lat="37.0529912436788" lon="14.773987240792673"><ele>674.0</ele><time>2026-04-18T14:05:45.999Z</time></trkpt><trkpt lat="37.053104940294546" lon="14.774010949819509"><ele>674.0</ele><time>2026-04-18T14:05:46.999Z</time></trkpt><trkpt lat="37.05320981268153" lon="14.774045924430212"><ele>674.0</ele><time>2026-04-18T14:05:47.999Z</time></trkpt><trkpt lat="37.05329578281131" lon="14.774085080420054"><ele>674.0</ele><time>2026-04-18T14:05:48.999Z</time></trkpt><trkpt lat="37.05337984193761" lon="14.774129186009311"><ele>674.0</ele><time>2026-04-18T14:05:49.999Z</time></trkpt><trkpt lat="37.05346949308064" lon="14.774176479299763"><ele>674.8333333333333</ele><time>2026-04-18T14:05:50.999Z</time></trkpt><trkpt lat="37.05355736055725" lon="14.774213891954508"><ele>675.6666666666666</ele><time>2026-04-18T14:05:51.999Z</time></trkpt><trkpt lat="37.05365205080502" lon="14.774236007537848"><ele>676.5</ele><time>2026-04-18T14:05:52.999Z</time></trkpt><trkpt lat="37.053734236343516" lon="14.774241599376886"><ele>677.3333333333334</ele><time>2026-04-18T14:05:53.999Z</time></trkpt><trkpt lat="37.05379982562113" lon="14.77418666593246"><ele>678.1666666666667</ele><time>2026-04-18T14:05:54.999Z</time></trkpt><trkpt lat="37.053864617749774" lon="14.774144718930684"><ele>679.0</ele><time>2026-04-18T14:05:55.999Z</time></trkpt><trkpt lat="37.05393319878187" lon="14.774083868151243"><ele>679.0</ele><time>2026-04-18T14:05:56.999Z</time></trkpt><trkpt lat="37.054024074728034" lon="14.774054646283265"><ele>679.0</ele><time>2026-04-18T14:05:57.999Z</time></trkpt><trkpt lat="37.05411478631569" lon="14.773995683203745"><ele>679.0</ele><time>2026-04-18T14:05:58.999Z</time></trkpt><trkpt lat="37.05420535414533" lon="14.773936814107541"><ele>679.0</ele><time>2026-04-18T14:05:59.998Z</time></trkpt><trkpt lat="37.05427874360491" lon="14.773895895407959"><ele>679.0</ele><time>2026-04-18T14:06:00.998Z</time></trkpt><trkpt lat="37.05435087998071" lon="14.773863105015606"><ele>678.6666666666667</ele><time>2026-04-18T14:06:01.998Z</time></trkpt><trkpt lat="37.05442271464693" lon="14.773881709058148"><ele>678.3333333333334</ele><time>2026-04-18T14:06:02.998Z</time></trkpt><trkpt lat="37.054489066808365" lon="14.77390404324602"><ele>678.0</ele><time>2026-04-18T14:06:03.998Z</time></trkpt><trkpt lat="37.05456258943438" lon="14.773935236735182"><ele>677.6666666666666</ele><time>2026-04-18T14:06:04.998Z</time></trkpt><trkpt lat="37.054603005140244" lon="14.773995742496972"><ele>677.3333333333333</ele><time>2026-04-18T14:06:05.998Z</time></trkpt><trkpt lat="37.05471332972781" lon="14.7740749486456"><ele>677.0</ele><time>2026-04-18T14:06:07.998Z</time></trkpt><trkpt lat="37.05483798243573" lon="14.774090678682084"><ele>677.0</ele><time>2026-04-18T14:06:10Z</time></trkpt><trkpt lat="37.05489910744569" lon="14.774049884328335"><ele>677.0</ele><time>2026-04-18T14:06:11Z</time></trkpt><trkpt lat="37.05496449135512" lon="14.774028337468263"><ele>677.0</ele><time>2026-04-18T14:06:12Z</time></trkpt><trkpt lat="37.05507862575681" lon="14.774009744103063"><ele>677.0</ele><time>2026-04-18T14:06:14Z</time></trkpt><trkpt lat="37.05514472678506" lon="14.773980324419734"><ele>677.0</ele><time>2026-04-18T14:06:16Z</time></trkpt><trkpt lat="37.05516780796293" lon="14.77390636117393"><ele>677.0</ele><time>2026-04-18T14:06:18Z</time></trkpt><trkpt lat="37.0551737926575" lon="14.773763330549773"><ele>678.0</ele><time>2026-04-18T14:06:45Z</time></trkpt><trkpt lat="37.055138440407504" lon="14.773675355705729"><ele>679.0</ele><time>2026-04-18T14:06:46Z</time></trkpt><trkpt lat="37.05508036097742" lon="14.773619936694448"><ele>680.0</ele><time>2026-04-18T14:06:47Z</time></trkpt><trkpt lat="37.055026342365665" lon="14.77352903218142"><ele>681.0</ele><time>2026-04-18T14:06:48Z</time></trkpt><trkpt lat="37.05500224478482" lon="14.773424278421402"><ele>682.0</ele><time>2026-04-18T14:06:49Z</time></trkpt><trkpt lat="37.05502036807159" lon="14.773320455251094"><ele>683.0</ele><time>2026-04-18T14:06:50Z</time></trkpt><trkpt lat="37.05503368598408" lon="14.773213325796327"><ele>684.6666666666666</ele><time>2026-04-18T14:06:51Z</time></trkpt><trkpt lat="37.05503990117882" lon="14.773089469728307"><ele>686.3333333333333</ele><time>2026-04-18T14:06:52Z</time></trkpt><trkpt lat="37.05504741604953" lon="14.772975024968071"><ele>688.0</ele><time>2026-04-18T14:06:53Z</time></trkpt><trkpt lat="37.05507157154855" lon="14.77286942851965"><ele>689.6666666666666</ele><time>2026-04-18T14:06:54Z</time></trkpt><trkpt lat="37.055097049949474" lon="14.77277555394222"><ele>691.3333333333334</ele><time>2026-04-18T14:06:55Z</time></trkpt><trkpt lat="37.055104604298606" lon="14.772671776829489"><ele>693.0</ele><time>2026-04-18T14:06:56Z</time></trkpt><trkpt lat="37.055118460631796" lon="14.772574208051802"><ele>694.1666666666666</ele><time>2026-04-18T14:06:57Z</time></trkpt><trkpt lat="37.055107972871035" lon="14.77246760720566"><ele>695.3333333333334</ele><time>2026-04-18T14:06:57.999Z</time></trkpt><trkpt lat="37.05508658650415" lon="14.772359287753115"><ele>696.5</ele><time>2026-04-18T14:06:58.999Z</time></trkpt><trkpt lat="37.05507055329382" lon="14.77224252930391"><ele>697.6666666666667</ele><time>2026-04-18T14:06:59.999Z</time></trkpt><trkpt lat="37.05510157645457" lon="14.772134613943088"><ele>698.8333333333334</ele><time>2026-04-18T14:07:00.999Z</time></trkpt><trkpt lat="37.05514169206648" lon="14.772058051540848"><ele>700.0</ele><time>2026-04-18T14:07:01.999Z</time></trkpt><trkpt lat="37.05518329638555" lon="14.771969817106445"><ele>700.0</ele><time>2026-04-18T14:07:02.999Z</time></trkpt><trkpt lat="37.05523529895503" lon="14.771887227984752"><ele>700.0</ele><time>2026-04-18T14:07:03.999Z</time></trkpt><trkpt lat="37.05528013038033" lon="14.771816078081352"><ele>700.0</ele><time>2026-04-18T14:07:04.999Z</time></trkpt><trkpt lat="37.05532364480999" lon="14.771747617196295"><ele>700.0</ele><time>2026-04-18T14:07:05.999Z</time></trkpt><trkpt lat="37.055361494497966" lon="14.771682599971976"><ele>700.0</ele><time>2026-04-18T14:07:06.999Z</time></trkpt><trkpt lat="37.055374055679984" lon="14.771571843490698"><ele>700.0</ele><time>2026-04-18T14:07:08.999Z</time></trkpt><trkpt lat="37.05528240793378" lon="14.771526169606018"><ele>700.6</ele><time>2026-04-18T14:07:25.999Z</time></trkpt><trkpt lat="37.055197944968505" lon="14.77159520054457"><ele>701.2</ele><time>2026-04-18T14:07:27.999Z</time></trkpt><trkpt lat="37.055112518056475" lon="14.77164708031318"><ele>701.8</ele><time>2026-04-18T14:07:29.999Z</time></trkpt><trkpt lat="37.055002613971645" lon="14.771679858482612"><ele>702.4</ele><time>2026-04-18T14:07:31.999Z</time></trkpt><trkpt lat="37.054934779152006" lon="14.77168589816345"><ele>703.0</ele><time>2026-04-18T14:07:32.999Z</time></trkpt><trkpt lat="37.054799667189435" lon="14.771662878051078"><ele>703.0</ele><time>2026-04-18T14:07:34.999Z</time></trkpt><trkpt lat="37.054717305647095" lon="14.771612382244472"><ele>703.0</ele><time>2026-04-18T14:07:35.999Z</time></trkpt><trkpt lat="37.054657439051724" lon="14.771525294924446"><ele>703.0</ele><time>2026-04-18T14:07:36.999Z</time></trkpt><trkpt lat="37.054599109240705" lon="14.771424254779545"><ele>703.0</ele><time>2026-04-18T14:07:37.999Z</time></trkpt><trkpt lat="37.05454445711576" lon="14.77130473627451"><ele>703.0</ele><time>2026-04-18T14:07:38.999Z</time></trkpt><trkpt lat="37.05452069454969" lon="14.77112581269344"><ele>704.25</ele><time>2026-04-18T14:07:39.999Z</time></trkpt><trkpt lat="37.05449933818853" lon="14.770942162035935"><ele>705.5</ele><time>2026-04-18T14:07:40.999Z</time></trkpt><trkpt lat="37.05446410636903" lon="14.770767143107225"><ele>706.75</ele><time>2026-04-18T14:07:41.999Z</time></trkpt><trkpt lat="37.05442306728443" lon="14.770583003397599"><ele>708.0</ele><time>2026-04-18T14:07:42.999Z</time></trkpt><trkpt lat="37.05437450213781" lon="14.77040180717393"><ele>708.0</ele><time>2026-04-18T14:07:43.999Z</time></trkpt><trkpt lat="37.05432514906961" lon="14.7702223716872"><ele>708.0</ele><time>2026-04-18T14:07:44.999Z</time></trkpt><trkpt lat="37.05427751730795" lon="14.770069296626255"><ele>708.0</ele><time>2026-04-18T14:07:45.999Z</time></trkpt><trkpt lat="37.05423340562697" lon="14.769933335730546"><ele>708.0</ele><time>2026-04-18T14:07:46.999Z</time></trkpt><trkpt lat="37.05418021236766" lon="14.769819557987311"><ele>708.5999999999999</ele><time>2026-04-18T14:07:47.999Z</time></trkpt><trkpt lat="37.054134522921004" lon="14.769720814923142"><ele>709.1999999999999</ele><time>2026-04-18T14:07:48.999Z</time></trkpt><trkpt lat="37.054088617759206" lon="14.769630574537349"><ele>709.8</ele><time>2026-04-18T14:07:49.999Z</time></trkpt><trkpt lat="37.054045602640095" lon="14.769550861588252"><ele>710.4</ele><time>2026-04-18T14:07:50.999Z</time></trkpt><trkpt lat="37.054005513228866" lon="14.769480185734908"><ele>711.0</ele><time>2026-04-18T14:07:51.999Z</time></trkpt><trkpt lat="37.05392842487376" lon="14.769340194957294"><ele>713.1999999999999</ele><time>2026-04-18T14:07:53.999Z</time></trkpt><trkpt lat="37.053881965321295" lon="14.769252227427948"><ele>715.4</ele><time>2026-04-18T14:07:54.999Z</time></trkpt><trkpt lat="37.05382591028816" lon="14.769161713711286"><ele>717.6</ele><time>2026-04-18T14:07:55.999Z</time></trkpt><trkpt lat="37.05377006037858" lon="14.769065162003038"><ele>719.8</ele><time>2026-04-18T14:07:56.999Z</time></trkpt><trkpt lat="37.0537160521543" lon="14.768972369261745"><ele>722.0</ele><time>2026-04-18T14:07:57.999Z</time></trkpt><trkpt lat="37.0536622750486" lon="14.768877572057606"><ele>722.0</ele><time>2026-04-18T14:07:58.999Z</time></trkpt><trkpt lat="37.053611566366335" lon="14.768783510469463"><ele>722.0</ele><time>2026-04-18T14:07:59.999Z</time></trkpt><trkpt lat="37.05355689048137" lon="14.76867866718559"><ele>722.0</ele><time>2026-04-18T14:08:00.999Z</time></trkpt><trkpt lat="37.0534993404967" lon="14.768575681820328"><ele>722.0</ele><time>2026-04-18T14:08:01.999Z</time></trkpt><trkpt lat="37.05344315565774" lon="14.768471903566255"><ele>722.0</ele><time>2026-04-18T14:08:02.999Z</time></trkpt><trkpt lat="37.053382130120795" lon="14.768370542633035"><ele>721.75</ele><time>2026-04-18T14:08:03.999Z</time></trkpt><trkpt lat="37.05332173353839" lon="14.768258412944606"><ele>721.5</ele><time>2026-04-18T14:08:04.998Z</time></trkpt><trkpt lat="37.05325244241909" lon="14.768126802403529"><ele>721.25</ele><time>2026-04-18T14:08:05.998Z</time></trkpt><trkpt lat="37.05315844476351" lon="14.767973110611003"><ele>721.0</ele><time>2026-04-18T14:08:06.998Z</time></trkpt><trkpt lat="37.05306752181035" lon="14.767815794927287"><ele>719.3333333333334</ele><time>2026-04-18T14:08:07.998Z</time></trkpt><trkpt lat="37.052991241358086" lon="14.76764590380335"><ele>717.6666666666666</ele><time>2026-04-18T14:08:08.998Z</time></trkpt><trkpt lat="37.05289678750705" lon="14.76747639576789"><ele>716.0</ele><time>2026-04-18T14:08:09.998Z</time></trkpt><trkpt lat="37.05279676195433" lon="14.767319726101414"><ele>716.0</ele><time>2026-04-18T14:08:10.998Z</time></trkpt><trkpt lat="37.0526988264605" lon="14.767146260714183"><ele>716.0</ele><time>2026-04-18T14:08:11.998Z</time></trkpt><trkpt lat="37.05261117870745" lon="14.766969999358347"><ele>716.0</ele><time>2026-04-18T14:08:12.998Z</time></trkpt><trkpt lat="37.05253417483962" lon="14.766792086416839"><ele>720.3333333333333</ele><time>2026-04-18T14:08:13.998Z</time></trkpt><trkpt lat="37.05245201238286" lon="14.766616392831741"><ele>724.6666666666666</ele><time>2026-04-18T14:08:15Z</time></trkpt><trkpt lat="37.052367017065144" lon="14.766425733038455"><ele>729.0</ele><time>2026-04-18T14:08:16Z</time></trkpt><trkpt lat="37.05228353633043" lon="14.766230507400763"><ele>729.0</ele><time>2026-04-18T14:08:17Z</time></trkpt><trkpt lat="37.052200473819966" lon="14.766031905331472"><ele>729.0</ele><time>2026-04-18T14:08:18Z</time></trkpt><trkpt lat="37.05212300368438" lon="14.76582621090932"><ele>729.0</ele><time>2026-04-18T14:08:19Z</time></trkpt><trkpt lat="37.05204262413489" lon="14.765628850682052"><ele>730.0</ele><time>2026-04-18T14:08:20Z</time></trkpt><trkpt lat="37.05195748147774" lon="14.765442371688945"><ele>731.0</ele><time>2026-04-18T14:08:21Z</time></trkpt><trkpt lat="37.05186230566888" lon="14.765269404741943"><ele>732.0</ele><time>2026-04-18T14:08:22Z</time></trkpt><trkpt lat="37.051750494231605" lon="14.765113543567049"><ele>733.6666666666666</ele><time>2026-04-18T14:08:23Z</time></trkpt><trkpt lat="37.05161552290742" lon="14.764987983636473"><ele>735.3333333333333</ele><time>2026-04-18T14:08:24Z</time></trkpt><trkpt lat="37.051457225297774" lon="14.764886459811501"><ele>737.0</ele><time>2026-04-18T14:08:25Z</time></trkpt><trkpt lat="37.051283458156284" lon="14.76480121105567"><ele>737.0</ele><time>2026-04-18T14:08:26Z</time></trkpt><trkpt lat="37.05109485601198" lon="14.764732608446653"><ele>737.0</ele><time>2026-04-18T14:08:27Z</time></trkpt><trkpt lat="37.05090056561323" lon="14.764666231402252"><ele>737.0</ele><time>2026-04-18T14:08:28Z</time></trkpt><trkpt lat="37.05071315324566" lon="14.764597519167857"><ele>738.0</ele><time>2026-04-18T14:08:29Z</time></trkpt><trkpt lat="37.05052943351847" lon="14.764527810633654"><ele>739.0</ele><time>2026-04-18T14:08:30Z</time></trkpt><trkpt lat="37.05034841584733" lon="14.764462437472567"><ele>740.0</ele><time>2026-04-18T14:08:31Z</time></trkpt><trkpt lat="37.050170838914845" lon="14.764399828237421"><ele>742.6666666666666</ele><time>2026-04-18T14:08:32Z</time></trkpt><trkpt lat="37.04999250555215" lon="14.764343133510076"><ele>745.3333333333334</ele><time>2026-04-18T14:08:33Z</time></trkpt><trkpt lat="37.04982569515417" lon="14.764286427372385"><ele>748.0</ele><time>2026-04-18T14:08:34Z</time></trkpt><trkpt lat="37.04964431958529" lon="14.764235726490263"><ele>749.6666666666667</ele><time>2026-04-18T14:08:35Z</time></trkpt><trkpt lat="37.04946942342107" lon="14.764175611683369"><ele>751.3333333333334</ele><time>2026-04-18T14:08:36Z</time></trkpt><trkpt lat="37.04930658873787" lon="14.764108709239892"><ele>753.0</ele><time>2026-04-18T14:08:37Z</time></trkpt><trkpt lat="37.04914979751737" lon="14.764026013509337"><ele>753.6666666666666</ele><time>2026-04-18T14:08:38Z</time></trkpt><trkpt lat="37.048993915429996" lon="14.763941059125658"><ele>754.3333333333333</ele><time>2026-04-18T14:08:39Z</time></trkpt><trkpt lat="37.04883361950434" lon="14.76384209608019"><ele>755.0</ele><time>2026-04-18T14:08:40Z</time></trkpt><trkpt lat="37.04866579756588" lon="14.763744705411737"><ele>755.0</ele><time>2026-04-18T14:08:41Z</time></trkpt><trkpt lat="37.04850612802202" lon="14.76364684605543"><ele>755.0</ele><time>2026-04-18T14:08:42Z</time></trkpt><trkpt lat="37.04835103773439" lon="14.763545027607334"><ele>755.0</ele><time>2026-04-18T14:08:43Z</time></trkpt><trkpt lat="37.048198930063805" lon="14.763431022680022"><ele>759.6666666666666</ele><time>2026-04-18T14:08:44Z</time></trkpt><trkpt lat="37.04805315743707" lon="14.763295871086394"><ele>764.3333333333333</ele><time>2026-04-18T14:08:45Z</time></trkpt><trkpt lat="37.04790380583238" lon="14.763166835327489"><ele>769.0</ele><time>2026-04-18T14:08:46Z</time></trkpt><trkpt lat="37.04775326628208" lon="14.763028511591106"><ele>769.0</ele><time>2026-04-18T14:08:47Z</time></trkpt><trkpt lat="37.04760881778648" lon="14.7628828528403"><ele>769.0</ele><time>2026-04-18T14:08:48Z</time></trkpt><trkpt lat="37.04747076464093" lon="14.762736301763384"><ele>769.0</ele><time>2026-04-18T14:08:49Z</time></trkpt><trkpt lat="37.04734042900399" lon="14.762584722540584"><ele>768.3333333333333</ele><time>2026-04-18T14:08:50Z</time></trkpt><trkpt lat="37.04721322130373" lon="14.7624303358878"><ele>767.6666666666666</ele><time>2026-04-18T14:08:51Z</time></trkpt><trkpt lat="37.04709233885119" lon="14.762266060302272"><ele>767.0</ele><time>2026-04-18T14:08:52Z</time></trkpt><trkpt lat="37.0469812856548" lon="14.762093863873442"><ele>767.0</ele><time>2026-04-18T14:08:53Z</time></trkpt><trkpt lat="37.0468640104408" lon="14.761916767066692"><ele>767.0</ele><time>2026-04-18T14:08:54Z</time></trkpt><trkpt lat="37.04674926317366" lon="14.761736819667492"><ele>767.0</ele><time>2026-04-18T14:08:55Z</time></trkpt><trkpt lat="37.04663525146549" lon="14.761550823291907"><ele>766.0</ele><time>2026-04-18T14:08:56Z</time></trkpt><trkpt lat="37.04652274746193" lon="14.76135987818381"><ele>765.0</ele><time>2026-04-18T14:08:57Z</time></trkpt><trkpt lat="37.046412914659996" lon="14.761163426132443"><ele>764.0</ele><time>2026-04-18T14:08:58Z</time></trkpt><trkpt lat="37.046303276605876" lon="14.760963058062833"><ele>768.0</ele><time>2026-04-18T14:08:59Z</time></trkpt><trkpt lat="37.046191532233536" lon="14.760765897188607"><ele>772.0</ele><time>2026-04-18T14:09:00Z</time></trkpt><trkpt lat="37.04608115152201" lon="14.760570065479255"><ele>776.0</ele><time>2026-04-18T14:09:01Z</time></trkpt><trkpt lat="37.04597048135384" lon="14.760371599617486"><ele>776.3333333333334</ele><time>2026-04-18T14:09:02Z</time></trkpt><trkpt lat="37.04585387396811" lon="14.760160991017425"><ele>776.6666666666667</ele><time>2026-04-18T14:09:03Z</time></trkpt><trkpt lat="37.04572963528922" lon="14.759934506013792"><ele>777.0</ele><time>2026-04-18T14:09:03.999Z</time></trkpt><trkpt lat="37.04559689608023" lon="14.759704276148128"><ele>777.0</ele><time>2026-04-18T14:09:04.999Z</time></trkpt><trkpt lat="37.04546567711015" lon="14.75947903588133"><ele>777.0</ele><time>2026-04-18T14:09:05.999Z</time></trkpt><trkpt lat="37.04533405371091" lon="14.759258767050218"><ele>777.0</ele><time>2026-04-18T14:09:06.999Z</time></trkpt><trkpt lat="37.045207004323224" lon="14.75905763369755"><ele>778.3333333333333</ele><time>2026-04-18T14:09:07.999Z</time></trkpt><trkpt lat="37.04508044169009" lon="14.75886617911061"><ele>779.6666666666666</ele><time>2026-04-18T14:09:08.999Z</time></trkpt><trkpt lat="37.04496420649824" lon="14.75867911461952"><ele>781.0</ele><time>2026-04-18T14:09:09.999Z</time></trkpt><trkpt lat="37.04484949561649" lon="14.758488756661272"><ele>776.6666666666666</ele><time>2026-04-18T14:09:10.999Z</time></trkpt><trkpt lat="37.04474439466462" lon="14.758290924926568"><ele>772.3333333333333</ele><time>2026-04-18T14:09:11.999Z</time></trkpt><trkpt lat="37.04466540122897" lon="14.758083580028604"><ele>768.0</ele><time>2026-04-18T14:09:12.999Z</time></trkpt><trkpt lat="37.0445975080159" lon="14.757860217911078"><ele>773.3333333333333</ele><time>2026-04-18T14:09:13.999Z</time></trkpt><trkpt lat="37.044533406137745" lon="14.757632464444713"><ele>778.6666666666666</ele><time>2026-04-18T14:09:14.999Z</time></trkpt><trkpt lat="37.044469273357386" lon="14.757403035536448"><ele>784.0</ele><time>2026-04-18T14:09:15.999Z</time></trkpt><trkpt lat="37.04440372358993" lon="14.757175858079572"><ele>784.0</ele><time>2026-04-18T14:09:16.999Z</time></trkpt><trkpt lat="37.04432976970596" lon="14.75695250864642"><ele>784.0</ele><time>2026-04-18T14:09:17.999Z</time></trkpt><trkpt lat="37.044250066853216" lon="14.756744374992566"><ele>784.0</ele><time>2026-04-18T14:09:18.999Z</time></trkpt><trkpt lat="37.044156308229674" lon="14.756557000674789"><ele>782.0</ele><time>2026-04-18T14:09:19.999Z</time></trkpt><trkpt lat="37.04403839957443" lon="14.756384043638313"><ele>780.0</ele><time>2026-04-18T14:09:20.999Z</time></trkpt><trkpt lat="37.043913621962446" lon="14.756214435665235"><ele>778.0</ele><time>2026-04-18T14:09:21.999Z</time></trkpt><trkpt lat="37.04376902475031" lon="14.756064554847987"><ele>782.0</ele><time>2026-04-18T14:09:22.999Z</time></trkpt><trkpt lat="37.043617018122404" lon="14.75592465422582"><ele>786.0</ele><time>2026-04-18T14:09:23.999Z</time></trkpt><trkpt lat="37.04346184831294" lon="14.755801455784479"><ele>790.0</ele><time>2026-04-18T14:09:24.999Z</time></trkpt><trkpt lat="37.04331740699463" lon="14.755699185880427"><ele>786.5</ele><time>2026-04-18T14:09:25.999Z</time></trkpt><trkpt lat="37.0431921984991" lon="14.75560867109911"><ele>783.0</ele><time>2026-04-18T14:09:26.999Z</time></trkpt><trkpt lat="37.043086272893746" lon="14.75552999976312"><ele>779.5</ele><time>2026-04-18T14:09:27.999Z</time></trkpt><trkpt lat="37.04299868162582" lon="14.755456158236136"><ele>776.0</ele><time>2026-04-18T14:09:28.999Z</time></trkpt><trkpt lat="37.04292513725773" lon="14.755371535907267"><ele>776.0</ele><time>2026-04-18T14:09:29.999Z</time></trkpt><trkpt lat="37.042880812085784" lon="14.755254109331196"><ele>776.0</ele><time>2026-04-18T14:09:30.999Z</time></trkpt><trkpt lat="37.042847074334816" lon="14.755108939339433"><ele>776.0</ele><time>2026-04-18T14:09:31.999Z</time></trkpt><trkpt lat="37.04279419286167" lon="14.75493809249881"><ele>776.0</ele><time>2026-04-18T14:09:32.999Z</time></trkpt><trkpt lat="37.04271696016312" lon="14.754786378573161"><ele>778.5</ele><time>2026-04-18T14:09:33.999Z</time></trkpt><trkpt lat="37.04260712392532" lon="14.754668079773937"><ele>781.0</ele><time>2026-04-18T14:09:34.999Z</time></trkpt><trkpt lat="37.04247644292002" lon="14.754588594517141"><ele>783.5</ele><time>2026-04-18T14:09:35.999Z</time></trkpt><trkpt lat="37.04234789830401" lon="14.7545367123636"><ele>786.0</ele><time>2026-04-18T14:09:36.999Z</time></trkpt><trkpt lat="37.04222461773674" lon="14.754514005820559"><ele>786.0</ele><time>2026-04-18T14:09:37.999Z</time></trkpt><trkpt lat="37.04212232785849" lon="14.754472952209568"><ele>786.0</ele><time>2026-04-18T14:09:38.999Z</time></trkpt><trkpt lat="37.04203835512445" lon="14.754393228535582"><ele>786.0</ele><time>2026-04-18T14:09:39.999Z</time></trkpt><trkpt lat="37.04195976920739" lon="14.754281343238176"><ele>786.0</ele><time>2026-04-18T14:09:40.999Z</time></trkpt><trkpt lat="37.041889421247184" lon="14.754143956329445"><ele>786.0</ele><time>2026-04-18T14:09:41.999Z</time></trkpt><trkpt lat="37.04181906175166" lon="14.753981693776758"><ele>786.0</ele><time>2026-04-18T14:09:42.999Z</time></trkpt><trkpt lat="37.04173615019742" lon="14.753790974165387"><ele>786.0</ele><time>2026-04-18T14:09:43.999Z</time></trkpt><trkpt lat="37.04164295412323" lon="14.753594338005868"><ele>781.6666666666667</ele><time>2026-04-18T14:09:44.999Z</time></trkpt><trkpt lat="37.04154414818665" lon="14.75339379091677"><ele>777.3333333333334</ele><time>2026-04-18T14:09:45.999Z</time></trkpt><trkpt lat="37.04143788790978" lon="14.753186266606678"><ele>773.0</ele><time>2026-04-18T14:09:46.999Z</time></trkpt><trkpt lat="37.041332154758976" lon="14.753010700066266"><ele>773.0</ele><time>2026-04-18T14:09:47.999Z</time></trkpt><trkpt lat="37.04122333992168" lon="14.752864519433961"><ele>773.0</ele><time>2026-04-18T14:09:48.999Z</time></trkpt><trkpt lat="37.041120345234646" lon="14.752735751521879"><ele>773.0</ele><time>2026-04-18T14:09:49.999Z</time></trkpt><trkpt lat="37.04102268352405" lon="14.752614466331083"><ele>773.0</ele><time>2026-04-18T14:09:50.999Z</time></trkpt><trkpt lat="37.04093758823216" lon="14.752505472734757"><ele>775.6666666666667</ele><time>2026-04-18T14:09:51.999Z</time></trkpt><trkpt lat="37.04088030584164" lon="14.752416525870109"><ele>778.3333333333334</ele><time>2026-04-18T14:09:52.999Z</time></trkpt><trkpt lat="37.0408500733961" lon="14.752320265205716"><ele>781.0</ele><time>2026-04-18T14:09:54.999Z</time></trkpt><trkpt lat="37.040906033363605" lon="14.752263280925698"><ele>783.6666666666667</ele><time>2026-04-18T14:09:56.999Z</time></trkpt><trkpt lat="37.04092151999568" lon="14.752167898975234"><ele>786.3333333333334</ele><time>2026-04-18T14:09:59.999Z</time></trkpt><trkpt lat="37.04094151372887" lon="14.752062765005313"><ele>789.0</ele><time>2026-04-18T14:10:01.999Z</time></trkpt><trkpt lat="37.04099462673897" lon="14.751955799453949"><ele>790.6</ele><time>2026-04-18T14:10:03.999Z</time></trkpt><trkpt lat="37.04100784802524" lon="14.751865527952104"><ele>792.2</ele><time>2026-04-18T14:10:05.999Z</time></trkpt><trkpt lat="37.041036487484924" lon="14.751791856160548"><ele>793.8000000000001</ele><time>2026-04-18T14:10:07.999Z</time></trkpt><trkpt lat="37.04110656929321" lon="14.751665680899245"><ele>795.4000000000001</ele><time>2026-04-18T14:10:09.999Z</time></trkpt><trkpt lat="37.04115678656325" lon="14.751540706204077"><ele>797.0</ele><time>2026-04-18T14:10:11.998Z</time></trkpt><trkpt lat="37.041192944470794" lon="14.751429937807355"><ele>797.0000000000001</ele><time>2026-04-18T14:10:13.998Z</time></trkpt><trkpt lat="37.04114660966367" lon="14.751267462015992"><ele>797.0</ele><time>2026-04-18T14:10:15.998Z</time></trkpt><trkpt lat="37.04110646678792" lon="14.751183907778225"><ele>797.0</ele><time>2026-04-18T14:10:16.998Z</time></trkpt><trkpt lat="37.04106537173659" lon="14.751100643626222"><ele>797.0</ele><time>2026-04-18T14:10:17.998Z</time></trkpt><trkpt lat="37.04104073094995" lon="14.75101578840535"><ele>797.0000000000001</ele><time>2026-04-18T14:10:18.998Z</time></trkpt><trkpt lat="37.041023983140654" lon="14.750931321259104"><ele>797.0</ele><time>2026-04-18T14:10:19.998Z</time></trkpt><trkpt lat="37.04097513689941" lon="14.750779146768597"><ele>796.5000000000001</ele><time>2026-04-18T14:10:22Z</time></trkpt><trkpt lat="37.04094279920958" lon="14.75069334313062"><ele>796.0</ele><time>2026-04-18T14:10:23Z</time></trkpt><trkpt lat="37.04090453242758" lon="14.750586793194495"><ele>795.5</ele><time>2026-04-18T14:10:24Z</time></trkpt><trkpt lat="37.0408595030282" lon="14.750478405914238"><ele>795.0</ele><time>2026-04-18T14:10:25Z</time></trkpt><trkpt lat="37.04081359591798" lon="14.750378691770674"><ele>794.5000000000001</ele><time>2026-04-18T14:10:26Z</time></trkpt><trkpt lat="37.04077413065383" lon="14.750283501340979"><ele>794.0</ele><time>2026-04-18T14:10:27Z</time></trkpt><trkpt lat="37.04074068778664" lon="14.750186207843129"><ele>794.0</ele><time>2026-04-18T14:10:28Z</time></trkpt><trkpt lat="37.040707022608025" lon="14.750062855635834"><ele>794.0</ele><time>2026-04-18T14:10:29Z</time></trkpt><trkpt lat="37.04068497062541" lon="14.749931834923713"><ele>794.0</ele><time>2026-04-18T14:10:30Z</time></trkpt><trkpt lat="37.04067237256911" lon="14.749816764681583"><ele>794.0</ele><time>2026-04-18T14:10:31Z</time></trkpt><trkpt lat="37.040658279619386" lon="14.749708118367735"><ele>794.0</ele><time>2026-04-18T14:10:32Z</time></trkpt><trkpt lat="37.04064404497346" lon="14.749600623237972"><ele>794.0</ele><time>2026-04-18T14:10:33Z</time></trkpt><trkpt lat="37.04063420864024" lon="14.749506337195905"><ele>794.0</ele><time>2026-04-18T14:10:34Z</time></trkpt><trkpt lat="37.04063053856918" lon="14.749419292373734"><ele>794.0</ele><time>2026-04-18T14:10:35Z</time></trkpt><trkpt lat="37.040621265611406" lon="14.74932988295381"><ele>794.0</ele><time>2026-04-18T14:10:36Z</time></trkpt><trkpt lat="37.04059991416113" lon="14.749242015041713"><ele>794.0</ele><time>2026-04-18T14:10:37Z</time></trkpt><trkpt lat="37.040570081852124" lon="14.749152385611707"><ele>794.0</ele><time>2026-04-18T14:10:38Z</time></trkpt><trkpt lat="37.04053344521728" lon="14.749070492079541"><ele>794.0</ele><time>2026-04-18T14:10:39Z</time></trkpt><trkpt lat="37.0404997373315" lon="14.748984013307707"><ele>793.6666666666667</ele><time>2026-04-18T14:10:40Z</time></trkpt><trkpt lat="37.04046043644814" lon="14.748890685084584"><ele>793.3333333333334</ele><time>2026-04-18T14:10:41Z</time></trkpt><trkpt lat="37.04042022546292" lon="14.74879186722247"><ele>793.0</ele><time>2026-04-18T14:10:42Z</time></trkpt><trkpt lat="37.04038714238583" lon="14.748707276474741"><ele>792.6666666666667</ele><time>2026-04-18T14:10:43Z</time></trkpt><trkpt lat="37.04035722015985" lon="14.748615191251673"><ele>792.3333333333334</ele><time>2026-04-18T14:10:44Z</time></trkpt><trkpt lat="37.04033637684655" lon="14.748524174849173"><ele>792.0</ele><time>2026-04-18T14:10:45Z</time></trkpt><trkpt lat="37.04030884902911" lon="14.748436412966678"><ele>790.5</ele><time>2026-04-18T14:10:46Z</time></trkpt><trkpt lat="37.04027572264861" lon="14.7483584921701"><ele>789.0</ele><time>2026-04-18T14:10:47Z</time></trkpt><trkpt lat="37.04024384936738" lon="14.748288012241654"><ele>787.5</ele><time>2026-04-18T14:10:48Z</time></trkpt><trkpt lat="37.04020976643424" lon="14.748158857926851"><ele>786.0</ele><time>2026-04-18T14:10:50Z</time></trkpt><trkpt lat="37.04016604685701" lon="14.748044189070566"><ele>784.5</ele><time>2026-04-18T14:10:52Z</time></trkpt><trkpt lat="37.040140755216484" lon="14.747951235417927"><ele>783.0</ele><time>2026-04-18T14:10:54Z</time></trkpt><trkpt lat="37.04018153156822" lon="14.74784431747705"><ele>783.0</ele><time>2026-04-18T14:10:56Z</time></trkpt><trkpt lat="37.04017600039138" lon="14.74776570925812"><ele>783.0</ele><time>2026-04-18T14:10:58Z</time></trkpt><trkpt lat="37.04016042165595" lon="14.747687758033356"><ele>783.0</ele><time>2026-04-18T14:11:00Z</time></trkpt><trkpt lat="37.04012741731625" lon="14.747616489569932"><ele>783.0</ele><time>2026-04-18T14:11:25.999Z</time></trkpt><trkpt lat="37.04011215767464" lon="14.74753962381974"><ele>783.0</ele><time>2026-04-18T14:12:27Z</time></trkpt><trkpt lat="37.040083126242386" lon="14.747432513077925"><ele>783.0</ele><time>2026-04-18T14:12:29Z</time></trkpt><trkpt lat="37.040056295944375" lon="14.747335335466232"><ele>783.0</ele><time>2026-04-18T14:12:30Z</time></trkpt><trkpt lat="37.04002967266716" lon="14.747228615999543"><ele>781.8</ele><time>2026-04-18T14:12:31Z</time></trkpt><trkpt lat="37.03999908393511" lon="14.747112770312022"><ele>780.5999999999999</ele><time>2026-04-18T14:12:32Z</time></trkpt><trkpt lat="37.03996191773676" lon="14.746966177877974"><ele>779.4000000000001</ele><time>2026-04-18T14:12:33Z</time></trkpt><trkpt lat="37.03992257864456" lon="14.746843274636793"><ele>778.2</ele><time>2026-04-18T14:12:34Z</time></trkpt><trkpt lat="37.039902183487634" lon="14.746743570180017"><ele>777.0</ele><time>2026-04-18T14:12:35Z</time></trkpt><trkpt lat="37.039865209980036" lon="14.746634489128313"><ele>775.1666666666666</ele><time>2026-04-18T14:12:36Z</time></trkpt><trkpt lat="37.03983423868693" lon="14.746516978704598"><ele>773.3333333333334</ele><time>2026-04-18T14:12:37Z</time></trkpt><trkpt lat="37.03980455626052" lon="14.746385068875556"><ele>771.5</ele><time>2026-04-18T14:12:38Z</time></trkpt><trkpt lat="37.03979132854126" lon="14.746278860701343"><ele>769.6666666666667</ele><time>2026-04-18T14:12:39Z</time></trkpt><trkpt lat="37.03977637228121" lon="14.74619012661046"><ele>767.8333333333334</ele><time>2026-04-18T14:12:40Z</time></trkpt><trkpt lat="37.03975714030787" lon="14.74610877050732"><ele>766.0</ele><time>2026-04-18T14:12:41Z</time></trkpt><trkpt lat="37.03972861446423" lon="14.74602102248814"><ele>764.6666666666667</ele><time>2026-04-18T14:12:42Z</time></trkpt><trkpt lat="37.03970331697716" lon="14.745917989666458"><ele>763.3333333333334</ele><time>2026-04-18T14:12:43Z</time></trkpt><trkpt lat="37.0396905606951" lon="14.745825010411254"><ele>762.0</ele><time>2026-04-18T14:12:44Z</time></trkpt><trkpt lat="37.03967263573441" lon="14.745739190722729"><ele>760.6666666666666</ele><time>2026-04-18T14:12:45Z</time></trkpt><trkpt lat="37.039644241607945" lon="14.745655344501461"><ele>759.3333333333333</ele><time>2026-04-18T14:12:46Z</time></trkpt><trkpt lat="37.0396044684157" lon="14.745487629114816"><ele>758.0</ele><time>2026-04-18T14:12:48Z</time></trkpt><trkpt lat="37.03956694100515" lon="14.745375531295457"><ele>758.0</ele><time>2026-04-18T14:12:49Z</time></trkpt><trkpt lat="37.03964755760731" lon="14.745278058095892"><ele>758.0</ele><time>2026-04-18T14:12:50Z</time></trkpt><trkpt lat="37.03966263124982" lon="14.745170660637484"><ele>758.0</ele><time>2026-04-18T14:12:51Z</time></trkpt><trkpt lat="37.039677018780054" lon="14.745068151861313"><ele>758.0</ele><time>2026-04-18T14:12:52Z</time></trkpt><trkpt lat="37.03969209467483" lon="14.744960738177632"><ele>758.0</ele><time>2026-04-18T14:12:53Z</time></trkpt><trkpt lat="37.03945273808609" lon="14.744787972699775"><ele>756.2</ele><time>2026-04-18T14:12:54Z</time></trkpt><trkpt lat="37.03943021801324" lon="14.744669987851191"><ele>754.4</ele><time>2026-04-18T14:12:55Z</time></trkpt><trkpt lat="37.03939964998134" lon="14.744557072250046"><ele>752.6</ele><time>2026-04-18T14:12:56Z</time></trkpt><trkpt lat="37.03936595123227" lon="14.744460904353442"><ele>750.8000000000001</ele><time>2026-04-18T14:12:57Z</time></trkpt><trkpt lat="37.03932070131274" lon="14.744370454461782"><ele>749.0</ele><time>2026-04-18T14:12:58Z</time></trkpt><trkpt lat="37.03926955841123" lon="14.744278478026093"><ele>747.2</ele><time>2026-04-18T14:12:59Z</time></trkpt><trkpt lat="37.039220299201325" lon="14.744192155830323"><ele>745.4000000000001</ele><time>2026-04-18T14:13:00Z</time></trkpt><trkpt lat="37.039159078580894" lon="14.744112387489956"><ele>743.6</ele><time>2026-04-18T14:13:01Z</time></trkpt><trkpt lat="37.0390952182355" lon="14.744025212381777"><ele>741.8</ele><time>2026-04-18T14:13:02Z</time></trkpt><trkpt lat="37.03903400327832" lon="14.743933634129696"><ele>740.0</ele><time>2026-04-18T14:13:03Z</time></trkpt><trkpt lat="37.038967590864004" lon="14.743851524204498"><ele>740.0</ele><time>2026-04-18T14:13:04Z</time></trkpt><trkpt lat="37.03891387350995" lon="14.743772808461976"><ele>740.0</ele><time>2026-04-18T14:13:05Z</time></trkpt><trkpt lat="37.03886138300567" lon="14.743700447878034"><ele>740.0</ele><time>2026-04-18T14:13:06Z</time></trkpt><trkpt lat="37.038808814067394" lon="14.743638337400547"><ele>740.0</ele><time>2026-04-18T14:13:07Z</time></trkpt><trkpt lat="37.03876035609683" lon="14.74357131402318"><ele>740.0</ele><time>2026-04-18T14:13:08Z</time></trkpt><trkpt lat="37.03870654072837" lon="14.743487256481922"><ele>740.0</ele><time>2026-04-18T14:13:09Z</time></trkpt><trkpt lat="37.03862974912495" lon="14.743398386835876"><ele>738.6</ele><time>2026-04-18T14:13:10Z</time></trkpt><trkpt lat="37.03855898899142" lon="14.743308089716107"><ele>737.2</ele><time>2026-04-18T14:13:11Z</time></trkpt><trkpt lat="37.03850553724341" lon="14.743222330980261"><ele>735.8</ele><time>2026-04-18T14:13:12Z</time></trkpt><trkpt lat="37.03844051834294" lon="14.743131833527517"><ele>734.4</ele><time>2026-04-18T14:13:13Z</time></trkpt><trkpt lat="37.038367501481495" lon="14.743044888342945"><ele>733.0</ele><time>2026-04-18T14:13:14Z</time></trkpt><trkpt lat="37.038299934716555" lon="14.742958650037714"><ele>733.0</ele><time>2026-04-18T14:13:14.999Z</time></trkpt><trkpt lat="37.03821800979332" lon="14.742886430637453"><ele>733.0</ele><time>2026-04-18T14:13:15.999Z</time></trkpt><trkpt lat="37.03814590240079" lon="14.74280485432993"><ele>733.0</ele><time>2026-04-18T14:13:16.999Z</time></trkpt><trkpt lat="37.03807355229446" lon="14.742751543365598"><ele>733.0</ele><time>2026-04-18T14:13:17.999Z</time></trkpt><trkpt lat="37.03800634849918" lon="14.742718599674953"><ele>733.0</ele><time>2026-04-18T14:13:18.999Z</time></trkpt><trkpt lat="37.03794982943754" lon="14.742664881262934"><ele>733.0</ele><time>2026-04-18T14:13:19.999Z</time></trkpt><trkpt lat="37.03787981782632" lon="14.742616525094823"><ele>730.5999999999999</ele><time>2026-04-18T14:13:20.999Z</time></trkpt><trkpt lat="37.0378007795108" lon="14.742545654151458"><ele>728.1999999999999</ele><time>2026-04-18T14:13:21.999Z</time></trkpt><trkpt lat="37.037719550519554" lon="14.742458108152588"><ele>725.8</ele><time>2026-04-18T14:13:22.999Z</time></trkpt><trkpt lat="37.037645621752574" lon="14.742372491309043"><ele>723.4</ele><time>2026-04-18T14:13:23.999Z</time></trkpt><trkpt lat="37.037575622877384" lon="14.742294826735524"><ele>721.0</ele><time>2026-04-18T14:13:24.999Z</time></trkpt><trkpt lat="37.03750738921402" lon="14.74222124748415"><ele>720.6666666666667</ele><time>2026-04-18T14:13:25.999Z</time></trkpt><trkpt lat="37.037443835293196" lon="14.742150136258221"><ele>720.3333333333334</ele><time>2026-04-18T14:13:26.999Z</time></trkpt><trkpt lat="37.03739330317294" lon="14.742071687804865"><ele>720.0</ele><time>2026-04-18T14:13:27.999Z</time></trkpt><trkpt lat="37.0373503080047" lon="14.74198557525791"><ele>719.6666666666666</ele><time>2026-04-18T14:13:28.999Z</time></trkpt><trkpt lat="37.03731374509007" lon="14.741892167278541"><ele>719.3333333333333</ele><time>2026-04-18T14:13:29.999Z</time></trkpt><trkpt lat="37.03727340776178" lon="14.74178691703453"><ele>719.0</ele><time>2026-04-18T14:13:30.999Z</time></trkpt><trkpt lat="37.03723285047977" lon="14.741701064380717"><ele>718.3333333333333</ele><time>2026-04-18T14:13:31.999Z</time></trkpt><trkpt lat="37.03719000734074" lon="14.741623853015229"><ele>717.6666666666666</ele><time>2026-04-18T14:13:32.999Z</time></trkpt><trkpt lat="37.03716775608265" lon="14.74153770699305"><ele>717.0</ele><time>2026-04-18T14:13:33.999Z</time></trkpt><trkpt lat="37.03715809398911" lon="14.741454508656602"><ele>716.3333333333334</ele><time>2026-04-18T14:13:34.999Z</time></trkpt><trkpt lat="37.03716848001019" lon="14.741373913197668"><ele>715.6666666666667</ele><time>2026-04-18T14:13:35.999Z</time></trkpt><trkpt lat="37.03721945881013" lon="14.741242093794048"><ele>715.0</ele><time>2026-04-18T14:13:37.999Z</time></trkpt><trkpt lat="37.03725658013843" lon="14.741115352454658"><ele>715.0</ele><time>2026-04-18T14:13:39.999Z</time></trkpt><trkpt lat="37.0372759952601" lon="14.74103514440859"><ele>715.0</ele><time>2026-04-18T14:13:40.999Z</time></trkpt><trkpt lat="37.037303126616465" lon="14.740954049726922"><ele>715.0</ele><time>2026-04-18T14:13:41.999Z</time></trkpt><trkpt lat="37.03731242685564" lon="14.740806884457882"><ele>715.0</ele><time>2026-04-18T14:13:43.999Z</time></trkpt><trkpt lat="37.03746785415033" lon="14.740849955101341"><ele>715.0</ele><time>2026-04-18T14:14:55Z</time></trkpt><trkpt lat="37.03753686686231" lon="14.740860397088076"><ele>715.5</ele><time>2026-04-18T14:14:56Z</time></trkpt><trkpt lat="37.03765774678483" lon="14.740879272123896"><ele>716.0</ele><time>2026-04-18T14:14:58Z</time></trkpt><trkpt lat="37.037831395212436" lon="14.740902506558227"><ele>716.5</ele><time>2026-04-18T14:15:01Z</time></trkpt><trkpt lat="37.03794299566569" lon="14.74091850164629"><ele>717.0</ele><time>2026-04-18T14:15:03.015Z</time></trkpt><trkpt lat="37.03804807119073" lon="14.740941672443759"><ele>725.0</ele><time>2026-04-18T14:15:05.018Z</time></trkpt><trkpt lat="37.03835971743997" lon="14.741209890181779"><ele>733.0</ele><time>2026-04-18T14:15:10.02Z</time></trkpt><trkpt lat="37.03844964472125" lon="14.741218528057555"><ele>733.0</ele><time>2026-04-18T14:15:11.019Z</time></trkpt><trkpt lat="37.03860821005104" lon="14.741172905075157"><ele>733.0</ele><time>2026-04-18T14:15:12Z</time></trkpt><trkpt lat="37.03867320302666" lon="14.74123342163543"><ele>733.0</ele><time>2026-04-18T14:15:13Z</time></trkpt><trkpt lat="37.038733911598555" lon="14.741285640745511"><ele>733.0</ele><time>2026-04-18T14:15:14Z</time></trkpt><trkpt lat="37.03883530668391" lon="14.741272866743351"><ele>733.0</ele><time>2026-04-18T14:15:15Z</time></trkpt><trkpt lat="37.03892822776614" lon="14.741382139291014"><ele>732.9999999999999</ele><time>2026-04-18T14:15:17Z</time></trkpt><trkpt lat="37.038994027626686" lon="14.741426122262979"><ele>733.0</ele><time>2026-04-18T14:15:18Z</time></trkpt><trkpt lat="37.03905574074078" lon="14.741478806707162"><ele>733.0</ele><time>2026-04-18T14:15:19Z</time></trkpt><trkpt lat="37.03911207863712" lon="14.74152790972414"><ele>733.0</ele><time>2026-04-18T14:15:20Z</time></trkpt><trkpt lat="37.039179040070756" lon="14.741574199495927"><ele>733.0</ele><time>2026-04-18T14:15:20.999Z</time></trkpt><trkpt lat="37.03925175196584" lon="14.741591117918672"><ele>732.9999999999999</ele><time>2026-04-18T14:15:21.999Z</time></trkpt><trkpt lat="37.03931598009811" lon="14.741614336493459"><ele>733.0</ele><time>2026-04-18T14:15:22.999Z</time></trkpt><trkpt lat="37.03938462678529" lon="14.741636235152598"><ele>731.1666666666667</ele><time>2026-04-18T14:15:23.999Z</time></trkpt><trkpt lat="37.03945804396144" lon="14.741653848203798"><ele>729.3333333333334</ele><time>2026-04-18T14:15:24.999Z</time></trkpt><trkpt lat="37.039528237071245" lon="14.741669945006848"><ele>727.5</ele><time>2026-04-18T14:15:25.999Z</time></trkpt><trkpt lat="37.0395957013844" lon="14.74166331350696"><ele>725.6666666666666</ele><time>2026-04-18T14:15:26.999Z</time></trkpt><trkpt lat="37.03964960004199" lon="14.741605977015874"><ele>723.8333333333333</ele><time>2026-04-18T14:15:27.999Z</time></trkpt><trkpt lat="37.03975966998318" lon="14.741567340648547"><ele>722.0</ele><time>2026-04-18T14:15:29.999Z</time></trkpt><trkpt lat="37.03983053765787" lon="14.741551200817932"><ele>722.0</ele><time>2026-04-18T14:15:30.999Z</time></trkpt><trkpt lat="37.0399270616104" lon="14.74148807644561"><ele>722.0</ele><time>2026-04-18T14:15:31.999Z</time></trkpt><trkpt lat="37.040018589455336" lon="14.741418919375441"><ele>722.0</ele><time>2026-04-18T14:15:32.999Z</time></trkpt><trkpt lat="37.04012272324321" lon="14.741329793130172"><ele>722.0</ele><time>2026-04-18T14:15:33.999Z</time></trkpt><trkpt lat="37.040219731615124" lon="14.741192041341959"><ele>719.6</ele><time>2026-04-18T14:15:34.999Z</time></trkpt><trkpt lat="37.0402864349499" lon="14.741075799551668"><ele>717.2</ele><time>2026-04-18T14:15:35.999Z</time></trkpt><trkpt lat="37.04034792640539" lon="14.74095268573911"><ele>714.8</ele><time>2026-04-18T14:15:36.999Z</time></trkpt><trkpt lat="37.04039979452583" lon="14.740859940229043"><ele>712.4</ele><time>2026-04-18T14:15:37.999Z</time></trkpt><trkpt lat="37.04045057300151" lon="14.740778519721035"><ele>710.0</ele><time>2026-04-18T14:15:38.999Z</time></trkpt><trkpt lat="37.04050334345338" lon="14.740690161005103"><ele>709.0</ele><time>2026-04-18T14:15:39.999Z</time></trkpt><trkpt lat="37.040547413970025" lon="14.740620590569526"><ele>708.0</ele><time>2026-04-18T14:15:40.999Z</time></trkpt><trkpt lat="37.04058670313483" lon="14.740529794026418"><ele>707.0</ele><time>2026-04-18T14:15:41.999Z</time></trkpt><trkpt lat="37.04063015577355" lon="14.740453445334609"><ele>706.0</ele><time>2026-04-18T14:15:42.999Z</time></trkpt><trkpt lat="37.04067882697731" lon="14.740379711100537"><ele>705.0</ele><time>2026-04-18T14:15:43.999Z</time></trkpt><trkpt lat="37.04073095766549" lon="14.74030624503262"><ele>704.0</ele><time>2026-04-18T14:15:45.019Z</time></trkpt><trkpt lat="37.0407746232375" lon="14.740234843269107"><ele>703.0</ele><time>2026-04-18T14:15:46.019Z</time></trkpt><trkpt lat="37.04082271234059" lon="14.740162435559338"><ele>702.0</ele><time>2026-04-18T14:15:47.018Z</time></trkpt><trkpt lat="37.040874040067834" lon="14.740095492209331"><ele>701.0</ele><time>2026-04-18T14:15:48.021Z</time></trkpt><trkpt lat="37.04106615966789" lon="14.740154826607899"><ele>700.0</ele><time>2026-04-18T14:15:48.999Z</time></trkpt><trkpt lat="37.04120204620327" lon="14.740154018324066"><ele>700.0</ele><time>2026-04-18T14:15:50.999Z</time></trkpt><trkpt lat="37.04131183707785" lon="14.74014276097918"><ele>700.0</ele><time>2026-04-18T14:15:51.999Z</time></trkpt><trkpt lat="37.041405436337925" lon="14.74020035838171"><ele>700.0</ele><time>2026-04-18T14:15:52.999Z</time></trkpt><trkpt lat="37.04149930115942" lon="14.740257185554778"><ele>700.0</ele><time>2026-04-18T14:15:53.999Z</time></trkpt><trkpt lat="37.04159628799241" lon="14.740306707540002"><ele>700.0</ele><time>2026-04-18T14:15:54.999Z</time></trkpt><trkpt lat="37.04168184011841" lon="14.740366083808073"><ele>704.75</ele><time>2026-04-18T14:15:55.999Z</time></trkpt><trkpt lat="37.04178578646322" lon="14.740441107506769"><ele>709.5</ele><time>2026-04-18T14:15:56.999Z</time></trkpt><trkpt lat="37.041883466595024" lon="14.740523789085369"><ele>714.25</ele><time>2026-04-18T14:15:57.999Z</time></trkpt><trkpt lat="37.041978525488034" lon="14.740620711746805"><ele>719.0</ele><time>2026-04-18T14:15:58.999Z</time></trkpt><trkpt lat="37.04205422352804" lon="14.740726211590886"><ele>719.0</ele><time>2026-04-18T14:15:59.999Z</time></trkpt><trkpt lat="37.042133688507" lon="14.740806510198393"><ele>719.0</ele><time>2026-04-18T14:16:00.999Z</time></trkpt><trkpt lat="37.042229619981185" lon="14.74087202412305"><ele>719.0</ele><time>2026-04-18T14:16:01.999Z</time></trkpt><trkpt lat="37.042332185787316" lon="14.740919432257886"><ele>719.0</ele><time>2026-04-18T14:16:02.999Z</time></trkpt><trkpt lat="37.042439268330924" lon="14.740978509953429"><ele>719.0</ele><time>2026-04-18T14:16:03.999Z</time></trkpt><trkpt lat="37.04254550305478" lon="14.741040675558963"><ele>721.25</ele><time>2026-04-18T14:16:04.999Z</time></trkpt><trkpt lat="37.04266749714967" lon="14.741075287862412"><ele>723.5</ele><time>2026-04-18T14:16:05.999Z</time></trkpt><trkpt lat="37.04277767983829" lon="14.741127057508162"><ele>725.75</ele><time>2026-04-18T14:16:06.999Z</time></trkpt><trkpt lat="37.04289429550445" lon="14.741166047974486"><ele>728.0</ele><time>2026-04-18T14:16:07.999Z</time></trkpt><trkpt lat="37.04300787187799" lon="14.741198950569366"><ele>728.0</ele><time>2026-04-18T14:16:08.999Z</time></trkpt><trkpt lat="37.04313343652569" lon="14.741223181457922"><ele>728.0</ele><time>2026-04-18T14:16:09.999Z</time></trkpt><trkpt lat="37.04323952820757" lon="14.741256971836892"><ele>728.0</ele><time>2026-04-18T14:16:10.999Z</time></trkpt><trkpt lat="37.0433387728021" lon="14.74129970834941"><ele>728.0</ele><time>2026-04-18T14:16:11.999Z</time></trkpt><trkpt lat="37.043446790622376" lon="14.741325555557733"><ele>724.5</ele><time>2026-04-18T14:16:12.999Z</time></trkpt><trkpt lat="37.043563066578294" lon="14.74133599875702"><ele>721.0</ele><time>2026-04-18T14:16:13.999Z</time></trkpt><trkpt lat="37.04368786677468" lon="14.741335362859052"><ele>717.5</ele><time>2026-04-18T14:16:14.999Z</time></trkpt><trkpt lat="37.043808265257134" lon="14.741315341704205"><ele>714.0</ele><time>2026-04-18T14:16:15.999Z</time></trkpt><trkpt lat="37.043919461924695" lon="14.741266570702605"><ele>714.0</ele><time>2026-04-18T14:16:16.999Z</time></trkpt><trkpt lat="37.04401786747181" lon="14.741201980496816"><ele>714.0</ele><time>2026-04-18T14:16:17.999Z</time></trkpt><trkpt lat="37.04413806331656" lon="14.741140332626088"><ele>714.0</ele><time>2026-04-18T14:16:18.999Z</time></trkpt><trkpt lat="37.04425256144303" lon="14.741097442156493"><ele>714.0</ele><time>2026-04-18T14:16:19.999Z</time></trkpt><trkpt lat="37.04436718519488" lon="14.741051578734043"><ele>713.8000000000001</ele><time>2026-04-18T14:16:20.999Z</time></trkpt><trkpt lat="37.044477709511185" lon="14.741025497611112"><ele>713.6</ele><time>2026-04-18T14:16:21.999Z</time></trkpt><trkpt lat="37.04458879783219" lon="14.741041189919608"><ele>713.4</ele><time>2026-04-18T14:16:22.999Z</time></trkpt><trkpt lat="37.044686899637334" lon="14.741079752493128"><ele>713.2</ele><time>2026-04-18T14:16:23.999Z</time></trkpt><trkpt lat="37.04479628170212" lon="14.741097184683221"><ele>713.0</ele><time>2026-04-18T14:16:24.999Z</time></trkpt><trkpt lat="37.044906161382116" lon="14.741145225890474"><ele>710.75</ele><time>2026-04-18T14:16:25.998Z</time></trkpt><trkpt lat="37.04500352118459" lon="14.741227619616312"><ele>708.5</ele><time>2026-04-18T14:16:26.998Z</time></trkpt><trkpt lat="37.0451059356065" lon="14.741291754279725"><ele>706.25</ele><time>2026-04-18T14:16:27.998Z</time></trkpt><trkpt lat="37.04519658111681" lon="14.741380790700097"><ele>704.0</ele><time>2026-04-18T14:16:28.998Z</time></trkpt><trkpt lat="37.0452843733825" lon="14.741504748429069"><ele>704.0</ele><time>2026-04-18T14:16:29.998Z</time></trkpt><trkpt lat="37.04532959222097" lon="14.741669083251018"><ele>704.0</ele><time>2026-04-18T14:16:30.998Z</time></trkpt><trkpt lat="37.04542773634665" lon="14.741778441910423"><ele>704.0</ele><time>2026-04-18T14:16:31.998Z</time></trkpt><trkpt lat="37.04553019488127" lon="14.741883529267886"><ele>704.0</ele><time>2026-04-18T14:16:32.998Z</time></trkpt><trkpt lat="37.04562392723384" lon="14.741974835779084"><ele>704.2</ele><time>2026-04-18T14:16:33.998Z</time></trkpt><trkpt lat="37.045708487532345" lon="14.742055821672258"><ele>704.4000000000001</ele><time>2026-04-18T14:16:34.998Z</time></trkpt><trkpt lat="37.04579423772551" lon="14.742139629183452"><ele>704.6</ele><time>2026-04-18T14:16:35.998Z</time></trkpt><trkpt lat="37.0458738626731" lon="14.74221816256024"><ele>704.8</ele><time>2026-04-18T14:16:36.998Z</time></trkpt><trkpt lat="37.04595485732464" lon="14.742302447845963"><ele>705.0</ele><time>2026-04-18T14:16:37.998Z</time></trkpt><trkpt lat="37.046025806105426" lon="14.74238089579558"><ele>705.0</ele><time>2026-04-18T14:16:39Z</time></trkpt><trkpt lat="37.04610041705918" lon="14.742450242040785"><ele>705.0</ele><time>2026-04-18T14:16:40Z</time></trkpt><trkpt lat="37.04616005716989" lon="14.74254049604401"><ele>705.0</ele><time>2026-04-18T14:16:41Z</time></trkpt><trkpt lat="37.046214335501745" lon="14.742626771856449"><ele>705.0</ele><time>2026-04-18T14:16:42Z</time></trkpt><trkpt lat="37.04624474887018" lon="14.742727302134321"><ele>705.0</ele><time>2026-04-18T14:16:43Z</time></trkpt><trkpt lat="37.04628890974247" lon="14.742826123457403"><ele>709.0</ele><time>2026-04-18T14:16:44Z</time></trkpt><trkpt lat="37.04633989522991" lon="14.742924733417663"><ele>713.0</ele><time>2026-04-18T14:16:45.018Z</time></trkpt><trkpt lat="37.046395199130934" lon="14.743020426659998"><ele>717.0</ele><time>2026-04-18T14:16:46.018Z</time></trkpt><trkpt lat="37.04645232964254" lon="14.743109077166128"><ele>721.0</ele><time>2026-04-18T14:16:47.015Z</time></trkpt><trkpt lat="37.0465094739055" lon="14.743194464812365"><ele>725.0</ele><time>2026-04-18T14:16:48.02Z</time></trkpt><trkpt lat="37.04658131698683" lon="14.743284548529093"><ele>717.0</ele><time>2026-04-18T14:16:49Z</time></trkpt><trkpt lat="37.0467345808811" lon="14.743411819725242"><ele>709.0</ele><time>2026-04-18T14:16:50Z</time></trkpt><trkpt lat="37.04685887276866" lon="14.743469781172006"><ele>701.0</ele><time>2026-04-18T14:16:51Z</time></trkpt><trkpt lat="37.046940235464476" lon="14.743491536816107"><ele>693.0</ele><time>2026-04-18T14:16:52Z</time></trkpt><trkpt lat="37.04703237851115" lon="14.743508632054143"><ele>693.0</ele><time>2026-04-18T14:16:53Z</time></trkpt><trkpt lat="37.047140399142805" lon="14.743513611598686"><ele>693.0</ele><time>2026-04-18T14:16:54Z</time></trkpt><trkpt lat="37.04723996930981" lon="14.743498636329372"><ele>693.0</ele><time>2026-04-18T14:16:55Z</time></trkpt><trkpt lat="37.04733707623959" lon="14.74345904276209"><ele>693.0</ele><time>2026-04-18T14:16:56Z</time></trkpt><trkpt lat="37.04742516387523" lon="14.74342809370354"><ele>693.0</ele><time>2026-04-18T14:16:57Z</time></trkpt><trkpt lat="37.047507354446296" lon="14.743370448323937"><ele>692.4</ele><time>2026-04-18T14:16:58Z</time></trkpt><trkpt lat="37.0475881678653" lon="14.743317995823707"><ele>691.8</ele><time>2026-04-18T14:16:59Z</time></trkpt><trkpt lat="37.04766959080061" lon="14.743256927532922"><ele>691.2</ele><time>2026-04-18T14:17:00Z</time></trkpt><trkpt lat="37.04775401707815" lon="14.743189173203053"><ele>690.6</ele><time>2026-04-18T14:17:01Z</time></trkpt><trkpt lat="37.04783900089432" lon="14.743120288737428"><ele>690.0</ele><time>2026-04-18T14:17:02Z</time></trkpt><trkpt lat="37.047923837765616" lon="14.743046896388831"><ele>690.0</ele><time>2026-04-18T14:17:03.019Z</time></trkpt><trkpt lat="37.04800684040713" lon="14.742972162021855"><ele>690.0</ele><time>2026-04-18T14:17:04.016Z</time></trkpt><trkpt lat="37.04808805791771" lon="14.742899432854886"><ele>690.0</ele><time>2026-04-18T14:17:05.017Z</time></trkpt><trkpt lat="37.048163311125165" lon="14.742833296192245"><ele>690.0</ele><time>2026-04-18T14:17:06.018Z</time></trkpt><trkpt lat="37.04826285795781" lon="14.742810131584514"><ele>690.0</ele><time>2026-04-18T14:17:07.014Z</time></trkpt><trkpt lat="37.048349846204424" lon="14.742791021756357"><ele>696.6666666666666</ele><time>2026-04-18T14:17:08.018Z</time></trkpt><trkpt lat="37.04847994711766" lon="14.742799451922817"><ele>703.3333333333333</ele><time>2026-04-18T14:17:09Z</time></trkpt><trkpt lat="37.048563557693285" lon="14.742785110289713"><ele>710.0</ele><time>2026-04-18T14:17:10Z</time></trkpt><trkpt lat="37.04888008251763" lon="14.742772167143265"><ele>710.0</ele><time>2026-04-18T14:17:13Z</time></trkpt><trkpt lat="37.04898896440206" lon="14.742769249756142"><ele>710.0</ele><time>2026-04-18T14:17:14Z</time></trkpt><trkpt lat="37.04909670920403" lon="14.74276681332102"><ele>710.0</ele><time>2026-04-18T14:17:15Z</time></trkpt><trkpt lat="37.04920632296963" lon="14.742757337418634"><ele>710.0</ele><time>2026-04-18T14:17:16Z</time></trkpt><trkpt lat="37.04931719544035" lon="14.74274336743863"><ele>710.0</ele><time>2026-04-18T14:17:17Z</time></trkpt><trkpt lat="37.04942917892488" lon="14.742730687624599"><ele>703.2</ele><time>2026-04-18T14:17:18Z</time></trkpt><trkpt lat="37.049531151989044" lon="14.742695313267888"><ele>696.4</ele><time>2026-04-18T14:17:19Z</time></trkpt><trkpt lat="37.04963279745049" lon="14.742702300763597"><ele>689.5999999999999</ele><time>2026-04-18T14:17:20Z</time></trkpt><trkpt lat="37.04973937776214" lon="14.742691257941644"><ele>682.8</ele><time>2026-04-18T14:17:21Z</time></trkpt><trkpt lat="37.04984256948378" lon="14.742658340673529"><ele>676.0</ele><time>2026-04-18T14:17:22Z</time></trkpt><trkpt lat="37.04993675524276" lon="14.742649456326362"><ele>676.25</ele><time>2026-04-18T14:17:23Z</time></trkpt><trkpt lat="37.05004115983693" lon="14.742599020001446"><ele>676.5</ele><time>2026-04-18T14:17:24Z</time></trkpt><trkpt lat="37.05015545438645" lon="14.742580401255351"><ele>676.75</ele><time>2026-04-18T14:17:24.999Z</time></trkpt><trkpt lat="37.050272138691874" lon="14.7425463917379"><ele>677.0</ele><time>2026-04-18T14:17:25.999Z</time></trkpt><trkpt lat="37.05037782665939" lon="14.742522634581972"><ele>677.0</ele><time>2026-04-18T14:17:26.999Z</time></trkpt><trkpt lat="37.05048038162015" lon="14.742512237189835"><ele>677.0</ele><time>2026-04-18T14:17:27.999Z</time></trkpt><trkpt lat="37.050578394512975" lon="14.742523979621538"><ele>677.0</ele><time>2026-04-18T14:17:28.999Z</time></trkpt><trkpt lat="37.0506861134516" lon="14.74254915443607"><ele>677.0</ele><time>2026-04-18T14:17:29.999Z</time></trkpt><trkpt lat="37.05078485377242" lon="14.742582557192522"><ele>677.0</ele><time>2026-04-18T14:17:30.999Z</time></trkpt><trkpt lat="37.05086692091511" lon="14.74262111234247"><ele>677.1666666666666</ele><time>2026-04-18T14:17:31.999Z</time></trkpt><trkpt lat="37.050936155307184" lon="14.742661699765536"><ele>677.3333333333333</ele><time>2026-04-18T14:17:32.999Z</time></trkpt><trkpt lat="37.05099238256535" lon="14.742698752565373"><ele>677.5</ele><time>2026-04-18T14:17:33.999Z</time></trkpt><trkpt lat="37.0511124496603" lon="14.742792544171886"><ele>677.6666666666666</ele><time>2026-04-18T14:17:35.999Z</time></trkpt><trkpt lat="37.05118685689524" lon="14.742826041537834"><ele>677.8333333333334</ele><time>2026-04-18T14:17:36.999Z</time></trkpt><trkpt lat="37.05124890677095" lon="14.742894168036317"><ele>678.0</ele><time>2026-04-18T14:17:37.999Z</time></trkpt><trkpt lat="37.051320009176244" lon="14.742946192869995"><ele>678.8</ele><time>2026-04-18T14:17:38.999Z</time></trkpt><trkpt lat="37.05140994535944" lon="14.74300696260691"><ele>679.5999999999999</ele><time>2026-04-18T14:17:39.999Z</time></trkpt><trkpt lat="37.05151168522491" lon="14.743070637803523"><ele>680.4000000000001</ele><time>2026-04-18T14:17:40.999Z</time></trkpt><trkpt lat="37.05161624066909" lon="14.743116385395366"><ele>681.2</ele><time>2026-04-18T14:17:41.999Z</time></trkpt><trkpt lat="37.05171238387635" lon="14.743187051550608"><ele>682.0</ele><time>2026-04-18T14:17:42.999Z</time></trkpt><trkpt lat="37.0518018962471" lon="14.74326243504191"><ele>682.0</ele><time>2026-04-18T14:17:43.999Z</time></trkpt><trkpt lat="37.051894441310644" lon="14.743326079282316"><ele>682.0</ele><time>2026-04-18T14:17:44.999Z</time></trkpt><trkpt lat="37.052003931706416" lon="14.743353730254281"><ele>682.0</ele><time>2026-04-18T14:17:45.999Z</time></trkpt><trkpt lat="37.05207429586141" lon="14.743425990939862"><ele>682.0</ele><time>2026-04-18T14:17:46.999Z</time></trkpt><trkpt lat="37.052147140898406" lon="14.74349110597263"><ele>682.0</ele><time>2026-04-18T14:17:47.999Z</time></trkpt><trkpt lat="37.052213014712294" lon="14.743572662639883"><ele>682.4000000000001</ele><time>2026-04-18T14:17:48.999Z</time></trkpt><trkpt lat="37.0522711354629" lon="14.74366891880932"><ele>682.8000000000001</ele><time>2026-04-18T14:17:49.999Z</time></trkpt><trkpt lat="37.05235061247777" lon="14.743760081742536"><ele>683.2</ele><time>2026-04-18T14:17:50.999Z</time></trkpt><trkpt lat="37.0524149719661" lon="14.74386570601946"><ele>683.6</ele><time>2026-04-18T14:17:51.999Z</time></trkpt><trkpt lat="37.052485648837866" lon="14.743962991563457"><ele>684.0</ele><time>2026-04-18T14:17:52.999Z</time></trkpt><trkpt lat="37.05256110825468" lon="14.744051189935503"><ele>684.0</ele><time>2026-04-18T14:17:53.999Z</time></trkpt><trkpt lat="37.05261182836766" lon="14.744128151656806"><ele>684.0</ele><time>2026-04-18T14:17:54.999Z</time></trkpt><trkpt lat="37.05266560398682" lon="14.744238246961595"><ele>684.0</ele><time>2026-04-18T14:17:56.999Z</time></trkpt><trkpt lat="37.05269940192405" lon="14.744326461927331"><ele>684.0</ele><time>2026-04-18T14:18:00.999Z</time></trkpt><trkpt lat="37.05277664422223" lon="14.744328530446156"><ele>684.0</ele><time>2026-04-18T14:18:02.999Z</time></trkpt><trkpt lat="37.05283653866173" lon="14.74441974753615"><ele>684.0</ele><time>2026-04-18T14:18:06.999Z</time></trkpt><trkpt lat="37.05289310199367" lon="14.744490236778145"><ele>687.0</ele><time>2026-04-18T14:18:09.999Z</time></trkpt><trkpt lat="37.052927947280274" lon="14.744606080772733"><ele>690.0</ele><time>2026-04-18T14:18:12.999Z</time></trkpt><trkpt lat="37.0530143003216" lon="14.74473528979874"><ele>693.0</ele><time>2026-04-18T14:18:14.999Z</time></trkpt><trkpt lat="37.053060624761294" lon="14.744826317399404"><ele>696.0</ele><time>2026-04-18T14:18:15.999Z</time></trkpt><trkpt lat="37.05310682696288" lon="14.744909271533729"><ele>699.0</ele><time>2026-04-18T14:18:16.999Z</time></trkpt><trkpt lat="37.05312218270983" lon="14.744988269404422"><ele>699.0</ele><time>2026-04-18T14:18:17.999Z</time></trkpt><trkpt lat="37.0531523631422" lon="14.745150882970245"><ele>699.0</ele><time>2026-04-18T14:18:19.999Z</time></trkpt><trkpt lat="37.05317263377238" lon="14.74524340023453"><ele>699.0</ele><time>2026-04-18T14:18:20.999Z</time></trkpt><trkpt lat="37.05319001221678" lon="14.745334144914745"><ele>699.0</ele><time>2026-04-18T14:18:21.999Z</time></trkpt><trkpt lat="37.053200525667926" lon="14.745428136066472"><ele>699.0</ele><time>2026-04-18T14:18:22.999Z</time></trkpt><trkpt lat="37.053193821303616" lon="14.745527516640193"><ele>699.0</ele><time>2026-04-18T14:18:23.999Z</time></trkpt><trkpt lat="37.05316807859823" lon="14.745631871742019"><ele>698.0</ele><time>2026-04-18T14:18:24.999Z</time></trkpt><trkpt lat="37.05313501680334" lon="14.74572647883913"><ele>697.0</ele><time>2026-04-18T14:18:25.999Z</time></trkpt><trkpt lat="37.053098153484605" lon="14.745818977249915"><ele>696.0</ele><time>2026-04-18T14:18:26.999Z</time></trkpt><trkpt lat="37.053062771372936" lon="14.745900955543977"><ele>695.0</ele><time>2026-04-18T14:18:27.999Z</time></trkpt><trkpt lat="37.053020947775266" lon="14.746001858368976"><ele>694.0</ele><time>2026-04-18T14:18:28.998Z</time></trkpt><trkpt lat="37.05297296528611" lon="14.746083553555978"><ele>693.0</ele><time>2026-04-18T14:18:29.998Z</time></trkpt><trkpt lat="37.05292812589895" lon="14.746146770051974"><ele>691.8333333333334</ele><time>2026-04-18T14:18:30.998Z</time></trkpt><trkpt lat="37.052884976580444" lon="14.746222179032277"><ele>690.6666666666666</ele><time>2026-04-18T14:18:31.998Z</time></trkpt><trkpt lat="37.05283016079785" lon="14.746296981618213"><ele>689.5</ele><time>2026-04-18T14:18:32.998Z</time></trkpt><trkpt lat="37.052782388387975" lon="14.74636451471278"><ele>688.3333333333333</ele><time>2026-04-18T14:18:33.998Z</time></trkpt><trkpt lat="37.05272355887495" lon="14.746477862948337"><ele>687.1666666666666</ele><time>2026-04-18T14:18:35.998Z</time></trkpt><trkpt lat="37.05273835349135" lon="14.746561307853465"><ele>686.0</ele><time>2026-04-18T14:18:36.998Z</time></trkpt><trkpt lat="37.05276052996215" lon="14.746635956408015"><ele>686.0</ele><time>2026-04-18T14:18:37.998Z</time></trkpt><trkpt lat="37.05279844046467" lon="14.746746174830843"><ele>686.0</ele><time>2026-04-18T14:18:39.998Z</time></trkpt><trkpt lat="37.05271374602334" lon="14.747002617172114"><ele>686.0</ele><time>2026-04-18T14:19:39.999Z</time></trkpt><trkpt lat="37.052689361076354" lon="14.747091931449125"><ele>686.0</ele><time>2026-04-18T14:19:40.999Z</time></trkpt><trkpt lat="37.052653415767715" lon="14.747164502180683"><ele>686.5714285714286</ele><time>2026-04-18T14:19:41.999Z</time></trkpt><trkpt lat="37.05260531280819" lon="14.747237306899194"><ele>687.1428571428571</ele><time>2026-04-18T14:19:42.999Z</time></trkpt><trkpt lat="37.052548223020345" lon="14.747278788596986"><ele>687.7142857142858</ele><time>2026-04-18T14:19:43.999Z</time></trkpt><trkpt lat="37.05247446713961" lon="14.747309798200467"><ele>688.2857142857142</ele><time>2026-04-18T14:19:44.999Z</time></trkpt><trkpt lat="37.052397827754135" lon="14.747322555180883"><ele>688.8571428571429</ele><time>2026-04-18T14:19:45.999Z</time></trkpt><trkpt lat="37.05232228259309" lon="14.747324031081213"><ele>689.4285714285714</ele><time>2026-04-18T14:19:46.999Z</time></trkpt><trkpt lat="37.05224762855174" lon="14.747336874739355"><ele>690.0</ele><time>2026-04-18T14:19:47.999Z</time></trkpt><trkpt lat="37.05217258224432" lon="14.747367046286307"><ele>690.0</ele><time>2026-04-18T14:19:48.999Z</time></trkpt><trkpt lat="37.05209213720522" lon="14.747425495972431"><ele>690.0</ele><time>2026-04-18T14:19:49.999Z</time></trkpt><trkpt lat="37.05202597622977" lon="14.74749754756921"><ele>690.0</ele><time>2026-04-18T14:19:50.999Z</time></trkpt><trkpt lat="37.05196776169486" lon="14.747573982461978"><ele>690.0</ele><time>2026-04-18T14:19:51.999Z</time></trkpt><trkpt lat="37.05192246031135" lon="14.747661323131034"><ele>690.0</ele><time>2026-04-18T14:19:52.999Z</time></trkpt><trkpt lat="37.05188766112907" lon="14.747737773639441"><ele>690.0</ele><time>2026-04-18T14:19:53.999Z</time></trkpt><trkpt lat="37.051829736310836" lon="14.747817211086042"><ele>690.2</ele><time>2026-04-18T14:19:55.999Z</time></trkpt><trkpt lat="37.05187270217695" lon="14.747954898620842"><ele>690.4</ele><time>2026-04-18T14:19:57.999Z</time></trkpt><trkpt lat="37.05194217270899" lon="14.74802910439328"><ele>690.5999999999999</ele><time>2026-04-18T14:19:58.999Z</time></trkpt><trkpt lat="37.05201769685645" lon="14.74808114965634"><ele>690.8</ele><time>2026-04-18T14:19:59.999Z</time></trkpt><trkpt lat="37.052123701805805" lon="14.748185667722659"><ele>691.0</ele><time>2026-04-18T14:20:01.999Z</time></trkpt><trkpt lat="37.05217336170141" lon="14.748240184257794"><ele>691.0</ele><time>2026-04-18T14:20:02.999Z</time></trkpt><trkpt lat="37.05221947955301" lon="14.748303592920195"><ele>691.0</ele><time>2026-04-18T14:20:03.999Z</time></trkpt><trkpt lat="37.05226073668697" lon="14.748375892929205"><ele>691.0</ele><time>2026-04-18T14:20:04.999Z</time></trkpt><trkpt lat="37.05229135488852" lon="14.748519387131495"><ele>691.0</ele><time>2026-04-18T14:20:06.999Z</time></trkpt><trkpt lat="37.052228858067636" lon="14.74864314143771"><ele>691.0</ele><time>2026-04-18T14:20:08.999Z</time></trkpt><trkpt lat="37.052190234453455" lon="14.748742299602014"><ele>689.2857142857142</ele><time>2026-04-18T14:20:09.999Z</time></trkpt><trkpt lat="37.05216213796985" lon="14.748819361255048"><ele>687.5714285714286</ele><time>2026-04-18T14:20:10.999Z</time></trkpt><trkpt lat="37.0521331481658" lon="14.748890954742635"><ele>685.8571428571429</ele><time>2026-04-18T14:20:11.999Z</time></trkpt><trkpt lat="37.05209947327298" lon="14.748969579415128"><ele>684.1428571428571</ele><time>2026-04-18T14:20:12.999Z</time></trkpt><trkpt lat="37.05206625403743" lon="14.749043638181908"><ele>682.4285714285714</ele><time>2026-04-18T14:20:13.999Z</time></trkpt><trkpt lat="37.05202844513788" lon="14.749127928762848"><ele>680.7142857142857</ele><time>2026-04-18T14:20:14.999Z</time></trkpt><trkpt lat="37.05198840394778" lon="14.74919168478605"><ele>679.0</ele><time>2026-04-18T14:20:15.999Z</time></trkpt><trkpt lat="37.051953259074295" lon="14.749334735200947"><ele>679.0</ele><time>2026-04-18T14:20:17.999Z</time></trkpt><trkpt lat="37.051975577640974" lon="14.749469130113546"><ele>679.0</ele><time>2026-04-18T14:20:19.999Z</time></trkpt><trkpt lat="37.05203889241642" lon="14.749569392567546"><ele>679.0</ele><time>2026-04-18T14:20:21.999Z</time></trkpt><trkpt lat="37.052241265582936" lon="14.749572746316684"><ele>679.0</ele><time>2026-04-18T14:20:24.999Z</time></trkpt><trkpt lat="37.0522984405777" lon="14.749533426858154"><ele>679.0</ele><time>2026-04-18T14:20:25.999Z</time></trkpt><trkpt lat="37.05234640865836" lon="14.749478546284012"><ele>679.0</ele><time>2026-04-18T14:20:26.999Z</time></trkpt><trkpt lat="37.05240652350343" lon="14.749432000076437"><ele>679.0</ele><time>2026-04-18T14:20:27.999Z</time></trkpt><trkpt lat="37.05247371176375" lon="14.749410414669796"><ele>679.0</ele><time>2026-04-18T14:20:28.999Z</time></trkpt><trkpt lat="37.052554167525805" lon="14.749349386582683"><ele>679.0</ele><time>2026-04-18T14:20:29.999Z</time></trkpt><trkpt lat="37.052647081960615" lon="14.749325575412009"><ele>679.0</ele><time>2026-04-18T14:20:30.999Z</time></trkpt><trkpt lat="37.05273894670772" lon="14.74929015925863"><ele>678.2</ele><time>2026-04-18T14:20:31.999Z</time></trkpt><trkpt lat="37.05280434568593" lon="14.749270456819907"><ele>677.4000000000001</ele><time>2026-04-18T14:20:32.999Z</time></trkpt><trkpt lat="37.0528960367547" lon="14.749273894960703"><ele>676.6</ele><time>2026-04-18T14:20:34.999Z</time></trkpt><trkpt lat="37.052961169538676" lon="14.749407899188634"><ele>675.8</ele><time>2026-04-18T14:20:36.998Z</time></trkpt><trkpt lat="37.05300183195375" lon="14.74951013296713"><ele>675.0</ele><time>2026-04-18T14:20:37.998Z</time></trkpt><trkpt lat="37.05305294910321" lon="14.74961604540569"><ele>675.0</ele><time>2026-04-18T14:20:38.998Z</time></trkpt><trkpt lat="37.0531068714726" lon="14.749722501015684"><ele>675.0</ele><time>2026-04-18T14:20:39.998Z</time></trkpt><trkpt lat="37.05316347216376" lon="14.749832994290177"><ele>675.0</ele><time>2026-04-18T14:20:40.998Z</time></trkpt><trkpt lat="37.05322608490375" lon="14.749955223657235"><ele>675.0</ele><time>2026-04-18T14:20:41.998Z</time></trkpt><trkpt lat="37.05329059988399" lon="14.750081166321701"><ele>675.0</ele><time>2026-04-18T14:20:42.998Z</time></trkpt><trkpt lat="37.05334978533991" lon="14.750196705472767"><ele>674.0</ele><time>2026-04-18T14:20:43.998Z</time></trkpt><trkpt lat="37.05340161803481" lon="14.750297890651453"><ele>673.0</ele><time>2026-04-18T14:20:44.998Z</time></trkpt><trkpt lat="37.053448719992524" lon="14.750391853233502"><ele>672.0</ele><time>2026-04-18T14:20:45.998Z</time></trkpt><trkpt lat="37.05348706269045" lon="14.750475838817474"><ele>671.0</ele><time>2026-04-18T14:20:46.998Z</time></trkpt><trkpt lat="37.05352263294248" lon="14.750559449300054"><ele>670.0</ele><time>2026-04-18T14:20:47.998Z</time></trkpt><trkpt lat="37.05355671707185" lon="14.750637464377665"><ele>669.0</ele><time>2026-04-18T14:20:48.998Z</time></trkpt><trkpt lat="37.05362502198188" lon="14.750762376356983"><ele>669.0</ele><time>2026-04-18T14:20:51Z</time></trkpt><trkpt lat="37.05370944965727" lon="14.750834197386345"><ele>669.0</ele><time>2026-04-18T14:20:53Z</time></trkpt><trkpt lat="37.053820569072386" lon="14.750782180203347"><ele>669.0</ele><time>2026-04-18T14:20:55Z</time></trkpt><trkpt lat="37.05386008394672" lon="14.750649745179143"><ele>669.0</ele><time>2026-04-18T14:20:57Z</time></trkpt><trkpt lat="37.053869203855" lon="14.750507799121609"><ele>669.0</ele><time>2026-04-18T14:20:59Z</time></trkpt><trkpt lat="37.05386517961557" lon="14.750369135038277"><ele>669.0</ele><time>2026-04-18T14:21:01Z</time></trkpt><trkpt lat="37.05383429534068" lon="14.750256208477808"><ele>669.0</ele><time>2026-04-18T14:21:03Z</time></trkpt><trkpt lat="37.053801788849384" lon="14.750109276377966"><ele>669.0</ele><time>2026-04-18T14:21:05Z</time></trkpt><trkpt lat="37.05378942733217" lon="14.75000228748473"><ele>669.0</ele><time>2026-04-18T14:21:06Z</time></trkpt><trkpt lat="37.05377495004784" lon="14.749881679546936"><ele>669.0</ele><time>2026-04-18T14:21:07Z</time></trkpt><trkpt lat="37.05378713392259" lon="14.74975128502502"><ele>667.6</ele><time>2026-04-18T14:21:08Z</time></trkpt><trkpt lat="37.053788191091925" lon="14.74962620039184"><ele>666.2</ele><time>2026-04-18T14:21:09Z</time></trkpt><trkpt lat="37.05374872678315" lon="14.749491734555223"><ele>664.8000000000001</ele><time>2026-04-18T14:21:10Z</time></trkpt><trkpt lat="37.053708600067964" lon="14.749388157807418"><ele>663.4000000000001</ele><time>2026-04-18T14:21:11Z</time></trkpt><trkpt lat="37.05368228729352" lon="14.749301075766148"><ele>662.0</ele><time>2026-04-18T14:21:12Z</time></trkpt><trkpt lat="37.05368891455443" lon="14.749152218853263"><ele>660.8</ele><time>2026-04-18T14:21:14Z</time></trkpt><trkpt lat="37.05371683366157" lon="14.749055959606292"><ele>659.6</ele><time>2026-04-18T14:21:15Z</time></trkpt><trkpt lat="37.05372277919258" lon="14.74897432238177"><ele>658.4</ele><time>2026-04-18T14:21:16Z</time></trkpt><trkpt lat="37.05366267682224" lon="14.748822866017102"><ele>657.1999999999999</ele><time>2026-04-18T14:21:18Z</time></trkpt><trkpt lat="37.0536065830202" lon="14.748735918758424"><ele>656.0</ele><time>2026-04-18T14:21:19Z</time></trkpt><trkpt lat="37.05357601248787" lon="14.748636638564355"><ele>655.6666666666666</ele><time>2026-04-18T14:21:20Z</time></trkpt><trkpt lat="37.05358400824534" lon="14.74854202073097"><ele>655.3333333333333</ele><time>2026-04-18T14:21:21Z</time></trkpt><trkpt lat="37.05358596812748" lon="14.748457313777715"><ele>655.0</ele><time>2026-04-18T14:21:22Z</time></trkpt><trkpt lat="37.05361125644826" lon="14.74837131468205"><ele>654.6666666666666</ele><time>2026-04-18T14:21:23Z</time></trkpt><trkpt lat="37.053657089186096" lon="14.748291212487063"><ele>654.3333333333334</ele><time>2026-04-18T14:21:24Z</time></trkpt><trkpt lat="37.0537128855654" lon="14.748190375870438"><ele>654.0</ele><time>2026-04-18T14:21:25Z</time></trkpt><trkpt lat="37.053766349161265" lon="14.748098119265315"><ele>654.0</ele><time>2026-04-18T14:21:26Z</time></trkpt><trkpt lat="37.053807360014375" lon="14.747998676063892"><ele>654.0</ele><time>2026-04-18T14:21:27Z</time></trkpt><trkpt lat="37.05387083821778" lon="14.747892584304532"><ele>654.0</ele><time>2026-04-18T14:21:28Z</time></trkpt><trkpt lat="37.053921190402995" lon="14.747792917431836"><ele>654.0</ele><time>2026-04-18T14:21:29Z</time></trkpt><trkpt lat="37.05398537435539" lon="14.747723630701833"><ele>654.0</ele><time>2026-04-18T14:21:30Z</time></trkpt><trkpt lat="37.054050377496075" lon="14.747663519897781"><ele>653.3333333333334</ele><time>2026-04-18T14:21:31Z</time></trkpt><trkpt lat="37.05410719623113" lon="14.747628101503398"><ele>652.6666666666666</ele><time>2026-04-18T14:21:32Z</time></trkpt><trkpt lat="37.05419910414642" lon="14.747689781224377"><ele>652.0</ele><time>2026-04-18T14:21:34Z</time></trkpt><trkpt lat="37.05424692091659" lon="14.747746382112348"><ele>651.3333333333333</ele><time>2026-04-18T14:21:35Z</time></trkpt><trkpt lat="37.054300825094536" lon="14.747825137657696"><ele>650.6666666666666</ele><time>2026-04-18T14:21:36Z</time></trkpt><trkpt lat="37.05436333487074" lon="14.747913465453351"><ele>650.0</ele><time>2026-04-18T14:21:37Z</time></trkpt><trkpt lat="37.05445489843967" lon="14.748017456985838"><ele>656.75</ele><time>2026-04-18T14:21:37.999Z</time></trkpt><trkpt lat="37.05452356277545" lon="14.748132557799895"><ele>663.5</ele><time>2026-04-18T14:21:38.999Z</time></trkpt><trkpt lat="37.05459928041558" lon="14.74824877484456"><ele>670.25</ele><time>2026-04-18T14:21:39.999Z</time></trkpt><trkpt lat="37.05468432185824" lon="14.748339078080315"><ele>677.0</ele><time>2026-04-18T14:21:40.999Z</time></trkpt><trkpt lat="37.05476960887722" lon="14.748414580260647"><ele>677.0</ele><time>2026-04-18T14:21:41.999Z</time></trkpt><trkpt lat="37.05483943316419" lon="14.748477579311706"><ele>677.0</ele><time>2026-04-18T14:21:42.999Z</time></trkpt><trkpt lat="37.054907831764346" lon="14.748521284683845"><ele>677.0</ele><time>2026-04-18T14:21:43.999Z</time></trkpt><trkpt lat="37.05497061363071" lon="14.748590660362659"><ele>677.0</ele><time>2026-04-18T14:21:44.999Z</time></trkpt><trkpt lat="37.05502318255648" lon="14.748658950037772"><ele>677.0</ele><time>2026-04-18T14:21:45.999Z</time></trkpt><trkpt lat="37.05506651780059" lon="14.748737105403093"><ele>677.0</ele><time>2026-04-18T14:21:46.999Z</time></trkpt><trkpt lat="37.05513544628061" lon="14.748767999712657"><ele>679.25</ele><time>2026-04-18T14:21:47.999Z</time></trkpt><trkpt lat="37.05517973496029" lon="14.74882803186538"><ele>681.5</ele><time>2026-04-18T14:21:48.999Z</time></trkpt><trkpt lat="37.055249184642854" lon="14.74891235109262"><ele>683.75</ele><time>2026-04-18T14:21:50.999Z</time></trkpt><trkpt lat="37.05529639850727" lon="14.748970363500135"><ele>686.0</ele><time>2026-04-18T14:21:52.999Z</time></trkpt><trkpt lat="37.05547208343578" lon="14.748782177844017"><ele>686.0</ele><time>2026-04-18T14:21:58.999Z</time></trkpt><trkpt lat="37.055447401391355" lon="14.748698992221241"><ele>686.0</ele><time>2026-04-18T14:22:00.999Z</time></trkpt><trkpt lat="37.05535848807218" lon="14.748495338438888"><ele>686.0</ele><time>2026-04-18T14:22:04.999Z</time></trkpt><trkpt lat="37.05533348858276" lon="14.748395623600565"><ele>686.0</ele><time>2026-04-18T14:22:06.999Z</time></trkpt><trkpt lat="37.0552957226218" lon="14.748305148089344"><ele>686.0</ele><time>2026-04-18T14:22:08.999Z</time></trkpt><trkpt lat="37.05526983187464" lon="14.74818526050058"><ele>683.1999999999999</ele><time>2026-04-18T14:22:10.999Z</time></trkpt><trkpt lat="37.05526363703288" lon="14.748079868765869"><ele>680.4</ele><time>2026-04-18T14:22:12.999Z</time></trkpt><trkpt lat="37.05523152875375" lon="14.747977432009169"><ele>677.6</ele><time>2026-04-18T14:22:14.999Z</time></trkpt><trkpt lat="37.05516725294766" lon="14.747943989079065"><ele>674.8</ele><time>2026-04-18T14:22:18.999Z</time></trkpt><trkpt lat="37.05512703721044" lon="14.747724297487911"><ele>672.0</ele><time>2026-04-18T14:22:37.999Z</time></trkpt><trkpt lat="37.055099888972016" lon="14.747625253061994"><ele>671.2</ele><time>2026-04-18T14:22:38.999Z</time></trkpt><trkpt lat="37.055081455156085" lon="14.74750392420533"><ele>670.4000000000001</ele><time>2026-04-18T14:22:39.999Z</time></trkpt><trkpt lat="37.05506198799376" lon="14.747391571454742"><ele>669.5999999999999</ele><time>2026-04-18T14:22:40.999Z</time></trkpt><trkpt lat="37.0550543745391" lon="14.747252498450226"><ele>668.8</ele><time>2026-04-18T14:22:41.998Z</time></trkpt><trkpt lat="37.055051822955484" lon="14.747122273968126"><ele>668.0</ele><time>2026-04-18T14:22:42.998Z</time></trkpt><trkpt lat="37.055039690869584" lon="14.747013981091346"><ele>668.0</ele><time>2026-04-18T14:22:43.998Z</time></trkpt><trkpt lat="37.055021977044724" lon="14.746913906430235"><ele>668.0</ele><time>2026-04-18T14:22:44.998Z</time></trkpt><trkpt lat="37.054998777682655" lon="14.746809866768603"><ele>668.0</ele><time>2026-04-18T14:22:45.998Z</time></trkpt><trkpt lat="37.05498468634448" lon="14.74670733845369"><ele>668.0</ele><time>2026-04-18T14:22:46.998Z</time></trkpt><trkpt lat="37.05498178250032" lon="14.746616031017878"><ele>668.0</ele><time>2026-04-18T14:22:47.998Z</time></trkpt><trkpt lat="37.05496063276466" lon="14.746523644748729"><ele>668.0</ele><time>2026-04-18T14:22:48.998Z</time></trkpt><trkpt lat="37.054978404997975" lon="14.746383294614729"><ele>668.3333333333333</ele><time>2026-04-18T14:22:50.998Z</time></trkpt><trkpt lat="37.055034094365666" lon="14.746280870264606"><ele>668.6666666666666</ele><time>2026-04-18T14:22:52.998Z</time></trkpt><trkpt lat="37.05508604505383" lon="14.7462358886017"><ele>669.0</ele><time>2026-04-18T14:22:53.998Z</time></trkpt><trkpt lat="37.05514149042194" lon="14.74618951327078"><ele>669.3333333333334</ele><time>2026-04-18T14:22:54.998Z</time></trkpt><trkpt lat="37.05522788324108" lon="14.746159292740792"><ele>669.6666666666667</ele><time>2026-04-18T14:22:55.998Z</time></trkpt><trkpt lat="37.055299840563144" lon="14.746114684579808"><ele>670.0</ele><time>2026-04-18T14:22:57Z</time></trkpt><trkpt lat="37.05538771672292" lon="14.746038842158496"><ele>670.1666666666667</ele><time>2026-04-18T14:22:58Z</time></trkpt><trkpt lat="37.05547497552266" lon="14.746008935600994"><ele>670.3333333333334</ele><time>2026-04-18T14:22:59Z</time></trkpt><trkpt lat="37.05553063268686" lon="14.745921057360764"><ele>670.5</ele><time>2026-04-18T14:23:00Z</time></trkpt><trkpt lat="37.05560314365212" lon="14.745881588008793"><ele>670.6666666666666</ele><time>2026-04-18T14:23:01Z</time></trkpt><trkpt lat="37.05567467940334" lon="14.745858581581583"><ele>670.8333333333333</ele><time>2026-04-18T14:23:02Z</time></trkpt><trkpt lat="37.0557602222785" lon="14.745889640319074"><ele>671.0</ele><time>2026-04-18T14:23:03Z</time></trkpt><trkpt lat="37.055836018696155" lon="14.745933810395023"><ele>671.0</ele><time>2026-04-18T14:23:04Z</time></trkpt><trkpt lat="37.055917239874816" lon="14.7459855254572"><ele>671.0</ele><time>2026-04-18T14:23:05Z</time></trkpt><trkpt lat="37.05599182202229" lon="14.7460178006163"><ele>671.0</ele><time>2026-04-18T14:23:06Z</time></trkpt><trkpt lat="37.05608341159236" lon="14.746047270280364"><ele>671.0</ele><time>2026-04-18T14:23:07Z</time></trkpt><trkpt lat="37.05618783452838" lon="14.746098894589824"><ele>671.0</ele><time>2026-04-18T14:23:08Z</time></trkpt><trkpt lat="37.05629235494065" lon="14.746130759715603"><ele>676.1999999999999</ele><time>2026-04-18T14:23:09Z</time></trkpt><trkpt lat="37.05637818527453" lon="14.746167578094955"><ele>681.4</ele><time>2026-04-18T14:23:10Z</time></trkpt><trkpt lat="37.056460566718464" lon="14.746191822217353"><ele>686.6</ele><time>2026-04-18T14:23:11Z</time></trkpt><trkpt lat="37.05654618732184" lon="14.746192353868006"><ele>691.8</ele><time>2026-04-18T14:23:12Z</time></trkpt><trkpt lat="37.056615059957515" lon="14.746155311897319"><ele>697.0</ele><time>2026-04-18T14:23:13Z</time></trkpt><trkpt lat="37.056733795210235" lon="14.7460720091343"><ele>693.0</ele><time>2026-04-18T14:23:15Z</time></trkpt><trkpt lat="37.056800777853276" lon="14.745966219270043"><ele>689.0</ele><time>2026-04-18T14:23:16Z</time></trkpt><trkpt lat="37.05687238896343" lon="14.745866980477894"><ele>685.0</ele><time>2026-04-18T14:23:17Z</time></trkpt><trkpt lat="37.05692267123029" lon="14.745756855850493"><ele>681.0</ele><time>2026-04-18T14:23:18Z</time></trkpt><trkpt lat="37.05694766952307" lon="14.745647746540481"><ele>677.0</ele><time>2026-04-18T14:23:19Z</time></trkpt><trkpt lat="37.05698348598076" lon="14.745547414466097"><ele>677.0</ele><time>2026-04-18T14:23:20Z</time></trkpt><trkpt lat="37.0570365275192" lon="14.745487378171434"><ele>677.0</ele><time>2026-04-18T14:23:21Z</time></trkpt><trkpt lat="37.05710294330243" lon="14.7454404676312"><ele>677.0</ele><time>2026-04-18T14:23:22Z</time></trkpt><trkpt lat="37.05717775977608" lon="14.745401253833986"><ele>677.0</ele><time>2026-04-18T14:23:23Z</time></trkpt><trkpt lat="37.057268103770305" lon="14.745369831713234"><ele>677.0</ele><time>2026-04-18T14:23:24Z</time></trkpt><trkpt lat="37.057343359452815" lon="14.745329435144553"><ele>677.0</ele><time>2026-04-18T14:23:25Z</time></trkpt><trkpt lat="37.057424904375566" lon="14.745297789170998"><ele>680.6666666666666</ele><time>2026-04-18T14:23:26Z</time></trkpt><trkpt lat="37.05750851116608" lon="14.745299275211483"><ele>684.3333333333333</ele><time>2026-04-18T14:23:27Z</time></trkpt><trkpt lat="37.05759055719921" lon="14.74532436771387"><ele>688.0</ele><time>2026-04-18T14:23:28Z</time></trkpt><trkpt lat="37.05766491933308" lon="14.745351497764798"><ele>691.6666666666666</ele><time>2026-04-18T14:23:29Z</time></trkpt><trkpt lat="37.05774436561067" lon="14.745383141706933"><ele>695.3333333333334</ele><time>2026-04-18T14:23:30Z</time></trkpt><trkpt lat="37.057824259618506" lon="14.745370462467102"><ele>699.0</ele><time>2026-04-18T14:23:31Z</time></trkpt><trkpt lat="37.057889660608204" lon="14.745336491356149"><ele>699.0</ele><time>2026-04-18T14:23:32Z</time></trkpt><trkpt lat="37.057950696914844" lon="14.745258524705315"><ele>699.0</ele><time>2026-04-18T14:23:33Z</time></trkpt><trkpt lat="37.05801308555088" lon="14.74521858340187"><ele>699.0</ele><time>2026-04-18T14:23:34Z</time></trkpt><trkpt lat="37.058080268840804" lon="14.745187780299796"><ele>699.0</ele><time>2026-04-18T14:23:35Z</time></trkpt><trkpt lat="37.05821378901893" lon="14.745224448750259"><ele>699.0</ele><time>2026-04-18T14:23:37Z</time></trkpt><trkpt lat="37.05829522656196" lon="14.74528555505828"><ele>700.0</ele><time>2026-04-18T14:23:38Z</time></trkpt><trkpt lat="37.05835602131107" lon="14.745353866337897"><ele>701.0</ele><time>2026-04-18T14:23:39Z</time></trkpt><trkpt lat="37.05843655311169" lon="14.745412148508166"><ele>702.0</ele><time>2026-04-18T14:23:40Z</time></trkpt><trkpt lat="37.058515608540056" lon="14.745438767799637"><ele>703.0</ele><time>2026-04-18T14:23:41Z</time></trkpt><trkpt lat="37.05859833387254" lon="14.745446624919106"><ele>704.0</ele><time>2026-04-18T14:23:42Z</time></trkpt><trkpt lat="37.058673376691544" lon="14.745437721176588"><ele>705.0</ele><time>2026-04-18T14:23:42.999Z</time></trkpt><trkpt lat="37.05875939221234" lon="14.745414371037347"><ele>705.0</ele><time>2026-04-18T14:23:43.999Z</time></trkpt><trkpt lat="37.058840844020686" lon="14.745377072327669"><ele>705.0</ele><time>2026-04-18T14:23:44.999Z</time></trkpt><trkpt lat="37.05891115749102" lon="14.745329692822258"><ele>705.0</ele><time>2026-04-18T14:23:45.999Z</time></trkpt><trkpt lat="37.058972992480996" lon="14.745241612335436"><ele>705.0</ele><time>2026-04-18T14:23:46.999Z</time></trkpt><trkpt lat="37.05901873786055" lon="14.745145093106299"><ele>705.0</ele><time>2026-04-18T14:23:47.999Z</time></trkpt><trkpt lat="37.05904313326934" lon="14.745064828297277"><ele>705.0</ele><time>2026-04-18T14:23:48.999Z</time></trkpt><trkpt lat="37.05907501475444" lon="14.744936098086459"><ele>701.8333333333334</ele><time>2026-04-18T14:23:50.999Z</time></trkpt><trkpt lat="37.05914949854049" lon="14.744861235595602"><ele>698.6666666666666</ele><time>2026-04-18T14:23:52.999Z</time></trkpt><trkpt lat="37.059258371324646" lon="14.7448958066839"><ele>695.5</ele><time>2026-04-18T14:23:54.999Z</time></trkpt><trkpt lat="37.059307399940515" lon="14.744950145621571"><ele>692.3333333333333</ele><time>2026-04-18T14:23:55.999Z</time></trkpt><trkpt lat="37.059362795037" lon="14.745009438062242"><ele>689.1666666666666</ele><time>2026-04-18T14:23:56.999Z</time></trkpt><trkpt lat="37.05941294755353" lon="14.745074622416487"><ele>686.0</ele><time>2026-04-18T14:23:57.999Z</time></trkpt><trkpt lat="37.05947936019176" lon="14.74515461433592"><ele>689.5</ele><time>2026-04-18T14:23:58.999Z</time></trkpt><trkpt lat="37.05955219600336" lon="14.745223105539312"><ele>693.0</ele><time>2026-04-18T14:23:59.999Z</time></trkpt><trkpt lat="37.05962660846622" lon="14.745303706600462"><ele>696.5</ele><time>2026-04-18T14:24:00.999Z</time></trkpt><trkpt lat="37.059686071003554" lon="14.745386988822608"><ele>700.0</ele><time>2026-04-18T14:24:01.999Z</time></trkpt><trkpt lat="37.059768889520136" lon="14.745457128007624"><ele>703.5</ele><time>2026-04-18T14:24:02.999Z</time></trkpt><trkpt lat="37.05981779175834" lon="14.745506950391858"><ele>707.0</ele><time>2026-04-18T14:24:03.999Z</time></trkpt><trkpt lat="37.05988757962005" lon="14.745533565528367"><ele>706.8333333333333</ele><time>2026-04-18T14:24:04.999Z</time></trkpt><trkpt lat="37.059977752465954" lon="14.745539449835638"><ele>706.6666666666666</ele><time>2026-04-18T14:24:05.999Z</time></trkpt><trkpt lat="37.060060310104134" lon="14.745541131091075"><ele>706.5</ele><time>2026-04-18T14:24:06.999Z</time></trkpt><trkpt lat="37.060123394870956" lon="14.745522080818285"><ele>706.3333333333334</ele><time>2026-04-18T14:24:07.999Z</time></trkpt><trkpt lat="37.060180274052016" lon="14.745471711487726"><ele>706.1666666666667</ele><time>2026-04-18T14:24:08.999Z</time></trkpt><trkpt lat="37.06023075211414" lon="14.745398315049487"><ele>706.0</ele><time>2026-04-18T14:24:09.999Z</time></trkpt><trkpt lat="37.06027226489233" lon="14.745329530187822"><ele>706.0</ele><time>2026-04-18T14:24:10.999Z</time></trkpt><trkpt lat="37.06031009054734" lon="14.745264056736168"><ele>706.0</ele><time>2026-04-18T14:24:11.999Z</time></trkpt><trkpt lat="37.0603285739287" lon="14.745150022629272"><ele>706.0</ele><time>2026-04-18T14:24:12.999Z</time></trkpt><trkpt lat="37.06032151769413" lon="14.745056927168442"><ele>706.0</ele><time>2026-04-18T14:24:13.999Z</time></trkpt><trkpt lat="37.06029566833182" lon="14.744969615597144"><ele>706.0</ele><time>2026-04-18T14:24:14.999Z</time></trkpt><trkpt lat="37.06026940492399" lon="14.744889311543158"><ele>706.0</ele><time>2026-04-18T14:24:15.999Z</time></trkpt><trkpt lat="37.06022966400274" lon="14.74479272752878"><ele>703.0</ele><time>2026-04-18T14:24:16.999Z</time></trkpt><trkpt lat="37.06017653154035" lon="14.744713439589704"><ele>700.0</ele><time>2026-04-18T14:24:17.999Z</time></trkpt><trkpt lat="37.06015934337881" lon="14.744629565477904"><ele>697.0</ele><time>2026-04-18T14:24:18.999Z</time></trkpt><trkpt lat="37.06015212589757" lon="14.74454177863878"><ele>694.0</ele><time>2026-04-18T14:24:19.999Z</time></trkpt><trkpt lat="37.060157107272914" lon="14.744443141705972"><ele>691.0</ele><time>2026-04-18T14:24:20.999Z</time></trkpt><trkpt lat="37.06017049916108" lon="14.744361762467777"><ele>688.0</ele><time>2026-04-18T14:24:21.999Z</time></trkpt><trkpt lat="37.06019792101008" lon="14.744290238711319"><ele>685.0</ele><time>2026-04-18T14:24:22.999Z</time></trkpt><trkpt lat="37.060310461995265" lon="14.744216758275071"><ele>682.3333333333334</ele><time>2026-04-18T14:24:24.999Z</time></trkpt><trkpt lat="37.06037412642404" lon="14.744190778262213"><ele>679.6666666666667</ele><time>2026-04-18T14:24:25.999Z</time></trkpt><trkpt lat="37.06044062152998" lon="14.744148221349585"><ele>677.0</ele><time>2026-04-18T14:24:26.999Z</time></trkpt><trkpt lat="37.06051234087253" lon="14.744122547214566"><ele>674.3333333333334</ele><time>2026-04-18T14:24:27.999Z</time></trkpt><trkpt lat="37.06060623736564" lon="14.744103003819697"><ele>671.6666666666666</ele><time>2026-04-18T14:24:28.999Z</time></trkpt><trkpt lat="37.06069951906405" lon="14.744084886314722"><ele>669.0</ele><time>2026-04-18T14:24:29.999Z</time></trkpt><trkpt lat="37.060776879249545" lon="14.744064359884298"><ele>672.8333333333334</ele><time>2026-04-18T14:24:30.999Z</time></trkpt><trkpt lat="37.06084085956596" lon="14.744026728856523"><ele>676.6666666666666</ele><time>2026-04-18T14:24:31.999Z</time></trkpt><trkpt lat="37.060894174017896" lon="14.74397800146449"><ele>680.5</ele><time>2026-04-18T14:24:32.999Z</time></trkpt><trkpt lat="37.06093516113566" lon="14.743879819817739"><ele>684.3333333333333</ele><time>2026-04-18T14:24:33.999Z</time></trkpt><trkpt lat="37.0609946981383" lon="14.743800710925663"><ele>688.1666666666666</ele><time>2026-04-18T14:24:34.999Z</time></trkpt><trkpt lat="37.06104110169856" lon="14.743738173893494"><ele>692.0</ele><time>2026-04-18T14:24:35.999Z</time></trkpt><trkpt lat="37.0611420567573" lon="14.743694315193745"><ele>692.0</ele><time>2026-04-18T14:24:37.999Z</time></trkpt><trkpt lat="37.061265187048704" lon="14.743715210377971"><ele>692.0</ele><time>2026-04-18T14:24:39.999Z</time></trkpt><trkpt lat="37.061329130981036" lon="14.743770995810891"><ele>692.0</ele><time>2026-04-18T14:24:40.999Z</time></trkpt><trkpt lat="37.06138494581228" lon="14.743828993554688"><ele>692.0</ele><time>2026-04-18T14:24:41.999Z</time></trkpt><trkpt lat="37.06143194565648" lon="14.743889803833262"><ele>692.0</ele><time>2026-04-18T14:24:42.999Z</time></trkpt><trkpt lat="37.061482735291754" lon="14.743964761422445"><ele>692.0</ele><time>2026-04-18T14:24:43.999Z</time></trkpt><trkpt lat="37.06153691837922" lon="14.744020507393909"><ele>692.0</ele><time>2026-04-18T14:24:44.999Z</time></trkpt><trkpt lat="37.061569093761285" lon="14.744089259062441"><ele>692.0</ele><time>2026-04-18T14:24:45.999Z</time></trkpt><trkpt lat="37.061624995149714" lon="14.744126898858903"><ele>692.0</ele><time>2026-04-18T14:24:46.998Z</time></trkpt><trkpt lat="37.06167696935414" lon="14.744187647674345"><ele>692.0</ele><time>2026-04-18T14:24:47.998Z</time></trkpt><trkpt lat="37.06172988275346" lon="14.74425250484787"><ele>692.0</ele><time>2026-04-18T14:24:48.998Z</time></trkpt><trkpt lat="37.06179497952916" lon="14.744318276157541"><ele>692.0</ele><time>2026-04-18T14:24:49.998Z</time></trkpt><trkpt lat="37.06185875730433" lon="14.744370735696604"><ele>692.0</ele><time>2026-04-18T14:24:50.998Z</time></trkpt><trkpt lat="37.0619118591674" lon="14.744415047782011"><ele>692.6</ele><time>2026-04-18T14:24:51.998Z</time></trkpt><trkpt lat="37.06200516579842" lon="14.74442872440619"><ele>693.2</ele><time>2026-04-18T14:24:53.998Z</time></trkpt><trkpt lat="37.06211037891379" lon="14.744344155922622"><ele>693.8</ele><time>2026-04-18T14:24:55.998Z</time></trkpt><trkpt lat="37.06215573842829" lon="14.744276496654827"><ele>694.4</ele><time>2026-04-18T14:24:56.998Z</time></trkpt><trkpt lat="37.06219672413675" lon="14.74417928101115"><ele>695.0</ele><time>2026-04-18T14:24:57.998Z</time></trkpt><trkpt lat="37.06222214522781" lon="14.744069190677365"><ele>695.0</ele><time>2026-04-18T14:24:58.998Z</time></trkpt><trkpt lat="37.06225154872009" lon="14.743960786870334"><ele>695.0</ele><time>2026-04-18T14:24:59.998Z</time></trkpt><trkpt lat="37.06227147971846" lon="14.743846530555409"><ele>695.0</ele><time>2026-04-18T14:25:00.998Z</time></trkpt><trkpt lat="37.06229045153798" lon="14.743756114902832"><ele>695.0</ele><time>2026-04-18T14:25:01.998Z</time></trkpt><trkpt lat="37.06229393254947" lon="14.743662893804757"><ele>695.0</ele><time>2026-04-18T14:25:03Z</time></trkpt><trkpt lat="37.06236185035856" lon="14.743570202189645"><ele>695.0</ele><time>2026-04-18T14:25:05Z</time></trkpt><trkpt lat="37.06246588565924" lon="14.743581596788962"><ele>695.0</ele><time>2026-04-18T14:25:07Z</time></trkpt><trkpt lat="37.062520444819796" lon="14.743635931093616"><ele>695.0</ele><time>2026-04-18T14:25:08Z</time></trkpt><trkpt lat="37.06256331399793" lon="14.743718983995532"><ele>695.0</ele><time>2026-04-18T14:25:09Z</time></trkpt><trkpt lat="37.06263870294729" lon="14.743865827043516"><ele>695.0</ele><time>2026-04-18T14:25:11Z</time></trkpt><trkpt lat="37.06268342905821" lon="14.743924425584964"><ele>695.0</ele><time>2026-04-18T14:25:12Z</time></trkpt><trkpt lat="37.06280799686719" lon="14.744000861266116"><ele>695.0</ele><time>2026-04-18T14:25:14Z</time></trkpt><trkpt lat="37.06289000872268" lon="14.744011377332404"><ele>695.0</ele><time>2026-04-18T14:25:15Z</time></trkpt><trkpt lat="37.06301481824762" lon="14.743954960896135"><ele>695.0</ele><time>2026-04-18T14:25:17Z</time></trkpt><trkpt lat="37.063088128932314" lon="14.743920873212405"><ele>695.0</ele><time>2026-04-18T14:25:18Z</time></trkpt><trkpt lat="37.06317045847831" lon="14.7438945853495"><ele>695.0</ele><time>2026-04-18T14:25:19Z</time></trkpt><trkpt lat="37.0632352094909" lon="14.74385557323406"><ele>694.3333333333333</ele><time>2026-04-18T14:25:20Z</time></trkpt><trkpt lat="37.0633357675789" lon="14.743812695767067"><ele>693.6666666666666</ele><time>2026-04-18T14:25:22Z</time></trkpt><trkpt lat="37.06340233592925" lon="14.743809312109972"><ele>693.0</ele><time>2026-04-18T14:25:23Z</time></trkpt><trkpt lat="37.06350326085253" lon="14.743861672229931"><ele>692.3333333333334</ele><time>2026-04-18T14:25:25Z</time></trkpt><trkpt lat="37.06353933109718" lon="14.743933325252923"><ele>691.6666666666667</ele><time>2026-04-18T14:25:26Z</time></trkpt><trkpt lat="37.063559371999375" lon="14.744022760982817"><ele>691.0</ele><time>2026-04-18T14:25:27Z</time></trkpt><trkpt lat="37.063574468746424" lon="14.744115961603484"><ele>690.9999999999999</ele><time>2026-04-18T14:25:28Z</time></trkpt><trkpt lat="37.063601974635944" lon="14.74420291391817"><ele>691.0</ele><time>2026-04-18T14:25:29Z</time></trkpt><trkpt lat="37.063649433354776" lon="14.744265711396185"><ele>691.0</ele><time>2026-04-18T14:25:30Z</time></trkpt><trkpt lat="37.06370380298978" lon="14.744310126502885"><ele>691.0</ele><time>2026-04-18T14:25:31Z</time></trkpt><trkpt lat="37.063790806365446" lon="14.74430162985372"><ele>691.0</ele><time>2026-04-18T14:25:32Z</time></trkpt><trkpt lat="37.06385867603033" lon="14.744301244203413"><ele>690.9999999999999</ele><time>2026-04-18T14:25:33Z</time></trkpt><trkpt lat="37.0639260964824" lon="14.744294438191144"><ele>691.0</ele><time>2026-04-18T14:25:34Z</time></trkpt><trkpt lat="37.06398852680338" lon="14.744248997212658"><ele>691.0</ele><time>2026-04-18T14:25:35Z</time></trkpt><trkpt lat="37.06410261224241" lon="14.74423830344782"><ele>691.0</ele><time>2026-04-18T14:25:36Z</time></trkpt><trkpt lat="37.06419429644687" lon="14.744219337707854"><ele>691.0</ele><time>2026-04-18T14:25:37Z</time></trkpt><trkpt lat="37.06426308219415" lon="14.744209758173303"><ele>691.0</ele><time>2026-04-18T14:25:38Z</time></trkpt><trkpt lat="37.06437008520157" lon="14.744290766289875"><ele>691.0</ele><time>2026-04-18T14:25:40Z</time></trkpt><trkpt lat="37.06440026468507" lon="14.744382814783997"><ele>691.1666666666667</ele><time>2026-04-18T14:25:41Z</time></trkpt><trkpt lat="37.06441747325943" lon="14.744474704943746"><ele>691.3333333333334</ele><time>2026-04-18T14:25:42Z</time></trkpt><trkpt lat="37.064413862287914" lon="14.744567188698634"><ele>691.5</ele><time>2026-04-18T14:25:43Z</time></trkpt><trkpt lat="37.06439557179811" lon="14.744652634020737"><ele>691.6666666666666</ele><time>2026-04-18T14:25:44Z</time></trkpt><trkpt lat="37.06436801125668" lon="14.744741230782598"><ele>691.8333333333333</ele><time>2026-04-18T14:25:45Z</time></trkpt><trkpt lat="37.064342342156465" lon="14.744823775894014"><ele>692.0</ele><time>2026-04-18T14:25:46Z</time></trkpt><trkpt lat="37.06427953158497" lon="14.744899079595537"><ele>692.0</ele><time>2026-04-18T14:25:47Z</time></trkpt><trkpt lat="37.06423433602712" lon="14.74499754184185"><ele>692.0</ele><time>2026-04-18T14:25:48Z</time></trkpt><trkpt lat="37.06420120110109" lon="14.745086958502522"><ele>692.0</ele><time>2026-04-18T14:25:49Z</time></trkpt><trkpt lat="37.064174905032814" lon="14.745177850583008"><ele>692.0</ele><time>2026-04-18T14:25:49.999Z</time></trkpt><trkpt lat="37.0641481164653" lon="14.745312733662987"><ele>692.0</ele><time>2026-04-18T14:25:51.999Z</time></trkpt><trkpt lat="37.06418554506388" lon="14.745392982677947"><ele>692.0</ele><time>2026-04-18T14:25:53.999Z</time></trkpt><trkpt lat="37.06427292281891" lon="14.7454362879514"><ele>694.5</ele><time>2026-04-18T14:25:55.999Z</time></trkpt><trkpt lat="37.064358088173776" lon="14.745449742479082"><ele>697.0</ele><time>2026-04-18T14:25:56.999Z</time></trkpt><trkpt lat="37.0644634108021" lon="14.745457458938906"><ele>699.5</ele><time>2026-04-18T14:25:57.999Z</time></trkpt><trkpt lat="37.0645596861428" lon="14.745463823813013"><ele>702.0</ele><time>2026-04-18T14:25:58.999Z</time></trkpt><trkpt lat="37.06463398709615" lon="14.74544596610917"><ele>704.5</ele><time>2026-04-18T14:25:59.999Z</time></trkpt><trkpt lat="37.064705510533074" lon="14.745415301061977"><ele>707.0</ele><time>2026-04-18T14:26:00.999Z</time></trkpt><trkpt lat="37.06477441476498" lon="14.745392877847427"><ele>707.0</ele><time>2026-04-18T14:26:01.999Z</time></trkpt><trkpt lat="37.06485382058669" lon="14.745369632778626"><ele>707.0</ele><time>2026-04-18T14:26:02.999Z</time></trkpt><trkpt lat="37.064934212770275" lon="14.745359619613327"><ele>707.0</ele><time>2026-04-18T14:26:03.999Z</time></trkpt><trkpt lat="37.06501300961343" lon="14.745391223486935"><ele>707.0</ele><time>2026-04-18T14:26:04.999Z</time></trkpt><trkpt lat="37.0650888211377" lon="14.745431756806013"><ele>707.0</ele><time>2026-04-18T14:26:05.999Z</time></trkpt><trkpt lat="37.06517972795474" lon="14.74549187097816"><ele>707.0</ele><time>2026-04-18T14:26:06.999Z</time></trkpt><trkpt lat="37.06524996318114" lon="14.745546149163319"><ele>705.8333333333333</ele><time>2026-04-18T14:26:07.999Z</time></trkpt><trkpt lat="37.06531098227745" lon="14.745611789312155"><ele>704.6666666666666</ele><time>2026-04-18T14:26:08.999Z</time></trkpt><trkpt lat="37.065359231023585" lon="14.74568961345497"><ele>703.5</ele><time>2026-04-18T14:26:09.999Z</time></trkpt><trkpt lat="37.06540719480064" lon="14.745775378641094"><ele>702.3333333333334</ele><time>2026-04-18T14:26:10.999Z</time></trkpt><trkpt lat="37.06545744429608" lon="14.74587241855963"><ele>701.1666666666667</ele><time>2026-04-18T14:26:11.999Z</time></trkpt><trkpt lat="37.0655022396229" lon="14.745974594360716"><ele>700.0</ele><time>2026-04-18T14:26:12.999Z</time></trkpt><trkpt lat="37.06553760604887" lon="14.746076158242936"><ele>700.0</ele><time>2026-04-18T14:26:13.999Z</time></trkpt><trkpt lat="37.065572650003716" lon="14.746161353520352"><ele>700.0</ele><time>2026-04-18T14:26:14.999Z</time></trkpt><trkpt lat="37.065591284275214" lon="14.746246736982473"><ele>700.0</ele><time>2026-04-18T14:26:15.999Z</time></trkpt><trkpt lat="37.065600883319625" lon="14.746334081002145"><ele>700.0</ele><time>2026-04-18T14:26:16.999Z</time></trkpt><trkpt lat="37.06558314234081" lon="14.746424990771205"><ele>700.0</ele><time>2026-04-18T14:26:17.999Z</time></trkpt><trkpt lat="37.06554581095015" lon="14.746521805327108"><ele>700.0</ele><time>2026-04-18T14:26:18.999Z</time></trkpt><trkpt lat="37.065523005991395" lon="14.746604149996749"><ele>700.0</ele><time>2026-04-18T14:26:19.999Z</time></trkpt><trkpt lat="37.0655255904677" lon="14.746762400664725"><ele>698.6</ele><time>2026-04-18T14:26:21.999Z</time></trkpt><trkpt lat="37.06562085999382" lon="14.746883410727492"><ele>697.2</ele><time>2026-04-18T14:26:23.999Z</time></trkpt><trkpt lat="37.06571817079647" lon="14.746974328878965"><ele>695.8</ele><time>2026-04-18T14:26:25.999Z</time></trkpt><trkpt lat="37.06580289516642" lon="14.746997496220743"><ele>694.4</ele><time>2026-04-18T14:26:26.999Z</time></trkpt><trkpt lat="37.065876373742775" lon="14.747014312461417"><ele>693.0</ele><time>2026-04-18T14:26:27.999Z</time></trkpt><trkpt lat="37.06595383548721" lon="14.746996667123753"><ele>693.0</ele><time>2026-04-18T14:26:28.999Z</time></trkpt><trkpt lat="37.06605678781973" lon="14.74698920854122"><ele>693.0</ele><time>2026-04-18T14:26:29.999Z</time></trkpt><trkpt lat="37.06613668518063" lon="14.746941803609708"><ele>693.0</ele><time>2026-04-18T14:26:30.999Z</time></trkpt><trkpt lat="37.06621697357618" lon="14.746893017744874"><ele>693.0</ele><time>2026-04-18T14:26:31.999Z</time></trkpt><trkpt lat="37.066297701897646" lon="14.746859072131977"><ele>693.0</ele><time>2026-04-18T14:26:32.999Z</time></trkpt><trkpt lat="37.066361416065114" lon="14.746849686955981"><ele>693.0</ele><time>2026-04-18T14:26:33.999Z</time></trkpt><trkpt lat="37.06643485367261" lon="14.746862932830876"><ele>691.25</ele><time>2026-04-18T14:26:34.999Z</time></trkpt><trkpt lat="37.06665774563116" lon="14.747004143312783"><ele>689.5</ele><time>2026-04-18T14:26:38.999Z</time></trkpt><trkpt lat="37.06669152673678" lon="14.74709582967859"><ele>687.75</ele><time>2026-04-18T14:26:39.999Z</time></trkpt><trkpt lat="37.06672854933682" lon="14.747187551079652"><ele>686.0</ele><time>2026-04-18T14:26:40.999Z</time></trkpt><trkpt lat="37.06677617049236" lon="14.7473047149718"><ele>686.0</ele><time>2026-04-18T14:26:41.999Z</time></trkpt><trkpt lat="37.06682059774115" lon="14.747414534054053"><ele>686.0</ele><time>2026-04-18T14:26:42.999Z</time></trkpt><trkpt lat="37.06685331035859" lon="14.747523557442365"><ele>686.0</ele><time>2026-04-18T14:26:43.999Z</time></trkpt><trkpt lat="37.0668890586848" lon="14.747630359458581"><ele>686.0</ele><time>2026-04-18T14:26:44.999Z</time></trkpt><trkpt lat="37.06693718389165" lon="14.747732356628761"><ele>686.0</ele><time>2026-04-18T14:26:45.999Z</time></trkpt><trkpt lat="37.067007616247466" lon="14.747832732270968"><ele>687.6666666666666</ele><time>2026-04-18T14:26:46.999Z</time></trkpt><trkpt lat="37.067072212235615" lon="14.747913665777999"><ele>689.3333333333333</ele><time>2026-04-18T14:26:47.999Z</time></trkpt><trkpt lat="37.06712912652315" lon="14.747972627754427"><ele>691.0</ele><time>2026-04-18T14:26:48.999Z</time></trkpt><trkpt lat="37.06716807561774" lon="14.748042066943851"><ele>692.6666666666666</ele><time>2026-04-18T14:26:49.999Z</time></trkpt><trkpt lat="37.06722819191389" lon="14.748089271424499"><ele>694.3333333333334</ele><time>2026-04-18T14:26:50.999Z</time></trkpt><trkpt lat="37.06731737741332" lon="14.74808982065999"><ele>696.0</ele><time>2026-04-18T14:26:51.999Z</time></trkpt><trkpt lat="37.06743094035404" lon="14.748100511977288"><ele>692.75</ele><time>2026-04-18T14:26:52.999Z</time></trkpt><trkpt lat="37.067511475185434" lon="14.748106269143575"><ele>689.5</ele><time>2026-04-18T14:26:53.998Z</time></trkpt><trkpt lat="37.06760939347166" lon="14.748069264041176"><ele>686.25</ele><time>2026-04-18T14:26:54.998Z</time></trkpt><trkpt lat="37.06775551304639" lon="14.748020825213748"><ele>683.0</ele><time>2026-04-18T14:26:55.998Z</time></trkpt><trkpt lat="37.06788817598201" lon="14.747954145620866"><ele>683.0</ele><time>2026-04-18T14:26:56.998Z</time></trkpt><trkpt lat="37.06800191051753" lon="14.747879889070886"><ele>683.0</ele><time>2026-04-18T14:26:57.998Z</time></trkpt><trkpt lat="37.068097707207386" lon="14.747795172850864"><ele>683.0</ele><time>2026-04-18T14:26:58.998Z</time></trkpt><trkpt lat="37.06818395791215" lon="14.74770506942085"><ele>683.0</ele><time>2026-04-18T14:26:59.998Z</time></trkpt><trkpt lat="37.0682615449787" lon="14.747609373101144"><ele>681.6666666666666</ele><time>2026-04-18T14:27:00.998Z</time></trkpt><trkpt lat="37.068327303056535" lon="14.747532046800174"><ele>680.3333333333333</ele><time>2026-04-18T14:27:01.998Z</time></trkpt><trkpt lat="37.06837816130275" lon="14.747445329047398"><ele>679.0</ele><time>2026-04-18T14:27:02.998Z</time></trkpt><trkpt lat="37.0684273728383" lon="14.747386020710369"><ele>677.6666666666666</ele><time>2026-04-18T14:27:03.998Z</time></trkpt><trkpt lat="37.06853321461233" lon="14.747336504450033"><ele>676.3333333333334</ele><time>2026-04-18T14:27:05.998Z</time></trkpt><trkpt lat="37.06859958377238" lon="14.747363476034106"><ele>675.0</ele><time>2026-04-18T14:27:06.998Z</time></trkpt><trkpt lat="37.06866532633679" lon="14.747408090933515"><ele>675.0</ele><time>2026-04-18T14:27:07.998Z</time></trkpt><trkpt lat="37.06871747235252" lon="14.74749363026533"><ele>675.0</ele><time>2026-04-18T14:27:09Z</time></trkpt><trkpt lat="37.0687725323061" lon="14.747570993299258"><ele>675.0</ele><time>2026-04-18T14:27:10Z</time></trkpt><trkpt lat="37.06882458318045" lon="14.747703245675584"><ele>675.0</ele><time>2026-04-18T14:27:11Z</time></trkpt><trkpt lat="37.06888070642074" lon="14.747842087984017"><ele>675.0</ele><time>2026-04-18T14:27:12Z</time></trkpt><trkpt lat="37.068953003880836" lon="14.747944430941732"><ele>674.2</ele><time>2026-04-18T14:27:13Z</time></trkpt><trkpt lat="37.06901191898578" lon="14.748042897839564"><ele>673.4</ele><time>2026-04-18T14:27:14Z</time></trkpt><trkpt lat="37.0690618759195" lon="14.748131567769763"><ele>672.5999999999999</ele><time>2026-04-18T14:27:15Z</time></trkpt><trkpt lat="37.06912165301619" lon="14.748246595861469"><ele>671.8</ele><time>2026-04-18T14:27:16Z</time></trkpt><trkpt lat="37.06917623664799" lon="14.748364125806814"><ele>671.0</ele><time>2026-04-18T14:27:17Z</time></trkpt><trkpt lat="37.069199537288185" lon="14.748473089893032"><ele>671.8333333333333</ele><time>2026-04-18T14:27:18Z</time></trkpt><trkpt lat="37.06919773344399" lon="14.748572067672841"><ele>672.6666666666666</ele><time>2026-04-18T14:27:19Z</time></trkpt><trkpt lat="37.069189432855424" lon="14.748663017111054"><ele>673.5</ele><time>2026-04-18T14:27:20Z</time></trkpt><trkpt lat="37.06918231178009" lon="14.748757343996115"><ele>674.3333333333334</ele><time>2026-04-18T14:27:21Z</time></trkpt><trkpt lat="37.06916553537843" lon="14.748852587230399"><ele>675.1666666666667</ele><time>2026-04-18T14:27:22Z</time></trkpt><trkpt lat="37.06915225297656" lon="14.749012228826464"><ele>676.0</ele><time>2026-04-18T14:27:24Z</time></trkpt><trkpt lat="37.0691632063166" lon="14.749090718470057"><ele>676.0</ele><time>2026-04-18T14:27:25Z</time></trkpt><trkpt lat="37.06917186219118" lon="14.74917084928018"><ele>676.0</ele><time>2026-04-18T14:27:26Z</time></trkpt><trkpt lat="37.06925533618145" lon="14.749260917597823"><ele>676.0</ele><time>2026-04-18T14:27:28Z</time></trkpt><trkpt lat="37.06930912268523" lon="14.7493079602516"><ele>676.0</ele><time>2026-04-18T14:27:29Z</time></trkpt><trkpt lat="37.069403563708704" lon="14.749350580318348"><ele>676.0</ele><time>2026-04-18T14:27:30Z</time></trkpt><trkpt lat="37.06948788980149" lon="14.749357082647347"><ele>676.0</ele><time>2026-04-18T14:27:31Z</time></trkpt><trkpt lat="37.069577351894594" lon="14.74937336522001"><ele>676.8</ele><time>2026-04-18T14:27:32Z</time></trkpt><trkpt lat="37.06964932751761" lon="14.749393645569924"><ele>677.5999999999999</ele><time>2026-04-18T14:27:33Z</time></trkpt><trkpt lat="37.0697107280495" lon="14.749418497668229"><ele>678.4</ele><time>2026-04-18T14:27:34Z</time></trkpt><trkpt lat="37.069778090795644" lon="14.749457764335041"><ele>679.2</ele><time>2026-04-18T14:27:35Z</time></trkpt><trkpt lat="37.06984327486598" lon="14.749483780602947"><ele>680.0</ele><time>2026-04-18T14:27:36Z</time></trkpt><trkpt lat="37.07001393868474" lon="14.749448468771336"><ele>680.0</ele><time>2026-04-18T14:27:38Z</time></trkpt><trkpt lat="37.07008528050847" lon="14.749420595770799"><ele>680.0</ele><time>2026-04-18T14:27:39Z</time></trkpt><trkpt lat="37.07018187785531" lon="14.749338827444374"><ele>680.0</ele><time>2026-04-18T14:27:40Z</time></trkpt><trkpt lat="37.07026160789001" lon="14.74929242408484"><ele>680.0</ele><time>2026-04-18T14:27:41Z</time></trkpt><trkpt lat="37.070328897989576" lon="14.749195481770926"><ele>680.0</ele><time>2026-04-18T14:27:42Z</time></trkpt><trkpt lat="37.0703901088814" lon="14.74913769532038"><ele>680.0</ele><time>2026-04-18T14:27:43Z</time></trkpt><trkpt lat="37.07049728980123" lon="14.749070157439435"><ele>680.0</ele><time>2026-04-18T14:27:45Z</time></trkpt><trkpt lat="37.07059875253407" lon="14.749070821731912"><ele>680.0</ele><time>2026-04-18T14:27:47Z</time></trkpt><trkpt lat="37.070651388422455" lon="14.74914443556491"><ele>680.0</ele><time>2026-04-18T14:27:49Z</time></trkpt><trkpt lat="37.070650672571034" lon="14.74922641423321"><ele>680.0</ele><time>2026-04-18T14:27:52Z</time></trkpt><trkpt lat="37.070677016104476" lon="14.749428087851324"><ele>680.0</ele><time>2026-04-18T14:28:36.999Z</time></trkpt><trkpt lat="37.07074346804462" lon="14.749537560088504"><ele>680.0</ele><time>2026-04-18T14:28:37.999Z</time></trkpt><trkpt lat="37.07079511498255" lon="14.749622349536253"><ele>680.0</ele><time>2026-04-18T14:28:38.999Z</time></trkpt><trkpt lat="37.07086284977273" lon="14.74970703226392"><ele>680.0</ele><time>2026-04-18T14:28:39.999Z</time></trkpt><trkpt lat="37.07092536050267" lon="14.749776025413036"><ele>680.0</ele><time>2026-04-18T14:28:40.999Z</time></trkpt><trkpt lat="37.0709870008722" lon="14.74983372966502"><ele>680.4</ele><time>2026-04-18T14:28:41.999Z</time></trkpt><trkpt lat="37.071043708978976" lon="14.74986994688892"><ele>680.8</ele><time>2026-04-18T14:28:42.999Z</time></trkpt><trkpt lat="37.07107064354768" lon="14.75004035972914"><ele>681.2</ele><time>2026-04-18T14:28:44.999Z</time></trkpt><trkpt lat="37.07106649037269" lon="14.750141621302951"><ele>681.6</ele><time>2026-04-18T14:28:45.999Z</time></trkpt><trkpt lat="37.0710593671691" lon="14.750259772446327"><ele>682.0</ele><time>2026-04-18T14:28:46.999Z</time></trkpt><trkpt lat="37.07105907207708" lon="14.75037215652534"><ele>682.0</ele><time>2026-04-18T14:28:47.999Z</time></trkpt><trkpt lat="37.07106554582449" lon="14.750466877292894"><ele>682.0</ele><time>2026-04-18T14:28:48.999Z</time></trkpt><trkpt lat="37.07108805006889" lon="14.750561943166494"><ele>682.0</ele><time>2026-04-18T14:28:49.999Z</time></trkpt><trkpt lat="37.07113559868423" lon="14.750639126296718"><ele>682.0</ele><time>2026-04-18T14:28:50.999Z</time></trkpt><trkpt lat="37.071234143102515" lon="14.75071486635969"><ele>682.0</ele><time>2026-04-18T14:28:51.999Z</time></trkpt><trkpt lat="37.07133591982697" lon="14.750752738391565"><ele>682.0</ele><time>2026-04-18T14:28:52.999Z</time></trkpt><trkpt lat="37.07142936534044" lon="14.750798178749264"><ele>682.0</ele><time>2026-04-18T14:28:53.999Z</time></trkpt><trkpt lat="37.071527899238795" lon="14.75084484867396"><ele>682.0</ele><time>2026-04-18T14:28:54.999Z</time></trkpt><trkpt lat="37.071613897400454" lon="14.75089916321321"><ele>682.0</ele><time>2026-04-18T14:28:55.999Z</time></trkpt><trkpt lat="37.07169459509297" lon="14.75093707981395"><ele>682.0</ele><time>2026-04-18T14:28:56.999Z</time></trkpt><trkpt lat="37.071772907288505" lon="14.750954626468504"><ele>681.6666666666667</ele><time>2026-04-18T14:28:57.998Z</time></trkpt><trkpt lat="37.07184404951748" lon="14.750952057164726"><ele>681.3333333333334</ele><time>2026-04-18T14:28:58.998Z</time></trkpt><trkpt lat="37.07192440394007" lon="14.75093511736241"><ele>681.0</ele><time>2026-04-18T14:28:59.998Z</time></trkpt><trkpt lat="37.07200439061128" lon="14.75089142833974"><ele>680.6666666666666</ele><time>2026-04-18T14:29:00.998Z</time></trkpt><trkpt lat="37.07207709180843" lon="14.750909936287"><ele>680.3333333333333</ele><time>2026-04-18T14:29:01.998Z</time></trkpt><trkpt lat="37.07214743994156" lon="14.750949335109935"><ele>680.0</ele><time>2026-04-18T14:29:02.998Z</time></trkpt><trkpt lat="37.0722169099987" lon="14.751088819672677"><ele>680.0</ele><time>2026-04-18T14:29:04.998Z</time></trkpt><trkpt lat="37.072209226423105" lon="14.751177316214482"><ele>680.0</ele><time>2026-04-18T14:29:05.998Z</time></trkpt><trkpt lat="37.072176319137796" lon="14.751317397842136"><ele>680.0</ele><time>2026-04-18T14:29:07.998Z</time></trkpt><trkpt lat="37.07214548189567" lon="14.751418956044215"><ele>680.0</ele><time>2026-04-18T14:29:08.998Z</time></trkpt><trkpt lat="37.072141753468394" lon="14.751505595962058"><ele>680.0</ele><time>2026-04-18T14:29:09.998Z</time></trkpt><trkpt lat="37.072150960611296" lon="14.751617928394849"><ele>680.0</ele><time>2026-04-18T14:29:10.998Z</time></trkpt><trkpt lat="37.072179812626366" lon="14.751692874836282"><ele>680.0</ele><time>2026-04-18T14:29:11.998Z</time></trkpt><trkpt lat="37.072228290822785" lon="14.751764578172892"><ele>680.0</ele><time>2026-04-18T14:29:12.998Z</time></trkpt><trkpt lat="37.072286042658966" lon="14.751851636973253"><ele>680.0</ele><time>2026-04-18T14:29:13.998Z</time></trkpt><trkpt lat="37.07238897071187" lon="14.751920100326853"><ele>680.0</ele><time>2026-04-18T14:29:15Z</time></trkpt><trkpt lat="37.07244480825327" lon="14.751957874496561"><ele>680.0</ele><time>2026-04-18T14:29:16Z</time></trkpt><trkpt lat="37.07257096936248" lon="14.752002122322303"><ele>676.4</ele><time>2026-04-18T14:29:17Z</time></trkpt><trkpt lat="37.07267567279829" lon="14.752035407664115"><ele>672.8</ele><time>2026-04-18T14:29:18Z</time></trkpt><trkpt lat="37.07274588105884" lon="14.752085164766099"><ele>669.2</ele><time>2026-04-18T14:29:19Z</time></trkpt><trkpt lat="37.07280850837396" lon="14.75212332459348"><ele>665.6</ele><time>2026-04-18T14:29:20Z</time></trkpt><trkpt lat="37.072879432459224" lon="14.752152858976178"><ele>662.0</ele><time>2026-04-18T14:29:21Z</time></trkpt><trkpt lat="37.07296421182047" lon="14.752274993856917"><ele>662.0</ele><time>2026-04-18T14:29:23Z</time></trkpt><trkpt lat="37.07298666037187" lon="14.75235961621182"><ele>662.0</ele><time>2026-04-18T14:29:24Z</time></trkpt><trkpt lat="37.07297071115438" lon="14.752448907611834"><ele>662.0</ele><time>2026-04-18T14:29:25Z</time></trkpt><trkpt lat="37.07294829369416" lon="14.752548104307184"><ele>662.0</ele><time>2026-04-18T14:29:26Z</time></trkpt><trkpt lat="37.072889306530996" lon="14.752658668375192"><ele>662.0</ele><time>2026-04-18T14:29:27Z</time></trkpt><trkpt lat="37.07281728375566" lon="14.752778683687282"><ele>658.5</ele><time>2026-04-18T14:29:28Z</time></trkpt><trkpt lat="37.07273497724257" lon="14.75292303350067"><ele>655.0</ele><time>2026-04-18T14:29:29Z</time></trkpt><trkpt lat="37.072645580962664" lon="14.753052914570963"><ele>651.5</ele><time>2026-04-18T14:29:30Z</time></trkpt><trkpt lat="37.072602607922164" lon="14.75318201826212"><ele>648.0</ele><time>2026-04-18T14:29:31Z</time></trkpt><trkpt lat="37.072562648701876" lon="14.753260996009038"><ele>648.0</ele><time>2026-04-18T14:29:32Z</time></trkpt><trkpt lat="37.07252871518725" lon="14.753340991823482"><ele>648.0</ele><time>2026-04-18T14:29:33Z</time></trkpt><trkpt lat="37.072481537129875" lon="14.753407147850833"><ele>648.0</ele><time>2026-04-18T14:29:35Z</time></trkpt><trkpt lat="37.072412406063215" lon="14.753544589158405"><ele>648.0</ele><time>2026-04-18T14:29:49Z</time></trkpt><trkpt lat="37.07234373630704" lon="14.753610621208685"><ele>648.0</ele><time>2026-04-18T14:29:50Z</time></trkpt><trkpt lat="37.072265461003035" lon="14.753668715945064"><ele>645.5</ele><time>2026-04-18T14:29:51Z</time></trkpt><trkpt lat="37.07218436269959" lon="14.753712520252757"><ele>643.0</ele><time>2026-04-18T14:29:52Z</time></trkpt><trkpt lat="37.072106156973945" lon="14.753739511868902"><ele>640.5</ele><time>2026-04-18T14:29:53Z</time></trkpt><trkpt lat="37.072024371632615" lon="14.753758596286907"><ele>638.0</ele><time>2026-04-18T14:29:54Z</time></trkpt><trkpt lat="37.07193679550855" lon="14.753766666366982"><ele>635.5</ele><time>2026-04-18T14:29:55Z</time></trkpt><trkpt lat="37.071833658730235" lon="14.753791474900835"><ele>633.0</ele><time>2026-04-18T14:29:56Z</time></trkpt><trkpt lat="37.0717270585044" lon="14.753776106443347"><ele>633.0</ele><time>2026-04-18T14:29:57Z</time></trkpt><trkpt lat="37.071645799231966" lon="14.753802778854308"><ele>633.0</ele><time>2026-04-18T14:29:58Z</time></trkpt><trkpt lat="37.071569732731945" lon="14.753818675140327"><ele>633.0</ele><time>2026-04-18T14:29:59Z</time></trkpt><trkpt lat="37.071503428051074" lon="14.753808706151052"><ele>633.0</ele><time>2026-04-18T14:30:00Z</time></trkpt><trkpt lat="37.071439169958396" lon="14.753792762145503"><ele>633.0</ele><time>2026-04-18T14:30:00.999Z</time></trkpt><trkpt lat="37.07135133860543" lon="14.75380117454303"><ele>633.0</ele><time>2026-04-18T14:30:02.999Z</time></trkpt><trkpt lat="37.07135330570003" lon="14.753902627091986"><ele>633.0</ele><time>2026-04-18T14:30:04.999Z</time></trkpt><trkpt lat="37.071424060367406" lon="14.753978992099954"><ele>633.0</ele><time>2026-04-18T14:30:06.999Z</time></trkpt><trkpt lat="37.07150231953269" lon="14.754039641319975"><ele>633.0</ele><time>2026-04-18T14:30:07.999Z</time></trkpt><trkpt lat="37.071581604297066" lon="14.75409282225674"><ele>633.0</ele><time>2026-04-18T14:30:08.999Z</time></trkpt><trkpt lat="37.07167679219874" lon="14.754154205928195"><ele>633.0</ele><time>2026-04-18T14:30:09.999Z</time></trkpt><trkpt lat="37.071738446367924" lon="14.754206730529141"><ele>633.0</ele><time>2026-04-18T14:30:10.999Z</time></trkpt><trkpt lat="37.071800237703215" lon="14.754244845687806"><ele>633.0</ele><time>2026-04-18T14:30:11.999Z</time></trkpt><trkpt lat="37.07186977176451" lon="14.754268807356642"><ele>633.0</ele><time>2026-04-18T14:30:12.999Z</time></trkpt><trkpt lat="37.07197012374654" lon="14.75423245417935"><ele>633.0</ele><time>2026-04-18T14:30:13.999Z</time></trkpt><trkpt lat="37.072058541973895" lon="14.75421851795674"><ele>633.0</ele><time>2026-04-18T14:30:14.999Z</time></trkpt><trkpt lat="37.072159526109246" lon="14.754161691618462"><ele>633.0</ele><time>2026-04-18T14:30:15.999Z</time></trkpt><trkpt lat="37.07224064003215" lon="14.754148369771405"><ele>633.0</ele><time>2026-04-18T14:30:16.999Z</time></trkpt><trkpt lat="37.07234395588785" lon="14.754131697735536"><ele>633.0</ele><time>2026-04-18T14:30:17.999Z</time></trkpt><trkpt lat="37.072458264462604" lon="14.754125625158618"><ele>633.0</ele><time>2026-04-18T14:30:18.999Z</time></trkpt><trkpt lat="37.07256266277459" lon="14.754084882504236"><ele>633.0</ele><time>2026-04-18T14:30:19.999Z</time></trkpt><trkpt lat="37.07264738114568" lon="14.754035709564961"><ele>633.0</ele><time>2026-04-18T14:30:20.999Z</time></trkpt><trkpt lat="37.072716672313106" lon="14.753994385347827"><ele>631.3333333333334</ele><time>2026-04-18T14:30:21.999Z</time></trkpt><trkpt lat="37.072777708751374" lon="14.753941135659305"><ele>629.6666666666666</ele><time>2026-04-18T14:30:22.999Z</time></trkpt><trkpt lat="37.07283080659307" lon="14.753872592280992"><ele>628.0</ele><time>2026-04-18T14:30:23.999Z</time></trkpt><trkpt lat="37.072905271911374" lon="14.753776087449715"><ele>626.3333333333333</ele><time>2026-04-18T14:30:25.999Z</time></trkpt><trkpt lat="37.072974078533704" lon="14.753777138026404"><ele>624.6666666666666</ele><time>2026-04-18T14:30:27.999Z</time></trkpt><trkpt lat="37.07294959583049" lon="14.753889032831019"><ele>623.0</ele><time>2026-04-18T14:30:29.999Z</time></trkpt><trkpt lat="37.07291276817202" lon="14.75396019089772"><ele>623.0</ele><time>2026-04-18T14:30:30.999Z</time></trkpt><trkpt lat="37.072872140997035" lon="14.75404550339716"><ele>623.0</ele><time>2026-04-18T14:30:31.999Z</time></trkpt><trkpt lat="37.07283325019375" lon="14.754145779757932"><ele>623.0</ele><time>2026-04-18T14:30:32.999Z</time></trkpt><trkpt lat="37.072773885318995" lon="14.754253993024413"><ele>623.0</ele><time>2026-04-18T14:30:33.999Z</time></trkpt><trkpt lat="37.07264638276232" lon="14.754378068094379"><ele>623.0</ele><time>2026-04-18T14:30:34.999Z</time></trkpt><trkpt lat="37.07254730133666" lon="14.754501138717686"><ele>621.6</ele><time>2026-04-18T14:30:35.999Z</time></trkpt><trkpt lat="37.07247404141053" lon="14.754580851850196"><ele>620.1999999999999</ele><time>2026-04-18T14:30:36.999Z</time></trkpt><trkpt lat="37.072383174679324" lon="14.754655964754944"><ele>618.8</ele><time>2026-04-18T14:30:37.999Z</time></trkpt><trkpt lat="37.072321172282926" lon="14.754756463993846"><ele>617.4</ele><time>2026-04-18T14:30:38.999Z</time></trkpt><trkpt lat="37.0722606072198" lon="14.754839960615813"><ele>616.0</ele><time>2026-04-18T14:30:39.999Z</time></trkpt><trkpt lat="37.072196290584394" lon="14.754917745733586"><ele>616.0</ele><time>2026-04-18T14:30:40.999Z</time></trkpt><trkpt lat="37.07213617520909" lon="14.75501142812825"><ele>616.0</ele><time>2026-04-18T14:30:41.999Z</time></trkpt><trkpt lat="37.072087505069504" lon="14.755097419646116"><ele>616.0</ele><time>2026-04-18T14:30:42.999Z</time></trkpt><trkpt lat="37.071984420644014" lon="14.755238006283639"><ele>616.0</ele><time>2026-04-18T14:30:44.999Z</time></trkpt><trkpt lat="37.07192512836814" lon="14.755280200587917"><ele>616.0</ele><time>2026-04-18T14:30:45.999Z</time></trkpt><trkpt lat="37.07183972281569" lon="14.75531977929316"><ele>612.6666666666667</ele><time>2026-04-18T14:30:47.999Z</time></trkpt><trkpt lat="37.07183196315735" lon="14.755431618645465"><ele>609.3333333333334</ele><time>2026-04-18T14:30:49.999Z</time></trkpt><trkpt lat="37.07189059806904" lon="14.755487447581668"><ele>606.0</ele><time>2026-04-18T14:30:51.999Z</time></trkpt><trkpt lat="37.07201713455677" lon="14.755470292001327"><ele>602.6666666666666</ele><time>2026-04-18T14:30:53.999Z</time></trkpt><trkpt lat="37.072073545268935" lon="14.755404849698712"><ele>599.3333333333333</ele><time>2026-04-18T14:30:54.999Z</time></trkpt><trkpt lat="37.07211794176277" lon="14.755336243145988"><ele>596.0</ele><time>2026-04-18T14:30:55.999Z</time></trkpt><trkpt lat="37.072141655553516" lon="14.755252427468733"><ele>597.4</ele><time>2026-04-18T14:30:56.999Z</time></trkpt><trkpt lat="37.07217836484824" lon="14.755157691205715"><ele>598.8</ele><time>2026-04-18T14:30:57.999Z</time></trkpt><trkpt lat="37.07223150072488" lon="14.75508951140703"><ele>600.1999999999999</ele><time>2026-04-18T14:30:58.999Z</time></trkpt><trkpt lat="37.07229522614228" lon="14.754991537937176"><ele>601.6</ele><time>2026-04-18T14:30:59.999Z</time></trkpt><trkpt lat="37.07236270098215" lon="14.754901753453801"><ele>603.0</ele><time>2026-04-18T14:31:00.999Z</time></trkpt><trkpt lat="37.07246005271611" lon="14.754860202098085"><ele>603.0</ele><time>2026-04-18T14:31:01.999Z</time></trkpt><trkpt lat="37.072532486607905" lon="14.754814169453685"><ele>603.0</ele><time>2026-04-18T14:31:02.999Z</time></trkpt><trkpt lat="37.07261557845445" lon="14.75478542692369"><ele>603.0</ele><time>2026-04-18T14:31:03.998Z</time></trkpt><trkpt lat="37.072732647051104" lon="14.754747220019972"><ele>603.0</ele><time>2026-04-18T14:31:05.998Z</time></trkpt><trkpt lat="37.07282104741729" lon="14.754712146740925"><ele>603.0</ele><time>2026-04-18T14:31:07.998Z</time></trkpt><trkpt lat="37.07287745964855" lon="14.754763284687591"><ele>603.0</ele><time>2026-04-18T14:31:10.998Z</time></trkpt><trkpt lat="37.07283118363716" lon="14.75484971826211"><ele>603.0</ele><time>2026-04-18T14:31:14.998Z</time></trkpt><trkpt lat="37.07276261251292" lon="14.754926881322563"><ele>603.0</ele><time>2026-04-18T14:31:17.998Z</time></trkpt><trkpt lat="37.07269801281392" lon="14.754986284196193"><ele>603.0</ele><time>2026-04-18T14:31:19.998Z</time></trkpt><trkpt lat="37.072644168240686" lon="14.75503014798106"><ele>603.0</ele><time>2026-04-18T14:31:21Z</time></trkpt><trkpt lat="37.072552583725994" lon="14.755097880886924"><ele>603.0</ele><time>2026-04-18T14:31:23Z</time></trkpt><trkpt lat="37.07250106165623" lon="14.755153188086167"><ele>601.6</ele><time>2026-04-18T14:31:24Z</time></trkpt><trkpt lat="37.07244628718821" lon="14.755219138775162"><ele>600.1999999999999</ele><time>2026-04-18T14:31:25Z</time></trkpt><trkpt lat="37.07238587479409" lon="14.755287217694265"><ele>598.8</ele><time>2026-04-18T14:31:26Z</time></trkpt><trkpt lat="37.07231784579382" lon="14.755372048714962"><ele>597.4</ele><time>2026-04-18T14:31:27Z</time></trkpt><trkpt lat="37.07227089284154" lon="14.755487486760714"><ele>596.0</ele><time>2026-04-18T14:31:28Z</time></trkpt><trkpt lat="37.07221105170932" lon="14.755584447823102"><ele>596.0</ele><time>2026-04-18T14:31:29Z</time></trkpt><trkpt lat="37.07215634893821" lon="14.755672786967663"><ele>596.0</ele><time>2026-04-18T14:31:30Z</time></trkpt><trkpt lat="37.072087628866676" lon="14.755745323445664"><ele>596.0</ele><time>2026-04-18T14:31:31Z</time></trkpt><trkpt lat="37.07200974483339" lon="14.755834737732458"><ele>596.0</ele><time>2026-04-18T14:31:32Z</time></trkpt><trkpt lat="37.07193218897232" lon="14.755913747020843"><ele>596.0</ele><time>2026-04-18T14:31:33Z</time></trkpt><trkpt lat="37.07186371213079" lon="14.755988204668395"><ele>592.8333333333333</ele><time>2026-04-18T14:31:34Z</time></trkpt><trkpt lat="37.07179771261931" lon="14.756056774198898"><ele>589.6666666666666</ele><time>2026-04-18T14:31:35Z</time></trkpt><trkpt lat="37.07172032352332" lon="14.756123448696343"><ele>586.5</ele><time>2026-04-18T14:31:36Z</time></trkpt><trkpt lat="37.07165946048124" lon="14.756199594624663"><ele>583.3333333333334</ele><time>2026-04-18T14:31:37Z</time></trkpt><trkpt lat="37.071609232948454" lon="14.756268340220565"><ele>580.1666666666667</ele><time>2026-04-18T14:31:38Z</time></trkpt><trkpt lat="37.0715565303779" lon="14.756319810073052"><ele>577.0</ele><time>2026-04-18T14:31:39Z</time></trkpt><trkpt lat="37.07147709933348" lon="14.75632093604695"><ele>577.0</ele><time>2026-04-18T14:31:41Z</time></trkpt><trkpt lat="37.07143005388744" lon="14.756202420603305"><ele>577.0</ele><time>2026-04-18T14:31:43Z</time></trkpt><trkpt lat="37.071392108061204" lon="14.756053264913133"><ele>577.0</ele><time>2026-04-18T14:31:45Z</time></trkpt><trkpt lat="37.071358356296564" lon="14.755983476721921"><ele>577.0</ele><time>2026-04-18T14:31:46Z</time></trkpt><trkpt lat="37.071296459227035" lon="14.755890909282757"><ele>577.0</ele><time>2026-04-18T14:31:47Z</time></trkpt><trkpt lat="37.07122165462602" lon="14.755818164177054"><ele>579.8000000000001</ele><time>2026-04-18T14:31:48Z</time></trkpt><trkpt lat="37.071159331266166" lon="14.755714882966345"><ele>582.6</ele><time>2026-04-18T14:31:49Z</time></trkpt><trkpt lat="37.071113691124545" lon="14.755616421972844"><ele>585.4000000000001</ele><time>2026-04-18T14:31:50Z</time></trkpt><trkpt lat="37.07107009006745" lon="14.755519866873126"><ele>588.2</ele><time>2026-04-18T14:31:51Z</time></trkpt><trkpt lat="37.07100997704276" lon="14.755427723552716"><ele>591.0</ele><time>2026-04-18T14:31:52Z</time></trkpt><trkpt lat="37.07096004627879" lon="14.755348862138716"><ele>591.0</ele><time>2026-04-18T14:31:53Z</time></trkpt><trkpt lat="37.07091164111868" lon="14.755297025961124"><ele>591.0</ele><time>2026-04-18T14:31:54Z</time></trkpt><trkpt lat="37.07082816145895" lon="14.75523940300273"><ele>591.0</ele><time>2026-04-18T14:31:56Z</time></trkpt><trkpt lat="37.0707627254614" lon="14.755295657631132"><ele>591.0</ele><time>2026-04-18T14:31:58Z</time></trkpt><trkpt lat="37.07074732372819" lon="14.755398962286042"><ele>591.0</ele><time>2026-04-18T14:32:00Z</time></trkpt><trkpt lat="37.07076892221365" lon="14.755498186657055"><ele>591.0</ele><time>2026-04-18T14:32:01Z</time></trkpt><trkpt lat="37.07082690817412" lon="14.755637430882896"><ele>591.0</ele><time>2026-04-18T14:32:03Z</time></trkpt><trkpt lat="37.07087331313874" lon="14.755703711189044"><ele>591.0</ele><time>2026-04-18T14:32:04Z</time></trkpt><trkpt lat="37.07092341741758" lon="14.755766651019156"><ele>591.0</ele><time>2026-04-18T14:32:05Z</time></trkpt><trkpt lat="37.07098629347388" lon="14.755904963762276"><ele>591.0</ele><time>2026-04-18T14:32:06.999Z</time></trkpt><trkpt lat="37.07102220713384" lon="14.75607073084123"><ele>591.0</ele><time>2026-04-18T14:32:08.999Z</time></trkpt><trkpt lat="37.07104258756507" lon="14.75615540980194"><ele>589.0</ele><time>2026-04-18T14:32:09.999Z</time></trkpt><trkpt lat="37.071057382341614" lon="14.756233518267585"><ele>587.0</ele><time>2026-04-18T14:32:10.999Z</time></trkpt><trkpt lat="37.07103856853214" lon="14.756311713749893"><ele>585.0</ele><time>2026-04-18T14:32:11.999Z</time></trkpt><trkpt lat="37.07101200534363" lon="14.75638559854732"><ele>583.0</ele><time>2026-04-18T14:32:12.999Z</time></trkpt><trkpt lat="37.07096563730836" lon="14.7564651897714"><ele>581.0</ele><time>2026-04-18T14:32:13.999Z</time></trkpt><trkpt lat="37.07092825263549" lon="14.756552100162654"><ele>579.0</ele><time>2026-04-18T14:32:14.999Z</time></trkpt><trkpt lat="37.0709000146686" lon="14.756628493697887"><ele>577.0</ele><time>2026-04-18T14:32:15.999Z</time></trkpt><trkpt lat="37.07087851519344" lon="14.756704409313969"><ele>577.0</ele><time>2026-04-18T14:32:16.999Z</time></trkpt><trkpt lat="37.07084324548255" lon="14.756827946249237"><ele>577.0</ele><time>2026-04-18T14:32:18.999Z</time></trkpt><trkpt lat="37.070823321913984" lon="14.756918669113466"><ele>577.0</ele><time>2026-04-18T14:32:20.999Z</time></trkpt><trkpt lat="37.07079930359023" lon="14.756992406553636"><ele>577.0</ele><time>2026-04-18T14:32:41.999Z</time></trkpt><trkpt lat="37.07075060730681" lon="14.757049158754734"><ele>577.0</ele><time>2026-04-18T14:33:32Z</time></trkpt><trkpt lat="37.07071198677018" lon="14.75711378509921"><ele>577.0</ele><time>2026-04-18T14:33:35Z</time></trkpt><trkpt lat="37.070700021814744" lon="14.75719203861503"><ele>577.0</ele><time>2026-04-18T14:33:51Z</time></trkpt><trkpt lat="37.070731239541374" lon="14.757110380896217"><ele>578.5714285714286</ele><time>2026-04-18T14:33:57Z</time></trkpt><trkpt lat="37.07074865760737" lon="14.757033229782618"><ele>580.1428571428571</ele><time>2026-04-18T14:34:03Z</time></trkpt><trkpt lat="37.07077529468597" lon="14.756960065495292"><ele>581.7142857142858</ele><time>2026-04-18T14:34:11Z</time></trkpt><trkpt lat="37.07073584128692" lon="14.75703917901158"><ele>583.2857142857142</ele><time>2026-04-18T14:34:39.999Z</time></trkpt><trkpt lat="37.07072724986121" lon="14.757118265618434"><ele>584.8571428571429</ele><time>2026-04-18T14:34:46.999Z</time></trkpt><trkpt lat="37.070684951160096" lon="14.757254382194558"><ele>586.4285714285714</ele><time>2026-04-18T14:46:44Z</time></trkpt><trkpt lat="37.07064351526439" lon="14.757319697624926"><ele>588.0</ele><time>2026-04-18T14:46:47.999Z</time></trkpt><trkpt lat="37.0705924417491" lon="14.757389327526178"><ele>588.0</ele><time>2026-04-18T14:46:53.999Z</time></trkpt><trkpt lat="37.070544957120596" lon="14.757481150434606"><ele>588.0</ele><time>2026-04-18T14:46:57.999Z</time></trkpt><trkpt lat="37.07051811261683" lon="14.757572907545416"><ele>588.0</ele><time>2026-04-18T14:46:59.999Z</time></trkpt><trkpt lat="37.070483169164206" lon="14.757663014198652"><ele>588.0</ele><time>2026-04-18T14:47:01.999Z</time></trkpt><trkpt lat="37.07044735186165" lon="14.757759681090803"><ele>588.0</ele><time>2026-04-18T14:47:03.999Z</time></trkpt><trkpt lat="37.07041657275955" lon="14.757835357133645"><ele>588.0</ele><time>2026-04-18T14:47:05.999Z</time></trkpt><trkpt lat="37.070393974595326" lon="14.757924219201149"><ele>584.5</ele><time>2026-04-18T14:47:07.999Z</time></trkpt><trkpt lat="37.07035432021519" lon="14.758025143254082"><ele>581.0</ele><time>2026-04-18T14:47:09.999Z</time></trkpt><trkpt lat="37.070323592845945" lon="14.758097549699048"><ele>577.5</ele><time>2026-04-18T14:47:10.999Z</time></trkpt><trkpt lat="37.070278763786966" lon="14.758179167457163"><ele>574.0</ele><time>2026-04-18T14:47:11.999Z</time></trkpt><trkpt lat="37.070219975112025" lon="14.758274344399133"><ele>570.5</ele><time>2026-04-18T14:47:12.999Z</time></trkpt><trkpt lat="37.070158371743645" lon="14.75837657434981"><ele>567.0</ele><time>2026-04-18T14:47:13.999Z</time></trkpt><trkpt lat="37.070082865397914" lon="14.758475846515326"><ele>566.25</ele><time>2026-04-18T14:47:14.999Z</time></trkpt><trkpt lat="37.06999514705424" lon="14.758585786131645"><ele>565.5</ele><time>2026-04-18T14:47:15.999Z</time></trkpt><trkpt lat="37.06991026828413" lon="14.758680937618113"><ele>564.75</ele><time>2026-04-18T14:47:16.999Z</time></trkpt><trkpt lat="37.069811218949425" lon="14.758761955560454"><ele>564.0</ele><time>2026-04-18T14:47:17.999Z</time></trkpt><trkpt lat="37.06970585720746" lon="14.758831809943615"><ele>564.0</ele><time>2026-04-18T14:47:18.999Z</time></trkpt><trkpt lat="37.06959093084187" lon="14.758900812498402"><ele>564.0</ele><time>2026-04-18T14:47:19.999Z</time></trkpt><trkpt lat="37.069468245058474" lon="14.758976486858746"><ele>564.0</ele><time>2026-04-18T14:47:20.999Z</time></trkpt><trkpt lat="37.069351569002826" lon="14.759062076090043"><ele>564.0</ele><time>2026-04-18T14:47:21.999Z</time></trkpt><trkpt lat="37.06924686530275" lon="14.759149315136385"><ele>564.0</ele><time>2026-04-18T14:47:22.999Z</time></trkpt><trkpt lat="37.06914833247474" lon="14.759251027941485"><ele>564.0</ele><time>2026-04-18T14:47:23.999Z</time></trkpt><trkpt lat="37.069072462360126" lon="14.759359815681188"><ele>564.0</ele><time>2026-04-18T14:47:24.999Z</time></trkpt><trkpt lat="37.06901754241878" lon="14.759478827815382"><ele>564.0</ele><time>2026-04-18T14:47:25.999Z</time></trkpt><trkpt lat="37.06896727415182" lon="14.759600177265671"><ele>564.5</ele><time>2026-04-18T14:47:26.999Z</time></trkpt><trkpt lat="37.06893194013035" lon="14.75973098621358"><ele>565.0</ele><time>2026-04-18T14:47:27.999Z</time></trkpt><trkpt lat="37.068918163247304" lon="14.759875841877468"><ele>565.5</ele><time>2026-04-18T14:47:28.999Z</time></trkpt><trkpt lat="37.0689121586177" lon="14.760023379865808"><ele>566.0</ele><time>2026-04-18T14:47:29.999Z</time></trkpt><trkpt lat="37.06891850534857" lon="14.760172567254699"><ele>564.25</ele><time>2026-04-18T14:47:30.999Z</time></trkpt><trkpt lat="37.06891707764499" lon="14.760336660051276"><ele>562.5</ele><time>2026-04-18T14:47:31.999Z</time></trkpt><trkpt lat="37.06896707183117" lon="14.76049343238117"><ele>560.75</ele><time>2026-04-18T14:47:32.999Z</time></trkpt><trkpt lat="37.06902662742067" lon="14.760647360904043"><ele>559.0</ele><time>2026-04-18T14:47:33.999Z</time></trkpt><trkpt lat="37.06909001086898" lon="14.760799176482854"><ele>558.6666666666667</ele><time>2026-04-18T14:47:34.999Z</time></trkpt><trkpt lat="37.06917536869858" lon="14.760976286966738"><ele>558.3333333333334</ele><time>2026-04-18T14:47:35.999Z</time></trkpt><trkpt lat="37.069260368567136" lon="14.761163286731295"><ele>558.0</ele><time>2026-04-18T14:47:36.999Z</time></trkpt><trkpt lat="37.069335808956495" lon="14.761315756953326"><ele>559.25</ele><time>2026-04-18T14:47:37.999Z</time></trkpt><trkpt lat="37.06935474146696" lon="14.76147267078383"><ele>560.5</ele><time>2026-04-18T14:47:38.999Z</time></trkpt><trkpt lat="37.06938809439033" lon="14.761614240685578"><ele>561.75</ele><time>2026-04-18T14:47:39.999Z</time></trkpt><trkpt lat="37.0694366042629" lon="14.761752601031061"><ele>563.0</ele><time>2026-04-18T14:47:40.999Z</time></trkpt><trkpt lat="37.06949563712567" lon="14.761884907748966"><ele>565.25</ele><time>2026-04-18T14:47:41.999Z</time></trkpt><trkpt lat="37.069584961033684" lon="14.762005055533637"><ele>567.5</ele><time>2026-04-18T14:47:42.999Z</time></trkpt><trkpt lat="37.06968836773038" lon="14.76208195388619"><ele>569.75</ele><time>2026-04-18T14:47:43.999Z</time></trkpt><trkpt lat="37.06977895481077" lon="14.762162880413289"><ele>572.0</ele><time>2026-04-18T14:47:44.999Z</time></trkpt><trkpt lat="37.06987958554123" lon="14.762222538780922"><ele>570.25</ele><time>2026-04-18T14:47:45.999Z</time></trkpt><trkpt lat="37.06999944752797" lon="14.762272226095893"><ele>568.5</ele><time>2026-04-18T14:47:46.999Z</time></trkpt><trkpt lat="37.070152243998585" lon="14.762318553411554"><ele>566.75</ele><time>2026-04-18T14:47:47.999Z</time></trkpt><trkpt lat="37.07031026042388" lon="14.762368164414523"><ele>565.0</ele><time>2026-04-18T14:47:48.998Z</time></trkpt><trkpt lat="37.07045086408768" lon="14.76241838153388"><ele>565.0</ele><time>2026-04-18T14:47:49.998Z</time></trkpt><trkpt lat="37.070591467090765" lon="14.762468744827606"><ele>565.0</ele><time>2026-04-18T14:47:50.998Z</time></trkpt><trkpt lat="37.07074377884299" lon="14.762516415309896"><ele>565.0</ele><time>2026-04-18T14:47:51.998Z</time></trkpt><trkpt lat="37.07090025705986" lon="14.762559930242462"><ele>568.0</ele><time>2026-04-18T14:47:52.998Z</time></trkpt><trkpt lat="37.07107673723954" lon="14.762586656796186"><ele>571.0</ele><time>2026-04-18T14:47:53.998Z</time></trkpt><trkpt lat="37.07125203838398" lon="14.76260011854321"><ele>574.0</ele><time>2026-04-18T14:47:54.998Z</time></trkpt><trkpt lat="37.071433052269256" lon="14.762607874654437"><ele>574.0</ele><time>2026-04-18T14:47:55.998Z</time></trkpt><trkpt lat="37.07160217255057" lon="14.762622679120089"><ele>574.0</ele><time>2026-04-18T14:47:56.998Z</time></trkpt><trkpt lat="37.07174936568451" lon="14.762647110624554"><ele>574.0</ele><time>2026-04-18T14:47:57.998Z</time></trkpt><trkpt lat="37.071881610513636" lon="14.76269873998442"><ele>579.6666666666667</ele><time>2026-04-18T14:47:58.998Z</time></trkpt><trkpt lat="37.07203448853768" lon="14.762756002551862"><ele>585.3333333333334</ele><time>2026-04-18T14:47:59.998Z</time></trkpt><trkpt lat="37.07219497462562" lon="14.762796910360887"><ele>591.0</ele><time>2026-04-18T14:48:00.998Z</time></trkpt><trkpt lat="37.07235817445462" lon="14.762852511562816"><ele>591.0</ele><time>2026-04-18T14:48:01.998Z</time></trkpt><trkpt lat="37.07252167283364" lon="14.762916029728462"><ele>591.0</ele><time>2026-04-18T14:48:02.998Z</time></trkpt><trkpt lat="37.07268934884172" lon="14.762973272380036"><ele>591.0</ele><time>2026-04-18T14:48:03.998Z</time></trkpt><trkpt lat="37.07285721465345" lon="14.763034589740204"><ele>591.0</ele><time>2026-04-18T14:48:04.998Z</time></trkpt><trkpt lat="37.0730246376211" lon="14.763114897051016"><ele>591.0</ele><time>2026-04-18T14:48:05.998Z</time></trkpt><trkpt lat="37.07317724169194" lon="14.763151077718248"><ele>591.0</ele><time>2026-04-18T14:48:06.998Z</time></trkpt><trkpt lat="37.073308557614205" lon="14.763201832934197"><ele>592.4</ele><time>2026-04-18T14:48:07.998Z</time></trkpt><trkpt lat="37.073430699132864" lon="14.763247829228145"><ele>593.8</ele><time>2026-04-18T14:48:09Z</time></trkpt><trkpt lat="37.073535343758124" lon="14.763291400797275"><ele>595.1999999999999</ele><time>2026-04-18T14:48:10Z</time></trkpt><trkpt lat="37.07362389027261" lon="14.76334415258614"><ele>596.6</ele><time>2026-04-18T14:48:11Z</time></trkpt><trkpt lat="37.07370131085858" lon="14.763408904849726"><ele>598.0</ele><time>2026-04-18T14:48:12Z</time></trkpt><trkpt lat="37.07376733835518" lon="14.763488523640094"><ele>599.4</ele><time>2026-04-18T14:48:13Z</time></trkpt><trkpt lat="37.073819694946124" lon="14.76358521698349"><ele>600.8</ele><time>2026-04-18T14:48:14Z</time></trkpt><trkpt lat="37.07386528200467" lon="14.763687332095387"><ele>602.2</ele><time>2026-04-18T14:48:15Z</time></trkpt><trkpt lat="37.073895669799114" lon="14.76379775121185"><ele>603.6</ele><time>2026-04-18T14:48:16Z</time></trkpt><trkpt lat="37.07391326588524" lon="14.763918773987506"><ele>605.0</ele><time>2026-04-18T14:48:17Z</time></trkpt><trkpt lat="37.073918608181614" lon="14.764045492571013"><ele>605.0</ele><time>2026-04-18T14:48:18Z</time></trkpt><trkpt lat="37.07391672013978" lon="14.764196435524818"><ele>605.0</ele><time>2026-04-18T14:48:19Z</time></trkpt><trkpt lat="37.073916835527875" lon="14.764361637373081"><ele>605.0</ele><time>2026-04-18T14:48:20Z</time></trkpt><trkpt lat="37.073920814904874" lon="14.764509182521486"><ele>605.0</ele><time>2026-04-18T14:48:21Z</time></trkpt><trkpt lat="37.07393149477342" lon="14.764657810216207"><ele>605.0</ele><time>2026-04-18T14:48:22Z</time></trkpt><trkpt lat="37.07396357824392" lon="14.764794991684663"><ele>605.0</ele><time>2026-04-18T14:48:23Z</time></trkpt><trkpt lat="37.074007386567956" lon="14.764923802119522"><ele>605.0</ele><time>2026-04-18T14:48:24Z</time></trkpt><trkpt lat="37.07406682311555" lon="14.765044263706327"><ele>605.0</ele><time>2026-04-18T14:48:25Z</time></trkpt><trkpt lat="37.07413093125216" lon="14.765159723092692"><ele>606.25</ele><time>2026-04-18T14:48:26Z</time></trkpt><trkpt lat="37.074212423135855" lon="14.765282904918289"><ele>607.5</ele><time>2026-04-18T14:48:27Z</time></trkpt><trkpt lat="37.07428890922239" lon="14.765408862129696"><ele>608.75</ele><time>2026-04-18T14:48:28Z</time></trkpt><trkpt lat="37.0743701411908" lon="14.765540449518738"><ele>610.0</ele><time>2026-04-18T14:48:29Z</time></trkpt><trkpt lat="37.07445088333113" lon="14.765673169606819"><ele>610.0</ele><time>2026-04-18T14:48:30Z</time></trkpt><trkpt lat="37.074538028418104" lon="14.765805878620396"><ele>610.0</ele><time>2026-04-18T14:48:31Z</time></trkpt><trkpt lat="37.07462852186881" lon="14.765934707032253"><ele>610.0</ele><time>2026-04-18T14:48:32Z</time></trkpt><trkpt lat="37.074728864953535" lon="14.766053892621361"><ele>610.0</ele><time>2026-04-18T14:48:33Z</time></trkpt><trkpt lat="37.07483187220026" lon="14.766156419826874"><ele>610.4</ele><time>2026-04-18T14:48:34Z</time></trkpt><trkpt lat="37.07492963934619" lon="14.766241411646082"><ele>610.8</ele><time>2026-04-18T14:48:35Z</time></trkpt><trkpt lat="37.07502644072256" lon="14.7663192149348"><ele>611.2</ele><time>2026-04-18T14:48:36Z</time></trkpt><trkpt lat="37.07511489966229" lon="14.766391872054694"><ele>611.6</ele><time>2026-04-18T14:48:37Z</time></trkpt><trkpt lat="37.07519278955204" lon="14.766465113816896"><ele>612.0</ele><time>2026-04-18T14:48:38Z</time></trkpt><trkpt lat="37.07525072335697" lon="14.766553570742271"><ele>612.0</ele><time>2026-04-18T14:48:39Z</time></trkpt><trkpt lat="37.07528412692245" lon="14.766659383638963"><ele>612.0</ele><time>2026-04-18T14:48:40Z</time></trkpt><trkpt lat="37.075307031319184" lon="14.766776523904857"><ele>612.0</ele><time>2026-04-18T14:48:41Z</time></trkpt><trkpt lat="37.07533146956584" lon="14.766899641861338"><ele>612.0</ele><time>2026-04-18T14:48:42Z</time></trkpt><trkpt lat="37.07536299656955" lon="14.767041043816475"><ele>612.0</ele><time>2026-04-18T14:48:43Z</time></trkpt><trkpt lat="37.07539585450474" lon="14.767205268156358"><ele>611.0</ele><time>2026-04-18T14:48:44Z</time></trkpt><trkpt lat="37.075434545387196" lon="14.767401573914109"><ele>610.0</ele><time>2026-04-18T14:48:45Z</time></trkpt><trkpt lat="37.075473494282306" lon="14.767599838252263"><ele>609.0</ele><time>2026-04-18T14:48:46Z</time></trkpt><trkpt lat="37.07550817231777" lon="14.76777626008723"><ele>608.6</ele><time>2026-04-18T14:48:47Z</time></trkpt><trkpt lat="37.07553998181781" lon="14.767941490471644"><ele>608.2</ele><time>2026-04-18T14:48:48Z</time></trkpt><trkpt lat="37.075569796835296" lon="14.768088596207367"><ele>607.8000000000001</ele><time>2026-04-18T14:48:49Z</time></trkpt><trkpt lat="37.07559839697228" lon="14.76821263661675"><ele>607.4</ele><time>2026-04-18T14:48:50Z</time></trkpt><trkpt lat="37.07562889788939" lon="14.768315662284046"><ele>607.0</ele><time>2026-04-18T14:48:51Z</time></trkpt><trkpt lat="37.0756659182653" lon="14.768405930928372"><ele>607.0</ele><time>2026-04-18T14:48:52Z</time></trkpt><trkpt lat="37.07570887718066" lon="14.768479692071947"><ele>607.0</ele><time>2026-04-18T14:48:53Z</time></trkpt><trkpt lat="37.07579919515671" lon="14.768574111991365"><ele>607.0</ele><time>2026-04-18T14:48:54.999Z</time></trkpt><trkpt lat="37.07590496480061" lon="14.768631068753946"><ele>607.0</ele><time>2026-04-18T14:48:56.999Z</time></trkpt><trkpt lat="37.07596727031574" lon="14.768648523171498"><ele>607.0</ele><time>2026-04-18T14:48:57.999Z</time></trkpt><trkpt lat="37.07604082777707" lon="14.768650052184995"><ele>607.0</ele><time>2026-04-18T14:48:58.999Z</time></trkpt><trkpt lat="37.0761202422893" lon="14.768638823513816"><ele>607.0</ele><time>2026-04-18T14:48:59.999Z</time></trkpt><trkpt lat="37.07619914037629" lon="14.768618046677362"><ele>607.0</ele><time>2026-04-18T14:49:00.999Z</time></trkpt><trkpt lat="37.07628015312893" lon="14.768601453469463"><ele>607.0</ele><time>2026-04-18T14:49:01.999Z</time></trkpt><trkpt lat="37.076364635717475" lon="14.76858803088282"><ele>607.0</ele><time>2026-04-18T14:49:02.999Z</time></trkpt><trkpt lat="37.07644599020564" lon="14.768602392649191"><ele>607.0</ele><time>2026-04-18T14:49:03.999Z</time></trkpt><trkpt lat="37.076535301737266" lon="14.768595467892503"><ele>607.0</ele><time>2026-04-18T14:49:04.999Z</time></trkpt><trkpt lat="37.0766306211016" lon="14.768588077316851"><ele>607.0</ele><time>2026-04-18T14:49:05.999Z</time></trkpt><trkpt lat="37.076733536702676" lon="14.768580097769778"><ele>607.0</ele><time>2026-04-18T14:49:06.999Z</time></trkpt><trkpt lat="37.076840273835" lon="14.768572477857374"><ele>607.0</ele><time>2026-04-18T14:49:07.999Z</time></trkpt><trkpt lat="37.0769524360992" lon="14.768564441302255"><ele>607.0</ele><time>2026-04-18T14:49:08.999Z</time></trkpt><trkpt lat="37.077068813462304" lon="14.768520191116567"><ele>607.0</ele><time>2026-04-18T14:49:09.999Z</time></trkpt><trkpt lat="37.07718964532078" lon="14.768514199420098"><ele>607.0</ele><time>2026-04-18T14:49:10.999Z</time></trkpt><trkpt lat="37.07730837421859" lon="14.768508431766495"><ele>607.0</ele><time>2026-04-18T14:49:11.999Z</time></trkpt><trkpt lat="37.07741508738223" lon="14.768513650376285"><ele>607.0</ele><time>2026-04-18T14:49:12.999Z</time></trkpt><trkpt lat="37.077522696840994" lon="14.768514385572546"><ele>607.0</ele><time>2026-04-18T14:49:13.999Z</time></trkpt><trkpt lat="37.0776216838599" lon="14.768510996349805"><ele>607.0</ele><time>2026-04-18T14:49:14.999Z</time></trkpt><trkpt lat="37.07771854004365" lon="14.768503327820484"><ele>607.1666666666667</ele><time>2026-04-18T14:49:15.999Z</time></trkpt><trkpt lat="37.077814975202756" lon="14.768499601379018"><ele>607.3333333333334</ele><time>2026-04-18T14:49:16.999Z</time></trkpt><trkpt lat="37.07790249774168" lon="14.768508472431865"><ele>607.5</ele><time>2026-04-18T14:49:17.999Z</time></trkpt><trkpt lat="37.0779872233872" lon="14.768527113256022"><ele>607.6666666666666</ele><time>2026-04-18T14:49:18.999Z</time></trkpt><trkpt lat="37.07805999834452" lon="14.768545146602854"><ele>607.8333333333333</ele><time>2026-04-18T14:49:19.999Z</time></trkpt><trkpt lat="37.07813442795221" lon="14.768536664939475"><ele>608.0</ele><time>2026-04-18T14:49:20.999Z</time></trkpt><trkpt lat="37.07820498452347" lon="14.76850844752682"><ele>608.0</ele><time>2026-04-18T14:49:21.999Z</time></trkpt><trkpt lat="37.07829320463214" lon="14.768506787076868"><ele>608.0</ele><time>2026-04-18T14:49:22.999Z</time></trkpt><trkpt lat="37.07837098772468" lon="14.768469448960602"><ele>608.0</ele><time>2026-04-18T14:49:23.999Z</time></trkpt><trkpt lat="37.07845530425202" lon="14.76843717194224"><ele>608.0</ele><time>2026-04-18T14:49:24.999Z</time></trkpt><trkpt lat="37.078541249211874" lon="14.768407319302346"><ele>608.0</ele><time>2026-04-18T14:49:25.999Z</time></trkpt><trkpt lat="37.07862886541943" lon="14.768376886180324"><ele>608.0</ele><time>2026-04-18T14:49:26.999Z</time></trkpt><trkpt lat="37.07872504198487" lon="14.768321205878904"><ele>608.0</ele><time>2026-04-18T14:49:27.999Z</time></trkpt><trkpt lat="37.07885480907539" lon="14.768276087730865"><ele>608.0</ele><time>2026-04-18T14:49:28.999Z</time></trkpt><trkpt lat="37.07899887211532" lon="14.768216910232189"><ele>608.0</ele><time>2026-04-18T14:49:29.999Z</time></trkpt><trkpt lat="37.07916102752816" lon="14.768174915053029"><ele>605.6666666666666</ele><time>2026-04-18T14:49:30.999Z</time></trkpt><trkpt lat="37.07931453360926" lon="14.768121825068064"><ele>603.3333333333334</ele><time>2026-04-18T14:49:31.999Z</time></trkpt><trkpt lat="37.07945689545203" lon="14.768076289987734"><ele>601.0</ele><time>2026-04-18T14:49:32.999Z</time></trkpt><trkpt lat="37.07960032143925" lon="14.768043377853505"><ele>601.0</ele><time>2026-04-18T14:49:33.999Z</time></trkpt><trkpt lat="37.079741527676916" lon="14.768009168773554"><ele>601.0</ele><time>2026-04-18T14:49:34.999Z</time></trkpt><trkpt lat="37.079887171213045" lon="14.768002420692433"><ele>601.0</ele><time>2026-04-18T14:49:35.999Z</time></trkpt><trkpt lat="37.08002512307903" lon="14.767987578527059"><ele>601.0</ele><time>2026-04-18T14:49:36.999Z</time></trkpt><trkpt lat="37.080151914171466" lon="14.767969464892365"><ele>598.75</ele><time>2026-04-18T14:49:37.999Z</time></trkpt><trkpt lat="37.08026858356135" lon="14.767941561344738"><ele>596.5</ele><time>2026-04-18T14:49:38.999Z</time></trkpt><trkpt lat="37.08036876363232" lon="14.767900668117948"><ele>594.25</ele><time>2026-04-18T14:49:39.999Z</time></trkpt><trkpt lat="37.08046498606143" lon="14.767823589940448"><ele>592.0</ele><time>2026-04-18T14:49:40.999Z</time></trkpt><trkpt lat="37.0805341669103" lon="14.767708726728944"><ele>591.5</ele><time>2026-04-18T14:49:41.999Z</time></trkpt><trkpt lat="37.08062228727849" lon="14.76758541264391"><ele>591.0</ele><time>2026-04-18T14:49:42.999Z</time></trkpt><trkpt lat="37.080696338546446" lon="14.767430466963358"><ele>590.5</ele><time>2026-04-18T14:49:43.999Z</time></trkpt><trkpt lat="37.08077177183206" lon="14.76725848982379"><ele>590.0</ele><time>2026-04-18T14:49:44.999Z</time></trkpt><trkpt lat="37.080853602839234" lon="14.767102423442697"><ele>590.0</ele><time>2026-04-18T14:49:45.999Z</time></trkpt><trkpt lat="37.080935081527116" lon="14.766958697450809"><ele>590.0</ele><time>2026-04-18T14:49:46.999Z</time></trkpt><trkpt lat="37.08101423829824" lon="14.766814827860985"><ele>590.0</ele><time>2026-04-18T14:49:47.999Z</time></trkpt><trkpt lat="37.081101242837086" lon="14.76668172999198"><ele>590.0</ele><time>2026-04-18T14:49:48.999Z</time></trkpt><trkpt lat="37.08119765282451" lon="14.766564759088322"><ele>587.0</ele><time>2026-04-18T14:49:49.999Z</time></trkpt><trkpt lat="37.081303826372086" lon="14.766457029280064"><ele>584.0</ele><time>2026-04-18T14:49:50.999Z</time></trkpt><trkpt lat="37.08141518827257" lon="14.766355179203057"><ele>581.0</ele><time>2026-04-18T14:49:51.999Z</time></trkpt><trkpt lat="37.081540295479584" lon="14.766251548446318"><ele>578.0</ele><time>2026-04-18T14:49:52.999Z</time></trkpt><trkpt lat="37.08167444249378" lon="14.766138795833697"><ele>577.3333333333333</ele><time>2026-04-18T14:49:53.999Z</time></trkpt><trkpt lat="37.081798474402326" lon="14.766035578824923"><ele>576.6666666666666</ele><time>2026-04-18T14:49:54.999Z</time></trkpt><trkpt lat="37.08192865149372" lon="14.7659232185809"><ele>576.0</ele><time>2026-04-18T14:49:55.999Z</time></trkpt><trkpt lat="37.08205884177103" lon="14.76580573201494"><ele>574.25</ele><time>2026-04-18T14:49:56.998Z</time></trkpt><trkpt lat="37.08218155830264" lon="14.76569490466648"><ele>572.5</ele><time>2026-04-18T14:49:57.998Z</time></trkpt><trkpt lat="37.0822940228711" lon="14.76558082335654"><ele>570.75</ele><time>2026-04-18T14:49:58.998Z</time></trkpt><trkpt lat="37.08238735498511" lon="14.765441133537193"><ele>569.0</ele><time>2026-04-18T14:49:59.998Z</time></trkpt><trkpt lat="37.08247713055591" lon="14.765289852591865"><ele>565.6666666666666</ele><time>2026-04-18T14:50:00.998Z</time></trkpt><trkpt lat="37.082561003808514" lon="14.765121893297842"><ele>562.3333333333334</ele><time>2026-04-18T14:50:01.998Z</time></trkpt><trkpt lat="37.08264386175982" lon="14.76493765717736"><ele>559.0</ele><time>2026-04-18T14:50:02.998Z</time></trkpt><trkpt lat="37.08272913540329" lon="14.76475021054304"><ele>559.0</ele><time>2026-04-18T14:50:03.998Z</time></trkpt><trkpt lat="37.08281072042956" lon="14.764576449072827"><ele>559.0</ele><time>2026-04-18T14:50:04.998Z</time></trkpt><trkpt lat="37.08288295737099" lon="14.764400771860107"><ele>559.0</ele><time>2026-04-18T14:50:05.998Z</time></trkpt><trkpt lat="37.08294679016659" lon="14.76423366802207"><ele>559.25</ele><time>2026-04-18T14:50:06.998Z</time></trkpt><trkpt lat="37.082997017324836" lon="14.764064363979639"><ele>559.5</ele><time>2026-04-18T14:50:07.998Z</time></trkpt><trkpt lat="37.08303142450299" lon="14.763882535549225"><ele>559.75</ele><time>2026-04-18T14:50:08.998Z</time></trkpt><trkpt lat="37.083060371685285" lon="14.763692560286822"><ele>560.0</ele><time>2026-04-18T14:50:09.998Z</time></trkpt><trkpt lat="37.08308927398926" lon="14.7634988049485"><ele>561.3333333333333</ele><time>2026-04-18T14:50:10.998Z</time></trkpt><trkpt lat="37.0831158440651" lon="14.763295451388911"><ele>562.6666666666666</ele><time>2026-04-18T14:50:11.998Z</time></trkpt><trkpt lat="37.08313988708788" lon="14.763087391372778"><ele>564.0</ele><time>2026-04-18T14:50:12.998Z</time></trkpt><trkpt lat="37.08316323364996" lon="14.762873799440017"><ele>565.6666666666666</ele><time>2026-04-18T14:50:13.998Z</time></trkpt><trkpt lat="37.08318944791046" lon="14.762655994058232"><ele>567.3333333333333</ele><time>2026-04-18T14:50:15Z</time></trkpt><trkpt lat="37.08321766495988" lon="14.762433797616612"><ele>569.0</ele><time>2026-04-18T14:50:16Z</time></trkpt><trkpt lat="37.083246675142675" lon="14.762216469575643"><ele>563.0</ele><time>2026-04-18T14:50:17Z</time></trkpt><trkpt lat="37.08327462741332" lon="14.762001566691271"><ele>557.0</ele><time>2026-04-18T14:50:18Z</time></trkpt><trkpt lat="37.08329992299123" lon="14.761782865798702"><ele>551.0</ele><time>2026-04-18T14:50:19Z</time></trkpt><trkpt lat="37.0833254267251" lon="14.761561719488093"><ele>550.0</ele><time>2026-04-18T14:50:20Z</time></trkpt><trkpt lat="37.08335344526511" lon="14.761341965264618"><ele>549.0</ele><time>2026-04-18T14:50:21Z</time></trkpt><trkpt lat="37.083381836316526" lon="14.761132625558236"><ele>548.0</ele><time>2026-04-18T14:50:22Z</time></trkpt><trkpt lat="37.08340614386533" lon="14.760940898515813"><ele>546.0</ele><time>2026-04-18T14:50:23Z</time></trkpt><trkpt lat="37.08342742465559" lon="14.7607537514341"><ele>544.0</ele><time>2026-04-18T14:50:24Z</time></trkpt><trkpt lat="37.08345289465539" lon="14.760577297128561"><ele>542.0</ele><time>2026-04-18T14:50:25Z</time></trkpt><trkpt lat="37.08348586457305" lon="14.76040790042094"><ele>540.0</ele><time>2026-04-18T14:50:26Z</time></trkpt><trkpt lat="37.08352862629317" lon="14.76023332532998"><ele>538.0</ele><time>2026-04-18T14:50:27Z</time></trkpt><trkpt lat="37.083584582027925" lon="14.760077066894256"><ele>536.0</ele><time>2026-04-18T14:50:28Z</time></trkpt><trkpt lat="37.083654223887976" lon="14.759926728929829"><ele>534.0</ele><time>2026-04-18T14:50:29Z</time></trkpt><trkpt lat="37.08373655680295" lon="14.759781565373709"><ele>532.0</ele><time>2026-04-18T14:50:30Z</time></trkpt><trkpt lat="37.083830111012425" lon="14.759647358638658"><ele>532.0</ele><time>2026-04-18T14:50:31Z</time></trkpt><trkpt lat="37.08392975014945" lon="14.75951144670605"><ele>532.0</ele><time>2026-04-18T14:50:32Z</time></trkpt><trkpt lat="37.0840283905523" lon="14.759376604996875"><ele>532.0</ele><time>2026-04-18T14:50:33Z</time></trkpt><trkpt lat="37.084123896098085" lon="14.759237820495741"><ele>532.0</ele><time>2026-04-18T14:50:34Z</time></trkpt><trkpt lat="37.08422083749666" lon="14.759092316607783"><ele>532.3333333333334</ele><time>2026-04-18T14:50:35Z</time></trkpt><trkpt lat="37.08431536236348" lon="14.758937117784667"><ele>532.6666666666666</ele><time>2026-04-18T14:50:36Z</time></trkpt><trkpt lat="37.08440173564088" lon="14.758775977165953"><ele>533.0</ele><time>2026-04-18T14:50:37Z</time></trkpt><trkpt lat="37.08448682678094" lon="14.758606817733249"><ele>529.3333333333333</ele><time>2026-04-18T14:50:38Z</time></trkpt><trkpt lat="37.08456820180328" lon="14.758437420642316"><ele>525.6666666666666</ele><time>2026-04-18T14:50:39Z</time></trkpt><trkpt lat="37.08464294064094" lon="14.758274776261995"><ele>522.0</ele><time>2026-04-18T14:50:40Z</time></trkpt><trkpt lat="37.08471994060863" lon="14.758121405723731"><ele>522.0</ele><time>2026-04-18T14:50:41Z</time></trkpt><trkpt lat="37.08481175748817" lon="14.75797236918433"><ele>522.0</ele><time>2026-04-18T14:50:42Z</time></trkpt><trkpt lat="37.08492038823628" lon="14.757828357001198"><ele>522.0</ele><time>2026-04-18T14:50:43Z</time></trkpt><trkpt lat="37.08503795611063" lon="14.757695927211225"><ele>520.0</ele><time>2026-04-18T14:50:44Z</time></trkpt><trkpt lat="37.08514835052172" lon="14.757572473095896"><ele>518.0</ele><time>2026-04-18T14:50:45Z</time></trkpt><trkpt lat="37.085259272697364" lon="14.757460557632777"><ele>516.0</ele><time>2026-04-18T14:50:46Z</time></trkpt><trkpt lat="37.085378957623774" lon="14.757348911183989"><ele>514.0</ele><time>2026-04-18T14:50:47Z</time></trkpt><trkpt lat="37.085508162808395" lon="14.757257022898903"><ele>514.0</ele><time>2026-04-18T14:50:48Z</time></trkpt><trkpt lat="37.0856455455259" lon="14.757181426453199"><ele>514.0</ele><time>2026-04-18T14:50:49Z</time></trkpt><trkpt lat="37.08578445039529" lon="14.757108783343199"><ele>514.0</ele><time>2026-04-18T14:50:50Z</time></trkpt><trkpt lat="37.08591843166161" lon="14.75709647667261"><ele>514.0</ele><time>2026-04-18T14:50:51Z</time></trkpt><trkpt lat="37.086046057855626" lon="14.757112077085184"><ele>518.25</ele><time>2026-04-18T14:50:52Z</time></trkpt><trkpt lat="37.08617751651996" lon="14.757153641972366"><ele>522.5</ele><time>2026-04-18T14:50:53Z</time></trkpt><trkpt lat="37.08631881108199" lon="14.757202974505692"><ele>526.75</ele><time>2026-04-18T14:50:54Z</time></trkpt><trkpt lat="37.08645680463677" lon="14.75725962620151"><ele>531.0</ele><time>2026-04-18T14:50:55Z</time></trkpt><trkpt lat="37.08659123456817" lon="14.757316333351351"><ele>529.25</ele><time>2026-04-18T14:50:56Z</time></trkpt><trkpt lat="37.08672293937178" lon="14.757371325945094"><ele>527.5</ele><time>2026-04-18T14:50:57Z</time></trkpt><trkpt lat="37.08685123434455" lon="14.757416479042538"><ele>525.75</ele><time>2026-04-18T14:50:58Z</time></trkpt><trkpt lat="37.086982493488954" lon="14.757433679633706"><ele>524.0</ele><time>2026-04-18T14:50:58.999Z</time></trkpt><trkpt lat="37.08710293542668" lon="14.757393261339633"><ele>524.0</ele><time>2026-04-18T14:50:59.999Z</time></trkpt><trkpt lat="37.087190838278545" lon="14.757382966493418"><ele>524.0</ele><time>2026-04-18T14:51:00.999Z</time></trkpt><trkpt lat="37.087263328560496" lon="14.757362448272678"><ele>524.0</ele><time>2026-04-18T14:51:01.999Z</time></trkpt><trkpt lat="37.087367038726384" lon="14.757314283606467"><ele>524.0</ele><time>2026-04-18T14:51:03.999Z</time></trkpt><trkpt lat="37.087450655352654" lon="14.757327995019873"><ele>524.0</ele><time>2026-04-18T14:51:05.999Z</time></trkpt><trkpt lat="37.08753307794868" lon="14.757335459102544"><ele>524.0</ele><time>2026-04-18T14:51:07.999Z</time></trkpt><trkpt lat="37.0876199484485" lon="14.757346849280601"><ele>524.5</ele><time>2026-04-18T14:51:09.999Z</time></trkpt><trkpt lat="37.08771203298187" lon="14.757376946007408"><ele>525.0</ele><time>2026-04-18T14:51:11.999Z</time></trkpt><trkpt lat="37.087849297530404" lon="14.757439718256288"><ele>525.5</ele><time>2026-04-18T14:51:13.999Z</time></trkpt><trkpt lat="37.08794929283097" lon="14.757483545628453"><ele>526.0</ele><time>2026-04-18T14:51:14.999Z</time></trkpt><trkpt lat="37.08805909108326" lon="14.757514055118735"><ele>526.0</ele><time>2026-04-18T14:51:15.999Z</time></trkpt><trkpt lat="37.08818248509494" lon="14.757567908449369"><ele>526.0</ele><time>2026-04-18T14:51:16.999Z</time></trkpt><trkpt lat="37.08832079043637" lon="14.757601336250177"><ele>526.0</ele><time>2026-04-18T14:51:17.999Z</time></trkpt><trkpt lat="37.088445799194325" lon="14.757601134613838"><ele>526.0</ele><time>2026-04-18T14:51:18.999Z</time></trkpt><trkpt lat="37.08855978390353" lon="14.757565605390077"><ele>524.25</ele><time>2026-04-18T14:51:19.999Z</time></trkpt><trkpt lat="37.08865486108971" lon="14.757517005200139"><ele>522.5</ele><time>2026-04-18T14:51:20.999Z</time></trkpt><trkpt lat="37.08874499380403" lon="14.7574699710006"><ele>520.75</ele><time>2026-04-18T14:51:21.999Z</time></trkpt><trkpt lat="37.08885152523491" lon="14.757405789476092"><ele>519.0</ele><time>2026-04-18T14:51:22.999Z</time></trkpt><trkpt lat="37.08897826416129" lon="14.757327600203528"><ele>522.0</ele><time>2026-04-18T14:51:23.999Z</time></trkpt><trkpt lat="37.08910450027378" lon="14.757244501158844"><ele>525.0</ele><time>2026-04-18T14:51:24.999Z</time></trkpt><trkpt lat="37.0892241935674" lon="14.757162758812974"><ele>528.0</ele><time>2026-04-18T14:51:25.999Z</time></trkpt><trkpt lat="37.089325683372714" lon="14.757080578125793"><ele>531.0</ele><time>2026-04-18T14:51:26.999Z</time></trkpt><trkpt lat="37.08941383027402" lon="14.756999638461384"><ele>531.0</ele><time>2026-04-18T14:51:27.999Z</time></trkpt><trkpt lat="37.089483431853175" lon="14.756916572022726"><ele>531.0</ele><time>2026-04-18T14:51:28.999Z</time></trkpt><trkpt lat="37.08954444225733" lon="14.756823965047476"><ele>531.0</ele><time>2026-04-18T14:51:29.999Z</time></trkpt><trkpt lat="37.08959995453428" lon="14.756745433034714"><ele>531.0</ele><time>2026-04-18T14:51:30.999Z</time></trkpt><trkpt lat="37.08965897927376" lon="14.756686789082892"><ele>531.0</ele><time>2026-04-18T14:51:31.999Z</time></trkpt><trkpt lat="37.089743759779765" lon="14.756665546594386"><ele>531.0</ele><time>2026-04-18T14:51:32.999Z</time></trkpt><trkpt lat="37.08983073257437" lon="14.756630644224284"><ele>527.2</ele><time>2026-04-18T14:51:33.999Z</time></trkpt><trkpt lat="37.08991955280286" lon="14.756597230953659"><ele>523.4000000000001</ele><time>2026-04-18T14:51:34.999Z</time></trkpt><trkpt lat="37.09001154493583" lon="14.756562176158603"><ele>519.6</ele><time>2026-04-18T14:51:35.999Z</time></trkpt><trkpt lat="37.09009438133698" lon="14.756546214841787"><ele>515.8000000000001</ele><time>2026-04-18T14:51:36.999Z</time></trkpt><trkpt lat="37.09020541603022" lon="14.756550966522292"><ele>512.0</ele><time>2026-04-18T14:51:38.999Z</time></trkpt><trkpt lat="37.09034495647793" lon="14.756575811217342"><ele>511.99999999999994</ele><time>2026-04-18T14:51:40.999Z</time></trkpt><trkpt lat="37.09040922311678" lon="14.756614918293273"><ele>512.0</ele><time>2026-04-18T14:51:41.999Z</time></trkpt><trkpt lat="37.090471793643005" lon="14.756668774899321"><ele>512.0</ele><time>2026-04-18T14:51:42.999Z</time></trkpt><trkpt lat="37.090535559522" lon="14.756728677905295"><ele>512.0</ele><time>2026-04-18T14:51:43.999Z</time></trkpt><trkpt lat="37.090565488492544" lon="14.756799620343566"><ele>511.99999999999994</ele><time>2026-04-18T14:51:44.999Z</time></trkpt><trkpt lat="37.09062246550019" lon="14.756931571926224"><ele>512.0</ele><time>2026-04-18T14:51:46.999Z</time></trkpt><trkpt lat="37.09067168594963" lon="14.75701143433"><ele>509.8</ele><time>2026-04-18T14:51:48.999Z</time></trkpt><trkpt lat="37.0908000670417" lon="14.756910923943906"><ele>507.6</ele><time>2026-04-18T14:51:50.999Z</time></trkpt><trkpt lat="37.09079076035296" lon="14.756825637661064"><ele>505.40000000000003</ele><time>2026-04-18T14:51:51.999Z</time></trkpt><trkpt lat="37.090845154962366" lon="14.756687161445136"><ele>503.20000000000005</ele><time>2026-04-18T14:51:53.999Z</time></trkpt><trkpt lat="37.090919605524476" lon="14.756604883279133"><ele>501.0</ele><time>2026-04-18T14:51:55.999Z</time></trkpt><trkpt lat="37.09103301516788" lon="14.756616032666805"><ele>501.0</ele><time>2026-04-18T14:51:57.999Z</time></trkpt><trkpt lat="37.09114233211228" lon="14.756677653764859"><ele>501.0</ele><time>2026-04-18T14:51:59.999Z</time></trkpt><trkpt lat="37.091205199266355" lon="14.756701438848534"><ele>501.0</ele><time>2026-04-18T14:52:00.999Z</time></trkpt><trkpt lat="37.09127197445117" lon="14.756725968357"><ele>501.0</ele><time>2026-04-18T14:52:01.998Z</time></trkpt><trkpt lat="37.091345787071724" lon="14.756740036855563"><ele>501.0</ele><time>2026-04-18T14:52:02.998Z</time></trkpt><trkpt lat="37.09144900080997" lon="14.756760248156743"><ele>501.0</ele><time>2026-04-18T14:52:03.998Z</time></trkpt><trkpt lat="37.09154251737357" lon="14.756775300896821"><ele>501.6</ele><time>2026-04-18T14:52:04.998Z</time></trkpt><trkpt lat="37.09164599607363" lon="14.756783635315577"><ele>502.20000000000005</ele><time>2026-04-18T14:52:05.998Z</time></trkpt><trkpt lat="37.091754603718734" lon="14.756787479329772"><ele>502.79999999999995</ele><time>2026-04-18T14:52:06.998Z</time></trkpt><trkpt lat="37.09187306890317" lon="14.756794675754756"><ele>503.4</ele><time>2026-04-18T14:52:07.998Z</time></trkpt><trkpt lat="37.091988271610504" lon="14.756804508884745"><ele>504.0</ele><time>2026-04-18T14:52:08.998Z</time></trkpt><trkpt lat="37.092099777463694" lon="14.756815002716891"><ele>504.0</ele><time>2026-04-18T14:52:09.998Z</time></trkpt><trkpt lat="37.092212297060996" lon="14.756817442093473"><ele>504.0</ele><time>2026-04-18T14:52:10.998Z</time></trkpt><trkpt lat="37.09231817643607" lon="14.7568075362115"><ele>504.0</ele><time>2026-04-18T14:52:11.998Z</time></trkpt><trkpt lat="37.09242308348062" lon="14.756771923920342"><ele>504.0</ele><time>2026-04-18T14:52:12.998Z</time></trkpt><trkpt lat="37.09252688626394" lon="14.756757553941334"><ele>504.0</ele><time>2026-04-18T14:52:13.998Z</time></trkpt><trkpt lat="37.092625621382545" lon="14.756740804069523"><ele>502.6</ele><time>2026-04-18T14:52:14.998Z</time></trkpt><trkpt lat="37.09272234725237" lon="14.756745576491129"><ele>501.2</ele><time>2026-04-18T14:52:15.998Z</time></trkpt><trkpt lat="37.092817223026486" lon="14.756743806873711"><ele>499.80000000000007</ele><time>2026-04-18T14:52:16.998Z</time></trkpt><trkpt lat="37.09291554881783" lon="14.756754506874366"><ele>498.40000000000003</ele><time>2026-04-18T14:52:17.998Z</time></trkpt><trkpt lat="37.09302096051104" lon="14.756743166306677"><ele>497.0</ele><time>2026-04-18T14:52:18.998Z</time></trkpt><trkpt lat="37.093134854951046" lon="14.756698977189853"><ele>497.0</ele><time>2026-04-18T14:52:19.998Z</time></trkpt><trkpt lat="37.09323750710703" lon="14.756692960373726"><ele>497.00000000000006</ele><time>2026-04-18T14:52:21Z</time></trkpt><trkpt lat="37.09332112367102" lon="14.75667884947634"><ele>497.00000000000006</ele><time>2026-04-18T14:52:22Z</time></trkpt><trkpt lat="37.09340393664159" lon="14.756675411464272"><ele>497.0</ele><time>2026-04-18T14:52:23Z</time></trkpt><trkpt lat="37.09348633759855" lon="14.756668889700665"><ele>497.0</ele><time>2026-04-18T14:52:24Z</time></trkpt><trkpt lat="37.09358449093874" lon="14.756661121193922"><ele>496.40000000000003</ele><time>2026-04-18T14:52:25Z</time></trkpt><trkpt lat="37.09369893634594" lon="14.756650560499956"><ele>495.80000000000007</ele><time>2026-04-18T14:52:26Z</time></trkpt><trkpt lat="37.0938035402811" lon="14.756639509459033"><ele>495.2</ele><time>2026-04-18T14:52:27Z</time></trkpt><trkpt lat="37.09389520530394" lon="14.756640274191849"><ele>494.6</ele><time>2026-04-18T14:52:28Z</time></trkpt><trkpt lat="37.09398718290726" lon="14.756640189602244"><ele>494.0</ele><time>2026-04-18T14:52:29Z</time></trkpt><trkpt lat="37.09407330079439" lon="14.756635909268164"><ele>493.3333333333333</ele><time>2026-04-18T14:52:30Z</time></trkpt><trkpt lat="37.09414929449149" lon="14.756636244015624"><ele>492.66666666666663</ele><time>2026-04-18T14:52:31Z</time></trkpt><trkpt lat="37.094234118808316" lon="14.75664176547312"><ele>492.0</ele><time>2026-04-18T14:52:32Z</time></trkpt><trkpt lat="37.09432240244946" lon="14.756648980779895"><ele>491.33333333333337</ele><time>2026-04-18T14:52:33Z</time></trkpt><trkpt lat="37.09440883174064" lon="14.75665686177538"><ele>490.6666666666667</ele><time>2026-04-18T14:52:34Z</time></trkpt><trkpt lat="37.09449479319152" lon="14.756664700106175"><ele>490.0</ele><time>2026-04-18T14:52:35Z</time></trkpt><trkpt lat="37.09458080700013" lon="14.75667189747945"><ele>490.00000000000006</ele><time>2026-04-18T14:52:36Z</time></trkpt><trkpt lat="37.09467682442563" lon="14.756678459536186"><ele>490.0</ele><time>2026-04-18T14:52:37Z</time></trkpt><trkpt lat="37.094759402875205" lon="14.756684103129011"><ele>490.0</ele><time>2026-04-18T14:52:38Z</time></trkpt><trkpt lat="37.09483988873651" lon="14.75668960371958"><ele>490.0</ele><time>2026-04-18T14:52:39Z</time></trkpt><trkpt lat="37.094922694755525" lon="14.756695262848897"><ele>490.00000000000006</ele><time>2026-04-18T14:52:40Z</time></trkpt><trkpt lat="37.09499550709081" lon="14.756678405137244"><ele>490.0</ele><time>2026-04-18T14:52:41Z</time></trkpt><trkpt lat="37.09507404572549" lon="14.75669086755596"><ele>488.1666666666667</ele><time>2026-04-18T14:52:42Z</time></trkpt><trkpt lat="37.095144874723864" lon="14.756655703026833"><ele>486.33333333333337</ele><time>2026-04-18T14:52:43Z</time></trkpt><trkpt lat="37.0952179416167" lon="14.7566225070067"><ele>484.5</ele><time>2026-04-18T14:52:44Z</time></trkpt><trkpt lat="37.09528883620448" lon="14.756559097843956"><ele>482.66666666666663</ele><time>2026-04-18T14:52:45Z</time></trkpt><trkpt lat="37.09537926493073" lon="14.756504892066515"><ele>480.8333333333333</ele><time>2026-04-18T14:52:46Z</time></trkpt><trkpt lat="37.095468680264744" lon="14.756448621477393"><ele>479.0</ele><time>2026-04-18T14:52:47Z</time></trkpt><trkpt lat="37.095552526960475" lon="14.756378542422036"><ele>479.0</ele><time>2026-04-18T14:52:48Z</time></trkpt><trkpt lat="37.09562609085785" lon="14.75629817851414"><ele>479.0</ele><time>2026-04-18T14:52:49Z</time></trkpt><trkpt lat="37.095681880745296" lon="14.756207520195554"><ele>479.0</ele><time>2026-04-18T14:52:50Z</time></trkpt><trkpt lat="37.09574128859646" lon="14.75610459075673"><ele>479.0</ele><time>2026-04-18T14:52:51Z</time></trkpt><trkpt lat="37.09579699070057" lon="14.755986321290493"><ele>479.0</ele><time>2026-04-18T14:52:52Z</time></trkpt><trkpt lat="37.09586298804143" lon="14.75587325220351"><ele>477.6</ele><time>2026-04-18T14:52:53Z</time></trkpt><trkpt lat="37.0959200777047" lon="14.755772464305325"><ele>476.2</ele><time>2026-04-18T14:52:54Z</time></trkpt><trkpt lat="37.09597371507228" lon="14.755671900218058"><ele>474.80000000000007</ele><time>2026-04-18T14:52:55Z</time></trkpt><trkpt lat="37.09602814141111" lon="14.755551521069213"><ele>473.40000000000003</ele><time>2026-04-18T14:52:56Z</time></trkpt><trkpt lat="37.09607627036432" lon="14.755406656077374"><ele>472.0</ele><time>2026-04-18T14:52:57Z</time></trkpt><trkpt lat="37.09611954052852" lon="14.755271300071735"><ele>472.40000000000003</ele><time>2026-04-18T14:52:58Z</time></trkpt><trkpt lat="37.09617063688171" lon="14.755196475310589"><ele>472.80000000000007</ele><time>2026-04-18T14:52:59Z</time></trkpt><trkpt lat="37.096262258293585" lon="14.75512250827194"><ele>473.2</ele><time>2026-04-18T14:53:01Z</time></trkpt><trkpt lat="37.096379916315186" lon="14.755123358109522"><ele>473.6</ele><time>2026-04-18T14:53:03Z</time></trkpt><trkpt lat="37.09647384592674" lon="14.755066942891728"><ele>474.0</ele><time>2026-04-18T14:53:05Z</time></trkpt><trkpt lat="37.09654761214665" lon="14.755031582316096"><ele>473.2</ele><time>2026-04-18T14:53:06.999Z</time></trkpt><trkpt lat="37.09658995560962" lon="14.75493597597567"><ele>472.4</ele><time>2026-04-18T14:53:08.999Z</time></trkpt><trkpt lat="37.09663312508536" lon="14.75481452040718"><ele>471.6</ele><time>2026-04-18T14:53:10.999Z</time></trkpt><trkpt lat="37.096684202514666" lon="14.754668957941458"><ele>470.8</ele><time>2026-04-18T14:53:12.999Z</time></trkpt><trkpt lat="37.09673603187758" lon="14.754599666179791"><ele>470.0</ele><time>2026-04-18T14:53:13.999Z</time></trkpt><trkpt lat="37.09680763392843" lon="14.754524202633977"><ele>470.0</ele><time>2026-04-18T14:53:15.999Z</time></trkpt><trkpt lat="37.09687830366347" lon="14.754477003810782"><ele>470.0</ele><time>2026-04-18T14:53:17.999Z</time></trkpt><trkpt lat="37.09699569803852" lon="14.754400302016368"><ele>470.0</ele><time>2026-04-18T14:53:19.999Z</time></trkpt><trkpt lat="37.09706440354063" lon="14.754354345409386"><ele>470.0</ele><time>2026-04-18T14:53:20.999Z</time></trkpt><trkpt lat="37.09713025369592" lon="14.754310298759426"><ele>470.0</ele><time>2026-04-18T14:53:21.999Z</time></trkpt><trkpt lat="37.097207566660934" lon="14.754258087703828"><ele>470.2</ele><time>2026-04-18T14:53:22.999Z</time></trkpt><trkpt lat="37.09728876735767" lon="14.754200096550145"><ele>470.4</ele><time>2026-04-18T14:53:23.999Z</time></trkpt><trkpt lat="37.09737142594207" lon="14.754140478468866"><ele>470.6</ele><time>2026-04-18T14:53:24.999Z</time></trkpt><trkpt lat="37.097447827840966" lon="14.75407036593557"><ele>470.8</ele><time>2026-04-18T14:53:25.999Z</time></trkpt><trkpt lat="37.09754004346078" lon="14.754045545155636"><ele>471.0</ele><time>2026-04-18T14:53:26.999Z</time></trkpt><trkpt lat="37.097630037219815" lon="14.754008992696146"><ele>471.0</ele><time>2026-04-18T14:53:27.999Z</time></trkpt><trkpt lat="37.097724007043915" lon="14.753969458218855"><ele>471.0</ele><time>2026-04-18T14:53:28.999Z</time></trkpt><trkpt lat="37.097818412147674" lon="14.753929623517068"><ele>471.0</ele><time>2026-04-18T14:53:29.999Z</time></trkpt><trkpt lat="37.09790525475314" lon="14.753889886603757"><ele>471.0</ele><time>2026-04-18T14:53:30.999Z</time></trkpt><trkpt lat="37.09801043190315" lon="14.75383688585303"><ele>471.0</ele><time>2026-04-18T14:53:31.999Z</time></trkpt><trkpt lat="37.09812139560187" lon="14.753778256006436"><ele>471.0</ele><time>2026-04-18T14:53:32.999Z</time></trkpt><trkpt lat="37.098208134220066" lon="14.753726341981453"><ele>471.0</ele><time>2026-04-18T14:53:33.999Z</time></trkpt><trkpt lat="37.09826688991037" lon="14.753651717360354"><ele>471.0</ele><time>2026-04-18T14:53:34.999Z</time></trkpt><trkpt lat="37.09833797901101" lon="14.753580661329272"><ele>471.0</ele><time>2026-04-18T14:53:35.999Z</time></trkpt><trkpt lat="37.09840180657638" lon="14.75350225368109"><ele>471.0</ele><time>2026-04-18T14:53:36.999Z</time></trkpt><trkpt lat="37.098490889413874" lon="14.753442163020775"><ele>470.4</ele><time>2026-04-18T14:53:37.999Z</time></trkpt><trkpt lat="37.09854610414445" lon="14.753343837317455"><ele>469.8</ele><time>2026-04-18T14:53:38.999Z</time></trkpt><trkpt lat="37.09861442807558" lon="14.753268547588279"><ele>469.19999999999993</ele><time>2026-04-18T14:53:39.999Z</time></trkpt><trkpt lat="37.09867260207245" lon="14.753179020259791"><ele>468.59999999999997</ele><time>2026-04-18T14:53:40.999Z</time></trkpt><trkpt lat="37.09869439033129" lon="14.753057784435615"><ele>468.0</ele><time>2026-04-18T14:53:41.999Z</time></trkpt><trkpt lat="37.09874331673665" lon="14.752944267235637"><ele>468.0</ele><time>2026-04-18T14:53:42.999Z</time></trkpt><trkpt lat="37.09879356483548" lon="14.752829927527044"><ele>468.0</ele><time>2026-04-18T14:53:43.999Z</time></trkpt><trkpt lat="37.09886484994012" lon="14.752717915759773"><ele>468.0</ele><time>2026-04-18T14:53:44.999Z</time></trkpt><trkpt lat="37.09892837119937" lon="14.752590313299802"><ele>468.0</ele><time>2026-04-18T14:53:45.999Z</time></trkpt><trkpt lat="37.09900204740746" lon="14.7524640026358"><ele>467.25</ele><time>2026-04-18T14:53:46.999Z</time></trkpt><trkpt lat="37.09907133821766" lon="14.752335047896674"><ele>466.5</ele><time>2026-04-18T14:53:47.999Z</time></trkpt><trkpt lat="37.09912917496246" lon="14.752193852770196"><ele>465.75</ele><time>2026-04-18T14:53:48.999Z</time></trkpt><trkpt lat="37.09917816704033" lon="14.752054868995979"><ele>465.0</ele><time>2026-04-18T14:53:49.999Z</time></trkpt><trkpt lat="37.09921673834364" lon="14.751934815951858"><ele>465.8333333333333</ele><time>2026-04-18T14:53:50.999Z</time></trkpt><trkpt lat="37.09924652410327" lon="14.751836354498614"><ele>466.66666666666663</ele><time>2026-04-18T14:53:51.999Z</time></trkpt><trkpt lat="37.09927788055308" lon="14.751751663644189"><ele>467.5</ele><time>2026-04-18T14:53:53.999Z</time></trkpt><trkpt lat="37.09933765039928" lon="14.751791260817441"><ele>468.3333333333333</ele><time>2026-04-18T14:53:54.999Z</time></trkpt><trkpt lat="37.099299189413195" lon="14.751663668314615"><ele>469.16666666666663</ele><time>2026-04-18T14:53:55.999Z</time></trkpt><trkpt lat="37.099318905356974" lon="14.75155265772508"><ele>470.0</ele><time>2026-04-18T14:53:57.999Z</time></trkpt><trkpt lat="37.09934032683754" lon="14.751462607734428"><ele>470.0</ele><time>2026-04-18T14:54:00.999Z</time></trkpt><trkpt lat="37.09935857693049" lon="14.751373479457055"><ele>470.0</ele><time>2026-04-18T14:54:01.999Z</time></trkpt><trkpt lat="37.09937291952406" lon="14.751264216109234"><ele>470.0</ele><time>2026-04-18T14:54:03.999Z</time></trkpt><trkpt lat="37.09939462915699" lon="14.751166897437297"><ele>470.0</ele><time>2026-04-18T14:54:06.999Z</time></trkpt><trkpt lat="37.099436792988" lon="14.75099021151635"><ele>470.0</ele><time>2026-04-18T14:54:09.998Z</time></trkpt><trkpt lat="37.09946128866974" lon="14.750891293813854"><ele>468.66666666666663</ele><time>2026-04-18T14:54:11.998Z</time></trkpt><trkpt lat="37.09948077051288" lon="14.750801471429055"><ele>467.3333333333333</ele><time>2026-04-18T14:54:13.998Z</time></trkpt><trkpt lat="37.099511163663124" lon="14.750701549987246"><ele>466.0</ele><time>2026-04-18T14:54:14.998Z</time></trkpt><trkpt lat="37.09955229738744" lon="14.750593087848689"><ele>464.66666666666663</ele><time>2026-04-18T14:54:16.998Z</time></trkpt><trkpt lat="37.09959043337215" lon="14.750501170436742"><ele>463.3333333333333</ele><time>2026-04-18T14:54:18.998Z</time></trkpt><trkpt lat="37.09961973683985" lon="14.750410353186846"><ele>462.0</ele><time>2026-04-18T14:54:21.998Z</time></trkpt><trkpt lat="37.099677226046346" lon="14.750353801266796"><ele>462.0</ele><time>2026-04-18T14:55:03Z</time></trkpt><trkpt lat="37.09970753990566" lon="14.75027830237149"><ele>462.0</ele><time>2026-04-18T14:55:04Z</time></trkpt><trkpt lat="37.09975523683224" lon="14.750196598993393"><ele>462.0</ele><time>2026-04-18T14:55:05Z</time></trkpt><trkpt lat="37.09979383925047" lon="14.750122722427125"><ele>462.0</ele><time>2026-04-18T14:55:06Z</time></trkpt><trkpt lat="37.099835214400386" lon="14.750031505011052"><ele>462.0</ele><time>2026-04-18T14:55:07Z</time></trkpt><trkpt lat="37.09988935875144" lon="14.74993703832835"><ele>462.0</ele><time>2026-04-18T14:55:08Z</time></trkpt><trkpt lat="37.09994816691488" lon="14.749800648066065"><ele>462.25</ele><time>2026-04-18T14:55:09Z</time></trkpt><trkpt lat="37.100012012063516" lon="14.749644538388933"><ele>462.5</ele><time>2026-04-18T14:55:10Z</time></trkpt><trkpt lat="37.10006883075426" lon="14.749509015358901"><ele>462.75</ele><time>2026-04-18T14:55:11Z</time></trkpt><trkpt lat="37.100116674810025" lon="14.74938958021126"><ele>463.0</ele><time>2026-04-18T14:55:11.999Z</time></trkpt><trkpt lat="37.10015195437517" lon="14.749282236326188"><ele>463.00000000000006</ele><time>2026-04-18T14:55:12.999Z</time></trkpt><trkpt lat="37.10017296133985" lon="14.74918876539548"><ele>463.0</ele><time>2026-04-18T14:55:13.999Z</time></trkpt><trkpt lat="37.10019292831445" lon="14.7490896153875"><ele>463.0</ele><time>2026-04-18T14:55:15.999Z</time></trkpt><trkpt lat="37.10023014812301" lon="14.74901888981289"><ele>463.0</ele><time>2026-04-18T14:55:44.999Z</time></trkpt><trkpt lat="37.10022959418116" lon="14.748876007799083"><ele>463.00000000000006</ele><time>2026-04-18T14:55:47.999Z</time></trkpt><trkpt lat="37.10021369292638" lon="14.748760839494421"><ele>463.0</ele><time>2026-04-18T14:55:48.999Z</time></trkpt><trkpt lat="37.10017484359733" lon="14.748619558712278"><ele>461.75</ele><time>2026-04-18T14:55:49.999Z</time></trkpt><trkpt lat="37.10012107551586" lon="14.748475440640876"><ele>460.5</ele><time>2026-04-18T14:55:50.999Z</time></trkpt><trkpt lat="37.10005298543766" lon="14.748316064368991"><ele>459.25</ele><time>2026-04-18T14:55:51.999Z</time></trkpt><trkpt lat="37.09998163294053" lon="14.74815030988269"><ele>458.0</ele><time>2026-04-18T14:55:52.999Z</time></trkpt><trkpt lat="37.09991923562454" lon="14.747967534225003"><ele>460.66666666666663</ele><time>2026-04-18T14:55:53.999Z</time></trkpt><trkpt lat="37.09985011610143" lon="14.74776389401626"><ele>463.33333333333337</ele><time>2026-04-18T14:55:54.999Z</time></trkpt><trkpt lat="37.099773663172506" lon="14.747546604147535"><ele>466.0</ele><time>2026-04-18T14:55:55.999Z</time></trkpt><trkpt lat="37.09969660028679" lon="14.747326377225319"><ele>469.0</ele><time>2026-04-18T14:55:56.999Z</time></trkpt><trkpt lat="37.09963090144324" lon="14.747088533734638"><ele>472.0</ele><time>2026-04-18T14:55:57.999Z</time></trkpt><trkpt lat="37.0995628868513" lon="14.74685607191397"><ele>475.0</ele><time>2026-04-18T14:55:58.999Z</time></trkpt><trkpt lat="37.09952380962562" lon="14.746649164015055"><ele>476.75</ele><time>2026-04-18T14:55:59.999Z</time></trkpt><trkpt lat="37.09949792917007" lon="14.746466305746207"><ele>478.5</ele><time>2026-04-18T14:56:00.999Z</time></trkpt><trkpt lat="37.099488236388254" lon="14.746286224143285"><ele>480.25</ele><time>2026-04-18T14:56:01.999Z</time></trkpt><trkpt lat="37.099500102926214" lon="14.746102689944472"><ele>482.0</ele><time>2026-04-18T14:56:02.999Z</time></trkpt><trkpt lat="37.09953789201197" lon="14.745911604869239"><ele>485.0</ele><time>2026-04-18T14:56:03.999Z</time></trkpt><trkpt lat="37.09958974097414" lon="14.745719677796933"><ele>488.0</ele><time>2026-04-18T14:56:04.999Z</time></trkpt><trkpt lat="37.09964435281747" lon="14.745515049620053"><ele>491.0</ele><time>2026-04-18T14:56:05.999Z</time></trkpt><trkpt lat="37.099700835351875" lon="14.745305872373184"><ele>492.3333333333333</ele><time>2026-04-18T14:56:06.999Z</time></trkpt><trkpt lat="37.09974750442064" lon="14.745082993251295"><ele>493.66666666666663</ele><time>2026-04-18T14:56:07.999Z</time></trkpt><trkpt lat="37.09979070934917" lon="14.74487527377227"><ele>495.0</ele><time>2026-04-18T14:56:08.999Z</time></trkpt><trkpt lat="37.09982509090944" lon="14.74468556678185"><ele>495.0</ele><time>2026-04-18T14:56:09.999Z</time></trkpt><trkpt lat="37.099865903191144" lon="14.744504709333667"><ele>495.0</ele><time>2026-04-18T14:56:10.999Z</time></trkpt><trkpt lat="37.0999216699913" lon="14.74432415100129"><ele>495.0</ele><time>2026-04-18T14:56:11.999Z</time></trkpt><trkpt lat="37.09997367371129" lon="14.744144464567162"><ele>479.66666666666663</ele><time>2026-04-18T14:56:12.999Z</time></trkpt><trkpt lat="37.10001136322823" lon="14.743960578154502"><ele>464.3333333333333</ele><time>2026-04-18T14:56:13.998Z</time></trkpt><trkpt lat="37.100034044956296" lon="14.743750760781673"><ele>449.0</ele><time>2026-04-18T14:56:14.998Z</time></trkpt><trkpt lat="37.10004335021275" lon="14.743550804666931"><ele>448.3333333333333</ele><time>2026-04-18T14:56:15.998Z</time></trkpt><trkpt lat="37.10005444614786" lon="14.743351040606596"><ele>447.66666666666663</ele><time>2026-04-18T14:56:16.998Z</time></trkpt><trkpt lat="37.10006861273667" lon="14.743163929400502"><ele>447.0</ele><time>2026-04-18T14:56:17.998Z</time></trkpt><trkpt lat="37.100049819505045" lon="14.742977459560542"><ele>447.0</ele><time>2026-04-18T14:56:18.998Z</time></trkpt><trkpt lat="37.10005128838815" lon="14.742800056702448"><ele>447.0</ele><time>2026-04-18T14:56:19.998Z</time></trkpt><trkpt lat="37.100002783342426" lon="14.742652359978852"><ele>447.0</ele><time>2026-04-18T14:56:20.998Z</time></trkpt><trkpt lat="37.099963755687966" lon="14.742516628310186"><ele>447.0</ele><time>2026-04-18T14:56:21.998Z</time></trkpt><trkpt lat="37.099921522874574" lon="14.742410197690035"><ele>450.40000000000003</ele><time>2026-04-18T14:56:22.998Z</time></trkpt><trkpt lat="37.09988728275774" lon="14.74230150226182"><ele>453.80000000000007</ele><time>2026-04-18T14:56:23.998Z</time></trkpt><trkpt lat="37.099836055015814" lon="14.742200564609146"><ele>457.2</ele><time>2026-04-18T14:56:24.998Z</time></trkpt><trkpt lat="37.09977760197763" lon="14.742109293390186"><ele>460.6</ele><time>2026-04-18T14:56:25.998Z</time></trkpt><trkpt lat="37.099733040928534" lon="14.741984707684844"><ele>464.0</ele><time>2026-04-18T14:56:26.998Z</time></trkpt><trkpt lat="37.09965887762376" lon="14.741841428122731"><ele>464.0</ele><time>2026-04-18T14:56:27.998Z</time></trkpt><trkpt lat="37.09956137841523" lon="14.741687431869655"><ele>464.0</ele><time>2026-04-18T14:56:28.998Z</time></trkpt><trkpt lat="37.09944390672857" lon="14.741513190299504"><ele>464.0</ele><time>2026-04-18T14:56:29.998Z</time></trkpt><trkpt lat="37.099345052226894" lon="14.741332882427395"><ele>464.0</ele><time>2026-04-18T14:56:30.998Z</time></trkpt><trkpt lat="37.09923460338571" lon="14.741181710745995"><ele>464.0</ele><time>2026-04-18T14:56:31.998Z</time></trkpt><trkpt lat="37.09913662256702" lon="14.741060782489306"><ele>464.0</ele><time>2026-04-18T14:56:33Z</time></trkpt><trkpt lat="37.09903585519994" lon="14.740953538374283"><ele>464.0</ele><time>2026-04-18T14:56:34Z</time></trkpt><trkpt lat="37.09894720509808" lon="14.740843375284692"><ele>468.2</ele><time>2026-04-18T14:56:35Z</time></trkpt><trkpt lat="37.09887497771497" lon="14.740732971758808"><ele>472.4</ele><time>2026-04-18T14:56:36Z</time></trkpt><trkpt lat="37.098801074266284" lon="14.74061849620896"><ele>476.6</ele><time>2026-04-18T14:56:37Z</time></trkpt><trkpt lat="37.09874514284556" lon="14.740496547558507"><ele>480.8</ele><time>2026-04-18T14:56:38Z</time></trkpt><trkpt lat="37.09870634309171" lon="14.740380632089868"><ele>485.0</ele><time>2026-04-18T14:56:39Z</time></trkpt><trkpt lat="37.09866999244294" lon="14.740288097797864"><ele>483.66666666666663</ele><time>2026-04-18T14:56:40Z</time></trkpt><trkpt lat="37.09864392354932" lon="14.740206570746345"><ele>482.3333333333333</ele><time>2026-04-18T14:56:41Z</time></trkpt><trkpt lat="37.098639925349495" lon="14.740109830529224"><ele>481.0</ele><time>2026-04-18T14:56:42Z</time></trkpt><trkpt lat="37.09864114292734" lon="14.740006576735597"><ele>479.66666666666663</ele><time>2026-04-18T14:56:43Z</time></trkpt><trkpt lat="37.098652419860066" lon="14.739893138172274"><ele>478.3333333333333</ele><time>2026-04-18T14:56:44Z</time></trkpt><trkpt lat="37.098657983286586" lon="14.739743165928527"><ele>477.0</ele><time>2026-04-18T14:56:45Z</time></trkpt><trkpt lat="37.098673593446" lon="14.739561639244673"><ele>477.0</ele><time>2026-04-18T14:56:46Z</time></trkpt><trkpt lat="37.09868894902762" lon="14.739415691140623"><ele>477.00000000000006</ele><time>2026-04-18T14:56:47Z</time></trkpt><trkpt lat="37.09869678069589" lon="14.739278608195958"><ele>477.00000000000006</ele><time>2026-04-18T14:56:48Z</time></trkpt><trkpt lat="37.0987035278606" lon="14.739161443964989"><ele>477.0</ele><time>2026-04-18T14:56:49Z</time></trkpt><trkpt lat="37.098721156910756" lon="14.739045433108078"><ele>477.0</ele><time>2026-04-18T14:56:50Z</time></trkpt><trkpt lat="37.09871969527638" lon="14.738921013180251"><ele>474.5</ele><time>2026-04-18T14:56:51Z</time></trkpt><trkpt lat="37.09869084126778" lon="14.738801003015109"><ele>472.0</ele><time>2026-04-18T14:56:52Z</time></trkpt><trkpt lat="37.09865274987546" lon="14.738673913280044"><ele>469.5</ele><time>2026-04-18T14:56:53Z</time></trkpt><trkpt lat="37.098615809501" lon="14.738520763669657"><ele>467.0</ele><time>2026-04-18T14:56:54Z</time></trkpt><trkpt lat="37.09859472484407" lon="14.738373146584136"><ele>464.5</ele><time>2026-04-18T14:56:55Z</time></trkpt><trkpt lat="37.09856990146305" lon="14.738214442645672"><ele>462.0</ele><time>2026-04-18T14:56:56Z</time></trkpt><trkpt lat="37.09856135653389" lon="14.738051515827934"><ele>459.5</ele><time>2026-04-18T14:56:57Z</time></trkpt><trkpt lat="37.098533639295084" lon="14.737895843157405"><ele>457.0</ele><time>2026-04-18T14:56:58Z</time></trkpt><trkpt lat="37.098511264069984" lon="14.73774463904892"><ele>456.5</ele><time>2026-04-18T14:56:59Z</time></trkpt><trkpt lat="37.09849359397573" lon="14.73758624326925"><ele>456.0</ele><time>2026-04-18T14:57:00Z</time></trkpt><trkpt lat="37.098469723792135" lon="14.737432551946224"><ele>455.5</ele><time>2026-04-18T14:57:01Z</time></trkpt><trkpt lat="37.09844813555245" lon="14.737296637070825"><ele>455.0</ele><time>2026-04-18T14:57:02Z</time></trkpt><trkpt lat="37.098415220031484" lon="14.737144071972432"><ele>455.0</ele><time>2026-04-18T14:57:03Z</time></trkpt><trkpt lat="37.098370270372996" lon="14.73696608514631"><ele>455.0</ele><time>2026-04-18T14:57:04Z</time></trkpt><trkpt lat="37.098314093788495" lon="14.736787316317894"><ele>455.0</ele><time>2026-04-18T14:57:05Z</time></trkpt><trkpt lat="37.09825473122449" lon="14.736624733049318"><ele>455.0</ele><time>2026-04-18T14:57:06Z</time></trkpt><trkpt lat="37.098181650001926" lon="14.73646622741266"><ele>457.5</ele><time>2026-04-18T14:57:07Z</time></trkpt><trkpt lat="37.098090954356806" lon="14.736305505509543"><ele>460.0</ele><time>2026-04-18T14:57:08Z</time></trkpt><trkpt lat="37.098029498652366" lon="14.736157613015527"><ele>462.5</ele><time>2026-04-18T14:57:09Z</time></trkpt><trkpt lat="37.097954117964626" lon="14.73602319612129"><ele>465.0</ele><time>2026-04-18T14:57:10Z</time></trkpt><trkpt lat="37.097882868359505" lon="14.735877268744428"><ele>458.0</ele><time>2026-04-18T14:57:11Z</time></trkpt><trkpt lat="37.097812906734376" lon="14.735727560642937"><ele>451.0</ele><time>2026-04-18T14:57:12Z</time></trkpt><trkpt lat="37.097742660118165" lon="14.7355681990576"><ele>444.0</ele><time>2026-04-18T14:57:13Z</time></trkpt><trkpt lat="37.09765340348543" lon="14.735380914135412"><ele>447.0</ele><time>2026-04-18T14:57:14Z</time></trkpt><trkpt lat="37.09756184772156" lon="14.735196111435128"><ele>450.0</ele><time>2026-04-18T14:57:15Z</time></trkpt><trkpt lat="37.0974807170598" lon="14.735029355120908"><ele>453.0</ele><time>2026-04-18T14:57:15.999Z</time></trkpt><trkpt lat="37.097417516759364" lon="14.734847055053336"><ele>453.0</ele><time>2026-04-18T14:57:16.999Z</time></trkpt><trkpt lat="37.0973524044698" lon="14.734703524509507"><ele>453.0</ele><time>2026-04-18T14:57:17.999Z</time></trkpt><trkpt lat="37.0972864427125" lon="14.734573157784824"><ele>453.0</ele><time>2026-04-18T14:57:18.999Z</time></trkpt><trkpt lat="37.09722427589406" lon="14.734464763156723"><ele>453.0</ele><time>2026-04-18T14:57:19.999Z</time></trkpt><trkpt lat="37.09713430730387" lon="14.734368537320558"><ele>448.5</ele><time>2026-04-18T14:57:20.999Z</time></trkpt><trkpt lat="37.09705349560732" lon="14.734247886050865"><ele>444.0</ele><time>2026-04-18T14:57:21.999Z</time></trkpt><trkpt lat="37.09693316206918" lon="14.734117178812724"><ele>439.5</ele><time>2026-04-18T14:57:22.999Z</time></trkpt><trkpt lat="37.09683689340662" lon="14.733972638364417"><ele>435.0</ele><time>2026-04-18T14:57:23.999Z</time></trkpt><trkpt lat="37.09672370278123" lon="14.73383807358788"><ele>435.0</ele><time>2026-04-18T14:57:24.999Z</time></trkpt><trkpt lat="37.09664018280438" lon="14.73370608886863"><ele>435.0</ele><time>2026-04-18T14:57:25.999Z</time></trkpt><trkpt lat="37.0965705736167" lon="14.733562626850214"><ele>435.0</ele><time>2026-04-18T14:57:26.999Z</time></trkpt><trkpt lat="37.09650762057046" lon="14.73343083125927"><ele>435.0</ele><time>2026-04-18T14:57:27.999Z</time></trkpt><trkpt lat="37.09643964558162" lon="14.733306113314228"><ele>436.0</ele><time>2026-04-18T14:57:28.999Z</time></trkpt><trkpt lat="37.09638212521708" lon="14.733194816469588"><ele>437.0</ele><time>2026-04-18T14:57:29.999Z</time></trkpt><trkpt lat="37.096343679818446" lon="14.733074397892526"><ele>438.0</ele><time>2026-04-18T14:57:30.999Z</time></trkpt><trkpt lat="37.096313504097196" lon="14.732937190369118"><ele>439.0</ele><time>2026-04-18T14:57:31.999Z</time></trkpt><trkpt lat="37.09629877895093" lon="14.732799094155517"><ele>440.0</ele><time>2026-04-18T14:57:32.999Z</time></trkpt><trkpt lat="37.0962899246252" lon="14.732656076828484"><ele>440.0</ele><time>2026-04-18T14:57:33.999Z</time></trkpt><trkpt lat="37.09627659268885" lon="14.732527056763969"><ele>440.0</ele><time>2026-04-18T14:57:34.999Z</time></trkpt><trkpt lat="37.09625094925918" lon="14.7324421872956"><ele>440.0</ele><time>2026-04-18T14:57:35.999Z</time></trkpt><trkpt lat="37.096207669849115" lon="14.732350794252438"><ele>440.0</ele><time>2026-04-18T14:57:36.999Z</time></trkpt><trkpt lat="37.09613577907475" lon="14.732213181327822"><ele>440.0</ele><time>2026-04-18T14:57:37.999Z</time></trkpt><trkpt lat="37.09605304332114" lon="14.732062868840316"><ele>440.0</ele><time>2026-04-18T14:57:38.999Z</time></trkpt><trkpt lat="37.0959789536385" lon="14.731914684902794"><ele>440.0</ele><time>2026-04-18T14:57:39.999Z</time></trkpt><trkpt lat="37.0959146372929" lon="14.731759452544887"><ele>440.0</ele><time>2026-04-18T14:57:40.999Z</time></trkpt><trkpt lat="37.095848615599934" lon="14.731607176447463"><ele>440.0</ele><time>2026-04-18T14:57:41.999Z</time></trkpt><trkpt lat="37.09579365547369" lon="14.731439213604828"><ele>446.66666666666663</ele><time>2026-04-18T14:57:42.999Z</time></trkpt><trkpt lat="37.09573411831405" lon="14.731266855264117"><ele>453.33333333333337</ele><time>2026-04-18T14:57:43.999Z</time></trkpt><trkpt lat="37.095685907074994" lon="14.731082869564496"><ele>460.0</ele><time>2026-04-18T14:57:44.999Z</time></trkpt><trkpt lat="37.09563702743121" lon="14.730895480171329"><ele>460.0</ele><time>2026-04-18T14:57:45.999Z</time></trkpt><trkpt lat="37.09559641534491" lon="14.730726721296055"><ele>460.0</ele><time>2026-04-18T14:57:46.999Z</time></trkpt><trkpt lat="37.095562707538924" lon="14.730569066857123"><ele>460.0</ele><time>2026-04-18T14:57:47.999Z</time></trkpt><trkpt lat="37.09554274227312" lon="14.730435155802171"><ele>460.0</ele><time>2026-04-18T14:57:48.999Z</time></trkpt><trkpt lat="37.09549761118783" lon="14.730336295078313"><ele>460.00000000000006</ele><time>2026-04-18T14:57:49.999Z</time></trkpt><trkpt lat="37.09547113407238" lon="14.73024472045244"><ele>460.0</ele><time>2026-04-18T14:57:50.999Z</time></trkpt><trkpt lat="37.09542946052946" lon="14.730117995651172"><ele>460.0</ele><time>2026-04-18T14:57:52.999Z</time></trkpt><trkpt lat="37.09540498971198" lon="14.730026776028089"><ele>460.0</ele><time>2026-04-18T14:57:54.999Z</time></trkpt><trkpt lat="37.09540625185104" lon="14.729945506077698"><ele>460.00000000000006</ele><time>2026-04-18T14:57:56.999Z</time></trkpt><trkpt lat="37.095409328333936" lon="14.729863859991651"><ele>460.0</ele><time>2026-04-18T14:57:58.999Z</time></trkpt><trkpt lat="37.095438301196644" lon="14.729778602551688"><ele>458.4</ele><time>2026-04-18T14:58:00.999Z</time></trkpt><trkpt lat="37.0954711084901" lon="14.72969686688555"><ele>456.8</ele><time>2026-04-18T14:58:04.999Z</time></trkpt><trkpt lat="37.0954951552128" lon="14.729620015873444"><ele>455.20000000000005</ele><time>2026-04-18T14:58:07.999Z</time></trkpt><trkpt lat="37.09551085812919" lon="14.729538743699301"><ele>453.6</ele><time>2026-04-18T14:58:11.999Z</time></trkpt><trkpt lat="37.09552489868747" lon="14.729301356594856"><ele>452.0</ele><time>2026-04-18T14:58:41Z</time></trkpt><trkpt lat="37.0955345071496" lon="14.729195107285717"><ele>452.0</ele><time>2026-04-18T14:58:42Z</time></trkpt><trkpt lat="37.095537165571486" lon="14.729060209901503"><ele>452.0</ele><time>2026-04-18T14:58:43Z</time></trkpt><trkpt lat="37.09552715043329" lon="14.728885132252467"><ele>452.0</ele><time>2026-04-18T14:58:44Z</time></trkpt><trkpt lat="37.09552441017775" lon="14.728709964020533"><ele>452.0</ele><time>2026-04-18T14:58:45Z</time></trkpt><trkpt lat="37.095529333884826" lon="14.728542178767409"><ele>454.75</ele><time>2026-04-18T14:58:46Z</time></trkpt><trkpt lat="37.09554157239347" lon="14.728361823415645"><ele>457.5</ele><time>2026-04-18T14:58:47Z</time></trkpt><trkpt lat="37.09556609896114" lon="14.728180564924799"><ele>460.25</ele><time>2026-04-18T14:58:48Z</time></trkpt><trkpt lat="37.095585440275606" lon="14.728017532749693"><ele>463.0</ele><time>2026-04-18T14:58:49Z</time></trkpt><trkpt lat="37.095616534952896" lon="14.72785833848849"><ele>464.4</ele><time>2026-04-18T14:58:50Z</time></trkpt><trkpt lat="37.09565847696869" lon="14.72771139553074"><ele>465.79999999999995</ele><time>2026-04-18T14:58:51Z</time></trkpt><trkpt lat="37.095719900712844" lon="14.727585047604219"><ele>467.2</ele><time>2026-04-18T14:58:52Z</time></trkpt><trkpt lat="37.09577594362641" lon="14.727494199965507"><ele>468.6</ele><time>2026-04-18T14:58:53Z</time></trkpt><trkpt lat="37.095847080522226" lon="14.727410778866435"><ele>470.0</ele><time>2026-04-18T14:58:54Z</time></trkpt><trkpt lat="37.09590787988768" lon="14.727303907856914"><ele>459.0</ele><time>2026-04-18T14:58:55Z</time></trkpt><trkpt lat="37.09597964547049" lon="14.72717977973426"><ele>448.0</ele><time>2026-04-18T14:58:56Z</time></trkpt><trkpt lat="37.09606795619494" lon="14.727069331504017"><ele>437.0</ele><time>2026-04-18T14:58:57Z</time></trkpt><trkpt lat="37.09617936074831" lon="14.727013095042278"><ele>426.0</ele><time>2026-04-18T14:58:58Z</time></trkpt><trkpt lat="37.096245919923234" lon="14.726919569652555"><ele>425.3333333333333</ele><time>2026-04-18T14:58:59Z</time></trkpt><trkpt lat="37.096312963242084" lon="14.726851886221818"><ele>424.66666666666663</ele><time>2026-04-18T14:59:00Z</time></trkpt><trkpt lat="37.09636424219833" lon="14.726790958476274"><ele>424.0</ele><time>2026-04-18T14:59:01Z</time></trkpt><trkpt lat="37.0964298395273" lon="14.726755951198045"><ele>423.3333333333333</ele><time>2026-04-18T14:59:02Z</time></trkpt><trkpt lat="37.096514882435336" lon="14.726806502941532"><ele>422.66666666666663</ele><time>2026-04-18T14:59:03Z</time></trkpt><trkpt lat="37.09660543333988" lon="14.726785804542017"><ele>422.0</ele><time>2026-04-18T14:59:04Z</time></trkpt><trkpt lat="37.09669396661497" lon="14.726750914207486"><ele>422.0</ele><time>2026-04-18T14:59:05Z</time></trkpt><trkpt lat="37.09680504388121" lon="14.726672689252887"><ele>422.0</ele><time>2026-04-18T14:59:06Z</time></trkpt><trkpt lat="37.09689804934517" lon="14.726599320410706"><ele>422.0</ele><time>2026-04-18T14:59:07Z</time></trkpt><trkpt lat="37.097007777373264" lon="14.726497233469152"><ele>422.0</ele><time>2026-04-18T14:59:08Z</time></trkpt><trkpt lat="37.09714861875942" lon="14.726376680208517"><ele>422.0</ele><time>2026-04-18T14:59:09Z</time></trkpt><trkpt lat="37.0973015375407" lon="14.726244330765462"><ele>422.0</ele><time>2026-04-18T14:59:10Z</time></trkpt><trkpt lat="37.09743865281762" lon="14.726158206108368"><ele>422.0</ele><time>2026-04-18T14:59:11Z</time></trkpt><trkpt lat="37.09756475276912" lon="14.72608805091046"><ele>423.75</ele><time>2026-04-18T14:59:12Z</time></trkpt><trkpt lat="37.09770120808838" lon="14.726034093419528"><ele>425.5</ele><time>2026-04-18T14:59:13Z</time></trkpt><trkpt lat="37.097833356287346" lon="14.7260018407684"><ele>427.25</ele><time>2026-04-18T14:59:14Z</time></trkpt><trkpt lat="37.097993250384725" lon="14.725963615574987"><ele>429.0</ele><time>2026-04-18T14:59:15Z</time></trkpt><trkpt lat="37.098179108928775" lon="14.725925051743756"><ele>427.33333333333337</ele><time>2026-04-18T14:59:16Z</time></trkpt><trkpt lat="37.09835236981464" lon="14.725906542570916"><ele>425.6666666666667</ele><time>2026-04-18T14:59:17Z</time></trkpt><trkpt lat="37.09851802270743" lon="14.725887157438256"><ele>424.0</ele><time>2026-04-18T14:59:18Z</time></trkpt><trkpt lat="37.098638106854274" lon="14.725861219122514"><ele>424.0</ele><time>2026-04-18T14:59:19Z</time></trkpt><trkpt lat="37.09875771454159" lon="14.725850712064036"><ele>424.0</ele><time>2026-04-18T14:59:20Z</time></trkpt><trkpt lat="37.09887172459829" lon="14.725852681146218"><ele>424.0</ele><time>2026-04-18T14:59:20.999Z</time></trkpt><trkpt lat="37.09896569251256" lon="14.725885413710483"><ele>424.0</ele><time>2026-04-18T14:59:21.999Z</time></trkpt><trkpt lat="37.0990983195576" lon="14.725900243317168"><ele>422.6</ele><time>2026-04-18T14:59:22.999Z</time></trkpt><trkpt lat="37.0992242382771" lon="14.72589438868765"><ele>421.2</ele><time>2026-04-18T14:59:23.999Z</time></trkpt><trkpt lat="37.09932339811618" lon="14.72585912147323"><ele>419.8</ele><time>2026-04-18T14:59:24.999Z</time></trkpt><trkpt lat="37.099418240505955" lon="14.725841754565481"><ele>418.40000000000003</ele><time>2026-04-18T14:59:25.999Z</time></trkpt><trkpt lat="37.09949038168348" lon="14.725803305237067"><ele>417.0</ele><time>2026-04-18T14:59:26.999Z</time></trkpt><trkpt lat="37.09958173878098" lon="14.725721967212811"><ele>417.0</ele><time>2026-04-18T14:59:28.999Z</time></trkpt><trkpt lat="37.099652220611965" lon="14.725811142726686"><ele>417.0</ele><time>2026-04-18T14:59:30.999Z</time></trkpt><trkpt lat="37.09963057930476" lon="14.72592402830096"><ele>417.0</ele><time>2026-04-18T14:59:32.999Z</time></trkpt><trkpt lat="37.099658000432" lon="14.726001824189341"><ele>417.0</ele><time>2026-04-18T14:59:33.999Z</time></trkpt><trkpt lat="37.09969918835096" lon="14.726081373755337"><ele>417.0</ele><time>2026-04-18T14:59:34.999Z</time></trkpt><trkpt lat="37.09977805881347" lon="14.726133535732451"><ele>417.0</ele><time>2026-04-18T14:59:35.999Z</time></trkpt><trkpt lat="37.09988944234774" lon="14.726120727208432"><ele>416.40000000000003</ele><time>2026-04-18T14:59:36.999Z</time></trkpt><trkpt lat="37.09999985711844" lon="14.726149745976228"><ele>415.8</ele><time>2026-04-18T14:59:37.999Z</time></trkpt><trkpt lat="37.1001054622942" lon="14.726162660331292"><ele>415.2</ele><time>2026-04-18T14:59:38.999Z</time></trkpt><trkpt lat="37.100196643572744" lon="14.726145907371267"><ele>414.6</ele><time>2026-04-18T14:59:39.999Z</time></trkpt><trkpt lat="37.10026437798984" lon="14.726104443579441"><ele>414.0</ele><time>2026-04-18T14:59:40.999Z</time></trkpt><trkpt lat="37.10031666983619" lon="14.726034701739668"><ele>414.0</ele><time>2026-04-18T14:59:41.999Z</time></trkpt><trkpt lat="37.100355337190884" lon="14.725951139052041"><ele>414.0</ele><time>2026-04-18T14:59:42.999Z</time></trkpt><trkpt lat="37.100383478349684" lon="14.72583631397655"><ele>414.0</ele><time>2026-04-18T14:59:43.999Z</time></trkpt><trkpt lat="37.10041767957586" lon="14.725705114065343"><ele>414.0</ele><time>2026-04-18T14:59:44.999Z</time></trkpt><trkpt lat="37.10044801539077" lon="14.725554980729534"><ele>414.0</ele><time>2026-04-18T14:59:45.999Z</time></trkpt><trkpt lat="37.10047199378486" lon="14.725443117389979"><ele>414.0</ele><time>2026-04-18T14:59:46.999Z</time></trkpt><trkpt lat="37.100513609016105" lon="14.72534417416053"><ele>414.0</ele><time>2026-04-18T14:59:47.999Z</time></trkpt><trkpt lat="37.10056724301566" lon="14.72524741282056"><ele>414.0</ele><time>2026-04-18T14:59:48.999Z</time></trkpt><trkpt lat="37.10064958536437" lon="14.725158882186946"><ele>414.0</ele><time>2026-04-18T14:59:49.999Z</time></trkpt><trkpt lat="37.100729811742916" lon="14.72509449982114"><ele>414.0</ele><time>2026-04-18T14:59:50.999Z</time></trkpt><trkpt lat="37.10082164188255" lon="14.72505959283995"><ele>416.0</ele><time>2026-04-18T14:59:51.999Z</time></trkpt><trkpt lat="37.100938955800665" lon="14.725059036509375"><ele>418.0</ele><time>2026-04-18T14:59:52.999Z</time></trkpt><trkpt lat="37.10107463407801" lon="14.725029222440043"><ele>420.0</ele><time>2026-04-18T14:59:53.999Z</time></trkpt><trkpt lat="37.1012302093372" lon="14.724959515549397"><ele>422.0</ele><time>2026-04-18T14:59:54.999Z</time></trkpt><trkpt lat="37.10136437960105" lon="14.724879071877764"><ele>422.0</ele><time>2026-04-18T14:59:55.999Z</time></trkpt><trkpt lat="37.10147048580145" lon="14.724799698748383"><ele>422.0</ele><time>2026-04-18T14:59:56.999Z</time></trkpt><trkpt lat="37.10155683932205" lon="14.724722229816644"><ele>422.0</ele><time>2026-04-18T14:59:57.999Z</time></trkpt><trkpt lat="37.10164083783568" lon="14.724647013605663"><ele>422.0</ele><time>2026-04-18T14:59:58.999Z</time></trkpt><trkpt lat="37.1017000104955" lon="14.724547882181087"><ele>422.0</ele><time>2026-04-18T14:59:59.999Z</time></trkpt><trkpt lat="37.10177684787559" lon="14.724466849502871"><ele>424.40000000000003</ele><time>2026-04-18T15:00:00.999Z</time></trkpt><trkpt lat="37.1018574190771" lon="14.724421942601335"><ele>426.8</ele><time>2026-04-18T15:00:01.999Z</time></trkpt><trkpt lat="37.10194456335295" lon="14.72440158941809"><ele>429.2</ele><time>2026-04-18T15:00:02.999Z</time></trkpt><trkpt lat="37.102044644631064" lon="14.724383469756095"><ele>431.6</ele><time>2026-04-18T15:00:03.999Z</time></trkpt><trkpt lat="37.102159565832956" lon="14.724381709888645"><ele>434.0</ele><time>2026-04-18T15:00:04.999Z</time></trkpt><trkpt lat="37.10229484335948" lon="14.724385987978797"><ele>432.3333333333333</ele><time>2026-04-18T15:00:05.999Z</time></trkpt><trkpt lat="37.102449797921714" lon="14.724387312045698"><ele>430.66666666666663</ele><time>2026-04-18T15:00:06.999Z</time></trkpt><trkpt lat="37.102627776780075" lon="14.724376991068194"><ele>429.0</ele><time>2026-04-18T15:00:07.999Z</time></trkpt><trkpt lat="37.10275557568788" lon="14.724411596263636"><ele>424.2</ele><time>2026-04-18T15:00:08.999Z</time></trkpt><trkpt lat="37.10286764278925" lon="14.724452027423517"><ele>419.4</ele><time>2026-04-18T15:00:09.999Z</time></trkpt><trkpt lat="37.10294426393585" lon="14.724496783428277"><ele>414.6</ele><time>2026-04-18T15:00:10.999Z</time></trkpt><trkpt lat="37.10303345742609" lon="14.724567316902702"><ele>409.8</ele><time>2026-04-18T15:00:11.999Z</time></trkpt><trkpt lat="37.103143302017884" lon="14.724640581666154"><ele>405.0</ele><time>2026-04-18T15:00:12.999Z</time></trkpt><trkpt lat="37.10325970509725" lon="14.724702579151653"><ele>405.0</ele><time>2026-04-18T15:00:13.999Z</time></trkpt><trkpt lat="37.10337723250031" lon="14.724736039371583"><ele>405.0</ele><time>2026-04-18T15:00:14.999Z</time></trkpt><trkpt lat="37.10348729257027" lon="14.724734755054307"><ele>405.0</ele><time>2026-04-18T15:00:15.999Z</time></trkpt><trkpt lat="37.1036014260358" lon="14.724725807327774"><ele>405.0</ele><time>2026-04-18T15:00:16.999Z</time></trkpt><trkpt lat="37.103719887038466" lon="14.72475115541463"><ele>405.0</ele><time>2026-04-18T15:00:17.999Z</time></trkpt><trkpt lat="37.103842884421574" lon="14.724769198914021"><ele>405.0</ele><time>2026-04-18T15:00:18.999Z</time></trkpt><trkpt lat="37.10395062463931" lon="14.72480109555162"><ele>405.0</ele><time>2026-04-18T15:00:19.999Z</time></trkpt><trkpt lat="37.10406937047375" lon="14.724849771221372"><ele>405.0</ele><time>2026-04-18T15:00:20.999Z</time></trkpt><trkpt lat="37.10418455461921" lon="14.724874939279301"><ele>406.5</ele><time>2026-04-18T15:00:21.999Z</time></trkpt><trkpt lat="37.104305863691856" lon="14.724917004341874"><ele>408.0</ele><time>2026-04-18T15:00:22.999Z</time></trkpt><trkpt lat="37.10443006378925" lon="14.72492804698541"><ele>409.5</ele><time>2026-04-18T15:00:23.998Z</time></trkpt><trkpt lat="37.10457229012462" lon="14.724918085304067"><ele>411.0</ele><time>2026-04-18T15:00:24.998Z</time></trkpt><trkpt lat="37.104712154303336" lon="14.724902997690837"><ele>411.0</ele><time>2026-04-18T15:00:25.998Z</time></trkpt><trkpt lat="37.104827883191824" lon="14.724922676525258"><ele>411.0</ele><time>2026-04-18T15:00:26.998Z</time></trkpt><trkpt lat="37.10494024110541" lon="14.724970325108583"><ele>411.0</ele><time>2026-04-18T15:00:27.998Z</time></trkpt><trkpt lat="37.105080984137935" lon="14.725025788983194"><ele>411.0</ele><time>2026-04-18T15:00:28.998Z</time></trkpt><trkpt lat="37.10521885629246" lon="14.725069556800696"><ele>415.66666666666663</ele><time>2026-04-18T15:00:29.998Z</time></trkpt><trkpt lat="37.105372053890804" lon="14.725105422061711"><ele>420.3333333333333</ele><time>2026-04-18T15:00:30.998Z</time></trkpt><trkpt lat="37.105509339176336" lon="14.72514325730491"><ele>425.0</ele><time>2026-04-18T15:00:31.998Z</time></trkpt><trkpt lat="37.10565786432035" lon="14.725199540033218"><ele>427.0</ele><time>2026-04-18T15:00:32.998Z</time></trkpt><trkpt lat="37.10580155866471" lon="14.725223899190535"><ele>429.0</ele><time>2026-04-18T15:00:33.998Z</time></trkpt><trkpt lat="37.10594066144664" lon="14.725231848601641"><ele>431.0</ele><time>2026-04-18T15:00:34.998Z</time></trkpt><trkpt lat="37.106074635152645" lon="14.725224421979856"><ele>433.0</ele><time>2026-04-18T15:00:35.998Z</time></trkpt><trkpt lat="37.10619210886749" lon="14.725218281415554"><ele>433.00000000000006</ele><time>2026-04-18T15:00:36.998Z</time></trkpt><trkpt lat="37.10628578530946" lon="14.725216011209826"><ele>433.0</ele><time>2026-04-18T15:00:37.998Z</time></trkpt><trkpt lat="37.10636342044057" lon="14.725227891903893"><ele>433.0</ele><time>2026-04-18T15:00:38.998Z</time></trkpt><trkpt lat="37.10641791656813" lon="14.725284955433173"><ele>433.0</ele><time>2026-04-18T15:00:39.998Z</time></trkpt><trkpt lat="37.10646009777691" lon="14.72535170305407"><ele>433.00000000000006</ele><time>2026-04-18T15:00:40.998Z</time></trkpt><trkpt lat="37.106516477182915" lon="14.725438812471848"><ele>433.0</ele><time>2026-04-18T15:00:41.998Z</time></trkpt><trkpt lat="37.10657942926478" lon="14.725498187129494"><ele>428.50000000000006</ele><time>2026-04-18T15:00:42.998Z</time></trkpt><trkpt lat="37.106655656181665" lon="14.725546348552097"><ele>424.0</ele><time>2026-04-18T15:00:43.998Z</time></trkpt><trkpt lat="37.10672704591424" lon="14.725568946582563"><ele>419.5</ele><time>2026-04-18T15:00:45Z</time></trkpt><trkpt lat="37.1068044873986" lon="14.725544020121399"><ele>415.0</ele><time>2026-04-18T15:00:46Z</time></trkpt><trkpt lat="37.10687490764217" lon="14.725536586137919"><ele>410.50000000000006</ele><time>2026-04-18T15:00:47Z</time></trkpt><trkpt lat="37.10694594753309" lon="14.725524335459646"><ele>406.0</ele><time>2026-04-18T15:00:48Z</time></trkpt><trkpt lat="37.10702536974976" lon="14.725531111219116"><ele>406.00000000000006</ele><time>2026-04-18T15:00:49Z</time></trkpt><trkpt lat="37.10709968535964" lon="14.72553111122469"><ele>406.0</ele><time>2026-04-18T15:00:50Z</time></trkpt><trkpt lat="37.107179860922244" lon="14.725578345686944"><ele>406.0</ele><time>2026-04-18T15:00:51Z</time></trkpt><trkpt lat="37.10727247326701" lon="14.725607032374322"><ele>406.0</ele><time>2026-04-18T15:00:52Z</time></trkpt><trkpt lat="37.107351949977875" lon="14.725606646669858"><ele>406.00000000000006</ele><time>2026-04-18T15:00:53Z</time></trkpt><trkpt lat="37.10742685572257" lon="14.725633535438265"><ele>406.0</ele><time>2026-04-18T15:00:54Z</time></trkpt><trkpt lat="37.10749227920061" lon="14.72566467645584"><ele>406.25</ele><time>2026-04-18T15:00:55Z</time></trkpt><trkpt lat="37.10761047166739" lon="14.725704575311186"><ele>406.5</ele><time>2026-04-18T15:00:57Z</time></trkpt><trkpt lat="37.10770725374746" lon="14.72573803998846"><ele>406.75</ele><time>2026-04-18T15:00:59Z</time></trkpt><trkpt lat="37.10779853105375" lon="14.725771111844029"><ele>407.0</ele><time>2026-04-18T15:01:01Z</time></trkpt><trkpt lat="37.10798016745163" lon="14.725783036206268"><ele>406.99999999999994</ele><time>2026-04-18T15:01:06Z</time></trkpt><trkpt lat="37.10805458063876" lon="14.725787579769424"><ele>407.0</ele><time>2026-04-18T15:01:07Z</time></trkpt><trkpt lat="37.1081572299096" lon="14.725774994923366"><ele>407.0</ele><time>2026-04-18T15:01:08Z</time></trkpt><trkpt lat="37.10824529213085" lon="14.725715711014612"><ele>407.0</ele><time>2026-04-18T15:01:09Z</time></trkpt><trkpt lat="37.10831760741805" lon="14.725669572450883"><ele>406.99999999999994</ele><time>2026-04-18T15:01:10Z</time></trkpt><trkpt lat="37.1084053138833" lon="14.725686959732045"><ele>407.0</ele><time>2026-04-18T15:01:11Z</time></trkpt><trkpt lat="37.108498369450274" lon="14.725725843772269"><ele>406.8</ele><time>2026-04-18T15:01:12Z</time></trkpt><trkpt lat="37.10860755807656" lon="14.72576142920054"><ele>406.6</ele><time>2026-04-18T15:01:13Z</time></trkpt><trkpt lat="37.10872873371399" lon="14.725755694085692"><ele>406.40000000000003</ele><time>2026-04-18T15:01:14Z</time></trkpt><trkpt lat="37.10881447065974" lon="14.72580728096994"><ele>406.20000000000005</ele><time>2026-04-18T15:01:15Z</time></trkpt><trkpt lat="37.10887501489845" lon="14.725856044117032"><ele>406.0</ele><time>2026-04-18T15:01:16Z</time></trkpt><trkpt lat="37.1089118226111" lon="14.725934694200369"><ele>406.0</ele><time>2026-04-18T15:01:17Z</time></trkpt><trkpt lat="37.10892430527741" lon="14.726050854510454"><ele>406.0</ele><time>2026-04-18T15:01:18Z</time></trkpt><trkpt lat="37.10888883800668" lon="14.726198173866615"><ele>406.0</ele><time>2026-04-18T15:01:19Z</time></trkpt><trkpt lat="37.108926952066874" lon="14.726302759200356"><ele>406.0</ele><time>2026-04-18T15:01:20Z</time></trkpt><trkpt lat="37.10901469862827" lon="14.726376115250767"><ele>406.0</ele><time>2026-04-18T15:01:21Z</time></trkpt><trkpt lat="37.10909524339986" lon="14.72642758863062"><ele>405.6</ele><time>2026-04-18T15:01:22Z</time></trkpt><trkpt lat="37.109181425874375" lon="14.726438729093605"><ele>405.20000000000005</ele><time>2026-04-18T15:01:23Z</time></trkpt><trkpt lat="37.10927694297789" lon="14.726455403041488"><ele>404.79999999999995</ele><time>2026-04-18T15:01:24Z</time></trkpt><trkpt lat="37.10936923603058" lon="14.726528678737672"><ele>404.4</ele><time>2026-04-18T15:01:25Z</time></trkpt><trkpt lat="37.10946671111521" lon="14.726596056549415"><ele>404.0</ele><time>2026-04-18T15:01:26Z</time></trkpt><trkpt lat="37.10955318980364" lon="14.726627827039593"><ele>404.0</ele><time>2026-04-18T15:01:27Z</time></trkpt><trkpt lat="37.109633458246485" lon="14.72663918425101"><ele>404.0</ele><time>2026-04-18T15:01:28Z</time></trkpt><trkpt lat="37.10972395563913" lon="14.726604435871181"><ele>404.0</ele><time>2026-04-18T15:01:28.999Z</time></trkpt><trkpt lat="37.109835704158776" lon="14.726631569563299"><ele>404.0</ele><time>2026-04-18T15:01:29.999Z</time></trkpt><trkpt lat="37.10994440234633" lon="14.726659613420736"><ele>404.0</ele><time>2026-04-18T15:01:30.999Z</time></trkpt><trkpt lat="37.11006007282949" lon="14.72670478763154"><ele>405.75</ele><time>2026-04-18T15:01:31.999Z</time></trkpt><trkpt lat="37.110176091590354" lon="14.726701654164959"><ele>407.5</ele><time>2026-04-18T15:01:32.999Z</time></trkpt><trkpt lat="37.110320253932" lon="14.726719915207655"><ele>409.25</ele><time>2026-04-18T15:01:33.999Z</time></trkpt><trkpt lat="37.11045011425424" lon="14.72674022689243"><ele>411.0</ele><time>2026-04-18T15:01:34.999Z</time></trkpt><trkpt lat="37.11057859220766" lon="14.72677882639787"><ele>411.0</ele><time>2026-04-18T15:01:35.999Z</time></trkpt><trkpt lat="37.1107356347609" lon="14.726833339380887"><ele>411.0</ele><time>2026-04-18T15:01:36.999Z</time></trkpt><trkpt lat="37.110902640622975" lon="14.72689657549179"><ele>411.0</ele><time>2026-04-18T15:01:37.999Z</time></trkpt><trkpt lat="37.111062985965205" lon="14.726957289763101"><ele>407.0</ele><time>2026-04-18T15:01:38.999Z</time></trkpt><trkpt lat="37.111226308283534" lon="14.727019131102399"><ele>403.0</ele><time>2026-04-18T15:01:39.999Z</time></trkpt><trkpt lat="37.11138395184374" lon="14.72707805243722"><ele>399.0</ele><time>2026-04-18T15:01:40.999Z</time></trkpt><trkpt lat="37.111518527404144" lon="14.72712818651349"><ele>399.0</ele><time>2026-04-18T15:01:41.999Z</time></trkpt><trkpt lat="37.11163248256339" lon="14.727175128900736"><ele>399.0</ele><time>2026-04-18T15:01:42.999Z</time></trkpt><trkpt lat="37.11173900049978" lon="14.727222847414499"><ele>399.0</ele><time>2026-04-18T15:01:43.999Z</time></trkpt><trkpt lat="37.111841398716535" lon="14.727276041644641"><ele>399.0</ele><time>2026-04-18T15:01:44.999Z</time></trkpt><trkpt lat="37.111949933355014" lon="14.727339939385157"><ele>399.0</ele><time>2026-04-18T15:01:45.999Z</time></trkpt><trkpt lat="37.1120391332454" lon="14.727406329805731"><ele>399.0</ele><time>2026-04-18T15:01:46.999Z</time></trkpt><trkpt lat="37.11212185783968" lon="14.727474108053741"><ele>399.0</ele><time>2026-04-18T15:01:47.999Z</time></trkpt><trkpt lat="37.11221398545553" lon="14.727551131195142"><ele>399.0</ele><time>2026-04-18T15:01:48.999Z</time></trkpt><trkpt lat="37.112321048092525" lon="14.727619420270782"><ele>399.0</ele><time>2026-04-18T15:01:49.999Z</time></trkpt><trkpt lat="37.11242266312892" lon="14.727696768943233"><ele>399.1666666666667</ele><time>2026-04-18T15:01:50.999Z</time></trkpt><trkpt lat="37.11248778128332" lon="14.727747983601551"><ele>399.33333333333337</ele><time>2026-04-18T15:01:51.999Z</time></trkpt><trkpt lat="37.1125461391599" lon="14.727780631573506"><ele>399.5</ele><time>2026-04-18T15:01:52.999Z</time></trkpt><trkpt lat="37.112610565566946" lon="14.727814997046243"><ele>399.6666666666667</ele><time>2026-04-18T15:01:53.999Z</time></trkpt><trkpt lat="37.11271235794184" lon="14.727806031338103"><ele>399.83333333333337</ele><time>2026-04-18T15:01:55.999Z</time></trkpt><trkpt lat="37.112711920958894" lon="14.727645451602063"><ele>400.0</ele><time>2026-04-18T15:01:57.999Z</time></trkpt><trkpt lat="37.1127607130077" lon="14.72756358183646"><ele>400.00000000000006</ele><time>2026-04-18T15:01:58.999Z</time></trkpt><trkpt lat="37.11278697675254" lon="14.72747951734534"><ele>400.0</ele><time>2026-04-18T15:01:59.999Z</time></trkpt><trkpt lat="37.11283014948648" lon="14.727419945390917"><ele>400.0</ele><time>2026-04-18T15:02:00.999Z</time></trkpt><trkpt lat="37.11293170528974" lon="14.727374991657426"><ele>400.0</ele><time>2026-04-18T15:02:02.999Z</time></trkpt><trkpt lat="37.112996124551806" lon="14.727385358783602"><ele>400.00000000000006</ele><time>2026-04-18T15:02:03.999Z</time></trkpt><trkpt lat="37.113077728365255" lon="14.727499973273298"><ele>400.0</ele><time>2026-04-18T15:02:05.999Z</time></trkpt><trkpt lat="37.113160264388554" lon="14.727572024296581"><ele>400.6666666666667</ele><time>2026-04-18T15:02:06.999Z</time></trkpt><trkpt lat="37.11327227826421" lon="14.727676946236027"><ele>401.33333333333337</ele><time>2026-04-18T15:02:07.999Z</time></trkpt><trkpt lat="37.113399868130955" lon="14.727816989956121"><ele>402.0</ele><time>2026-04-18T15:02:08.999Z</time></trkpt><trkpt lat="37.113515100369995" lon="14.727944686149696"><ele>400.0</ele><time>2026-04-18T15:02:09.999Z</time></trkpt><trkpt lat="37.11360237257126" lon="14.728032986459946"><ele>398.0</ele><time>2026-04-18T15:02:10.999Z</time></trkpt><trkpt lat="37.11369878905623" lon="14.728120101338602"><ele>396.0</ele><time>2026-04-18T15:02:11.999Z</time></trkpt><trkpt lat="37.113776453539195" lon="14.728171470906274"><ele>394.0</ele><time>2026-04-18T15:02:12.999Z</time></trkpt><trkpt lat="37.113855058641505" lon="14.728207324307322"><ele>392.0</ele><time>2026-04-18T15:02:13.999Z</time></trkpt><trkpt lat="37.11395039314963" lon="14.728208487141703"><ele>392.0</ele><time>2026-04-18T15:02:14.999Z</time></trkpt><trkpt lat="37.11405632995159" lon="14.728237545518356"><ele>392.0</ele><time>2026-04-18T15:02:15.999Z</time></trkpt><trkpt lat="37.114171812665425" lon="14.728247284765988"><ele>392.0</ele><time>2026-04-18T15:02:16.999Z</time></trkpt><trkpt lat="37.11429308867014" lon="14.728254513137356"><ele>392.0</ele><time>2026-04-18T15:02:17.999Z</time></trkpt><trkpt lat="37.11442610666275" lon="14.728238557018527"><ele>392.20000000000005</ele><time>2026-04-18T15:02:18.999Z</time></trkpt><trkpt lat="37.114526720170765" lon="14.728207442732398"><ele>392.4</ele><time>2026-04-18T15:02:19.999Z</time></trkpt><trkpt lat="37.114619854781104" lon="14.72817339144176"><ele>392.6</ele><time>2026-04-18T15:02:20.999Z</time></trkpt><trkpt lat="37.11469430264556" lon="14.728071906304905"><ele>392.79999999999995</ele><time>2026-04-18T15:02:21.999Z</time></trkpt><trkpt lat="37.11479428504989" lon="14.728003362133574"><ele>393.0</ele><time>2026-04-18T15:02:22.999Z</time></trkpt><trkpt lat="37.114886059264826" lon="14.727934446910563"><ele>392.8333333333333</ele><time>2026-04-18T15:02:23.999Z</time></trkpt><trkpt lat="37.11495932792887" lon="14.727879428802328"><ele>392.66666666666663</ele><time>2026-04-18T15:02:24.999Z</time></trkpt><trkpt lat="37.11504276701306" lon="14.727809616409516"><ele>392.5</ele><time>2026-04-18T15:02:25.999Z</time></trkpt><trkpt lat="37.11511885829656" lon="14.727748072545221"><ele>392.3333333333333</ele><time>2026-04-18T15:02:26.999Z</time></trkpt><trkpt lat="37.11519345674561" lon="14.72770785567515"><ele>392.16666666666663</ele><time>2026-04-18T15:02:27.999Z</time></trkpt><trkpt lat="37.115270423447875" lon="14.727678312097593"><ele>392.0</ele><time>2026-04-18T15:02:28.999Z</time></trkpt><trkpt lat="37.11536511177938" lon="14.727691801284083"><ele>392.0</ele><time>2026-04-18T15:02:29.999Z</time></trkpt><trkpt lat="37.11545169000426" lon="14.727676003356324"><ele>392.0</ele><time>2026-04-18T15:02:30.999Z</time></trkpt><trkpt lat="37.1155478100191" lon="14.727658464535851"><ele>392.0</ele><time>2026-04-18T15:02:31.999Z</time></trkpt><trkpt lat="37.11565310976509" lon="14.727629651293215"><ele>392.0</ele><time>2026-04-18T15:02:32.998Z</time></trkpt><trkpt lat="37.11574024133522" lon="14.727586725965908"><ele>392.0</ele><time>2026-04-18T15:02:33.998Z</time></trkpt><trkpt lat="37.11584453857796" lon="14.727533604189388"><ele>389.0</ele><time>2026-04-18T15:02:34.998Z</time></trkpt><trkpt lat="37.115955208056015" lon="14.727483593171048"><ele>386.0</ele><time>2026-04-18T15:02:35.998Z</time></trkpt><trkpt lat="37.11608472083268" lon="14.727407381398448"><ele>383.0</ele><time>2026-04-18T15:02:36.998Z</time></trkpt><trkpt lat="37.11620868719878" lon="14.727354845510957"><ele>380.0</ele><time>2026-04-18T15:02:37.998Z</time></trkpt><trkpt lat="37.116337319633416" lon="14.727301769260118"><ele>380.0</ele><time>2026-04-18T15:02:38.998Z</time></trkpt><trkpt lat="37.11644545090276" lon="14.727254790733749"><ele>380.0</ele><time>2026-04-18T15:02:39.998Z</time></trkpt><trkpt lat="37.11656097705605" lon="14.727221087705304"><ele>380.0</ele><time>2026-04-18T15:02:40.998Z</time></trkpt><trkpt lat="37.11666197388361" lon="14.72717844326923"><ele>380.0</ele><time>2026-04-18T15:02:41.998Z</time></trkpt><trkpt lat="37.11676234022561" lon="14.727136065063409"><ele>380.0</ele><time>2026-04-18T15:02:42.998Z</time></trkpt><trkpt lat="37.11684841269659" lon="14.727084042547501"><ele>381.8</ele><time>2026-04-18T15:02:43.998Z</time></trkpt><trkpt lat="37.116941052918655" lon="14.727058379807943"><ele>383.6</ele><time>2026-04-18T15:02:44.998Z</time></trkpt><trkpt lat="37.11703870999179" lon="14.727023389702115"><ele>385.4</ele><time>2026-04-18T15:02:45.998Z</time></trkpt><trkpt lat="37.11713428512282" lon="14.726982830918509"><ele>387.2</ele><time>2026-04-18T15:02:46.998Z</time></trkpt><trkpt lat="37.117236071302266" lon="14.72689301981584"><ele>389.0</ele><time>2026-04-18T15:02:47.998Z</time></trkpt><trkpt lat="37.11733492651331" lon="14.726789589795915"><ele>379.3333333333333</ele><time>2026-04-18T15:02:48.998Z</time></trkpt><trkpt lat="37.11744035192758" lon="14.726622272793527"><ele>369.66666666666663</ele><time>2026-04-18T15:02:49.998Z</time></trkpt><trkpt lat="37.117576204582214" lon="14.726456983427893"><ele>360.0</ele><time>2026-04-18T15:02:51Z</time></trkpt><trkpt lat="37.117676202033465" lon="14.726310891346056"><ele>360.0</ele><time>2026-04-18T15:02:52Z</time></trkpt><trkpt lat="37.117770663882354" lon="14.726137811448226"><ele>360.0</ele><time>2026-04-18T15:02:53Z</time></trkpt><trkpt lat="37.11788299816138" lon="14.725915882746326"><ele>360.0</ele><time>2026-04-18T15:02:54Z</time></trkpt><trkpt lat="37.11799284324429" lon="14.725714052827653"><ele>360.3333333333333</ele><time>2026-04-18T15:02:55Z</time></trkpt><trkpt lat="37.118083770577435" lon="14.725511880848977"><ele>360.66666666666663</ele><time>2026-04-18T15:02:56Z</time></trkpt><trkpt lat="37.11816250490489" lon="14.725372549383989"><ele>361.0</ele><time>2026-04-18T15:02:57Z</time></trkpt><trkpt lat="37.11824073595278" lon="14.72519039900394"><ele>361.0</ele><time>2026-04-18T15:02:58Z</time></trkpt><trkpt lat="37.11831611914261" lon="14.725016226584257"><ele>361.0</ele><time>2026-04-18T15:02:59Z</time></trkpt><trkpt lat="37.11838946990269" lon="14.724820295988083"><ele>361.0</ele><time>2026-04-18T15:03:00Z</time></trkpt><trkpt lat="37.11845116228373" lon="14.724664995340142"><ele>361.0</ele><time>2026-04-18T15:03:01Z</time></trkpt><trkpt lat="37.11850860807214" lon="14.72450580184696"><ele>361.0</ele><time>2026-04-18T15:03:02Z</time></trkpt><trkpt lat="37.11854639445652" lon="14.724323806207835"><ele>361.0</ele><time>2026-04-18T15:03:03Z</time></trkpt><trkpt lat="37.11855182316718" lon="14.724173403555053"><ele>361.0</ele><time>2026-04-18T15:03:04Z</time></trkpt><trkpt lat="37.11858336197324" lon="14.724040797701791"><ele>364.0</ele><time>2026-04-18T15:03:05Z</time></trkpt><trkpt lat="37.11861819476328" lon="14.723921451593647"><ele>367.0</ele><time>2026-04-18T15:03:06Z</time></trkpt><trkpt lat="37.11868443178284" lon="14.72378323436743"><ele>370.0</ele><time>2026-04-18T15:03:07Z</time></trkpt><trkpt lat="37.118766991796996" lon="14.723667490404841"><ele>373.0</ele><time>2026-04-18T15:03:08Z</time></trkpt><trkpt lat="37.11880102386463" lon="14.723583709802638"><ele>376.0</ele><time>2026-04-18T15:03:09Z</time></trkpt><trkpt lat="37.118822445694505" lon="14.723472643255421"><ele>373.0</ele><time>2026-04-18T15:03:10Z</time></trkpt><trkpt lat="37.11882275895656" lon="14.723332302013137"><ele>370.0</ele><time>2026-04-18T15:03:12Z</time></trkpt><trkpt lat="37.1189205505926" lon="14.723256475685742"><ele>367.0</ele><time>2026-04-18T15:03:14Z</time></trkpt><trkpt lat="37.11898943902227" lon="14.72322821706017"><ele>364.0</ele><time>2026-04-18T15:03:15Z</time></trkpt><trkpt lat="37.11905948143679" lon="14.723169948432906"><ele>361.0</ele><time>2026-04-18T15:03:16Z</time></trkpt><trkpt lat="37.1191331141465" lon="14.723066513291718"><ele>361.0</ele><time>2026-04-18T15:03:17Z</time></trkpt><trkpt lat="37.119212453868286" lon="14.722981839348117"><ele>361.0</ele><time>2026-04-18T15:03:18Z</time></trkpt><trkpt lat="37.11930013590772" lon="14.722861021490695"><ele>361.0</ele><time>2026-04-18T15:03:19Z</time></trkpt><trkpt lat="37.11939462054034" lon="14.722686801114154"><ele>361.0</ele><time>2026-04-18T15:03:20Z</time></trkpt><trkpt lat="37.11952337537303" lon="14.722515595745456"><ele>369.66666666666663</ele><time>2026-04-18T15:03:21Z</time></trkpt><trkpt lat="37.11963413087492" lon="14.722319045708142"><ele>378.3333333333333</ele><time>2026-04-18T15:03:22Z</time></trkpt><trkpt lat="37.119739745232934" lon="14.722154717613273"><ele>387.0</ele><time>2026-04-18T15:03:23Z</time></trkpt><trkpt lat="37.119841363688934" lon="14.721979827274303"><ele>384.75</ele><time>2026-04-18T15:03:24Z</time></trkpt><trkpt lat="37.11993481197781" lon="14.721847556038071"><ele>382.5</ele><time>2026-04-18T15:03:25Z</time></trkpt><trkpt lat="37.12004145304465" lon="14.721704936757892"><ele>380.25</ele><time>2026-04-18T15:03:26Z</time></trkpt><trkpt lat="37.12014762936899" lon="14.721588634380092"><ele>378.0</ele><time>2026-04-18T15:03:27Z</time></trkpt><trkpt lat="37.12023763437854" lon="14.721465708307324"><ele>378.0</ele><time>2026-04-18T15:03:28Z</time></trkpt><trkpt lat="37.12030813507715" lon="14.721398785429166"><ele>378.0</ele><time>2026-04-18T15:03:29Z</time></trkpt><trkpt lat="37.12034708336317" lon="14.721316092386902"><ele>378.0</ele><time>2026-04-18T15:03:30Z</time></trkpt><trkpt lat="37.120415283108336" lon="14.721223069129717"><ele>378.0</ele><time>2026-04-18T15:03:32Z</time></trkpt><trkpt lat="37.12049611738138" lon="14.721127631550527"><ele>378.0</ele><time>2026-04-18T15:03:34Z</time></trkpt><trkpt lat="37.12055539219566" lon="14.72107785950265"><ele>378.0</ele><time>2026-04-18T15:03:34.999Z</time></trkpt><trkpt lat="37.120609263052245" lon="14.721025746713709"><ele>374.5</ele><time>2026-04-18T15:03:35.999Z</time></trkpt><trkpt lat="37.120694724293976" lon="14.720981814458181"><ele>371.0</ele><time>2026-04-18T15:03:36.999Z</time></trkpt><trkpt lat="37.12080164169707" lon="14.720898140810615"><ele>367.5</ele><time>2026-04-18T15:03:37.999Z</time></trkpt><trkpt lat="37.12092745538364" lon="14.720771378485303"><ele>364.0</ele><time>2026-04-18T15:03:38.999Z</time></trkpt><trkpt lat="37.12104127265419" lon="14.720651854183181"><ele>364.0</ele><time>2026-04-18T15:03:39.999Z</time></trkpt><trkpt lat="37.12113819913845" lon="14.720535463790188"><ele>364.0</ele><time>2026-04-18T15:03:40.999Z</time></trkpt><trkpt lat="37.12121082986595" lon="14.720427707648144"><ele>364.0</ele><time>2026-04-18T15:03:41.999Z</time></trkpt><trkpt lat="37.12125494515077" lon="14.720318026272443"><ele>364.0</ele><time>2026-04-18T15:03:42.999Z</time></trkpt><trkpt lat="37.121273175734956" lon="14.720225788154092"><ele>364.0</ele><time>2026-04-18T15:03:43.999Z</time></trkpt><trkpt lat="37.12126655244966" lon="14.72014042992826"><ele>367.6</ele><time>2026-04-18T15:03:44.999Z</time></trkpt><trkpt lat="37.12121448165243" lon="14.720032613129138"><ele>371.2</ele><time>2026-04-18T15:03:46.999Z</time></trkpt><trkpt lat="37.12114533458734" lon="14.719943920526317"><ele>374.8</ele><time>2026-04-18T15:03:47.999Z</time></trkpt><trkpt lat="37.12105001420486" lon="14.719827732661109"><ele>378.40000000000003</ele><time>2026-04-18T15:03:48.999Z</time></trkpt><trkpt lat="37.12099513010685" lon="14.71973055342095"><ele>382.0</ele><time>2026-04-18T15:03:49.999Z</time></trkpt><trkpt lat="37.12094261665098" lon="14.719676578775418"><ele>382.0</ele><time>2026-04-18T15:03:50.999Z</time></trkpt><trkpt lat="37.120920541172126" lon="14.719592860949623"><ele>382.0</ele><time>2026-04-18T15:03:52.999Z</time></trkpt><trkpt lat="37.121031908348606" lon="14.719525563397783"><ele>382.0</ele><time>2026-04-18T15:03:55.999Z</time></trkpt><trkpt lat="37.12114388405373" lon="14.719541014701381"><ele>382.0</ele><time>2026-04-18T15:03:57.999Z</time></trkpt><trkpt lat="37.12122572463296" lon="14.71954785782686"><ele>382.0</ele><time>2026-04-18T15:03:58.999Z</time></trkpt><trkpt lat="37.121320609283366" lon="14.71954329987058"><ele>382.0</ele><time>2026-04-18T15:03:59.999Z</time></trkpt><trkpt lat="37.121414366888295" lon="14.719539481316495"><ele>382.0</ele><time>2026-04-18T15:04:00.999Z</time></trkpt><trkpt lat="37.12150104872083" lon="14.719518094688656"><ele>382.0</ele><time>2026-04-18T15:04:01.999Z</time></trkpt><trkpt lat="37.121569999652706" lon="14.719500331642942"><ele>382.0</ele><time>2026-04-18T15:04:02.999Z</time></trkpt><trkpt lat="37.12161934785499" lon="14.719444875989636"><ele>382.0</ele><time>2026-04-18T15:04:03.999Z</time></trkpt><trkpt lat="37.12162573246786" lon="14.719337697791495"><ele>382.0</ele><time>2026-04-18T15:04:04.999Z</time></trkpt><trkpt lat="37.1216399949899" lon="14.719235954012545"><ele>378.5</ele><time>2026-04-18T15:04:05.999Z</time></trkpt><trkpt lat="37.12166927796892" lon="14.719105304831613"><ele>375.0</ele><time>2026-04-18T15:04:06.999Z</time></trkpt><trkpt lat="37.121670258204716" lon="14.718949469658835"><ele>371.5</ele><time>2026-04-18T15:04:07.999Z</time></trkpt><trkpt lat="37.121703535467844" lon="14.71878334007547"><ele>368.0</ele><time>2026-04-18T15:04:08.999Z</time></trkpt><trkpt lat="37.121715743361186" lon="14.718629386251015"><ele>371.0</ele><time>2026-04-18T15:04:09.999Z</time></trkpt><trkpt lat="37.12174766026789" lon="14.718484808047954"><ele>374.0</ele><time>2026-04-18T15:04:10.999Z</time></trkpt><trkpt lat="37.12177843451808" lon="14.71834020067755"><ele>377.0</ele><time>2026-04-18T15:04:11.999Z</time></trkpt><trkpt lat="37.121800754547756" lon="14.718179401416188"><ele>380.0</ele><time>2026-04-18T15:04:12.999Z</time></trkpt><trkpt lat="37.12179986170317" lon="14.718020899958935"><ele>380.0</ele><time>2026-04-18T15:04:13.999Z</time></trkpt><trkpt lat="37.12178754591027" lon="14.71786070618936"><ele>380.0</ele><time>2026-04-18T15:04:14.999Z</time></trkpt><trkpt lat="37.121787937074345" lon="14.717689693693709"><ele>380.0</ele><time>2026-04-18T15:04:15.999Z</time></trkpt><trkpt lat="37.121781478342456" lon="14.717531370595902"><ele>380.0</ele><time>2026-04-18T15:04:16.999Z</time></trkpt><trkpt lat="37.12176914103299" lon="14.717379362465941"><ele>380.2</ele><time>2026-04-18T15:04:17.999Z</time></trkpt><trkpt lat="37.121764793581924" lon="14.717228002823369"><ele>380.4</ele><time>2026-04-18T15:04:18.999Z</time></trkpt><trkpt lat="37.12177276873084" lon="14.717093494784997"><ele>380.6</ele><time>2026-04-18T15:04:19.999Z</time></trkpt><trkpt lat="37.12178046548328" lon="14.716984040243204"><ele>380.8</ele><time>2026-04-18T15:04:20.999Z</time></trkpt><trkpt lat="37.121788409690225" lon="14.71688742677218"><ele>381.0</ele><time>2026-04-18T15:04:21.999Z</time></trkpt><trkpt lat="37.121793950527746" lon="14.716808345081718"><ele>380.1666666666667</ele><time>2026-04-18T15:04:22.999Z</time></trkpt><trkpt lat="37.12179761426414" lon="14.71671744309009"><ele>379.3333333333333</ele><time>2026-04-18T15:04:23.999Z</time></trkpt><trkpt lat="37.12180028225774" lon="14.716638457098705"><ele>378.5</ele><time>2026-04-18T15:04:24.999Z</time></trkpt><trkpt lat="37.121801922801836" lon="14.716539289809004"><ele>377.66666666666663</ele><time>2026-04-18T15:04:25.999Z</time></trkpt><trkpt lat="37.12180271778198" lon="14.7164471802046"><ele>376.8333333333333</ele><time>2026-04-18T15:04:26.999Z</time></trkpt><trkpt lat="37.121793517352295" lon="14.716314570478415"><ele>376.0</ele><time>2026-04-18T15:04:28.999Z</time></trkpt><trkpt lat="37.12180182964588" lon="14.716179076402994"><ele>376.0</ele><time>2026-04-18T15:04:30.999Z</time></trkpt><trkpt lat="37.121802880607255" lon="14.71607879125073"><ele>376.0</ele><time>2026-04-18T15:04:32.999Z</time></trkpt><trkpt lat="37.12179826507193" lon="14.715995009097089"><ele>376.0</ele><time>2026-04-18T15:04:35.999Z</time></trkpt><trkpt lat="37.121793858560146" lon="14.715884985613402"><ele>376.0</ele><time>2026-04-18T15:04:37.999Z</time></trkpt><trkpt lat="37.12178543013138" lon="14.715781138169358"><ele>376.0</ele><time>2026-04-18T15:04:39.998Z</time></trkpt><trkpt lat="37.12176204894529" lon="14.715697533415408"><ele>376.0</ele><time>2026-04-18T15:04:42.998Z</time></trkpt><trkpt lat="37.121779867478665" lon="14.71559247359656"><ele>375.4</ele><time>2026-04-18T15:04:44.998Z</time></trkpt><trkpt lat="37.12179553348732" lon="14.71550518134921"><ele>374.8</ele><time>2026-04-18T15:04:47.998Z</time></trkpt><trkpt lat="37.12178317728962" lon="14.715402226696575"><ele>374.2</ele><time>2026-04-18T15:04:50.998Z</time></trkpt><trkpt lat="37.12171199016116" lon="14.715278695368925"><ele>373.59999999999997</ele><time>2026-04-18T15:05:45.999Z</time></trkpt><trkpt lat="37.121736968588216" lon="14.715201616301735"><ele>373.0</ele><time>2026-04-18T15:05:46.999Z</time></trkpt><trkpt lat="37.121788329576816" lon="14.715009683309937"><ele>373.0</ele><time>2026-04-18T15:05:48.999Z</time></trkpt><trkpt lat="37.12184917449067" lon="14.714926923810529"><ele>373.0</ele><time>2026-04-18T15:05:49.999Z</time></trkpt><trkpt lat="37.12187798936312" lon="14.71479449809158"><ele>373.0</ele><time>2026-04-18T15:05:50.999Z</time></trkpt><trkpt lat="37.121896412882386" lon="14.714679824429595"><ele>373.0</ele><time>2026-04-18T15:05:51.999Z</time></trkpt><trkpt lat="37.12188885456536" lon="14.714597522508098"><ele>373.0</ele><time>2026-04-18T15:05:52.999Z</time></trkpt><trkpt lat="37.12186354452773" lon="14.714490610462814"><ele>373.0</ele><time>2026-04-18T15:05:53.999Z</time></trkpt><trkpt lat="37.12181141286957" lon="14.71440250450991"><ele>372.3333333333333</ele><time>2026-04-18T15:05:54.999Z</time></trkpt><trkpt lat="37.12178891010361" lon="14.714305233334013"><ele>371.66666666666663</ele><time>2026-04-18T15:05:55.999Z</time></trkpt><trkpt lat="37.121800830817534" lon="14.714214506037814"><ele>371.0</ele><time>2026-04-18T15:05:56.999Z</time></trkpt><trkpt lat="37.12188024653685" lon="14.71416940136059"><ele>370.3333333333333</ele><time>2026-04-18T15:05:57.999Z</time></trkpt><trkpt lat="37.12195975749026" lon="14.714150676142962"><ele>369.6666666666667</ele><time>2026-04-18T15:05:58.999Z</time></trkpt><trkpt lat="37.12201685838012" lon="14.71405485757332"><ele>369.0</ele><time>2026-04-18T15:05:59.999Z</time></trkpt><trkpt lat="37.12204568645554" lon="14.713976876932575"><ele>369.0</ele><time>2026-04-18T15:06:00.999Z</time></trkpt><trkpt lat="37.12207136882182" lon="14.713854448340598"><ele>369.0</ele><time>2026-04-18T15:06:02.999Z</time></trkpt><trkpt lat="37.12208800212539" lon="14.713711591598171"><ele>369.0</ele><time>2026-04-18T15:06:04.999Z</time></trkpt><trkpt lat="37.122088847710216" lon="14.71362619825138"><ele>369.0</ele><time>2026-04-18T15:06:05.999Z</time></trkpt><trkpt lat="37.12209405246058" lon="14.713503177024567"><ele>369.0</ele><time>2026-04-18T15:06:07.999Z</time></trkpt><trkpt lat="37.12210969126934" lon="14.7133734430024"><ele>370.1666666666667</ele><time>2026-04-18T15:06:09.999Z</time></trkpt><trkpt lat="37.122122188988286" lon="14.71329507589734"><ele>371.3333333333333</ele><time>2026-04-18T15:06:10.999Z</time></trkpt><trkpt lat="37.12212191338908" lon="14.71321350276417"><ele>372.5</ele><time>2026-04-18T15:06:11.999Z</time></trkpt><trkpt lat="37.12212369441755" lon="14.71311962109366"><ele>373.66666666666663</ele><time>2026-04-18T15:06:12.999Z</time></trkpt><trkpt lat="37.12214885160214" lon="14.713030580017438"><ele>374.8333333333333</ele><time>2026-04-18T15:06:13.999Z</time></trkpt><trkpt lat="37.12222266014729" lon="14.712970626517453"><ele>376.0</ele><time>2026-04-18T15:06:14.999Z</time></trkpt><trkpt lat="37.1222984882381" lon="14.712861147277051"><ele>376.0</ele><time>2026-04-18T15:06:16.999Z</time></trkpt><trkpt lat="37.12234031731539" lon="14.712787934544561"><ele>376.0</ele><time>2026-04-18T15:06:17.999Z</time></trkpt><trkpt lat="37.12237628293598" lon="14.71270046152559"><ele>376.0</ele><time>2026-04-18T15:06:18.999Z</time></trkpt><trkpt lat="37.122394955227286" lon="14.71261039236929"><ele>376.0</ele><time>2026-04-18T15:06:19.999Z</time></trkpt><trkpt lat="37.12243147916752" lon="14.712542179076266"><ele>376.0</ele><time>2026-04-18T15:06:20.999Z</time></trkpt><trkpt lat="37.1224770573099" lon="14.71248484591375"><ele>376.0</ele><time>2026-04-18T15:06:21.999Z</time></trkpt><trkpt lat="37.122537894954114" lon="14.71239534963252"><ele>376.0</ele><time>2026-04-18T15:06:23.999Z</time></trkpt><trkpt lat="37.12261504346341" lon="14.71227859536564"><ele>376.66666666666663</ele><time>2026-04-18T15:06:25.999Z</time></trkpt><trkpt lat="37.12265644063143" lon="14.712195445395102"><ele>377.3333333333333</ele><time>2026-04-18T15:06:26.999Z</time></trkpt><trkpt lat="37.12267161077327" lon="14.71210782426713"><ele>378.0</ele><time>2026-04-18T15:06:27.999Z</time></trkpt><trkpt lat="37.12269976041625" lon="14.712019786039264"><ele>378.6666666666667</ele><time>2026-04-18T15:06:28.999Z</time></trkpt><trkpt lat="37.12272963105333" lon="14.711917144835159"><ele>379.33333333333337</ele><time>2026-04-18T15:06:29.999Z</time></trkpt><trkpt lat="37.12277631647812" lon="14.711781695308519"><ele>380.0</ele><time>2026-04-18T15:06:30.999Z</time></trkpt><trkpt lat="37.12281899440866" lon="14.711684298165853"><ele>380.0</ele><time>2026-04-18T15:06:31.999Z</time></trkpt><trkpt lat="37.1228769109185" lon="14.711624775770208"><ele>380.0</ele><time>2026-04-18T15:06:32.999Z</time></trkpt><trkpt lat="37.122917025459905" lon="14.711558103410717"><ele>380.0</ele><time>2026-04-18T15:06:33.999Z</time></trkpt><trkpt lat="37.12299110095224" lon="14.711550303289894"><ele>380.0</ele><time>2026-04-18T15:06:34.999Z</time></trkpt><trkpt lat="37.12305541707901" lon="14.711530728716799"><ele>380.0</ele><time>2026-04-18T15:06:35.999Z</time></trkpt><trkpt lat="37.123119800604336" lon="14.71148599706479"><ele>380.0</ele><time>2026-04-18T15:06:36.999Z</time></trkpt><trkpt lat="37.12317199329552" lon="14.711439826950553"><ele>380.0</ele><time>2026-04-18T15:06:37.999Z</time></trkpt><trkpt lat="37.12320167471273" lon="14.711349256657005"><ele>376.7142857142857</ele><time>2026-04-18T15:06:38.999Z</time></trkpt><trkpt lat="37.12323755745735" lon="14.711282181323966"><ele>373.42857142857144</ele><time>2026-04-18T15:06:39.999Z</time></trkpt><trkpt lat="37.12328035357595" lon="14.711212936763722"><ele>370.1428571428571</ele><time>2026-04-18T15:06:40.999Z</time></trkpt><trkpt lat="37.1233365585797" lon="14.711146214750963"><ele>366.8571428571429</ele><time>2026-04-18T15:06:41.999Z</time></trkpt><trkpt lat="37.123403998058684" lon="14.711096289801748"><ele>363.57142857142856</ele><time>2026-04-18T15:06:42.999Z</time></trkpt><trkpt lat="37.12346216109966" lon="14.711049516674315"><ele>360.2857142857143</ele><time>2026-04-18T15:06:43.999Z</time></trkpt><trkpt lat="37.12351532665982" lon="14.71100269925816"><ele>357.0</ele><time>2026-04-18T15:06:44.999Z</time></trkpt><trkpt lat="37.12355657418307" lon="14.710941625719741"><ele>357.0</ele><time>2026-04-18T15:06:45.998Z</time></trkpt><trkpt lat="37.123615139389884" lon="14.71091135600752"><ele>357.0</ele><time>2026-04-18T15:06:46.998Z</time></trkpt><trkpt lat="37.12367911105764" lon="14.710848093808682"><ele>357.0</ele><time>2026-04-18T15:06:47.998Z</time></trkpt><trkpt lat="37.123755283681625" lon="14.710773255643685"><ele>357.0</ele><time>2026-04-18T15:06:48.998Z</time></trkpt><trkpt lat="37.12383564025694" lon="14.710706489612699"><ele>357.0</ele><time>2026-04-18T15:06:49.998Z</time></trkpt><trkpt lat="37.12391405520416" lon="14.71064261005031"><ele>357.0</ele><time>2026-04-18T15:06:50.998Z</time></trkpt><trkpt lat="37.123994948418066" lon="14.71057671160341"><ele>357.0</ele><time>2026-04-18T15:06:51.998Z</time></trkpt><trkpt lat="37.12405574441881" lon="14.710487986293256"><ele>357.0</ele><time>2026-04-18T15:06:52.998Z</time></trkpt><trkpt lat="37.12411478740937" lon="14.710440382925038"><ele>357.0</ele><time>2026-04-18T15:06:53.998Z</time></trkpt><trkpt lat="37.12417081662323" lon="14.710337050567725"><ele>357.0</ele><time>2026-04-18T15:06:55.998Z</time></trkpt><trkpt lat="37.124165393863485" lon="14.710246580193493"><ele>357.0</ele><time>2026-04-18T15:06:58.998Z</time></trkpt><trkpt lat="37.12423669591301" lon="14.710123934639993"><ele>356.0</ele><time>2026-04-18T15:07:01.998Z</time></trkpt><trkpt lat="37.124309221435446" lon="14.710003827115818"><ele>355.0</ele><time>2026-04-18T15:07:04Z</time></trkpt><trkpt lat="37.124391237661136" lon="14.709883405640241"><ele>354.0</ele><time>2026-04-18T15:07:06Z</time></trkpt><trkpt lat="37.12444440453364" lon="14.709792537058895"><ele>353.0</ele><time>2026-04-18T15:07:07Z</time></trkpt><trkpt lat="37.12450627721494" lon="14.709713291187661"><ele>352.0</ele><time>2026-04-18T15:07:08Z</time></trkpt><trkpt lat="37.12456969261208" lon="14.709632923109117"><ele>352.0</ele><time>2026-04-18T15:07:09Z</time></trkpt><trkpt lat="37.124626498888034" lon="14.709554944581487"><ele>352.0</ele><time>2026-04-18T15:07:10Z</time></trkpt><trkpt lat="37.12468772488203" lon="14.7094845463677"><ele>352.0</ele><time>2026-04-18T15:07:11Z</time></trkpt><trkpt lat="37.12475775945669" lon="14.709400332676285"><ele>352.0</ele><time>2026-04-18T15:07:12Z</time></trkpt><trkpt lat="37.12482490139719" lon="14.70929111404186"><ele>352.0</ele><time>2026-04-18T15:07:13Z</time></trkpt><trkpt lat="37.12489049003277" lon="14.709187995875405"><ele>349.8</ele><time>2026-04-18T15:07:14Z</time></trkpt><trkpt lat="37.12495337578746" lon="14.709076990115356"><ele>347.6</ele><time>2026-04-18T15:07:15Z</time></trkpt><trkpt lat="37.12503468010144" lon="14.708962797774097"><ele>345.40000000000003</ele><time>2026-04-18T15:07:16Z</time></trkpt><trkpt lat="37.12510379122864" lon="14.708883143563087"><ele>343.20000000000005</ele><time>2026-04-18T15:07:17Z</time></trkpt><trkpt lat="37.125169549470094" lon="14.70881054606318"><ele>341.0</ele><time>2026-04-18T15:07:18Z</time></trkpt><trkpt lat="37.125201175793975" lon="14.708713183701228"><ele>341.0</ele><time>2026-04-18T15:07:19Z</time></trkpt><trkpt lat="37.125246650991116" lon="14.7086386929354"><ele>341.0</ele><time>2026-04-18T15:07:20Z</time></trkpt><trkpt lat="37.12531452271856" lon="14.708574018295755"><ele>341.0</ele><time>2026-04-18T15:07:21Z</time></trkpt><trkpt lat="37.12536464715429" lon="14.708507826432076"><ele>341.0</ele><time>2026-04-18T15:07:22Z</time></trkpt><trkpt lat="37.125395822851324" lon="14.708401086718222"><ele>341.0</ele><time>2026-04-18T15:07:23Z</time></trkpt><trkpt lat="37.125434356089606" lon="14.708274012895393"><ele>341.0</ele><time>2026-04-18T15:07:24Z</time></trkpt><trkpt lat="37.12547514981958" lon="14.708144068400914"><ele>342.5</ele><time>2026-04-18T15:07:25Z</time></trkpt><trkpt lat="37.1255210391226" lon="14.708045071099436"><ele>344.0</ele><time>2026-04-18T15:07:26Z</time></trkpt><trkpt lat="37.1255660008997" lon="14.70795414946801"><ele>345.5</ele><time>2026-04-18T15:07:27Z</time></trkpt><trkpt lat="37.12560290798228" lon="14.707873123349923"><ele>347.0</ele><time>2026-04-18T15:07:28Z</time></trkpt><trkpt lat="37.1256446533999" lon="14.707792736598549"><ele>348.5</ele><time>2026-04-18T15:07:29Z</time></trkpt><trkpt lat="37.12568342770575" lon="14.707689113108257"><ele>350.0</ele><time>2026-04-18T15:07:30Z</time></trkpt><trkpt lat="37.12573750038646" lon="14.707595446227657"><ele>350.0</ele><time>2026-04-18T15:07:31Z</time></trkpt><trkpt lat="37.125792087755855" lon="14.70751310002802"><ele>350.0</ele><time>2026-04-18T15:07:32Z</time></trkpt><trkpt lat="37.12578998513433" lon="14.70739180488765"><ele>350.0</ele><time>2026-04-18T15:07:34Z</time></trkpt><trkpt lat="37.125750356097896" lon="14.707325662756618"><ele>350.0</ele><time>2026-04-18T15:07:36Z</time></trkpt><trkpt lat="37.12567981764773" lon="14.707233897664747"><ele>350.0</ele><time>2026-04-18T15:07:38Z</time></trkpt><trkpt lat="37.12561861794081" lon="14.707170522121132"><ele>350.0</ele><time>2026-04-18T15:07:39Z</time></trkpt><trkpt lat="37.12554023514326" lon="14.707082697205788"><ele>356.25</ele><time>2026-04-18T15:07:40Z</time></trkpt><trkpt lat="37.125459346299635" lon="14.706993540678326"><ele>362.5</ele><time>2026-04-18T15:07:41Z</time></trkpt><trkpt lat="37.125370749090074" lon="14.706898720627109"><ele>368.75</ele><time>2026-04-18T15:07:42Z</time></trkpt><trkpt lat="37.12527368767545" lon="14.706795851192235"><ele>375.0</ele><time>2026-04-18T15:07:43Z</time></trkpt><trkpt lat="37.12514923266673" lon="14.706687836806438"><ele>375.0</ele><time>2026-04-18T15:07:44Z</time></trkpt><trkpt lat="37.12504091499637" lon="14.706584161543008"><ele>375.0</ele><time>2026-04-18T15:07:45Z</time></trkpt><trkpt lat="37.12494044206525" lon="14.706443375171476"><ele>375.0</ele><time>2026-04-18T15:07:46Z</time></trkpt><trkpt lat="37.124821770690865" lon="14.706321711267375"><ele>375.0</ele><time>2026-04-18T15:07:47Z</time></trkpt><trkpt lat="37.12472689467003" lon="14.706217704598897"><ele>378.5</ele><time>2026-04-18T15:07:48Z</time></trkpt><trkpt lat="37.124617589531795" lon="14.706171890603251"><ele>382.0</ele><time>2026-04-18T15:07:48.999Z</time></trkpt><trkpt lat="37.12449400168045" lon="14.706077670758535"><ele>385.5</ele><time>2026-04-18T15:07:49.999Z</time></trkpt><trkpt lat="37.12436010617658" lon="14.705992013485965"><ele>389.0</ele><time>2026-04-18T15:07:50.999Z</time></trkpt><trkpt lat="37.12422648856698" lon="14.705949434748618"><ele>389.0</ele><time>2026-04-18T15:07:51.999Z</time></trkpt><trkpt lat="37.12407361639513" lon="14.705876213428745"><ele>389.0</ele><time>2026-04-18T15:07:52.999Z</time></trkpt><trkpt lat="37.12393166529454" lon="14.705813666594247"><ele>389.0</ele><time>2026-04-18T15:07:53.999Z</time></trkpt><trkpt lat="37.1237941672262" lon="14.705779883953022"><ele>396.0</ele><time>2026-04-18T15:07:54.999Z</time></trkpt><trkpt lat="37.12363444625782" lon="14.705756502329743"><ele>403.0</ele><time>2026-04-18T15:07:55.999Z</time></trkpt><trkpt lat="37.12348354848368" lon="14.705721170299787"><ele>410.0</ele><time>2026-04-18T15:07:56.999Z</time></trkpt><trkpt lat="37.123345573979336" lon="14.705694050867343"><ele>413.0</ele><time>2026-04-18T15:07:57.999Z</time></trkpt><trkpt lat="37.12321381869524" lon="14.705676806191454"><ele>416.0</ele><time>2026-04-18T15:07:58.999Z</time></trkpt><trkpt lat="37.123080850347606" lon="14.705651726668941"><ele>419.0</ele><time>2026-04-18T15:07:59.999Z</time></trkpt><trkpt lat="37.12295645537181" lon="14.705623758022032"><ele>422.0</ele><time>2026-04-18T15:08:00.999Z</time></trkpt><trkpt lat="37.122830249349676" lon="14.70562166942895"><ele>422.0</ele><time>2026-04-18T15:08:01.999Z</time></trkpt><trkpt lat="37.12271826228843" lon="14.705619022044242"><ele>422.0</ele><time>2026-04-18T15:08:02.999Z</time></trkpt><trkpt lat="37.122599504142705" lon="14.705615404221444"><ele>422.0</ele><time>2026-04-18T15:08:03.999Z</time></trkpt><trkpt lat="37.12247773470856" lon="14.705643824622193"><ele>422.0</ele><time>2026-04-18T15:08:04.999Z</time></trkpt><trkpt lat="37.12235123607357" lon="14.705648398787787"><ele>424.0</ele><time>2026-04-18T15:08:05.999Z</time></trkpt><trkpt lat="37.12223178402148" lon="14.705651455327354"><ele>426.0</ele><time>2026-04-18T15:08:06.999Z</time></trkpt><trkpt lat="37.12212189764126" lon="14.70566347535595"><ele>428.00000000000006</ele><time>2026-04-18T15:08:07.999Z</time></trkpt><trkpt lat="37.12202478926888" lon="14.705701666260282"><ele>430.0</ele><time>2026-04-18T15:08:08.999Z</time></trkpt><trkpt lat="37.12192647166793" lon="14.705773253207289"><ele>432.0</ele><time>2026-04-18T15:08:09.999Z</time></trkpt><trkpt lat="37.121833467949024" lon="14.705841356989497"><ele>432.0</ele><time>2026-04-18T15:08:10.999Z</time></trkpt><trkpt lat="37.12175416707735" lon="14.705899287510878"><ele>432.00000000000006</ele><time>2026-04-18T15:08:11.999Z</time></trkpt><trkpt lat="37.12165422395047" lon="14.705890415730721"><ele>432.00000000000006</ele><time>2026-04-18T15:08:12.999Z</time></trkpt><trkpt lat="37.12156266225464" lon="14.705904118654022"><ele>432.0</ele><time>2026-04-18T15:08:13.999Z</time></trkpt><trkpt lat="37.12144726006355" lon="14.705905327295719"><ele>432.0</ele><time>2026-04-18T15:08:14.999Z</time></trkpt><trkpt lat="37.12135884599313" lon="14.705908489392579"><ele>434.0</ele><time>2026-04-18T15:08:15.999Z</time></trkpt><trkpt lat="37.121276808219974" lon="14.705951036606466"><ele>436.00000000000006</ele><time>2026-04-18T15:08:16.999Z</time></trkpt><trkpt lat="37.12120111618864" lon="14.706008554469067"><ele>438.00000000000006</ele><time>2026-04-18T15:08:17.999Z</time></trkpt><trkpt lat="37.121102397882375" lon="14.706071014676075"><ele>440.0</ele><time>2026-04-18T15:08:19.999Z</time></trkpt><trkpt lat="37.12100570011428" lon="14.70613311517792"><ele>442.0</ele><time>2026-04-18T15:08:21.999Z</time></trkpt><trkpt lat="37.12093871580124" lon="14.70624021097198"><ele>443.83333333333337</ele><time>2026-04-18T15:08:23.999Z</time></trkpt><trkpt lat="37.120905750104704" lon="14.70632474677522"><ele>445.6666666666667</ele><time>2026-04-18T15:08:24.999Z</time></trkpt><trkpt lat="37.12086414776791" lon="14.706396800598995"><ele>447.5</ele><time>2026-04-18T15:08:25.999Z</time></trkpt><trkpt lat="37.12082083749482" lon="14.706472525585491"><ele>449.33333333333337</ele><time>2026-04-18T15:08:26.999Z</time></trkpt><trkpt lat="37.120746837838425" lon="14.706531391020524"><ele>451.1666666666667</ele><time>2026-04-18T15:08:27.999Z</time></trkpt><trkpt lat="37.12066386788633" lon="14.706568328046293"><ele>453.0</ele><time>2026-04-18T15:08:28.999Z</time></trkpt><trkpt lat="37.12060172680076" lon="14.706593696349225"><ele>454.0</ele><time>2026-04-18T15:08:29.999Z</time></trkpt><trkpt lat="37.12052330835884" lon="14.706598569920766"><ele>454.99999999999994</ele><time>2026-04-18T15:08:30.999Z</time></trkpt><trkpt lat="37.120411025523296" lon="14.70661692491784"><ele>455.99999999999994</ele><time>2026-04-18T15:08:31.999Z</time></trkpt><trkpt lat="37.12029107480997" lon="14.706615310443523"><ele>457.0</ele><time>2026-04-18T15:08:32.999Z</time></trkpt><trkpt lat="37.12016123888748" lon="14.706628411769733"><ele>458.0</ele><time>2026-04-18T15:08:33.999Z</time></trkpt><trkpt lat="37.12005060596533" lon="14.70666186148721"><ele>458.0</ele><time>2026-04-18T15:08:34.999Z</time></trkpt><trkpt lat="37.119932860536174" lon="14.706654750752366"><ele>457.99999999999994</ele><time>2026-04-18T15:08:35.999Z</time></trkpt><trkpt lat="37.11983338840397" lon="14.706644500842627"><ele>457.99999999999994</ele><time>2026-04-18T15:08:36.999Z</time></trkpt><trkpt lat="37.11973412474693" lon="14.70663664408174"><ele>458.0</ele><time>2026-04-18T15:08:37.999Z</time></trkpt><trkpt lat="37.11963400284967" lon="14.706622620044875"><ele>458.0</ele><time>2026-04-18T15:08:38.999Z</time></trkpt><trkpt lat="37.11954553468581" lon="14.70657889423202"><ele>461.49999999999994</ele><time>2026-04-18T15:08:39.999Z</time></trkpt><trkpt lat="37.119482975200626" lon="14.70654336958198"><ele>465.0</ele><time>2026-04-18T15:08:40.999Z</time></trkpt><trkpt lat="37.11941936344668" lon="14.706481907782472"><ele>468.5</ele><time>2026-04-18T15:08:41.999Z</time></trkpt><trkpt lat="37.11935044859052" lon="14.706465166537114"><ele>472.0</ele><time>2026-04-18T15:08:42.999Z</time></trkpt><trkpt lat="37.119265232201634" lon="14.706448729267887"><ele>475.49999999999994</ele><time>2026-04-18T15:08:43.999Z</time></trkpt><trkpt lat="37.119171113168036" lon="14.706441151802467"><ele>479.0</ele><time>2026-04-18T15:08:44.999Z</time></trkpt><trkpt lat="37.119097541563995" lon="14.706449512013771"><ele>481.16666666666663</ele><time>2026-04-18T15:08:45.999Z</time></trkpt><trkpt lat="37.11901396976847" lon="14.706445921865692"><ele>483.3333333333333</ele><time>2026-04-18T15:08:46.999Z</time></trkpt><trkpt lat="37.1189314658669" lon="14.706444462839318"><ele>485.5</ele><time>2026-04-18T15:08:47.999Z</time></trkpt><trkpt lat="37.11884465414788" lon="14.706437944969645"><ele>487.66666666666663</ele><time>2026-04-18T15:08:48.999Z</time></trkpt><trkpt lat="37.11875214454584" lon="14.706465530648188"><ele>489.8333333333333</ele><time>2026-04-18T15:08:49.999Z</time></trkpt><trkpt lat="37.118662234369616" lon="14.706490855221896"><ele>492.0</ele><time>2026-04-18T15:08:50.999Z</time></trkpt><trkpt lat="37.11856829302278" lon="14.706504152173407"><ele>492.0</ele><time>2026-04-18T15:08:51.999Z</time></trkpt><trkpt lat="37.11847835966133" lon="14.70652767266719"><ele>492.00000000000006</ele><time>2026-04-18T15:08:52.998Z</time></trkpt><trkpt lat="37.11837856222553" lon="14.706550780748465"><ele>492.00000000000006</ele><time>2026-04-18T15:08:53.998Z</time></trkpt><trkpt lat="37.118288840097904" lon="14.706578410651387"><ele>492.0</ele><time>2026-04-18T15:08:54.998Z</time></trkpt><trkpt lat="37.11820659842391" lon="14.706631691391937"><ele>492.0</ele><time>2026-04-18T15:08:55.998Z</time></trkpt><trkpt lat="37.118114334927064" lon="14.706677346570801"><ele>493.6</ele><time>2026-04-18T15:08:56.998Z</time></trkpt><trkpt lat="37.118007081151006" lon="14.706705291543958"><ele>495.20000000000005</ele><time>2026-04-18T15:08:57.998Z</time></trkpt><trkpt lat="37.11791753582669" lon="14.706748806201322"><ele>496.8</ele><time>2026-04-18T15:08:58.998Z</time></trkpt><trkpt lat="37.117825268830465" lon="14.706779909365713"><ele>498.4</ele><time>2026-04-18T15:08:59.998Z</time></trkpt><trkpt lat="37.117737695031266" lon="14.706785903147615"><ele>500.0</ele><time>2026-04-18T15:09:00.998Z</time></trkpt><trkpt lat="37.117660485481295" lon="14.706779387573409"><ele>500.0</ele><time>2026-04-18T15:09:01.998Z</time></trkpt><trkpt lat="37.11756368734632" lon="14.706783700025863"><ele>500.0</ele><time>2026-04-18T15:09:02.998Z</time></trkpt><trkpt lat="37.11746578087697" lon="14.706817256003474"><ele>500.0</ele><time>2026-04-18T15:09:03.998Z</time></trkpt><trkpt lat="37.117381793255916" lon="14.706842403068364"><ele>500.0</ele><time>2026-04-18T15:09:04.998Z</time></trkpt><trkpt lat="37.117277903403334" lon="14.706820774902674"><ele>500.0</ele><time>2026-04-18T15:09:06.998Z</time></trkpt><trkpt lat="37.11727380170766" lon="14.706704597544583"><ele>499.99999999999994</ele><time>2026-04-18T15:09:10Z</time></trkpt><trkpt lat="37.11735306420619" lon="14.70663578390173"><ele>500.0</ele><time>2026-04-18T15:09:14Z</time></trkpt><trkpt lat="37.11741059807732" lon="14.706570626950564"><ele>500.0</ele><time>2026-04-18T15:09:18Z</time></trkpt><trkpt lat="37.11739993205544" lon="14.706469751380665"><ele>500.0</ele><time>2026-04-18T15:20:36.999Z</time></trkpt><trkpt lat="37.11739002267555" lon="14.706355789908127"><ele>499.99999999999994</ele><time>2026-04-18T15:20:38.999Z</time></trkpt><trkpt lat="37.11746807710587" lon="14.706308221962814"><ele>500.0</ele><time>2026-04-18T15:20:40.999Z</time></trkpt><trkpt lat="37.11757706048937" lon="14.706311691505423"><ele>499.99999999999994</ele><time>2026-04-18T15:20:42.999Z</time></trkpt><trkpt lat="37.1176830515849" lon="14.706309328563105"><ele>500.0</ele><time>2026-04-18T15:20:44.999Z</time></trkpt><trkpt lat="37.11780065838692" lon="14.706278027393788"><ele>500.0</ele><time>2026-04-18T15:20:46.999Z</time></trkpt><trkpt lat="37.117864017746456" lon="14.706235478661947"><ele>500.0</ele><time>2026-04-18T15:20:47.999Z</time></trkpt><trkpt lat="37.11791328557999" lon="14.706171387457347"><ele>499.99999999999994</ele><time>2026-04-18T15:20:48.999Z</time></trkpt><trkpt lat="37.117966208324965" lon="14.706096594553806"><ele>500.0</ele><time>2026-04-18T15:20:49.999Z</time></trkpt><trkpt lat="37.11803062550062" lon="14.705997640980463"><ele>501.6</ele><time>2026-04-18T15:20:50.999Z</time></trkpt><trkpt lat="37.118098824638" lon="14.705934071194578"><ele>503.2</ele><time>2026-04-18T15:20:51.999Z</time></trkpt><trkpt lat="37.118173110984465" lon="14.705872735273257"><ele>504.79999999999995</ele><time>2026-04-18T15:20:52.999Z</time></trkpt><trkpt lat="37.11826362189072" lon="14.705823302100784"><ele>506.4</ele><time>2026-04-18T15:20:53.999Z</time></trkpt><trkpt lat="37.11836535987199" lon="14.705771848936992"><ele>508.0</ele><time>2026-04-18T15:20:54.999Z</time></trkpt><trkpt lat="37.11848286055365" lon="14.705713071153426"><ele>508.0</ele><time>2026-04-18T15:20:55.999Z</time></trkpt><trkpt lat="37.11860877335283" lon="14.705666518539266"><ele>507.99999999999994</ele><time>2026-04-18T15:20:56.999Z</time></trkpt><trkpt lat="37.11872663926344" lon="14.705646728520497"><ele>507.99999999999994</ele><time>2026-04-18T15:20:57.999Z</time></trkpt><trkpt lat="37.118817961211356" lon="14.705617109726717"><ele>508.0</ele><time>2026-04-18T15:20:58.999Z</time></trkpt><trkpt lat="37.11890829168007" lon="14.705574248106222"><ele>508.0</ele><time>2026-04-18T15:20:59.999Z</time></trkpt><trkpt lat="37.11901365651495" lon="14.705536148100158"><ele>505.4</ele><time>2026-04-18T15:21:00.999Z</time></trkpt><trkpt lat="37.11910763319081" lon="14.705501144413793"><ele>502.79999999999995</ele><time>2026-04-18T15:21:01.999Z</time></trkpt><trkpt lat="37.11919315623806" lon="14.705434981661444"><ele>500.2</ele><time>2026-04-18T15:21:02.999Z</time></trkpt><trkpt lat="37.1192890688966" lon="14.705373329059418"><ele>497.6</ele><time>2026-04-18T15:21:03.999Z</time></trkpt><trkpt lat="37.119396721284765" lon="14.705311380680037"><ele>495.0</ele><time>2026-04-18T15:21:04.999Z</time></trkpt><trkpt lat="37.11950364539461" lon="14.705245220298764"><ele>500.6</ele><time>2026-04-18T15:21:05.999Z</time></trkpt><trkpt lat="37.11958933026154" lon="14.705170897254169"><ele>506.2</ele><time>2026-04-18T15:21:06.999Z</time></trkpt><trkpt lat="37.11966242874869" lon="14.705115293723788"><ele>511.79999999999995</ele><time>2026-04-18T15:21:07.999Z</time></trkpt><trkpt lat="37.11971391530598" lon="14.705061290184751"><ele>517.4</ele><time>2026-04-18T15:21:08.999Z</time></trkpt><trkpt lat="37.11973599103513" lon="14.704929704276973"><ele>523.0</ele><time>2026-04-18T15:21:10.999Z</time></trkpt><trkpt lat="37.119656984997114" lon="14.704820664772525"><ele>523.0</ele><time>2026-04-18T15:21:12.999Z</time></trkpt><trkpt lat="37.11956059015896" lon="14.704715725037168"><ele>523.0</ele><time>2026-04-18T15:21:14.999Z</time></trkpt><trkpt lat="37.11950400728771" lon="14.70466023504917"><ele>523.0</ele><time>2026-04-18T15:21:15.999Z</time></trkpt><trkpt lat="37.11940927684569" lon="14.704608935958776"><ele>523.0</ele><time>2026-04-18T15:21:16.999Z</time></trkpt><trkpt lat="37.119307678193444" lon="14.704567635730873"><ele>523.0</ele><time>2026-04-18T15:21:17.999Z</time></trkpt><trkpt lat="37.11919173059595" lon="14.70453325597641"><ele>523.0</ele><time>2026-04-18T15:21:18.999Z</time></trkpt><trkpt lat="37.11908572992384" lon="14.704494483883389"><ele>523.0</ele><time>2026-04-18T15:21:19.999Z</time></trkpt><trkpt lat="37.11898460896029" lon="14.704450420302907"><ele>523.0</ele><time>2026-04-18T15:21:20.999Z</time></trkpt><trkpt lat="37.11890981526259" lon="14.704419735569996"><ele>523.0</ele><time>2026-04-18T15:21:21.999Z</time></trkpt><trkpt lat="37.11884073059495" lon="14.704371483501443"><ele>523.0</ele><time>2026-04-18T15:21:22.999Z</time></trkpt><trkpt lat="37.11878670560796" lon="14.704305757274117"><ele>526.6</ele><time>2026-04-18T15:21:23.999Z</time></trkpt><trkpt lat="37.118726578302464" lon="14.70422326233051"><ele>530.1999999999999</ele><time>2026-04-18T15:21:25.999Z</time></trkpt><trkpt lat="37.118635794027924" lon="14.704110491222444"><ele>533.8</ele><time>2026-04-18T15:21:27.998Z</time></trkpt><trkpt lat="37.11856267458802" lon="14.70403341850325"><ele>537.4</ele><time>2026-04-18T15:21:28.998Z</time></trkpt><trkpt lat="37.118493179636275" lon="14.703964796756013"><ele>541.0</ele><time>2026-04-18T15:21:29.998Z</time></trkpt><trkpt lat="37.11843259565079" lon="14.703886554226829"><ele>541.0</ele><time>2026-04-18T15:21:30.998Z</time></trkpt><trkpt lat="37.11835395991775" lon="14.703797242609406"><ele>541.0</ele><time>2026-04-18T15:21:31.998Z</time></trkpt><trkpt lat="37.118273263587355" lon="14.703703832229708"><ele>541.0</ele><time>2026-04-18T15:21:32.998Z</time></trkpt><trkpt lat="37.118203763841045" lon="14.703642822794796"><ele>541.0</ele><time>2026-04-18T15:21:33.998Z</time></trkpt><trkpt lat="37.118125026705016" lon="14.703624738103958"><ele>541.0</ele><time>2026-04-18T15:21:34.998Z</time></trkpt><trkpt lat="37.1180472735789" lon="14.703615237548547"><ele>545.3333333333334</ele><time>2026-04-18T15:21:35.998Z</time></trkpt><trkpt lat="37.11797014762237" lon="14.703613783545949"><ele>549.6666666666667</ele><time>2026-04-18T15:21:36.998Z</time></trkpt><trkpt lat="37.117896975827755" lon="14.703611648081777"><ele>554.0</ele><time>2026-04-18T15:21:37.998Z</time></trkpt><trkpt lat="37.11780830956297" lon="14.70358862037843"><ele>558.3333333333334</ele><time>2026-04-18T15:21:39.998Z</time></trkpt><trkpt lat="37.11778696603833" lon="14.703737763617848"><ele>562.6666666666666</ele><time>2026-04-18T15:21:42.998Z</time></trkpt><trkpt lat="37.1178646011358" lon="14.703789095111803"><ele>567.0</ele><time>2026-04-18T15:21:46Z</time></trkpt><trkpt lat="37.11794025038164" lon="14.703769623415443"><ele>567.0</ele><time>2026-04-18T15:21:48Z</time></trkpt><trkpt lat="37.118034662812114" lon="14.70386289474709"><ele>567.0</ele><time>2026-04-18T15:21:50Z</time></trkpt><trkpt lat="37.11814129356244" lon="14.703924095468437"><ele>567.0</ele><time>2026-04-18T15:21:52Z</time></trkpt><trkpt lat="37.118242953029515" lon="14.704011897201152"><ele>567.0</ele><time>2026-04-18T15:21:54Z</time></trkpt><trkpt lat="37.11830256856458" lon="14.704077516771047"><ele>567.0</ele><time>2026-04-18T15:21:55Z</time></trkpt><trkpt lat="37.1183597902804" lon="14.704148538351241"><ele>561.8000000000001</ele><time>2026-04-18T15:21:56Z</time></trkpt><trkpt lat="37.118420422962885" lon="14.704257761209858"><ele>556.6</ele><time>2026-04-18T15:21:58Z</time></trkpt><trkpt lat="37.118369082689505" lon="14.70438674537032"><ele>551.4000000000001</ele><time>2026-04-18T15:22:00Z</time></trkpt><trkpt lat="37.118350492244325" lon="14.704483145284515"><ele>546.2</ele><time>2026-04-18T15:22:01Z</time></trkpt><trkpt lat="37.11830555627203" lon="14.704581371468539"><ele>541.0</ele><time>2026-04-18T15:22:02Z</time></trkpt><trkpt lat="37.118253842962126" lon="14.704683060841955"><ele>544.1666666666667</ele><time>2026-04-18T15:22:03Z</time></trkpt><trkpt lat="37.11820342978248" lon="14.704788479807812"><ele>547.3333333333334</ele><time>2026-04-18T15:22:04Z</time></trkpt><trkpt lat="37.1181550125083" lon="14.704843973652014"><ele>550.5</ele><time>2026-04-18T15:22:05Z</time></trkpt><trkpt lat="37.118115214226975" lon="14.70490799621566"><ele>553.6666666666666</ele><time>2026-04-18T15:22:06Z</time></trkpt><trkpt lat="37.11806166494756" lon="14.7049878689825"><ele>556.8333333333333</ele><time>2026-04-18T15:22:07Z</time></trkpt><trkpt lat="37.1179965196342" lon="14.70507581884545"><ele>560.0</ele><time>2026-04-18T15:22:08Z</time></trkpt><trkpt lat="37.11791498371013" lon="14.705151976758964"><ele>560.0</ele><time>2026-04-18T15:22:09Z</time></trkpt><trkpt lat="37.11782877772855" lon="14.70522327233734"><ele>560.0</ele><time>2026-04-18T15:22:10Z</time></trkpt><trkpt lat="37.11772147593174" lon="14.705277292927287"><ele>560.0</ele><time>2026-04-18T15:22:11Z</time></trkpt><trkpt lat="37.11762366101056" lon="14.705312960464555"><ele>560.0</ele><time>2026-04-18T15:22:12Z</time></trkpt><trkpt lat="37.11751855953623" lon="14.705332204196768"><ele>560.0</ele><time>2026-04-18T15:22:13Z</time></trkpt><trkpt lat="37.11740538442544" lon="14.705347861906715"><ele>554.25</ele><time>2026-04-18T15:22:14Z</time></trkpt><trkpt lat="37.11725663547684" lon="14.705327151303168"><ele>548.5</ele><time>2026-04-18T15:22:15Z</time></trkpt><trkpt lat="37.117130537839614" lon="14.705349351975688"><ele>542.75</ele><time>2026-04-18T15:22:16Z</time></trkpt><trkpt lat="37.11699881627287" lon="14.70539176703976"><ele>537.0</ele><time>2026-04-18T15:22:17Z</time></trkpt><trkpt lat="37.11684638474488" lon="14.705434207483052"><ele>537.0</ele><time>2026-04-18T15:22:18Z</time></trkpt><trkpt lat="37.11669659592559" lon="14.705454013190492"><ele>537.0</ele><time>2026-04-18T15:22:19Z</time></trkpt><trkpt lat="37.11655811328465" lon="14.705466863548581"><ele>537.0</ele><time>2026-04-18T15:22:20Z</time></trkpt><trkpt lat="37.11641086493972" lon="14.705473203568303"><ele>537.0</ele><time>2026-04-18T15:22:21Z</time></trkpt><trkpt lat="37.11628682778599" lon="14.7054962764613"><ele>542.2</ele><time>2026-04-18T15:22:22Z</time></trkpt><trkpt lat="37.11618548246518" lon="14.705473007962444"><ele>547.4000000000001</ele><time>2026-04-18T15:22:23Z</time></trkpt><trkpt lat="37.11611001960872" lon="14.705490077053735"><ele>552.5999999999999</ele><time>2026-04-18T15:22:24Z</time></trkpt><trkpt lat="37.11596966845874" lon="14.705551212263055"><ele>557.8</ele><time>2026-04-18T15:22:26Z</time></trkpt><trkpt lat="37.11590093324896" lon="14.705580481855629"><ele>563.0</ele><time>2026-04-18T15:22:27Z</time></trkpt><trkpt lat="37.11580646613507" lon="14.70560622830304"><ele>568.1666666666666</ele><time>2026-04-18T15:22:28Z</time></trkpt><trkpt lat="37.115694536862456" lon="14.705627018306188"><ele>573.3333333333333</ele><time>2026-04-18T15:22:29Z</time></trkpt><trkpt lat="37.11559388388815" lon="14.705661225343851"><ele>578.5</ele><time>2026-04-18T15:22:30Z</time></trkpt><trkpt lat="37.11550257934955" lon="14.705648585577276"><ele>583.6666666666666</ele><time>2026-04-18T15:22:30.999Z</time></trkpt><trkpt lat="37.11543361454222" lon="14.705684672194089"><ele>588.8333333333334</ele><time>2026-04-18T15:22:31.999Z</time></trkpt><trkpt lat="37.115369182539" lon="14.705695582168914"><ele>594.0</ele><time>2026-04-18T15:22:32.999Z</time></trkpt><trkpt lat="37.115319089114514" lon="14.705770723628051"><ele>594.0</ele><time>2026-04-18T15:22:33.999Z</time></trkpt><trkpt lat="37.11525721863914" lon="14.705844902987309"><ele>594.0</ele><time>2026-04-18T15:22:34.999Z</time></trkpt><trkpt lat="37.11520432355598" lon="14.70590919238963"><ele>594.0</ele><time>2026-04-18T15:22:35.999Z</time></trkpt><trkpt lat="37.11513985513042" lon="14.705957524549396"><ele>594.0</ele><time>2026-04-18T15:22:36.999Z</time></trkpt><trkpt lat="37.11508685067813" lon="14.706025495055712"><ele>594.0</ele><time>2026-04-18T15:22:37.999Z</time></trkpt><trkpt lat="37.11505360258461" lon="14.706095262255104"><ele>594.0</ele><time>2026-04-18T15:22:38.999Z</time></trkpt><trkpt lat="37.115082136148445" lon="14.706230236872546"><ele>592.8</ele><time>2026-04-18T15:22:40.999Z</time></trkpt><trkpt lat="37.11515273628952" lon="14.706274861181337"><ele>591.5999999999999</ele><time>2026-04-18T15:22:41.999Z</time></trkpt><trkpt lat="37.11523937843597" lon="14.706389401504277"><ele>590.4</ele><time>2026-04-18T15:22:43.999Z</time></trkpt><trkpt lat="37.115309576103044" lon="14.706449094726064"><ele>589.1999999999999</ele><time>2026-04-18T15:22:44.999Z</time></trkpt><trkpt lat="37.115375607838786" lon="14.706515889188367"><ele>588.0</ele><time>2026-04-18T15:22:45.999Z</time></trkpt><trkpt lat="37.11540443843902" lon="14.706637541586334"><ele>588.0</ele><time>2026-04-18T15:22:47.999Z</time></trkpt><trkpt lat="37.11532628026069" lon="14.706746151077606"><ele>588.0</ele><time>2026-04-18T15:22:49.999Z</time></trkpt><trkpt lat="37.11525490859329" lon="14.706810436219655"><ele>588.0</ele><time>2026-04-18T15:22:50.999Z</time></trkpt><trkpt lat="37.11517205209511" lon="14.70687740563326"><ele>588.0</ele><time>2026-04-18T15:22:51.999Z</time></trkpt><trkpt lat="37.115076596066395" lon="14.706977379418598"><ele>588.0</ele><time>2026-04-18T15:22:52.999Z</time></trkpt><trkpt lat="37.11496495009213" lon="14.707041719222936"><ele>591.0</ele><time>2026-04-18T15:22:53.999Z</time></trkpt><trkpt lat="37.11487057943489" lon="14.707116609433141"><ele>594.0</ele><time>2026-04-18T15:22:54.999Z</time></trkpt><trkpt lat="37.114779257338185" lon="14.707192509111577"><ele>597.0</ele><time>2026-04-18T15:22:55.999Z</time></trkpt><trkpt lat="37.11469395213408" lon="14.707284268533115"><ele>600.0</ele><time>2026-04-18T15:22:56.999Z</time></trkpt><trkpt lat="37.114600600717736" lon="14.70736179218553"><ele>603.0</ele><time>2026-04-18T15:22:57.999Z</time></trkpt><trkpt lat="37.11452830684874" lon="14.707462690862181"><ele>603.0</ele><time>2026-04-18T15:22:58.999Z</time></trkpt><trkpt lat="37.1144464851066" lon="14.707524280538383"><ele>603.0</ele><time>2026-04-18T15:22:59.999Z</time></trkpt><trkpt lat="37.11436183501605" lon="14.707598773210309"><ele>603.0</ele><time>2026-04-18T15:23:00.999Z</time></trkpt><trkpt lat="37.11425209075371" lon="14.707675889816523"><ele>603.0</ele><time>2026-04-18T15:23:01.999Z</time></trkpt><trkpt lat="37.11413774926363" lon="14.707744735147513"><ele>605.3333333333334</ele><time>2026-04-18T15:23:02.999Z</time></trkpt><trkpt lat="37.114022143360316" lon="14.7077949934193"><ele>607.6666666666667</ele><time>2026-04-18T15:23:03.999Z</time></trkpt><trkpt lat="37.113865261740884" lon="14.707845381446536"><ele>610.0</ele><time>2026-04-18T15:23:04.999Z</time></trkpt><trkpt lat="37.113699163342154" lon="14.707911059058977"><ele>610.0</ele><time>2026-04-18T15:23:05.999Z</time></trkpt><trkpt lat="37.11356807681672" lon="14.70798666685395"><ele>610.0</ele><time>2026-04-18T15:23:06.999Z</time></trkpt><trkpt lat="37.113448668158156" lon="14.708045853970185"><ele>610.0</ele><time>2026-04-18T15:23:07.999Z</time></trkpt><trkpt lat="37.11332397630335" lon="14.708104989523296"><ele>610.0</ele><time>2026-04-18T15:23:08.999Z</time></trkpt><trkpt lat="37.11320540054038" lon="14.708175639240594"><ele>615.6</ele><time>2026-04-18T15:23:09.999Z</time></trkpt><trkpt lat="37.11306912335428" lon="14.708223083338515"><ele>621.2</ele><time>2026-04-18T15:23:10.999Z</time></trkpt><trkpt lat="37.11295860715988" lon="14.708308567050436"><ele>626.8</ele><time>2026-04-18T15:23:11.999Z</time></trkpt><trkpt lat="37.11287405792801" lon="14.708336033339444"><ele>632.4</ele><time>2026-04-18T15:23:12.999Z</time></trkpt><trkpt lat="37.11278937319814" lon="14.708358510880835"><ele>638.0</ele><time>2026-04-18T15:23:13.999Z</time></trkpt><trkpt lat="37.11269423457351" lon="14.708380745006398"><ele>638.0</ele><time>2026-04-18T15:23:14.999Z</time></trkpt><trkpt lat="37.1125989015098" lon="14.70840389526985"><ele>638.0</ele><time>2026-04-18T15:23:15.999Z</time></trkpt><trkpt lat="37.11250855326736" lon="14.708428929935634"><ele>638.0</ele><time>2026-04-18T15:23:16.999Z</time></trkpt><trkpt lat="37.11239589955727" lon="14.708500699560032"><ele>638.0</ele><time>2026-04-18T15:23:18.999Z</time></trkpt><trkpt lat="37.112365053477916" lon="14.708613133687845"><ele>638.0</ele><time>2026-04-18T15:23:20.999Z</time></trkpt><trkpt lat="37.11243620623519" lon="14.708722545540171"><ele>638.8</ele><time>2026-04-18T15:23:22.999Z</time></trkpt><trkpt lat="37.11249544749237" lon="14.708821728442352"><ele>639.5999999999999</ele><time>2026-04-18T15:23:24.999Z</time></trkpt><trkpt lat="37.11258589595066" lon="14.708894660336245"><ele>640.4000000000001</ele><time>2026-04-18T15:23:26.999Z</time></trkpt><trkpt lat="37.11263642598306" lon="14.708950570369064"><ele>641.2</ele><time>2026-04-18T15:23:27.999Z</time></trkpt><trkpt lat="37.112723202604" lon="14.709009025874725"><ele>642.0</ele><time>2026-04-18T15:23:28.999Z</time></trkpt><trkpt lat="37.11283872211211" lon="14.709045841261108"><ele>642.0</ele><time>2026-04-18T15:23:29.999Z</time></trkpt><trkpt lat="37.112893356208176" lon="14.709111874156925"><ele>642.0</ele><time>2026-04-18T15:23:30.999Z</time></trkpt><trkpt lat="37.11292947024504" lon="14.70919753145696"><ele>642.0</ele><time>2026-04-18T15:23:31.999Z</time></trkpt><trkpt lat="37.11294440882083" lon="14.709303159718965"><ele>642.0</ele><time>2026-04-18T15:23:32.999Z</time></trkpt><trkpt lat="37.113000954290406" lon="14.709356789853798"><ele>642.0</ele><time>2026-04-18T15:23:33.999Z</time></trkpt><trkpt lat="37.113090032544925" lon="14.709358101900179"><ele>642.0</ele><time>2026-04-18T15:23:34.999Z</time></trkpt><trkpt lat="37.11316022017337" lon="14.709364996676852"><ele>642.0</ele><time>2026-04-18T15:23:35.999Z</time></trkpt><trkpt lat="37.11323413779533" lon="14.70933901726568"><ele>642.0</ele><time>2026-04-18T15:23:36.998Z</time></trkpt><trkpt lat="37.11329643320001" lon="14.709293404526683"><ele>642.0</ele><time>2026-04-18T15:23:37.998Z</time></trkpt><trkpt lat="37.11338231963496" lon="14.709240032247376"><ele>642.0</ele><time>2026-04-18T15:23:38.998Z</time></trkpt><trkpt lat="37.11346276054897" lon="14.709242590356562"><ele>642.0</ele><time>2026-04-18T15:23:39.998Z</time></trkpt><trkpt lat="37.113544859886694" lon="14.709280537296348"><ele>642.0</ele><time>2026-04-18T15:23:40.998Z</time></trkpt><trkpt lat="37.11365237900927" lon="14.709322500590279"><ele>638.6666666666666</ele><time>2026-04-18T15:23:41.998Z</time></trkpt><trkpt lat="37.1137393020331" lon="14.70936610004278"><ele>635.3333333333334</ele><time>2026-04-18T15:23:42.998Z</time></trkpt><trkpt lat="37.11381886508088" lon="14.70939184999593"><ele>632.0</ele><time>2026-04-18T15:23:43.998Z</time></trkpt><trkpt lat="37.11390703564459" lon="14.70941649180521"><ele>628.6666666666667</ele><time>2026-04-18T15:23:44.998Z</time></trkpt><trkpt lat="37.11398743601893" lon="14.709457206485425"><ele>625.3333333333334</ele><time>2026-04-18T15:23:45.998Z</time></trkpt><trkpt lat="37.11401710253516" lon="14.709558889009214"><ele>622.0</ele><time>2026-04-18T15:23:46.998Z</time></trkpt><trkpt lat="37.114068742925134" lon="14.709637212570252"><ele>626.6</ele><time>2026-04-18T15:23:47.998Z</time></trkpt><trkpt lat="37.11413523109129" lon="14.709726763431116"><ele>631.2</ele><time>2026-04-18T15:23:48.998Z</time></trkpt><trkpt lat="37.11422826000206" lon="14.709816307094798"><ele>635.8</ele><time>2026-04-18T15:23:49.998Z</time></trkpt><trkpt lat="37.114304679580854" lon="14.709905805334003"><ele>640.4</ele><time>2026-04-18T15:23:51Z</time></trkpt><trkpt lat="37.1143738624098" lon="14.709947386696212"><ele>645.0</ele><time>2026-04-18T15:23:52Z</time></trkpt><trkpt lat="37.11444008969074" lon="14.709975043916696"><ele>645.0</ele><time>2026-04-18T15:23:53Z</time></trkpt><trkpt lat="37.11452452261858" lon="14.709929900739548"><ele>645.0</ele><time>2026-04-18T15:23:54Z</time></trkpt><trkpt lat="37.114599934880914" lon="14.709883919769624"><ele>645.0</ele><time>2026-04-18T15:23:55Z</time></trkpt><trkpt lat="37.114693979992815" lon="14.709853407183735"><ele>645.0</ele><time>2026-04-18T15:23:56Z</time></trkpt><trkpt lat="37.114795926875814" lon="14.709843547536959"><ele>645.0</ele><time>2026-04-18T15:23:57Z</time></trkpt><trkpt lat="37.11488017593814" lon="14.709873788943675"><ele>645.1666666666666</ele><time>2026-04-18T15:23:58Z</time></trkpt><trkpt lat="37.11496775592023" lon="14.709892809556893"><ele>645.3333333333334</ele><time>2026-04-18T15:23:59Z</time></trkpt><trkpt lat="37.115051279866876" lon="14.709902886546555"><ele>645.5</ele><time>2026-04-18T15:24:00Z</time></trkpt><trkpt lat="37.11512725382722" lon="14.709906124769306"><ele>645.6666666666667</ele><time>2026-04-18T15:24:01Z</time></trkpt><trkpt lat="37.11519698578415" lon="14.709851034000398"><ele>645.8333333333334</ele><time>2026-04-18T15:24:02Z</time></trkpt><trkpt lat="37.11526388007062" lon="14.709767725077906"><ele>646.0</ele><time>2026-04-18T15:24:03Z</time></trkpt><trkpt lat="37.11535187561032" lon="14.709721354227932"><ele>646.0</ele><time>2026-04-18T15:24:04Z</time></trkpt><trkpt lat="37.1154337162145" lon="14.709655636834228"><ele>646.0</ele><time>2026-04-18T15:24:05Z</time></trkpt><trkpt lat="37.11550647345754" lon="14.70960087238407"><ele>646.0</ele><time>2026-04-18T15:24:06Z</time></trkpt><trkpt lat="37.11557690935373" lon="14.70956763032885"><ele>646.0</ele><time>2026-04-18T15:24:07Z</time></trkpt><trkpt lat="37.11565162236295" lon="14.709555580184286"><ele>646.0</ele><time>2026-04-18T15:24:08Z</time></trkpt><trkpt lat="37.11572640030552" lon="14.70955404378433"><ele>646.0</ele><time>2026-04-18T15:24:09Z</time></trkpt><trkpt lat="37.115793788797255" lon="14.709559854018819"><ele>648.0</ele><time>2026-04-18T15:24:10Z</time></trkpt><trkpt lat="37.115887844954266" lon="14.709625223289386"><ele>650.0</ele><time>2026-04-18T15:24:12Z</time></trkpt><trkpt lat="37.1159594987447" lon="14.709755143311323"><ele>652.0</ele><time>2026-04-18T15:24:14Z</time></trkpt><trkpt lat="37.11602074834636" lon="14.70982807262402"><ele>654.0</ele><time>2026-04-18T15:24:15Z</time></trkpt><trkpt lat="37.116071657101685" lon="14.709946294427503"><ele>656.0</ele><time>2026-04-18T15:24:16Z</time></trkpt><trkpt lat="37.116161623266144" lon="14.71003084163081"><ele>656.0</ele><time>2026-04-18T15:24:17Z</time></trkpt><trkpt lat="37.116235991587125" lon="14.710089129148875"><ele>656.0</ele><time>2026-04-18T15:24:18Z</time></trkpt><trkpt lat="37.11629717883957" lon="14.71014038930062"><ele>656.0</ele><time>2026-04-18T15:24:19Z</time></trkpt><trkpt lat="37.1163804542619" lon="14.71010186775058"><ele>656.0</ele><time>2026-04-18T15:24:20Z</time></trkpt><trkpt lat="37.11645411400002" lon="14.710094924770727"><ele>656.0</ele><time>2026-04-18T15:24:21Z</time></trkpt><trkpt lat="37.11653720008295" lon="14.71005934990615"><ele>656.0</ele><time>2026-04-18T15:24:22Z</time></trkpt><trkpt lat="37.116594354560796" lon="14.710025926645432"><ele>654.1666666666666</ele><time>2026-04-18T15:24:23Z</time></trkpt><trkpt lat="37.116672354634154" lon="14.709982112752572"><ele>652.3333333333333</ele><time>2026-04-18T15:24:25Z</time></trkpt><trkpt lat="37.11660450621764" lon="14.709893585352958"><ele>650.5</ele><time>2026-04-18T15:26:16Z</time></trkpt><trkpt lat="37.11667503761977" lon="14.709908664179133"><ele>648.6666666666666</ele><time>2026-04-18T15:30:13.999Z</time></trkpt><trkpt lat="37.11674621302894" lon="14.709893201138604"><ele>646.8333333333334</ele><time>2026-04-18T15:31:38.999Z</time></trkpt><trkpt lat="37.116813727331674" lon="14.70986709254799"><ele>645.0</ele><time>2026-04-18T15:31:41.999Z</time></trkpt><trkpt lat="37.11698552930619" lon="14.710048967890604"><ele>645.0</ele><time>2026-04-18T15:31:47.999Z</time></trkpt><trkpt lat="37.11687065548907" lon="14.710197346320282"><ele>645.0</ele><time>2026-04-18T15:31:48.999Z</time></trkpt><trkpt lat="37.116881584705496" lon="14.710344359186346"><ele>645.0</ele><time>2026-04-18T15:31:50.999Z</time></trkpt><trkpt lat="37.116840751217616" lon="14.710466842069872"><ele>645.0</ele><time>2026-04-18T15:31:52.998Z</time></trkpt><trkpt lat="37.116785254968896" lon="14.710510091018284"><ele>642.5</ele><time>2026-04-18T15:31:54.998Z</time></trkpt><trkpt lat="37.11671621481326" lon="14.710533886434991"><ele>640.0</ele><time>2026-04-18T15:31:57.998Z</time></trkpt><trkpt lat="37.11663714424444" lon="14.710569663773818"><ele>637.5</ele><time>2026-04-18T15:31:59.998Z</time></trkpt><trkpt lat="37.11638145745927" lon="14.710687017061913"><ele>635.0</ele><time>2026-04-18T15:32:01.998Z</time></trkpt><trkpt lat="37.11629565655076" lon="14.710753208099584"><ele>634.5</ele><time>2026-04-18T15:32:02.998Z</time></trkpt><trkpt lat="37.116223614141994" lon="14.710799326671893"><ele>634.0</ele><time>2026-04-18T15:32:03.998Z</time></trkpt><trkpt lat="37.11615673556474" lon="14.71086472576854"><ele>633.5</ele><time>2026-04-18T15:32:04.998Z</time></trkpt><trkpt lat="37.11610985879897" lon="14.710920292756919"><ele>633.0</ele><time>2026-04-18T15:32:05.998Z</time></trkpt><trkpt lat="37.11583699084375" lon="14.71112096230149"><ele>633.0</ele><time>2026-04-18T15:32:06.998Z</time></trkpt><trkpt lat="37.11639110375911" lon="14.711816032534548"><ele>625.8</ele><time>2026-04-18T15:32:07.998Z</time></trkpt><trkpt lat="37.11640038408733" lon="14.711944090955162"><ele>618.5999999999999</ele><time>2026-04-18T15:32:08.998Z</time></trkpt><trkpt lat="37.11640260967171" lon="14.71207291950409"><ele>611.4000000000001</ele><time>2026-04-18T15:32:09.998Z</time></trkpt><trkpt lat="37.11640424540548" lon="14.712176425767918"><ele>604.2</ele><time>2026-04-18T15:32:10.998Z</time></trkpt><trkpt lat="37.116407291159646" lon="14.712257624509864"><ele>597.0</ele><time>2026-04-18T15:32:11.998Z</time></trkpt><trkpt lat="37.11633744583147" lon="14.712343367369666"><ele>597.0</ele><time>2026-04-18T15:32:13.998Z</time></trkpt><trkpt lat="37.11627282918016" lon="14.71235177744777"><ele>597.0</ele><time>2026-04-18T15:32:14.999Z</time></trkpt><trkpt lat="37.11620511320306" lon="14.712327011711503"><ele>597.0</ele><time>2026-04-18T15:32:15.999Z</time></trkpt><trkpt lat="37.116113997474294" lon="14.712312580205833"><ele>597.0</ele><time>2026-04-18T15:32:16.999Z</time></trkpt><trkpt lat="37.11600637650982" lon="14.71232485268543"><ele>597.0</ele><time>2026-04-18T15:32:17.999Z</time></trkpt><trkpt lat="37.11588331956802" lon="14.71233511150927"><ele>597.0</ele><time>2026-04-18T15:32:18.999Z</time></trkpt><trkpt lat="37.11575076435077" lon="14.712342942931054"><ele>597.0</ele><time>2026-04-18T15:32:19.999Z</time></trkpt><trkpt lat="37.1156240167334" lon="14.712324047312944"><ele>597.0</ele><time>2026-04-18T15:32:20.999Z</time></trkpt><trkpt lat="37.11551950772447" lon="14.712310413812403"><ele>597.0</ele><time>2026-04-18T15:32:21.999Z</time></trkpt><trkpt lat="37.11544136069651" lon="14.712309029490722"><ele>597.0</ele><time>2026-04-18T15:32:22.999Z</time></trkpt><trkpt lat="37.11537686883536" lon="14.712325506675091"><ele>595.0</ele><time>2026-04-18T15:32:24Z</time></trkpt><trkpt lat="37.115304309146616" lon="14.71248647511495"><ele>593.0</ele><time>2026-04-18T15:32:26Z</time></trkpt><trkpt lat="37.11527553623992" lon="14.712596707459443"><ele>591.0</ele><time>2026-04-18T15:32:27Z</time></trkpt><trkpt lat="37.115239069256155" lon="14.712713290805299"><ele>589.0</ele><time>2026-04-18T15:32:28Z</time></trkpt><trkpt lat="37.115184109052834" lon="14.712795561533634"><ele>587.0</ele><time>2026-04-18T15:32:29Z</time></trkpt><trkpt lat="37.11511259903372" lon="14.712848001921643"><ele>587.0</ele><time>2026-04-18T15:32:30Z</time></trkpt><trkpt lat="37.11501924918465" lon="14.712885348827331"><ele>587.0</ele><time>2026-04-18T15:32:31Z</time></trkpt><trkpt lat="37.11491653304421" lon="14.712930093477974"><ele>587.0</ele><time>2026-04-18T15:32:32Z</time></trkpt><trkpt lat="37.11482256810376" lon="14.712963905987552"><ele>587.0</ele><time>2026-04-18T15:32:33Z</time></trkpt><trkpt lat="37.114760822628895" lon="14.713019099241256"><ele>587.0</ele><time>2026-04-18T15:32:34Z</time></trkpt><trkpt lat="37.11473049633116" lon="14.713098486857143"><ele>588.1666666666666</ele><time>2026-04-18T15:32:35Z</time></trkpt><trkpt lat="37.11471571543653" lon="14.713197977598115"><ele>589.3333333333333</ele><time>2026-04-18T15:32:36Z</time></trkpt><trkpt lat="37.114716171611015" lon="14.713302054262575"><ele>590.5</ele><time>2026-04-18T15:32:37Z</time></trkpt><trkpt lat="37.114744380546036" lon="14.71339102426087"><ele>591.6666666666666</ele><time>2026-04-18T15:32:38Z</time></trkpt><trkpt lat="37.114794494282606" lon="14.7134761280283"><ele>592.8333333333334</ele><time>2026-04-18T15:32:39Z</time></trkpt><trkpt lat="37.11485315625581" lon="14.713575076792909"><ele>594.0</ele><time>2026-04-18T15:32:40Z</time></trkpt><trkpt lat="37.114940875377286" lon="14.713666755127486"><ele>594.0</ele><time>2026-04-18T15:32:41Z</time></trkpt><trkpt lat="37.11503789648132" lon="14.71375809423234"><ele>594.0</ele><time>2026-04-18T15:32:42Z</time></trkpt><trkpt lat="37.11515455018511" lon="14.713861402254846"><ele>594.0</ele><time>2026-04-18T15:32:43Z</time></trkpt><trkpt lat="37.115267297812224" lon="14.713967333899191"><ele>594.0</ele><time>2026-04-18T15:32:44Z</time></trkpt><trkpt lat="37.11535692144763" lon="14.714068636140574"><ele>594.0</ele><time>2026-04-18T15:32:45Z</time></trkpt><trkpt lat="37.11543061581654" lon="14.714158975421865"><ele>594.0</ele><time>2026-04-18T15:32:45.999Z</time></trkpt><trkpt lat="37.11549022195045" lon="14.714268785782542"><ele>594.0</ele><time>2026-04-18T15:32:46.999Z</time></trkpt><trkpt lat="37.11554233500916" lon="14.714386041661847"><ele>594.0</ele><time>2026-04-18T15:32:47.999Z</time></trkpt><trkpt lat="37.11558795143161" lon="14.714511046493241"><ele>594.0</ele><time>2026-04-18T15:32:48.999Z</time></trkpt><trkpt lat="37.11563248003066" lon="14.714633786103205"><ele>591.0</ele><time>2026-04-18T15:32:49.999Z</time></trkpt><trkpt lat="37.115659928905984" lon="14.71474064619853"><ele>588.0</ele><time>2026-04-18T15:32:50.999Z</time></trkpt><trkpt lat="37.115657903866676" lon="14.714822407220222"><ele>585.0</ele><time>2026-04-18T15:32:51.999Z</time></trkpt><trkpt lat="37.115623928347645" lon="14.714895773080988"><ele>582.0</ele><time>2026-04-18T15:32:52.999Z</time></trkpt><trkpt lat="37.11556100513416" lon="14.714944037546514"><ele>579.0</ele><time>2026-04-18T15:32:53.999Z</time></trkpt><trkpt lat="37.115490986853935" lon="14.714988973469838"><ele>576.0</ele><time>2026-04-18T15:32:54.999Z</time></trkpt><trkpt lat="37.11539125037932" lon="14.715026906169756"><ele>576.0</ele><time>2026-04-18T15:32:55.999Z</time></trkpt><trkpt lat="37.11526896298139" lon="14.715099297338332"><ele>576.0</ele><time>2026-04-18T15:32:56.999Z</time></trkpt><trkpt lat="37.115128843445824" lon="14.715166145135782"><ele>576.0</ele><time>2026-04-18T15:32:57.999Z</time></trkpt><trkpt lat="37.115012714649744" lon="14.715225809046872"><ele>576.0</ele><time>2026-04-18T15:32:58.999Z</time></trkpt><trkpt lat="37.11492699117856" lon="14.715283085011091"><ele>573.6666666666666</ele><time>2026-04-18T15:32:59.999Z</time></trkpt><trkpt lat="37.114869122580274" lon="14.71533931860307"><ele>571.3333333333334</ele><time>2026-04-18T15:33:00.999Z</time></trkpt><trkpt lat="37.114837926627324" lon="14.715425437661228"><ele>569.0</ele><time>2026-04-18T15:33:01.999Z</time></trkpt><trkpt lat="37.1148354879252" lon="14.715533830111434"><ele>566.6666666666667</ele><time>2026-04-18T15:33:02.999Z</time></trkpt><trkpt lat="37.114852348246544" lon="14.715639450659662"><ele>564.3333333333334</ele><time>2026-04-18T15:33:03.999Z</time></trkpt><trkpt lat="37.114906925825075" lon="14.715727653685297"><ele>562.0</ele><time>2026-04-18T15:33:04.999Z</time></trkpt><trkpt lat="37.11495538327778" lon="14.715827010402405"><ele>562.0</ele><time>2026-04-18T15:33:05.999Z</time></trkpt><trkpt lat="37.11501038191939" lon="14.715938778592996"><ele>562.0</ele><time>2026-04-18T15:33:06.999Z</time></trkpt><trkpt lat="37.11507009395864" lon="14.716036518253235"><ele>562.0</ele><time>2026-04-18T15:33:07.999Z</time></trkpt><trkpt lat="37.115163705760345" lon="14.716108090454643"><ele>562.0</ele><time>2026-04-18T15:33:08.999Z</time></trkpt><trkpt lat="37.115268423886036" lon="14.71617841147839"><ele>562.0</ele><time>2026-04-18T15:33:09.999Z</time></trkpt><trkpt lat="37.11538251917617" lon="14.716273159067113"><ele>558.8000000000001</ele><time>2026-04-18T15:33:10.999Z</time></trkpt><trkpt lat="37.11547313798885" lon="14.716379538159911"><ele>555.6</ele><time>2026-04-18T15:33:11.999Z</time></trkpt><trkpt lat="37.11553539605096" lon="14.71649369748662"><ele>552.4000000000001</ele><time>2026-04-18T15:33:12.999Z</time></trkpt><trkpt lat="37.115617529629766" lon="14.716571704549263"><ele>549.2</ele><time>2026-04-18T15:33:13.999Z</time></trkpt><trkpt lat="37.11571696423842" lon="14.716621121179298"><ele>546.0</ele><time>2026-04-18T15:33:14.999Z</time></trkpt><trkpt lat="37.115831074455414" lon="14.716692843145873"><ele>546.0</ele><time>2026-04-18T15:33:15.999Z</time></trkpt><trkpt lat="37.11596081267831" lon="14.716798787378506"><ele>546.0</ele><time>2026-04-18T15:33:16.999Z</time></trkpt><trkpt lat="37.1160635970476" lon="14.716882601950468"><ele>546.0</ele><time>2026-04-18T15:33:17.999Z</time></trkpt><trkpt lat="37.11613994091419" lon="14.716948734659383"><ele>546.0</ele><time>2026-04-18T15:33:18.999Z</time></trkpt><trkpt lat="37.11620224191466" lon="14.717022738046795"><ele>550.4</ele><time>2026-04-18T15:33:19.999Z</time></trkpt><trkpt lat="37.116255003596436" lon="14.717112254651212"><ele>554.8</ele><time>2026-04-18T15:33:20.999Z</time></trkpt><trkpt lat="37.11628277735224" lon="14.717221311346965"><ele>559.1999999999999</ele><time>2026-04-18T15:33:21.999Z</time></trkpt><trkpt lat="37.11628695831079" lon="14.717342601660464"><ele>563.6</ele><time>2026-04-18T15:33:22.999Z</time></trkpt><trkpt lat="37.11627667164168" lon="14.717484393231095"><ele>568.0</ele><time>2026-04-18T15:33:23.999Z</time></trkpt><trkpt lat="37.116263813554646" lon="14.717633431454646"><ele>570.8</ele><time>2026-04-18T15:33:24.999Z</time></trkpt><trkpt lat="37.11625755971287" lon="14.717767150469138"><ele>573.5999999999999</ele><time>2026-04-18T15:33:25.999Z</time></trkpt><trkpt lat="37.11628481263189" lon="14.717880450855523"><ele>576.4000000000001</ele><time>2026-04-18T15:33:26.999Z</time></trkpt><trkpt lat="37.116335097828824" lon="14.71797560868727"><ele>579.2</ele><time>2026-04-18T15:33:27.999Z</time></trkpt><trkpt lat="37.116403851302984" lon="14.71805554716737"><ele>582.0</ele><time>2026-04-18T15:33:28.999Z</time></trkpt><trkpt lat="37.116483199155894" lon="14.718121768614374"><ele>582.0</ele><time>2026-04-18T15:33:29.999Z</time></trkpt><trkpt lat="37.11656386732853" lon="14.71819231790372"><ele>582.0</ele><time>2026-04-18T15:33:30.999Z</time></trkpt><trkpt lat="37.11661747758512" lon="14.718274882860186"><ele>582.0</ele><time>2026-04-18T15:33:31.999Z</time></trkpt><trkpt lat="37.116676211884766" lon="14.7183772063862"><ele>582.0</ele><time>2026-04-18T15:33:32.999Z</time></trkpt><trkpt lat="37.116733203784676" lon="14.718498365638048"><ele>582.0</ele><time>2026-04-18T15:33:33.999Z</time></trkpt><trkpt lat="37.116794347382985" lon="14.718639581345885"><ele>574.25</ele><time>2026-04-18T15:33:34.999Z</time></trkpt><trkpt lat="37.11686465790299" lon="14.7187573374963"><ele>566.5</ele><time>2026-04-18T15:33:35.999Z</time></trkpt><trkpt lat="37.116975952697764" lon="14.71887908328185"><ele>558.75</ele><time>2026-04-18T15:33:36.999Z</time></trkpt><trkpt lat="37.11705756932518" lon="14.718979757653232"><ele>551.0</ele><time>2026-04-18T15:33:37.999Z</time></trkpt><trkpt lat="37.117151618509624" lon="14.719088719041814"><ele>551.0</ele><time>2026-04-18T15:33:38.999Z</time></trkpt><trkpt lat="37.11725517008231" lon="14.719198720901144"><ele>551.0</ele><time>2026-04-18T15:33:39.999Z</time></trkpt><trkpt lat="37.1173272751516" lon="14.719298129136533"><ele>551.0</ele><time>2026-04-18T15:33:40.999Z</time></trkpt><trkpt lat="37.1174012087469" lon="14.719392708540875"><ele>551.0</ele><time>2026-04-18T15:33:41.999Z</time></trkpt><trkpt lat="37.117480158842305" lon="14.719494498703659"><ele>546.5</ele><time>2026-04-18T15:33:42.999Z</time></trkpt><trkpt lat="37.11756055132973" lon="14.719595000978254"><ele>542.0</ele><time>2026-04-18T15:33:43.999Z</time></trkpt><trkpt lat="37.1176457219411" lon="14.719691477205807"><ele>537.5</ele><time>2026-04-18T15:33:44.999Z</time></trkpt><trkpt lat="37.11775274238452" lon="14.719798441636474"><ele>533.0</ele><time>2026-04-18T15:33:45.999Z</time></trkpt><trkpt lat="37.11787723005533" lon="14.719905325885348"><ele>533.0</ele><time>2026-04-18T15:33:46.999Z</time></trkpt><trkpt lat="37.118008133468194" lon="14.719986928833851"><ele>533.0</ele><time>2026-04-18T15:33:47.999Z</time></trkpt><trkpt lat="37.11811124174892" lon="14.720068255632071"><ele>533.0</ele><time>2026-04-18T15:33:48.999Z</time></trkpt><trkpt lat="37.11820658242498" lon="14.720112352194713"><ele>533.0</ele><time>2026-04-18T15:33:49.999Z</time></trkpt><trkpt lat="37.11831107252507" lon="14.720149985410915"><ele>525.8333333333333</ele><time>2026-04-18T15:33:50.999Z</time></trkpt><trkpt lat="37.11839710027679" lon="14.72020774235756"><ele>518.6666666666666</ele><time>2026-04-18T15:33:51.999Z</time></trkpt><trkpt lat="37.118450419257044" lon="14.720253192583053"><ele>511.5</ele><time>2026-04-18T15:33:52.999Z</time></trkpt><trkpt lat="37.11851982969505" lon="14.72035513122999"><ele>504.33333333333337</ele><time>2026-04-18T15:33:54.999Z</time></trkpt><trkpt lat="37.11857661570507" lon="14.720310697777988"><ele>497.1666666666667</ele><time>2026-04-18T15:33:58.999Z</time></trkpt><trkpt lat="37.11853689610719" lon="14.720234886220524"><ele>490.0</ele><time>2026-04-18T15:34:00.999Z</time></trkpt><trkpt lat="37.11841420297517" lon="14.720116551450733"><ele>490.0</ele><time>2026-04-18T15:34:02.999Z</time></trkpt><trkpt lat="37.1183187302011" lon="14.720025805625955"><ele>490.0</ele><time>2026-04-18T15:34:03.999Z</time></trkpt><trkpt lat="37.118238484023344" lon="14.719926176130201"><ele>490.0</ele><time>2026-04-18T15:34:04.999Z</time></trkpt><trkpt lat="37.11816231231984" lon="14.71984912260104"><ele>490.0</ele><time>2026-04-18T15:34:05.999Z</time></trkpt><trkpt lat="37.118078473621885" lon="14.719784258358956"><ele>490.0</ele><time>2026-04-18T15:34:06.999Z</time></trkpt><trkpt lat="37.1180166890806" lon="14.7197150369752"><ele>498.6</ele><time>2026-04-18T15:34:07.999Z</time></trkpt><trkpt lat="37.11793476364884" lon="14.719608100314911"><ele>507.2</ele><time>2026-04-18T15:34:09.999Z</time></trkpt><trkpt lat="37.117927163822934" lon="14.719518437907436"><ele>515.8</ele><time>2026-04-18T15:34:12.999Z</time></trkpt><trkpt lat="37.11801362067319" lon="14.719531434698759"><ele>524.4</ele><time>2026-04-18T15:34:15.999Z</time></trkpt><trkpt lat="37.11807348252366" lon="14.71956731078971"><ele>533.0</ele><time>2026-04-18T15:34:16.998Z</time></trkpt><trkpt lat="37.118161260961394" lon="14.719643386908375"><ele>524.4</ele><time>2026-04-18T15:34:17.998Z</time></trkpt><trkpt lat="37.118262019653066" lon="14.719695355496865"><ele>515.8</ele><time>2026-04-18T15:34:18.998Z</time></trkpt><trkpt lat="37.118377481106926" lon="14.719772616988836"><ele>507.2</ele><time>2026-04-18T15:34:19.998Z</time></trkpt><trkpt lat="37.11847010755167" lon="14.719819895832517"><ele>498.6</ele><time>2026-04-18T15:34:21Z</time></trkpt><trkpt lat="37.11856743621226" lon="14.719874971925014"><ele>490.0</ele><time>2026-04-18T15:34:22Z</time></trkpt><trkpt lat="37.11866146890015" lon="14.719927848292182"><ele>490.0</ele><time>2026-04-18T15:34:23Z</time></trkpt><trkpt lat="37.11876214352034" lon="14.719973557928137"><ele>490.0</ele><time>2026-04-18T15:34:24Z</time></trkpt><trkpt lat="37.11886428373524" lon="14.72002096993376"><ele>490.0</ele><time>2026-04-18T15:34:25Z</time></trkpt><trkpt lat="37.11896682070401" lon="14.72007376740753"><ele>490.0</ele><time>2026-04-18T15:34:26Z</time></trkpt><trkpt lat="37.11905286896762" lon="14.72012146630577"><ele>490.0</ele><time>2026-04-18T15:34:27Z</time></trkpt><trkpt lat="37.11912492410878" lon="14.720174822861674"><ele>489.2</ele><time>2026-04-18T15:34:28Z</time></trkpt><trkpt lat="37.119179091244625" lon="14.72024090101935"><ele>488.4</ele><time>2026-04-18T15:34:29Z</time></trkpt><trkpt lat="37.11922239664751" lon="14.720372412372122"><ele>487.6</ele><time>2026-04-18T15:34:31Z</time></trkpt><trkpt lat="37.119167250515666" lon="14.720494998375276"><ele>486.8</ele><time>2026-04-18T15:34:33Z</time></trkpt><trkpt lat="37.119102082664384" lon="14.720596051381301"><ele>486.0</ele><time>2026-04-18T15:34:35Z</time></trkpt><trkpt lat="37.11906293512752" lon="14.720663418409625"><ele>486.0</ele><time>2026-04-18T15:34:36Z</time></trkpt><trkpt lat="37.11901145509013" lon="14.720746068197926"><ele>486.0</ele><time>2026-04-18T15:34:37Z</time></trkpt><trkpt lat="37.11895033185952" lon="14.720861360856938"><ele>486.0</ele><time>2026-04-18T15:34:38Z</time></trkpt><trkpt lat="37.11888639603636" lon="14.720983412801944"><ele>486.0</ele><time>2026-04-18T15:34:39Z</time></trkpt><trkpt lat="37.118820350838305" lon="14.721127129263433"><ele>486.0</ele><time>2026-04-18T15:34:40Z</time></trkpt><trkpt lat="37.11875400919488" lon="14.721291884402843"><ele>480.25</ele><time>2026-04-18T15:34:41Z</time></trkpt><trkpt lat="37.11869048964631" lon="14.721426824502025"><ele>474.5</ele><time>2026-04-18T15:34:42Z</time></trkpt><trkpt lat="37.118638922362315" lon="14.721569287554088"><ele>468.75</ele><time>2026-04-18T15:34:43Z</time></trkpt><trkpt lat="37.11858213563648" lon="14.721713695192257"><ele>463.0</ele><time>2026-04-18T15:34:44Z</time></trkpt><trkpt lat="37.11846997424919" lon="14.72184964305651"><ele>459.2</ele><time>2026-04-18T15:34:45Z</time></trkpt><trkpt lat="37.118423994679034" lon="14.721968759156647"><ele>455.4</ele><time>2026-04-18T15:34:46Z</time></trkpt><trkpt lat="37.11841751076386" lon="14.722068955067336"><ele>451.59999999999997</ele><time>2026-04-18T15:34:47Z</time></trkpt><trkpt lat="37.118400618343316" lon="14.722173788843598"><ele>447.79999999999995</ele><time>2026-04-18T15:34:48Z</time></trkpt><trkpt lat="37.118354968165136" lon="14.722255666621887"><ele>444.0</ele><time>2026-04-18T15:34:49Z</time></trkpt><trkpt lat="37.118228320042085" lon="14.722318749897138"><ele>444.0</ele><time>2026-04-18T15:34:51Z</time></trkpt><trkpt lat="37.118143847891126" lon="14.722325892128145"><ele>444.0</ele><time>2026-04-18T15:34:52Z</time></trkpt><trkpt lat="37.118074009147264" lon="14.722301246066973"><ele>444.0</ele><time>2026-04-18T15:34:53Z</time></trkpt><trkpt lat="37.11798681965019" lon="14.722297724408113"><ele>444.0</ele><time>2026-04-18T15:34:54Z</time></trkpt><trkpt lat="37.11784253172204" lon="14.72229759625426"><ele>444.0</ele><time>2026-04-18T15:34:55Z</time></trkpt><trkpt lat="37.11769980501238" lon="14.722311047650141"><ele>444.0</ele><time>2026-04-18T15:34:56Z</time></trkpt><trkpt lat="37.11755693567611" lon="14.722356739977709"><ele>444.0</ele><time>2026-04-18T15:34:57Z</time></trkpt><trkpt lat="37.117464852682936" lon="14.722363670635307"><ele>444.0</ele><time>2026-04-18T15:34:58Z</time></trkpt><trkpt lat="37.117392803464355" lon="14.72238128393971"><ele>444.0</ele><time>2026-04-18T15:34:59Z</time></trkpt><trkpt lat="37.117303563746276" lon="14.722408948024642"><ele>444.0</ele><time>2026-04-18T15:35:02Z</time></trkpt><trkpt lat="37.11722608086293" lon="14.722449625605948"><ele>449.8333333333333</ele><time>2026-04-18T15:35:04Z</time></trkpt><trkpt lat="37.11721243597325" lon="14.722546109274022"><ele>455.66666666666663</ele><time>2026-04-18T15:35:06Z</time></trkpt><trkpt lat="37.11723778474545" lon="14.722658357666944"><ele>461.5</ele><time>2026-04-18T15:35:08Z</time></trkpt><trkpt lat="37.117300436781655" lon="14.722736657625024"><ele>467.3333333333333</ele><time>2026-04-18T15:35:10Z</time></trkpt><trkpt lat="37.117303998004424" lon="14.722818025137716"><ele>473.16666666666663</ele><time>2026-04-18T15:36:10.999Z</time></trkpt><trkpt lat="37.11734667425952" lon="14.722880348526694"><ele>479.0</ele><time>2026-04-18T15:36:11.999Z</time></trkpt><trkpt lat="37.11739214788323" lon="14.722973345931303"><ele>472.3333333333333</ele><time>2026-04-18T15:36:12.999Z</time></trkpt><trkpt lat="37.11741709989352" lon="14.723066888415039"><ele>465.66666666666663</ele><time>2026-04-18T15:36:13.999Z</time></trkpt><trkpt lat="37.11745856884948" lon="14.723186094769556"><ele>459.0</ele><time>2026-04-18T15:36:14.999Z</time></trkpt><trkpt lat="37.1175061556674" lon="14.723287666834413"><ele>452.33333333333337</ele><time>2026-04-18T15:36:15.999Z</time></trkpt><trkpt lat="37.11755618346478" lon="14.723364902250115"><ele>445.6666666666667</ele><time>2026-04-18T15:36:16.999Z</time></trkpt><trkpt lat="37.117598199711196" lon="14.7234348118841"><ele>439.0</ele><time>2026-04-18T15:36:17.999Z</time></trkpt><trkpt lat="37.11762190554242" lon="14.723516511908931"><ele>437.6</ele><time>2026-04-18T15:36:18.999Z</time></trkpt><trkpt lat="37.117632551254864" lon="14.72360662026105"><ele>436.2</ele><time>2026-04-18T15:36:19.999Z</time></trkpt><trkpt lat="37.11761690183198" lon="14.72370557208633"><ele>434.80000000000007</ele><time>2026-04-18T15:36:20.999Z</time></trkpt><trkpt lat="37.11758692151446" lon="14.723829366614854"><ele>433.40000000000003</ele><time>2026-04-18T15:36:21.999Z</time></trkpt><trkpt lat="37.117541617889444" lon="14.723955083165007"><ele>432.0</ele><time>2026-04-18T15:36:22.999Z</time></trkpt><trkpt lat="37.11749351377144" lon="14.724069861783926"><ele>432.0</ele><time>2026-04-18T15:36:23.999Z</time></trkpt><trkpt lat="37.11746489723605" lon="14.724167277505684"><ele>432.00000000000006</ele><time>2026-04-18T15:36:24.999Z</time></trkpt><trkpt lat="37.117407174527585" lon="14.72427419711115"><ele>432.00000000000006</ele><time>2026-04-18T15:36:25.999Z</time></trkpt><trkpt lat="37.11731563525549" lon="14.724374987481983"><ele>432.0</ele><time>2026-04-18T15:36:27Z</time></trkpt><trkpt lat="37.117232630942986" lon="14.724481091534566"><ele>432.0</ele><time>2026-04-18T15:36:28Z</time></trkpt><trkpt lat="37.1171509002197" lon="14.724622195048378"><ele>436.75</ele><time>2026-04-18T15:36:29Z</time></trkpt><trkpt lat="37.117067876729784" lon="14.724769266671988"><ele>441.5</ele><time>2026-04-18T15:36:30Z</time></trkpt><trkpt lat="37.116992638189366" lon="14.724905807464697"><ele>446.25</ele><time>2026-04-18T15:36:31Z</time></trkpt><trkpt lat="37.11694487743263" lon="14.725035759864982"><ele>451.0</ele><time>2026-04-18T15:36:32Z</time></trkpt><trkpt lat="37.11689420780919" lon="14.725147847606232"><ele>448.4</ele><time>2026-04-18T15:36:33Z</time></trkpt><trkpt lat="37.11685160667837" lon="14.725241037814307"><ele>445.8</ele><time>2026-04-18T15:36:34Z</time></trkpt><trkpt lat="37.11678845204129" lon="14.725303588592666"><ele>443.19999999999993</ele><time>2026-04-18T15:36:35Z</time></trkpt><trkpt lat="37.11664492508956" lon="14.725396849644584"><ele>440.59999999999997</ele><time>2026-04-18T15:36:37Z</time></trkpt><trkpt lat="37.116546450031265" lon="14.725459145319581"><ele>438.0</ele><time>2026-04-18T15:36:38Z</time></trkpt><trkpt lat="37.116433289183014" lon="14.72554182055916"><ele>438.0</ele><time>2026-04-18T15:36:39Z</time></trkpt><trkpt lat="37.11635616154464" lon="14.72557007176972"><ele>438.0</ele><time>2026-04-18T15:36:40Z</time></trkpt><trkpt lat="37.116289194251905" lon="14.725582949865466"><ele>438.0</ele><time>2026-04-18T15:36:41Z</time></trkpt><trkpt lat="37.1162174451622" lon="14.725568332427635"><ele>438.0</ele><time>2026-04-18T15:36:42Z</time></trkpt><trkpt lat="37.11614843137877" lon="14.725535493812004"><ele>438.0</ele><time>2026-04-18T15:36:43Z</time></trkpt><trkpt lat="37.116060901768016" lon="14.725490901099986"><ele>438.0</ele><time>2026-04-18T15:36:44Z</time></trkpt><trkpt lat="37.11594925050255" lon="14.725433980235472"><ele>438.0</ele><time>2026-04-18T15:36:45Z</time></trkpt><trkpt lat="37.1158359391634" lon="14.725375864760188"><ele>437.99999999999994</ele><time>2026-04-18T15:36:46Z</time></trkpt><trkpt lat="37.11572090370092" lon="14.725338322427191"><ele>437.99999999999994</ele><time>2026-04-18T15:36:47Z</time></trkpt><trkpt lat="37.115625011113835" lon="14.725313569725937"><ele>438.0</ele><time>2026-04-18T15:36:48Z</time></trkpt><trkpt lat="37.11556588115181" lon="14.725266282836152"><ele>438.0</ele><time>2026-04-18T15:36:49Z</time></trkpt><trkpt lat="37.115479639787665" lon="14.725180593131762"><ele>441.0</ele><time>2026-04-18T15:36:51Z</time></trkpt><trkpt lat="37.11543371524693" lon="14.725093523312989"><ele>443.99999999999994</ele><time>2026-04-18T15:36:52Z</time></trkpt><trkpt lat="37.11538731976873" lon="14.724992434708195"><ele>446.99999999999994</ele><time>2026-04-18T15:36:53Z</time></trkpt><trkpt lat="37.11531970315358" lon="14.724880231422755"><ele>450.0</ele><time>2026-04-18T15:36:54Z</time></trkpt><trkpt lat="37.11525728068115" lon="14.724777143617812"><ele>453.0</ele><time>2026-04-18T15:36:55Z</time></trkpt><trkpt lat="37.115189287463195" lon="14.72467081713148"><ele>453.0</ele><time>2026-04-18T15:36:56Z</time></trkpt><trkpt lat="37.11511808615352" lon="14.724544343014735"><ele>453.0</ele><time>2026-04-18T15:36:57Z</time></trkpt><trkpt lat="37.1150232446563" lon="14.724417225734287"><ele>453.0</ele><time>2026-04-18T15:36:58Z</time></trkpt><trkpt lat="37.114931082692145" lon="14.724306288069005"><ele>453.0</ele><time>2026-04-18T15:36:59Z</time></trkpt><trkpt lat="37.11485230185091" lon="14.724229975018037"><ele>458.5</ele><time>2026-04-18T15:37:00Z</time></trkpt><trkpt lat="37.1147946859904" lon="14.724147524452363"><ele>464.0</ele><time>2026-04-18T15:37:01Z</time></trkpt><trkpt lat="37.11476028031742" lon="14.724076060051498"><ele>469.5</ele><time>2026-04-18T15:37:02Z</time></trkpt><trkpt lat="37.11472182758305" lon="14.724007002971346"><ele>475.0</ele><time>2026-04-18T15:37:03Z</time></trkpt><trkpt lat="37.114621463969875" lon="14.724019953824289"><ele>480.5</ele><time>2026-04-18T15:37:05Z</time></trkpt><trkpt lat="37.11456184411302" lon="14.724067961704058"><ele>486.0</ele><time>2026-04-18T15:37:06Z</time></trkpt><trkpt lat="37.114516493389345" lon="14.72412588006429"><ele>486.0</ele><time>2026-04-18T15:37:07Z</time></trkpt><trkpt lat="37.11445200344814" lon="14.724190975196"><ele>486.0</ele><time>2026-04-18T15:37:08Z</time></trkpt><trkpt lat="37.114420034367406" lon="14.724266867854933"><ele>486.0</ele><time>2026-04-18T15:37:09Z</time></trkpt><trkpt lat="37.114403604284064" lon="14.72434525526099"><ele>486.0</ele><time>2026-04-18T15:37:10Z</time></trkpt><trkpt lat="37.114382976356815" lon="14.724438203968617"><ele>486.0</ele><time>2026-04-18T15:37:11Z</time></trkpt><trkpt lat="37.114374961410284" lon="14.724537402581248"><ele>486.0</ele><time>2026-04-18T15:37:12Z</time></trkpt><trkpt lat="37.11435259921208" lon="14.72461796711204"><ele>486.0</ele><time>2026-04-18T15:37:13Z</time></trkpt><trkpt lat="37.1143457946708" lon="14.724718432224028"><ele>482.8333333333333</ele><time>2026-04-18T15:37:15Z</time></trkpt><trkpt lat="37.11432577857763" lon="14.724832978781391"><ele>479.66666666666663</ele><time>2026-04-18T15:37:28Z</time></trkpt><trkpt lat="37.11431121496245" lon="14.724943599962241"><ele>476.5</ele><time>2026-04-18T15:37:29Z</time></trkpt><trkpt lat="37.114270348448954" lon="14.725029254766499"><ele>473.3333333333333</ele><time>2026-04-18T15:37:30Z</time></trkpt><trkpt lat="37.11421518352791" lon="14.725117409569922"><ele>470.16666666666663</ele><time>2026-04-18T15:37:31Z</time></trkpt><trkpt lat="37.114165683612875" lon="14.725194477324678"><ele>467.0</ele><time>2026-04-18T15:37:32Z</time></trkpt><trkpt lat="37.11411683546206" lon="14.725247214066066"><ele>463.66666666666663</ele><time>2026-04-18T15:37:33Z</time></trkpt><trkpt lat="37.114038136610446" lon="14.7252864530707"><ele>460.3333333333333</ele><time>2026-04-18T15:37:34Z</time></trkpt><trkpt lat="37.11396124212157" lon="14.72533422229611"><ele>457.0</ele><time>2026-04-18T15:37:34.999Z</time></trkpt><trkpt lat="37.11389351932476" lon="14.72537522118084"><ele>453.66666666666663</ele><time>2026-04-18T15:37:35.999Z</time></trkpt><trkpt lat="37.11387914568789" lon="14.725467497538359"><ele>450.3333333333333</ele><time>2026-04-18T15:37:37.999Z</time></trkpt><trkpt lat="37.11396387266581" lon="14.725537025796791"><ele>447.0</ele><time>2026-04-18T15:37:39.999Z</time></trkpt><trkpt lat="37.11412451547393" lon="14.725520411975843"><ele>447.0</ele><time>2026-04-18T15:37:41.999Z</time></trkpt><trkpt lat="37.1142364374646" lon="14.725540191826783"><ele>447.00000000000006</ele><time>2026-04-18T15:37:42.999Z</time></trkpt><trkpt lat="37.114339206959094" lon="14.72555699890647"><ele>447.00000000000006</ele><time>2026-04-18T15:37:43.999Z</time></trkpt><trkpt lat="37.11441621535815" lon="14.725619282491115"><ele>447.0</ele><time>2026-04-18T15:37:44.999Z</time></trkpt><trkpt lat="37.11449508004356" lon="14.725699486578646"><ele>447.0</ele><time>2026-04-18T15:37:46.999Z</time></trkpt><trkpt lat="37.114505016259166" lon="14.72583760095272"><ele>447.0</ele><time>2026-04-18T15:37:48.999Z</time></trkpt><trkpt lat="37.114484377084494" lon="14.725920541672561"><ele>447.0</ele><time>2026-04-18T15:37:49.999Z</time></trkpt><trkpt lat="37.114446548793225" lon="14.725993284942854"><ele>447.0</ele><time>2026-04-18T15:37:50.999Z</time></trkpt><trkpt lat="37.114387501360696" lon="14.726045797469645"><ele>447.0</ele><time>2026-04-18T15:37:51.999Z</time></trkpt><trkpt lat="37.114308688833205" lon="14.726124656072846"><ele>447.0</ele><time>2026-04-18T15:37:52.999Z</time></trkpt><trkpt lat="37.114215293722225" lon="14.726174648619086"><ele>447.0</ele><time>2026-04-18T15:37:53.999Z</time></trkpt><trkpt lat="37.11413025126802" lon="14.72621611815635"><ele>441.0</ele><time>2026-04-18T15:37:54.999Z</time></trkpt><trkpt lat="37.11404533103062" lon="14.726241968841034"><ele>435.00000000000006</ele><time>2026-04-18T15:37:55.999Z</time></trkpt><trkpt lat="37.11395539387299" lon="14.726236487971223"><ele>429.0</ele><time>2026-04-18T15:37:56.999Z</time></trkpt><trkpt lat="37.11386807881613" lon="14.726218058600038"><ele>423.0</ele><time>2026-04-18T15:37:57.999Z</time></trkpt><trkpt lat="37.113773570476155" lon="14.726227423272109"><ele>417.0</ele><time>2026-04-18T15:37:58.999Z</time></trkpt><trkpt lat="37.113676954319" lon="14.726264715967112"><ele>417.0</ele><time>2026-04-18T15:37:59.999Z</time></trkpt><trkpt lat="37.11359060699398" lon="14.726298989038742"><ele>417.0</ele><time>2026-04-18T15:38:00.999Z</time></trkpt><trkpt lat="37.11351816964401" lon="14.726306977024596"><ele>417.0</ele><time>2026-04-18T15:38:01.999Z</time></trkpt><trkpt lat="37.11345123187343" lon="14.726285317590571"><ele>417.0</ele><time>2026-04-18T15:38:02.999Z</time></trkpt><trkpt lat="37.11338993449587" lon="14.72626427374081"><ele>417.0</ele><time>2026-04-18T15:38:03.999Z</time></trkpt><trkpt lat="37.11331345285333" lon="14.726235699441"><ele>417.0</ele><time>2026-04-18T15:38:05.999Z</time></trkpt><trkpt lat="37.113285292314465" lon="14.726388680873148"><ele>417.0</ele><time>2026-04-18T15:38:07.999Z</time></trkpt><trkpt lat="37.11337899407171" lon="14.726521282556334"><ele>417.0</ele><time>2026-04-18T15:38:09.999Z</time></trkpt><trkpt lat="37.113458554299854" lon="14.726592449337739"><ele>417.0</ele><time>2026-04-18T15:38:10.999Z</time></trkpt><trkpt lat="37.11354875962893" lon="14.726682918968013"><ele>417.0</ele><time>2026-04-18T15:38:11.999Z</time></trkpt><trkpt lat="37.113629190633446" lon="14.726784428003644"><ele>417.0</ele><time>2026-04-18T15:38:12.999Z</time></trkpt><trkpt lat="37.11369913667252" lon="14.726893566753851"><ele>417.0</ele><time>2026-04-18T15:38:13.999Z</time></trkpt><trkpt lat="37.113752548029034" lon="14.72696945771309"><ele>417.0</ele><time>2026-04-18T15:38:14.999Z</time></trkpt><trkpt lat="37.113795961554985" lon="14.727054097659478"><ele>417.0</ele><time>2026-04-18T15:38:15.999Z</time></trkpt><trkpt lat="37.11382552767521" lon="14.727134447872237"><ele>417.0</ele><time>2026-04-18T15:38:16.999Z</time></trkpt><trkpt lat="37.11386987322355" lon="14.727196038020193"><ele>417.0</ele><time>2026-04-18T15:38:17.999Z</time></trkpt><trkpt lat="37.113967490465186" lon="14.72720066784156"><ele>415.6</ele><time>2026-04-18T15:38:18.999Z</time></trkpt><trkpt lat="37.11405344422643" lon="14.727205849902205"><ele>414.20000000000005</ele><time>2026-04-18T15:38:19.999Z</time></trkpt><trkpt lat="37.114157379480055" lon="14.727224634375606"><ele>412.8</ele><time>2026-04-18T15:38:20.999Z</time></trkpt><trkpt lat="37.11427347347234" lon="14.727246508486784"><ele>411.4</ele><time>2026-04-18T15:38:21.999Z</time></trkpt><trkpt lat="37.11438222254234" lon="14.727266646218462"><ele>410.0</ele><time>2026-04-18T15:38:22.999Z</time></trkpt><trkpt lat="37.11447063344114" lon="14.727307420671739"><ele>409.99999999999994</ele><time>2026-04-18T15:38:23.999Z</time></trkpt><trkpt lat="37.11452913918019" lon="14.727346083593165"><ele>410.0</ele><time>2026-04-18T15:38:24.999Z</time></trkpt><trkpt lat="37.11458402454636" lon="14.727425726549638"><ele>410.0</ele><time>2026-04-18T15:38:26.999Z</time></trkpt><trkpt lat="37.11455865865766" lon="14.72752287919293"><ele>410.0</ele><time>2026-04-18T15:38:28.999Z</time></trkpt><trkpt lat="37.114506429644216" lon="14.727583515459639"><ele>409.99999999999994</ele><time>2026-04-18T15:38:30.999Z</time></trkpt><trkpt lat="37.11438521229812" lon="14.727678302128039"><ele>410.0</ele><time>2026-04-18T15:38:33.001Z</time></trkpt><trkpt lat="37.114298609430776" lon="14.727781978491437"><ele>406.6</ele><time>2026-04-18T15:38:34.001Z</time></trkpt><trkpt lat="37.11420445565105" lon="14.727864613908302"><ele>403.2</ele><time>2026-04-18T15:38:35.001Z</time></trkpt><trkpt lat="37.1141182216755" lon="14.727931618151189"><ele>399.79999999999995</ele><time>2026-04-18T15:38:36.001Z</time></trkpt><trkpt lat="37.11404015073475" lon="14.727973780310247"><ele>396.4</ele><time>2026-04-18T15:38:37.001Z</time></trkpt><trkpt lat="37.113966158572694" lon="14.728018984823166"><ele>393.0</ele><time>2026-04-18T15:38:38.001Z</time></trkpt><trkpt lat="37.11388517451336" lon="14.728071508114356"><ele>392.8333333333333</ele><time>2026-04-18T15:38:39.001Z</time></trkpt><trkpt lat="37.11379317040001" lon="14.728102213339046"><ele>392.66666666666663</ele><time>2026-04-18T15:38:41Z</time></trkpt><trkpt lat="37.113725933146405" lon="14.728128566502473"><ele>392.5</ele><time>2026-04-18T15:38:43Z</time></trkpt><trkpt lat="37.11367868698773" lon="14.728052944412527"><ele>392.3333333333333</ele><time>2026-04-18T15:38:46Z</time></trkpt><trkpt lat="37.11360490817137" lon="14.727982153326698"><ele>392.16666666666663</ele><time>2026-04-18T15:39:06Z</time></trkpt><trkpt lat="37.11354626137354" lon="14.727943416953142"><ele>392.0</ele><time>2026-04-18T15:39:07Z</time></trkpt><trkpt lat="37.113462526607485" lon="14.727848685131313"><ele>392.0</ele><time>2026-04-18T15:39:08Z</time></trkpt><trkpt lat="37.11336720896756" lon="14.727746233835477"><ele>392.0</ele><time>2026-04-18T15:39:09Z</time></trkpt><trkpt lat="37.11327792713365" lon="14.727629858604978"><ele>392.0</ele><time>2026-04-18T15:39:10Z</time></trkpt><trkpt lat="37.1131751073124" lon="14.727535423026074"><ele>392.0</ele><time>2026-04-18T15:39:11Z</time></trkpt><trkpt lat="37.1130696216178" lon="14.727451878931083"><ele>393.6</ele><time>2026-04-18T15:39:12Z</time></trkpt><trkpt lat="37.11298029903404" lon="14.727397632997688"><ele>395.20000000000005</ele><time>2026-04-18T15:39:13Z</time></trkpt><trkpt lat="37.11290519378476" lon="14.727365793676602"><ele>396.8</ele><time>2026-04-18T15:39:14Z</time></trkpt><trkpt lat="37.112802464188924" lon="14.727393034528225"><ele>398.4</ele><time>2026-04-18T15:39:16Z</time></trkpt><trkpt lat="37.112718394030466" lon="14.727499905876071"><ele>400.0</ele><time>2026-04-18T15:39:18Z</time></trkpt><trkpt lat="37.112699347945316" lon="14.727584682140899"><ele>400.0</ele><time>2026-04-18T15:39:19Z</time></trkpt><trkpt lat="37.11267227182603" lon="14.727730423886157"><ele>400.0</ele><time>2026-04-18T15:39:21Z</time></trkpt><trkpt lat="37.11258610755216" lon="14.727796992228233"><ele>400.0</ele><time>2026-04-18T15:39:23Z</time></trkpt><trkpt lat="37.112504839021874" lon="14.727708170142478"><ele>400.0</ele><time>2026-04-18T15:39:25Z</time></trkpt><trkpt lat="37.112438555100496" lon="14.727688116930121"><ele>400.0</ele><time>2026-04-18T15:39:26Z</time></trkpt><trkpt lat="37.112353835058535" lon="14.727626135611102"><ele>399.75</ele><time>2026-04-18T15:39:27Z</time></trkpt><trkpt lat="37.11224946087398" lon="14.727550139427878"><ele>399.5</ele><time>2026-04-18T15:39:28Z</time></trkpt><trkpt lat="37.1121390884852" lon="14.727438417704974"><ele>399.25</ele><time>2026-04-18T15:39:29Z</time></trkpt><trkpt lat="37.112001737315744" lon="14.727336414586375"><ele>399.0</ele><time>2026-04-18T15:39:30Z</time></trkpt><trkpt lat="37.111900209387386" lon="14.727255555423046"><ele>399.0</ele><time>2026-04-18T15:39:31Z</time></trkpt><trkpt lat="37.11178579654939" lon="14.727204679112134"><ele>399.0</ele><time>2026-04-18T15:39:32Z</time></trkpt><trkpt lat="37.11167369545994" lon="14.72715023232523"><ele>399.0</ele><time>2026-04-18T15:39:33Z</time></trkpt><trkpt lat="37.11153625090948" lon="14.727109033031667"><ele>399.0</ele><time>2026-04-18T15:39:34Z</time></trkpt><trkpt lat="37.111404724430024" lon="14.72704235117361"><ele>399.0</ele><time>2026-04-18T15:39:35Z</time></trkpt><trkpt lat="37.111235196379525" lon="14.726998603665017"><ele>399.0</ele><time>2026-04-18T15:39:36Z</time></trkpt><trkpt lat="37.11104124154055" lon="14.726945684883972"><ele>399.0</ele><time>2026-04-18T15:39:36.999Z</time></trkpt><trkpt lat="37.11087116148384" lon="14.726841158948572"><ele>402.0</ele><time>2026-04-18T15:39:37.999Z</time></trkpt><trkpt lat="37.11071713686165" lon="14.726783368113448"><ele>405.0</ele><time>2026-04-18T15:39:38.999Z</time></trkpt><trkpt lat="37.11058544908219" lon="14.726753233378346"><ele>408.0</ele><time>2026-04-18T15:39:39.999Z</time></trkpt><trkpt lat="37.11046686066894" lon="14.726702710877959"><ele>411.0</ele><time>2026-04-18T15:39:40.999Z</time></trkpt><trkpt lat="37.11034710718955" lon="14.72667389123984"><ele>411.0</ele><time>2026-04-18T15:39:41.999Z</time></trkpt><trkpt lat="37.11021618721941" lon="14.726666131498192"><ele>411.0</ele><time>2026-04-18T15:39:42.999Z</time></trkpt><trkpt lat="37.1100790660358" lon="14.726676549168005"><ele>411.0</ele><time>2026-04-18T15:39:43.999Z</time></trkpt><trkpt lat="37.10995785214006" lon="14.726654567684928"><ele>411.0</ele><time>2026-04-18T15:39:44.999Z</time></trkpt><trkpt lat="37.10986537288969" lon="14.72659533107163"><ele>409.8333333333333</ele><time>2026-04-18T15:39:45.999Z</time></trkpt><trkpt lat="37.109759977507544" lon="14.726565013770903"><ele>408.66666666666663</ele><time>2026-04-18T15:39:46.999Z</time></trkpt><trkpt lat="37.10965606537602" lon="14.726560212058738"><ele>407.5</ele><time>2026-04-18T15:39:47.999Z</time></trkpt><trkpt lat="37.10956827916777" lon="14.726583453693042"><ele>406.3333333333333</ele><time>2026-04-18T15:39:48.999Z</time></trkpt><trkpt lat="37.109502793309794" lon="14.726570278987111"><ele>405.16666666666663</ele><time>2026-04-18T15:39:49.999Z</time></trkpt><trkpt lat="37.10943860543802" lon="14.7265385933393"><ele>404.0</ele><time>2026-04-18T15:39:50.999Z</time></trkpt><trkpt lat="37.10938060981487" lon="14.726488262559261"><ele>403.99999999999994</ele><time>2026-04-18T15:39:51.999Z</time></trkpt><trkpt lat="37.109307839987395" lon="14.726434695354826"><ele>404.0</ele><time>2026-04-18T15:39:52.999Z</time></trkpt><trkpt lat="37.10922379159927" lon="14.7264093407539"><ele>404.0</ele><time>2026-04-18T15:39:53.999Z</time></trkpt><trkpt lat="37.10916386236129" lon="14.726384696610546"><ele>404.0</ele><time>2026-04-18T15:39:54.999Z</time></trkpt><trkpt lat="37.1090721802691" lon="14.726368827987963"><ele>403.99999999999994</ele><time>2026-04-18T15:39:55.999Z</time></trkpt><trkpt lat="37.109012932029266" lon="14.726316647857479"><ele>404.0</ele><time>2026-04-18T15:39:56.999Z</time></trkpt><trkpt lat="37.10895403232083" lon="14.726272309122987"><ele>404.3333333333333</ele><time>2026-04-18T15:39:57.999Z</time></trkpt><trkpt lat="37.10891555646084" lon="14.726206358634181"><ele>404.66666666666663</ele><time>2026-04-18T15:39:58.999Z</time></trkpt><trkpt lat="37.10889058260733" lon="14.726102812310645"><ele>405.0</ele><time>2026-04-18T15:39:59.999Z</time></trkpt><trkpt lat="37.108891880339414" lon="14.725993919840226"><ele>405.33333333333337</ele><time>2026-04-18T15:40:00.999Z</time></trkpt><trkpt lat="37.10884968792209" lon="14.725908340634241"><ele>405.6666666666667</ele><time>2026-04-18T15:40:01.999Z</time></trkpt><trkpt lat="37.10881334838826" lon="14.725836199102924"><ele>406.0</ele><time>2026-04-18T15:40:02.999Z</time></trkpt><trkpt lat="37.10875990852133" lon="14.725786811222452"><ele>406.0</ele><time>2026-04-18T15:40:03.999Z</time></trkpt><trkpt lat="37.1086565907762" lon="14.725664315715234"><ele>406.0</ele><time>2026-04-18T15:40:05.999Z</time></trkpt><trkpt lat="37.10845518514216" lon="14.725745235022162"><ele>406.0</ele><time>2026-04-18T15:40:06.999Z</time></trkpt><trkpt lat="37.108329779224185" lon="14.725705435479293"><ele>406.20000000000005</ele><time>2026-04-18T15:40:07.999Z</time></trkpt><trkpt lat="37.1082262467994" lon="14.725687983839883"><ele>406.40000000000003</ele><time>2026-04-18T15:40:08.999Z</time></trkpt><trkpt lat="37.108143637867" lon="14.725715313145"><ele>406.6</ele><time>2026-04-18T15:40:09.999Z</time></trkpt><trkpt lat="37.108072930197466" lon="14.725765168016748"><ele>406.8</ele><time>2026-04-18T15:40:10.999Z</time></trkpt><trkpt lat="37.10799152096935" lon="14.725791989885778"><ele>407.0</ele><time>2026-04-18T15:40:11.999Z</time></trkpt><trkpt lat="37.10789231598017" lon="14.725792186010862"><ele>407.0</ele><time>2026-04-18T15:40:12.999Z</time></trkpt><trkpt lat="37.10778397145558" lon="14.725762077951332"><ele>407.0</ele><time>2026-04-18T15:40:13.999Z</time></trkpt><trkpt lat="37.10764113270152" lon="14.725719689706365"><ele>407.0</ele><time>2026-04-18T15:40:14.999Z</time></trkpt><trkpt lat="37.10748370763322" lon="14.725666146188118"><ele>407.0</ele><time>2026-04-18T15:40:15.999Z</time></trkpt><trkpt lat="37.10731924371143" lon="14.725596687575615"><ele>406.75</ele><time>2026-04-18T15:40:16.999Z</time></trkpt><trkpt lat="37.107156307599524" lon="14.725532772744437"><ele>406.5</ele><time>2026-04-18T15:40:17.999Z</time></trkpt><trkpt lat="37.10702321325456" lon="14.725500384581869"><ele>406.25</ele><time>2026-04-18T15:40:18.999Z</time></trkpt><trkpt lat="37.10691618213948" lon="14.725491132865393"><ele>406.0</ele><time>2026-04-18T15:40:19.999Z</time></trkpt><trkpt lat="37.10682872777594" lon="14.725496187699651"><ele>406.00000000000006</ele><time>2026-04-18T15:40:20.999Z</time></trkpt><trkpt lat="37.10673898103923" lon="14.72551480159207"><ele>406.0</ele><time>2026-04-18T15:40:21.999Z</time></trkpt><trkpt lat="37.10665228530701" lon="14.72549455058663"><ele>406.0</ele><time>2026-04-18T15:40:22.999Z</time></trkpt><trkpt lat="37.10658170766554" lon="14.725448469731754"><ele>406.0</ele><time>2026-04-18T15:40:23.999Z</time></trkpt><trkpt lat="37.10652283606827" lon="14.725395825404464"><ele>406.00000000000006</ele><time>2026-04-18T15:40:24.999Z</time></trkpt><trkpt lat="37.10647275385025" lon="14.725333800631825"><ele>406.0</ele><time>2026-04-18T15:40:25.999Z</time></trkpt><trkpt lat="37.10640922199379" lon="14.725247251402646"><ele>411.4</ele><time>2026-04-18T15:40:26.999Z</time></trkpt><trkpt lat="37.10633710087414" lon="14.725183218689903"><ele>416.8</ele><time>2026-04-18T15:40:27.999Z</time></trkpt><trkpt lat="37.10626163199073" lon="14.725159802229003"><ele>422.19999999999993</ele><time>2026-04-18T15:40:28.999Z</time></trkpt><trkpt lat="37.106163553881274" lon="14.725169494608284"><ele>427.59999999999997</ele><time>2026-04-18T15:40:29.999Z</time></trkpt><trkpt lat="37.10603699631544" lon="14.725194516032584"><ele>433.0</ele><time>2026-04-18T15:40:30.999Z</time></trkpt><trkpt lat="37.10588921774099" lon="14.725200723329193"><ele>433.0</ele><time>2026-04-18T15:40:31.999Z</time></trkpt><trkpt lat="37.10575768605814" lon="14.725180016028741"><ele>433.0</ele><time>2026-04-18T15:40:32.999Z</time></trkpt><trkpt lat="37.10562019839707" lon="14.725162161916908"><ele>433.0</ele><time>2026-04-18T15:40:33.999Z</time></trkpt><trkpt lat="37.10548785160066" lon="14.72511302780441"><ele>433.0</ele><time>2026-04-18T15:40:34.999Z</time></trkpt><trkpt lat="37.10534732734429" lon="14.725064908196734"><ele>431.0</ele><time>2026-04-18T15:40:35.999Z</time></trkpt><trkpt lat="37.10519588990103" lon="14.725011033854761"><ele>429.0</ele><time>2026-04-18T15:40:36.999Z</time></trkpt><trkpt lat="37.105061343037775" lon="14.724959892276681"><ele>427.0</ele><time>2026-04-18T15:40:37.999Z</time></trkpt><trkpt lat="37.10494122534277" lon="14.724910080785584"><ele>425.0</ele><time>2026-04-18T15:40:39Z</time></trkpt><trkpt lat="37.104829928954615" lon="14.72487627673236"><ele>421.5</ele><time>2026-04-18T15:40:40Z</time></trkpt><trkpt lat="37.10473356106012" lon="14.724839153033876"><ele>418.0</ele><time>2026-04-18T15:40:41Z</time></trkpt><trkpt lat="37.10459988924091" lon="14.724832646995326"><ele>414.5</ele><time>2026-04-18T15:40:42Z</time></trkpt><trkpt lat="37.10448473809595" lon="14.724852642951797"><ele>411.0</ele><time>2026-04-18T15:40:43Z</time></trkpt><trkpt lat="37.10435662027458" lon="14.724885841023168"><ele>411.0</ele><time>2026-04-18T15:40:44Z</time></trkpt><trkpt lat="37.10422146559732" lon="14.724873797364168"><ele>411.0</ele><time>2026-04-18T15:40:45Z</time></trkpt><trkpt lat="37.104056336755605" lon="14.724817152522045"><ele>411.0</ele><time>2026-04-18T15:40:46Z</time></trkpt><trkpt lat="37.10388185514026" lon="14.724762866839798"><ele>409.5</ele><time>2026-04-18T15:40:47Z</time></trkpt><trkpt lat="37.1037289148235" lon="14.724720694199137"><ele>408.0</ele><time>2026-04-18T15:40:48Z</time></trkpt><trkpt lat="37.10358840762774" lon="14.724706696162691"><ele>406.5</ele><time>2026-04-18T15:40:49Z</time></trkpt><trkpt lat="37.10345272873473" lon="14.724698417957224"><ele>405.0</ele><time>2026-04-18T15:40:50Z</time></trkpt><trkpt lat="37.10333076890203" lon="14.724676790053673"><ele>404.75</ele><time>2026-04-18T15:40:51Z</time></trkpt><trkpt lat="37.10322005219442" lon="14.724655395685996"><ele>404.5</ele><time>2026-04-18T15:40:52Z</time></trkpt><trkpt lat="37.10312016879407" lon="14.724594674438068"><ele>404.25</ele><time>2026-04-18T15:40:53Z</time></trkpt><trkpt lat="37.1030044492775" lon="14.72451037688497"><ele>404.0</ele><time>2026-04-18T15:40:54Z</time></trkpt><trkpt lat="37.10289510997394" lon="14.724433384695375"><ele>410.25</ele><time>2026-04-18T15:40:55Z</time></trkpt><trkpt lat="37.10280789478543" lon="14.724377793878448"><ele>416.5</ele><time>2026-04-18T15:40:56Z</time></trkpt><trkpt lat="37.10270418916008" lon="14.724349534851385"><ele>422.75</ele><time>2026-04-18T15:40:57Z</time></trkpt><trkpt lat="37.10257540173775" lon="14.724347981771215"><ele>429.0</ele><time>2026-04-18T15:40:58Z</time></trkpt><trkpt lat="37.10242745040174" lon="14.724347538166592"><ele>430.25</ele><time>2026-04-18T15:40:59Z</time></trkpt><trkpt lat="37.10227129315737" lon="14.724362877160427"><ele>431.5</ele><time>2026-04-18T15:41:00Z</time></trkpt><trkpt lat="37.102123406046424" lon="14.724355155645956"><ele>432.75</ele><time>2026-04-18T15:41:01Z</time></trkpt><trkpt lat="37.10199458979369" lon="14.72435432876289"><ele>434.0</ele><time>2026-04-18T15:41:02Z</time></trkpt><trkpt lat="37.10188878619614" lon="14.724379446938016"><ele>431.6</ele><time>2026-04-18T15:41:03Z</time></trkpt><trkpt lat="37.101798321840505" lon="14.724417783732687"><ele>429.2</ele><time>2026-04-18T15:41:04Z</time></trkpt><trkpt lat="37.101721147513665" lon="14.724467866555015"><ele>426.8</ele><time>2026-04-18T15:41:05Z</time></trkpt><trkpt lat="37.10165272801896" lon="14.72454778717473"><ele>424.40000000000003</ele><time>2026-04-18T15:41:06Z</time></trkpt><trkpt lat="37.10158980082722" lon="14.72465543307791"><ele>422.0</ele><time>2026-04-18T15:41:07Z</time></trkpt><trkpt lat="37.10149255271073" lon="14.724763749434775"><ele>422.0</ele><time>2026-04-18T15:41:08Z</time></trkpt><trkpt lat="37.101361542081804" lon="14.724843005595838"><ele>422.0</ele><time>2026-04-18T15:41:09Z</time></trkpt><trkpt lat="37.10122907221774" lon="14.724929001857284"><ele>422.0</ele><time>2026-04-18T15:41:10Z</time></trkpt><trkpt lat="37.101103931204506" lon="14.724994058273044"><ele>422.0</ele><time>2026-04-18T15:41:11Z</time></trkpt><trkpt lat="37.10098833202172" lon="14.725033488548481"><ele>422.0</ele><time>2026-04-18T15:41:12Z</time></trkpt><trkpt lat="37.10086256103624" lon="14.725076532402703"><ele>422.0</ele><time>2026-04-18T15:41:13Z</time></trkpt><trkpt lat="37.10074091263373" lon="14.725096366020852"><ele>422.0</ele><time>2026-04-18T15:41:14Z</time></trkpt><trkpt lat="37.10063962145787" lon="14.725133488310142"><ele>422.0</ele><time>2026-04-18T15:41:15Z</time></trkpt><trkpt lat="37.100554107281255" lon="14.72519138054864"><ele>420.40000000000003</ele><time>2026-04-18T15:41:16Z</time></trkpt><trkpt lat="37.10048972835012" lon="14.72529583450327"><ele>418.8</ele><time>2026-04-18T15:41:17Z</time></trkpt><trkpt lat="37.10043781462616" lon="14.72540773596837"><ele>417.2</ele><time>2026-04-18T15:41:18Z</time></trkpt><trkpt lat="37.10039832068317" lon="14.725540340426441"><ele>415.6</ele><time>2026-04-18T15:41:19Z</time></trkpt><trkpt lat="37.100373338936016" lon="14.725673080627738"><ele>414.0</ele><time>2026-04-18T15:41:20Z</time></trkpt><trkpt lat="37.10034649864817" lon="14.725805223107185"><ele>414.0</ele><time>2026-04-18T15:41:21Z</time></trkpt><trkpt lat="37.10031280615275" lon="14.725916301046459"><ele>414.0</ele><time>2026-04-18T15:41:22Z</time></trkpt><trkpt lat="37.10027542887672" lon="14.72599154014082"><ele>414.0</ele><time>2026-04-18T15:41:23Z</time></trkpt><trkpt lat="37.10019017329291" lon="14.726110423206737"><ele>414.0</ele><time>2026-04-18T15:41:25Z</time></trkpt><trkpt lat="37.10006523322604" lon="14.726145623901548"><ele>414.0</ele><time>2026-04-18T15:41:27Z</time></trkpt><trkpt lat="37.0999806330281" lon="14.72612896922539"><ele>413.4</ele><time>2026-04-18T15:41:28Z</time></trkpt><trkpt lat="37.099858011345944" lon="14.726101525122456"><ele>412.79999999999995</ele><time>2026-04-18T15:41:29Z</time></trkpt><trkpt lat="37.09975807128529" lon="14.726068235556223"><ele>412.20000000000005</ele><time>2026-04-18T15:41:30Z</time></trkpt><trkpt lat="37.09969828719866" lon="14.726040574845003"><ele>411.6</ele><time>2026-04-18T15:41:31Z</time></trkpt><trkpt lat="37.09964037014618" lon="14.72594770727075"><ele>411.0</ele><time>2026-04-18T15:41:33Z</time></trkpt><trkpt lat="37.09961575088379" lon="14.725861092160603"><ele>412.0</ele><time>2026-04-18T15:41:34Z</time></trkpt><trkpt lat="37.0995913349576" lon="14.725783186635367"><ele>413.0</ele><time>2026-04-18T15:41:35Z</time></trkpt><trkpt lat="37.09950872647734" lon="14.725734662742441"><ele>414.0</ele><time>2026-04-18T15:41:37Z</time></trkpt><trkpt lat="37.09941198030575" lon="14.72578020722985"><ele>415.0</ele><time>2026-04-18T15:41:38.999Z</time></trkpt><trkpt lat="37.099360094567864" lon="14.725837054434935"><ele>416.0</ele><time>2026-04-18T15:41:39.999Z</time></trkpt><trkpt lat="37.0992685165891" lon="14.725877577471575"><ele>417.0</ele><time>2026-04-18T15:41:41.999Z</time></trkpt><trkpt lat="37.09916413533404" lon="14.725875279297352"><ele>417.0</ele><time>2026-04-18T15:41:43.999Z</time></trkpt><trkpt lat="37.09910075673244" lon="14.725876842355147"><ele>417.0</ele><time>2026-04-18T15:41:44.999Z</time></trkpt><trkpt lat="37.09903087399278" lon="14.725875565325895"><ele>417.0</ele><time>2026-04-18T15:41:45.999Z</time></trkpt><trkpt lat="37.09895833874195" lon="14.725864466911808"><ele>417.0</ele><time>2026-04-18T15:41:46.999Z</time></trkpt><trkpt lat="37.09889527913412" lon="14.7258389225891"><ele>417.0</ele><time>2026-04-18T15:41:47.999Z</time></trkpt><trkpt lat="37.098814717812445" lon="14.725809256446603"><ele>417.0</ele><time>2026-04-18T15:41:49.999Z</time></trkpt><trkpt lat="37.098717025663774" lon="14.725795578728423"><ele>418.1666666666667</ele><time>2026-04-18T15:41:51.999Z</time></trkpt><trkpt lat="37.09865570361216" lon="14.72581363875529"><ele>419.33333333333337</ele><time>2026-04-18T15:41:52.999Z</time></trkpt><trkpt lat="37.09859457455232" lon="14.725844360510827"><ele>420.5</ele><time>2026-04-18T15:41:53.999Z</time></trkpt><trkpt lat="37.09849888536511" lon="14.725858985653264"><ele>421.6666666666667</ele><time>2026-04-18T15:41:55.999Z</time></trkpt><trkpt lat="37.09841142677879" lon="14.725879033637613"><ele>422.83333333333337</ele><time>2026-04-18T15:41:57.999Z</time></trkpt><trkpt lat="37.09832071812371" lon="14.725866230932583"><ele>424.0</ele><time>2026-04-18T15:41:59.999Z</time></trkpt><trkpt lat="37.098206838661575" lon="14.725900148267264"><ele>424.83333333333337</ele><time>2026-04-18T15:42:01.999Z</time></trkpt><trkpt lat="37.098139061177754" lon="14.725907271643557"><ele>425.6666666666667</ele><time>2026-04-18T15:42:02.999Z</time></trkpt><trkpt lat="37.098054419102276" lon="14.725916598684101"><ele>426.5</ele><time>2026-04-18T15:42:03.999Z</time></trkpt><trkpt lat="37.097972085159824" lon="14.725939635800257"><ele>427.33333333333337</ele><time>2026-04-18T15:42:04.999Z</time></trkpt><trkpt lat="37.09789875534064" lon="14.725963386437225"><ele>428.1666666666667</ele><time>2026-04-18T15:42:05.999Z</time></trkpt><trkpt lat="37.097785596848176" lon="14.725970001586704"><ele>429.0</ele><time>2026-04-18T15:42:07.999Z</time></trkpt><trkpt lat="37.097711976302975" lon="14.726004752240243"><ele>429.0</ele><time>2026-04-18T15:42:09.999Z</time></trkpt><trkpt lat="37.09762235050661" lon="14.72603028158486"><ele>429.0</ele><time>2026-04-18T15:42:11.999Z</time></trkpt><trkpt lat="37.09752244913663" lon="14.726063350796755"><ele>429.0</ele><time>2026-04-18T15:42:13.999Z</time></trkpt><trkpt lat="37.09741228376825" lon="14.726129036974958"><ele>429.0</ele><time>2026-04-18T15:42:15.999Z</time></trkpt><trkpt lat="37.0973249470466" lon="14.726213824373145"><ele>429.0</ele><time>2026-04-18T15:42:17.999Z</time></trkpt><trkpt lat="37.09726838248854" lon="14.726260588137459"><ele>427.8333333333333</ele><time>2026-04-18T15:42:18.999Z</time></trkpt><trkpt lat="37.097210769999165" lon="14.72630632760004"><ele>426.66666666666663</ele><time>2026-04-18T15:42:19.999Z</time></trkpt><trkpt lat="37.0971478534477" lon="14.726352518161855"><ele>425.5</ele><time>2026-04-18T15:42:20.999Z</time></trkpt><trkpt lat="37.09705565197713" lon="14.726428936474178"><ele>424.3333333333333</ele><time>2026-04-18T15:42:22.999Z</time></trkpt><trkpt lat="37.096992968179045" lon="14.726487396083986"><ele>423.16666666666663</ele><time>2026-04-18T15:42:24.999Z</time></trkpt><trkpt lat="37.096894615875385" lon="14.726572389000832"><ele>422.0</ele><time>2026-04-18T15:42:26.999Z</time></trkpt><trkpt lat="37.09684013222775" lon="14.726628010343898"><ele>421.99999999999994</ele><time>2026-04-18T15:42:27.999Z</time></trkpt><trkpt lat="37.09677831199941" lon="14.726684619422072"><ele>422.0</ele><time>2026-04-18T15:42:28.999Z</time></trkpt><trkpt lat="37.096713615255915" lon="14.72670037737609"><ele>422.0</ele><time>2026-04-18T15:42:29.999Z</time></trkpt><trkpt lat="37.096613736341624" lon="14.726747532414455"><ele>422.0</ele><time>2026-04-18T15:42:31.999Z</time></trkpt><trkpt lat="37.09649213978335" lon="14.726774222926752"><ele>421.99999999999994</ele><time>2026-04-18T15:42:33.999Z</time></trkpt><trkpt lat="37.0964270176035" lon="14.726772381247091"><ele>422.0</ele><time>2026-04-18T15:42:34.999Z</time></trkpt><trkpt lat="37.096347246169735" lon="14.726794885996387"><ele>422.8</ele><time>2026-04-18T15:42:36.999Z</time></trkpt><trkpt lat="37.096287991083585" lon="14.726861885011685"><ele>423.6</ele><time>2026-04-18T15:42:38.999Z</time></trkpt><trkpt lat="37.09621747851556" lon="14.726919039208642"><ele>424.40000000000003</ele><time>2026-04-18T15:42:42.998Z</time></trkpt><trkpt lat="37.096120111610105" lon="14.727013168223268"><ele>425.20000000000005</ele><time>2026-04-18T15:42:45Z</time></trkpt><trkpt lat="37.09607289744348" lon="14.72707155779509"><ele>426.0</ele><time>2026-04-18T15:42:46Z</time></trkpt><trkpt lat="37.09597263736926" lon="14.727177524412964"><ele>426.0</ele><time>2026-04-18T15:42:48Z</time></trkpt><trkpt lat="37.09592395788669" lon="14.727239239573239"><ele>426.0</ele><time>2026-04-18T15:42:49Z</time></trkpt><trkpt lat="37.09587929574737" lon="14.727311172998428"><ele>426.0</ele><time>2026-04-18T15:42:50Z</time></trkpt><trkpt lat="37.095820263765965" lon="14.727425796796625"><ele>426.0</ele><time>2026-04-18T15:42:51Z</time></trkpt><trkpt lat="37.095746918265064" lon="14.727559175957602"><ele>426.0</ele><time>2026-04-18T15:42:52Z</time></trkpt><trkpt lat="37.09567035586816" lon="14.727685361921443"><ele>435.25</ele><time>2026-04-18T15:42:53Z</time></trkpt><trkpt lat="37.09562060251465" lon="14.727811148729293"><ele>444.5</ele><time>2026-04-18T15:42:54Z</time></trkpt><trkpt lat="37.09557883966627" lon="14.727975836914334"><ele>453.75</ele><time>2026-04-18T15:42:55Z</time></trkpt><trkpt lat="37.095551695456244" lon="14.728176094416055"><ele>463.0</ele><time>2026-04-18T15:42:56Z</time></trkpt><trkpt lat="37.09553061408966" lon="14.7283577136116"><ele>463.0</ele><time>2026-04-18T15:42:57Z</time></trkpt><trkpt lat="37.09551019371404" lon="14.72853416031152"><ele>463.0</ele><time>2026-04-18T15:42:58Z</time></trkpt><trkpt lat="37.09549543136435" lon="14.72875020925618"><ele>463.0</ele><time>2026-04-18T15:42:59Z</time></trkpt><trkpt lat="37.09550250740377" lon="14.728959465223891"><ele>460.25</ele><time>2026-04-18T15:43:00Z</time></trkpt><trkpt lat="37.095496279579685" lon="14.729147463037926"><ele>457.5</ele><time>2026-04-18T15:43:01Z</time></trkpt><trkpt lat="37.095485604575046" lon="14.729322279522604"><ele>454.75</ele><time>2026-04-18T15:43:02Z</time></trkpt><trkpt lat="37.09547234667231" lon="14.729481906096039"><ele>452.0</ele><time>2026-04-18T15:43:03Z</time></trkpt><trkpt lat="37.09545541903562" lon="14.729619822714877"><ele>450.49999999999994</ele><time>2026-04-18T15:43:04Z</time></trkpt><trkpt lat="37.09542337394536" lon="14.729731134631354"><ele>449.0</ele><time>2026-04-18T15:43:05Z</time></trkpt><trkpt lat="37.09538715336931" lon="14.729819872813904"><ele>447.5</ele><time>2026-04-18T15:43:06Z</time></trkpt><trkpt lat="37.095365781561014" lon="14.729894674172511"><ele>446.0</ele><time>2026-04-18T15:43:07Z</time></trkpt><trkpt lat="37.09535588043101" lon="14.729976837846172"><ele>444.49999999999994</ele><time>2026-04-18T15:43:08Z</time></trkpt><trkpt lat="37.095374345769095" lon="14.730075027828251"><ele>443.0</ele><time>2026-04-18T15:43:09Z</time></trkpt><trkpt lat="37.09539293119478" lon="14.730163609726787"><ele>447.25</ele><time>2026-04-18T15:43:10Z</time></trkpt><trkpt lat="37.09542910810731" lon="14.730269941550052"><ele>451.5</ele><time>2026-04-18T15:43:11Z</time></trkpt><trkpt lat="37.09548082753223" lon="14.730402404991604"><ele>455.75</ele><time>2026-04-18T15:43:12Z</time></trkpt><trkpt lat="37.09550996636528" lon="14.730573372651248"><ele>460.0</ele><time>2026-04-18T15:43:13Z</time></trkpt><trkpt lat="37.09555911034533" lon="14.730780333422349"><ele>460.0</ele><time>2026-04-18T15:43:14Z</time></trkpt><trkpt lat="37.09560972575398" lon="14.730976746693594"><ele>460.0</ele><time>2026-04-18T15:43:15Z</time></trkpt><trkpt lat="37.09566464028001" lon="14.731178515465034"><ele>460.0</ele><time>2026-04-18T15:43:16Z</time></trkpt><trkpt lat="37.09573662236978" lon="14.731422085099044"><ele>453.33333333333337</ele><time>2026-04-18T15:43:17Z</time></trkpt><trkpt lat="37.09580565566734" lon="14.731637097374609"><ele>446.66666666666663</ele><time>2026-04-18T15:43:18Z</time></trkpt><trkpt lat="37.09586834818941" lon="14.731832567808052"><ele>440.0</ele><time>2026-04-18T15:43:19Z</time></trkpt><trkpt lat="37.09594368862617" lon="14.73199003751057"><ele>440.0</ele><time>2026-04-18T15:43:20Z</time></trkpt><trkpt lat="37.09603584576843" lon="14.732137193498655"><ele>440.0</ele><time>2026-04-18T15:43:21Z</time></trkpt><trkpt lat="37.09613262455285" lon="14.732290455516324"><ele>440.0</ele><time>2026-04-18T15:43:22Z</time></trkpt><trkpt lat="37.09619902373083" lon="14.732428798094132"><ele>440.0</ele><time>2026-04-18T15:43:23Z</time></trkpt><trkpt lat="37.0962408500288" lon="14.732527789565157"><ele>439.99999999999994</ele><time>2026-04-18T15:43:24Z</time></trkpt><trkpt lat="37.09626216628449" lon="14.732602785664863"><ele>440.0</ele><time>2026-04-18T15:43:25Z</time></trkpt><trkpt lat="37.096278461880694" lon="14.73270760329898"><ele>440.0</ele><time>2026-04-18T15:43:26Z</time></trkpt><trkpt lat="37.0962832921182" lon="14.73283036119554"><ele>440.0</ele><time>2026-04-18T15:43:27Z</time></trkpt><trkpt lat="37.09628432704201" lon="14.732948139232557"><ele>439.99999999999994</ele><time>2026-04-18T15:43:28Z</time></trkpt><trkpt lat="37.0962940126003" lon="14.7330737584196"><ele>440.0</ele><time>2026-04-18T15:43:29Z</time></trkpt><trkpt lat="37.09632556273835" lon="14.733207122672951"><ele>439.0</ele><time>2026-04-18T15:43:30Z</time></trkpt><trkpt lat="37.09636933493102" lon="14.733324944435196"><ele>438.0</ele><time>2026-04-18T15:43:31Z</time></trkpt><trkpt lat="37.09643518659268" lon="14.733416978403772"><ele>437.0</ele><time>2026-04-18T15:43:32Z</time></trkpt><trkpt lat="37.096521498964734" lon="14.733525492729203"><ele>436.0</ele><time>2026-04-18T15:43:33Z</time></trkpt><trkpt lat="37.09655298338528" lon="14.733648043978533"><ele>435.0</ele><time>2026-04-18T15:43:34Z</time></trkpt><trkpt lat="37.096627868936935" lon="14.733763745557834"><ele>435.0</ele><time>2026-04-18T15:43:35Z</time></trkpt><trkpt lat="37.096704589324" lon="14.73389022985182"><ele>435.0</ele><time>2026-04-18T15:43:36Z</time></trkpt><trkpt lat="37.09678578201654" lon="14.734019001643642"><ele>435.0</ele><time>2026-04-18T15:43:36.999Z</time></trkpt><trkpt lat="37.09690952963215" lon="14.73414625935592"><ele>435.0</ele><time>2026-04-18T15:43:37.999Z</time></trkpt><trkpt lat="37.097029114489395" lon="14.734294266768964"><ele>439.5</ele><time>2026-04-18T15:43:38.999Z</time></trkpt><trkpt lat="37.09714767333874" lon="14.734437766723595"><ele>444.0</ele><time>2026-04-18T15:43:39.999Z</time></trkpt><trkpt lat="37.09722588693248" lon="14.734542753670059"><ele>448.5</ele><time>2026-04-18T15:43:40.999Z</time></trkpt><trkpt lat="37.097290659829746" lon="14.734654111247819"><ele>453.0</ele><time>2026-04-18T15:43:41.999Z</time></trkpt><trkpt lat="37.097352901923756" lon="14.734759838256913"><ele>453.0</ele><time>2026-04-18T15:43:42.999Z</time></trkpt><trkpt lat="37.09741210027309" lon="14.734894574667779"><ele>453.0</ele><time>2026-04-18T15:43:43.999Z</time></trkpt><trkpt lat="37.09746414791064" lon="14.735048390886075"><ele>453.0</ele><time>2026-04-18T15:43:44.999Z</time></trkpt><trkpt lat="37.09751957138829" lon="14.735201586311735"><ele>453.0</ele><time>2026-04-18T15:43:45.999Z</time></trkpt><trkpt lat="37.097581754323016" lon="14.735351930263628"><ele>450.75</ele><time>2026-04-18T15:43:46.999Z</time></trkpt><trkpt lat="37.09767547968294" lon="14.735501145689927"><ele>448.5</ele><time>2026-04-18T15:43:47.999Z</time></trkpt><trkpt lat="37.09775508970554" lon="14.735659272078985"><ele>446.25</ele><time>2026-04-18T15:43:48.999Z</time></trkpt><trkpt lat="37.09782562256088" lon="14.735811568107103"><ele>444.0</ele><time>2026-04-18T15:43:49.999Z</time></trkpt><trkpt lat="37.097894287260566" lon="14.735944285373625"><ele>449.25</ele><time>2026-04-18T15:43:50.999Z</time></trkpt><trkpt lat="37.09796016422051" lon="14.736073678691856"><ele>454.5</ele><time>2026-04-18T15:43:51.999Z</time></trkpt><trkpt lat="37.09801763038007" lon="14.736234234770945"><ele>459.75</ele><time>2026-04-18T15:43:52.999Z</time></trkpt><trkpt lat="37.098087419341326" lon="14.736408167179459"><ele>465.0</ele><time>2026-04-18T15:43:53.999Z</time></trkpt><trkpt lat="37.09814217608193" lon="14.736571156160988"><ele>465.0</ele><time>2026-04-18T15:43:54.999Z</time></trkpt><trkpt lat="37.098225662401916" lon="14.736735524665963"><ele>465.0</ele><time>2026-04-18T15:43:55.999Z</time></trkpt><trkpt lat="37.098303469401635" lon="14.736885470586266"><ele>465.0</ele><time>2026-04-18T15:43:56.999Z</time></trkpt><trkpt lat="37.098358720933156" lon="14.737060866502878"><ele>465.0</ele><time>2026-04-18T15:43:57.999Z</time></trkpt><trkpt lat="37.09840364886582" lon="14.737246796626248"><ele>462.33333333333337</ele><time>2026-04-18T15:43:58.999Z</time></trkpt><trkpt lat="37.098434464514995" lon="14.737429687752865"><ele>459.6666666666667</ele><time>2026-04-18T15:43:59.999Z</time></trkpt><trkpt lat="37.09845489664817" lon="14.737619731658265"><ele>457.0</ele><time>2026-04-18T15:44:00.999Z</time></trkpt><trkpt lat="37.098483037860696" lon="14.73783132304224"><ele>457.0</ele><time>2026-04-18T15:44:01.999Z</time></trkpt><trkpt lat="37.09850865194032" lon="14.73805497595922"><ele>457.0</ele><time>2026-04-18T15:44:02.999Z</time></trkpt><trkpt lat="37.09853302151931" lon="14.738282214962439"><ele>457.0</ele><time>2026-04-18T15:44:03.999Z</time></trkpt><trkpt lat="37.09855426294582" lon="14.738472602086894"><ele>459.5</ele><time>2026-04-18T15:44:04.999Z</time></trkpt><trkpt lat="37.0985835855347" lon="14.738638728935062"><ele>462.0</ele><time>2026-04-18T15:44:05.999Z</time></trkpt><trkpt lat="37.09861893101353" lon="14.738780600966791"><ele>464.5</ele><time>2026-04-18T15:44:06.999Z</time></trkpt><trkpt lat="37.098650503775474" lon="14.738908138274795"><ele>467.0</ele><time>2026-04-18T15:44:07.999Z</time></trkpt><trkpt lat="37.09866910382287" lon="14.739040388799324"><ele>467.0</ele><time>2026-04-18T15:44:08.999Z</time></trkpt><trkpt lat="37.09866600131754" lon="14.739185649227181"><ele>467.0</ele><time>2026-04-18T15:44:09.999Z</time></trkpt><trkpt lat="37.098659152437286" lon="14.739346181978618"><ele>467.0</ele><time>2026-04-18T15:44:10.999Z</time></trkpt><trkpt lat="37.098648431296795" lon="14.739534545932301"><ele>467.0</ele><time>2026-04-18T15:44:11.999Z</time></trkpt><trkpt lat="37.09863530374741" lon="14.739754666895704"><ele>469.5</ele><time>2026-04-18T15:44:12.999Z</time></trkpt><trkpt lat="37.09862963602979" lon="14.739981108003846"><ele>472.0</ele><time>2026-04-18T15:44:13.999Z</time></trkpt><trkpt lat="37.098639870144595" lon="14.74015640115602"><ele>474.5</ele><time>2026-04-18T15:44:14.999Z</time></trkpt><trkpt lat="37.09864637341489" lon="14.740298913580405"><ele>477.0</ele><time>2026-04-18T15:44:15.999Z</time></trkpt><trkpt lat="37.0986865288781" lon="14.740410824488146"><ele>478.6</ele><time>2026-04-18T15:44:16.999Z</time></trkpt><trkpt lat="37.09873458465593" lon="14.740504502111573"><ele>480.20000000000005</ele><time>2026-04-18T15:44:17.999Z</time></trkpt><trkpt lat="37.098784695595896" lon="14.74060223161593"><ele>481.8</ele><time>2026-04-18T15:44:18.999Z</time></trkpt><trkpt lat="37.09884089292859" lon="14.740718166824422"><ele>483.4</ele><time>2026-04-18T15:44:19.999Z</time></trkpt><trkpt lat="37.09891616496577" lon="14.740849822069958"><ele>485.0</ele><time>2026-04-18T15:44:20.999Z</time></trkpt><trkpt lat="37.09899222000532" lon="14.740965938823667"><ele>479.75</ele><time>2026-04-18T15:44:21.999Z</time></trkpt><trkpt lat="37.09907399578136" lon="14.7410729474532"><ele>474.5</ele><time>2026-04-18T15:44:22.999Z</time></trkpt><trkpt lat="37.09915955687319" lon="14.741154846961056"><ele>469.25</ele><time>2026-04-18T15:44:23.999Z</time></trkpt><trkpt lat="37.099231154416124" lon="14.741271929631507"><ele>464.0</ele><time>2026-04-18T15:44:24.999Z</time></trkpt><trkpt lat="37.09932359838042" lon="14.74142394777353"><ele>464.0</ele><time>2026-04-18T15:44:25.999Z</time></trkpt><trkpt lat="37.09941466125527" lon="14.74157369483029"><ele>464.0</ele><time>2026-04-18T15:44:26.999Z</time></trkpt><trkpt lat="37.09952832377737" lon="14.741717740711092"><ele>464.0</ele><time>2026-04-18T15:44:27.999Z</time></trkpt><trkpt lat="37.0996150234419" lon="14.741900276694771"><ele>474.0</ele><time>2026-04-18T15:44:28.999Z</time></trkpt><trkpt lat="37.09969876209665" lon="14.742068000574797"><ele>484.0</ele><time>2026-04-18T15:44:29.999Z</time></trkpt><trkpt lat="37.099778536822676" lon="14.742231922598872"><ele>494.0</ele><time>2026-04-18T15:44:30.999Z</time></trkpt><trkpt lat="37.09986237416208" lon="14.742409790784617"><ele>482.25</ele><time>2026-04-18T15:44:31.999Z</time></trkpt><trkpt lat="37.0999268025747" lon="14.742565659661935"><ele>470.5</ele><time>2026-04-18T15:44:32.999Z</time></trkpt><trkpt lat="37.099969846449454" lon="14.742733575258246"><ele>458.75</ele><time>2026-04-18T15:44:33.999Z</time></trkpt><trkpt lat="37.09999982613902" lon="14.74291452485377"><ele>447.0</ele><time>2026-04-18T15:44:34.999Z</time></trkpt><trkpt lat="37.10000168429458" lon="14.743103483182296"><ele>447.0</ele><time>2026-04-18T15:44:35.999Z</time></trkpt><trkpt lat="37.10000028071056" lon="14.743325189853577"><ele>447.0</ele><time>2026-04-18T15:44:36.999Z</time></trkpt><trkpt lat="37.09998560890349" lon="14.743601532783455"><ele>447.0</ele><time>2026-04-18T15:44:37.999Z</time></trkpt><trkpt lat="37.099963419856984" lon="14.743889613725596"><ele>447.66666666666663</ele><time>2026-04-18T15:44:38.999Z</time></trkpt><trkpt lat="37.09992470397823" lon="14.744150110371107"><ele>448.3333333333333</ele><time>2026-04-18T15:44:39.998Z</time></trkpt><trkpt lat="37.09986937885643" lon="14.74438263212039"><ele>449.0</ele><time>2026-04-18T15:44:40.998Z</time></trkpt><trkpt lat="37.099794869416144" lon="14.744629024730136"><ele>463.0</ele><time>2026-04-18T15:44:41.998Z</time></trkpt><trkpt lat="37.09974450036785" lon="14.744886096000437"><ele>477.0</ele><time>2026-04-18T15:44:42.998Z</time></trkpt><trkpt lat="37.09967512777848" lon="14.745163519258185"><ele>491.0</ele><time>2026-04-18T15:44:43.998Z</time></trkpt><trkpt lat="37.09959992432215" lon="14.745474263337565"><ele>491.0</ele><time>2026-04-18T15:44:44.998Z</time></trkpt><trkpt lat="37.09954218126233" lon="14.745754486823301"><ele>491.0</ele><time>2026-04-18T15:44:45.998Z</time></trkpt><trkpt lat="37.09950052594987" lon="14.745984245639445"><ele>491.0</ele><time>2026-04-18T15:44:46.998Z</time></trkpt><trkpt lat="37.09946227048873" lon="14.746179103025696"><ele>488.0</ele><time>2026-04-18T15:44:47.998Z</time></trkpt><trkpt lat="37.09943916332415" lon="14.746384453670506"><ele>485.0</ele><time>2026-04-18T15:44:48.998Z</time></trkpt><trkpt lat="37.09944486302519" lon="14.746574983786374"><ele>482.0</ele><time>2026-04-18T15:44:49.998Z</time></trkpt><trkpt lat="37.099477441615825" lon="14.746751495737188"><ele>480.25</ele><time>2026-04-18T15:44:51Z</time></trkpt><trkpt lat="37.099523283821085" lon="14.746917107338918"><ele>478.5</ele><time>2026-04-18T15:44:52Z</time></trkpt><trkpt lat="37.09958305609299" lon="14.7470819941637"><ele>476.75</ele><time>2026-04-18T15:44:53Z</time></trkpt><trkpt lat="37.09961569175051" lon="14.747249545579267"><ele>475.0</ele><time>2026-04-18T15:44:54Z</time></trkpt><trkpt lat="37.09966738874045" lon="14.747404619469272"><ele>475.0</ele><time>2026-04-18T15:44:55Z</time></trkpt><trkpt lat="37.09972154516563" lon="14.7475616303771"><ele>475.0</ele><time>2026-04-18T15:44:56Z</time></trkpt><trkpt lat="37.099777561728764" lon="14.747720562792543"><ele>475.0</ele><time>2026-04-18T15:44:57Z</time></trkpt><trkpt lat="37.099839995512035" lon="14.747892274686484"><ele>475.0</ele><time>2026-04-18T15:44:58Z</time></trkpt><trkpt lat="37.09990115220777" lon="14.748057888135925"><ele>472.0</ele><time>2026-04-18T15:44:59Z</time></trkpt><trkpt lat="37.09996274598078" lon="14.748225793738024"><ele>469.0</ele><time>2026-04-18T15:45:00Z</time></trkpt><trkpt lat="37.10002376166003" lon="14.748392123571923"><ele>466.0</ele><time>2026-04-18T15:45:01Z</time></trkpt><trkpt lat="37.100092041454324" lon="14.748551777049272"><ele>463.0</ele><time>2026-04-18T15:45:02Z</time></trkpt><trkpt lat="37.1001425314977" lon="14.74870839302647"><ele>463.0</ele><time>2026-04-18T15:45:03Z</time></trkpt><trkpt lat="37.100163505653846" lon="14.748884717939152"><ele>463.0</ele><time>2026-04-18T15:45:04Z</time></trkpt><trkpt lat="37.10016199749093" lon="14.749028489768172"><ele>463.0</ele><time>2026-04-18T15:45:05Z</time></trkpt><trkpt lat="37.1001400690124" lon="14.749169353079251"><ele>463.0</ele><time>2026-04-18T15:45:06Z</time></trkpt><trkpt lat="37.10009528682101" lon="14.749293812666012"><ele>462.5</ele><time>2026-04-18T15:45:07Z</time></trkpt><trkpt lat="37.10005213571383" lon="14.749420516674737"><ele>462.0</ele><time>2026-04-18T15:45:08Z</time></trkpt><trkpt lat="37.10001784030629" lon="14.749559324318271"><ele>461.5</ele><time>2026-04-18T15:45:09Z</time></trkpt><trkpt lat="37.09996013608394" lon="14.749693609708102"><ele>461.0</ele><time>2026-04-18T15:45:10Z</time></trkpt><trkpt lat="37.09989863382756" lon="14.74983100421596"><ele>461.0</ele><time>2026-04-18T15:45:11Z</time></trkpt><trkpt lat="37.099832448723475" lon="14.749969007938319"><ele>461.0</ele><time>2026-04-18T15:45:12Z</time></trkpt><trkpt lat="37.09976357566176" lon="14.750114252084487"><ele>461.0</ele><time>2026-04-18T15:45:13Z</time></trkpt><trkpt lat="37.09968466500134" lon="14.750262085517912"><ele>461.0</ele><time>2026-04-18T15:45:14Z</time></trkpt><trkpt lat="37.099609778920325" lon="14.750412089459"><ele>461.3333333333333</ele><time>2026-04-18T15:45:15Z</time></trkpt><trkpt lat="37.09953138096491" lon="14.750579932651503"><ele>461.66666666666663</ele><time>2026-04-18T15:45:16Z</time></trkpt><trkpt lat="37.09946822111427" lon="14.750755823131906"><ele>462.0</ele><time>2026-04-18T15:45:17Z</time></trkpt><trkpt lat="37.099394459276546" lon="14.750948944267758"><ele>464.66666666666663</ele><time>2026-04-18T15:45:18Z</time></trkpt><trkpt lat="37.09936296526946" lon="14.751155698039712"><ele>467.3333333333333</ele><time>2026-04-18T15:45:19Z</time></trkpt><trkpt lat="37.09933128473134" lon="14.751353323571553"><ele>470.0</ele><time>2026-04-18T15:45:20Z</time></trkpt><trkpt lat="37.09929144840478" lon="14.751541184914007"><ele>470.0</ele><time>2026-04-18T15:45:21Z</time></trkpt><trkpt lat="37.09929114748076" lon="14.75172067990522"><ele>470.0</ele><time>2026-04-18T15:45:22Z</time></trkpt><trkpt lat="37.09926082285921" lon="14.751864799586249"><ele>470.0</ele><time>2026-04-18T15:45:23Z</time></trkpt><trkpt lat="37.09925087954021" lon="14.751983115734102"><ele>470.0</ele><time>2026-04-18T15:45:24Z</time></trkpt><trkpt lat="37.099262502496146" lon="14.752089689979623"><ele>470.0</ele><time>2026-04-18T15:45:25Z</time></trkpt><trkpt lat="37.099247561507866" lon="14.752181819595647"><ele>472.16666666666663</ele><time>2026-04-18T15:45:26Z</time></trkpt><trkpt lat="37.09922583142816" lon="14.75226938473465"><ele>474.3333333333333</ele><time>2026-04-18T15:45:27Z</time></trkpt><trkpt lat="37.09919396034019" lon="14.752350392290353"><ele>476.5</ele><time>2026-04-18T15:45:28Z</time></trkpt><trkpt lat="37.09915558429809" lon="14.75242279890914"><ele>478.66666666666663</ele><time>2026-04-18T15:45:29Z</time></trkpt><trkpt lat="37.09912671216244" lon="14.752495988417534"><ele>480.8333333333333</ele><time>2026-04-18T15:45:30Z</time></trkpt><trkpt lat="37.09910558679841" lon="14.752625734047447"><ele>483.0</ele><time>2026-04-18T15:45:32Z</time></trkpt><trkpt lat="37.09912309208961" lon="14.752718880475571"><ele>484.3333333333333</ele><time>2026-04-18T15:45:34Z</time></trkpt><trkpt lat="37.0991627054407" lon="14.752792195882735"><ele>485.66666666666663</ele><time>2026-04-18T15:45:37Z</time></trkpt><trkpt lat="37.0992141833993" lon="14.752840613218686"><ele>487.0</ele><time>2026-04-18T15:46:10.999Z</time></trkpt><trkpt lat="37.09921518159503" lon="14.752979494998883"><ele>488.3333333333333</ele><time>2026-04-18T15:46:14.999Z</time></trkpt><trkpt lat="37.099162126783966" lon="14.753095766810791"><ele>489.66666666666663</ele><time>2026-04-18T15:46:16.999Z</time></trkpt><trkpt lat="37.09912698877393" lon="14.753182122454817"><ele>491.0</ele><time>2026-04-18T15:46:17.999Z</time></trkpt><trkpt lat="37.09904802142617" lon="14.753331073520593"><ele>488.3333333333333</ele><time>2026-04-18T15:46:18.999Z</time></trkpt><trkpt lat="37.09895308616131" lon="14.753509080016874"><ele>485.66666666666663</ele><time>2026-04-18T15:46:19.999Z</time></trkpt><trkpt lat="37.098825503121375" lon="14.753703600512612"><ele>483.0</ele><time>2026-04-18T15:46:20.999Z</time></trkpt><trkpt lat="37.09871422005061" lon="14.753867049952067"><ele>483.0</ele><time>2026-04-18T15:46:21.999Z</time></trkpt><trkpt lat="37.09860059427159" lon="14.754030025168326"><ele>483.0</ele><time>2026-04-18T15:46:22.999Z</time></trkpt><trkpt lat="37.09849904248703" lon="14.754189229362934"><ele>483.0</ele><time>2026-04-18T15:46:23.999Z</time></trkpt><trkpt lat="37.098404891231866" lon="14.754322386424361"><ele>482.0</ele><time>2026-04-18T15:46:24.999Z</time></trkpt><trkpt lat="37.09832248697505" lon="14.754444387133733"><ele>481.0</ele><time>2026-04-18T15:46:25.999Z</time></trkpt><trkpt lat="37.09823785487111" lon="14.754566199130528"><ele>480.0</ele><time>2026-04-18T15:46:26.999Z</time></trkpt><trkpt lat="37.0981508865105" lon="14.754685146540078"><ele>479.0</ele><time>2026-04-18T15:46:27.999Z</time></trkpt><trkpt lat="37.09806333515831" lon="14.75481146240829"><ele>479.0</ele><time>2026-04-18T15:46:28.999Z</time></trkpt><trkpt lat="37.09797308406834" lon="14.754927828060994"><ele>479.0</ele><time>2026-04-18T15:46:29.999Z</time></trkpt><trkpt lat="37.0978858007829" lon="14.755057017750019"><ele>479.0</ele><time>2026-04-18T15:46:30.999Z</time></trkpt><trkpt lat="37.097791083828184" lon="14.75520086841112"><ele>479.0</ele><time>2026-04-18T15:46:31.999Z</time></trkpt><trkpt lat="37.09769322531073" lon="14.755336564057028"><ele>478.6</ele><time>2026-04-18T15:46:32.999Z</time></trkpt><trkpt lat="37.09760940905848" lon="14.755454278874867"><ele>478.2</ele><time>2026-04-18T15:46:33.999Z</time></trkpt><trkpt lat="37.097534413018685" lon="14.75556558648283"><ele>477.80000000000007</ele><time>2026-04-18T15:46:34.999Z</time></trkpt><trkpt lat="37.09745854217112" lon="14.755661156313876"><ele>477.40000000000003</ele><time>2026-04-18T15:46:35.999Z</time></trkpt><trkpt lat="37.097391453115634" lon="14.755752646745622"><ele>477.0</ele><time>2026-04-18T15:46:36.999Z</time></trkpt><trkpt lat="37.097329081258614" lon="14.75583564715754"><ele>477.0</ele><time>2026-04-18T15:46:37.999Z</time></trkpt><trkpt lat="37.09725441674411" lon="14.755909604296816"><ele>477.00000000000006</ele><time>2026-04-18T15:46:38.999Z</time></trkpt><trkpt lat="37.097164283923014" lon="14.755986438362974"><ele>477.00000000000006</ele><time>2026-04-18T15:46:39.998Z</time></trkpt><trkpt lat="37.097078823267104" lon="14.756083928123246"><ele>477.0</ele><time>2026-04-18T15:46:40.998Z</time></trkpt><trkpt lat="37.096995649009656" lon="14.756178973898614"><ele>477.0</ele><time>2026-04-18T15:46:41.998Z</time></trkpt><trkpt lat="37.09690751642923" lon="14.756271572231578"><ele>476.5</ele><time>2026-04-18T15:46:42.998Z</time></trkpt><trkpt lat="37.0968122924284" lon="14.75637681394759"><ele>476.0</ele><time>2026-04-18T15:46:43.998Z</time></trkpt><trkpt lat="37.09670773473091" lon="14.756473710071582"><ele>475.5</ele><time>2026-04-18T15:46:44.998Z</time></trkpt><trkpt lat="37.09663363370275" lon="14.75661360426069"><ele>475.0</ele><time>2026-04-18T15:46:45.998Z</time></trkpt><trkpt lat="37.09657302214644" lon="14.75674551508549"><ele>477.33333333333337</ele><time>2026-04-18T15:46:46.998Z</time></trkpt><trkpt lat="37.09651094568003" lon="14.756927702616704"><ele>479.66666666666663</ele><time>2026-04-18T15:46:47.998Z</time></trkpt><trkpt lat="37.096449474542204" lon="14.757121796695763"><ele>482.0</ele><time>2026-04-18T15:46:48.998Z</time></trkpt><trkpt lat="37.09642094996485" lon="14.757295737824867"><ele>482.0</ele><time>2026-04-18T15:46:49.998Z</time></trkpt><trkpt lat="37.09644166965627" lon="14.75748324653203"><ele>482.0</ele><time>2026-04-18T15:46:50.998Z</time></trkpt><trkpt lat="37.09648602363911" lon="14.757704579073387"><ele>482.0</ele><time>2026-04-18T15:46:51.998Z</time></trkpt><trkpt lat="37.09650850835926" lon="14.757955847068501"><ele>484.0</ele><time>2026-04-18T15:46:52.998Z</time></trkpt><trkpt lat="37.096546644255184" lon="14.75823137841539"><ele>486.0</ele><time>2026-04-18T15:46:53.998Z</time></trkpt><trkpt lat="37.09658677818922" lon="14.758526344778005"><ele>493.0</ele><time>2026-04-18T15:46:54.998Z</time></trkpt><trkpt lat="37.096625825123134" lon="14.758790388379419"><ele>500.0</ele><time>2026-04-18T15:46:55.998Z</time></trkpt><trkpt lat="37.0966734706702" lon="14.75901247038636"><ele>507.0</ele><time>2026-04-18T15:46:57Z</time></trkpt><trkpt lat="37.09668997415716" lon="14.759218990606605"><ele>511.0</ele><time>2026-04-18T15:46:58Z</time></trkpt><trkpt lat="37.09667525792611" lon="14.759418378727217"><ele>515.0</ele><time>2026-04-18T15:46:59Z</time></trkpt><trkpt lat="37.09661093080194" lon="14.759631058395442"><ele>519.0</ele><time>2026-04-18T15:47:00Z</time></trkpt><trkpt lat="37.09654118415415" lon="14.759843192692687"><ele>513.6666666666666</ele><time>2026-04-18T15:47:01Z</time></trkpt><trkpt lat="37.096477043290456" lon="14.760019999860704"><ele>508.3333333333333</ele><time>2026-04-18T15:47:02Z</time></trkpt><trkpt lat="37.09637818575143" lon="14.760176426021674"><ele>503.0</ele><time>2026-04-18T15:47:03Z</time></trkpt><trkpt lat="37.09628032416603" lon="14.760334130252689"><ele>503.0</ele><time>2026-04-18T15:47:04Z</time></trkpt><trkpt lat="37.096214353952604" lon="14.760514740498374"><ele>503.0</ele><time>2026-04-18T15:47:05Z</time></trkpt><trkpt lat="37.09616253309195" lon="14.760707495549045"><ele>503.0</ele><time>2026-04-18T15:47:06Z</time></trkpt><trkpt lat="37.096155728617646" lon="14.760896548096376"><ele>503.5</ele><time>2026-04-18T15:47:07Z</time></trkpt><trkpt lat="37.09619555632862" lon="14.761073615817946"><ele>504.0</ele><time>2026-04-18T15:47:08Z</time></trkpt><trkpt lat="37.096219079367216" lon="14.761257128484566"><ele>504.5</ele><time>2026-04-18T15:47:09Z</time></trkpt><trkpt lat="37.096229316632" lon="14.761422010850211"><ele>505.0</ele><time>2026-04-18T15:47:10Z</time></trkpt><trkpt lat="37.096191518184426" lon="14.761599194471222"><ele>505.0</ele><time>2026-04-18T15:47:11Z</time></trkpt><trkpt lat="37.09617746979532" lon="14.761794420845343"><ele>505.0</ele><time>2026-04-18T15:47:12Z</time></trkpt><trkpt lat="37.09621034508778" lon="14.761996071414464"><ele>505.0</ele><time>2026-04-18T15:47:13Z</time></trkpt><trkpt lat="37.09627419186522" lon="14.76219328130633"><ele>505.8</ele><time>2026-04-18T15:47:14Z</time></trkpt><trkpt lat="37.09635356034753" lon="14.762345997432712"><ele>506.6</ele><time>2026-04-18T15:47:15Z</time></trkpt><trkpt lat="37.09638185069712" lon="14.762477398992512"><ele>507.4</ele><time>2026-04-18T15:47:16Z</time></trkpt><trkpt lat="37.09639567696934" lon="14.762576733933056"><ele>508.2</ele><time>2026-04-18T15:47:17Z</time></trkpt><trkpt lat="37.09634610789687" lon="14.762655436478186"><ele>509.0</ele><time>2026-04-18T15:47:18Z</time></trkpt><trkpt lat="37.09626138054955" lon="14.76272969550799"><ele>511.3333333333333</ele><time>2026-04-18T15:47:19Z</time></trkpt><trkpt lat="37.09615235016159" lon="14.762832521685883"><ele>513.6666666666666</ele><time>2026-04-18T15:47:20Z</time></trkpt><trkpt lat="37.0960837740638" lon="14.76299310080248"><ele>516.0</ele><time>2026-04-18T15:47:21Z</time></trkpt><trkpt lat="37.09603104171762" lon="14.763216452832792"><ele>516.0</ele><time>2026-04-18T15:47:22Z</time></trkpt><trkpt lat="37.09598947816281" lon="14.76349115065351"><ele>516.0</ele><time>2026-04-18T15:47:23Z</time></trkpt><trkpt lat="37.09595351431089" lon="14.7638221731143"><ele>518.0</ele><time>2026-04-18T15:47:24Z</time></trkpt><trkpt lat="37.095956090455026" lon="14.764158309961468"><ele>520.0</ele><time>2026-04-18T15:47:25Z</time></trkpt><trkpt lat="37.09598343178055" lon="14.764287396306317"><ele>522.0</ele><time>2026-04-18T15:47:26Z</time></trkpt><trkpt lat="37.096029836966" lon="14.764573458295104"><ele>523.3333333333334</ele><time>2026-04-18T15:47:27Z</time></trkpt><trkpt lat="37.09606505542958" lon="14.764822458171857"><ele>524.6666666666667</ele><time>2026-04-18T15:47:28Z</time></trkpt><trkpt lat="37.09602394624418" lon="14.765017155818885"><ele>526.0</ele><time>2026-04-18T15:47:29Z</time></trkpt><trkpt lat="37.095971525136065" lon="14.765206264902307"><ele>527.3333333333334</ele><time>2026-04-18T15:47:30Z</time></trkpt><trkpt lat="37.09594621566022" lon="14.765411461005906"><ele>528.6666666666666</ele><time>2026-04-18T15:47:31Z</time></trkpt><trkpt lat="37.09591923818511" lon="14.765627800545339"><ele>530.0</ele><time>2026-04-18T15:47:32Z</time></trkpt><trkpt lat="37.09593289120567" lon="14.765889363942748"><ele>529.0</ele><time>2026-04-18T15:47:33Z</time></trkpt><trkpt lat="37.09597780094609" lon="14.766164425292276"><ele>528.0</ele><time>2026-04-18T15:47:34Z</time></trkpt><trkpt lat="37.09602753641391" lon="14.766425106544792"><ele>527.0</ele><time>2026-04-18T15:47:35Z</time></trkpt><trkpt lat="37.09605911296955" lon="14.766641115024074"><ele>527.0</ele><time>2026-04-18T15:47:36Z</time></trkpt><trkpt lat="37.096084728989766" lon="14.766815642415644"><ele>527.0</ele><time>2026-04-18T15:47:37Z</time></trkpt><trkpt lat="37.096133252259555" lon="14.766923918931214"><ele>527.0</ele><time>2026-04-18T15:47:38Z</time></trkpt><trkpt lat="37.0962192662084" lon="14.767009515058925"><ele>527.0</ele><time>2026-04-18T15:47:39Z</time></trkpt><trkpt lat="37.09634706353572" lon="14.767062827009926"><ele>528.75</ele><time>2026-04-18T15:47:40Z</time></trkpt><trkpt lat="37.09650481448152" lon="14.767113648661866"><ele>530.5</ele><time>2026-04-18T15:47:41Z</time></trkpt><trkpt lat="37.09663951217823" lon="14.767159494550949"><ele>532.25</ele><time>2026-04-18T15:47:42Z</time></trkpt><trkpt lat="37.096728475571645" lon="14.767211935361345"><ele>534.0</ele><time>2026-04-18T15:47:42.999Z</time></trkpt><trkpt lat="37.09676489877495" lon="14.767312363137002"><ele>534.0</ele><time>2026-04-18T15:47:43.999Z</time></trkpt><trkpt lat="37.09672594567653" lon="14.767400427462942"><ele>534.0</ele><time>2026-04-18T15:47:44.999Z</time></trkpt><trkpt lat="37.096708476374545" lon="14.767511403579396"><ele>534.0</ele><time>2026-04-18T15:47:45.999Z</time></trkpt><trkpt lat="37.09665059039398" lon="14.767593926316616"><ele>534.0</ele><time>2026-04-18T15:47:46.999Z</time></trkpt><trkpt lat="37.09656360635696" lon="14.767648030110921"><ele>534.0</ele><time>2026-04-18T15:47:47.999Z</time></trkpt><trkpt lat="37.09641117951876" lon="14.76764578345993"><ele>534.0</ele><time>2026-04-18T15:47:48.999Z</time></trkpt><trkpt lat="37.09627553428364" lon="14.767631930148694"><ele>534.0</ele><time>2026-04-18T15:47:49.999Z</time></trkpt><trkpt lat="37.09612972216137" lon="14.767639964916167"><ele>534.0</ele><time>2026-04-18T15:47:50.999Z</time></trkpt><trkpt lat="37.095989078152755" lon="14.767676679868464"><ele>534.0</ele><time>2026-04-18T15:47:51.999Z</time></trkpt><trkpt lat="37.09585242379296" lon="14.76775111315942"><ele>534.0</ele><time>2026-04-18T15:47:52.999Z</time></trkpt><trkpt lat="37.09572831611638" lon="14.767864962235423"><ele>534.0</ele><time>2026-04-18T15:47:53.999Z</time></trkpt><trkpt lat="37.09563120985205" lon="14.768023050510514"><ele>534.0</ele><time>2026-04-18T15:47:54.999Z</time></trkpt><trkpt lat="37.095542122087394" lon="14.768211501304007"><ele>534.0</ele><time>2026-04-18T15:47:55.999Z</time></trkpt><trkpt lat="37.095470229019625" lon="14.768428907390422"><ele>534.0</ele><time>2026-04-18T15:47:56.999Z</time></trkpt><trkpt lat="37.09539923778457" lon="14.768651389509387"><ele>534.0</ele><time>2026-04-18T15:47:57.999Z</time></trkpt><trkpt lat="37.09534467162155" lon="14.768904994367666"><ele>538.0</ele><time>2026-04-18T15:47:58.999Z</time></trkpt><trkpt lat="37.095303380718356" lon="14.769196484450108"><ele>542.0</ele><time>2026-04-18T15:47:59.999Z</time></trkpt><trkpt lat="37.09525849641723" lon="14.769493656106329"><ele>544.3333333333333</ele><time>2026-04-18T15:48:00.999Z</time></trkpt><trkpt lat="37.09521877523376" lon="14.769753999487754"><ele>546.6666666666666</ele><time>2026-04-18T15:48:01.999Z</time></trkpt><trkpt lat="37.09514110385138" lon="14.769993653994751"><ele>549.0</ele><time>2026-04-18T15:48:02.999Z</time></trkpt><trkpt lat="37.09503457530002" lon="14.770258090572824"><ele>544.5</ele><time>2026-04-18T15:48:03.999Z</time></trkpt><trkpt lat="37.094914415714065" lon="14.770576689622033"><ele>540.0</ele><time>2026-04-18T15:48:04.999Z</time></trkpt><trkpt lat="37.094785937484254" lon="14.770891152838699"><ele>545.0</ele><time>2026-04-18T15:48:05.999Z</time></trkpt><trkpt lat="37.094672825855525" lon="14.771162912993448"><ele>550.0</ele><time>2026-04-18T15:48:06.999Z</time></trkpt><trkpt lat="37.094557366207084" lon="14.771418528880714"><ele>550.0</ele><time>2026-04-18T15:48:07.999Z</time></trkpt><trkpt lat="37.094406836937054" lon="14.771662232707797"><ele>550.0</ele><time>2026-04-18T15:48:08.999Z</time></trkpt><trkpt lat="37.09425583023678" lon="14.771892497350642"><ele>554.5</ele><time>2026-04-18T15:48:09.999Z</time></trkpt><trkpt lat="37.09407777908232" lon="14.77211122109142"><ele>559.0</ele><time>2026-04-18T15:48:10.999Z</time></trkpt><trkpt lat="37.093859983717955" lon="14.772304865650035"><ele>559.0</ele><time>2026-04-18T15:48:11.999Z</time></trkpt><trkpt lat="37.09364588272309" lon="14.772449160612835"><ele>559.0</ele><time>2026-04-18T15:48:12.999Z</time></trkpt><trkpt lat="37.093439556938385" lon="14.7725917610221"><ele>558.3333333333334</ele><time>2026-04-18T15:48:13.999Z</time></trkpt><trkpt lat="37.09322871827044" lon="14.772734961056221"><ele>557.6666666666666</ele><time>2026-04-18T15:48:14.999Z</time></trkpt><trkpt lat="37.09305002814397" lon="14.772871311680543"><ele>557.0</ele><time>2026-04-18T15:48:15.999Z</time></trkpt><trkpt lat="37.09291682016708" lon="14.773020263586169"><ele>557.0</ele><time>2026-04-18T15:48:16.999Z</time></trkpt><trkpt lat="37.09280092406762" lon="14.773211495871893"><ele>557.0</ele><time>2026-04-18T15:48:17.999Z</time></trkpt><trkpt lat="37.092706058816965" lon="14.773448278836137"><ele>557.0</ele><time>2026-04-18T15:48:18.999Z</time></trkpt><trkpt lat="37.09261819694252" lon="14.773639329049294"><ele>558.0</ele><time>2026-04-18T15:48:19.999Z</time></trkpt><trkpt lat="37.09254386575425" lon="14.773782666666362"><ele>559.0</ele><time>2026-04-18T15:48:20.999Z</time></trkpt><trkpt lat="37.092506329744126" lon="14.773894009947929"><ele>560.0</ele><time>2026-04-18T15:48:21.999Z</time></trkpt><trkpt lat="37.0925289619664" lon="14.77400509980168"><ele>561.0</ele><time>2026-04-18T15:48:22.999Z</time></trkpt><trkpt lat="37.09258613293818" lon="14.774138813790541"><ele>562.0</ele><time>2026-04-18T15:48:23.999Z</time></trkpt><trkpt lat="37.09267227251029" lon="14.774313065908533"><ele>564.3333333333334</ele><time>2026-04-18T15:48:24.999Z</time></trkpt><trkpt lat="37.09275300085599" lon="14.77453181255516"><ele>566.6666666666666</ele><time>2026-04-18T15:48:25.999Z</time></trkpt><trkpt lat="37.092851976015716" lon="14.774713444155196"><ele>569.0</ele><time>2026-04-18T15:48:26.999Z</time></trkpt><trkpt lat="37.092929385369295" lon="14.774837858883622"><ele>569.0</ele><time>2026-04-18T15:48:27.999Z</time></trkpt><trkpt lat="37.092962307487284" lon="14.774926211246505"><ele>569.0</ele><time>2026-04-18T15:48:28.999Z</time></trkpt><trkpt lat="37.092948131720846" lon="14.775011283328794"><ele>569.0</ele><time>2026-04-18T15:48:29.999Z</time></trkpt><trkpt lat="37.09290519786415" lon="14.77509559820002"><ele>569.0</ele><time>2026-04-18T15:48:30.999Z</time></trkpt><trkpt lat="37.09281916493661" lon="14.775152455876135"><ele>569.0</ele><time>2026-04-18T15:48:31.999Z</time></trkpt><trkpt lat="37.092723720672765" lon="14.775134075384914"><ele>569.0</ele><time>2026-04-18T15:48:32.999Z</time></trkpt><trkpt lat="37.0926430063103" lon="14.775038631259468"><ele>569.0</ele><time>2026-04-18T15:48:33.999Z</time></trkpt><trkpt lat="37.09253184328683" lon="14.774929823207328"><ele>569.0</ele><time>2026-04-18T15:48:34.999Z</time></trkpt><trkpt lat="37.09240805079857" lon="14.774781878999034"><ele>569.0</ele><time>2026-04-18T15:48:35.999Z</time></trkpt><trkpt lat="37.09225530836501" lon="14.774614120403301"><ele>572.0</ele><time>2026-04-18T15:48:36.999Z</time></trkpt><trkpt lat="37.09210848611766" lon="14.774451536382566"><ele>575.0</ele><time>2026-04-18T15:48:37.999Z</time></trkpt><trkpt lat="37.09198967094925" lon="14.774273891481348"><ele>578.0</ele><time>2026-04-18T15:48:38.999Z</time></trkpt><trkpt lat="37.091919722404505" lon="14.77408170364508"><ele>578.0</ele><time>2026-04-18T15:48:39.999Z</time></trkpt><trkpt lat="37.09185695655648" lon="14.773919895302416"><ele>578.0</ele><time>2026-04-18T15:48:40.999Z</time></trkpt><trkpt lat="37.09180632659435" lon="14.773794334715795"><ele>578.0</ele><time>2026-04-18T15:48:41.999Z</time></trkpt><trkpt lat="37.091706388456416" lon="14.773733541602725"><ele>578.0</ele><time>2026-04-18T15:48:42.999Z</time></trkpt><trkpt lat="37.091571793865086" lon="14.773719515164325"><ele>581.6666666666666</ele><time>2026-04-18T15:48:43.999Z</time></trkpt><trkpt lat="37.091395173885154" lon="14.7737479293979"><ele>585.3333333333334</ele><time>2026-04-18T15:48:44.998Z</time></trkpt><trkpt lat="37.091200381801045" lon="14.773772202366771"><ele>589.0</ele><time>2026-04-18T15:48:45.998Z</time></trkpt><trkpt lat="37.09100196072677" lon="14.77376447397647"><ele>589.0</ele><time>2026-04-18T15:48:46.998Z</time></trkpt><trkpt lat="37.09082020022212" lon="14.773708273389145"><ele>589.0</ele><time>2026-04-18T15:48:47.998Z</time></trkpt><trkpt lat="37.090661069939" lon="14.773668162598918"><ele>589.0</ele><time>2026-04-18T15:48:48.998Z</time></trkpt><trkpt lat="37.09053671909784" lon="14.773647906431693"><ele>589.1666666666667</ele><time>2026-04-18T15:48:49.998Z</time></trkpt><trkpt lat="37.0904510601932" lon="14.773592733458344"><ele>589.3333333333334</ele><time>2026-04-18T15:48:50.998Z</time></trkpt><trkpt lat="37.090402659266715" lon="14.773509005769556"><ele>589.5</ele><time>2026-04-18T15:48:51.998Z</time></trkpt><trkpt lat="37.09041383518362" lon="14.773407804971724"><ele>589.6666666666666</ele><time>2026-04-18T15:48:52.998Z</time></trkpt><trkpt lat="37.09045165652702" lon="14.773327856783666"><ele>589.8333333333333</ele><time>2026-04-18T15:48:53.998Z</time></trkpt><trkpt lat="37.09055467580417" lon="14.773294434277407"><ele>590.0</ele><time>2026-04-18T15:48:54.998Z</time></trkpt><trkpt lat="37.09065798993112" lon="14.773201002506253"><ele>586.0</ele><time>2026-04-18T15:48:55.998Z</time></trkpt><trkpt lat="37.09077478736585" lon="14.773098498512763"><ele>582.0</ele><time>2026-04-18T15:48:56.998Z</time></trkpt><trkpt lat="37.090874580060294" lon="14.772961849860696"><ele>578.0</ele><time>2026-04-18T15:48:57.998Z</time></trkpt><trkpt lat="37.090942182905636" lon="14.772822250264086"><ele>574.0</ele><time>2026-04-18T15:48:58.998Z</time></trkpt><trkpt lat="37.09101880413586" lon="14.772721835353218"><ele>574.0</ele><time>2026-04-18T15:48:59.998Z</time></trkpt><trkpt lat="37.09113413443873" lon="14.772713387492203"><ele>574.0</ele><time>2026-04-18T15:49:00.998Z</time></trkpt><trkpt lat="37.09126843365566" lon="14.772699494269144"><ele>574.0</ele><time>2026-04-18T15:49:01.998Z</time></trkpt><trkpt lat="37.091444691764316" lon="14.772662293380565"><ele>574.0</ele><time>2026-04-18T15:49:03Z</time></trkpt><trkpt lat="37.09161748175319" lon="14.772622188379893"><ele>577.0</ele><time>2026-04-18T15:49:04Z</time></trkpt><trkpt lat="37.09177836965784" lon="14.772536919470658"><ele>580.0</ele><time>2026-04-18T15:49:05Z</time></trkpt><trkpt lat="37.09192854020121" lon="14.772398383768998"><ele>583.0</ele><time>2026-04-18T15:49:06Z</time></trkpt><trkpt lat="37.092053681316834" lon="14.772251114320806"><ele>583.0</ele><time>2026-04-18T15:49:07Z</time></trkpt><trkpt lat="37.09215223419878" lon="14.772070985824334"><ele>583.0</ele><time>2026-04-18T15:49:08Z</time></trkpt><trkpt lat="37.092246131141536" lon="14.771842379510792"><ele>583.0</ele><time>2026-04-18T15:49:09Z</time></trkpt><trkpt lat="37.09235698224204" lon="14.77162379567959"><ele>582.6666666666667</ele><time>2026-04-18T15:49:10Z</time></trkpt><trkpt lat="37.0925124878269" lon="14.771463400973564"><ele>582.3333333333334</ele><time>2026-04-18T15:49:11Z</time></trkpt><trkpt lat="37.09265579846268" lon="14.77132653544825"><ele>582.0</ele><time>2026-04-18T15:49:12Z</time></trkpt><trkpt lat="37.092769074092594" lon="14.771188119561293"><ele>582.0</ele><time>2026-04-18T15:49:13Z</time></trkpt><trkpt lat="37.092855507794134" lon="14.771026903542936"><ele>582.0</ele><time>2026-04-18T15:49:14Z</time></trkpt><trkpt lat="37.09289664378273" lon="14.770828827451972"><ele>582.0</ele><time>2026-04-18T15:49:15Z</time></trkpt><trkpt lat="37.0929150135171" lon="14.770620911442162"><ele>588.75</ele><time>2026-04-18T15:49:16Z</time></trkpt><trkpt lat="37.09298993708975" lon="14.770479002690736"><ele>595.5</ele><time>2026-04-18T15:49:17Z</time></trkpt><trkpt lat="37.09308808588806" lon="14.770366211848609"><ele>602.25</ele><time>2026-04-18T15:49:18Z</time></trkpt><trkpt lat="37.09315806211718" lon="14.770245208993344"><ele>609.0</ele><time>2026-04-18T15:49:19Z</time></trkpt><trkpt lat="37.09317024244275" lon="14.770102435987054"><ele>613.6666666666666</ele><time>2026-04-18T15:49:20Z</time></trkpt><trkpt lat="37.093120235105815" lon="14.769933865175517"><ele>618.3333333333333</ele><time>2026-04-18T15:49:21Z</time></trkpt><trkpt lat="37.09304501661288" lon="14.769742938044418"><ele>623.0</ele><time>2026-04-18T15:49:22Z</time></trkpt><trkpt lat="37.09294897495146" lon="14.769548532988782"><ele>623.0</ele><time>2026-04-18T15:49:23Z</time></trkpt><trkpt lat="37.0928351565952" lon="14.769391691929235"><ele>623.0</ele><time>2026-04-18T15:49:24Z</time></trkpt><trkpt lat="37.09271720715281" lon="14.76927591665232"><ele>623.0</ele><time>2026-04-18T15:49:25Z</time></trkpt><trkpt lat="37.092660102155165" lon="14.769127046568558"><ele>620.75</ele><time>2026-04-18T15:49:26Z</time></trkpt><trkpt lat="37.092679768195445" lon="14.76896491081555"><ele>618.5</ele><time>2026-04-18T15:49:27Z</time></trkpt><trkpt lat="37.09271071344084" lon="14.76880876823537"><ele>616.25</ele><time>2026-04-18T15:49:28Z</time></trkpt><trkpt lat="37.09278735024782" lon="14.76866672237097"><ele>614.0</ele><time>2026-04-18T15:49:29Z</time></trkpt><trkpt lat="37.092902067886996" lon="14.768565487950045"><ele>610.25</ele><time>2026-04-18T15:49:30Z</time></trkpt><trkpt lat="37.093035965447406" lon="14.76850887335672"><ele>606.5</ele><time>2026-04-18T15:49:31Z</time></trkpt><trkpt lat="37.09317642237517" lon="14.768497883072365"><ele>602.75</ele><time>2026-04-18T15:49:32Z</time></trkpt><trkpt lat="37.09329304822055" lon="14.768478630467103"><ele>599.0</ele><time>2026-04-18T15:49:33Z</time></trkpt><trkpt lat="37.0933810537833" lon="14.768388763456382"><ele>599.0</ele><time>2026-04-18T15:49:34Z</time></trkpt><trkpt lat="37.09343386428202" lon="14.76824876183424"><ele>599.0</ele><time>2026-04-18T15:49:35Z</time></trkpt><trkpt lat="37.09345062594151" lon="14.7680695918672"><ele>599.0</ele><time>2026-04-18T15:49:36Z</time></trkpt><trkpt lat="37.09349120811069" lon="14.76786505514022"><ele>599.0</ele><time>2026-04-18T15:49:37Z</time></trkpt><trkpt lat="37.093528832739786" lon="14.767681681284358"><ele>601.25</ele><time>2026-04-18T15:49:38Z</time></trkpt><trkpt lat="37.09352636229419" lon="14.767521536813218"><ele>603.5</ele><time>2026-04-18T15:49:39Z</time></trkpt><trkpt lat="37.09346943885433" lon="14.767387750530817"><ele>605.75</ele><time>2026-04-18T15:49:40Z</time></trkpt><trkpt lat="37.093378701025394" lon="14.767308097690595"><ele>608.0</ele><time>2026-04-18T15:49:41Z</time></trkpt><trkpt lat="37.09324771126808" lon="14.767249635059267"><ele>617.6666666666666</ele><time>2026-04-18T15:49:42Z</time></trkpt><trkpt lat="37.09308410502513" lon="14.767194636770103"><ele>627.3333333333334</ele><time>2026-04-18T15:49:43Z</time></trkpt><trkpt lat="37.09291381603754" lon="14.767097855952002"><ele>637.0</ele><time>2026-04-18T15:49:44Z</time></trkpt><trkpt lat="37.09271460447646" lon="14.767018913000609"><ele>637.0</ele><time>2026-04-18T15:49:45Z</time></trkpt><trkpt lat="37.09251459992415" lon="14.766905951049164"><ele>637.0</ele><time>2026-04-18T15:49:45.999Z</time></trkpt><trkpt lat="37.09233084022272" lon="14.766782234994054"><ele>637.0</ele><time>2026-04-18T15:49:46.999Z</time></trkpt><trkpt lat="37.092172855191734" lon="14.766651499665276"><ele>640.25</ele><time>2026-04-18T15:49:47.999Z</time></trkpt><trkpt lat="37.09206920608852" lon="14.766493960604551"><ele>643.5</ele><time>2026-04-18T15:49:48.999Z</time></trkpt><trkpt lat="37.09198590628031" lon="14.766338700531422"><ele>646.75</ele><time>2026-04-18T15:49:49.999Z</time></trkpt><trkpt lat="37.091923052637796" lon="14.766203928043248"><ele>650.0</ele><time>2026-04-18T15:49:50.999Z</time></trkpt><trkpt lat="37.09191964786271" lon="14.766074555111498"><ele>649.25</ele><time>2026-04-18T15:49:51.999Z</time></trkpt><trkpt lat="37.09195837687876" lon="14.765978037804604"><ele>648.5</ele><time>2026-04-18T15:49:52.999Z</time></trkpt><trkpt lat="37.09204095650597" lon="14.765912862119915"><ele>647.75</ele><time>2026-04-18T15:49:53.999Z</time></trkpt><trkpt lat="37.092163969154555" lon="14.765891485877333"><ele>647.0</ele><time>2026-04-18T15:49:54.999Z</time></trkpt><trkpt lat="37.09230267688832" lon="14.765831674677282"><ele>638.0</ele><time>2026-04-18T15:49:55.999Z</time></trkpt><trkpt lat="37.09247513857637" lon="14.765789718981113"><ele>629.0</ele><time>2026-04-18T15:49:56.999Z</time></trkpt><trkpt lat="37.09263021256615" lon="14.76573401864602"><ele>620.0</ele><time>2026-04-18T15:49:57.999Z</time></trkpt><trkpt lat="37.09278566027865" lon="14.765661450878046"><ele>620.0</ele><time>2026-04-18T15:49:58.999Z</time></trkpt><trkpt lat="37.09290707255168" lon="14.765598717065972"><ele>620.0</ele><time>2026-04-18T15:49:59.999Z</time></trkpt><trkpt lat="37.09298997038326" lon="14.76553002887854"><ele>620.0</ele><time>2026-04-18T15:50:00.999Z</time></trkpt><trkpt lat="37.09304126750874" lon="14.765432881431105"><ele>620.0</ele><time>2026-04-18T15:50:01.999Z</time></trkpt><trkpt lat="37.09304353573634" lon="14.765326480995235"><ele>620.0</ele><time>2026-04-18T15:50:02.999Z</time></trkpt><trkpt lat="37.0930166066831" lon="14.765191035307652"><ele>625.75</ele><time>2026-04-18T15:50:03.999Z</time></trkpt><trkpt lat="37.09297594417056" lon="14.765021973237866"><ele>631.5</ele><time>2026-04-18T15:50:04.999Z</time></trkpt><trkpt lat="37.09293390470205" lon="14.764837364894392"><ele>637.25</ele><time>2026-04-18T15:50:05.999Z</time></trkpt><trkpt lat="37.09292778557701" lon="14.764648422638768"><ele>643.0</ele><time>2026-04-18T15:50:06.999Z</time></trkpt><trkpt lat="37.092960260252916" lon="14.764442876596519"><ele>642.25</ele><time>2026-04-18T15:50:07.999Z</time></trkpt><trkpt lat="37.09302124452513" lon="14.764269861259661"><ele>641.5</ele><time>2026-04-18T15:50:08.999Z</time></trkpt><trkpt lat="37.09307024167485" lon="14.764129612856694"><ele>640.75</ele><time>2026-04-18T15:50:09.999Z</time></trkpt><trkpt lat="37.093057484528956" lon="14.764014932729582"><ele>640.0</ele><time>2026-04-18T15:50:10.999Z</time></trkpt><trkpt lat="37.092992640235906" lon="14.763938949401368"><ele>640.0</ele><time>2026-04-18T15:50:11.999Z</time></trkpt><trkpt lat="37.092902394560205" lon="14.76391933982491"><ele>640.0</ele><time>2026-04-18T15:50:12.999Z</time></trkpt><trkpt lat="37.09280216041375" lon="14.76393639425319"><ele>640.0</ele><time>2026-04-18T15:50:13.999Z</time></trkpt><trkpt lat="37.09268787328033" lon="14.763978744343822"><ele>640.0</ele><time>2026-04-18T15:50:14.999Z</time></trkpt><trkpt lat="37.09256519508672" lon="14.763997064226897"><ele>640.0</ele><time>2026-04-18T15:50:15.999Z</time></trkpt><trkpt lat="37.09243923476459" lon="14.763981128757734"><ele>648.25</ele><time>2026-04-18T15:50:16.999Z</time></trkpt><trkpt lat="37.09232247127013" lon="14.76391087364086"><ele>656.5</ele><time>2026-04-18T15:50:17.999Z</time></trkpt><trkpt lat="37.092230943459406" lon="14.763773271944855"><ele>664.75</ele><time>2026-04-18T15:50:18.999Z</time></trkpt><trkpt lat="37.09215574726237" lon="14.76367523466081"><ele>673.0</ele><time>2026-04-18T15:50:19.999Z</time></trkpt><trkpt lat="37.09203577270426" lon="14.763569597464672"><ele>669.5</ele><time>2026-04-18T15:50:20.999Z</time></trkpt><trkpt lat="37.09190491238898" lon="14.763469125030483"><ele>666.0</ele><time>2026-04-18T15:50:21.999Z</time></trkpt><trkpt lat="37.091792939347485" lon="14.763388675065258"><ele>662.5</ele><time>2026-04-18T15:50:22.999Z</time></trkpt><trkpt lat="37.09170372062283" lon="14.763286095075841"><ele>659.0</ele><time>2026-04-18T15:50:23.999Z</time></trkpt><trkpt lat="37.09165231934222" lon="14.763156971399848"><ele>659.0</ele><time>2026-04-18T15:50:24.999Z</time></trkpt><trkpt lat="37.09169401862261" lon="14.76300933930992"><ele>659.0</ele><time>2026-04-18T15:50:25.999Z</time></trkpt><trkpt lat="37.09173757718689" lon="14.76285653361745"><ele>659.0</ele><time>2026-04-18T15:50:26.999Z</time></trkpt><trkpt lat="37.09180299550241" lon="14.76267994090664"><ele>659.0</ele><time>2026-04-18T15:50:27.999Z</time></trkpt><trkpt lat="37.091870467163446" lon="14.762482534086862"><ele>660.25</ele><time>2026-04-18T15:50:28.999Z</time></trkpt><trkpt lat="37.091980908216165" lon="14.762345034416116"><ele>661.5</ele><time>2026-04-18T15:50:29.999Z</time></trkpt><trkpt lat="37.092088743351916" lon="14.76221626318466"><ele>662.75</ele><time>2026-04-18T15:50:30.999Z</time></trkpt><trkpt lat="37.092151836008455" lon="14.762054322123598"><ele>664.0</ele><time>2026-04-18T15:50:31.999Z</time></trkpt><trkpt lat="37.09216784239649" lon="14.761875273943144"><ele>663.25</ele><time>2026-04-18T15:50:32.999Z</time></trkpt><trkpt lat="37.092153588214735" lon="14.76169694376752"><ele>662.5</ele><time>2026-04-18T15:50:33.999Z</time></trkpt><trkpt lat="37.09213641372273" lon="14.761542975580927"><ele>661.75</ele><time>2026-04-18T15:50:34.999Z</time></trkpt><trkpt lat="37.09214732237355" lon="14.761400119761623"><ele>661.0</ele><time>2026-04-18T15:50:35.999Z</time></trkpt><trkpt lat="37.09219623964431" lon="14.761260149431434"><ele>661.0</ele><time>2026-04-18T15:50:36.999Z</time></trkpt><trkpt lat="37.09228564699062" lon="14.761161394095579"><ele>661.0</ele><time>2026-04-18T15:50:37.999Z</time></trkpt><trkpt lat="37.09236140492574" lon="14.761090832904564"><ele>661.0</ele><time>2026-04-18T15:50:38.999Z</time></trkpt><trkpt lat="37.092414088882656" lon="14.761008111071337"><ele>661.0</ele><time>2026-04-18T15:50:39.999Z</time></trkpt><trkpt lat="37.09244369077815" lon="14.760904514267837"><ele>661.0</ele><time>2026-04-18T15:51:13Z</time></trkpt><trkpt lat="37.09249502469682" lon="14.760855586847173"><ele>660.1666666666667</ele><time>2026-04-18T15:51:14Z</time></trkpt><trkpt lat="37.09255317535984" lon="14.760804411365315"><ele>659.3333333333334</ele><time>2026-04-18T15:51:15Z</time></trkpt><trkpt lat="37.09260335477995" lon="14.760742143869795"><ele>658.5</ele><time>2026-04-18T15:51:16Z</time></trkpt><trkpt lat="37.09265684937839" lon="14.760678197641647"><ele>657.6666666666666</ele><time>2026-04-18T15:51:17Z</time></trkpt><trkpt lat="37.09270891038888" lon="14.760610210261495"><ele>656.8333333333333</ele><time>2026-04-18T15:51:18Z</time></trkpt><trkpt lat="37.092740087750904" lon="14.760529696865103"><ele>656.0</ele><time>2026-04-18T15:51:19Z</time></trkpt><trkpt lat="37.0927639329095" lon="14.760412526086615"><ele>656.0</ele><time>2026-04-18T15:51:20Z</time></trkpt><trkpt lat="37.092783076384286" lon="14.760254357009284"><ele>656.0</ele><time>2026-04-18T15:51:21Z</time></trkpt><trkpt lat="37.092803821840455" lon="14.760111117793153"><ele>656.0</ele><time>2026-04-18T15:51:22Z</time></trkpt><trkpt lat="37.09282658243807" lon="14.759975032513466"><ele>656.0</ele><time>2026-04-18T15:51:23Z</time></trkpt><trkpt lat="37.09284973056082" lon="14.759852462123366"><ele>656.3333333333333</ele><time>2026-04-18T15:51:24Z</time></trkpt><trkpt lat="37.09286717371918" lon="14.759741175847587"><ele>656.6666666666666</ele><time>2026-04-18T15:51:25Z</time></trkpt><trkpt lat="37.09287074756592" lon="14.759643394717795"><ele>657.0</ele><time>2026-04-18T15:51:26Z</time></trkpt><trkpt lat="37.092866739356346" lon="14.759560630943268"><ele>657.3333333333334</ele><time>2026-04-18T15:51:27Z</time></trkpt><trkpt lat="37.09278638732825" lon="14.759485278611095"><ele>657.6666666666667</ele><time>2026-04-18T15:51:29Z</time></trkpt><trkpt lat="37.09267989540808" lon="14.75953152654234"><ele>658.0</ele><time>2026-04-18T15:51:31Z</time></trkpt><trkpt lat="37.092655650184426" lon="14.759642955504033"><ele>658.0</ele><time>2026-04-18T15:51:32Z</time></trkpt><trkpt lat="37.09260147754175" lon="14.759708697676114"><ele>658.0</ele><time>2026-04-18T15:51:33Z</time></trkpt><trkpt lat="37.092548917009864" lon="14.759797837402292"><ele>658.0</ele><time>2026-04-18T15:51:34Z</time></trkpt><trkpt lat="37.09249729470294" lon="14.759885484017026"><ele>658.0</ele><time>2026-04-18T15:51:35Z</time></trkpt><trkpt lat="37.09244525430528" lon="14.759965173941287"><ele>658.0</ele><time>2026-04-18T15:51:36Z</time></trkpt><trkpt lat="37.09238130083341" lon="14.760057194260986"><ele>658.0</ele><time>2026-04-18T15:51:37Z</time></trkpt><trkpt lat="37.09232063930751" lon="14.760135499927777"><ele>656.8</ele><time>2026-04-18T15:51:38Z</time></trkpt><trkpt lat="37.09225023938894" lon="14.760213442690677"><ele>655.5999999999999</ele><time>2026-04-18T15:51:39Z</time></trkpt><trkpt lat="37.09217101646448" lon="14.76029545888855"><ele>654.4000000000001</ele><time>2026-04-18T15:51:40Z</time></trkpt><trkpt lat="37.092087961960786" lon="14.760382739443202"><ele>653.2</ele><time>2026-04-18T15:51:41Z</time></trkpt><trkpt lat="37.09201462923115" lon="14.760463366268628"><ele>652.0</ele><time>2026-04-18T15:51:42Z</time></trkpt><trkpt lat="37.091950460460076" lon="14.76054091676827"><ele>652.0</ele><time>2026-04-18T15:51:43Z</time></trkpt><trkpt lat="37.091896165201355" lon="14.760614933932603"><ele>652.0</ele><time>2026-04-18T15:51:44Z</time></trkpt><trkpt lat="37.091846831433536" lon="14.760688706441186"><ele>652.0</ele><time>2026-04-18T15:51:45Z</time></trkpt><trkpt lat="37.091779289060796" lon="14.760796411158394"><ele>652.0</ele><time>2026-04-18T15:51:47Z</time></trkpt><trkpt lat="37.091770231966336" lon="14.76090392369757"><ele>652.0</ele><time>2026-04-18T15:51:49Z</time></trkpt><trkpt lat="37.09185200141693" lon="14.760986613461336"><ele>653.8</ele><time>2026-04-18T15:51:52Z</time></trkpt><trkpt lat="37.0919460073771" lon="14.761062345801934"><ele>655.6</ele><time>2026-04-18T15:51:53.999Z</time></trkpt><trkpt lat="37.09201596696301" lon="14.761126121571653"><ele>657.4</ele><time>2026-04-18T15:51:55.999Z</time></trkpt><trkpt lat="37.091997877541374" lon="14.761256851231028"><ele>659.1999999999999</ele><time>2026-04-18T15:51:57.999Z</time></trkpt><trkpt lat="37.09196571172974" lon="14.761335845307885"><ele>661.0</ele><time>2026-04-18T15:51:58.999Z</time></trkpt><trkpt lat="37.09189307032554" lon="14.761441944070954"><ele>661.0</ele><time>2026-04-18T15:52:00.999Z</time></trkpt><trkpt lat="37.09182347425586" lon="14.761485059711307"><ele>661.0</ele><time>2026-04-18T15:52:01.999Z</time></trkpt><trkpt lat="37.09173542983673" lon="14.761461753712572"><ele>661.0</ele><time>2026-04-18T15:52:02.999Z</time></trkpt><trkpt lat="37.091676646657014" lon="14.761498357052048"><ele>661.0</ele><time>2026-04-18T15:52:03.999Z</time></trkpt><trkpt lat="37.09164649180333" lon="14.7616475291261"><ele>661.0</ele><time>2026-04-18T15:52:05.999Z</time></trkpt><trkpt lat="37.091661632551336" lon="14.761739011669901"><ele>661.0</ele><time>2026-04-18T15:52:06.999Z</time></trkpt><trkpt lat="37.091686148775985" lon="14.761827198839919"><ele>661.5</ele><time>2026-04-18T15:52:07.999Z</time></trkpt><trkpt lat="37.09173627087953" lon="14.761910932565304"><ele>662.0</ele><time>2026-04-18T15:52:08.999Z</time></trkpt><trkpt lat="37.09175143436559" lon="14.761991860202171"><ele>662.5</ele><time>2026-04-18T15:52:09.999Z</time></trkpt><trkpt lat="37.09168795027165" lon="14.762054281126472"><ele>663.0</ele><time>2026-04-18T15:52:11.999Z</time></trkpt><trkpt lat="37.0916355289409" lon="14.762107525867522"><ele>663.5</ele><time>2026-04-18T15:52:13.999Z</time></trkpt><trkpt lat="37.09157367788492" lon="14.762168758471224"><ele>664.0</ele><time>2026-04-18T15:52:14.999Z</time></trkpt><trkpt lat="37.09151085675068" lon="14.762230323180091"><ele>665.0</ele><time>2026-04-18T15:52:15.999Z</time></trkpt><trkpt lat="37.09144100374216" lon="14.762298779136138"><ele>666.0</ele><time>2026-04-18T15:52:16.999Z</time></trkpt><trkpt lat="37.091378384308484" lon="14.762376132835456"><ele>667.0</ele><time>2026-04-18T15:52:17.999Z</time></trkpt><trkpt lat="37.09131217476754" lon="14.762434095406372"><ele>668.0</ele><time>2026-04-18T15:52:18.999Z</time></trkpt><trkpt lat="37.09125794407325" lon="14.76248571938697"><ele>669.0</ele><time>2026-04-18T15:52:20.999Z</time></trkpt><trkpt lat="37.09126590370058" lon="14.762598682625642"><ele>670.0</ele><time>2026-04-18T15:52:22.999Z</time></trkpt><trkpt lat="37.09126605283683" lon="14.762682922174744"><ele>674.0</ele><time>2026-04-18T15:52:23.999Z</time></trkpt><trkpt lat="37.091217993287394" lon="14.762766273149303"><ele>678.0</ele><time>2026-04-18T15:52:24.999Z</time></trkpt><trkpt lat="37.09117781603658" lon="14.76288852571314"><ele>682.0</ele><time>2026-04-18T15:52:25.999Z</time></trkpt><trkpt lat="37.09113907147648" lon="14.763014449393248"><ele>686.0</ele><time>2026-04-18T15:52:26.999Z</time></trkpt><trkpt lat="37.09110280933403" lon="14.763151333837614"><ele>690.0</ele><time>2026-04-18T15:52:27.999Z</time></trkpt><trkpt lat="37.091075548521715" lon="14.763279975643432"><ele>690.0</ele><time>2026-04-18T15:52:28.999Z</time></trkpt><trkpt lat="37.09107737489162" lon="14.763408671450438"><ele>690.0</ele><time>2026-04-18T15:52:29.999Z</time></trkpt><trkpt lat="37.091057021177875" lon="14.763536756758729"><ele>690.0</ele><time>2026-04-18T15:52:30.999Z</time></trkpt><trkpt lat="37.091059155681" lon="14.763675553821818"><ele>690.0</ele><time>2026-04-18T15:52:31.999Z</time></trkpt><trkpt lat="37.091077752065004" lon="14.763809451049198"><ele>690.0</ele><time>2026-04-18T15:52:32.999Z</time></trkpt><trkpt lat="37.09111062671882" lon="14.763923462371343"><ele>690.8</ele><time>2026-04-18T15:52:33.999Z</time></trkpt><trkpt lat="37.091174804566165" lon="14.764020605361035"><ele>691.6</ele><time>2026-04-18T15:52:34.999Z</time></trkpt><trkpt lat="37.09124805892706" lon="14.764127732142898"><ele>692.4000000000001</ele><time>2026-04-18T15:52:35.999Z</time></trkpt><trkpt lat="37.09130693742249" lon="14.764221838175942"><ele>693.2</ele><time>2026-04-18T15:52:36.999Z</time></trkpt><trkpt lat="37.091345054847714" lon="14.764315749835525"><ele>694.0</ele><time>2026-04-18T15:52:37.999Z</time></trkpt><trkpt lat="37.09136488783232" lon="14.764408482613034"><ele>694.0</ele><time>2026-04-18T15:52:38.999Z</time></trkpt><trkpt lat="37.091355264981814" lon="14.764501068713852"><ele>694.0</ele><time>2026-04-18T15:52:39.999Z</time></trkpt><trkpt lat="37.0913336834094" lon="14.764637654940723"><ele>694.0</ele><time>2026-04-18T15:52:41.999Z</time></trkpt><trkpt lat="37.091276649692766" lon="14.764702600247833"><ele>694.0</ele><time>2026-04-18T15:52:42.999Z</time></trkpt><trkpt lat="37.09119333078048" lon="14.764717741613735"><ele>694.0</ele><time>2026-04-18T15:52:43.999Z</time></trkpt><trkpt lat="37.09111369006798" lon="14.764760485778629"><ele>694.0</ele><time>2026-04-18T15:52:44.999Z</time></trkpt><trkpt lat="37.091051749183805" lon="14.764790657510101"><ele>694.0</ele><time>2026-04-18T15:52:45.999Z</time></trkpt><trkpt lat="37.09097101271111" lon="14.764844733568824"><ele>694.0</ele><time>2026-04-18T15:52:46.999Z</time></trkpt><trkpt lat="37.090915329555855" lon="14.764902185986632"><ele>694.0</ele><time>2026-04-18T15:52:47.999Z</time></trkpt><trkpt lat="37.0908450973841" lon="14.764981942566918"><ele>694.0</ele><time>2026-04-18T15:52:49.999Z</time></trkpt><trkpt lat="37.09080265311463" lon="14.765094405403925"><ele>694.0</ele><time>2026-04-18T15:53:36Z</time></trkpt><trkpt lat="37.09078112996902" lon="14.765171351841886"><ele>694.0</ele><time>2026-04-18T15:53:37Z</time></trkpt><trkpt lat="37.090748234330675" lon="14.765267499843507"><ele>692.5</ele><time>2026-04-18T15:53:38Z</time></trkpt><trkpt lat="37.09069954202833" lon="14.765348951720744"><ele>691.0</ele><time>2026-04-18T15:53:39Z</time></trkpt><trkpt lat="37.09064145499751" lon="14.7654206081617"><ele>689.5</ele><time>2026-04-18T15:53:40Z</time></trkpt><trkpt lat="37.09058071429117" lon="14.765496954131603"><ele>688.0</ele><time>2026-04-18T15:53:41Z</time></trkpt><trkpt lat="37.09052589564633" lon="14.765568794172962"><ele>686.5</ele><time>2026-04-18T15:53:42Z</time></trkpt><trkpt lat="37.090471350056006" lon="14.765635590726328"><ele>685.0</ele><time>2026-04-18T15:53:43Z</time></trkpt><trkpt lat="37.09041926083744" lon="14.765693484274557"><ele>685.0</ele><time>2026-04-18T15:53:44Z</time></trkpt><trkpt lat="37.090366470653024" lon="14.76576018275876"><ele>685.0</ele><time>2026-04-18T15:53:46Z</time></trkpt><trkpt lat="37.09031830688722" lon="14.765651755356158"><ele>685.0</ele><time>2026-04-18T15:53:49Z</time></trkpt><trkpt lat="37.09030551817018" lon="14.765482242175517"><ele>685.0</ele><time>2026-04-18T15:53:51Z</time></trkpt><trkpt lat="37.09027422255581" lon="14.765389355892998"><ele>685.0</ele><time>2026-04-18T15:53:52Z</time></trkpt><trkpt lat="37.09022575419785" lon="14.765299948418814"><ele>686.25</ele><time>2026-04-18T15:53:53Z</time></trkpt><trkpt lat="37.09016588620198" lon="14.76517418428837"><ele>687.5</ele><time>2026-04-18T15:53:54Z</time></trkpt><trkpt lat="37.09009489344949" lon="14.765044674672218"><ele>688.75</ele><time>2026-04-18T15:53:55Z</time></trkpt><trkpt lat="37.090051505005384" lon="14.764916045561575"><ele>690.0</ele><time>2026-04-18T15:53:56Z</time></trkpt><trkpt lat="37.089995903482446" lon="14.764792696295938"><ele>690.0</ele><time>2026-04-18T15:53:57Z</time></trkpt><trkpt lat="37.08993737046567" lon="14.764661727276154"><ele>690.0</ele><time>2026-04-18T15:53:58Z</time></trkpt><trkpt lat="37.08988237869325" lon="14.764535299432227"><ele>690.0</ele><time>2026-04-18T15:53:59Z</time></trkpt><trkpt lat="37.08983254573072" lon="14.764429109654792"><ele>690.0</ele><time>2026-04-18T15:53:59.999Z</time></trkpt><trkpt lat="37.08977180199816" lon="14.764346036088746"><ele>690.0</ele><time>2026-04-18T15:54:00.999Z</time></trkpt><trkpt lat="37.08971887754539" lon="14.764260403463787"><ele>690.0</ele><time>2026-04-18T15:54:01.999Z</time></trkpt><trkpt lat="37.089670605996666" lon="14.764180765235697"><ele>690.0</ele><time>2026-04-18T15:54:02.999Z</time></trkpt><trkpt lat="37.08958375144256" lon="14.764090728861438"><ele>690.0</ele><time>2026-04-18T15:54:04.999Z</time></trkpt><trkpt lat="37.089510792827426" lon="14.76401900956446"><ele>690.0</ele><time>2026-04-18T15:54:06.999Z</time></trkpt><trkpt lat="37.0893993850986" lon="14.763941310082618"><ele>690.0</ele><time>2026-04-18T15:54:08.999Z</time></trkpt><trkpt lat="37.08933100446017" lon="14.763890755450737"><ele>690.0</ele><time>2026-04-18T15:54:09.999Z</time></trkpt><trkpt lat="37.08927071155094" lon="14.763846363958434"><ele>690.0</ele><time>2026-04-18T15:54:10.999Z</time></trkpt><trkpt lat="37.08918739136042" lon="14.763743863393191"><ele>690.0</ele><time>2026-04-18T15:54:12.999Z</time></trkpt><trkpt lat="37.089151381347484" lon="14.763596927785656"><ele>690.0</ele><time>2026-04-18T15:54:14.999Z</time></trkpt><trkpt lat="37.0891335415141" lon="14.763501243070806"><ele>690.0</ele><time>2026-04-18T15:54:15.999Z</time></trkpt><trkpt lat="37.08912594779972" lon="14.763351958591231"><ele>689.4285714285714</ele><time>2026-04-18T15:54:17.999Z</time></trkpt><trkpt lat="37.08912146308699" lon="14.76326900031658"><ele>688.8571428571429</ele><time>2026-04-18T15:54:18.999Z</time></trkpt><trkpt lat="37.08910867229263" lon="14.763168960102568"><ele>688.2857142857142</ele><time>2026-04-18T15:54:19.999Z</time></trkpt><trkpt lat="37.0890978973809" lon="14.76308313943662"><ele>687.7142857142858</ele><time>2026-04-18T15:54:20.999Z</time></trkpt><trkpt lat="37.08909145650024" lon="14.762998212541461"><ele>687.1428571428571</ele><time>2026-04-18T15:54:21.999Z</time></trkpt><trkpt lat="37.089090552002155" lon="14.76291534018585"><ele>686.5714285714286</ele><time>2026-04-18T15:54:22.999Z</time></trkpt><trkpt lat="37.08908085079964" lon="14.76281131285864"><ele>686.0</ele><time>2026-04-18T15:54:23.999Z</time></trkpt><trkpt lat="37.089070448482055" lon="14.762720218451456"><ele>686.0</ele><time>2026-04-18T15:54:24.999Z</time></trkpt><trkpt lat="37.08905528358273" lon="14.762629452320592"><ele>686.0</ele><time>2026-04-18T15:54:25.999Z</time></trkpt><trkpt lat="37.089051722994434" lon="14.762508184355092"><ele>686.0</ele><time>2026-04-18T15:54:27.999Z</time></trkpt><trkpt lat="37.08911007589592" lon="14.762468864925658"><ele>686.0</ele><time>2026-04-18T15:55:49Z</time></trkpt><trkpt lat="37.08909310588605" lon="14.762370037030383"><ele>686.0</ele><time>2026-04-18T16:02:07.999Z</time></trkpt><trkpt lat="37.08900093479324" lon="14.76239064354644"><ele>686.0</ele><time>2026-04-18T16:05:29Z</time></trkpt><trkpt lat="37.08896078745504" lon="14.762324094546862"><ele>686.0</ele><time>2026-04-18T16:05:33Z</time></trkpt><trkpt lat="37.08892306474117" lon="14.762237976013292"><ele>686.0</ele><time>2026-04-18T16:05:36Z</time></trkpt><trkpt lat="37.088856093728964" lon="14.762236858418719"><ele>686.0</ele><time>2026-04-18T16:05:47Z</time></trkpt><trkpt lat="37.0887728522767" lon="14.762311134005476"><ele>686.0</ele><time>2026-04-18T16:05:50Z</time></trkpt><trkpt lat="37.088680580034115" lon="14.762376028228896"><ele>686.0</ele><time>2026-04-18T16:05:52Z</time></trkpt><trkpt lat="37.08857813227734" lon="14.762443399814954"><ele>686.0</ele><time>2026-04-18T16:05:54Z</time></trkpt><trkpt lat="37.088540810513116" lon="14.762518330508916"><ele>686.0</ele><time>2026-04-18T16:05:55Z</time></trkpt><trkpt lat="37.08843268766096" lon="14.762579050156315"><ele>686.0</ele><time>2026-04-18T16:05:57Z</time></trkpt><trkpt lat="37.08833259549739" lon="14.76268648871939"><ele>686.0</ele><time>2026-04-18T16:05:59Z</time></trkpt><trkpt lat="37.088278636675994" lon="14.762760452656286"><ele>686.0</ele><time>2026-04-18T16:06:00Z</time></trkpt><trkpt lat="37.088217099324346" lon="14.762840687311538"><ele>683.4</ele><time>2026-04-18T16:06:01Z</time></trkpt><trkpt lat="37.08813007351544" lon="14.762915111860009"><ele>680.8</ele><time>2026-04-18T16:06:03Z</time></trkpt><trkpt lat="37.0880071282061" lon="14.76299540574943"><ele>678.1999999999999</ele><time>2026-04-18T16:06:05Z</time></trkpt><trkpt lat="37.08794691329711" lon="14.763027097482663"><ele>675.5999999999999</ele><time>2026-04-18T16:06:06Z</time></trkpt><trkpt lat="37.08788217063955" lon="14.763047980615543"><ele>673.0</ele><time>2026-04-18T16:06:07Z</time></trkpt><trkpt lat="37.08781014851165" lon="14.76307760595143"><ele>673.0</ele><time>2026-04-18T16:06:08Z</time></trkpt><trkpt lat="37.08773119590142" lon="14.763108055446938"><ele>673.0</ele><time>2026-04-18T16:06:09Z</time></trkpt><trkpt lat="37.08765595510069" lon="14.763142536856417"><ele>673.0</ele><time>2026-04-18T16:06:10Z</time></trkpt><trkpt lat="37.08758536441805" lon="14.763171165415965"><ele>673.0</ele><time>2026-04-18T16:06:11Z</time></trkpt><trkpt lat="37.08751879340155" lon="14.763169695235463"><ele>673.0</ele><time>2026-04-18T16:06:12Z</time></trkpt><trkpt lat="37.08745022419004" lon="14.763178833371581"><ele>673.0</ele><time>2026-04-18T16:06:13Z</time></trkpt><trkpt lat="37.087373153273134" lon="14.763184013470084"><ele>671.5</ele><time>2026-04-18T16:06:14Z</time></trkpt><trkpt lat="37.08729731515948" lon="14.763187767822421"><ele>670.0</ele><time>2026-04-18T16:06:14.999Z</time></trkpt><trkpt lat="37.08722267474019" lon="14.763190148888473"><ele>668.5</ele><time>2026-04-18T16:06:15.999Z</time></trkpt><trkpt lat="37.08714467542411" lon="14.763206924482128"><ele>667.0</ele><time>2026-04-18T16:06:16.999Z</time></trkpt><trkpt lat="37.08708141055278" lon="14.763194419187807"><ele>665.5</ele><time>2026-04-18T16:06:17.999Z</time></trkpt><trkpt lat="37.086987833787106" lon="14.763203814454766"><ele>664.0</ele><time>2026-04-18T16:06:19.999Z</time></trkpt><trkpt lat="37.086920130246575" lon="14.763210211444951"><ele>664.0</ele><time>2026-04-18T16:06:23.999Z</time></trkpt><trkpt lat="37.086865416195124" lon="14.763339460744456"><ele>664.0</ele><time>2026-04-18T16:06:25.999Z</time></trkpt><trkpt lat="37.086856010373566" lon="14.763427395983996"><ele>664.0</ele><time>2026-04-18T16:06:26.999Z</time></trkpt><trkpt lat="37.08683968632514" lon="14.76352866585804"><ele>664.0</ele><time>2026-04-18T16:06:27.999Z</time></trkpt><trkpt lat="37.086839312215396" lon="14.76364521024293"><ele>664.0</ele><time>2026-04-18T16:06:28.999Z</time></trkpt><trkpt lat="37.0868470951791" lon="14.763751030379163"><ele>664.0</ele><time>2026-04-18T16:06:29.999Z</time></trkpt><trkpt lat="37.08686916435025" lon="14.763841800536897"><ele>663.1666666666667</ele><time>2026-04-18T16:06:30.999Z</time></trkpt><trkpt lat="37.08690039319992" lon="14.763936036548808"><ele>662.3333333333334</ele><time>2026-04-18T16:06:31.999Z</time></trkpt><trkpt lat="37.086945964361426" lon="14.764021245574986"><ele>661.5</ele><time>2026-04-18T16:06:32.999Z</time></trkpt><trkpt lat="37.08700713099207" lon="14.764078029267207"><ele>660.6666666666666</ele><time>2026-04-18T16:06:33.999Z</time></trkpt><trkpt lat="37.08705133974909" lon="14.764163386024093"><ele>659.8333333333333</ele><time>2026-04-18T16:06:34.999Z</time></trkpt><trkpt lat="37.08712955357455" lon="14.764227045697954"><ele>659.0</ele><time>2026-04-18T16:06:35.999Z</time></trkpt><trkpt lat="37.08721453320339" lon="14.76425627407898"><ele>659.0</ele><time>2026-04-18T16:06:36.999Z</time></trkpt><trkpt lat="37.087300131863344" lon="14.764291596584014"><ele>659.0</ele><time>2026-04-18T16:06:37.999Z</time></trkpt><trkpt lat="37.08736792965275" lon="14.76433271566358"><ele>659.0</ele><time>2026-04-18T16:06:38.999Z</time></trkpt><trkpt lat="37.087461706982204" lon="14.764356760829957"><ele>659.0</ele><time>2026-04-18T16:06:39.999Z</time></trkpt><trkpt lat="37.08754745596601" lon="14.764376911932242"><ele>659.0</ele><time>2026-04-18T16:06:40.999Z</time></trkpt><trkpt lat="37.08763799849453" lon="14.764397312552731"><ele>659.0</ele><time>2026-04-18T16:06:41.999Z</time></trkpt><trkpt lat="37.087711629077056" lon="14.76441390262183"><ele>657.8000000000001</ele><time>2026-04-18T16:06:42.999Z</time></trkpt><trkpt lat="37.08781377049008" lon="14.764435246858527"><ele>656.6</ele><time>2026-04-18T16:06:43.999Z</time></trkpt><trkpt lat="37.08791614878784" lon="14.764456618773517"><ele>655.4</ele><time>2026-04-18T16:06:44.999Z</time></trkpt><trkpt lat="37.088015799823076" lon="14.76447828266522"><ele>654.2</ele><time>2026-04-18T16:06:45.999Z</time></trkpt><trkpt lat="37.08810567969478" lon="14.764504326206147"><ele>653.0</ele><time>2026-04-18T16:06:46.999Z</time></trkpt><trkpt lat="37.08818942030093" lon="14.764534802832468"><ele>654.5</ele><time>2026-04-18T16:06:47.999Z</time></trkpt><trkpt lat="37.08827421594096" lon="14.764577011357066"><ele>656.0</ele><time>2026-04-18T16:06:48.999Z</time></trkpt><trkpt lat="37.08836534353305" lon="14.764623351656285"><ele>657.5</ele><time>2026-04-18T16:06:49.999Z</time></trkpt><trkpt lat="37.08846900665852" lon="14.764677823340008"><ele>659.0</ele><time>2026-04-18T16:06:50.999Z</time></trkpt><trkpt lat="37.08860473836366" lon="14.764755049646768"><ele>659.0</ele><time>2026-04-18T16:06:51.999Z</time></trkpt><trkpt lat="37.08876316581261" lon="14.764849034016299"><ele>659.0</ele><time>2026-04-18T16:06:52.999Z</time></trkpt><trkpt lat="37.08892419541087" lon="14.76494529804041"><ele>659.0</ele><time>2026-04-18T16:06:53.999Z</time></trkpt><trkpt lat="37.08908302780142" lon="14.765041082001385"><ele>662.0</ele><time>2026-04-18T16:06:54.999Z</time></trkpt><trkpt lat="37.089226095223836" lon="14.765124360493228"><ele>665.0</ele><time>2026-04-18T16:06:55.999Z</time></trkpt><trkpt lat="37.089354469599776" lon="14.765184846139489"><ele>668.0</ele><time>2026-04-18T16:06:56.999Z</time></trkpt><trkpt lat="37.08944476170058" lon="14.765246958741525"><ele>671.0</ele><time>2026-04-18T16:06:57.999Z</time></trkpt><trkpt lat="37.08949884236474" lon="14.765341387199468"><ele>671.0</ele><time>2026-04-18T16:06:58.999Z</time></trkpt><trkpt lat="37.08952991398024" lon="14.76543380274657"><ele>671.0</ele><time>2026-04-18T16:06:59.999Z</time></trkpt><trkpt lat="37.08954753016404" lon="14.7655375288463"><ele>671.0</ele><time>2026-04-18T16:07:00.999Z</time></trkpt><trkpt lat="37.08954291857885" lon="14.76563456159154"><ele>671.0</ele><time>2026-04-18T16:07:01.999Z</time></trkpt><trkpt lat="37.08949959785516" lon="14.76573760447188"><ele>671.0</ele><time>2026-04-18T16:07:02.999Z</time></trkpt><trkpt lat="37.08942614155578" lon="14.765815205068785"><ele>671.0</ele><time>2026-04-18T16:07:03.999Z</time></trkpt><trkpt lat="37.089333207186534" lon="14.765920841077955"><ele>671.0</ele><time>2026-04-18T16:07:04.999Z</time></trkpt><trkpt lat="37.08924807226072" lon="14.766025001601895"><ele>671.0</ele><time>2026-04-18T16:07:05.999Z</time></trkpt><trkpt lat="37.089140476330655" lon="14.766083309873986"><ele>671.0</ele><time>2026-04-18T16:07:06.999Z</time></trkpt><trkpt lat="37.08902730593327" lon="14.766126583747903"><ele>671.0</ele><time>2026-04-18T16:07:07.999Z</time></trkpt><trkpt lat="37.08890086144806" lon="14.766122777074761"><ele>675.3333333333333</ele><time>2026-04-18T16:07:08.999Z</time></trkpt><trkpt lat="37.08876160736602" lon="14.766131088689317"><ele>679.6666666666666</ele><time>2026-04-18T16:07:09.999Z</time></trkpt><trkpt lat="37.0886060192248" lon="14.766145480017583"><ele>684.0</ele><time>2026-04-18T16:07:10.999Z</time></trkpt><trkpt lat="37.08845123063235" lon="14.766169233658408"><ele>684.0</ele><time>2026-04-18T16:07:11.999Z</time></trkpt><trkpt lat="37.08830308097131" lon="14.76619549527624"><ele>684.0</ele><time>2026-04-18T16:07:12.999Z</time></trkpt><trkpt lat="37.08815883911487" lon="14.766229849940839"><ele>684.0</ele><time>2026-04-18T16:07:13.999Z</time></trkpt><trkpt lat="37.08801070290447" lon="14.766277821530602"><ele>684.0</ele><time>2026-04-18T16:07:14.999Z</time></trkpt><trkpt lat="37.08788245781526" lon="14.766351591225481"><ele>681.5</ele><time>2026-04-18T16:07:15.999Z</time></trkpt><trkpt lat="37.08774705352004" lon="14.766419820077681"><ele>679.0</ele><time>2026-04-18T16:07:16.998Z</time></trkpt><trkpt lat="37.08761592836393" lon="14.766502368584804"><ele>676.5</ele><time>2026-04-18T16:07:17.998Z</time></trkpt><trkpt lat="37.08747118373869" lon="14.766566419764148"><ele>674.0</ele><time>2026-04-18T16:07:18.998Z</time></trkpt><trkpt lat="37.08734249626907" lon="14.76664339755913"><ele>673.5</ele><time>2026-04-18T16:07:19.998Z</time></trkpt><trkpt lat="37.0872199118662" lon="14.766717972604281"><ele>673.0</ele><time>2026-04-18T16:07:20.998Z</time></trkpt><trkpt lat="37.08710435127285" lon="14.766790127690575"><ele>672.5</ele><time>2026-04-18T16:07:21.998Z</time></trkpt><trkpt lat="37.08700185897921" lon="14.76685412311231"><ele>672.0</ele><time>2026-04-18T16:07:22.998Z</time></trkpt><trkpt lat="37.086904783344764" lon="14.766920215619798"><ele>672.0</ele><time>2026-04-18T16:07:23.998Z</time></trkpt><trkpt lat="37.086819438221724" lon="14.766992570381174"><ele>672.0</ele><time>2026-04-18T16:07:24.998Z</time></trkpt><trkpt lat="37.086755959018845" lon="14.767087237844486"><ele>672.0</ele><time>2026-04-18T16:07:25.998Z</time></trkpt><trkpt lat="37.08671626157842" lon="14.767188408591474"><ele>672.0</ele><time>2026-04-18T16:07:26.998Z</time></trkpt><trkpt lat="37.086697018575165" lon="14.76728629924437"><ele>672.0</ele><time>2026-04-18T16:07:27.998Z</time></trkpt><trkpt lat="37.08669556950988" lon="14.767387781449505"><ele>672.0</ele><time>2026-04-18T16:07:28.998Z</time></trkpt><trkpt lat="37.086711272795846" lon="14.767500082240756"><ele>672.0</ele><time>2026-04-18T16:07:29.998Z</time></trkpt><trkpt lat="37.08675689255057" lon="14.767615567438886"><ele>672.0</ele><time>2026-04-18T16:07:30.998Z</time></trkpt><trkpt lat="37.08683425919855" lon="14.767722511633481"><ele>672.0</ele><time>2026-04-18T16:07:31.998Z</time></trkpt><trkpt lat="37.086905719753425" lon="14.767827479117788"><ele>672.0</ele><time>2026-04-18T16:07:32.998Z</time></trkpt><trkpt lat="37.08697892339853" lon="14.767936290636444"><ele>669.75</ele><time>2026-04-18T16:07:34Z</time></trkpt><trkpt lat="37.087044809924166" lon="14.768052168419276"><ele>667.5</ele><time>2026-04-18T16:07:35Z</time></trkpt><trkpt lat="37.08708896562312" lon="14.76817928659575"><ele>665.25</ele><time>2026-04-18T16:07:36Z</time></trkpt><trkpt lat="37.087116205048204" lon="14.768321687707378"><ele>663.0</ele><time>2026-04-18T16:07:37Z</time></trkpt><trkpt lat="37.0871308377607" lon="14.768485185246073"><ele>659.6666666666666</ele><time>2026-04-18T16:07:38Z</time></trkpt><trkpt lat="37.08714810874508" lon="14.768676982762459"><ele>656.3333333333333</ele><time>2026-04-18T16:07:39Z</time></trkpt><trkpt lat="37.087168049612316" lon="14.768912018299448"><ele>653.0</ele><time>2026-04-18T16:07:40Z</time></trkpt><trkpt lat="37.0871889502755" lon="14.769167076783633"><ele>653.0</ele><time>2026-04-18T16:07:41Z</time></trkpt><trkpt lat="37.08722554539575" lon="14.76942394377066"><ele>653.0</ele><time>2026-04-18T16:07:42Z</time></trkpt><trkpt lat="37.08724255650249" lon="14.769685631452234"><ele>653.0</ele><time>2026-04-18T16:07:43Z</time></trkpt><trkpt lat="37.087262022075045" lon="14.76993657475281"><ele>653.0</ele><time>2026-04-18T16:07:44Z</time></trkpt><trkpt lat="37.08728191894811" lon="14.770167206221704"><ele>653.0</ele><time>2026-04-18T16:07:45Z</time></trkpt><trkpt lat="37.08728479389074" lon="14.770384644808807"><ele>653.0</ele><time>2026-04-18T16:07:46Z</time></trkpt><trkpt lat="37.08729944012549" lon="14.7705823595114"><ele>654.2</ele><time>2026-04-18T16:07:47Z</time></trkpt><trkpt lat="37.08732688939337" lon="14.770746093342098"><ele>655.4</ele><time>2026-04-18T16:07:48Z</time></trkpt><trkpt lat="37.08733415415388" lon="14.770882575767878"><ele>656.6</ele><time>2026-04-18T16:07:49Z</time></trkpt><trkpt lat="37.08733308237848" lon="14.770984796236656"><ele>657.8000000000001</ele><time>2026-04-18T16:07:50Z</time></trkpt><trkpt lat="37.08731317367524" lon="14.771079044687319"><ele>659.0</ele><time>2026-04-18T16:07:51Z</time></trkpt><trkpt lat="37.08729128787779" lon="14.771162525012295"><ele>659.0</ele><time>2026-04-18T16:07:52Z</time></trkpt><trkpt lat="37.08715457731592" lon="14.771255247225996"><ele>659.0</ele><time>2026-04-18T16:07:54Z</time></trkpt><trkpt lat="37.087077701302604" lon="14.771287545646636"><ele>659.0</ele><time>2026-04-18T16:07:55Z</time></trkpt><trkpt lat="37.086988015116226" lon="14.771321436763328"><ele>659.0</ele><time>2026-04-18T16:07:56Z</time></trkpt><trkpt lat="37.08690201225342" lon="14.771368100097618"><ele>659.0</ele><time>2026-04-18T16:07:57Z</time></trkpt><trkpt lat="37.08682820881937" lon="14.771454318903746"><ele>659.0</ele><time>2026-04-18T16:07:58Z</time></trkpt><trkpt lat="37.086769788368535" lon="14.771579821338808"><ele>659.0</ele><time>2026-04-18T16:07:59Z</time></trkpt><trkpt lat="37.086734454622615" lon="14.77174483223731"><ele>659.0</ele><time>2026-04-18T16:08:00Z</time></trkpt><trkpt lat="37.08668700723827" lon="14.771925649045235"><ele>659.0</ele><time>2026-04-18T16:08:01Z</time></trkpt><trkpt lat="37.08663982977876" lon="14.772105575687506"><ele>657.25</ele><time>2026-04-18T16:08:02Z</time></trkpt><trkpt lat="37.08659622279958" lon="14.772286172932725"><ele>655.5</ele><time>2026-04-18T16:08:03Z</time></trkpt><trkpt lat="37.08655154504688" lon="14.772460250408102"><ele>653.75</ele><time>2026-04-18T16:08:04Z</time></trkpt><trkpt lat="37.086506615829926" lon="14.7726335244914"><ele>652.0</ele><time>2026-04-18T16:08:05Z</time></trkpt><trkpt lat="37.08646458944785" lon="14.772809256485365"><ele>651.75</ele><time>2026-04-18T16:08:06Z</time></trkpt><trkpt lat="37.08641919267867" lon="14.772984680947001"><ele>651.5</ele><time>2026-04-18T16:08:07Z</time></trkpt><trkpt lat="37.08636934901564" lon="14.77315325871395"><ele>651.25</ele><time>2026-04-18T16:08:08Z</time></trkpt><trkpt lat="37.08632836900331" lon="14.773307849519576"><ele>651.0</ele><time>2026-04-18T16:08:09Z</time></trkpt><trkpt lat="37.08629219245732" lon="14.773450486063913"><ele>653.0</ele><time>2026-04-18T16:08:10Z</time></trkpt><trkpt lat="37.08626224895663" lon="14.773584395573316"><ele>655.0</ele><time>2026-04-18T16:08:11Z</time></trkpt><trkpt lat="37.08623209593818" lon="14.773708012135009"><ele>657.0</ele><time>2026-04-18T16:08:12Z</time></trkpt><trkpt lat="37.086205436507" lon="14.773818112391721"><ele>659.0</ele><time>2026-04-18T16:08:13Z</time></trkpt><trkpt lat="37.08618109402966" lon="14.773916451371965"><ele>661.0</ele><time>2026-04-18T16:08:14Z</time></trkpt><trkpt lat="37.086152031937594" lon="14.774003212508301"><ele>661.0</ele><time>2026-04-18T16:08:15Z</time></trkpt><trkpt lat="37.086109914810685" lon="14.774075820138432"><ele>661.0</ele><time>2026-04-18T16:08:16Z</time></trkpt><trkpt lat="37.086057966409776" lon="14.774129691771137"><ele>661.0</ele><time>2026-04-18T16:08:17Z</time></trkpt><trkpt lat="37.08603248332093" lon="14.77420685638311"><ele>661.0</ele><time>2026-04-18T16:08:19Z</time></trkpt><trkpt lat="37.086034412436504" lon="14.77432965040301"><ele>661.0</ele><time>2026-04-18T16:11:07.999Z</time></trkpt><trkpt lat="37.08601365501055" lon="14.77441028089475"><ele>661.0</ele><time>2026-04-18T16:11:08.999Z</time></trkpt><trkpt lat="37.08601527484609" lon="14.77454015666551"><ele>662.0</ele><time>2026-04-18T16:11:10.999Z</time></trkpt><trkpt lat="37.086012517433424" lon="14.77463817418761"><ele>663.0</ele><time>2026-04-18T16:11:12.999Z</time></trkpt><trkpt lat="37.08595305082825" lon="14.774760044135059"><ele>664.0</ele><time>2026-04-18T16:11:14.999Z</time></trkpt><trkpt lat="37.085929105822274" lon="14.774852591384704"><ele>665.0</ele><time>2026-04-18T16:11:15.999Z</time></trkpt><trkpt lat="37.08589791558734" lon="14.774973141502654"><ele>666.0</ele><time>2026-04-18T16:11:16.999Z</time></trkpt><trkpt lat="37.08586915341216" lon="14.775084307265642"><ele>664.75</ele><time>2026-04-18T16:11:17.999Z</time></trkpt><trkpt lat="37.08583826155303" lon="14.775203703950512"><ele>663.5</ele><time>2026-04-18T16:11:18.999Z</time></trkpt><trkpt lat="37.08580261494069" lon="14.77537576599183"><ele>662.25</ele><time>2026-04-18T16:11:19.999Z</time></trkpt><trkpt lat="37.08574103654811" lon="14.775595391852802"><ele>661.0</ele><time>2026-04-18T16:11:20.999Z</time></trkpt><trkpt lat="37.08564922483834" lon="14.775791023828912"><ele>662.25</ele><time>2026-04-18T16:11:21.999Z</time></trkpt><trkpt lat="37.08555442985167" lon="14.775911357748537"><ele>663.5</ele><time>2026-04-18T16:11:22.999Z</time></trkpt><trkpt lat="37.08544040838802" lon="14.776016097333674"><ele>664.75</ele><time>2026-04-18T16:11:23.999Z</time></trkpt><trkpt lat="37.085298117077336" lon="14.776126780261354"><ele>666.0</ele><time>2026-04-18T16:11:24.999Z</time></trkpt><trkpt lat="37.08514890469428" lon="14.776245699721702"><ele>666.0</ele><time>2026-04-18T16:11:25.999Z</time></trkpt><trkpt lat="37.08498443181646" lon="14.776349786218782"><ele>666.0</ele><time>2026-04-18T16:11:26.998Z</time></trkpt><trkpt lat="37.08482442330092" lon="14.776455060761743"><ele>666.0</ele><time>2026-04-18T16:11:27.998Z</time></trkpt><trkpt lat="37.0846900246475" lon="14.776550354036349"><ele>667.0</ele><time>2026-04-18T16:11:28.998Z</time></trkpt><trkpt lat="37.08457005881467" lon="14.776637311364883"><ele>668.0</ele><time>2026-04-18T16:11:29.998Z</time></trkpt><trkpt lat="37.08445850707109" lon="14.776709101600007"><ele>669.0</ele><time>2026-04-18T16:11:30.998Z</time></trkpt><trkpt lat="37.084348576537906" lon="14.776764751741728"><ele>670.0</ele><time>2026-04-18T16:11:31.998Z</time></trkpt><trkpt lat="37.084257187302896" lon="14.776792212094197"><ele>670.0</ele><time>2026-04-18T16:11:32.998Z</time></trkpt><trkpt lat="37.08418207014805" lon="14.776787672557383"><ele>670.0</ele><time>2026-04-18T16:11:33.998Z</time></trkpt><trkpt lat="37.084077934990134" lon="14.776790348748019"><ele>670.0</ele><time>2026-04-18T16:11:35.998Z</time></trkpt><trkpt lat="37.084064555520406" lon="14.777088066601245"><ele>670.0</ele><time>2026-04-18T16:11:36.998Z</time></trkpt><trkpt lat="37.084066836265386" lon="14.77725519390922"><ele>671.25</ele><time>2026-04-18T16:11:37.998Z</time></trkpt><trkpt lat="37.08405360052306" lon="14.77742759945357"><ele>672.5</ele><time>2026-04-18T16:11:38.998Z</time></trkpt><trkpt lat="37.08408993523786" lon="14.777579860327574"><ele>673.75</ele><time>2026-04-18T16:11:39.998Z</time></trkpt><trkpt lat="37.0841563762427" lon="14.777718255154598"><ele>675.0</ele><time>2026-04-18T16:11:40.998Z</time></trkpt><trkpt lat="37.084249063865066" lon="14.777857351994909"><ele>675.5</ele><time>2026-04-18T16:11:41.998Z</time></trkpt><trkpt lat="37.08434594293933" lon="14.777983301966296"><ele>676.0</ele><time>2026-04-18T16:11:42.998Z</time></trkpt><trkpt lat="37.08443375431115" lon="14.778123833452048"><ele>676.5</ele><time>2026-04-18T16:11:43.998Z</time></trkpt><trkpt lat="37.08451877133596" lon="14.778273877560588"><ele>677.0</ele><time>2026-04-18T16:11:44.998Z</time></trkpt><trkpt lat="37.08461884798311" lon="14.77841956364128"><ele>677.6666666666666</ele><time>2026-04-18T16:11:46Z</time></trkpt><trkpt lat="37.08472253563153" lon="14.778578282648576"><ele>678.3333333333334</ele><time>2026-04-18T16:11:47Z</time></trkpt><trkpt lat="37.08485590450276" lon="14.778705150840217"><ele>679.0</ele><time>2026-04-18T16:11:48Z</time></trkpt><trkpt lat="37.08499500513453" lon="14.778794010656743"><ele>679.0</ele><time>2026-04-18T16:11:49Z</time></trkpt><trkpt lat="37.08516765374494" lon="14.778850886904204"><ele>679.0</ele><time>2026-04-18T16:11:50Z</time></trkpt><trkpt lat="37.08535145303226" lon="14.7789278380237"><ele>679.0</ele><time>2026-04-18T16:11:51Z</time></trkpt><trkpt lat="37.08555820169602" lon="14.77899417097762"><ele>678.6666666666667</ele><time>2026-04-18T16:11:52Z</time></trkpt><trkpt lat="37.08577417737483" lon="14.779063106105973"><ele>678.3333333333334</ele><time>2026-04-18T16:11:53Z</time></trkpt><trkpt lat="37.08598272520277" lon="14.77911012285371"><ele>678.0</ele><time>2026-04-18T16:11:54Z</time></trkpt><trkpt lat="37.0861856027368" lon="14.779182571306533"><ele>678.0</ele><time>2026-04-18T16:11:55Z</time></trkpt><trkpt lat="37.086407045240186" lon="14.779260048114258"><ele>678.0</ele><time>2026-04-18T16:11:56Z</time></trkpt><trkpt lat="37.086630931185454" lon="14.779336744839563"><ele>681.0</ele><time>2026-04-18T16:11:57Z</time></trkpt><trkpt lat="37.08685569823783" lon="14.779412748006555"><ele>684.0</ele><time>2026-04-18T16:11:58Z</time></trkpt><trkpt lat="37.08708935468148" lon="14.779485595182651"><ele>684.0</ele><time>2026-04-18T16:11:59Z</time></trkpt><trkpt lat="37.08731715284406" lon="14.779558749802865"><ele>684.0</ele><time>2026-04-18T16:12:00Z</time></trkpt><trkpt lat="37.08755975346864" lon="14.77961873280471"><ele>685.0</ele><time>2026-04-18T16:12:01Z</time></trkpt><trkpt lat="37.08781147610246" lon="14.779669349805545"><ele>686.0</ele><time>2026-04-18T16:12:02Z</time></trkpt><trkpt lat="37.08805492602636" lon="14.77971344315748"><ele>686.5</ele><time>2026-04-18T16:12:03Z</time></trkpt><trkpt lat="37.0882863044672" lon="14.77976291329781"><ele>687.0</ele><time>2026-04-18T16:12:04Z</time></trkpt><trkpt lat="37.08850126718928" lon="14.779803208509593"><ele>687.0</ele><time>2026-04-18T16:12:05Z</time></trkpt><trkpt lat="37.088714460733925" lon="14.77983290469497"><ele>687.0</ele><time>2026-04-18T16:12:06Z</time></trkpt><trkpt lat="37.088917997676106" lon="14.779835593183835"><ele>687.0</ele><time>2026-04-18T16:12:07Z</time></trkpt><trkpt lat="37.089102287370814" lon="14.779831269181207"><ele>686.0</ele><time>2026-04-18T16:12:08Z</time></trkpt><trkpt lat="37.089281995115975" lon="14.779832351706622"><ele>685.0</ele><time>2026-04-18T16:12:09Z</time></trkpt><trkpt lat="37.08944397989115" lon="14.77983945918948"><ele>684.0</ele><time>2026-04-18T16:12:10Z</time></trkpt><trkpt lat="37.089599484526936" lon="14.779873891714773"><ele>684.0</ele><time>2026-04-18T16:12:11Z</time></trkpt><trkpt lat="37.08974519624602" lon="14.779943379568"><ele>684.0</ele><time>2026-04-18T16:12:12Z</time></trkpt><trkpt lat="37.089875903300516" lon="14.780038164192666"><ele>684.0</ele><time>2026-04-18T16:12:13Z</time></trkpt><trkpt lat="37.08999826816575" lon="14.7801552077896"><ele>685.3333333333334</ele><time>2026-04-18T16:12:14Z</time></trkpt><trkpt lat="37.09010228018825" lon="14.780287996307392"><ele>686.6666666666667</ele><time>2026-04-18T16:12:15Z</time></trkpt><trkpt lat="37.09018567492862" lon="14.780450722705767"><ele>688.0</ele><time>2026-04-18T16:12:16Z</time></trkpt><trkpt lat="37.090262065027865" lon="14.780622280648315"><ele>688.0</ele><time>2026-04-18T16:12:17Z</time></trkpt><trkpt lat="37.09035397848094" lon="14.780800211710948"><ele>688.0</ele><time>2026-04-18T16:12:18Z</time></trkpt><trkpt lat="37.09043193372873" lon="14.781022178631144"><ele>688.0</ele><time>2026-04-18T16:12:19Z</time></trkpt><trkpt lat="37.09054074046753" lon="14.781236642124963"><ele>688.6666666666667</ele><time>2026-04-18T16:12:20Z</time></trkpt><trkpt lat="37.090623927078965" lon="14.781437922886894"><ele>689.3333333333334</ele><time>2026-04-18T16:12:21Z</time></trkpt><trkpt lat="37.09070910917969" lon="14.781645078357482"><ele>690.0</ele><time>2026-04-18T16:12:22Z</time></trkpt><trkpt lat="37.09077683551885" lon="14.78185173073727"><ele>690.0</ele><time>2026-04-18T16:12:23Z</time></trkpt><trkpt lat="37.09082670461141" lon="14.782073555477021"><ele>690.0</ele><time>2026-04-18T16:12:24Z</time></trkpt><trkpt lat="37.090853238452574" lon="14.782313922313373"><ele>690.0</ele><time>2026-04-18T16:12:25Z</time></trkpt><trkpt lat="37.09087093472364" lon="14.782545319178094"><ele>690.3333333333334</ele><time>2026-04-18T16:12:26Z</time></trkpt><trkpt lat="37.09089435921985" lon="14.782753731927055"><ele>690.6666666666667</ele><time>2026-04-18T16:12:27Z</time></trkpt><trkpt lat="37.090938385099655" lon="14.782942563903184"><ele>691.0</ele><time>2026-04-18T16:12:28Z</time></trkpt><trkpt lat="37.0909989698381" lon="14.783122003501619"><ele>691.0</ele><time>2026-04-18T16:12:29Z</time></trkpt><trkpt lat="37.09108658998061" lon="14.783277037363684"><ele>691.0</ele><time>2026-04-18T16:12:30Z</time></trkpt><trkpt lat="37.091197696011086" lon="14.783419005288573"><ele>691.0</ele><time>2026-04-18T16:12:30.999Z</time></trkpt><trkpt lat="37.091320916976414" lon="14.78352136490323"><ele>691.6666666666667</ele><time>2026-04-18T16:12:31.999Z</time></trkpt><trkpt lat="37.09146117922371" lon="14.783593372038402"><ele>692.3333333333334</ele><time>2026-04-18T16:12:32.999Z</time></trkpt><trkpt lat="37.09161064527274" lon="14.783639689671158"><ele>693.0</ele><time>2026-04-18T16:12:33.999Z</time></trkpt><trkpt lat="37.091769046351565" lon="14.783659764829554"><ele>693.0</ele><time>2026-04-18T16:12:34.999Z</time></trkpt><trkpt lat="37.09193764414418" lon="14.783650510510025"><ele>693.0</ele><time>2026-04-18T16:12:35.999Z</time></trkpt><trkpt lat="37.09213639830001" lon="14.78362405208973"><ele>693.0</ele><time>2026-04-18T16:12:36.999Z</time></trkpt><trkpt lat="37.092336507835164" lon="14.783596624231247"><ele>695.3333333333334</ele><time>2026-04-18T16:12:37.999Z</time></trkpt><trkpt lat="37.092534711471046" lon="14.783573525454496"><ele>697.6666666666667</ele><time>2026-04-18T16:12:38.999Z</time></trkpt><trkpt lat="37.09272644410669" lon="14.783552666114256"><ele>700.0</ele><time>2026-04-18T16:12:39.999Z</time></trkpt><trkpt lat="37.09291471881992" lon="14.783533258939421"><ele>700.0</ele><time>2026-04-18T16:12:40.999Z</time></trkpt><trkpt lat="37.09311166288769" lon="14.783519287221548"><ele>700.0</ele><time>2026-04-18T16:12:41.999Z</time></trkpt><trkpt lat="37.09330151447543" lon="14.783500860486022"><ele>700.0</ele><time>2026-04-18T16:12:42.999Z</time></trkpt><trkpt lat="37.093475266020384" lon="14.783486675123914"><ele>696.3333333333334</ele><time>2026-04-18T16:12:43.999Z</time></trkpt><trkpt lat="37.0936410685378" lon="14.783472192342877"><ele>692.6666666666666</ele><time>2026-04-18T16:12:44.999Z</time></trkpt><trkpt lat="37.09378884775921" lon="14.783466044075945"><ele>689.0</ele><time>2026-04-18T16:12:45.999Z</time></trkpt><trkpt lat="37.093935396931776" lon="14.783479354396162"><ele>693.0</ele><time>2026-04-18T16:12:46.999Z</time></trkpt><trkpt lat="37.09407845141929" lon="14.783529439451529"><ele>697.0</ele><time>2026-04-18T16:12:47.999Z</time></trkpt><trkpt lat="37.09421552888801" lon="14.783596775660214"><ele>701.0</ele><time>2026-04-18T16:12:48.999Z</time></trkpt><trkpt lat="37.09435686782982" lon="14.783675229977693"><ele>701.6666666666666</ele><time>2026-04-18T16:12:49.999Z</time></trkpt><trkpt lat="37.094508216784895" lon="14.783759014470423"><ele>702.3333333333334</ele><time>2026-04-18T16:12:50.999Z</time></trkpt><trkpt lat="37.094673302375966" lon="14.783843667263495"><ele>703.0</ele><time>2026-04-18T16:12:51.999Z</time></trkpt><trkpt lat="37.09483405157188" lon="14.783901042090951"><ele>703.0</ele><time>2026-04-18T16:12:52.999Z</time></trkpt><trkpt lat="37.09500507656326" lon="14.78392501100312"><ele>703.0</ele><time>2026-04-18T16:12:53.999Z</time></trkpt><trkpt lat="37.095198106937005" lon="14.783946556967567"><ele>703.0</ele><time>2026-04-18T16:12:54.999Z</time></trkpt><trkpt lat="37.09539396791561" lon="14.783979462998627"><ele>703.0</ele><time>2026-04-18T16:12:55.999Z</time></trkpt><trkpt lat="37.095565920309845" lon="14.78403532710143"><ele>703.0</ele><time>2026-04-18T16:12:56.999Z</time></trkpt><trkpt lat="37.095700760454456" lon="14.784059549973039"><ele>703.0</ele><time>2026-04-18T16:12:57.999Z</time></trkpt><trkpt lat="37.09582321597797" lon="14.784044061356708"><ele>703.0</ele><time>2026-04-18T16:12:58.999Z</time></trkpt><trkpt lat="37.09592918412604" lon="14.783998007152698"><ele>703.0</ele><time>2026-04-18T16:12:59.999Z</time></trkpt><trkpt lat="37.09601297593848" lon="14.783933223477264"><ele>703.0</ele><time>2026-04-18T16:13:00.999Z</time></trkpt><trkpt lat="37.09609558950841" lon="14.783862121172632"><ele>703.0</ele><time>2026-04-18T16:13:01.999Z</time></trkpt><trkpt lat="37.096164317114585" lon="14.783769275717013"><ele>703.0</ele><time>2026-04-18T16:13:02.999Z</time></trkpt><trkpt lat="37.09622069378878" lon="14.783656594179737"><ele>703.0</ele><time>2026-04-18T16:13:03.999Z</time></trkpt><trkpt lat="37.09626588501282" lon="14.783532171014707"><ele>699.0</ele><time>2026-04-18T16:13:04.999Z</time></trkpt><trkpt lat="37.0963095362113" lon="14.783381698607188"><ele>695.0</ele><time>2026-04-18T16:13:05.999Z</time></trkpt><trkpt lat="37.09635944484525" lon="14.783198964382958"><ele>691.0</ele><time>2026-04-18T16:13:06.999Z</time></trkpt><trkpt lat="37.09638426070764" lon="14.782977452851837"><ele>691.0</ele><time>2026-04-18T16:13:07.999Z</time></trkpt><trkpt lat="37.09641229763615" lon="14.78272761689893"><ele>691.0</ele><time>2026-04-18T16:13:08.999Z</time></trkpt><trkpt lat="37.09644396257569" lon="14.782479353920786"><ele>691.0</ele><time>2026-04-18T16:13:09.999Z</time></trkpt><trkpt lat="37.096484233555536" lon="14.782261401541987"><ele>693.0</ele><time>2026-04-18T16:13:10.999Z</time></trkpt><trkpt lat="37.09652399217611" lon="14.782078081868875"><ele>695.0</ele><time>2026-04-18T16:13:11.999Z</time></trkpt><trkpt lat="37.0965824113174" lon="14.78191543734302"><ele>697.0</ele><time>2026-04-18T16:13:12.999Z</time></trkpt><trkpt lat="37.09666459935089" lon="14.781757100614676"><ele>699.0</ele><time>2026-04-18T16:13:13.999Z</time></trkpt><trkpt lat="37.09676473953405" lon="14.781627521698216"><ele>699.0</ele><time>2026-04-18T16:13:14.999Z</time></trkpt><trkpt lat="37.09687129536539" lon="14.78150762392544"><ele>699.0</ele><time>2026-04-18T16:13:15.999Z</time></trkpt><trkpt lat="37.09702188355135" lon="14.781400635171419"><ele>699.0</ele><time>2026-04-18T16:13:16.999Z</time></trkpt><trkpt lat="37.09717332562373" lon="14.781261770237275"><ele>699.0</ele><time>2026-04-18T16:13:17.999Z</time></trkpt><trkpt lat="37.097345587213965" lon="14.781146284921071"><ele>699.0</ele><time>2026-04-18T16:13:18.999Z</time></trkpt><trkpt lat="37.09750726321613" lon="14.781030515099296"><ele>699.0</ele><time>2026-04-18T16:13:19.999Z</time></trkpt><trkpt lat="37.097651246517685" lon="14.780934166399888"><ele>700.0</ele><time>2026-04-18T16:13:20.999Z</time></trkpt><trkpt lat="37.097799081194964" lon="14.780858207737218"><ele>701.0</ele><time>2026-04-18T16:13:21.999Z</time></trkpt><trkpt lat="37.09796698753589" lon="14.780798760101371"><ele>702.0</ele><time>2026-04-18T16:13:22.999Z</time></trkpt><trkpt lat="37.098158512897264" lon="14.78074572497356"><ele>705.0</ele><time>2026-04-18T16:13:23.999Z</time></trkpt><trkpt lat="37.09836593443101" lon="14.780691208599347"><ele>708.0</ele><time>2026-04-18T16:13:24.999Z</time></trkpt><trkpt lat="37.09855210025123" lon="14.780632490223482"><ele>711.0</ele><time>2026-04-18T16:13:25.999Z</time></trkpt><trkpt lat="37.0987289592201" lon="14.780536751069253"><ele>711.0</ele><time>2026-04-18T16:13:26.999Z</time></trkpt><trkpt lat="37.09887362124956" lon="14.780389768822173"><ele>711.0</ele><time>2026-04-18T16:13:27.999Z</time></trkpt><trkpt lat="37.09903787587648" lon="14.780233875647099"><ele>711.0</ele><time>2026-04-18T16:13:28.999Z</time></trkpt><trkpt lat="37.09918278827316" lon="14.780079833179022"><ele>710.3333333333334</ele><time>2026-04-18T16:13:29.999Z</time></trkpt><trkpt lat="37.09931604964734" lon="14.779947724809952"><ele>709.6666666666667</ele><time>2026-04-18T16:13:30.999Z</time></trkpt><trkpt lat="37.09944436093077" lon="14.779818506743636"><ele>709.0</ele><time>2026-04-18T16:13:31.999Z</time></trkpt><trkpt lat="37.099552123780036" lon="14.779702045512495"><ele>709.0</ele><time>2026-04-18T16:13:32.998Z</time></trkpt><trkpt lat="37.09964050263946" lon="14.779612360486178"><ele>709.0</ele><time>2026-04-18T16:13:33.998Z</time></trkpt><trkpt lat="37.09974490142795" lon="14.779531948347058"><ele>709.0</ele><time>2026-04-18T16:13:34.998Z</time></trkpt><trkpt lat="37.099873039650916" lon="14.779468880890981"><ele>709.0</ele><time>2026-04-18T16:13:35.998Z</time></trkpt><trkpt lat="37.09999710044876" lon="14.779404439987216"><ele>709.0</ele><time>2026-04-18T16:13:36.998Z</time></trkpt><trkpt lat="37.10012201890801" lon="14.77935583261133"><ele>709.0</ele><time>2026-04-18T16:13:37.998Z</time></trkpt><trkpt lat="37.100252737261094" lon="14.779329372766243"><ele>709.0</ele><time>2026-04-18T16:13:38.998Z</time></trkpt><trkpt lat="37.10039089522274" lon="14.77932292827733"><ele>709.0</ele><time>2026-04-18T16:13:39.998Z</time></trkpt><trkpt lat="37.10053204000947" lon="14.779319633742903"><ele>709.0</ele><time>2026-04-18T16:13:40.998Z</time></trkpt><trkpt lat="37.100665692711395" lon="14.779339906970247"><ele>709.0</ele><time>2026-04-18T16:13:41.998Z</time></trkpt><trkpt lat="37.100819441998894" lon="14.77937598765325"><ele>709.0</ele><time>2026-04-18T16:13:42.998Z</time></trkpt><trkpt lat="37.10095821517439" lon="14.77943387363651"><ele>709.0</ele><time>2026-04-18T16:13:43.998Z</time></trkpt><trkpt lat="37.101133495509906" lon="14.779478715064553"><ele>713.6666666666667</ele><time>2026-04-18T16:13:44.998Z</time></trkpt><trkpt lat="37.101305990095156" lon="14.779521264995468"><ele>718.3333333333334</ele><time>2026-04-18T16:13:45.998Z</time></trkpt><trkpt lat="37.101481895599214" lon="14.779560580215254"><ele>723.0</ele><time>2026-04-18T16:13:46.998Z</time></trkpt><trkpt lat="37.10164299229564" lon="14.779609662313621"><ele>723.3333333333334</ele><time>2026-04-18T16:13:47.998Z</time></trkpt><trkpt lat="37.10179877290163" lon="14.779654346165556"><ele>723.6666666666667</ele><time>2026-04-18T16:13:48.998Z</time></trkpt><trkpt lat="37.101963732743606" lon="14.779684714397892"><ele>724.0</ele><time>2026-04-18T16:13:49.998Z</time></trkpt><trkpt lat="37.10213458357669" lon="14.779683737386174"><ele>724.0</ele><time>2026-04-18T16:13:50.998Z</time></trkpt><trkpt lat="37.102295450289304" lon="14.779656803036698"><ele>724.0</ele><time>2026-04-18T16:13:52Z</time></trkpt><trkpt lat="37.102413262984165" lon="14.779603760335776"><ele>724.0</ele><time>2026-04-18T16:13:53Z</time></trkpt><trkpt lat="37.102543815108625" lon="14.779502937523164"><ele>724.0</ele><time>2026-04-18T16:13:54Z</time></trkpt><trkpt lat="37.10268089928858" lon="14.779378378056116"><ele>723.0</ele><time>2026-04-18T16:13:55Z</time></trkpt><trkpt lat="37.10278223398472" lon="14.779252695735233"><ele>722.0</ele><time>2026-04-18T16:13:56Z</time></trkpt><trkpt lat="37.102832318149865" lon="14.779078886516167"><ele>721.0</ele><time>2026-04-18T16:13:57Z</time></trkpt><trkpt lat="37.10288414624461" lon="14.778907931773023"><ele>720.0</ele><time>2026-04-18T16:13:58Z</time></trkpt><trkpt lat="37.10293122578753" lon="14.778714376368455"><ele>720.0</ele><time>2026-04-18T16:13:59Z</time></trkpt><trkpt lat="37.10300136468577" lon="14.778552463988861"><ele>720.0</ele><time>2026-04-18T16:14:00Z</time></trkpt><trkpt lat="37.10304884172727" lon="14.77833224637248"><ele>720.0</ele><time>2026-04-18T16:14:01Z</time></trkpt><trkpt lat="37.10310017234438" lon="14.778157694350384"><ele>718.5</ele><time>2026-04-18T16:14:02Z</time></trkpt><trkpt lat="37.103150451883685" lon="14.778005642026681"><ele>717.0</ele><time>2026-04-18T16:14:03Z</time></trkpt><trkpt lat="37.10321059799512" lon="14.777844819347807"><ele>715.5</ele><time>2026-04-18T16:14:04Z</time></trkpt><trkpt lat="37.10329102505838" lon="14.777695672347983"><ele>714.0</ele><time>2026-04-18T16:14:05Z</time></trkpt><trkpt lat="37.10338018962" lon="14.777550056959374"><ele>717.0</ele><time>2026-04-18T16:14:06Z</time></trkpt><trkpt lat="37.10349456813243" lon="14.777443366837854"><ele>720.0</ele><time>2026-04-18T16:14:07Z</time></trkpt><trkpt lat="37.103608808057075" lon="14.777353818810992"><ele>723.0</ele><time>2026-04-18T16:14:08Z</time></trkpt><trkpt lat="37.10372926227357" lon="14.777280787017778"><ele>726.0</ele><time>2026-04-18T16:14:09Z</time></trkpt><trkpt lat="37.10386291878543" lon="14.777219798683477"><ele>726.0</ele><time>2026-04-18T16:14:10Z</time></trkpt><trkpt lat="37.10400006141371" lon="14.777181193813988"><ele>726.0</ele><time>2026-04-18T16:14:11Z</time></trkpt><trkpt lat="37.10413719257278" lon="14.77715127136733"><ele>726.0</ele><time>2026-04-18T16:14:12Z</time></trkpt><trkpt lat="37.10426938669937" lon="14.777112315787502"><ele>726.0</ele><time>2026-04-18T16:14:13Z</time></trkpt><trkpt lat="37.10440133774101" lon="14.77706103144518"><ele>727.75</ele><time>2026-04-18T16:14:14Z</time></trkpt><trkpt lat="37.10453055065345" lon="14.777031622333167"><ele>729.5</ele><time>2026-04-18T16:14:15Z</time></trkpt><trkpt lat="37.10466058823908" lon="14.776995897255512"><ele>731.25</ele><time>2026-04-18T16:14:16Z</time></trkpt><trkpt lat="37.10478594678188" lon="14.776964145100877"><ele>733.0</ele><time>2026-04-18T16:14:17Z</time></trkpt><trkpt lat="37.10492481004629" lon="14.776944117355988"><ele>734.25</ele><time>2026-04-18T16:14:18Z</time></trkpt><trkpt lat="37.1050683437923" lon="14.776943607081058"><ele>735.5</ele><time>2026-04-18T16:14:19Z</time></trkpt><trkpt lat="37.10519601739301" lon="14.776960291900426"><ele>736.75</ele><time>2026-04-18T16:14:20Z</time></trkpt><trkpt lat="37.105330890741755" lon="14.77697749970041"><ele>738.0</ele><time>2026-04-18T16:14:21Z</time></trkpt><trkpt lat="37.10546533606115" lon="14.777000803737954"><ele>738.0</ele><time>2026-04-18T16:14:22Z</time></trkpt><trkpt lat="37.10559672019897" lon="14.77702092566398"><ele>738.0</ele><time>2026-04-18T16:14:23Z</time></trkpt><trkpt lat="37.10572416618463" lon="14.777040802291138"><ele>738.0</ele><time>2026-04-18T16:14:24Z</time></trkpt><trkpt lat="37.10585886883229" lon="14.777062295652982"><ele>738.0</ele><time>2026-04-18T16:14:25Z</time></trkpt><trkpt lat="37.10599372957264" lon="14.77707917005719"><ele>738.75</ele><time>2026-04-18T16:14:26Z</time></trkpt><trkpt lat="37.10613561962769" lon="14.777105411539644"><ele>739.5</ele><time>2026-04-18T16:14:27Z</time></trkpt><trkpt lat="37.10627535263237" lon="14.77711557944469"><ele>740.25</ele><time>2026-04-18T16:14:28Z</time></trkpt><trkpt lat="37.10641936623961" lon="14.777118561189084"><ele>741.0</ele><time>2026-04-18T16:14:29Z</time></trkpt><trkpt lat="37.10655288364832" lon="14.777146685674474"><ele>741.0</ele><time>2026-04-18T16:14:30Z</time></trkpt><trkpt lat="37.10667503635778" lon="14.77716282845098"><ele>741.0</ele><time>2026-04-18T16:14:31Z</time></trkpt><trkpt lat="37.106817754333306" lon="14.777173980012519"><ele>741.0</ele><time>2026-04-18T16:14:32Z</time></trkpt><trkpt lat="37.10695209538088" lon="14.777189584694192"><ele>741.0</ele><time>2026-04-18T16:14:33Z</time></trkpt><trkpt lat="37.107078142621496" lon="14.777226383553634"><ele>741.0</ele><time>2026-04-18T16:14:34Z</time></trkpt><trkpt lat="37.10720401242009" lon="14.777297171562639"><ele>741.0</ele><time>2026-04-18T16:14:35Z</time></trkpt><trkpt lat="37.10732857954311" lon="14.77736992514115"><ele>741.0</ele><time>2026-04-18T16:14:36Z</time></trkpt><trkpt lat="37.1074605217073" lon="14.777446789332206"><ele>741.0</ele><time>2026-04-18T16:14:37Z</time></trkpt><trkpt lat="37.10759190470205" lon="14.777503441028614"><ele>740.25</ele><time>2026-04-18T16:14:37.999Z</time></trkpt><trkpt lat="37.10772491371214" lon="14.777587995010245"><ele>739.5</ele><time>2026-04-18T16:14:38.999Z</time></trkpt><trkpt lat="37.1078642494362" lon="14.777670787115035"><ele>738.75</ele><time>2026-04-18T16:14:39.999Z</time></trkpt><trkpt lat="37.10799563002013" lon="14.777748912305961"><ele>738.0</ele><time>2026-04-18T16:14:40.999Z</time></trkpt><trkpt lat="37.10813150301087" lon="14.777830836338206"><ele>740.6666666666666</ele><time>2026-04-18T16:14:41.999Z</time></trkpt><trkpt lat="37.10827894446966" lon="14.777914532072664"><ele>743.3333333333333</ele><time>2026-04-18T16:14:42.999Z</time></trkpt><trkpt lat="37.108424810070225" lon="14.777996212732146"><ele>746.0</ele><time>2026-04-18T16:14:43.999Z</time></trkpt><trkpt lat="37.10856412500935" lon="14.778077917637923"><ele>746.0</ele><time>2026-04-18T16:14:44.999Z</time></trkpt><trkpt lat="37.108699919988" lon="14.778148820636046"><ele>746.0</ele><time>2026-04-18T16:14:45.999Z</time></trkpt><trkpt lat="37.10884491215126" lon="14.778182848661428"><ele>746.0</ele><time>2026-04-18T16:14:46.999Z</time></trkpt><trkpt lat="37.108993820370905" lon="14.77817665129471"><ele>746.0</ele><time>2026-04-18T16:14:47.999Z</time></trkpt><trkpt lat="37.109144761234866" lon="14.778135960745901"><ele>745.0</ele><time>2026-04-18T16:14:48.999Z</time></trkpt><trkpt lat="37.109290287696446" lon="14.778057182328276"><ele>744.0</ele><time>2026-04-18T16:14:49.999Z</time></trkpt><trkpt lat="37.10943393241719" lon="14.777940471848932"><ele>743.0</ele><time>2026-04-18T16:14:50.999Z</time></trkpt><trkpt lat="37.10957592656737" lon="14.777804849463752"><ele>743.0</ele><time>2026-04-18T16:14:51.999Z</time></trkpt><trkpt lat="37.10970909403221" lon="14.77769142132924"><ele>743.0</ele><time>2026-04-18T16:14:52.999Z</time></trkpt><trkpt lat="37.10984664470145" lon="14.777601113054157"><ele>743.0</ele><time>2026-04-18T16:14:53.999Z</time></trkpt><trkpt lat="37.10999325451057" lon="14.777549724022526"><ele>743.25</ele><time>2026-04-18T16:14:54.999Z</time></trkpt><trkpt lat="37.11014131338586" lon="14.777520299432222"><ele>743.5</ele><time>2026-04-18T16:14:55.999Z</time></trkpt><trkpt lat="37.1102799079747" lon="14.777526160418423"><ele>743.75</ele><time>2026-04-18T16:14:56.999Z</time></trkpt><trkpt lat="37.110395304082026" lon="14.777576938494098"><ele>744.0</ele><time>2026-04-18T16:14:57.999Z</time></trkpt><trkpt lat="37.11049850788434" lon="14.777620182991553"><ele>744.0</ele><time>2026-04-18T16:14:58.999Z</time></trkpt><trkpt lat="37.11058756388942" lon="14.777673932179246"><ele>744.0</ele><time>2026-04-18T16:14:59.999Z</time></trkpt><trkpt lat="37.11066853123481" lon="14.777738028879902"><ele>744.0</ele><time>2026-04-18T16:15:00.999Z</time></trkpt><trkpt lat="37.110754770084114" lon="14.77783270475898"><ele>744.0</ele><time>2026-04-18T16:15:01.999Z</time></trkpt><trkpt lat="37.110840572813295" lon="14.777931057108345"><ele>744.0</ele><time>2026-04-18T16:15:02.999Z</time></trkpt><trkpt lat="37.11091966574687" lon="14.77803636977183"><ele>744.4000000000001</ele><time>2026-04-18T16:15:03.999Z</time></trkpt><trkpt lat="37.11099720156661" lon="14.778139629725256"><ele>744.8</ele><time>2026-04-18T16:15:04.999Z</time></trkpt><trkpt lat="37.11106730402069" lon="14.778231567369586"><ele>745.2</ele><time>2026-04-18T16:15:05.999Z</time></trkpt><trkpt lat="37.111137644572636" lon="14.778323817281452"><ele>745.5999999999999</ele><time>2026-04-18T16:15:06.999Z</time></trkpt><trkpt lat="37.111211206235254" lon="14.778416749859792"><ele>746.0</ele><time>2026-04-18T16:15:07.999Z</time></trkpt><trkpt lat="37.111286827457" lon="14.778504021330157"><ele>746.8</ele><time>2026-04-18T16:15:08.999Z</time></trkpt><trkpt lat="37.111370698676346" lon="14.778587183577889"><ele>747.5999999999999</ele><time>2026-04-18T16:15:09.999Z</time></trkpt><trkpt lat="37.11145742358995" lon="14.778665845683282"><ele>748.4</ele><time>2026-04-18T16:15:10.999Z</time></trkpt><trkpt lat="37.111546724368544" lon="14.778742543824208"><ele>749.2</ele><time>2026-04-18T16:15:11.999Z</time></trkpt><trkpt lat="37.11164136664837" lon="14.778821613988713"><ele>750.0</ele><time>2026-04-18T16:15:12.999Z</time></trkpt><trkpt lat="37.11174273111174" lon="14.778897318736608"><ele>750.0</ele><time>2026-04-18T16:15:13.999Z</time></trkpt><trkpt lat="37.11184476933234" lon="14.77897229233067"><ele>750.0</ele><time>2026-04-18T16:15:14.999Z</time></trkpt><trkpt lat="37.11194157309796" lon="14.779043320075381"><ele>750.0</ele><time>2026-04-18T16:15:15.999Z</time></trkpt><trkpt lat="37.11204285548723" lon="14.779121765191064"><ele>750.0</ele><time>2026-04-18T16:15:16.999Z</time></trkpt><trkpt lat="37.112136939793814" lon="14.779200271941177"><ele>750.0</ele><time>2026-04-18T16:15:17.999Z</time></trkpt><trkpt lat="37.11223240407499" lon="14.779282310101935"><ele>750.0</ele><time>2026-04-18T16:15:18.999Z</time></trkpt><trkpt lat="37.11231573742729" lon="14.779343006432411"><ele>750.0</ele><time>2026-04-18T16:15:19.999Z</time></trkpt><trkpt lat="37.1123863085477" lon="14.77942931446778"><ele>750.0</ele><time>2026-04-18T16:15:20.999Z</time></trkpt><trkpt lat="37.11245855958131" lon="14.779528676877616"><ele>750.0</ele><time>2026-04-18T16:15:21.999Z</time></trkpt><trkpt lat="37.112554064001294" lon="14.779656708280099"><ele>751.0</ele><time>2026-04-18T16:15:22.999Z</time></trkpt><trkpt lat="37.112658804299464" lon="14.779794932204531"><ele>752.0</ele><time>2026-04-18T16:15:23.999Z</time></trkpt><trkpt lat="37.11275937305046" lon="14.779917800533358"><ele>753.0</ele><time>2026-04-18T16:15:24.999Z</time></trkpt><trkpt lat="37.112869512182975" lon="14.780034046070815"><ele>754.0</ele><time>2026-04-18T16:15:25.999Z</time></trkpt><trkpt lat="37.11299045248183" lon="14.780128281413822"><ele>756.6666666666667</ele><time>2026-04-18T16:15:26.999Z</time></trkpt><trkpt lat="37.11312595831224" lon="14.780213006140107"><ele>759.3333333333334</ele><time>2026-04-18T16:15:27.999Z</time></trkpt><trkpt lat="37.1132631448753" lon="14.780288518521699"><ele>762.0</ele><time>2026-04-18T16:15:28.999Z</time></trkpt><trkpt lat="37.1134217002855" lon="14.780368475834663"><ele>762.0</ele><time>2026-04-18T16:15:29.999Z</time></trkpt><trkpt lat="37.1136043126678" lon="14.780447472190989"><ele>762.0</ele><time>2026-04-18T16:15:30.999Z</time></trkpt><trkpt lat="37.11378108806482" lon="14.780535930529854"><ele>762.0</ele><time>2026-04-18T16:15:31.999Z</time></trkpt><trkpt lat="37.113974745058194" lon="14.780636770523685"><ele>759.6666666666666</ele><time>2026-04-18T16:15:32.999Z</time></trkpt><trkpt lat="37.11414271068581" lon="14.780723794455108"><ele>757.3333333333333</ele><time>2026-04-18T16:15:33.999Z</time></trkpt><trkpt lat="37.11430892553963" lon="14.780817233922573"><ele>755.0</ele><time>2026-04-18T16:15:34.999Z</time></trkpt><trkpt lat="37.11444059073358" lon="14.780947810391876"><ele>758.3333333333333</ele><time>2026-04-18T16:15:35.999Z</time></trkpt><trkpt lat="37.1145718456705" lon="14.781077534658795"><ele>761.6666666666666</ele><time>2026-04-18T16:15:36.999Z</time></trkpt><trkpt lat="37.114703228892644" lon="14.78121965968604"><ele>765.0</ele><time>2026-04-18T16:15:37.999Z</time></trkpt><trkpt lat="37.11482828416349" lon="14.781353714064227"><ele>763.0</ele><time>2026-04-18T16:15:38.999Z</time></trkpt><trkpt lat="37.114966090130366" lon="14.781490296607522"><ele>761.0</ele><time>2026-04-18T16:15:39.998Z</time></trkpt><trkpt lat="37.11510441364499" lon="14.781610591707182"><ele>759.0</ele><time>2026-04-18T16:15:40.998Z</time></trkpt><trkpt lat="37.115233587158656" lon="14.781752924805524"><ele>762.6666666666667</ele><time>2026-04-18T16:15:41.998Z</time></trkpt><trkpt lat="37.11536244853139" lon="14.781899165640402"><ele>766.3333333333334</ele><time>2026-04-18T16:15:42.998Z</time></trkpt><trkpt lat="37.11549834621657" lon="14.782049078385713"><ele>770.0</ele><time>2026-04-18T16:15:43.998Z</time></trkpt><trkpt lat="37.11562798945779" lon="14.782191523386484"><ele>767.3333333333334</ele><time>2026-04-18T16:15:44.998Z</time></trkpt><trkpt lat="37.1157612628306" lon="14.78232895249133"><ele>764.6666666666667</ele><time>2026-04-18T16:15:45.998Z</time></trkpt><trkpt lat="37.11586931880464" lon="14.782453498908787"><ele>762.0</ele><time>2026-04-18T16:15:46.998Z</time></trkpt><trkpt lat="37.115962832539644" lon="14.78261416570535"><ele>765.0</ele><time>2026-04-18T16:15:47.998Z</time></trkpt><trkpt lat="37.11606940240201" lon="14.782768917867097"><ele>768.0</ele><time>2026-04-18T16:15:48.998Z</time></trkpt><trkpt lat="37.116161523272794" lon="14.782942690808609"><ele>771.0</ele><time>2026-04-18T16:15:49.998Z</time></trkpt><trkpt lat="37.11626435081662" lon="14.783115824962339"><ele>771.0</ele><time>2026-04-18T16:15:50.998Z</time></trkpt><trkpt lat="37.11636632395291" lon="14.783286992758244"><ele>771.0</ele><time>2026-04-18T16:15:51.998Z</time></trkpt><trkpt lat="37.11647127735124" lon="14.783467474768706"><ele>771.0</ele><time>2026-04-18T16:15:52.998Z</time></trkpt><trkpt lat="37.11657028245697" lon="14.783639095518803"><ele>769.6666666666666</ele><time>2026-04-18T16:15:53.998Z</time></trkpt><trkpt lat="37.116683405386375" lon="14.783818831369407"><ele>768.3333333333333</ele><time>2026-04-18T16:15:54.998Z</time></trkpt><trkpt lat="37.11679128065325" lon="14.783989420011237"><ele>767.0</ele><time>2026-04-18T16:15:55.998Z</time></trkpt><trkpt lat="37.11688618787725" lon="14.784161368320254"><ele>767.0</ele><time>2026-04-18T16:15:56.998Z</time></trkpt><trkpt lat="37.1169864242644" lon="14.784329967841828"><ele>767.0</ele><time>2026-04-18T16:15:58Z</time></trkpt><trkpt lat="37.11707135908979" lon="14.784486899982321"><ele>767.0</ele><time>2026-04-18T16:15:59Z</time></trkpt><trkpt lat="37.11714343852259" lon="14.784667662526813"><ele>769.0</ele><time>2026-04-18T16:16:00Z</time></trkpt><trkpt lat="37.11720690741076" lon="14.784854144956084"><ele>771.0</ele><time>2026-04-18T16:16:01Z</time></trkpt><trkpt lat="37.11726453491425" lon="14.785034541992745"><ele>773.0</ele><time>2026-04-18T16:16:02Z</time></trkpt><trkpt lat="37.117323437540264" lon="14.785212222737487"><ele>772.0</ele><time>2026-04-18T16:16:03Z</time></trkpt><trkpt lat="37.117389796588405" lon="14.785385026024834"><ele>771.0</ele><time>2026-04-18T16:16:04Z</time></trkpt><trkpt lat="37.11745599362401" lon="14.78555480622158"><ele>770.0</ele><time>2026-04-18T16:16:05Z</time></trkpt><trkpt lat="37.11750257809956" lon="14.78573293923834"><ele>770.0</ele><time>2026-04-18T16:16:06Z</time></trkpt><trkpt lat="37.11757220566797" lon="14.78589103998039"><ele>770.0</ele><time>2026-04-18T16:16:07Z</time></trkpt><trkpt lat="37.11765776138216" lon="14.786017345922208"><ele>770.0</ele><time>2026-04-18T16:16:08Z</time></trkpt><trkpt lat="37.11776279651005" lon="14.786139851352395"><ele>770.0</ele><time>2026-04-18T16:16:09Z</time></trkpt><trkpt lat="37.11788593128384" lon="14.786252109030576"><ele>770.3333333333334</ele><time>2026-04-18T16:16:10Z</time></trkpt><trkpt lat="37.11802209852898" lon="14.786350401868189"><ele>770.6666666666667</ele><time>2026-04-18T16:16:11Z</time></trkpt><trkpt lat="37.118168965098256" lon="14.78645063988012"><ele>771.0</ele><time>2026-04-18T16:16:12Z</time></trkpt><trkpt lat="37.11829687504743" lon="14.78655568848797"><ele>771.0</ele><time>2026-04-18T16:16:13Z</time></trkpt><trkpt lat="37.11841006148932" lon="14.786673804540166"><ele>771.0</ele><time>2026-04-18T16:16:14Z</time></trkpt><trkpt lat="37.11854587348848" lon="14.786784635059224"><ele>771.0</ele><time>2026-04-18T16:16:15Z</time></trkpt><trkpt lat="37.11868008186314" lon="14.786882132002347"><ele>772.0</ele><time>2026-04-18T16:16:16Z</time></trkpt><trkpt lat="37.11879168218026" lon="14.786993659526356"><ele>773.0</ele><time>2026-04-18T16:16:17Z</time></trkpt><trkpt lat="37.118895663924505" lon="14.787109003523643"><ele>774.0</ele><time>2026-04-18T16:16:18Z</time></trkpt><trkpt lat="37.11901234107716" lon="14.787237035625777"><ele>775.0</ele><time>2026-04-18T16:16:19Z</time></trkpt><trkpt lat="37.119129157822634" lon="14.787358714596957"><ele>775.0</ele><time>2026-04-18T16:16:20Z</time></trkpt><trkpt lat="37.11925006666454" lon="14.787471593970523"><ele>775.0</ele><time>2026-04-18T16:16:21Z</time></trkpt><trkpt lat="37.11936652677803" lon="14.787592100326766"><ele>775.0</ele><time>2026-04-18T16:16:22Z</time></trkpt><trkpt lat="37.119481884330256" lon="14.78772620797438"><ele>777.0</ele><time>2026-04-18T16:16:23Z</time></trkpt><trkpt lat="37.11959459932197" lon="14.787864470747703"><ele>779.0</ele><time>2026-04-18T16:16:24Z</time></trkpt><trkpt lat="37.11969845711077" lon="14.788011233291972"><ele>781.0</ele><time>2026-04-18T16:16:25Z</time></trkpt><trkpt lat="37.11978720916491" lon="14.788167667271766"><ele>781.0</ele><time>2026-04-18T16:16:26Z</time></trkpt><trkpt lat="37.11983900869971" lon="14.788340286510296"><ele>781.0</ele><time>2026-04-18T16:16:27Z</time></trkpt><trkpt lat="37.11988083631463" lon="14.788515341657716"><ele>781.0</ele><time>2026-04-18T16:16:28Z</time></trkpt><trkpt lat="37.11992093689285" lon="14.788684921776245"><ele>781.0</ele><time>2026-04-18T16:16:29Z</time></trkpt><trkpt lat="37.119937131584344" lon="14.788876319690157"><ele>782.6666666666666</ele><time>2026-04-18T16:16:30Z</time></trkpt><trkpt lat="37.11994034988736" lon="14.789058986087843"><ele>784.3333333333333</ele><time>2026-04-18T16:16:31Z</time></trkpt><trkpt lat="37.11992701708562" lon="14.789255400939043"><ele>786.0</ele><time>2026-04-18T16:16:32Z</time></trkpt><trkpt lat="37.11989718673594" lon="14.789451333473567"><ele>786.0</ele><time>2026-04-18T16:16:33Z</time></trkpt><trkpt lat="37.119862960910005" lon="14.789661530118886"><ele>786.0</ele><time>2026-04-18T16:16:34Z</time></trkpt><trkpt lat="37.11982595434474" lon="14.789882926431844"><ele>786.0</ele><time>2026-04-18T16:16:35Z</time></trkpt><trkpt lat="37.11979092741346" lon="14.79012702035451"><ele>786.0</ele><time>2026-04-18T16:16:36Z</time></trkpt><trkpt lat="37.119747335569485" lon="14.790367488716745"><ele>786.0</ele><time>2026-04-18T16:16:37Z</time></trkpt><trkpt lat="37.119710893492226" lon="14.79060506315479"><ele>786.0</ele><time>2026-04-18T16:16:38Z</time></trkpt><trkpt lat="37.119686177525274" lon="14.790848844036786"><ele>786.3333333333333</ele><time>2026-04-18T16:16:39Z</time></trkpt><trkpt lat="37.119681479907634" lon="14.791073745520869"><ele>786.6666666666666</ele><time>2026-04-18T16:16:40Z</time></trkpt><trkpt lat="37.1197134335316" lon="14.79127723288753"><ele>787.0</ele><time>2026-04-18T16:16:41Z</time></trkpt><trkpt lat="37.11976568729316" lon="14.791492629363875"><ele>787.0</ele><time>2026-04-18T16:16:42Z</time></trkpt><trkpt lat="37.11981204877004" lon="14.791716613026919"><ele>787.0</ele><time>2026-04-18T16:16:42.999Z</time></trkpt><trkpt lat="37.11988712714446" lon="14.791938225068536"><ele>787.0</ele><time>2026-04-18T16:16:43.999Z</time></trkpt><trkpt lat="37.119947388617994" lon="14.79216991589182"><ele>783.0</ele><time>2026-04-18T16:16:44.999Z</time></trkpt><trkpt lat="37.12001230168781" lon="14.792384175839846"><ele>779.0</ele><time>2026-04-18T16:16:45.999Z</time></trkpt><trkpt lat="37.12005926075425" lon="14.792587110084181"><ele>775.0</ele><time>2026-04-18T16:16:46.999Z</time></trkpt><trkpt lat="37.12004321867745" lon="14.792773290539971"><ele>775.0</ele><time>2026-04-18T16:16:47.999Z</time></trkpt><trkpt lat="37.120020851080895" lon="14.792945419429309"><ele>775.0</ele><time>2026-04-18T16:16:48.999Z</time></trkpt><trkpt lat="37.11998138280108" lon="14.79312096874622"><ele>775.0</ele><time>2026-04-18T16:16:49.999Z</time></trkpt><trkpt lat="37.119936384148794" lon="14.793294939832057"><ele>775.0</ele><time>2026-04-18T16:16:50.999Z</time></trkpt><trkpt lat="37.11984585474763" lon="14.793434216986757"><ele>775.0</ele><time>2026-04-18T16:16:51.999Z</time></trkpt><trkpt lat="37.119750190354665" lon="14.79356767662067"><ele>775.0</ele><time>2026-04-18T16:16:52.999Z</time></trkpt><trkpt lat="37.11962793771084" lon="14.793703993283199"><ele>775.0</ele><time>2026-04-18T16:16:53.999Z</time></trkpt><trkpt lat="37.11951298858248" lon="14.79385416802816"><ele>775.0</ele><time>2026-04-18T16:16:54.999Z</time></trkpt><trkpt lat="37.11938544312333" lon="14.794000439453873"><ele>775.0</ele><time>2026-04-18T16:16:55.999Z</time></trkpt><trkpt lat="37.11925770365219" lon="14.7941418838965"><ele>775.0</ele><time>2026-04-18T16:16:56.999Z</time></trkpt><trkpt lat="37.119132027290995" lon="14.794280542019912"><ele>776.0</ele><time>2026-04-18T16:16:57.999Z</time></trkpt><trkpt lat="37.11901093615826" lon="14.794421618408894"><ele>777.0</ele><time>2026-04-18T16:16:58.999Z</time></trkpt><trkpt lat="37.1188840047735" lon="14.794577062102448"><ele>778.0</ele><time>2026-04-18T16:16:59.999Z</time></trkpt><trkpt lat="37.118747884160065" lon="14.79473462604932"><ele>778.0</ele><time>2026-04-18T16:17:00.999Z</time></trkpt><trkpt lat="37.11861002649739" lon="14.794890699759181"><ele>778.0</ele><time>2026-04-18T16:17:01.999Z</time></trkpt><trkpt lat="37.1184750551601" lon="14.795043778207045"><ele>778.0</ele><time>2026-04-18T16:17:02.999Z</time></trkpt><trkpt lat="37.11834445916397" lon="14.795191164699846"><ele>778.75</ele><time>2026-04-18T16:17:03.999Z</time></trkpt><trkpt lat="37.11823129478912" lon="14.795324955753408"><ele>779.5</ele><time>2026-04-18T16:17:04.999Z</time></trkpt><trkpt lat="37.118133863180226" lon="14.79545658045273"><ele>780.25</ele><time>2026-04-18T16:17:05.999Z</time></trkpt><trkpt lat="37.11806120540219" lon="14.795577120992823"><ele>781.0</ele><time>2026-04-18T16:17:06.999Z</time></trkpt><trkpt lat="37.118005136511876" lon="14.79571933327798"><ele>781.0</ele><time>2026-04-18T16:17:07.999Z</time></trkpt><trkpt lat="37.11796448289467" lon="14.795875066468318"><ele>781.0</ele><time>2026-04-18T16:17:08.999Z</time></trkpt><trkpt lat="37.11794179112982" lon="14.796068936314404"><ele>781.0</ele><time>2026-04-18T16:17:09.999Z</time></trkpt><trkpt lat="37.11795314743386" lon="14.796262771857782"><ele>781.0</ele><time>2026-04-18T16:17:10.999Z</time></trkpt><trkpt lat="37.11798994871459" lon="14.796462286464351"><ele>781.0</ele><time>2026-04-18T16:17:11.999Z</time></trkpt><trkpt lat="37.118040064146605" lon="14.796661773550975"><ele>781.0</ele><time>2026-04-18T16:17:12.999Z</time></trkpt><trkpt lat="37.118093620743444" lon="14.796876046341177"><ele>781.0</ele><time>2026-04-18T16:17:13.999Z</time></trkpt><trkpt lat="37.11812460544832" lon="14.79707315296108"><ele>781.3333333333333</ele><time>2026-04-18T16:17:14.999Z</time></trkpt><trkpt lat="37.118130586505536" lon="14.797287413398722"><ele>781.6666666666667</ele><time>2026-04-18T16:17:15.999Z</time></trkpt><trkpt lat="37.1181207126204" lon="14.797495328177407"><ele>782.0</ele><time>2026-04-18T16:17:16.999Z</time></trkpt><trkpt lat="37.118109552331944" lon="14.797710194242494"><ele>780.6666666666667</ele><time>2026-04-18T16:17:17.999Z</time></trkpt><trkpt lat="37.11809963970094" lon="14.797922782679407"><ele>779.3333333333333</ele><time>2026-04-18T16:17:18.999Z</time></trkpt><trkpt lat="37.11809393773195" lon="14.79812820665259"><ele>778.0</ele><time>2026-04-18T16:17:19.999Z</time></trkpt><trkpt lat="37.11810723190219" lon="14.79833657731586"><ele>778.3333333333333</ele><time>2026-04-18T16:17:20.999Z</time></trkpt><trkpt lat="37.118141682802346" lon="14.798527840593644"><ele>778.6666666666667</ele><time>2026-04-18T16:17:21.999Z</time></trkpt><trkpt lat="37.118184502653904" lon="14.798713883333049"><ele>779.0</ele><time>2026-04-18T16:17:22.999Z</time></trkpt><trkpt lat="37.11822854700176" lon="14.798909073654913"><ele>779.3333333333334</ele><time>2026-04-18T16:17:23.999Z</time></trkpt><trkpt lat="37.11824202241896" lon="14.799109264504661"><ele>779.6666666666667</ele><time>2026-04-18T16:17:24.999Z</time></trkpt><trkpt lat="37.11823936624401" lon="14.799301715895043"><ele>780.0</ele><time>2026-04-18T16:17:25.999Z</time></trkpt><trkpt lat="37.11821859477218" lon="14.79949816820101"><ele>780.0</ele><time>2026-04-18T16:17:26.999Z</time></trkpt><trkpt lat="37.11817974197218" lon="14.799675053082805"><ele>780.0</ele><time>2026-04-18T16:17:27.999Z</time></trkpt><trkpt lat="37.11812245047995" lon="14.79983163323559"><ele>780.0</ele><time>2026-04-18T16:17:28.999Z</time></trkpt><trkpt lat="37.11804206274889" lon="14.799989398893489"><ele>780.0</ele><time>2026-04-18T16:17:29.999Z</time></trkpt><trkpt lat="37.11795197479603" lon="14.800155400353924"><ele>779.25</ele><time>2026-04-18T16:17:30.999Z</time></trkpt><trkpt lat="37.11788579395551" lon="14.800318205253184"><ele>778.5</ele><time>2026-04-18T16:17:31.999Z</time></trkpt><trkpt lat="37.117809361656036" lon="14.800466551408181"><ele>777.75</ele><time>2026-04-18T16:17:32.999Z</time></trkpt><trkpt lat="37.11775301516611" lon="14.800614488777523"><ele>777.0</ele><time>2026-04-18T16:17:33.999Z</time></trkpt><trkpt lat="37.11771343567756" lon="14.800766808281764"><ele>777.0</ele><time>2026-04-18T16:17:34.999Z</time></trkpt><trkpt lat="37.11770690736769" lon="14.800922927646658"><ele>777.0</ele><time>2026-04-18T16:17:35.999Z</time></trkpt><trkpt lat="37.11772631351935" lon="14.801074535924071"><ele>777.0</ele><time>2026-04-18T16:17:36.999Z</time></trkpt><trkpt lat="37.11776377924867" lon="14.801235635720529"><ele>777.0</ele><time>2026-04-18T16:17:37.999Z</time></trkpt><trkpt lat="37.11782566727202" lon="14.801389436377045"><ele>779.0</ele><time>2026-04-18T16:17:38.999Z</time></trkpt><trkpt lat="37.1179093846965" lon="14.801562473089499"><ele>781.0</ele><time>2026-04-18T16:17:39.999Z</time></trkpt><trkpt lat="37.11799609302623" lon="14.801738667795746"><ele>783.0</ele><time>2026-04-18T16:17:40.999Z</time></trkpt><trkpt lat="37.11807797248133" lon="14.801914312910558"><ele>784.3333333333333</ele><time>2026-04-18T16:17:41.999Z</time></trkpt><trkpt lat="37.11816380852083" lon="14.802091517474684"><ele>785.6666666666666</ele><time>2026-04-18T16:17:42.999Z</time></trkpt><trkpt lat="37.118256357759236" lon="14.802270725344007"><ele>787.0</ele><time>2026-04-18T16:17:43.999Z</time></trkpt><trkpt lat="37.11834396424088" lon="14.802446595267693"><ele>784.3333333333333</ele><time>2026-04-18T16:17:44.998Z</time></trkpt><trkpt lat="37.118435378366165" lon="14.802640433243068"><ele>781.6666666666667</ele><time>2026-04-18T16:17:45.998Z</time></trkpt><trkpt lat="37.118513642661505" lon="14.802839353646846"><ele>779.0</ele><time>2026-04-18T16:17:46.998Z</time></trkpt><trkpt lat="37.11859240151239" lon="14.803049776933381"><ele>779.0</ele><time>2026-04-18T16:17:47.998Z</time></trkpt><trkpt lat="37.11865994815835" lon="14.803291323656051"><ele>779.0</ele><time>2026-04-18T16:17:48.998Z</time></trkpt><trkpt lat="37.118743839489014" lon="14.803533852256912"><ele>779.0</ele><time>2026-04-18T16:17:49.998Z</time></trkpt><trkpt lat="37.118837895323836" lon="14.803805766290347"><ele>779.6666666666667</ele><time>2026-04-18T16:17:50.998Z</time></trkpt><trkpt lat="37.118927259586854" lon="14.804065619681372"><ele>780.3333333333333</ele><time>2026-04-18T16:17:51.998Z</time></trkpt><trkpt lat="37.11901272933843" lon="14.80431253444774"><ele>781.0</ele><time>2026-04-18T16:17:52.998Z</time></trkpt><trkpt lat="37.119097563600036" lon="14.80455710984565"><ele>779.6666666666666</ele><time>2026-04-18T16:17:53.998Z</time></trkpt><trkpt lat="37.119177397354306" lon="14.80480574683582"><ele>778.3333333333333</ele><time>2026-04-18T16:17:54.998Z</time></trkpt><trkpt lat="37.11927350806287" lon="14.805044372307659"><ele>777.0</ele><time>2026-04-18T16:17:55.998Z</time></trkpt><trkpt lat="37.119353226858344" lon="14.805282900748683"><ele>777.0</ele><time>2026-04-18T16:17:56.998Z</time></trkpt><trkpt lat="37.11943184069531" lon="14.80551807570788"><ele>777.0</ele><time>2026-04-18T16:17:57.998Z</time></trkpt><trkpt lat="37.11951414104664" lon="14.805719728759353"><ele>777.0</ele><time>2026-04-18T16:17:58.998Z</time></trkpt><trkpt lat="37.11961580276852" lon="14.805894976287174"><ele>777.6666666666667</ele><time>2026-04-18T16:17:59.998Z</time></trkpt><trkpt lat="37.119743231089956" lon="14.806050358694048"><ele>778.3333333333334</ele><time>2026-04-18T16:18:00.998Z</time></trkpt><trkpt lat="37.11988916492793" lon="14.80618035524171"><ele>779.0</ele><time>2026-04-18T16:18:01.998Z</time></trkpt><trkpt lat="37.12003239985644" lon="14.806309796308348"><ele>779.0</ele><time>2026-04-18T16:18:02.998Z</time></trkpt><trkpt lat="37.12018018651232" lon="14.806426943783514"><ele>779.0</ele><time>2026-04-18T16:18:04Z</time></trkpt><trkpt lat="37.120341180977135" lon="14.806528073565584"><ele>779.0</ele><time>2026-04-18T16:18:05Z</time></trkpt><trkpt lat="37.1205278088511" lon="14.806607585032546"><ele>779.3333333333334</ele><time>2026-04-18T16:18:06Z</time></trkpt><trkpt lat="37.120743899245106" lon="14.806686078909516"><ele>779.6666666666667</ele><time>2026-04-18T16:18:07Z</time></trkpt><trkpt lat="37.1209466203942" lon="14.806772769295819"><ele>780.0</ele><time>2026-04-18T16:18:08Z</time></trkpt><trkpt lat="37.12114060983438" lon="14.806854453838215"><ele>780.0</ele><time>2026-04-18T16:18:09Z</time></trkpt><trkpt lat="37.121313247173745" lon="14.80693081991769"><ele>780.0</ele><time>2026-04-18T16:18:10Z</time></trkpt><trkpt lat="37.12146899428116" lon="14.807006984751478"><ele>780.0</ele><time>2026-04-18T16:18:11Z</time></trkpt><trkpt lat="37.12157920816412" lon="14.807122429464469"><ele>779.5</ele><time>2026-04-18T16:18:12Z</time></trkpt><trkpt lat="37.12168069267686" lon="14.807248968244688"><ele>779.0</ele><time>2026-04-18T16:18:13Z</time></trkpt><trkpt lat="37.121774612323925" lon="14.807397815400408"><ele>778.5</ele><time>2026-04-18T16:18:14Z</time></trkpt><trkpt lat="37.121844209088835" lon="14.807557381974867"><ele>778.0</ele><time>2026-04-18T16:18:15Z</time></trkpt><trkpt lat="37.121886727016545" lon="14.807719724855229"><ele>778.0</ele><time>2026-04-18T16:18:16Z</time></trkpt><trkpt lat="37.12191355296227" lon="14.807898653187229"><ele>778.0</ele><time>2026-04-18T16:18:17Z</time></trkpt><trkpt lat="37.1219103132931" lon="14.808092288935692"><ele>778.0</ele><time>2026-04-18T16:18:18Z</time></trkpt><trkpt lat="37.12188552347102" lon="14.808280287231648"><ele>778.0</ele><time>2026-04-18T16:18:19Z</time></trkpt><trkpt lat="37.12183914461156" lon="14.80845165150276"><ele>778.0</ele><time>2026-04-18T16:18:20Z</time></trkpt><trkpt lat="37.1217723814234" lon="14.808614713763346"><ele>778.0</ele><time>2026-04-18T16:18:21Z</time></trkpt><trkpt lat="37.121668933810795" lon="14.808788682771997"><ele>778.0</ele><time>2026-04-18T16:18:22Z</time></trkpt><trkpt lat="37.12155862118544" lon="14.80897368561792"><ele>778.0</ele><time>2026-04-18T16:18:23Z</time></trkpt><trkpt lat="37.12146458582493" lon="14.809165232281979"><ele>778.0</ele><time>2026-04-18T16:18:24Z</time></trkpt><trkpt lat="37.121373460429076" lon="14.809328262042493"><ele>777.75</ele><time>2026-04-18T16:18:25Z</time></trkpt><trkpt lat="37.12130034820502" lon="14.809484655804937"><ele>777.5</ele><time>2026-04-18T16:18:26Z</time></trkpt><trkpt lat="37.12125415871295" lon="14.8096414529368"><ele>777.25</ele><time>2026-04-18T16:18:27Z</time></trkpt><trkpt lat="37.121231945431454" lon="14.809813624580165"><ele>777.0</ele><time>2026-04-18T16:18:28Z</time></trkpt><trkpt lat="37.1212327090213" lon="14.809978419732957"><ele>777.0</ele><time>2026-04-18T16:18:29Z</time></trkpt><trkpt lat="37.12123901050038" lon="14.810147514850536"><ele>777.0</ele><time>2026-04-18T16:18:30Z</time></trkpt><trkpt lat="37.121276054136544" lon="14.810311680756596"><ele>777.0</ele><time>2026-04-18T16:18:31Z</time></trkpt><trkpt lat="37.12134661939766" lon="14.810456880048225"><ele>777.0</ele><time>2026-04-18T16:18:32Z</time></trkpt><trkpt lat="37.1214092451039" lon="14.81059469487148"><ele>777.0</ele><time>2026-04-18T16:18:33Z</time></trkpt><trkpt lat="37.12147052727951" lon="14.810736989205475"><ele>777.0</ele><time>2026-04-18T16:18:34Z</time></trkpt><trkpt lat="37.121524953624665" lon="14.81089413783153"><ele>777.0</ele><time>2026-04-18T16:18:35Z</time></trkpt><trkpt lat="37.12159211306505" lon="14.811044341073911"><ele>777.0</ele><time>2026-04-18T16:18:36Z</time></trkpt><trkpt lat="37.12165864538663" lon="14.811193262859915"><ele>777.0</ele><time>2026-04-18T16:18:37Z</time></trkpt><trkpt lat="37.121722283468834" lon="14.811337608359391"><ele>777.0</ele><time>2026-04-18T16:18:38Z</time></trkpt><trkpt lat="37.121794890980254" lon="14.811499730269865"><ele>777.0</ele><time>2026-04-18T16:18:39Z</time></trkpt><trkpt lat="37.12189730724136" lon="14.811667349181478"><ele>777.0</ele><time>2026-04-18T16:18:40Z</time></trkpt><trkpt lat="37.12200102972477" lon="14.811825627441753"><ele>779.0</ele><time>2026-04-18T16:18:41Z</time></trkpt><trkpt lat="37.12211794539048" lon="14.811955596995139"><ele>781.0</ele><time>2026-04-18T16:18:42Z</time></trkpt><trkpt lat="37.12223866546113" lon="14.812092271953384"><ele>783.0</ele><time>2026-04-18T16:18:43Z</time></trkpt><trkpt lat="37.122384046141576" lon="14.812182823921804"><ele>780.6666666666667</ele><time>2026-04-18T16:18:44Z</time></trkpt><trkpt lat="37.12252800702795" lon="14.812278763956195"><ele>778.3333333333334</ele><time>2026-04-18T16:18:45Z</time></trkpt><trkpt lat="37.12267663578207" lon="14.812361358964225"><ele>776.0</ele><time>2026-04-18T16:18:46Z</time></trkpt><trkpt lat="37.122830570773736" lon="14.812444363395995"><ele>776.0</ele><time>2026-04-18T16:18:47Z</time></trkpt><trkpt lat="37.12297469610882" lon="14.812529278021353"><ele>776.0</ele><time>2026-04-18T16:18:48Z</time></trkpt><trkpt lat="37.12312095543695" lon="14.812611126613243"><ele>776.0</ele><time>2026-04-18T16:18:48.999Z</time></trkpt><trkpt lat="37.123260158376915" lon="14.812687466264853"><ele>778.3333333333334</ele><time>2026-04-18T16:18:49.999Z</time></trkpt><trkpt lat="37.12340326484305" lon="14.812761811749352"><ele>780.6666666666667</ele><time>2026-04-18T16:18:50.999Z</time></trkpt><trkpt lat="37.12354418123875" lon="14.81282885186072"><ele>783.0</ele><time>2026-04-18T16:18:51.999Z</time></trkpt><trkpt lat="37.12368917284478" lon="14.812888175519769"><ele>783.0</ele><time>2026-04-18T16:18:52.999Z</time></trkpt><trkpt lat="37.12383480294136" lon="14.812934236431593"><ele>783.0</ele><time>2026-04-18T16:18:53.999Z</time></trkpt><trkpt lat="37.123983751648275" lon="14.812971230796183"><ele>783.0</ele><time>2026-04-18T16:18:54.999Z</time></trkpt><trkpt lat="37.12413127355195" lon="14.812996574231517"><ele>781.75</ele><time>2026-04-18T16:18:55.999Z</time></trkpt><trkpt lat="37.12427396686163" lon="14.813023909198543"><ele>780.5</ele><time>2026-04-18T16:18:56.999Z</time></trkpt><trkpt lat="37.124421558947866" lon="14.813039473367244"><ele>779.25</ele><time>2026-04-18T16:18:57.999Z</time></trkpt><trkpt lat="37.124567307563545" lon="14.813026738665842"><ele>778.0</ele><time>2026-04-18T16:18:58.999Z</time></trkpt><trkpt lat="37.12470869283817" lon="14.813005659054593"><ele>778.0</ele><time>2026-04-18T16:18:59.999Z</time></trkpt><trkpt lat="37.12485014577212" lon="14.81298025107278"><ele>778.0</ele><time>2026-04-18T16:19:00.999Z</time></trkpt><trkpt lat="37.124995768359845" lon="14.812954823423542"><ele>778.0</ele><time>2026-04-18T16:19:01.999Z</time></trkpt><trkpt lat="37.125152410766766" lon="14.812934422358772"><ele>778.0</ele><time>2026-04-18T16:19:02.999Z</time></trkpt><trkpt lat="37.12529328457126" lon="14.812906234595891"><ele>777.25</ele><time>2026-04-18T16:19:03.999Z</time></trkpt><trkpt lat="37.1254322294609" lon="14.812879398929047"><ele>776.5</ele><time>2026-04-18T16:19:04.999Z</time></trkpt><trkpt lat="37.125572217216956" lon="14.812858196844658"><ele>775.75</ele><time>2026-04-18T16:19:05.999Z</time></trkpt><trkpt lat="37.1257132895541" lon="14.812838193557733"><ele>775.0</ele><time>2026-04-18T16:19:06.999Z</time></trkpt><trkpt lat="37.12584618727681" lon="14.812817671544988"><ele>774.5</ele><time>2026-04-18T16:19:07.999Z</time></trkpt><trkpt lat="37.1259802904265" lon="14.812794111773723"><ele>774.0</ele><time>2026-04-18T16:19:08.999Z</time></trkpt><trkpt lat="37.126107727827694" lon="14.81278029601605"><ele>773.5</ele><time>2026-04-18T16:19:09.999Z</time></trkpt><trkpt lat="37.12622377653616" lon="14.812781494630869"><ele>773.0</ele><time>2026-04-18T16:19:10.999Z</time></trkpt><trkpt lat="37.12634871590145" lon="14.812809507258885"><ele>773.0</ele><time>2026-04-18T16:19:11.999Z</time></trkpt><trkpt lat="37.126468552664306" lon="14.812866775864851"><ele>773.0</ele><time>2026-04-18T16:19:12.999Z</time></trkpt><trkpt lat="37.126585586929025" lon="14.812937912752785"><ele>773.0</ele><time>2026-04-18T16:19:13.999Z</time></trkpt><trkpt lat="37.12669514706229" lon="14.813019899578887"><ele>773.0</ele><time>2026-04-18T16:19:14.999Z</time></trkpt><trkpt lat="37.12680633051022" lon="14.813122113318174"><ele>772.5</ele><time>2026-04-18T16:19:15.999Z</time></trkpt><trkpt lat="37.1269089655726" lon="14.813238584822399"><ele>772.0</ele><time>2026-04-18T16:19:16.999Z</time></trkpt><trkpt lat="37.12700633568469" lon="14.813357950976616"><ele>771.5</ele><time>2026-04-18T16:19:17.999Z</time></trkpt><trkpt lat="37.12711612445191" lon="14.813473967257316"><ele>771.0</ele><time>2026-04-18T16:19:18.999Z</time></trkpt><trkpt lat="37.12723207846174" lon="14.813585050953838"><ele>771.5</ele><time>2026-04-18T16:19:19.999Z</time></trkpt><trkpt lat="37.12734748980304" lon="14.813681221437085"><ele>772.0</ele><time>2026-04-18T16:19:20.999Z</time></trkpt><trkpt lat="37.127463200991244" lon="14.81377205430698"><ele>772.5</ele><time>2026-04-18T16:19:21.999Z</time></trkpt><trkpt lat="37.12758477069151" lon="14.813850191994039"><ele>773.0</ele><time>2026-04-18T16:19:22.999Z</time></trkpt><trkpt lat="37.127721520715326" lon="14.813906062379933"><ele>773.0</ele><time>2026-04-18T16:19:23.999Z</time></trkpt><trkpt lat="37.12787041612341" lon="14.813925936419803"><ele>773.0</ele><time>2026-04-18T16:19:24.999Z</time></trkpt><trkpt lat="37.12801809868575" lon="14.813873470871242"><ele>773.0</ele><time>2026-04-18T16:19:25.999Z</time></trkpt><trkpt lat="37.12817173839517" lon="14.813812936258133"><ele>772.0</ele><time>2026-04-18T16:19:26.999Z</time></trkpt><trkpt lat="37.12831440627423" lon="14.813774058907006"><ele>771.0</ele><time>2026-04-18T16:19:27.999Z</time></trkpt><trkpt lat="37.128470117631004" lon="14.813745824691173"><ele>770.0</ele><time>2026-04-18T16:19:28.999Z</time></trkpt><trkpt lat="37.12861723904882" lon="14.81372382561346"><ele>770.0</ele><time>2026-04-18T16:19:29.999Z</time></trkpt><trkpt lat="37.12875227229488" lon="14.813725371798043"><ele>770.0</ele><time>2026-04-18T16:19:30.999Z</time></trkpt><trkpt lat="37.12886666900779" lon="14.813761148565916"><ele>770.0</ele><time>2026-04-18T16:19:31.999Z</time></trkpt><trkpt lat="37.12898467508884" lon="14.813811379560306"><ele>770.0</ele><time>2026-04-18T16:19:32.999Z</time></trkpt><trkpt lat="37.129088336385735" lon="14.81389635152836"><ele>770.5</ele><time>2026-04-18T16:19:33.999Z</time></trkpt><trkpt lat="37.129193126657974" lon="14.814007340521892"><ele>771.0</ele><time>2026-04-18T16:19:34.999Z</time></trkpt><trkpt lat="37.12928380106366" lon="14.814140585096064"><ele>771.5</ele><time>2026-04-18T16:19:35.999Z</time></trkpt><trkpt lat="37.1293681187359" lon="14.814287042765287"><ele>772.0</ele><time>2026-04-18T16:19:36.999Z</time></trkpt><trkpt lat="37.129435208060606" lon="14.814441600006337"><ele>772.0</ele><time>2026-04-18T16:19:37.999Z</time></trkpt><trkpt lat="37.12945451951227" lon="14.814604729035759"><ele>772.0</ele><time>2026-04-18T16:19:38.999Z</time></trkpt><trkpt lat="37.12947596718239" lon="14.814776098933999"><ele>772.0</ele><time>2026-04-18T16:19:39.999Z</time></trkpt><trkpt lat="37.12947416663511" lon="14.81496225283939"><ele>772.0</ele><time>2026-04-18T16:19:40.999Z</time></trkpt><trkpt lat="37.129473951272594" lon="14.815154027765008"><ele>773.0</ele><time>2026-04-18T16:19:41.999Z</time></trkpt><trkpt lat="37.12947644310666" lon="14.815346693627866"><ele>774.0</ele><time>2026-04-18T16:19:42.999Z</time></trkpt><trkpt lat="37.129486343656154" lon="14.815521105792754"><ele>775.0</ele><time>2026-04-18T16:19:43.999Z</time></trkpt><trkpt lat="37.1295104339409" lon="14.815681365436179"><ele>776.0</ele><time>2026-04-18T16:19:44.999Z</time></trkpt><trkpt lat="37.129561643138175" lon="14.815838170117221"><ele>774.0</ele><time>2026-04-18T16:19:45.999Z</time></trkpt><trkpt lat="37.129630297925075" lon="14.815987914121466"><ele>772.0</ele><time>2026-04-18T16:19:46.999Z</time></trkpt><trkpt lat="37.1297158037954" lon="14.816128661260885"><ele>770.0</ele><time>2026-04-18T16:19:47.999Z</time></trkpt><trkpt lat="37.12981305879977" lon="14.816256924403167"><ele>768.0</ele><time>2026-04-18T16:19:48.999Z</time></trkpt><trkpt lat="37.12993124057553" lon="14.816362813577934"><ele>768.0</ele><time>2026-04-18T16:19:49.999Z</time></trkpt><trkpt lat="37.130059999542645" lon="14.816431299224883"><ele>768.0</ele><time>2026-04-18T16:19:50.998Z</time></trkpt><trkpt lat="37.13019620650838" lon="14.816484524705054"><ele>768.0</ele><time>2026-04-18T16:19:51.998Z</time></trkpt><trkpt lat="37.130349642665315" lon="14.8165020306478"><ele>768.0</ele><time>2026-04-18T16:19:52.998Z</time></trkpt><trkpt lat="37.13049440023543" lon="14.81651023900715"><ele>768.0</ele><time>2026-04-18T16:19:53.998Z</time></trkpt><trkpt lat="37.13064536712021" lon="14.816528338602634"><ele>768.0</ele><time>2026-04-18T16:19:54.998Z</time></trkpt><trkpt lat="37.13078649897058" lon="14.816545830828575"><ele>768.0</ele><time>2026-04-18T16:19:55.998Z</time></trkpt><trkpt lat="37.13093542066834" lon="14.816570862318754"><ele>768.0</ele><time>2026-04-18T16:19:56.998Z</time></trkpt><trkpt lat="37.13105603619008" lon="14.81662304339814"><ele>770.0</ele><time>2026-04-18T16:19:57.998Z</time></trkpt><trkpt lat="37.13115760580353" lon="14.816733997469187"><ele>772.0</ele><time>2026-04-18T16:19:58.998Z</time></trkpt><trkpt lat="37.13124641351916" lon="14.81685679320744"><ele>774.0</ele><time>2026-04-18T16:19:59.998Z</time></trkpt><trkpt lat="37.131352570936826" lon="14.816981150235383"><ele>776.0</ele><time>2026-04-18T16:20:00.998Z</time></trkpt><trkpt lat="37.13143720272511" lon="14.817129133584544"><ele>776.0</ele><time>2026-04-18T16:20:01.998Z</time></trkpt><trkpt lat="37.13153962063445" lon="14.817269218168015"><ele>776.0</ele><time>2026-04-18T16:20:02.998Z</time></trkpt><trkpt lat="37.1316480195957" lon="14.817400566153415"><ele>776.0</ele><time>2026-04-18T16:20:03.998Z</time></trkpt><trkpt lat="37.13176240143324" lon="14.81750010730586"><ele>776.0</ele><time>2026-04-18T16:20:04.998Z</time></trkpt><trkpt lat="37.131891608872635" lon="14.81755987079273"><ele>776.6666666666667</ele><time>2026-04-18T16:20:05.998Z</time></trkpt><trkpt lat="37.13204454841697" lon="14.81760944817119"><ele>777.3333333333333</ele><time>2026-04-18T16:20:06.998Z</time></trkpt><trkpt lat="37.13219161596509" lon="14.817653173959425"><ele>778.0</ele><time>2026-04-18T16:20:07.998Z</time></trkpt><trkpt lat="37.13234966714069" lon="14.81769736260148"><ele>774.0</ele><time>2026-04-18T16:20:08.998Z</time></trkpt><trkpt lat="37.132498642504906" lon="14.817743134771064"><ele>770.0</ele><time>2026-04-18T16:20:10Z</time></trkpt><trkpt lat="37.132646106961104" lon="14.817797777221005"><ele>766.0</ele><time>2026-04-18T16:20:11Z</time></trkpt><trkpt lat="37.13278323897819" lon="14.817865710326606"><ele>766.0</ele><time>2026-04-18T16:20:12Z</time></trkpt><trkpt lat="37.13292845698098" lon="14.817943920590169"><ele>766.0</ele><time>2026-04-18T16:20:13Z</time></trkpt><trkpt lat="37.13306289126923" lon="14.818011602740615"><ele>766.0</ele><time>2026-04-18T16:20:14Z</time></trkpt><trkpt lat="37.13320736730243" lon="14.818082419700346"><ele>761.6666666666667</ele><time>2026-04-18T16:20:15Z</time></trkpt><trkpt lat="37.13334601223016" lon="14.818154495950985"><ele>757.3333333333334</ele><time>2026-04-18T16:20:16Z</time></trkpt><trkpt lat="37.13348413450293" lon="14.818226054113953"><ele>753.0</ele><time>2026-04-18T16:20:17Z</time></trkpt><trkpt lat="37.1336220302019" lon="14.818307520845394"><ele>753.0</ele><time>2026-04-18T16:20:18Z</time></trkpt><trkpt lat="37.133721015358844" lon="14.818431733263184"><ele>753.0</ele><time>2026-04-18T16:20:19Z</time></trkpt><trkpt lat="37.13378801696648" lon="14.818572810920497"><ele>753.0</ele><time>2026-04-18T16:20:20Z</time></trkpt><trkpt lat="37.13384699123531" lon="14.818751595544216"><ele>753.0</ele><time>2026-04-18T16:20:21Z</time></trkpt><trkpt lat="37.13390668151857" lon="14.818940420558338"><ele>750.3333333333334</ele><time>2026-04-18T16:20:22Z</time></trkpt><trkpt lat="37.13397612863002" lon="14.819126552416401"><ele>747.6666666666667</ele><time>2026-04-18T16:20:23Z</time></trkpt><trkpt lat="37.13402184618048" lon="14.819311625299543"><ele>745.0</ele><time>2026-04-18T16:20:24Z</time></trkpt><trkpt lat="37.134057939688184" lon="14.819484710917664"><ele>745.0</ele><time>2026-04-18T16:20:25Z</time></trkpt><trkpt lat="37.134079756153156" lon="14.819670479518193"><ele>745.0</ele><time>2026-04-18T16:20:26Z</time></trkpt><trkpt lat="37.13408974617684" lon="14.81986365037635"><ele>745.0</ele><time>2026-04-18T16:20:27Z</time></trkpt><trkpt lat="37.13408142560257" lon="14.820053565622603"><ele>746.5</ele><time>2026-04-18T16:20:28Z</time></trkpt><trkpt lat="37.13410600993348" lon="14.820232642355492"><ele>748.0</ele><time>2026-04-18T16:20:29Z</time></trkpt><trkpt lat="37.13411973647351" lon="14.820391412984419"><ele>749.5</ele><time>2026-04-18T16:20:30Z</time></trkpt><trkpt lat="37.134167873146936" lon="14.82055040473063"><ele>751.0</ele><time>2026-04-18T16:20:31Z</time></trkpt><trkpt lat="37.13423605229281" lon="14.820694427662236"><ele>751.0</ele><time>2026-04-18T16:20:32Z</time></trkpt><trkpt lat="37.134325367592325" lon="14.820839212467641"><ele>751.0</ele><time>2026-04-18T16:20:33Z</time></trkpt><trkpt lat="37.134423192510525" lon="14.820999993462031"><ele>751.0</ele><time>2026-04-18T16:20:34Z</time></trkpt><trkpt lat="37.13451810195351" lon="14.821151221223682"><ele>753.6666666666667</ele><time>2026-04-18T16:20:35Z</time></trkpt><trkpt lat="37.13462401700374" lon="14.821316225866811"><ele>756.3333333333334</ele><time>2026-04-18T16:20:36Z</time></trkpt><trkpt lat="37.13471706849623" lon="14.821479582042718"><ele>759.0</ele><time>2026-04-18T16:20:37Z</time></trkpt><trkpt lat="37.13481155240601" lon="14.821644210017814"><ele>756.3333333333334</ele><time>2026-04-18T16:20:38Z</time></trkpt><trkpt lat="37.13490746690008" lon="14.821817391335038"><ele>753.6666666666667</ele><time>2026-04-18T16:20:39Z</time></trkpt><trkpt lat="37.13500050177912" lon="14.821998602643722"><ele>751.0</ele><time>2026-04-18T16:20:40Z</time></trkpt><trkpt lat="37.13509002827958" lon="14.822167941151788"><ele>751.0</ele><time>2026-04-18T16:20:41Z</time></trkpt><trkpt lat="37.13517107106637" lon="14.822322916737681"><ele>751.0</ele><time>2026-04-18T16:20:42Z</time></trkpt><trkpt lat="37.13524857147678" lon="14.822462866101493"><ele>751.0</ele><time>2026-04-18T16:20:43Z</time></trkpt><trkpt lat="37.135342030860144" lon="14.822578932655473"><ele>751.0</ele><time>2026-04-18T16:20:44Z</time></trkpt><trkpt lat="37.13544802574967" lon="14.822669282058024"><ele>752.75</ele><time>2026-04-18T16:20:45Z</time></trkpt><trkpt lat="37.13555464769991" lon="14.822728377732831"><ele>754.5</ele><time>2026-04-18T16:20:46Z</time></trkpt><trkpt lat="37.135676918097126" lon="14.822773709417424"><ele>756.25</ele><time>2026-04-18T16:20:47Z</time></trkpt><trkpt lat="37.135827029562684" lon="14.82278245250571"><ele>758.0</ele><time>2026-04-18T16:20:48Z</time></trkpt><trkpt lat="37.13597120236976" lon="14.822786919047438"><ele>758.0</ele><time>2026-04-18T16:20:49Z</time></trkpt><trkpt lat="37.136115737525934" lon="14.822796211342478"><ele>758.0</ele><time>2026-04-18T16:20:50Z</time></trkpt><trkpt lat="37.13626181684284" lon="14.82280502249359"><ele>758.0</ele><time>2026-04-18T16:20:51Z</time></trkpt><trkpt lat="37.136395048192234" lon="14.822817785830546"><ele>758.0</ele><time>2026-04-18T16:20:52Z</time></trkpt><trkpt lat="37.136534581520145" lon="14.822826887640177"><ele>757.75</ele><time>2026-04-18T16:20:53Z</time></trkpt><trkpt lat="37.136683332709076" lon="14.822842327968543"><ele>757.5</ele><time>2026-04-18T16:20:54Z</time></trkpt><trkpt lat="37.1368265060092" lon="14.822864297036192"><ele>757.25</ele><time>2026-04-18T16:20:55Z</time></trkpt><trkpt lat="37.13696991245763" lon="14.82289072634866"><ele>757.0</ele><time>2026-04-18T16:20:55.999Z</time></trkpt><trkpt lat="37.137110207092356" lon="14.822940387808435"><ele>757.0</ele><time>2026-04-18T16:20:56.999Z</time></trkpt><trkpt lat="37.1372496190319" lon="14.822995900335187"><ele>757.0</ele><time>2026-04-18T16:20:57.999Z</time></trkpt><trkpt lat="37.13739368231396" lon="14.82304565157656"><ele>757.0</ele><time>2026-04-18T16:20:58.999Z</time></trkpt><trkpt lat="37.13753702953517" lon="14.823077363901012"><ele>757.0</ele><time>2026-04-18T16:20:59.999Z</time></trkpt><trkpt lat="37.13768633537077" lon="14.823077215892049"><ele>755.0</ele><time>2026-04-18T16:21:00.999Z</time></trkpt><trkpt lat="37.13784194357142" lon="14.823058137576721"><ele>753.0</ele><time>2026-04-18T16:21:01.999Z</time></trkpt><trkpt lat="37.13798975120238" lon="14.82301265639838"><ele>751.0</ele><time>2026-04-18T16:21:02.999Z</time></trkpt><trkpt lat="37.13812517244807" lon="14.822937433467555"><ele>750.6666666666667</ele><time>2026-04-18T16:21:03.999Z</time></trkpt><trkpt lat="37.13825057227406" lon="14.822834812407137"><ele>750.3333333333334</ele><time>2026-04-18T16:21:04.999Z</time></trkpt><trkpt lat="37.13837301966461" lon="14.822697992994085"><ele>750.0</ele><time>2026-04-18T16:21:05.999Z</time></trkpt><trkpt lat="37.13849131518816" lon="14.82257044011163"><ele>746.5</ele><time>2026-04-18T16:21:06.999Z</time></trkpt><trkpt lat="37.1386015594595" lon="14.822471904306875"><ele>743.0</ele><time>2026-04-18T16:21:07.999Z</time></trkpt><trkpt lat="37.138723742461984" lon="14.82237744901578"><ele>739.5</ele><time>2026-04-18T16:21:08.999Z</time></trkpt><trkpt lat="37.13886082958641" lon="14.822297137206158"><ele>736.0</ele><time>2026-04-18T16:21:09.999Z</time></trkpt><trkpt lat="37.13900147229626" lon="14.822255574243067"><ele>736.75</ele><time>2026-04-18T16:21:10.999Z</time></trkpt><trkpt lat="37.1391403060339" lon="14.822244639981683"><ele>737.5</ele><time>2026-04-18T16:21:11.999Z</time></trkpt><trkpt lat="37.13929142306473" lon="14.822254408198845"><ele>738.25</ele><time>2026-04-18T16:21:12.999Z</time></trkpt><trkpt lat="37.13943952851535" lon="14.822276094016908"><ele>739.0</ele><time>2026-04-18T16:21:13.999Z</time></trkpt><trkpt lat="37.13957781098487" lon="14.822339702388694"><ele>739.0</ele><time>2026-04-18T16:21:14.999Z</time></trkpt><trkpt lat="37.139713409128994" lon="14.822412511790759"><ele>739.0</ele><time>2026-04-18T16:21:15.999Z</time></trkpt><trkpt lat="37.139817404235416" lon="14.822532251466571"><ele>739.0</ele><time>2026-04-18T16:21:16.999Z</time></trkpt><trkpt lat="37.139935768498475" lon="14.822664349567622"><ele>739.0</ele><time>2026-04-18T16:21:17.999Z</time></trkpt><trkpt lat="37.14007867846263" lon="14.822821685525376"><ele>739.3333333333334</ele><time>2026-04-18T16:21:18.999Z</time></trkpt><trkpt lat="37.14023678977686" lon="14.822984989893676"><ele>739.6666666666666</ele><time>2026-04-18T16:21:19.999Z</time></trkpt><trkpt lat="37.14038951397575" lon="14.823162968074369"><ele>740.0</ele><time>2026-04-18T16:21:20.999Z</time></trkpt><trkpt lat="37.140571075682395" lon="14.82336167507703"><ele>739.5</ele><time>2026-04-18T16:21:21.999Z</time></trkpt><trkpt lat="37.1407616094877" lon="14.823565958657523"><ele>739.0</ele><time>2026-04-18T16:21:22.999Z</time></trkpt><trkpt lat="37.14097121224106" lon="14.823765545695663"><ele>739.0</ele><time>2026-04-18T16:21:23.999Z</time></trkpt><trkpt lat="37.141179124973334" lon="14.823945051023674"><ele>739.0</ele><time>2026-04-18T16:21:24.999Z</time></trkpt><trkpt lat="37.141365992435816" lon="14.82410012433759"><ele>739.0</ele><time>2026-04-18T16:21:25.999Z</time></trkpt><trkpt lat="37.14153459277527" lon="14.824246762262309"><ele>739.0</ele><time>2026-04-18T16:21:26.999Z</time></trkpt><trkpt lat="37.14165752375971" lon="14.824430005871607"><ele>739.0</ele><time>2026-04-18T16:21:27.999Z</time></trkpt><trkpt lat="37.14177918959337" lon="14.824592239410391"><ele>739.0</ele><time>2026-04-18T16:21:28.999Z</time></trkpt><trkpt lat="37.14190499620143" lon="14.824775048899907"><ele>739.0</ele><time>2026-04-18T16:21:29.999Z</time></trkpt><trkpt lat="37.14202977491275" lon="14.824948468021908"><ele>739.0</ele><time>2026-04-18T16:21:30.999Z</time></trkpt><trkpt lat="37.14216510636399" lon="14.825132986605004"><ele>739.6666666666667</ele><time>2026-04-18T16:21:31.999Z</time></trkpt><trkpt lat="37.142292429220326" lon="14.825315014558816"><ele>740.3333333333334</ele><time>2026-04-18T16:21:32.999Z</time></trkpt><trkpt lat="37.142450865188316" lon="14.825442125471357"><ele>741.0</ele><time>2026-04-18T16:21:33.999Z</time></trkpt><trkpt lat="37.14258829583872" lon="14.82554847191827"><ele>741.0</ele><time>2026-04-18T16:21:34.999Z</time></trkpt><trkpt lat="37.14271508368686" lon="14.825642309307693"><ele>741.0</ele><time>2026-04-18T16:21:35.999Z</time></trkpt><trkpt lat="37.14282649474245" lon="14.825749451301416"><ele>741.0</ele><time>2026-04-18T16:21:36.999Z</time></trkpt><trkpt lat="37.14292358912946" lon="14.82589488831214"><ele>741.0</ele><time>2026-04-18T16:21:37.999Z</time></trkpt><trkpt lat="37.14298668311417" lon="14.826074601678693"><ele>745.0</ele><time>2026-04-18T16:21:38.999Z</time></trkpt><trkpt lat="37.14303246212317" lon="14.82625716410105"><ele>749.0</ele><time>2026-04-18T16:21:39.999Z</time></trkpt><trkpt lat="37.14308442140325" lon="14.826460704762042"><ele>753.0</ele><time>2026-04-18T16:21:40.999Z</time></trkpt><trkpt lat="37.14311419350173" lon="14.826677772180183"><ele>755.0</ele><time>2026-04-18T16:21:41.999Z</time></trkpt><trkpt lat="37.14315232680662" lon="14.826889524226248"><ele>757.0</ele><time>2026-04-18T16:21:42.999Z</time></trkpt><trkpt lat="37.143199764082496" lon="14.82710132510053"><ele>759.0</ele><time>2026-04-18T16:21:43.999Z</time></trkpt><trkpt lat="37.143258010704564" lon="14.827318235996456"><ele>757.6666666666666</ele><time>2026-04-18T16:21:44.999Z</time></trkpt><trkpt lat="37.1433202157264" lon="14.82753761538451"><ele>756.3333333333333</ele><time>2026-04-18T16:21:45.999Z</time></trkpt><trkpt lat="37.143388760528254" lon="14.827762169262598"><ele>755.0</ele><time>2026-04-18T16:21:46.999Z</time></trkpt><trkpt lat="37.14346811132266" lon="14.828009235288748"><ele>755.0</ele><time>2026-04-18T16:21:47.999Z</time></trkpt><trkpt lat="37.14353859471519" lon="14.828246801197928"><ele>755.0</ele><time>2026-04-18T16:21:48.999Z</time></trkpt><trkpt lat="37.14360500215754" lon="14.82846862663964"><ele>755.0</ele><time>2026-04-18T16:21:49.999Z</time></trkpt><trkpt lat="37.14366749973365" lon="14.828684710963184"><ele>757.6666666666666</ele><time>2026-04-18T16:21:50.999Z</time></trkpt><trkpt lat="37.14373247003438" lon="14.828894717799505"><ele>760.3333333333334</ele><time>2026-04-18T16:21:51.999Z</time></trkpt><trkpt lat="37.14379703619286" lon="14.82910307524282"><ele>763.0</ele><time>2026-04-18T16:21:52.999Z</time></trkpt><trkpt lat="37.1438603444762" lon="14.829307058795624"><ele>765.3333333333334</ele><time>2026-04-18T16:21:53.999Z</time></trkpt><trkpt lat="37.14392141717403" lon="14.829503704031504"><ele>767.6666666666667</ele><time>2026-04-18T16:21:54.999Z</time></trkpt><trkpt lat="37.14396455557704" lon="14.829701481945737"><ele>770.0</ele><time>2026-04-18T16:21:55.999Z</time></trkpt><trkpt lat="37.14403345116093" lon="14.82988261169497"><ele>769.3333333333334</ele><time>2026-04-18T16:21:56.999Z</time></trkpt><trkpt lat="37.14408852300617" lon="14.830064923493788"><ele>768.6666666666667</ele><time>2026-04-18T16:21:57.998Z</time></trkpt><trkpt lat="37.14415781843211" lon="14.83023478488238"><ele>768.0</ele><time>2026-04-18T16:21:58.998Z</time></trkpt><trkpt lat="37.14424918954479" lon="14.83039186590139"><ele>768.0</ele><time>2026-04-18T16:21:59.998Z</time></trkpt><trkpt lat="37.14435222680999" lon="14.830542303356522"><ele>768.0</ele><time>2026-04-18T16:22:00.998Z</time></trkpt><trkpt lat="37.14445595400686" lon="14.83069191013887"><ele>768.0</ele><time>2026-04-18T16:22:01.998Z</time></trkpt><trkpt lat="37.144537142870206" lon="14.830843370157249"><ele>770.6666666666667</ele><time>2026-04-18T16:22:02.998Z</time></trkpt><trkpt lat="37.14463402839212" lon="14.830989582777402"><ele>773.3333333333334</ele><time>2026-04-18T16:22:03.998Z</time></trkpt><trkpt lat="37.14473269905593" lon="14.831138489459585"><ele>776.0</ele><time>2026-04-18T16:22:04.998Z</time></trkpt><trkpt lat="37.1448306824239" lon="14.8312863586359"><ele>774.5</ele><time>2026-04-18T16:22:05.998Z</time></trkpt><trkpt lat="37.14492772802997" lon="14.831431741703529"><ele>773.0</ele><time>2026-04-18T16:22:06.998Z</time></trkpt><trkpt lat="37.14500911764179" lon="14.831553081972713"><ele>771.5</ele><time>2026-04-18T16:22:07.998Z</time></trkpt><trkpt lat="37.1450729259065" lon="14.831657009503086"><ele>770.0</ele><time>2026-04-18T16:22:08.998Z</time></trkpt><trkpt lat="37.145131033004944" lon="14.831763517021738"><ele>771.2</ele><time>2026-04-18T16:22:09.998Z</time></trkpt><trkpt lat="37.14518538820441" lon="14.83185340482738"><ele>772.4</ele><time>2026-04-18T16:22:10.998Z</time></trkpt><trkpt lat="37.14519515054389" lon="14.831958399733898"><ele>773.5999999999999</ele><time>2026-04-18T16:22:11.998Z</time></trkpt><trkpt lat="37.145210578414535" lon="14.832044967239252"><ele>774.8</ele><time>2026-04-18T16:22:12.998Z</time></trkpt><trkpt lat="37.145143803588006" lon="14.832126781410649"><ele>776.0</ele><time>2026-04-18T16:22:13.998Z</time></trkpt><trkpt lat="37.145038937692654" lon="14.832224250914026"><ele>776.0</ele><time>2026-04-18T16:22:16Z</time></trkpt><trkpt lat="37.14497227124402" lon="14.832228677813736"><ele>776.0</ele><time>2026-04-18T16:22:17Z</time></trkpt><trkpt lat="37.1448965962842" lon="14.83224670797839"><ele>776.0</ele><time>2026-04-18T16:22:18Z</time></trkpt><trkpt lat="37.144788208801415" lon="14.83226250415763"><ele>776.0</ele><time>2026-04-18T16:22:19Z</time></trkpt><trkpt lat="37.14467594422201" lon="14.832279312190243"><ele>776.0</ele><time>2026-04-18T16:22:20Z</time></trkpt><trkpt lat="37.14453288033069" lon="14.832248527015343"><ele>777.5</ele><time>2026-04-18T16:22:21Z</time></trkpt><trkpt lat="37.14438526688581" lon="14.832201184842681"><ele>779.0</ele><time>2026-04-18T16:22:22Z</time></trkpt><trkpt lat="37.144248095844354" lon="14.832153755641349"><ele>780.5</ele><time>2026-04-18T16:22:23Z</time></trkpt><trkpt lat="37.14411919869687" lon="14.83211841356713"><ele>782.0</ele><time>2026-04-18T16:22:24Z</time></trkpt><trkpt lat="37.14400608869551" lon="14.832090532286834"><ele>783.5</ele><time>2026-04-18T16:22:25Z</time></trkpt><trkpt lat="37.14391192200489" lon="14.832162448900213"><ele>785.0</ele><time>2026-04-18T16:22:26Z</time></trkpt><trkpt lat="37.14384727934091" lon="14.832263684720681"><ele>786.5</ele><time>2026-04-18T16:22:27Z</time></trkpt><trkpt lat="37.143787395355716" lon="14.832401460313928"><ele>788.0</ele><time>2026-04-18T16:22:28Z</time></trkpt><trkpt lat="37.143709335083855" lon="14.832553379355799"><ele>787.3333333333334</ele><time>2026-04-18T16:22:29Z</time></trkpt><trkpt lat="37.14361323068363" lon="14.832702580167757"><ele>786.6666666666667</ele><time>2026-04-18T16:22:30Z</time></trkpt><trkpt lat="37.14350421928477" lon="14.832847053237506"><ele>786.0</ele><time>2026-04-18T16:22:31Z</time></trkpt><trkpt lat="37.1433893465162" lon="14.832980295462342"><ele>786.0</ele><time>2026-04-18T16:22:32Z</time></trkpt><trkpt lat="37.143283786713006" lon="14.833127743222734"><ele>786.0</ele><time>2026-04-18T16:22:33Z</time></trkpt><trkpt lat="37.14319809567136" lon="14.833292586022122"><ele>786.0</ele><time>2026-04-18T16:22:34Z</time></trkpt><trkpt lat="37.14311613584645" lon="14.83345268458367"><ele>788.25</ele><time>2026-04-18T16:22:35Z</time></trkpt><trkpt lat="37.14306200058053" lon="14.833615139135823"><ele>790.5</ele><time>2026-04-18T16:22:36Z</time></trkpt><trkpt lat="37.143013359785904" lon="14.83375801560102"><ele>792.75</ele><time>2026-04-18T16:22:37Z</time></trkpt><trkpt lat="37.142975147572464" lon="14.833882315617325"><ele>795.0</ele><time>2026-04-18T16:22:38Z</time></trkpt><trkpt lat="37.14293553243435" lon="14.834005674719739"><ele>795.0</ele><time>2026-04-18T16:22:39Z</time></trkpt><trkpt lat="37.14289500106535" lon="14.834128018703234"><ele>795.0</ele><time>2026-04-18T16:22:40Z</time></trkpt><trkpt lat="37.14286195372469" lon="14.834226876566387"><ele>795.0</ele><time>2026-04-18T16:22:41Z</time></trkpt><trkpt lat="37.142810414342094" lon="14.834294451937872"><ele>795.0</ele><time>2026-04-18T16:22:42Z</time></trkpt><trkpt lat="37.14278296537004" lon="14.834392882117111"><ele>795.0</ele><time>2026-04-18T16:22:44Z</time></trkpt><trkpt lat="37.14253627709191" lon="14.834277524067613"><ele>795.0</ele><time>2026-04-18T16:22:46Z</time></trkpt><trkpt lat="37.142487221827565" lon="14.834193816128769"><ele>795.0</ele><time>2026-04-18T16:22:47Z</time></trkpt><trkpt lat="37.14246281204347" lon="14.834072490393073"><ele>795.0</ele><time>2026-04-18T16:22:48Z</time></trkpt><trkpt lat="37.14245628837048" lon="14.833926647695472"><ele>795.0</ele><time>2026-04-18T16:22:49Z</time></trkpt><trkpt lat="37.14246520680615" lon="14.833772812845268"><ele>795.0</ele><time>2026-04-18T16:22:50Z</time></trkpt><trkpt lat="37.14246701659543" lon="14.833611743729138"><ele>795.5</ele><time>2026-04-18T16:22:51Z</time></trkpt><trkpt lat="37.14245836826984" lon="14.833446020291184"><ele>796.0</ele><time>2026-04-18T16:22:52Z</time></trkpt><trkpt lat="37.14245250740854" lon="14.833285950215917"><ele>796.5</ele><time>2026-04-18T16:22:53Z</time></trkpt><trkpt lat="37.14244756165362" lon="14.833137520674052"><ele>797.0</ele><time>2026-04-18T16:22:54Z</time></trkpt><trkpt lat="37.142438054642085" lon="14.832989507767572"><ele>797.0</ele><time>2026-04-18T16:22:55Z</time></trkpt><trkpt lat="37.142418714030995" lon="14.832829308966431"><ele>797.0</ele><time>2026-04-18T16:22:56Z</time></trkpt><trkpt lat="37.14239494566346" lon="14.832661030347975"><ele>797.0</ele><time>2026-04-18T16:22:57Z</time></trkpt><trkpt lat="37.14237357308055" lon="14.832499533649475"><ele>797.0</ele><time>2026-04-18T16:22:58Z</time></trkpt><trkpt lat="37.14234755081701" lon="14.832355599468464"><ele>797.25</ele><time>2026-04-18T16:22:59Z</time></trkpt><trkpt lat="37.14231260984709" lon="14.832251908018272"><ele>797.5</ele><time>2026-04-18T16:23:00Z</time></trkpt><trkpt lat="37.142261828878866" lon="14.83218785390061"><ele>797.75</ele><time>2026-04-18T16:23:00.999Z</time></trkpt><trkpt lat="37.14240107483074" lon="14.83196060424588"><ele>798.0</ele><time>2026-04-18T16:23:01.999Z</time></trkpt><trkpt lat="37.142312442246265" lon="14.831825779492005"><ele>800.5999999999999</ele><time>2026-04-18T16:23:03.999Z</time></trkpt><trkpt lat="37.142253635513015" lon="14.831749881159551"><ele>803.1999999999999</ele><time>2026-04-18T16:23:04.999Z</time></trkpt><trkpt lat="37.14218168623291" lon="14.831657670534746"><ele>805.8</ele><time>2026-04-18T16:23:05.999Z</time></trkpt><trkpt lat="37.142096143712656" lon="14.831550249637436"><ele>808.4</ele><time>2026-04-18T16:23:06.999Z</time></trkpt><trkpt lat="37.142003798758324" lon="14.831439976700974"><ele>811.0</ele><time>2026-04-18T16:23:07.999Z</time></trkpt><trkpt lat="37.14140335760389" lon="14.83177296600371"><ele>813.25</ele><time>2026-04-18T16:23:08.999Z</time></trkpt><trkpt lat="37.141276971921734" lon="14.831696147479136"><ele>815.5</ele><time>2026-04-18T16:23:09.999Z</time></trkpt><trkpt lat="37.14116137299551" lon="14.831619252382747"><ele>817.75</ele><time>2026-04-18T16:23:10.999Z</time></trkpt><trkpt lat="37.141051773403966" lon="14.831532332207631"><ele>820.0</ele><time>2026-04-18T16:23:11.999Z</time></trkpt><trkpt lat="37.14091433287635" lon="14.831417807820946"><ele>820.0</ele><time>2026-04-18T16:23:12.999Z</time></trkpt><trkpt lat="37.14074918054479" lon="14.83130482122841"><ele>820.0</ele><time>2026-04-18T16:23:13.999Z</time></trkpt><trkpt lat="37.14058705251485" lon="14.831185029040237"><ele>820.0</ele><time>2026-04-18T16:23:14.999Z</time></trkpt><trkpt lat="37.140418662879796" lon="14.831066622415573"><ele>823.6666666666666</ele><time>2026-04-18T16:23:15.999Z</time></trkpt><trkpt lat="37.14026153809382" lon="14.830932711154443"><ele>827.3333333333333</ele><time>2026-04-18T16:23:16.999Z</time></trkpt><trkpt lat="37.14010803168182" lon="14.830793494538543"><ele>831.0</ele><time>2026-04-18T16:23:17.999Z</time></trkpt><trkpt lat="37.13995998687974" lon="14.83066549552232"><ele>829.75</ele><time>2026-04-18T16:23:18.999Z</time></trkpt><trkpt lat="37.13983831106464" lon="14.830552497398871"><ele>828.5</ele><time>2026-04-18T16:23:19.999Z</time></trkpt><trkpt lat="37.139742419303765" lon="14.830464085465398"><ele>827.25</ele><time>2026-04-18T16:23:20.999Z</time></trkpt><trkpt lat="37.13966560166429" lon="14.830383739585042"><ele>826.0</ele><time>2026-04-18T16:23:21.999Z</time></trkpt><trkpt lat="37.1396095361786" lon="14.830300452062763"><ele>826.0</ele><time>2026-04-18T16:23:22.999Z</time></trkpt><trkpt lat="37.1395650302726" lon="14.83020667351389"><ele>826.0</ele><time>2026-04-18T16:23:23.999Z</time></trkpt><trkpt lat="37.139518778056896" lon="14.830103184632417"><ele>826.0</ele><time>2026-04-18T16:23:24.999Z</time></trkpt><trkpt lat="37.13945153747768" lon="14.830014226268354"><ele>826.0</ele><time>2026-04-18T16:23:25.999Z</time></trkpt><trkpt lat="37.139371281831934" lon="14.829947120908665"><ele>826.0</ele><time>2026-04-18T16:23:26.999Z</time></trkpt><trkpt lat="37.139285413551995" lon="14.829892369939818"><ele>828.25</ele><time>2026-04-18T16:23:27.999Z</time></trkpt><trkpt lat="37.139171174816575" lon="14.829834704395822"><ele>830.5</ele><time>2026-04-18T16:23:28.999Z</time></trkpt><trkpt lat="37.13904185102999" lon="14.82973560536649"><ele>832.75</ele><time>2026-04-18T16:23:29.999Z</time></trkpt><trkpt lat="37.13890895439576" lon="14.829603292530535"><ele>835.0</ele><time>2026-04-18T16:23:30.999Z</time></trkpt><trkpt lat="37.1387833136263" lon="14.82947036486471"><ele>835.0</ele><time>2026-04-18T16:23:31.999Z</time></trkpt><trkpt lat="37.13865161976604" lon="14.829340989053328"><ele>835.0</ele><time>2026-04-18T16:23:32.999Z</time></trkpt><trkpt lat="37.138519614886675" lon="14.829217738847378"><ele>835.0</ele><time>2026-04-18T16:23:33.999Z</time></trkpt><trkpt lat="37.138412150700695" lon="14.829122235160375"><ele>839.25</ele><time>2026-04-18T16:23:34.999Z</time></trkpt><trkpt lat="37.13830047623199" lon="14.829014291971921"><ele>843.5</ele><time>2026-04-18T16:23:35.999Z</time></trkpt><trkpt lat="37.13817656196086" lon="14.828914708333983"><ele>847.75</ele><time>2026-04-18T16:23:36.999Z</time></trkpt><trkpt lat="37.138047482355304" lon="14.828823169000442"><ele>852.0</ele><time>2026-04-18T16:23:37.999Z</time></trkpt><trkpt lat="37.1379318772587" lon="14.828752626941666"><ele>852.0</ele><time>2026-04-18T16:23:38.999Z</time></trkpt><trkpt lat="37.13782051733835" lon="14.828718311135216"><ele>852.0</ele><time>2026-04-18T16:23:39.999Z</time></trkpt><trkpt lat="37.137713909341755" lon="14.82871233082085"><ele>852.0</ele><time>2026-04-18T16:23:40.999Z</time></trkpt><trkpt lat="37.13761504965985" lon="14.828741621956121"><ele>852.0</ele><time>2026-04-18T16:23:41.999Z</time></trkpt><trkpt lat="37.13751091501177" lon="14.828785971018082"><ele>852.0</ele><time>2026-04-18T16:23:42.999Z</time></trkpt><trkpt lat="37.13740615121272" lon="14.828826534296217"><ele>851.5</ele><time>2026-04-18T16:23:43.999Z</time></trkpt><trkpt lat="37.13728982779533" lon="14.828854911359574"><ele>851.0</ele><time>2026-04-18T16:23:44.999Z</time></trkpt><trkpt lat="37.13717338588178" lon="14.82887092929274"><ele>850.5</ele><time>2026-04-18T16:23:45.999Z</time></trkpt><trkpt lat="37.13706998221701" lon="14.82889788256055"><ele>850.0</ele><time>2026-04-18T16:23:46.999Z</time></trkpt><trkpt lat="37.13695476017322" lon="14.8289257490582"><ele>850.0</ele><time>2026-04-18T16:23:47.999Z</time></trkpt><trkpt lat="37.136824308985894" lon="14.82894952536472"><ele>850.0</ele><time>2026-04-18T16:23:48.999Z</time></trkpt><trkpt lat="37.13668898854872" lon="14.82896283369222"><ele>850.0</ele><time>2026-04-18T16:23:49.999Z</time></trkpt><trkpt lat="37.13654330664633" lon="14.828972343114124"><ele>850.0</ele><time>2026-04-18T16:23:50.999Z</time></trkpt><trkpt lat="37.13638695451227" lon="14.82897675786272"><ele>849.6666666666666</ele><time>2026-04-18T16:23:51.999Z</time></trkpt><trkpt lat="37.13622952195191" lon="14.828973459418384"><ele>849.3333333333333</ele><time>2026-04-18T16:23:52.999Z</time></trkpt><trkpt lat="37.13607203088364" lon="14.828967302493004"><ele>849.0</ele><time>2026-04-18T16:23:53.999Z</time></trkpt><trkpt lat="37.13592457227342" lon="14.828951713151037"><ele>849.0</ele><time>2026-04-18T16:23:54.999Z</time></trkpt><trkpt lat="37.13576491365436" lon="14.82893355518316"><ele>849.0</ele><time>2026-04-18T16:23:55.999Z</time></trkpt><trkpt lat="37.13561591850185" lon="14.828913353417954"><ele>849.0</ele><time>2026-04-18T16:23:56.999Z</time></trkpt><trkpt lat="37.1355012035127" lon="14.828868880634921"><ele>849.0</ele><time>2026-04-18T16:23:57.999Z</time></trkpt><trkpt lat="37.135388785502876" lon="14.828810587641616"><ele>848.25</ele><time>2026-04-18T16:23:58.999Z</time></trkpt><trkpt lat="37.13526104604461" lon="14.828740274114164"><ele>847.5</ele><time>2026-04-18T16:23:59.999Z</time></trkpt><trkpt lat="37.1351267082706" lon="14.828653690584218"><ele>846.75</ele><time>2026-04-18T16:24:00.999Z</time></trkpt><trkpt lat="37.135001088305984" lon="14.828568229244352"><ele>846.0</ele><time>2026-04-18T16:24:01.999Z</time></trkpt><trkpt lat="37.13488737423241" lon="14.828492694249931"><ele>848.3333333333334</ele><time>2026-04-18T16:24:02.998Z</time></trkpt><trkpt lat="37.134798173779735" lon="14.828412068924496"><ele>850.6666666666667</ele><time>2026-04-18T16:24:03.998Z</time></trkpt><trkpt lat="37.13472865044586" lon="14.828333202085652"><ele>853.0</ele><time>2026-04-18T16:24:04.998Z</time></trkpt><trkpt lat="37.134691474652655" lon="14.828262965570147"><ele>855.3333333333334</ele><time>2026-04-18T16:24:05.998Z</time></trkpt><trkpt lat="37.13466569639356" lon="14.828176449883207"><ele>857.6666666666667</ele><time>2026-04-18T16:24:07.998Z</time></trkpt><trkpt lat="37.134629526053516" lon="14.82810986768357"><ele>860.0</ele><time>2026-04-18T16:24:14.998Z</time></trkpt><trkpt lat="37.13454915644395" lon="14.828023855984846"><ele>860.0</ele><time>2026-04-18T16:24:41Z</time></trkpt><trkpt lat="37.13449580993711" lon="14.827980133031954"><ele>860.0</ele><time>2026-04-18T16:24:42Z</time></trkpt><trkpt lat="37.134358533830124" lon="14.827906341061507"><ele>860.0</ele><time>2026-04-18T16:24:44Z</time></trkpt><trkpt lat="37.134271757458315" lon="14.82787360552719"><ele>860.0</ele><time>2026-04-18T16:24:45Z</time></trkpt><trkpt lat="37.13417834096091" lon="14.82785926268661"><ele>860.0</ele><time>2026-04-18T16:24:46Z</time></trkpt><trkpt lat="37.13407691255632" lon="14.82783600312196"><ele>861.2</ele><time>2026-04-18T16:24:47Z</time></trkpt><trkpt lat="37.133988055464286" lon="14.827798260764164"><ele>862.4</ele><time>2026-04-18T16:24:48Z</time></trkpt><trkpt lat="37.13390490189092" lon="14.827740003515407"><ele>863.5999999999999</ele><time>2026-04-18T16:24:49Z</time></trkpt><trkpt lat="37.133807220777605" lon="14.827671489370648"><ele>864.8</ele><time>2026-04-18T16:24:50Z</time></trkpt><trkpt lat="37.13370590073433" lon="14.827622983024854"><ele>866.0</ele><time>2026-04-18T16:24:51Z</time></trkpt><trkpt lat="37.13361233363803" lon="14.827594796247338"><ele>868.8</ele><time>2026-04-18T16:24:52Z</time></trkpt><trkpt lat="37.133519804363544" lon="14.827590427568701"><ele>871.5999999999999</ele><time>2026-04-18T16:24:53Z</time></trkpt><trkpt lat="37.13342593873655" lon="14.82759779003968"><ele>874.4</ele><time>2026-04-18T16:24:54Z</time></trkpt><trkpt lat="37.133329278511226" lon="14.827592681899969"><ele>877.2</ele><time>2026-04-18T16:24:55Z</time></trkpt><trkpt lat="37.13324149413844" lon="14.827589544336718"><ele>880.0</ele><time>2026-04-18T16:24:56Z</time></trkpt><trkpt lat="37.13316322895331" lon="14.827578828786805"><ele>882.8</ele><time>2026-04-18T16:24:57Z</time></trkpt><trkpt lat="37.1330597977019" lon="14.827496805503968"><ele>885.6</ele><time>2026-04-18T16:24:59Z</time></trkpt><trkpt lat="37.13302161306808" lon="14.827371409061149"><ele>888.4000000000001</ele><time>2026-04-18T16:25:01Z</time></trkpt><trkpt lat="37.13309040177059" lon="14.827298983709339"><ele>891.2</ele><time>2026-04-18T16:25:03Z</time></trkpt><trkpt lat="37.1331468647677" lon="14.827261534906153"><ele>894.0</ele><time>2026-04-18T16:25:48.999Z</time></trkpt><trkpt lat="37.1330857733381" lon="14.827214175649722"><ele>893.9999999999999</ele><time>2026-04-18T16:27:06Z</time></trkpt><trkpt lat="37.1330418292747" lon="14.82715512467687"><ele>894.0</ele><time>2026-04-18T16:27:20.999Z</time></trkpt><trkpt lat="37.133071121744806" lon="14.827230611057184"><ele>894.0</ele><time>2026-04-18T16:28:00.999Z</time></trkpt><trkpt lat="37.13312275678204" lon="14.827276369838971"><ele>894.0</ele><time>2026-04-18T16:28:08.999Z</time></trkpt><trkpt lat="37.13309922371132" lon="14.827195585170806"><ele>894.0</ele><time>2026-04-18T16:38:19.999Z</time></trkpt><trkpt lat="37.13318267106836" lon="14.827263774932057"><ele>893.9999999999999</ele><time>2026-04-18T16:44:22.999Z</time></trkpt><trkpt lat="37.13311841204581" lon="14.827266376355938"><ele>894.0</ele><time>2026-04-18T16:54:08Z</time></trkpt><trkpt lat="37.13314763780801" lon="14.827343880291101"><ele>894.0</ele><time>2026-04-18T16:56:00Z</time></trkpt><trkpt lat="37.133084801055155" lon="14.82740625575397"><ele>894.0</ele><time>2026-04-18T16:56:03Z</time></trkpt><trkpt lat="37.133046087636245" lon="14.827479138721262"><ele>894.0</ele><time>2026-04-18T16:56:05Z</time></trkpt><trkpt lat="37.13310450004978" lon="14.82755959789996"><ele>894.0</ele><time>2026-04-18T16:56:07Z</time></trkpt><trkpt lat="37.133207482937294" lon="14.827608216186597"><ele>894.0</ele><time>2026-04-18T16:56:09Z</time></trkpt><trkpt lat="37.133281544499106" lon="14.827623046194889"><ele>894.0</ele><time>2026-04-18T16:56:10Z</time></trkpt><trkpt lat="37.13336414664479" lon="14.827624392280898"><ele>891.6666666666666</ele><time>2026-04-18T16:56:11Z</time></trkpt><trkpt lat="37.1334388372345" lon="14.8276352803963"><ele>889.3333333333333</ele><time>2026-04-18T16:56:12Z</time></trkpt><trkpt lat="37.13352194378226" lon="14.827640779763513"><ele>887.0</ele><time>2026-04-18T16:56:13Z</time></trkpt><trkpt lat="37.13360608145136" lon="14.827643137321488"><ele>884.6666666666666</ele><time>2026-04-18T16:56:14Z</time></trkpt><trkpt lat="37.13368651613814" lon="14.827657530371145"><ele>882.3333333333333</ele><time>2026-04-18T16:56:15Z</time></trkpt><trkpt lat="37.13377234376582" lon="14.827680958912516"><ele>880.0</ele><time>2026-04-18T16:56:16Z</time></trkpt><trkpt lat="37.133849717833655" lon="14.827716814996068"><ele>877.2</ele><time>2026-04-18T16:56:17Z</time></trkpt><trkpt lat="37.13393115004258" lon="14.82776223442598"><ele>874.4</ele><time>2026-04-18T16:56:18Z</time></trkpt><trkpt lat="37.13401565586336" lon="14.82781295798333"><ele>871.5999999999999</ele><time>2026-04-18T16:56:19Z</time></trkpt><trkpt lat="37.134098179823695" lon="14.827856466174469"><ele>868.8</ele><time>2026-04-18T16:56:20Z</time></trkpt><trkpt lat="37.13420785055678" lon="14.827882878916446"><ele>866.0</ele><time>2026-04-18T16:56:21Z</time></trkpt><trkpt lat="37.134309708369145" lon="14.827905084556145"><ele>865.0000000000001</ele><time>2026-04-18T16:56:22Z</time></trkpt><trkpt lat="37.13439019936608" lon="14.827926267254643"><ele>864.0</ele><time>2026-04-18T16:56:23Z</time></trkpt><trkpt lat="37.134457062159605" lon="14.827958400634348"><ele>863.0</ele><time>2026-04-18T16:56:24Z</time></trkpt><trkpt lat="37.1345217849979" lon="14.827998543465112"><ele>862.0</ele><time>2026-04-18T16:56:25Z</time></trkpt><trkpt lat="37.134617018429154" lon="14.82808254854374"><ele>861.0000000000001</ele><time>2026-04-18T16:56:27Z</time></trkpt><trkpt lat="37.1346756326007" lon="14.828139220093453"><ele>860.0</ele><time>2026-04-18T16:56:29Z</time></trkpt><trkpt lat="37.13469322373466" lon="14.828218198619055"><ele>860.0000000000001</ele><time>2026-04-18T16:56:33Z</time></trkpt><trkpt lat="37.134765926602455" lon="14.828330653730843"><ele>860.0</ele><time>2026-04-18T16:57:00.999Z</time></trkpt><trkpt lat="37.13483883064385" lon="14.828418291320753"><ele>860.0</ele><time>2026-04-18T16:57:02.999Z</time></trkpt><trkpt lat="37.13489155591341" lon="14.828466559357892"><ele>860.0</ele><time>2026-04-18T16:57:03.999Z</time></trkpt><trkpt lat="37.13495366606932" lon="14.828514231978605"><ele>860.0000000000001</ele><time>2026-04-18T16:57:04.999Z</time></trkpt><trkpt lat="37.13503147194597" lon="14.828571282056231"><ele>860.0</ele><time>2026-04-18T16:57:05.999Z</time></trkpt><trkpt lat="37.13513811120719" lon="14.82863845374883"><ele>856.5</ele><time>2026-04-18T16:57:06.999Z</time></trkpt><trkpt lat="37.135280315961225" lon="14.828720004384184"><ele>853.0</ele><time>2026-04-18T16:57:07.999Z</time></trkpt><trkpt lat="37.13541701218196" lon="14.828796009669027"><ele>849.5</ele><time>2026-04-18T16:57:08.999Z</time></trkpt><trkpt lat="37.13553109377324" lon="14.828854151019385"><ele>846.0</ele><time>2026-04-18T16:57:09.999Z</time></trkpt><trkpt lat="37.135626137923786" lon="14.828894291516221"><ele>846.75</ele><time>2026-04-18T16:57:10.999Z</time></trkpt><trkpt lat="37.13572274358696" lon="14.828923197059849"><ele>847.5</ele><time>2026-04-18T16:57:11.999Z</time></trkpt><trkpt lat="37.13583609423449" lon="14.828934400252157"><ele>848.25</ele><time>2026-04-18T16:57:12.999Z</time></trkpt><trkpt lat="37.1359674647521" lon="14.82893756179784"><ele>849.0</ele><time>2026-04-18T16:57:13.999Z</time></trkpt><trkpt lat="37.136105487940895" lon="14.828948748477863"><ele>849.0</ele><time>2026-04-18T16:57:14.999Z</time></trkpt><trkpt lat="37.13628187115503" lon="14.828952971025666"><ele>849.0</ele><time>2026-04-18T16:57:15.999Z</time></trkpt><trkpt lat="37.136483651539756" lon="14.828952792370506"><ele>849.0</ele><time>2026-04-18T16:57:16.999Z</time></trkpt><trkpt lat="37.1366930450994" lon="14.828943891890502"><ele>849.3333333333333</ele><time>2026-04-18T16:57:17.999Z</time></trkpt><trkpt lat="37.136897270629106" lon="14.828924110554333"><ele>849.6666666666666</ele><time>2026-04-18T16:57:18.999Z</time></trkpt><trkpt lat="37.137068166696444" lon="14.828890976066482"><ele>850.0</ele><time>2026-04-18T16:57:19.999Z</time></trkpt><trkpt lat="37.137210807714006" lon="14.828853900284965"><ele>850.0</ele><time>2026-04-18T16:57:20.999Z</time></trkpt><trkpt lat="37.1373280657346" lon="14.82882348066205"><ele>850.0</ele><time>2026-04-18T16:57:21.999Z</time></trkpt><trkpt lat="37.137464808965774" lon="14.828790343689015"><ele>850.0</ele><time>2026-04-18T16:57:22.999Z</time></trkpt><trkpt lat="37.13759996323585" lon="14.828758944024182"><ele>850.0</ele><time>2026-04-18T16:57:23.999Z</time></trkpt><trkpt lat="37.13772380321561" lon="14.828724347226808"><ele>850.5</ele><time>2026-04-18T16:57:24.999Z</time></trkpt><trkpt lat="37.13783139401898" lon="14.828707193840678"><ele>851.0</ele><time>2026-04-18T16:57:25.999Z</time></trkpt><trkpt lat="37.13793564776599" lon="14.828725591250306"><ele>851.5</ele><time>2026-04-18T16:57:26.999Z</time></trkpt><trkpt lat="37.13803819786201" lon="14.828777855966756"><ele>852.0</ele><time>2026-04-18T16:57:27.999Z</time></trkpt><trkpt lat="37.13815284007976" lon="14.828860498800815"><ele>852.3333333333333</ele><time>2026-04-18T16:57:28.999Z</time></trkpt><trkpt lat="37.13829476806646" lon="14.82897743632144"><ele>852.6666666666666</ele><time>2026-04-18T16:57:29.999Z</time></trkpt><trkpt lat="37.13845641635334" lon="14.82912484728234"><ele>853.0</ele><time>2026-04-18T16:57:30.999Z</time></trkpt><trkpt lat="37.13863067412709" lon="14.82929228487899"><ele>849.3333333333333</ele><time>2026-04-18T16:57:31.999Z</time></trkpt><trkpt lat="37.138796802421176" lon="14.829463881868607"><ele>845.6666666666667</ele><time>2026-04-18T16:57:32.999Z</time></trkpt><trkpt lat="37.138950160303914" lon="14.829612636786027"><ele>842.0</ele><time>2026-04-18T16:57:33.999Z</time></trkpt><trkpt lat="37.139073191644016" lon="14.82973718141055"><ele>842.0</ele><time>2026-04-18T16:57:34.999Z</time></trkpt><trkpt lat="37.139183308734005" lon="14.829838555605152"><ele>842.0</ele><time>2026-04-18T16:57:35.999Z</time></trkpt><trkpt lat="37.13928597508546" lon="14.829911531168662"><ele>842.0</ele><time>2026-04-18T16:57:36.999Z</time></trkpt><trkpt lat="37.1393748717185" lon="14.829962325627372"><ele>842.0</ele><time>2026-04-18T16:57:37.999Z</time></trkpt><trkpt lat="37.13945490221331" lon="14.830006610454513"><ele>842.0</ele><time>2026-04-18T16:57:38.999Z</time></trkpt><trkpt lat="37.13951331586834" lon="14.83005737419002"><ele>838.8</ele><time>2026-04-18T16:57:39.999Z</time></trkpt><trkpt lat="37.1395833921873" lon="14.830176189564595"><ele>835.6</ele><time>2026-04-18T16:57:41.998Z</time></trkpt><trkpt lat="37.1396342467288" lon="14.830288154113221"><ele>832.4</ele><time>2026-04-18T16:57:43.998Z</time></trkpt><trkpt lat="37.13968851163493" lon="14.83038048718932"><ele>829.1999999999999</ele><time>2026-04-18T16:57:45.998Z</time></trkpt><trkpt lat="37.139768787341474" lon="14.83047628246749"><ele>826.0</ele><time>2026-04-18T16:57:47.998Z</time></trkpt><trkpt lat="37.139853247991596" lon="14.830549862967622"><ele>826.8333333333333</ele><time>2026-04-18T16:57:49.998Z</time></trkpt><trkpt lat="37.13995263125936" lon="14.830627017382108"><ele>827.6666666666666</ele><time>2026-04-18T16:57:51.998Z</time></trkpt><trkpt lat="37.140011166267705" lon="14.83067861583302"><ele>828.5</ele><time>2026-04-18T16:57:52.998Z</time></trkpt><trkpt lat="37.14007170787089" lon="14.830733103205429"><ele>829.3333333333333</ele><time>2026-04-18T16:57:53.998Z</time></trkpt><trkpt lat="37.140132566414266" lon="14.830786952970179"><ele>830.1666666666666</ele><time>2026-04-18T16:57:54.998Z</time></trkpt><trkpt lat="37.140193743711706" lon="14.83083966407264"><ele>831.0</ele><time>2026-04-18T16:57:55.998Z</time></trkpt><trkpt lat="37.140259045857476" lon="14.830893864198897"><ele>831.0</ele><time>2026-04-18T16:57:56.998Z</time></trkpt><trkpt lat="37.14032649266389" lon="14.830948821700826"><ele>831.0</ele><time>2026-04-18T16:57:58Z</time></trkpt><trkpt lat="37.14039218104355" lon="14.831001142998621"><ele>831.0</ele><time>2026-04-18T16:57:59Z</time></trkpt><trkpt lat="37.140454093151035" lon="14.831054117593364"><ele>831.0</ele><time>2026-04-18T16:58:00Z</time></trkpt><trkpt lat="37.1405217846215" lon="14.83111233866054"><ele>831.0</ele><time>2026-04-18T16:58:01Z</time></trkpt><trkpt lat="37.14060841993094" lon="14.831180929579448"><ele>831.0</ele><time>2026-04-18T16:58:02Z</time></trkpt><trkpt lat="37.1407023441768" lon="14.831255419856681"><ele>828.8</ele><time>2026-04-18T16:58:03Z</time></trkpt><trkpt lat="37.14080172083088" lon="14.831333147382637"><ele>826.5999999999999</ele><time>2026-04-18T16:58:04Z</time></trkpt><trkpt lat="37.140900361751676" lon="14.831409705600874"><ele>824.4</ele><time>2026-04-18T16:58:05Z</time></trkpt><trkpt lat="37.14099189096188" lon="14.831476277916853"><ele>822.2</ele><time>2026-04-18T16:58:06Z</time></trkpt><trkpt lat="37.14108742336757" lon="14.831543822368891"><ele>820.0</ele><time>2026-04-18T16:58:07Z</time></trkpt><trkpt lat="37.14117905398965" lon="14.83161133581903"><ele>820.0</ele><time>2026-04-18T16:58:08Z</time></trkpt><trkpt lat="37.14129524615972" lon="14.831695187282024"><ele>820.0</ele><time>2026-04-18T16:58:09Z</time></trkpt><trkpt lat="37.141429436602124" lon="14.831786395880604"><ele>820.0</ele><time>2026-04-18T16:58:10Z</time></trkpt><trkpt lat="37.141551277946455" lon="14.831851433129877"><ele>820.0</ele><time>2026-04-18T16:58:11Z</time></trkpt><trkpt lat="37.14166542524218" lon="14.831912339402724"><ele>817.25</ele><time>2026-04-18T16:58:12Z</time></trkpt><trkpt lat="37.14177184334321" lon="14.83197064730766"><ele>814.5</ele><time>2026-04-18T16:58:13Z</time></trkpt><trkpt lat="37.141879743344866" lon="14.832028436393518"><ele>811.75</ele><time>2026-04-18T16:58:14Z</time></trkpt><trkpt lat="37.14199366183054" lon="14.832087016502834"><ele>809.0</ele><time>2026-04-18T16:58:15Z</time></trkpt><trkpt lat="37.14209883282417" lon="14.832134064570218"><ele>809.0</ele><time>2026-04-18T16:58:16Z</time></trkpt><trkpt lat="37.14218625124231" lon="14.832171473865511"><ele>809.0</ele><time>2026-04-18T16:58:17Z</time></trkpt><trkpt lat="37.14225641134992" lon="14.832207769738492"><ele>809.0</ele><time>2026-04-18T16:58:18Z</time></trkpt><trkpt lat="37.14230998259509" lon="14.832252019836154"><ele>809.0</ele><time>2026-04-18T16:58:19Z</time></trkpt><trkpt lat="37.1424096241071" lon="14.832177659989949"><ele>809.0</ele><time>2026-04-18T16:58:20Z</time></trkpt><trkpt lat="37.14244976923785" lon="14.833125021483498"><ele>805.0</ele><time>2026-04-18T16:58:26Z</time></trkpt><trkpt lat="37.142460543825734" lon="14.833300030786289"><ele>801.0</ele><time>2026-04-18T16:58:27Z</time></trkpt><trkpt lat="37.14247478032471" lon="14.833500228595259"><ele>797.0</ele><time>2026-04-18T16:58:28Z</time></trkpt><trkpt lat="37.142481362017676" lon="14.833702613929773"><ele>796.6</ele><time>2026-04-18T16:58:29Z</time></trkpt><trkpt lat="37.142480898965374" lon="14.833884989104067"><ele>796.2</ele><time>2026-04-18T16:58:30Z</time></trkpt><trkpt lat="37.14247251301924" lon="14.834035890664675"><ele>795.8</ele><time>2026-04-18T16:58:31Z</time></trkpt><trkpt lat="37.142476025723305" lon="14.83416110834486"><ele>795.4</ele><time>2026-04-18T16:58:32Z</time></trkpt><trkpt lat="37.14250575521425" lon="14.834254220771863"><ele>795.0</ele><time>2026-04-18T16:58:33Z</time></trkpt><trkpt lat="37.14255952910296" lon="14.834321600169494"><ele>795.0</ele><time>2026-04-18T16:58:34Z</time></trkpt><trkpt lat="37.142617880912795" lon="14.83435535878422"><ele>795.0</ele><time>2026-04-18T16:58:35Z</time></trkpt><trkpt lat="37.14274187202285" lon="14.834334499406971"><ele>795.0</ele><time>2026-04-18T16:58:36.999Z</time></trkpt><trkpt lat="37.14280238003677" lon="14.834311908703507"><ele>795.0</ele><time>2026-04-18T16:58:37.999Z</time></trkpt><trkpt lat="37.14289723755068" lon="14.834230908070388"><ele>795.0</ele><time>2026-04-18T16:58:39.999Z</time></trkpt><trkpt lat="37.142921034222375" lon="14.834157322813885"><ele>795.0</ele><time>2026-04-18T16:58:40.999Z</time></trkpt><trkpt lat="37.14297512203763" lon="14.834020203890194"><ele>795.0</ele><time>2026-04-18T16:58:42.999Z</time></trkpt><trkpt lat="37.14299719836955" lon="14.833945220884889"><ele>795.0</ele><time>2026-04-18T16:58:43.999Z</time></trkpt><trkpt lat="37.14302267370148" lon="14.833862581269424"><ele>795.0</ele><time>2026-04-18T16:58:44.999Z</time></trkpt><trkpt lat="37.14304597034539" lon="14.833774095272748"><ele>795.0</ele><time>2026-04-18T16:58:45.999Z</time></trkpt><trkpt lat="37.143071775862076" lon="14.8336853877265"><ele>795.0</ele><time>2026-04-18T16:58:46.999Z</time></trkpt><trkpt lat="37.143104276875796" lon="14.833591758926158"><ele>795.0</ele><time>2026-04-18T16:58:47.999Z</time></trkpt><trkpt lat="37.143132248514874" lon="14.833501537754987"><ele>795.0</ele><time>2026-04-18T16:58:48.999Z</time></trkpt><trkpt lat="37.143159207212044" lon="14.833409740331295"><ele>795.2857142857143</ele><time>2026-04-18T16:58:49.999Z</time></trkpt><trkpt lat="37.14319178520777" lon="14.833324185458252"><ele>795.5714285714287</ele><time>2026-04-18T16:58:50.999Z</time></trkpt><trkpt lat="37.143233851776344" lon="14.83325045486146"><ele>795.8571428571429</ele><time>2026-04-18T16:58:51.999Z</time></trkpt><trkpt lat="37.14327422458213" lon="14.833178595448231"><ele>796.1428571428571</ele><time>2026-04-18T16:58:52.999Z</time></trkpt><trkpt lat="37.14331811492035" lon="14.833119917775154"><ele>796.4285714285714</ele><time>2026-04-18T16:58:53.999Z</time></trkpt><trkpt lat="37.143364907882585" lon="14.833052150211396"><ele>796.7142857142857</ele><time>2026-04-18T16:58:54.999Z</time></trkpt><trkpt lat="37.14338645291606" lon="14.832973363653226"><ele>797.0</ele><time>2026-04-18T16:58:55.999Z</time></trkpt><trkpt lat="37.14334042093514" lon="14.83282171920177"><ele>797.0000000000001</ele><time>2026-04-18T16:58:57.999Z</time></trkpt><trkpt lat="37.14328539631631" lon="14.83275366749808"><ele>797.0</ele><time>2026-04-18T16:58:58.999Z</time></trkpt><trkpt lat="37.14321799664228" lon="14.832704276708236"><ele>797.0</ele><time>2026-04-18T16:58:59.999Z</time></trkpt><trkpt lat="37.14314693893248" lon="14.832654037719074"><ele>797.0</ele><time>2026-04-18T16:59:00.999Z</time></trkpt><trkpt lat="37.1430849914438" lon="14.83259769368838"><ele>797.0000000000001</ele><time>2026-04-18T16:59:01.999Z</time></trkpt><trkpt lat="37.14302793582574" lon="14.832537853245842"><ele>797.0</ele><time>2026-04-18T16:59:02.999Z</time></trkpt><trkpt lat="37.14297016352425" lon="14.832480966817181"><ele>797.2</ele><time>2026-04-18T16:59:03.999Z</time></trkpt><trkpt lat="37.142909488831926" lon="14.832424498515534"><ele>797.4000000000001</ele><time>2026-04-18T16:59:04.999Z</time></trkpt><trkpt lat="37.14284168008404" lon="14.832362732195252"><ele>797.5999999999999</ele><time>2026-04-18T16:59:05.999Z</time></trkpt><trkpt lat="37.14277286842028" lon="14.832295677170581"><ele>797.8</ele><time>2026-04-18T16:59:06.999Z</time></trkpt><trkpt lat="37.14268732384101" lon="14.832223631115273"><ele>798.0</ele><time>2026-04-18T16:59:07.999Z</time></trkpt><trkpt lat="37.14258933601709" lon="14.832152564007762"><ele>798.0</ele><time>2026-04-18T16:59:08.999Z</time></trkpt><trkpt lat="37.14249531917995" lon="14.832086549652097"><ele>798.0</ele><time>2026-04-18T16:59:09.999Z</time></trkpt><trkpt lat="37.14240318347154" lon="14.831980055836452"><ele>798.0</ele><time>2026-04-18T16:59:10.999Z</time></trkpt><trkpt lat="37.14231478693525" lon="14.831828434158174"><ele>798.0</ele><time>2026-04-18T16:59:11.999Z</time></trkpt><trkpt lat="37.14222374734342" lon="14.831659099540246"><ele>802.3333333333333</ele><time>2026-04-18T16:59:12.999Z</time></trkpt><trkpt lat="37.142124454632516" lon="14.831472948042377"><ele>806.6666666666666</ele><time>2026-04-18T16:59:13.999Z</time></trkpt><trkpt lat="37.14201892246493" lon="14.831280976370545"><ele>811.0</ele><time>2026-04-18T16:59:14.999Z</time></trkpt><trkpt lat="37.14191452998705" lon="14.831094498138604"><ele>810.6666666666666</ele><time>2026-04-18T16:59:15.999Z</time></trkpt><trkpt lat="37.14181183663649" lon="14.83091072804157"><ele>810.3333333333333</ele><time>2026-04-18T16:59:16.999Z</time></trkpt><trkpt lat="37.14170868175671" lon="14.830719395376008"><ele>810.0</ele><time>2026-04-18T16:59:17.999Z</time></trkpt><trkpt lat="37.14160515300899" lon="14.830536075246632"><ele>814.3333333333333</ele><time>2026-04-18T16:59:18.999Z</time></trkpt><trkpt lat="37.14149614133612" lon="14.830353778294418"><ele>818.6666666666666</ele><time>2026-04-18T16:59:19.999Z</time></trkpt><trkpt lat="37.14138960828762" lon="14.830168207459314"><ele>823.0</ele><time>2026-04-18T16:59:20.999Z</time></trkpt><trkpt lat="37.141285067983546" lon="14.829983568351956"><ele>823.0</ele><time>2026-04-18T16:59:21.999Z</time></trkpt><trkpt lat="37.14117880082331" lon="14.82979399716945"><ele>823.0</ele><time>2026-04-18T16:59:22.999Z</time></trkpt><trkpt lat="37.141064278534124" lon="14.829606540831627"><ele>823.0</ele><time>2026-04-18T16:59:23.999Z</time></trkpt><trkpt lat="37.14094609947868" lon="14.829424705703854"><ele>822.0</ele><time>2026-04-18T16:59:24.999Z</time></trkpt><trkpt lat="37.14082069907646" lon="14.829257407894403"><ele>821.0</ele><time>2026-04-18T16:59:25.999Z</time></trkpt><trkpt lat="37.14068254336185" lon="14.829095417670288"><ele>820.0</ele><time>2026-04-18T16:59:26.999Z</time></trkpt><trkpt lat="37.1405377186115" lon="14.828954138039851"><ele>826.6666666666666</ele><time>2026-04-18T16:59:27.999Z</time></trkpt><trkpt lat="37.140377174018234" lon="14.828805250704132"><ele>833.3333333333333</ele><time>2026-04-18T16:59:28.999Z</time></trkpt><trkpt lat="37.14019688834684" lon="14.828656298754298"><ele>840.0</ele><time>2026-04-18T16:59:29.999Z</time></trkpt><trkpt lat="37.14000651300274" lon="14.828516715019818"><ele>838.5</ele><time>2026-04-18T16:59:30.999Z</time></trkpt><trkpt lat="37.139798615254996" lon="14.828382739640938"><ele>837.0</ele><time>2026-04-18T16:59:32.015Z</time></trkpt><trkpt lat="37.13958120856632" lon="14.828259448446994"><ele>837.0</ele><time>2026-04-18T16:59:33.014Z</time></trkpt><trkpt lat="37.13934961724584" lon="14.828142117535856"><ele>837.0</ele><time>2026-04-18T16:59:34.02Z</time></trkpt><trkpt lat="37.13911034160973" lon="14.828055810370467"><ele>837.0</ele><time>2026-04-18T16:59:34.999Z</time></trkpt><trkpt lat="37.1390704094475" lon="14.828134610913734"><ele>837.0</ele><time>2026-04-18T16:59:35.999Z</time></trkpt><trkpt lat="37.13886058033875" lon="14.828077431071337"><ele>837.0</ele><time>2026-04-18T16:59:36.999Z</time></trkpt><trkpt lat="37.13865188163975" lon="14.82801265107067"><ele>838.6666666666667</ele><time>2026-04-18T16:59:37.999Z</time></trkpt><trkpt lat="37.13844125466698" lon="14.827955975969624"><ele>840.3333333333334</ele><time>2026-04-18T16:59:38.999Z</time></trkpt><trkpt lat="37.13822673881979" lon="14.827896576350884"><ele>842.0</ele><time>2026-04-18T16:59:39.999Z</time></trkpt><trkpt lat="37.13801217113734" lon="14.827837812633467"><ele>844.0</ele><time>2026-04-18T16:59:40.999Z</time></trkpt><trkpt lat="37.137799896647515" lon="14.827777181798611"><ele>846.0</ele><time>2026-04-18T16:59:41.999Z</time></trkpt><trkpt lat="37.13758478660173" lon="14.827721316284993"><ele>848.0</ele><time>2026-04-18T16:59:42.999Z</time></trkpt><trkpt lat="37.13737216256643" lon="14.827662721635239"><ele>843.0</ele><time>2026-04-18T16:59:43.999Z</time></trkpt><trkpt lat="37.13715671690536" lon="14.827604798860136"><ele>838.0</ele><time>2026-04-18T16:59:44.999Z</time></trkpt><trkpt lat="37.136943766580266" lon="14.82754529056345"><ele>833.0</ele><time>2026-04-18T16:59:45.999Z</time></trkpt><trkpt lat="37.13673129440195" lon="14.827486006482646"><ele>836.6666666666667</ele><time>2026-04-18T16:59:46.999Z</time></trkpt><trkpt lat="37.13651954459925" lon="14.827426539886053"><ele>840.3333333333333</ele><time>2026-04-18T16:59:47.999Z</time></trkpt><trkpt lat="37.136309600763134" lon="14.827370214193413"><ele>844.0</ele><time>2026-04-18T16:59:48.999Z</time></trkpt><trkpt lat="37.136096400247176" lon="14.827310274705576"><ele>844.0</ele><time>2026-04-18T16:59:49.998Z</time></trkpt><trkpt lat="37.13589237721901" lon="14.827249782366263"><ele>844.0</ele><time>2026-04-18T16:59:50.998Z</time></trkpt><trkpt lat="37.13568872269578" lon="14.827191523780735"><ele>844.0</ele><time>2026-04-18T16:59:51.998Z</time></trkpt><trkpt lat="37.13548201859672" lon="14.82713296348963"><ele>848.0</ele><time>2026-04-18T16:59:52.998Z</time></trkpt><trkpt lat="37.13527494203311" lon="14.827070269350154"><ele>852.0</ele><time>2026-04-18T16:59:53.998Z</time></trkpt><trkpt lat="37.13506578799814" lon="14.827009519094029"><ele>856.0</ele><time>2026-04-18T16:59:54.998Z</time></trkpt><trkpt lat="37.1348530998923" lon="14.826950790322533"><ele>855.6666666666666</ele><time>2026-04-18T16:59:55.998Z</time></trkpt><trkpt lat="37.13464456253364" lon="14.826887350272703"><ele>855.3333333333333</ele><time>2026-04-18T16:59:56.998Z</time></trkpt><trkpt lat="37.13443564873825" lon="14.826822741733631"><ele>855.0</ele><time>2026-04-18T16:59:57.998Z</time></trkpt><trkpt lat="37.13422480817636" lon="14.826751896012773"><ele>859.0</ele><time>2026-04-18T16:59:58.998Z</time></trkpt><trkpt lat="37.13402454191638" lon="14.826677466230542"><ele>863.0</ele><time>2026-04-18T16:59:59.998Z</time></trkpt><trkpt lat="37.13381878413324" lon="14.826602098834867"><ele>867.0</ele><time>2026-04-18T17:00:00.998Z</time></trkpt><trkpt lat="37.1336102025795" lon="14.826537859712857"><ele>867.0</ele><time>2026-04-18T17:00:01.998Z</time></trkpt><trkpt lat="37.133405460499986" lon="14.826476476113662"><ele>867.0</ele><time>2026-04-18T17:00:02.998Z</time></trkpt><trkpt lat="37.13320076148224" lon="14.826394903639827"><ele>867.0</ele><time>2026-04-18T17:00:04Z</time></trkpt><trkpt lat="37.1329949944262" lon="14.826310603316019"><ele>871.6666666666667</ele><time>2026-04-18T17:00:05Z</time></trkpt><trkpt lat="37.13277905389343" lon="14.826240767115909"><ele>876.3333333333334</ele><time>2026-04-18T17:00:06Z</time></trkpt><trkpt lat="37.13256958819689" lon="14.82618659395885"><ele>881.0</ele><time>2026-04-18T17:00:07Z</time></trkpt><trkpt lat="37.1323679697587" lon="14.826119090443395"><ele>883.0</ele><time>2026-04-18T17:00:08Z</time></trkpt><trkpt lat="37.132162046995504" lon="14.826043731364031"><ele>885.0</ele><time>2026-04-18T17:00:09Z</time></trkpt><trkpt lat="37.13195144018261" lon="14.825968647882215"><ele>887.0</ele><time>2026-04-18T17:00:10Z</time></trkpt><trkpt lat="37.13175213750455" lon="14.825894512450631"><ele>881.5</ele><time>2026-04-18T17:00:11Z</time></trkpt><trkpt lat="37.13153636696334" lon="14.82582036765192"><ele>876.0</ele><time>2026-04-18T17:00:12Z</time></trkpt><trkpt lat="37.13131205141117" lon="14.825753176319173"><ele>876.0</ele><time>2026-04-18T17:00:13Z</time></trkpt><trkpt lat="37.131100878236836" lon="14.825685170591234"><ele>876.0</ele><time>2026-04-18T17:00:14Z</time></trkpt><trkpt lat="37.130886317251004" lon="14.825593257696498"><ele>876.0</ele><time>2026-04-18T17:00:15Z</time></trkpt><trkpt lat="37.13066840572516" lon="14.825526252420154"><ele>885.5</ele><time>2026-04-18T17:00:16Z</time></trkpt><trkpt lat="37.13045345588471" lon="14.825452475483685"><ele>895.0</ele><time>2026-04-18T17:00:17Z</time></trkpt><trkpt lat="37.13023264408119" lon="14.825378861340008"><ele>895.0</ele><time>2026-04-18T17:00:18Z</time></trkpt><trkpt lat="37.13001629017617" lon="14.82530726845293"><ele>895.0</ele><time>2026-04-18T17:00:19Z</time></trkpt><trkpt lat="37.12979573398984" lon="14.825228978435135"><ele>892.0</ele><time>2026-04-18T17:00:20Z</time></trkpt><trkpt lat="37.1295702076645" lon="14.825148704400057"><ele>889.0</ele><time>2026-04-18T17:00:21Z</time></trkpt><trkpt lat="37.12934084375659" lon="14.8250713337923"><ele>889.0</ele><time>2026-04-18T17:00:22Z</time></trkpt><trkpt lat="37.12909576484373" lon="14.824994521555704"><ele>889.0</ele><time>2026-04-18T17:00:23Z</time></trkpt><trkpt lat="37.12885113776333" lon="14.824916483909641"><ele>892.5</ele><time>2026-04-18T17:00:24Z</time></trkpt><trkpt lat="37.12860810930786" lon="14.824832108176619"><ele>896.0</ele><time>2026-04-18T17:00:25Z</time></trkpt><trkpt lat="37.12837126925694" lon="14.824750300036653"><ele>900.5</ele><time>2026-04-18T17:00:26Z</time></trkpt><trkpt lat="37.128142224466416" lon="14.824673094497491"><ele>905.0</ele><time>2026-04-18T17:00:27Z</time></trkpt><trkpt lat="37.127918439327736" lon="14.824593947763995"><ele>905.0</ele><time>2026-04-18T17:00:28Z</time></trkpt><trkpt lat="37.127699602104165" lon="14.824517693982333"><ele>905.0</ele><time>2026-04-18T17:00:29Z</time></trkpt><trkpt lat="37.12748592588396" lon="14.824443978450953"><ele>905.0</ele><time>2026-04-18T17:00:30Z</time></trkpt><trkpt lat="37.127273444059696" lon="14.824370634315054"><ele>906.0</ele><time>2026-04-18T17:00:31Z</time></trkpt><trkpt lat="37.127058617447176" lon="14.824299477651506"><ele>907.0</ele><time>2026-04-18T17:00:32Z</time></trkpt><trkpt lat="37.12683774239987" lon="14.824221857431906"><ele>907.0</ele><time>2026-04-18T17:00:33Z</time></trkpt><trkpt lat="37.126617663146284" lon="14.824142489802528"><ele>907.0</ele><time>2026-04-18T17:00:34Z</time></trkpt><trkpt lat="37.12640107334673" lon="14.824070290614205"><ele>909.0</ele><time>2026-04-18T17:00:35Z</time></trkpt><trkpt lat="37.12617625930679" lon="14.823991469688911"><ele>911.0</ele><time>2026-04-18T17:00:36Z</time></trkpt><trkpt lat="37.1259541990724" lon="14.823913006772036"><ele>911.0</ele><time>2026-04-18T17:00:37Z</time></trkpt><trkpt lat="37.12573800931297" lon="14.823837035993057"><ele>911.0</ele><time>2026-04-18T17:00:38Z</time></trkpt><trkpt lat="37.125519720932544" lon="14.823761866733989"><ele>911.6666666666667</ele><time>2026-04-18T17:00:39Z</time></trkpt><trkpt lat="37.12530302344622" lon="14.823688969547051"><ele>912.3333333333333</ele><time>2026-04-18T17:00:40Z</time></trkpt><trkpt lat="37.12508861934996" lon="14.82360596142275"><ele>913.0</ele><time>2026-04-18T17:00:41Z</time></trkpt><trkpt lat="37.12486927018246" lon="14.823515347217917"><ele>916.0</ele><time>2026-04-18T17:00:42Z</time></trkpt><trkpt lat="37.12465083159767" lon="14.823415076683965"><ele>919.0</ele><time>2026-04-18T17:00:43Z</time></trkpt><trkpt lat="37.12443280140207" lon="14.823294767362569"><ele>919.0</ele><time>2026-04-18T17:00:44Z</time></trkpt><trkpt lat="37.12422220164566" lon="14.823173832086855"><ele>919.0</ele><time>2026-04-18T17:00:45Z</time></trkpt><trkpt lat="37.12400685669243" lon="14.823045024859427"><ele>920.0</ele><time>2026-04-18T17:00:46Z</time></trkpt><trkpt lat="37.123791117610786" lon="14.822901600438808"><ele>921.0</ele><time>2026-04-18T17:00:47Z</time></trkpt><trkpt lat="37.12357789815578" lon="14.822747428214763"><ele>922.5</ele><time>2026-04-18T17:00:48Z</time></trkpt><trkpt lat="37.12336541390035" lon="14.822585145002254"><ele>924.0</ele><time>2026-04-18T17:00:49Z</time></trkpt><trkpt lat="37.12316209947422" lon="14.82241584700924"><ele>925.5</ele><time>2026-04-18T17:00:49.999Z</time></trkpt><trkpt lat="37.122962604702536" lon="14.822231047942342"><ele>927.0</ele><time>2026-04-18T17:00:50.999Z</time></trkpt><trkpt lat="37.12276643176879" lon="14.822041652320978"><ele>927.0</ele><time>2026-04-18T17:00:51.999Z</time></trkpt><trkpt lat="37.122575227854256" lon="14.821850185931993"><ele>927.0</ele><time>2026-04-18T17:00:52.999Z</time></trkpt><trkpt lat="37.12237850520064" lon="14.82165127001567"><ele>932.0</ele><time>2026-04-18T17:00:53.999Z</time></trkpt><trkpt lat="37.122189767829774" lon="14.821451431000266"><ele>937.0</ele><time>2026-04-18T17:00:54.999Z</time></trkpt><trkpt lat="37.121998573333606" lon="14.821252626233866"><ele>937.0</ele><time>2026-04-18T17:00:55.999Z</time></trkpt><trkpt lat="37.121793761073825" lon="14.821058497754207"><ele>937.0</ele><time>2026-04-18T17:00:56.999Z</time></trkpt><trkpt lat="37.12159339816232" lon="14.82086695424648"><ele>939.0</ele><time>2026-04-18T17:00:57.999Z</time></trkpt><trkpt lat="37.121392872117575" lon="14.820665350666971"><ele>941.0</ele><time>2026-04-18T17:00:58.999Z</time></trkpt><trkpt lat="37.121197302142974" lon="14.820465626202978"><ele>941.0</ele><time>2026-04-18T17:00:59.999Z</time></trkpt><trkpt lat="37.120994071730365" lon="14.820264082486618"><ele>941.0</ele><time>2026-04-18T17:01:00.999Z</time></trkpt><trkpt lat="37.120791583248725" lon="14.820060246692561"><ele>942.5</ele><time>2026-04-18T17:01:01.999Z</time></trkpt><trkpt lat="37.12059008992053" lon="14.819857718481595"><ele>944.0</ele><time>2026-04-18T17:01:02.999Z</time></trkpt><trkpt lat="37.12038619645071" lon="14.819654016093727"><ele>944.0</ele><time>2026-04-18T17:01:03.999Z</time></trkpt><trkpt lat="37.12018743380389" lon="14.819452843726864"><ele>944.0</ele><time>2026-04-18T17:01:04.999Z</time></trkpt><trkpt lat="37.119984040884816" lon="14.819249309019819"><ele>945.5</ele><time>2026-04-18T17:01:05.999Z</time></trkpt><trkpt lat="37.11979440967143" lon="14.819056627453369"><ele>947.0</ele><time>2026-04-18T17:01:06.999Z</time></trkpt><trkpt lat="37.11959738786622" lon="14.818862131586979"><ele>947.0</ele><time>2026-04-18T17:01:07.999Z</time></trkpt><trkpt lat="37.11940169173369" lon="14.81866694877328"><ele>947.0</ele><time>2026-04-18T17:01:08.999Z</time></trkpt><trkpt lat="37.119206556132426" lon="14.818474467988388"><ele>948.0</ele><time>2026-04-18T17:01:09.999Z</time></trkpt><trkpt lat="37.11900628254063" lon="14.818287475067178"><ele>949.0</ele><time>2026-04-18T17:01:10.999Z</time></trkpt><trkpt lat="37.11880890410305" lon="14.81811156780159"><ele>949.0</ele><time>2026-04-18T17:01:11.999Z</time></trkpt><trkpt lat="37.118604374744194" lon="14.817951287868501"><ele>949.0</ele><time>2026-04-18T17:01:12.999Z</time></trkpt><trkpt lat="37.11837838352398" lon="14.817835834331747"><ele>957.0</ele><time>2026-04-18T17:01:13.999Z</time></trkpt><trkpt lat="37.11813665172413" lon="14.817745803106675"><ele>965.0</ele><time>2026-04-18T17:01:14.999Z</time></trkpt><trkpt lat="37.117888533188946" lon="14.81767779385757"><ele>961.5</ele><time>2026-04-18T17:01:15.999Z</time></trkpt><trkpt lat="37.117636610595916" lon="14.817642650447228"><ele>958.0</ele><time>2026-04-18T17:01:16.999Z</time></trkpt><trkpt lat="37.11737849021183" lon="14.817646796378526"><ele>964.5</ele><time>2026-04-18T17:01:17.999Z</time></trkpt><trkpt lat="37.11712451807396" lon="14.81767761745804"><ele>971.0</ele><time>2026-04-18T17:01:18.999Z</time></trkpt><trkpt lat="37.11687801218196" lon="14.817732329528788"><ele>971.0</ele><time>2026-04-18T17:01:19.999Z</time></trkpt><trkpt lat="37.11663987037073" lon="14.817812484635045"><ele>971.0</ele><time>2026-04-18T17:01:20.999Z</time></trkpt><trkpt lat="37.1164021351202" lon="14.81791627232126"><ele>970.0</ele><time>2026-04-18T17:01:21.999Z</time></trkpt><trkpt lat="37.11616716823977" lon="14.818049591602742"><ele>969.0</ele><time>2026-04-18T17:01:22.999Z</time></trkpt><trkpt lat="37.1159449652608" lon="14.81821046203492"><ele>969.0</ele><time>2026-04-18T17:01:23.999Z</time></trkpt><trkpt lat="37.11573700142036" lon="14.818401244210124"><ele>969.0</ele><time>2026-04-18T17:01:24.999Z</time></trkpt><trkpt lat="37.11554454646352" lon="14.818615301554347"><ele>971.0</ele><time>2026-04-18T17:01:25.999Z</time></trkpt><trkpt lat="37.11537068851175" lon="14.81884999431926"><ele>973.0</ele><time>2026-04-18T17:01:26.999Z</time></trkpt><trkpt lat="37.11521855820097" lon="14.819098916436712"><ele>974.5</ele><time>2026-04-18T17:01:27.999Z</time></trkpt><trkpt lat="37.115086577538264" lon="14.81936124638687"><ele>976.0</ele><time>2026-04-18T17:01:28.999Z</time></trkpt><trkpt lat="37.11496878646952" lon="14.819648800011887"><ele>977.5</ele><time>2026-04-18T17:01:29.999Z</time></trkpt><trkpt lat="37.1148738722719" lon="14.81993466128981"><ele>979.0</ele><time>2026-04-18T17:01:30.999Z</time></trkpt><trkpt lat="37.114795978630895" lon="14.820240730762258"><ele>979.5</ele><time>2026-04-18T17:01:31.999Z</time></trkpt><trkpt lat="37.11474209314564" lon="14.82055230795841"><ele>980.0</ele><time>2026-04-18T17:01:32.999Z</time></trkpt><trkpt lat="37.114717793470504" lon="14.820877547295401"><ele>981.0</ele><time>2026-04-18T17:01:33.999Z</time></trkpt><trkpt lat="37.11472089925435" lon="14.82120740464401"><ele>982.0</ele><time>2026-04-18T17:01:34.999Z</time></trkpt><trkpt lat="37.114739900505974" lon="14.821546992236525"><ele>981.5</ele><time>2026-04-18T17:01:35.999Z</time></trkpt><trkpt lat="37.11477991091329" lon="14.821897413289973"><ele>981.0</ele><time>2026-04-18T17:01:36.999Z</time></trkpt><trkpt lat="37.11482280045934" lon="14.822261489059827"><ele>981.0</ele><time>2026-04-18T17:01:37.999Z</time></trkpt><trkpt lat="37.114857673384144" lon="14.822627573210852"><ele>981.0</ele><time>2026-04-18T17:01:38.999Z</time></trkpt><trkpt lat="37.11488139025972" lon="14.822988285482873"><ele>974.5</ele><time>2026-04-18T17:01:39.999Z</time></trkpt><trkpt lat="37.11491099362722" lon="14.823350421419239"><ele>968.0</ele><time>2026-04-18T17:01:40.999Z</time></trkpt><trkpt lat="37.114941641534735" lon="14.823704391555621"><ele>968.0</ele><time>2026-04-18T17:01:41.999Z</time></trkpt><trkpt lat="37.11497271091442" lon="14.824052340149722"><ele>968.0</ele><time>2026-04-18T17:01:42.999Z</time></trkpt><trkpt lat="37.11500346105816" lon="14.824392665393729"><ele>968.0</ele><time>2026-04-18T17:01:43.999Z</time></trkpt><trkpt lat="37.11503005416106" lon="14.824721009337587"><ele>968.0</ele><time>2026-04-18T17:01:44.999Z</time></trkpt><trkpt lat="37.11505839853916" lon="14.825039719848922"><ele>967.0</ele><time>2026-04-18T17:01:45.999Z</time></trkpt><trkpt lat="37.11508127298789" lon="14.825351451474946"><ele>966.0</ele><time>2026-04-18T17:01:46.999Z</time></trkpt><trkpt lat="37.11510478272646" lon="14.82566070617487"><ele>966.0</ele><time>2026-04-18T17:01:47.999Z</time></trkpt><trkpt lat="37.115126569884694" lon="14.825970199090074"><ele>966.0</ele><time>2026-04-18T17:01:48.999Z</time></trkpt><trkpt lat="37.11514213220773" lon="14.82627298706454"><ele>966.5</ele><time>2026-04-18T17:01:49.999Z</time></trkpt><trkpt lat="37.115149780640415" lon="14.82656596048757"><ele>967.0</ele><time>2026-04-18T17:01:50.999Z</time></trkpt><trkpt lat="37.1151354353999" lon="14.826870625608029"><ele>966.0</ele><time>2026-04-18T17:01:51.999Z</time></trkpt><trkpt lat="37.11509779656481" lon="14.827178666492522"><ele>965.0</ele><time>2026-04-18T17:01:52.999Z</time></trkpt><trkpt lat="37.115048455891205" lon="14.827478194625522"><ele>964.0</ele><time>2026-04-18T17:01:53.999Z</time></trkpt><trkpt lat="37.11498410078153" lon="14.827776712357496"><ele>963.0</ele><time>2026-04-18T17:01:54.999Z</time></trkpt><trkpt lat="37.11490691220146" lon="14.828067175702682"><ele>964.0</ele><time>2026-04-18T17:01:55.999Z</time></trkpt><trkpt lat="37.114803281036174" lon="14.828360158052964"><ele>965.0</ele><time>2026-04-18T17:01:56.999Z</time></trkpt><trkpt lat="37.11468550467696" lon="14.8286446125181"><ele>962.5</ele><time>2026-04-18T17:01:57.999Z</time></trkpt><trkpt lat="37.114559528961394" lon="14.82892631426917"><ele>960.0</ele><time>2026-04-18T17:01:58.999Z</time></trkpt><trkpt lat="37.11443573795741" lon="14.829203187644644"><ele>958.0</ele><time>2026-04-18T17:01:59.999Z</time></trkpt><trkpt lat="37.114311534085196" lon="14.82948261769625"><ele>956.0</ele><time>2026-04-18T17:02:00.999Z</time></trkpt><trkpt lat="37.11419140938306" lon="14.829772307553036"><ele>956.5</ele><time>2026-04-18T17:02:01.999Z</time></trkpt><trkpt lat="37.114070625010164" lon="14.830059746942966"><ele>957.0</ele><time>2026-04-18T17:02:02.999Z</time></trkpt><trkpt lat="37.11395056284724" lon="14.830344500771021"><ele>953.0</ele><time>2026-04-18T17:02:03.999Z</time></trkpt><trkpt lat="37.1138301029628" lon="14.830630944369407"><ele>949.0</ele><time>2026-04-18T17:02:04.998Z</time></trkpt><trkpt lat="37.11370684169998" lon="14.830910794707194"><ele>947.0</ele><time>2026-04-18T17:02:05.998Z</time></trkpt><trkpt lat="37.11358902547359" lon="14.831191601403354"><ele>945.0</ele><time>2026-04-18T17:02:06.998Z</time></trkpt><trkpt lat="37.11347452545457" lon="14.83146679461473"><ele>945.0</ele><time>2026-04-18T17:02:07.998Z</time></trkpt><trkpt lat="37.11336407895726" lon="14.831740003992076"><ele>945.0</ele><time>2026-04-18T17:02:08.998Z</time></trkpt><trkpt lat="37.1132635922254" lon="14.832016765101077"><ele>945.5</ele><time>2026-04-18T17:02:10Z</time></trkpt><trkpt lat="37.113174889758035" lon="14.832298132955128"><ele>946.0</ele><time>2026-04-18T17:02:11Z</time></trkpt><trkpt lat="37.11309525744147" lon="14.832586705942624"><ele>946.0</ele><time>2026-04-18T17:02:12Z</time></trkpt><trkpt lat="37.11302057823835" lon="14.83288357722247"><ele>946.0</ele><time>2026-04-18T17:02:13Z</time></trkpt><trkpt lat="37.11295106583681" lon="14.833188873946362"><ele>947.0</ele><time>2026-04-18T17:02:14Z</time></trkpt><trkpt lat="37.112889779877285" lon="14.833500746727184"><ele>948.0</ele><time>2026-04-18T17:02:15Z</time></trkpt><trkpt lat="37.11283762509236" lon="14.833814828433189"><ele>948.0</ele><time>2026-04-18T17:02:16Z</time></trkpt><trkpt lat="37.11279624842945" lon="14.834128505126245"><ele>948.0</ele><time>2026-04-18T17:02:17Z</time></trkpt><trkpt lat="37.11276321239351" lon="14.834442622173464"><ele>949.5</ele><time>2026-04-18T17:02:18Z</time></trkpt><trkpt lat="37.11273655524662" lon="14.834757964119504"><ele>951.0</ele><time>2026-04-18T17:02:19Z</time></trkpt><trkpt lat="37.112717148560776" lon="14.835071927722522"><ele>951.5</ele><time>2026-04-18T17:02:20Z</time></trkpt><trkpt lat="37.1127070150309" lon="14.835380008085234"><ele>952.0</ele><time>2026-04-18T17:02:21Z</time></trkpt><trkpt lat="37.11271378057836" lon="14.835687500217409"><ele>950.5</ele><time>2026-04-18T17:02:22Z</time></trkpt><trkpt lat="37.11272584962028" lon="14.835972428917087"><ele>949.0</ele><time>2026-04-18T17:02:23Z</time></trkpt><trkpt lat="37.112744888635056" lon="14.836249933827888"><ele>949.0</ele><time>2026-04-18T17:02:24Z</time></trkpt><trkpt lat="37.11277019051435" lon="14.8365305417484"><ele>949.0</ele><time>2026-04-18T17:02:25.02Z</time></trkpt><trkpt lat="37.11280279694643" lon="14.836800264474759"><ele>949.0</ele><time>2026-04-18T17:02:26.02Z</time></trkpt><trkpt lat="37.112839013001945" lon="14.837061347643226"><ele>947.5</ele><time>2026-04-18T17:02:27Z</time></trkpt><trkpt lat="37.11287322520347" lon="14.837398422536703"><ele>946.0</ele><time>2026-04-18T17:02:28Z</time></trkpt><trkpt lat="37.11292177428337" lon="14.83768207380469"><ele>944.5</ele><time>2026-04-18T17:02:29Z</time></trkpt><trkpt lat="37.112979706639436" lon="14.837960011776833"><ele>943.0</ele><time>2026-04-18T17:02:30Z</time></trkpt><trkpt lat="37.113048130735656" lon="14.838247310535051"><ele>940.5</ele><time>2026-04-18T17:02:31Z</time></trkpt><trkpt lat="37.11312154929628" lon="14.838530250030223"><ele>938.0</ele><time>2026-04-18T17:02:32Z</time></trkpt><trkpt lat="37.11320692260327" lon="14.838806770801224"><ele>938.5</ele><time>2026-04-18T17:02:33Z</time></trkpt><trkpt lat="37.113292923012125" lon="14.839085349133995"><ele>939.0</ele><time>2026-04-18T17:02:34Z</time></trkpt><trkpt lat="37.113400323478054" lon="14.839361887378281"><ele>936.5</ele><time>2026-04-18T17:02:35Z</time></trkpt><trkpt lat="37.113512582725214" lon="14.839639953981658"><ele>934.0</ele><time>2026-04-18T17:02:36Z</time></trkpt><trkpt lat="37.113627489316016" lon="14.83991281396901"><ele>932.5</ele><time>2026-04-18T17:02:37Z</time></trkpt><trkpt lat="37.11374880311397" lon="14.84019034017228"><ele>931.0</ele><time>2026-04-18T17:02:38Z</time></trkpt><trkpt lat="37.113874817766686" lon="14.840465011167785"><ele>931.0</ele><time>2026-04-18T17:02:39Z</time></trkpt><trkpt lat="37.11400358249552" lon="14.840740154824868"><ele>931.0</ele><time>2026-04-18T17:02:40Z</time></trkpt><trkpt lat="37.11413535867192" lon="14.841025047121228"><ele>929.5</ele><time>2026-04-18T17:02:41Z</time></trkpt><trkpt lat="37.11426791309728" lon="14.841313137025523"><ele>928.0</ele><time>2026-04-18T17:02:42Z</time></trkpt><trkpt lat="37.11440070427691" lon="14.841602016442938"><ele>927.5</ele><time>2026-04-18T17:02:43Z</time></trkpt><trkpt lat="37.114532258858645" lon="14.841891416613528"><ele>927.0</ele><time>2026-04-18T17:02:44Z</time></trkpt><trkpt lat="37.11466545610272" lon="14.842183118214123"><ele>927.0</ele><time>2026-04-18T17:02:45Z</time></trkpt><trkpt lat="37.11479661590307" lon="14.842468497106916"><ele>927.0</ele><time>2026-04-18T17:02:46Z</time></trkpt><trkpt lat="37.11492890704374" lon="14.842751992013872"><ele>927.0</ele><time>2026-04-18T17:02:47Z</time></trkpt><trkpt lat="37.115057743114846" lon="14.843032870372303"><ele>927.0</ele><time>2026-04-18T17:02:48Z</time></trkpt><trkpt lat="37.11518580081437" lon="14.843313634308078"><ele>927.5</ele><time>2026-04-18T17:02:49Z</time></trkpt><trkpt lat="37.11531266969502" lon="14.843596876260856"><ele>928.0</ele><time>2026-04-18T17:02:50Z</time></trkpt><trkpt lat="37.11544053247538" lon="14.843880912043954"><ele>928.0</ele><time>2026-04-18T17:02:51Z</time></trkpt><trkpt lat="37.11556607138101" lon="14.84416188879714"><ele>928.0</ele><time>2026-04-18T17:02:52Z</time></trkpt><trkpt lat="37.115694203813156" lon="14.844445757134558"><ele>927.0</ele><time>2026-04-18T17:02:53Z</time></trkpt><trkpt lat="37.115824806882756" lon="14.84473021548194"><ele>926.0</ele><time>2026-04-18T17:02:54Z</time></trkpt><trkpt lat="37.115955213887574" lon="14.845011573456482"><ele>927.5</ele><time>2026-04-18T17:02:55Z</time></trkpt><trkpt lat="37.11608843281746" lon="14.84529373152632"><ele>929.0</ele><time>2026-04-18T17:02:56Z</time></trkpt><trkpt lat="37.116223451761286" lon="14.845573895591636"><ele>929.0</ele><time>2026-04-18T17:02:57Z</time></trkpt><trkpt lat="37.116362052528274" lon="14.845853887228595"><ele>929.0</ele><time>2026-04-18T17:02:58Z</time></trkpt><trkpt lat="37.11650331977658" lon="14.846128991976968"><ele>926.0</ele><time>2026-04-18T17:02:59Z</time></trkpt><trkpt lat="37.11665039339786" lon="14.84640254402633"><ele>923.0</ele><time>2026-04-18T17:03:00Z</time></trkpt><trkpt lat="37.116798775170516" lon="14.84667014302331"><ele>923.0</ele><time>2026-04-18T17:03:01Z</time></trkpt><trkpt lat="37.116947833233816" lon="14.846931698967294"><ele>923.0</ele><time>2026-04-18T17:03:02Z</time></trkpt><trkpt lat="37.11709704907665" lon="14.847195303513914"><ele>923.0</ele><time>2026-04-18T17:03:02.999Z</time></trkpt><trkpt lat="37.11724601826806" lon="14.847460718101354"><ele>923.0</ele><time>2026-04-18T17:03:03.999Z</time></trkpt><trkpt lat="37.11739546293429" lon="14.847724443103784"><ele>922.0</ele><time>2026-04-18T17:03:04.999Z</time></trkpt><trkpt lat="37.11755228041231" lon="14.847993988607046"><ele>921.0</ele><time>2026-04-18T17:03:05.999Z</time></trkpt><trkpt lat="37.1177059054088" lon="14.84826354491043"><ele>920.5</ele><time>2026-04-18T17:03:06.999Z</time></trkpt><trkpt lat="37.11785713064842" lon="14.848536117304558"><ele>920.0</ele><time>2026-04-18T17:03:07.999Z</time></trkpt><trkpt lat="37.11801244678783" lon="14.848805543979577"><ele>920.0</ele><time>2026-04-18T17:03:08.999Z</time></trkpt><trkpt lat="37.11816416967179" lon="14.849085723596438"><ele>920.0</ele><time>2026-04-18T17:03:09.999Z</time></trkpt><trkpt lat="37.11831927131378" lon="14.849364760135776"><ele>916.0</ele><time>2026-04-18T17:03:10.999Z</time></trkpt><trkpt lat="37.11847037585045" lon="14.849651124858026"><ele>912.0</ele><time>2026-04-18T17:03:11.999Z</time></trkpt><trkpt lat="37.1186114356808" lon="14.84994272798049"><ele>911.0</ele><time>2026-04-18T17:03:12.999Z</time></trkpt><trkpt lat="37.11874250862607" lon="14.850244566303063"><ele>910.0</ele><time>2026-04-18T17:03:13.999Z</time></trkpt><trkpt lat="37.11886479155636" lon="14.850552655546313"><ele>910.0</ele><time>2026-04-18T17:03:14.999Z</time></trkpt><trkpt lat="37.1189792747309" lon="14.850868349170888"><ele>910.0</ele><time>2026-04-18T17:03:15.999Z</time></trkpt><trkpt lat="37.119085341048915" lon="14.85119054066263"><ele>907.5</ele><time>2026-04-18T17:03:16.999Z</time></trkpt><trkpt lat="37.1191819845321" lon="14.851516738110458"><ele>905.0</ele><time>2026-04-18T17:03:17.999Z</time></trkpt><trkpt lat="37.11927547615408" lon="14.851849422494269"><ele>903.5</ele><time>2026-04-18T17:03:18.999Z</time></trkpt><trkpt lat="37.11936083193198" lon="14.852184876875624"><ele>902.0</ele><time>2026-04-18T17:03:19.999Z</time></trkpt><trkpt lat="37.11944399979964" lon="14.852522465971708"><ele>900.5</ele><time>2026-04-18T17:03:20.999Z</time></trkpt><trkpt lat="37.11952570026987" lon="14.852858678836157"><ele>899.0</ele><time>2026-04-18T17:03:21.999Z</time></trkpt><trkpt lat="37.119606953097424" lon="14.85319033105357"><ele>898.5</ele><time>2026-04-18T17:03:22.999Z</time></trkpt><trkpt lat="37.11968796958237" lon="14.853517130815831"><ele>898.0</ele><time>2026-04-18T17:03:23.999Z</time></trkpt><trkpt lat="37.11976659653193" lon="14.853836958521972"><ele>898.0</ele><time>2026-04-18T17:03:24.999Z</time></trkpt><trkpt lat="37.11984575547442" lon="14.854155633907693"><ele>898.0</ele><time>2026-04-18T17:03:25.999Z</time></trkpt><trkpt lat="37.11992357243259" lon="14.854469057658187"><ele>898.0</ele><time>2026-04-18T17:03:26.999Z</time></trkpt><trkpt lat="37.12000150202059" lon="14.854781768957757"><ele>898.0</ele><time>2026-04-18T17:03:27.999Z</time></trkpt><trkpt lat="37.12007743947898" lon="14.855091244117558"><ele>898.0</ele><time>2026-04-18T17:03:28.999Z</time></trkpt><trkpt lat="37.12015500339275" lon="14.85540059344922"><ele>898.0</ele><time>2026-04-18T17:03:29.999Z</time></trkpt><trkpt lat="37.120233271510614" lon="14.855710830219394"><ele>897.0</ele><time>2026-04-18T17:03:30.999Z</time></trkpt><trkpt lat="37.120308981367025" lon="14.856029558032999"><ele>896.0</ele><time>2026-04-18T17:03:31.999Z</time></trkpt><trkpt lat="37.12038878540173" lon="14.856349071972442"><ele>896.0</ele><time>2026-04-18T17:03:32.999Z</time></trkpt><trkpt lat="37.12046531029235" lon="14.856657324410335"><ele>896.0</ele><time>2026-04-18T17:03:33.999Z</time></trkpt><trkpt lat="37.12054517947551" lon="14.856980291072539"><ele>894.5</ele><time>2026-04-18T17:03:34.999Z</time></trkpt><trkpt lat="37.12062498244413" lon="14.857302108112567"><ele>893.0</ele><time>2026-04-18T17:03:35.999Z</time></trkpt><trkpt lat="37.12070429230007" lon="14.857624504331573"><ele>892.0</ele><time>2026-04-18T17:03:36.999Z</time></trkpt><trkpt lat="37.12078242810899" lon="14.857951336289805"><ele>891.0</ele><time>2026-04-18T17:03:37.999Z</time></trkpt><trkpt lat="37.12086031630462" lon="14.858276220571732"><ele>891.0</ele><time>2026-04-18T17:03:38.999Z</time></trkpt><trkpt lat="37.1209318730467" lon="14.858606088176726"><ele>891.0</ele><time>2026-04-18T17:03:39.999Z</time></trkpt><trkpt lat="37.12099615431686" lon="14.858937054654414"><ele>891.0</ele><time>2026-04-18T17:03:40.999Z</time></trkpt><trkpt lat="37.12103356975907" lon="14.859275897581236"><ele>891.0</ele><time>2026-04-18T17:03:41.999Z</time></trkpt><trkpt lat="37.121038482147995" lon="14.859619305383047"><ele>891.0</ele><time>2026-04-18T17:03:42.999Z</time></trkpt><trkpt lat="37.12101329821428" lon="14.859954832951178"><ele>891.0</ele><time>2026-04-18T17:03:43.999Z</time></trkpt><trkpt lat="37.12095763879168" lon="14.860280807840153"><ele>890.5</ele><time>2026-04-18T17:03:44.999Z</time></trkpt><trkpt lat="37.12087629052832" lon="14.8605941654982"><ele>890.0</ele><time>2026-04-18T17:03:45.999Z</time></trkpt><trkpt lat="37.120773910379015" lon="14.860893506104077"><ele>889.0</ele><time>2026-04-18T17:03:46.999Z</time></trkpt><trkpt lat="37.12065102570711" lon="14.861178093723039"><ele>888.0</ele><time>2026-04-18T17:03:47.999Z</time></trkpt><trkpt lat="37.12051050328543" lon="14.861446592601062"><ele>888.0</ele><time>2026-04-18T17:03:48.999Z</time></trkpt><trkpt lat="37.1203512266644" lon="14.861698219661038"><ele>888.0</ele><time>2026-04-18T17:03:49.999Z</time></trkpt><trkpt lat="37.120176316076375" lon="14.861923998823348"><ele>887.0</ele><time>2026-04-18T17:03:50.999Z</time></trkpt><trkpt lat="37.11998439112169" lon="14.862132081716068"><ele>886.0</ele><time>2026-04-18T17:03:51.999Z</time></trkpt><trkpt lat="37.119775294876945" lon="14.862316799373101"><ele>886.0</ele><time>2026-04-18T17:03:52.999Z</time></trkpt><trkpt lat="37.11956119651932" lon="14.862485679370732"><ele>886.0</ele><time>2026-04-18T17:03:53.999Z</time></trkpt><trkpt lat="37.119340742671845" lon="14.862660795294845"><ele>886.5</ele><time>2026-04-18T17:03:54.999Z</time></trkpt><trkpt lat="37.119116927346504" lon="14.862847557542755"><ele>887.0</ele><time>2026-04-18T17:03:55.999Z</time></trkpt><trkpt lat="37.11889725328003" lon="14.863020885914626"><ele>887.0</ele><time>2026-04-18T17:03:56.999Z</time></trkpt><trkpt lat="37.118676228325036" lon="14.863194795699489"><ele>887.0</ele><time>2026-04-18T17:03:57.999Z</time></trkpt><trkpt lat="37.11845291253456" lon="14.863370159455684"><ele>888.0</ele><time>2026-04-18T17:03:58.999Z</time></trkpt><trkpt lat="37.11823056278128" lon="14.86354771107174"><ele>889.0</ele><time>2026-04-18T17:03:59.999Z</time></trkpt><trkpt lat="37.118007065658084" lon="14.863728969497359"><ele>889.0</ele><time>2026-04-18T17:04:00.999Z</time></trkpt><trkpt lat="37.117788530736476" lon="14.863905777822392"><ele>889.0</ele><time>2026-04-18T17:04:01.999Z</time></trkpt><trkpt lat="37.11756003343323" lon="14.864085427698628"><ele>890.0</ele><time>2026-04-18T17:04:02.999Z</time></trkpt><trkpt lat="37.117331483824294" lon="14.864260332451554"><ele>891.0</ele><time>2026-04-18T17:04:03.999Z</time></trkpt><trkpt lat="37.1170964969872" lon="14.86441703371802"><ele>888.5</ele><time>2026-04-18T17:04:04.999Z</time></trkpt><trkpt lat="37.116850167259614" lon="14.864555164482942"><ele>886.0</ele><time>2026-04-18T17:04:05.999Z</time></trkpt><trkpt lat="37.11659498372447" lon="14.864676077528182"><ele>884.5</ele><time>2026-04-18T17:04:06.999Z</time></trkpt><trkpt lat="37.116333641069" lon="14.864782267944374"><ele>883.0</ele><time>2026-04-18T17:04:07.999Z</time></trkpt><trkpt lat="37.11606541508653" lon="14.864869276409639"><ele>883.0</ele><time>2026-04-18T17:04:08.999Z</time></trkpt><trkpt lat="37.11578699102409" lon="14.86494616981003"><ele>883.0</ele><time>2026-04-18T17:04:09.999Z</time></trkpt><trkpt lat="37.11550429729802" lon="14.865018548974204"><ele>882.0</ele><time>2026-04-18T17:04:10.999Z</time></trkpt><trkpt lat="37.11522655971994" lon="14.865085964743596"><ele>881.0</ele><time>2026-04-18T17:04:11.999Z</time></trkpt><trkpt lat="37.11495723202088" lon="14.86515567079459"><ele>877.0</ele><time>2026-04-18T17:04:12.999Z</time></trkpt><trkpt lat="37.114697013235514" lon="14.865220900078368"><ele>873.0</ele><time>2026-04-18T17:04:13.999Z</time></trkpt><trkpt lat="37.11443854227108" lon="14.865299940611148"><ele>873.0</ele><time>2026-04-18T17:04:14.999Z</time></trkpt><trkpt lat="37.11418697486571" lon="14.865402083530535"><ele>873.0</ele><time>2026-04-18T17:04:16Z</time></trkpt><trkpt lat="37.11394438060574" lon="14.865525554884359"><ele>871.0</ele><time>2026-04-18T17:04:17Z</time></trkpt><trkpt lat="37.11371608296778" lon="14.865667742037301"><ele>869.0</ele><time>2026-04-18T17:04:18Z</time></trkpt><trkpt lat="37.11350008413247" lon="14.865825396369699"><ele>870.0</ele><time>2026-04-18T17:04:19Z</time></trkpt><trkpt lat="37.113298350249146" lon="14.866002340073736"><ele>871.0</ele><time>2026-04-18T17:04:20Z</time></trkpt><trkpt lat="37.113113600877625" lon="14.866193918271527"><ele>871.0</ele><time>2026-04-18T17:04:21Z</time></trkpt><trkpt lat="37.11294714500324" lon="14.866391560818622"><ele>871.0</ele><time>2026-04-18T17:04:22Z</time></trkpt><trkpt lat="37.11279539833452" lon="14.866597484885459"><ele>869.0</ele><time>2026-04-18T17:04:23Z</time></trkpt><trkpt lat="37.11265555892544" lon="14.866809653943433"><ele>867.0</ele><time>2026-04-18T17:04:24Z</time></trkpt><trkpt lat="37.11252740473811" lon="14.867040278454072"><ele>865.0</ele><time>2026-04-18T17:04:25Z</time></trkpt><trkpt lat="37.1124084864283" lon="14.867272146249258"><ele>865.3333333333333</ele><time>2026-04-18T17:04:26Z</time></trkpt><trkpt lat="37.11229977728452" lon="14.867490780171536"><ele>865.6666666666667</ele><time>2026-04-18T17:04:27Z</time></trkpt><trkpt lat="37.112201257899805" lon="14.867699068886271"><ele>866.0</ele><time>2026-04-18T17:04:28Z</time></trkpt><trkpt lat="37.11211780911061" lon="14.867889983774642"><ele>866.0</ele><time>2026-04-18T17:04:29Z</time></trkpt><trkpt lat="37.112062483343266" lon="14.868049309547983"><ele>866.0</ele><time>2026-04-18T17:04:30Z</time></trkpt><trkpt lat="37.11202275148136" lon="14.86820049228571"><ele>866.0</ele><time>2026-04-18T17:04:31Z</time></trkpt><trkpt lat="37.11196588864346" lon="14.868339973539621"><ele>866.0</ele><time>2026-04-18T17:04:32Z</time></trkpt><trkpt lat="37.111873963893146" lon="14.868464598353397"><ele>865.3333333333334</ele><time>2026-04-18T17:04:33Z</time></trkpt><trkpt lat="37.11176365231124" lon="14.86859527268494"><ele>864.6666666666667</ele><time>2026-04-18T17:04:34Z</time></trkpt><trkpt lat="37.11164949963239" lon="14.868749385888188"><ele>864.0</ele><time>2026-04-18T17:04:35Z</time></trkpt><trkpt lat="37.111527231884445" lon="14.868920879229691"><ele>864.0</ele><time>2026-04-18T17:04:36Z</time></trkpt><trkpt lat="37.111408005097175" lon="14.869093344614928"><ele>864.0</ele><time>2026-04-18T17:04:37Z</time></trkpt><trkpt lat="37.11128167842473" lon="14.869273856846432"><ele>864.0</ele><time>2026-04-18T17:04:38Z</time></trkpt><trkpt lat="37.1111523492767" lon="14.869462126627853"><ele>861.3333333333333</ele><time>2026-04-18T17:04:39Z</time></trkpt><trkpt lat="37.111015631108216" lon="14.869651735507428"><ele>858.6666666666666</ele><time>2026-04-18T17:04:40Z</time></trkpt><trkpt lat="37.11087219660773" lon="14.869849319324517"><ele>856.0</ele><time>2026-04-18T17:04:41Z</time></trkpt><trkpt lat="37.110724986207536" lon="14.870052239515863"><ele>852.0</ele><time>2026-04-18T17:04:42Z</time></trkpt><trkpt lat="37.110575556778876" lon="14.870261045819388"><ele>848.0</ele><time>2026-04-18T17:04:43Z</time></trkpt><trkpt lat="37.11042244761078" lon="14.87047460949053"><ele>848.0</ele><time>2026-04-18T17:04:44Z</time></trkpt><trkpt lat="37.11026725162696" lon="14.870687440695189"><ele>848.0</ele><time>2026-04-18T17:04:45Z</time></trkpt><trkpt lat="37.11011244126052" lon="14.87090206588536"><ele>847.0</ele><time>2026-04-18T17:04:46Z</time></trkpt><trkpt lat="37.10995641317824" lon="14.871120502380178"><ele>846.0</ele><time>2026-04-18T17:04:47Z</time></trkpt><trkpt lat="37.109799887140525" lon="14.87134171815677"><ele>846.0</ele><time>2026-04-18T17:04:48Z</time></trkpt><trkpt lat="37.10964019070828" lon="14.871565659962732"><ele>846.0</ele><time>2026-04-18T17:04:49Z</time></trkpt><trkpt lat="37.109480275929776" lon="14.871789170406064"><ele>844.0</ele><time>2026-04-18T17:04:50Z</time></trkpt><trkpt lat="37.10932088526652" lon="14.872010646950605"><ele>842.0</ele><time>2026-04-18T17:04:51Z</time></trkpt><trkpt lat="37.10916631748926" lon="14.872226919948739"><ele>842.3333333333334</ele><time>2026-04-18T17:04:52Z</time></trkpt><trkpt lat="37.10902124419569" lon="14.872431297029642"><ele>842.6666666666667</ele><time>2026-04-18T17:04:53Z</time></trkpt><trkpt lat="37.108886893705964" lon="14.872621891415923"><ele>843.0</ele><time>2026-04-18T17:04:54Z</time></trkpt><trkpt lat="37.108768968057525" lon="14.872797159708723"><ele>841.5</ele><time>2026-04-18T17:04:55Z</time></trkpt><trkpt lat="37.108661249204" lon="14.872950955635629"><ele>840.0</ele><time>2026-04-18T17:04:56Z</time></trkpt><trkpt lat="37.108610846199795" lon="14.873125493628015"><ele>838.5</ele><time>2026-04-18T17:04:57Z</time></trkpt><trkpt lat="37.10856118359384" lon="14.87326824499246"><ele>837.0</ele><time>2026-04-18T17:04:58Z</time></trkpt><trkpt lat="37.108514835591706" lon="14.873373922371705"><ele>837.0</ele><time>2026-04-18T17:04:59Z</time></trkpt><trkpt lat="37.10843686946735" lon="14.87342525254986"><ele>837.0</ele><time>2026-04-18T17:05:00Z</time></trkpt><trkpt lat="37.10836003802771" lon="14.873461968616605"><ele>837.0</ele><time>2026-04-18T17:05:01Z</time></trkpt><trkpt lat="37.10827057801046" lon="14.873436835570807"><ele>837.0</ele><time>2026-04-18T17:05:02Z</time></trkpt><trkpt lat="37.10818748276549" lon="14.873367136794444"><ele>837.0</ele><time>2026-04-18T17:05:03Z</time></trkpt><trkpt lat="37.10812699321208" lon="14.873261950224867"><ele>835.5</ele><time>2026-04-18T17:05:04Z</time></trkpt><trkpt lat="37.1080828480484" lon="14.873133025989524"><ele>834.0</ele><time>2026-04-18T17:05:05Z</time></trkpt><trkpt lat="37.10803287984743" lon="14.87299115687969"><ele>832.5</ele><time>2026-04-18T17:05:06Z</time></trkpt><trkpt lat="37.107970392695506" lon="14.872832344693212"><ele>831.0</ele><time>2026-04-18T17:05:07Z</time></trkpt><trkpt lat="37.107907218494496" lon="14.872657719666961"><ele>831.6666666666667</ele><time>2026-04-18T17:05:08Z</time></trkpt><trkpt lat="37.107843383486674" lon="14.872471078018863"><ele>832.3333333333334</ele><time>2026-04-18T17:05:09Z</time></trkpt><trkpt lat="37.107772279440454" lon="14.872281553392762"><ele>833.0</ele><time>2026-04-18T17:05:10Z</time></trkpt><trkpt lat="37.1076663382182" lon="14.872111600027074"><ele>833.0</ele><time>2026-04-18T17:05:11Z</time></trkpt><trkpt lat="37.10755718128196" lon="14.871968641693305"><ele>833.0</ele><time>2026-04-18T17:05:11.999Z</time></trkpt><trkpt lat="37.10744139758253" lon="14.871839996251197"><ele>833.0</ele><time>2026-04-18T17:05:12.999Z</time></trkpt><trkpt lat="37.10733174653511" lon="14.871724734475936"><ele>831.75</ele><time>2026-04-18T17:05:13.999Z</time></trkpt><trkpt lat="37.10725981805792" lon="14.871592151790608"><ele>830.5</ele><time>2026-04-18T17:05:14.999Z</time></trkpt><trkpt lat="37.10723476162139" lon="14.871426263725507"><ele>829.25</ele><time>2026-04-18T17:05:15.999Z</time></trkpt><trkpt lat="37.10722375864662" lon="14.871241898370773"><ele>828.0</ele><time>2026-04-18T17:05:16.999Z</time></trkpt><trkpt lat="37.10720495022029" lon="14.871043235124333"><ele>828.6666666666667</ele><time>2026-04-18T17:05:17.999Z</time></trkpt><trkpt lat="37.10717817445596" lon="14.87084029978072"><ele>829.3333333333334</ele><time>2026-04-18T17:05:18.999Z</time></trkpt><trkpt lat="37.107150213538816" lon="14.870643466089772"><ele>830.0</ele><time>2026-04-18T17:05:19.999Z</time></trkpt><trkpt lat="37.10712499816612" lon="14.87046723743076"><ele>830.0</ele><time>2026-04-18T17:05:20.999Z</time></trkpt><trkpt lat="37.10709711457234" lon="14.870307172392131"><ele>830.0</ele><time>2026-04-18T17:05:21.999Z</time></trkpt><trkpt lat="37.10703826475865" lon="14.870183733822257"><ele>830.0</ele><time>2026-04-18T17:05:22.999Z</time></trkpt><trkpt lat="37.1069655475506" lon="14.870085536587993"><ele>830.0</ele><time>2026-04-18T17:05:23.999Z</time></trkpt><trkpt lat="37.10684801714921" lon="14.870098061242897"><ele>830.0</ele><time>2026-04-18T17:05:24.999Z</time></trkpt><trkpt lat="37.10674877653167" lon="14.87014605185159"><ele>830.0</ele><time>2026-04-18T17:05:25.999Z</time></trkpt><trkpt lat="37.106646232503344" lon="14.870238762083392"><ele>830.0</ele><time>2026-04-18T17:05:26.999Z</time></trkpt><trkpt lat="37.106526345000404" lon="14.870361719681153"><ele>830.0</ele><time>2026-04-18T17:05:27.999Z</time></trkpt><trkpt lat="37.10638051050542" lon="14.870502840794561"><ele>830.3333333333334</ele><time>2026-04-18T17:05:28.999Z</time></trkpt><trkpt lat="37.10623033128779" lon="14.870639096376342"><ele>830.6666666666667</ele><time>2026-04-18T17:05:29.999Z</time></trkpt><trkpt lat="37.106089860256795" lon="14.870767813246518"><ele>831.0</ele><time>2026-04-18T17:05:30.999Z</time></trkpt><trkpt lat="37.10596152177002" lon="14.870890362061466"><ele>830.0</ele><time>2026-04-18T17:05:31.999Z</time></trkpt><trkpt lat="37.10583881188382" lon="14.87101518933016"><ele>829.0</ele><time>2026-04-18T17:05:32.999Z</time></trkpt><trkpt lat="37.105738753366545" lon="14.871159153970805"><ele>828.0</ele><time>2026-04-18T17:05:33.999Z</time></trkpt><trkpt lat="37.105642594531126" lon="14.87132008067532"><ele>828.0</ele><time>2026-04-18T17:05:34.999Z</time></trkpt><trkpt lat="37.10565223895233" lon="14.871461209137804"><ele>828.0</ele><time>2026-04-18T17:05:35.999Z</time></trkpt><trkpt lat="37.105677750845224" lon="14.871650866567089"><ele>828.0</ele><time>2026-04-18T17:05:36.999Z</time></trkpt><trkpt lat="37.105720363872805" lon="14.871842453405035"><ele>828.0</ele><time>2026-04-18T17:05:37.999Z</time></trkpt><trkpt lat="37.10578796495978" lon="14.87201081327099"><ele>827.5</ele><time>2026-04-18T17:05:38.999Z</time></trkpt><trkpt lat="37.105869389227934" lon="14.872155372839073"><ele>827.0</ele><time>2026-04-18T17:05:39.999Z</time></trkpt><trkpt lat="37.10593580203053" lon="14.872295290981032"><ele>826.5</ele><time>2026-04-18T17:05:40.999Z</time></trkpt><trkpt lat="37.10595874239956" lon="14.872445088660875"><ele>826.0</ele><time>2026-04-18T17:05:41.999Z</time></trkpt><trkpt lat="37.10587777670754" lon="14.872589652680325"><ele>825.0</ele><time>2026-04-18T17:05:42.999Z</time></trkpt><trkpt lat="37.10579267600715" lon="14.872746874612883"><ele>824.0</ele><time>2026-04-18T17:05:43.999Z</time></trkpt><trkpt lat="37.1056947543605" lon="14.872942238380794"><ele>823.0</ele><time>2026-04-18T17:05:44.999Z</time></trkpt><trkpt lat="37.10559351305576" lon="14.873148946222676"><ele>823.0</ele><time>2026-04-18T17:05:45.999Z</time></trkpt><trkpt lat="37.10551516967564" lon="14.873350037586825"><ele>823.0</ele><time>2026-04-18T17:05:46.999Z</time></trkpt><trkpt lat="37.105390960201845" lon="14.873513349791715"><ele>823.0</ele><time>2026-04-18T17:05:47.999Z</time></trkpt><trkpt lat="37.105266951515354" lon="14.873692958576502"><ele>820.3333333333333</ele><time>2026-04-18T17:05:48.999Z</time></trkpt><trkpt lat="37.1051357385545" lon="14.873882629823752"><ele>817.6666666666667</ele><time>2026-04-18T17:05:49.999Z</time></trkpt><trkpt lat="37.10500067542291" lon="14.874075819193154"><ele>815.0</ele><time>2026-04-18T17:05:50.999Z</time></trkpt><trkpt lat="37.10487723913354" lon="14.87428371787078"><ele>811.6666666666667</ele><time>2026-04-18T17:05:51.999Z</time></trkpt><trkpt lat="37.104742044042155" lon="14.874478491701026"><ele>808.3333333333333</ele><time>2026-04-18T17:05:52.999Z</time></trkpt><trkpt lat="37.1046161759175" lon="14.8746615946831"><ele>805.0</ele><time>2026-04-18T17:05:53.999Z</time></trkpt><trkpt lat="37.104508145864855" lon="14.87485276440825"><ele>805.0</ele><time>2026-04-18T17:05:54.999Z</time></trkpt><trkpt lat="37.10442295510717" lon="14.875045370896151"><ele>805.0</ele><time>2026-04-18T17:05:55.999Z</time></trkpt><trkpt lat="37.10430050238034" lon="14.87520909081829"><ele>805.0</ele><time>2026-04-18T17:05:56.999Z</time></trkpt><trkpt lat="37.104157057232094" lon="14.875348524726608"><ele>807.3333333333333</ele><time>2026-04-18T17:05:57.999Z</time></trkpt><trkpt lat="37.10401016462558" lon="14.87549676368172"><ele>809.6666666666667</ele><time>2026-04-18T17:05:58.999Z</time></trkpt><trkpt lat="37.1038410509462" lon="14.875603172473332"><ele>812.0</ele><time>2026-04-18T17:05:59.999Z</time></trkpt><trkpt lat="37.10366300973348" lon="14.87567676696298"><ele>812.0</ele><time>2026-04-18T17:06:00.999Z</time></trkpt><trkpt lat="37.10347294760033" lon="14.875721197120743"><ele>812.0</ele><time>2026-04-18T17:06:01.999Z</time></trkpt><trkpt lat="37.10327451588017" lon="14.875732630621878"><ele>812.0</ele><time>2026-04-18T17:06:02.999Z</time></trkpt><trkpt lat="37.10306991162959" lon="14.875720772649503"><ele>812.0</ele><time>2026-04-18T17:06:03.999Z</time></trkpt><trkpt lat="37.102857411366664" lon="14.875696935679075"><ele>812.0</ele><time>2026-04-18T17:06:04.999Z</time></trkpt><trkpt lat="37.102634499143605" lon="14.875674794905663"><ele>812.0</ele><time>2026-04-18T17:06:05.999Z</time></trkpt><trkpt lat="37.10240928491214" lon="14.87564430020892"><ele>812.0</ele><time>2026-04-18T17:06:06.999Z</time></trkpt><trkpt lat="37.10218688413375" lon="14.875594528784198"><ele>812.0</ele><time>2026-04-18T17:06:07.999Z</time></trkpt><trkpt lat="37.10198163703573" lon="14.875519546735271"><ele>812.0</ele><time>2026-04-18T17:06:08.999Z</time></trkpt><trkpt lat="37.10179007856214" lon="14.875426271740157"><ele>812.0</ele><time>2026-04-18T17:06:09.999Z</time></trkpt><trkpt lat="37.10160279803931" lon="14.875321712498726"><ele>812.0</ele><time>2026-04-18T17:06:10.999Z</time></trkpt><trkpt lat="37.101411786775174" lon="14.875223567418447"><ele>812.0</ele><time>2026-04-18T17:06:11.999Z</time></trkpt><trkpt lat="37.10120580758636" lon="14.875150426304351"><ele>809.6666666666667</ele><time>2026-04-18T17:06:12.999Z</time></trkpt><trkpt lat="37.10099059157623" lon="14.875123295791875"><ele>807.3333333333333</ele><time>2026-04-18T17:06:13.999Z</time></trkpt><trkpt lat="37.10077348043331" lon="14.875152378160783"><ele>805.0</ele><time>2026-04-18T17:06:14.999Z</time></trkpt><trkpt lat="37.100568733776726" lon="14.875224928987281"><ele>798.3333333333333</ele><time>2026-04-18T17:06:15.999Z</time></trkpt><trkpt lat="37.100378671724684" lon="14.875346944168411"><ele>791.6666666666667</ele><time>2026-04-18T17:06:16.999Z</time></trkpt><trkpt lat="37.100204171912885" lon="14.875524216715766"><ele>785.0</ele><time>2026-04-18T17:06:17.999Z</time></trkpt><trkpt lat="37.1000448260249" lon="14.875731305836037"><ele>780.5</ele><time>2026-04-18T17:06:18.999Z</time></trkpt><trkpt lat="37.099886899890066" lon="14.875952871600097"><ele>776.0</ele><time>2026-04-18T17:06:19.999Z</time></trkpt><trkpt lat="37.09971923408124" lon="14.876175861547837"><ele>776.0</ele><time>2026-04-18T17:06:20.999Z</time></trkpt><trkpt lat="37.09954658347141" lon="14.876395661758542"><ele>776.0</ele><time>2026-04-18T17:06:22Z</time></trkpt><trkpt lat="37.09937435387589" lon="14.876606555095897"><ele>773.5</ele><time>2026-04-18T17:06:23Z</time></trkpt><trkpt lat="37.0992055208881" lon="14.876808455022474"><ele>771.0</ele><time>2026-04-18T17:06:24Z</time></trkpt><trkpt lat="37.09904174603125" lon="14.877006126399712"><ele>769.3333333333334</ele><time>2026-04-18T17:06:25Z</time></trkpt><trkpt lat="37.09888368604623" lon="14.877197769395972"><ele>767.6666666666667</ele><time>2026-04-18T17:06:26Z</time></trkpt><trkpt lat="37.09874389839048" lon="14.877387945626086"><ele>766.0</ele><time>2026-04-18T17:06:27Z</time></trkpt><trkpt lat="37.09863535004174" lon="14.877576385359948"><ele>765.6666666666667</ele><time>2026-04-18T17:06:28Z</time></trkpt><trkpt lat="37.09856384441957" lon="14.877797840262234"><ele>765.3333333333334</ele><time>2026-04-18T17:06:29Z</time></trkpt><trkpt lat="37.098536999419274" lon="14.87802969381071"><ele>765.0</ele><time>2026-04-18T17:06:30Z</time></trkpt><trkpt lat="37.09853584976886" lon="14.87828898614149"><ele>766.3333333333333</ele><time>2026-04-18T17:06:31Z</time></trkpt><trkpt lat="37.0985540941853" lon="14.87855555049807"><ele>767.6666666666666</ele><time>2026-04-18T17:06:32Z</time></trkpt><trkpt lat="37.098585782204445" lon="14.878807877150157"><ele>769.0</ele><time>2026-04-18T17:06:33Z</time></trkpt><trkpt lat="37.098610437450354" lon="14.879042485135063"><ele>765.6666666666666</ele><time>2026-04-18T17:06:34Z</time></trkpt><trkpt lat="37.098603375968935" lon="14.879278842860131"><ele>762.3333333333333</ele><time>2026-04-18T17:06:35Z</time></trkpt><trkpt lat="37.098565793724696" lon="14.87952012888969"><ele>759.0</ele><time>2026-04-18T17:06:36Z</time></trkpt><trkpt lat="37.09850431827323" lon="14.879743696830907"><ele>759.0</ele><time>2026-04-18T17:06:37Z</time></trkpt><trkpt lat="37.09839573474742" lon="14.879940463207769"><ele>759.0</ele><time>2026-04-18T17:06:38Z</time></trkpt><trkpt lat="37.09829857483464" lon="14.880159124865669"><ele>759.0</ele><time>2026-04-18T17:06:39Z</time></trkpt><trkpt lat="37.098226691726765" lon="14.88038575341816"><ele>756.0</ele><time>2026-04-18T17:06:40Z</time></trkpt><trkpt lat="37.09820103031526" lon="14.880638986772277"><ele>753.0</ele><time>2026-04-18T17:06:41Z</time></trkpt><trkpt lat="37.09821651102053" lon="14.88089264578924"><ele>750.0</ele><time>2026-04-18T17:06:42Z</time></trkpt><trkpt lat="37.098256771408046" lon="14.881128163505803"><ele>748.3333333333334</ele><time>2026-04-18T17:06:43Z</time></trkpt><trkpt lat="37.098297852011264" lon="14.881349259707553"><ele>746.6666666666667</ele><time>2026-04-18T17:06:44Z</time></trkpt><trkpt lat="37.09828982046571" lon="14.881556374846202"><ele>745.0</ele><time>2026-04-18T17:06:45Z</time></trkpt><trkpt lat="37.098254355594584" lon="14.881740624205522"><ele>739.25</ele><time>2026-04-18T17:06:46Z</time></trkpt><trkpt lat="37.09817612684543" lon="14.881884015569575"><ele>733.5</ele><time>2026-04-18T17:06:47Z</time></trkpt><trkpt lat="37.09806883431236" lon="14.881990621796414"><ele>727.75</ele><time>2026-04-18T17:06:48Z</time></trkpt><trkpt lat="37.09794040682586" lon="14.882065342315414"><ele>722.0</ele><time>2026-04-18T17:06:49Z</time></trkpt><trkpt lat="37.09779851427528" lon="14.88207264024409"><ele>722.0</ele><time>2026-04-18T17:06:50Z</time></trkpt><trkpt lat="37.097665669289505" lon="14.882022490997434"><ele>722.0</ele><time>2026-04-18T17:06:51Z</time></trkpt><trkpt lat="37.097551711553706" lon="14.881904507585205"><ele>722.0</ele><time>2026-04-18T17:06:52Z</time></trkpt><trkpt lat="37.097418254078036" lon="14.881789220102727"><ele>722.0</ele><time>2026-04-18T17:06:53Z</time></trkpt><trkpt lat="37.09729314092435" lon="14.881627014907686"><ele>716.3333333333333</ele><time>2026-04-18T17:06:54Z</time></trkpt><trkpt lat="37.09715743436883" lon="14.881460424545187"><ele>710.6666666666666</ele><time>2026-04-18T17:06:55Z</time></trkpt><trkpt lat="37.097009002939785" lon="14.881292234447923"><ele>705.0</ele><time>2026-04-18T17:06:56Z</time></trkpt><trkpt lat="37.09685963793549" lon="14.881115006517097"><ele>702.0</ele><time>2026-04-18T17:06:57Z</time></trkpt><trkpt lat="37.09671281519634" lon="14.880912897540851"><ele>699.0</ele><time>2026-04-18T17:06:58Z</time></trkpt><trkpt lat="37.096587384948215" lon="14.880683463355048"><ele>696.0</ele><time>2026-04-18T17:06:59Z</time></trkpt><trkpt lat="37.09648450517161" lon="14.880427278914821"><ele>696.0</ele><time>2026-04-18T17:07:00Z</time></trkpt><trkpt lat="37.0964038730457" lon="14.88015669175592"><ele>696.0</ele><time>2026-04-18T17:07:01Z</time></trkpt><trkpt lat="37.09633506289247" lon="14.879886165701613"><ele>699.5</ele><time>2026-04-18T17:07:02Z</time></trkpt><trkpt lat="37.09626164713463" lon="14.879603322516822"><ele>703.0</ele><time>2026-04-18T17:07:03Z</time></trkpt><trkpt lat="37.0961860180235" lon="14.879330784870078"><ele>705.6666666666667</ele><time>2026-04-18T17:07:04Z</time></trkpt><trkpt lat="37.096114311797166" lon="14.879068824185975"><ele>708.3333333333334</ele><time>2026-04-18T17:07:05Z</time></trkpt><trkpt lat="37.096053885488686" lon="14.878815288274652"><ele>711.0</ele><time>2026-04-18T17:07:06Z</time></trkpt><trkpt lat="37.096047411142656" lon="14.878555243890494"><ele>712.0</ele><time>2026-04-18T17:07:07Z</time></trkpt><trkpt lat="37.0960521984609" lon="14.878296439336605"><ele>713.0</ele><time>2026-04-18T17:07:08Z</time></trkpt><trkpt lat="37.09605499881099" lon="14.878056286491157"><ele>714.0</ele><time>2026-04-18T17:07:09Z</time></trkpt><trkpt lat="37.09605703272968" lon="14.877819727848625"><ele>714.3333333333334</ele><time>2026-04-18T17:07:10Z</time></trkpt><trkpt lat="37.09602050696633" lon="14.877591574383832"><ele>714.6666666666667</ele><time>2026-04-18T17:07:11Z</time></trkpt><trkpt lat="37.09594189367371" lon="14.877375046216546"><ele>715.0</ele><time>2026-04-18T17:07:12Z</time></trkpt><trkpt lat="37.0958276615403" lon="14.877169778182264"><ele>713.6666666666667</ele><time>2026-04-18T17:07:13Z</time></trkpt><trkpt lat="37.095686911674505" lon="14.87698377144267"><ele>712.3333333333334</ele><time>2026-04-18T17:07:14Z</time></trkpt><trkpt lat="37.095520978618865" lon="14.876819772242085"><ele>711.0</ele><time>2026-04-18T17:07:14.999Z</time></trkpt><trkpt lat="37.0953390559073" lon="14.8766716327954"><ele>711.0</ele><time>2026-04-18T17:07:15.999Z</time></trkpt><trkpt lat="37.09514851746372" lon="14.876526656036683"><ele>711.0</ele><time>2026-04-18T17:07:16.999Z</time></trkpt><trkpt lat="37.09495860054993" lon="14.876377175792394"><ele>711.0</ele><time>2026-04-18T17:07:17.999Z</time></trkpt><trkpt lat="37.09477079119821" lon="14.876222753601617"><ele>709.6666666666666</ele><time>2026-04-18T17:07:18.999Z</time></trkpt><trkpt lat="37.09459210819846" lon="14.876064597137532"><ele>708.3333333333333</ele><time>2026-04-18T17:07:19.999Z</time></trkpt><trkpt lat="37.09441844129107" lon="14.875915961351064"><ele>707.0</ele><time>2026-04-18T17:07:20.999Z</time></trkpt><trkpt lat="37.09424881784458" lon="14.875775676302545"><ele>708.3333333333333</ele><time>2026-04-18T17:07:21.999Z</time></trkpt><trkpt lat="37.09407410658827" lon="14.87565302393784"><ele>709.6666666666666</ele><time>2026-04-18T17:07:22.999Z</time></trkpt><trkpt lat="37.09389103605957" lon="14.875553783341152"><ele>711.0</ele><time>2026-04-18T17:07:23.999Z</time></trkpt><trkpt lat="37.0936978621293" lon="14.875481604277324"><ele>711.0</ele><time>2026-04-18T17:07:24.999Z</time></trkpt><trkpt lat="37.09349261231062" lon="14.875444617760879"><ele>711.0</ele><time>2026-04-18T17:07:25.999Z</time></trkpt><trkpt lat="37.0932796962666" lon="14.875436622093659"><ele>711.0</ele><time>2026-04-18T17:07:26.999Z</time></trkpt><trkpt lat="37.0930534324368" lon="14.875455148663905"><ele>708.6666666666666</ele><time>2026-04-18T17:07:27.999Z</time></trkpt><trkpt lat="37.092831156670826" lon="14.875503736237032"><ele>706.3333333333333</ele><time>2026-04-18T17:07:28.999Z</time></trkpt><trkpt lat="37.09262756503288" lon="14.875574599408521"><ele>704.0</ele><time>2026-04-18T17:07:29.999Z</time></trkpt><trkpt lat="37.09243177902705" lon="14.875635130946355"><ele>703.0</ele><time>2026-04-18T17:07:30.999Z</time></trkpt><trkpt lat="37.09224731591132" lon="14.875652729581866"><ele>702.0</ele><time>2026-04-18T17:07:31.999Z</time></trkpt><trkpt lat="37.0920610040522" lon="14.875627872328543"><ele>701.0</ele><time>2026-04-18T17:07:32.999Z</time></trkpt><trkpt lat="37.091873709872885" lon="14.875564955983135"><ele>701.0</ele><time>2026-04-18T17:07:33.999Z</time></trkpt><trkpt lat="37.09169456279971" lon="14.875471845871061"><ele>701.0</ele><time>2026-04-18T17:07:34.999Z</time></trkpt><trkpt lat="37.091532826019815" lon="14.875358055489567"><ele>701.0</ele><time>2026-04-18T17:07:35.999Z</time></trkpt><trkpt lat="37.09138228583228" lon="14.875241739965244"><ele>701.6666666666666</ele><time>2026-04-18T17:07:36.999Z</time></trkpt><trkpt lat="37.091218149220076" lon="14.875157649979021"><ele>702.3333333333334</ele><time>2026-04-18T17:07:37.999Z</time></trkpt><trkpt lat="37.09103383426969" lon="14.875121908774755"><ele>703.0</ele><time>2026-04-18T17:07:38.999Z</time></trkpt><trkpt lat="37.09083806955253" lon="14.875128209208523"><ele>700.0</ele><time>2026-04-18T17:07:39.999Z</time></trkpt><trkpt lat="37.090642581502905" lon="14.87517172347991"><ele>697.0</ele><time>2026-04-18T17:07:40.999Z</time></trkpt><trkpt lat="37.09045157585236" lon="14.875254863331419"><ele>694.0</ele><time>2026-04-18T17:07:41.999Z</time></trkpt><trkpt lat="37.09027415714001" lon="14.875359477653136"><ele>694.0</ele><time>2026-04-18T17:07:42.999Z</time></trkpt><trkpt lat="37.09010392734856" lon="14.875454040905373"><ele>694.0</ele><time>2026-04-18T17:07:43.999Z</time></trkpt><trkpt lat="37.089927508243434" lon="14.875524754490732"><ele>694.0</ele><time>2026-04-18T17:07:44.999Z</time></trkpt><trkpt lat="37.08974800190415" lon="14.875572241509168"><ele>691.3333333333334</ele><time>2026-04-18T17:07:45.999Z</time></trkpt><trkpt lat="37.089561302809436" lon="14.87564261979788"><ele>688.6666666666666</ele><time>2026-04-18T17:07:46.999Z</time></trkpt><trkpt lat="37.08932959891921" lon="14.875637162234575"><ele>686.0</ele><time>2026-04-18T17:07:47.999Z</time></trkpt><trkpt lat="37.08909738397847" lon="14.875646038292995"><ele>680.5</ele><time>2026-04-18T17:07:48.999Z</time></trkpt><trkpt lat="37.08886104357945" lon="14.875632315842543"><ele>675.0</ele><time>2026-04-18T17:07:49.999Z</time></trkpt><trkpt lat="37.088620533485546" lon="14.875615783781242"><ele>675.0</ele><time>2026-04-18T17:07:50.999Z</time></trkpt><trkpt lat="37.08838425835867" lon="14.875622844827255"><ele>675.0</ele><time>2026-04-18T17:07:51.999Z</time></trkpt><trkpt lat="37.0881504762015" lon="14.875642710031693"><ele>673.0</ele><time>2026-04-18T17:07:52.999Z</time></trkpt><trkpt lat="37.087920865686826" lon="14.875685206043192"><ele>671.0</ele><time>2026-04-18T17:07:53.999Z</time></trkpt><trkpt lat="37.087695394896954" lon="14.87576450479983"><ele>671.0</ele><time>2026-04-18T17:07:54.999Z</time></trkpt><trkpt lat="37.08747754668286" lon="14.875889060844091"><ele>671.0</ele><time>2026-04-18T17:07:55.999Z</time></trkpt><trkpt lat="37.08727613301925" lon="14.876056165160298"><ele>670.5</ele><time>2026-04-18T17:07:56.999Z</time></trkpt><trkpt lat="37.087094610870466" lon="14.876239721867124"><ele>670.0</ele><time>2026-04-18T17:07:57.999Z</time></trkpt><trkpt lat="37.086905688445064" lon="14.876396922646778"><ele>670.0</ele><time>2026-04-18T17:07:58.999Z</time></trkpt><trkpt lat="37.08669780961167" lon="14.876513470150067"><ele>670.0</ele><time>2026-04-18T17:07:59.999Z</time></trkpt><trkpt lat="37.08647615949388" lon="14.876603413076745"><ele>663.0</ele><time>2026-04-18T17:08:00.999Z</time></trkpt><trkpt lat="37.086249146559894" lon="14.876679176297092"><ele>656.0</ele><time>2026-04-18T17:08:01.999Z</time></trkpt><trkpt lat="37.086018871203976" lon="14.87674867811995"><ele>658.0</ele><time>2026-04-18T17:08:02.999Z</time></trkpt><trkpt lat="37.08579192486386" lon="14.876847606891799"><ele>660.0</ele><time>2026-04-18T17:08:03.999Z</time></trkpt><trkpt lat="37.08557193341408" lon="14.87698950847196"><ele>660.0</ele><time>2026-04-18T17:08:04.999Z</time></trkpt><trkpt lat="37.085355497757504" lon="14.877158223888301"><ele>660.0</ele><time>2026-04-18T17:08:05.999Z</time></trkpt><trkpt lat="37.085133409681525" lon="14.87734408555077"><ele>659.5</ele><time>2026-04-18T17:08:06.999Z</time></trkpt><trkpt lat="37.084898324136404" lon="14.877538866950584"><ele>659.0</ele><time>2026-04-18T17:08:07.999Z</time></trkpt><trkpt lat="37.08466960311122" lon="14.877711409183927"><ele>659.0</ele><time>2026-04-18T17:08:08.999Z</time></trkpt><trkpt lat="37.08444910205495" lon="14.877874263034322"><ele>659.0</ele><time>2026-04-18T17:08:09.999Z</time></trkpt><trkpt lat="37.084242000470994" lon="14.87803521727704"><ele>650.5</ele><time>2026-04-18T17:08:10.999Z</time></trkpt><trkpt lat="37.084041413864405" lon="14.878191326735543"><ele>642.0</ele><time>2026-04-18T17:08:11.999Z</time></trkpt><trkpt lat="37.08384280130201" lon="14.878360495675201"><ele>646.5</ele><time>2026-04-18T17:08:12.999Z</time></trkpt><trkpt lat="37.08364679917472" lon="14.878546812811322"><ele>651.0</ele><time>2026-04-18T17:08:13.999Z</time></trkpt><trkpt lat="37.08346244489382" lon="14.878759299940553"><ele>651.0</ele><time>2026-04-18T17:08:14.999Z</time></trkpt><trkpt lat="37.08328956649031" lon="14.878989262293635"><ele>651.0</ele><time>2026-04-18T17:08:15.999Z</time></trkpt><trkpt lat="37.083121286531664" lon="14.879223971144437"><ele>648.5</ele><time>2026-04-18T17:08:16.999Z</time></trkpt><trkpt lat="37.08294481569975" lon="14.879456880832684"><ele>646.0</ele><time>2026-04-18T17:08:17.999Z</time></trkpt><trkpt lat="37.082753794097" lon="14.87966445204186"><ele>646.0</ele><time>2026-04-18T17:08:18.999Z</time></trkpt><trkpt lat="37.08254309169273" lon="14.879850900778601"><ele>646.0</ele><time>2026-04-18T17:08:19.999Z</time></trkpt><trkpt lat="37.08231687820218" lon="14.880014499675424"><ele>644.0</ele><time>2026-04-18T17:08:20.999Z</time></trkpt><trkpt lat="37.08208272623952" lon="14.880179781250916"><ele>642.0</ele><time>2026-04-18T17:08:21.999Z</time></trkpt><trkpt lat="37.08183321006486" lon="14.880356577520837"><ele>633.5</ele><time>2026-04-18T17:08:22.998Z</time></trkpt><trkpt lat="37.08156921645286" lon="14.880542863533234"><ele>625.0</ele><time>2026-04-18T17:08:23.998Z</time></trkpt><trkpt lat="37.08132067125396" lon="14.880716685290324"><ele>625.0</ele><time>2026-04-18T17:08:24.998Z</time></trkpt><trkpt lat="37.08108666453565" lon="14.880883969607735"><ele>625.0</ele><time>2026-04-18T17:08:25.998Z</time></trkpt><trkpt lat="37.080867367261625" lon="14.881043010940601"><ele>624.0</ele><time>2026-04-18T17:08:26.998Z</time></trkpt><trkpt lat="37.08067097747791" lon="14.881191073591886"><ele>623.0</ele><time>2026-04-18T17:08:28Z</time></trkpt><trkpt lat="37.08050548466029" lon="14.881339127392426"><ele>622.0</ele><time>2026-04-18T17:08:29Z</time></trkpt><trkpt lat="37.08036414270321" lon="14.881517882749103"><ele>622.0</ele><time>2026-04-18T17:08:30Z</time></trkpt><trkpt lat="37.08024527053387" lon="14.881727845569571"><ele>622.0</ele><time>2026-04-18T17:08:31Z</time></trkpt><trkpt lat="37.08015266713268" lon="14.881966622072529"><ele>622.0</ele><time>2026-04-18T17:08:32Z</time></trkpt><trkpt lat="37.08007206203026" lon="14.882212003903396"><ele>624.6666666666667</ele><time>2026-04-18T17:08:33Z</time></trkpt><trkpt lat="37.07999778594295" lon="14.882444593906763"><ele>627.3333333333334</ele><time>2026-04-18T17:08:34Z</time></trkpt><trkpt lat="37.07991349925147" lon="14.882644138158534"><ele>630.0</ele><time>2026-04-18T17:08:35Z</time></trkpt><trkpt lat="37.0798050614787" lon="14.882820465956273"><ele>630.0</ele><time>2026-04-18T17:08:36Z</time></trkpt><trkpt lat="37.07966844921456" lon="14.882964186679365"><ele>630.0</ele><time>2026-04-18T17:08:37Z</time></trkpt><trkpt lat="37.07950981209553" lon="14.883072029488183"><ele>630.0</ele><time>2026-04-18T17:08:38Z</time></trkpt><trkpt lat="37.079341900562405" lon="14.883128435570942"><ele>630.0</ele><time>2026-04-18T17:08:39Z</time></trkpt><trkpt lat="37.07917303830036" lon="14.883135212896073"><ele>630.0</ele><time>2026-04-18T17:08:40Z</time></trkpt><trkpt lat="37.079001693202706" lon="14.88310679168045"><ele>630.0</ele><time>2026-04-18T17:08:41Z</time></trkpt><trkpt lat="37.07880698958114" lon="14.883055364330819"><ele>629.3333333333334</ele><time>2026-04-18T17:08:42Z</time></trkpt><trkpt lat="37.078597517193664" lon="14.883000951286599"><ele>628.6666666666667</ele><time>2026-04-18T17:08:43Z</time></trkpt><trkpt lat="37.07838570534781" lon="14.88295289247454"><ele>628.0</ele><time>2026-04-18T17:08:44Z</time></trkpt><trkpt lat="37.07817226187777" lon="14.882906333321445"><ele>624.0</ele><time>2026-04-18T17:08:45Z</time></trkpt><trkpt lat="37.077956233132184" lon="14.882858861125"><ele>620.0</ele><time>2026-04-18T17:08:46Z</time></trkpt><trkpt lat="37.07774056510657" lon="14.882812390822139"><ele>616.0</ele><time>2026-04-18T17:08:47Z</time></trkpt><trkpt lat="37.07752225416494" lon="14.882763537821273"><ele>613.6666666666667</ele><time>2026-04-18T17:08:48Z</time></trkpt><trkpt lat="37.077300952782956" lon="14.88271454166167"><ele>611.3333333333334</ele><time>2026-04-18T17:08:49Z</time></trkpt><trkpt lat="37.07708711409028" lon="14.882666583428703"><ele>609.0</ele><time>2026-04-18T17:08:50Z</time></trkpt><trkpt lat="37.07687051099392" lon="14.882614603658476"><ele>607.3333333333334</ele><time>2026-04-18T17:08:51Z</time></trkpt><trkpt lat="37.07666528268763" lon="14.88257002468236"><ele>605.6666666666667</ele><time>2026-04-18T17:08:52Z</time></trkpt><trkpt lat="37.0764570560689" lon="14.882533940575316"><ele>604.0</ele><time>2026-04-18T17:08:53Z</time></trkpt><trkpt lat="37.07625102340864" lon="14.882523099433094"><ele>603.0</ele><time>2026-04-18T17:08:54Z</time></trkpt><trkpt lat="37.07604361179618" lon="14.882543248202998"><ele>602.0</ele><time>2026-04-18T17:08:55Z</time></trkpt><trkpt lat="37.07583736529613" lon="14.882599881910636"><ele>601.0</ele><time>2026-04-18T17:08:56Z</time></trkpt><trkpt lat="37.07563897285753" lon="14.8826827417986"><ele>598.3333333333334</ele><time>2026-04-18T17:08:57Z</time></trkpt><trkpt lat="37.07544720114033" lon="14.88278839516993"><ele>595.6666666666666</ele><time>2026-04-18T17:08:58Z</time></trkpt><trkpt lat="37.0752696088507" lon="14.88291316556488"><ele>593.0</ele><time>2026-04-18T17:08:59Z</time></trkpt><trkpt lat="37.07510333582647" lon="14.883048328730183"><ele>593.0</ele><time>2026-04-18T17:09:00Z</time></trkpt><trkpt lat="37.07494734921432" lon="14.88319152143572"><ele>593.0</ele><time>2026-04-18T17:09:01Z</time></trkpt><trkpt lat="37.07480369725612" lon="14.88334582475011"><ele>593.0</ele><time>2026-04-18T17:09:02Z</time></trkpt><trkpt lat="37.07468492438398" lon="14.883516780478438"><ele>587.3333333333333</ele><time>2026-04-18T17:09:03Z</time></trkpt><trkpt lat="37.07458252249964" lon="14.883706031663573"><ele>581.6666666666666</ele><time>2026-04-18T17:09:04Z</time></trkpt><trkpt lat="37.074505271101806" lon="14.883909672500453"><ele>576.0</ele><time>2026-04-18T17:09:05Z</time></trkpt><trkpt lat="37.0744513225482" lon="14.884128222844504"><ele>576.0</ele><time>2026-04-18T17:09:06Z</time></trkpt><trkpt lat="37.074400820069926" lon="14.884350902759323"><ele>576.0</ele><time>2026-04-18T17:09:07Z</time></trkpt><trkpt lat="37.07439539900591" lon="14.884600472352284"><ele>576.0</ele><time>2026-04-18T17:09:08Z</time></trkpt><trkpt lat="37.074408189766025" lon="14.884878032835077"><ele>573.5</ele><time>2026-04-18T17:09:09Z</time></trkpt><trkpt lat="37.074421759929756" lon="14.885179205354104"><ele>571.0</ele><time>2026-04-18T17:09:10Z</time></trkpt><trkpt lat="37.0744366615828" lon="14.885505705780586"><ele>571.0</ele><time>2026-04-18T17:09:11Z</time></trkpt><trkpt lat="37.07445285820477" lon="14.885848155919891"><ele>571.0</ele><time>2026-04-18T17:09:12Z</time></trkpt><trkpt lat="37.07446927773798" lon="14.886190331585054"><ele>567.5</ele><time>2026-04-18T17:09:13Z</time></trkpt><trkpt lat="37.07448514744001" lon="14.8865155204528"><ele>564.0</ele><time>2026-04-18T17:09:14Z</time></trkpt><trkpt lat="37.07450088548155" lon="14.886826973593427"><ele>562.5</ele><time>2026-04-18T17:09:15Z</time></trkpt><trkpt lat="37.07451711277721" lon="14.887138561085715"><ele>561.0</ele><time>2026-04-18T17:09:16Z</time></trkpt><trkpt lat="37.07453120367001" lon="14.887440754941736"><ele>560.5</ele><time>2026-04-18T17:09:17Z</time></trkpt><trkpt lat="37.07453977217659" lon="14.887737553615974"><ele>560.0</ele><time>2026-04-18T17:09:18Z</time></trkpt><trkpt lat="37.074536647346925" lon="14.88803358633154"><ele>560.0</ele><time>2026-04-18T17:09:18.999Z</time></trkpt><trkpt lat="37.07453407266681" lon="14.888301497744084"><ele>560.0</ele><time>2026-04-18T17:09:19.999Z</time></trkpt><trkpt lat="37.07450573298841" lon="14.88854835069037"><ele>560.0</ele><time>2026-04-18T17:09:20.999Z</time></trkpt><trkpt lat="37.07447510572792" lon="14.888782950713603"><ele>560.0</ele><time>2026-04-18T17:09:21.999Z</time></trkpt><trkpt lat="37.07444003038035" lon="14.889010100700077"><ele>560.0</ele><time>2026-04-18T17:09:22.999Z</time></trkpt><trkpt lat="37.07441008920928" lon="14.889217948293958"><ele>560.0</ele><time>2026-04-18T17:09:23.999Z</time></trkpt><trkpt lat="37.074383339728115" lon="14.889407955449398"><ele>560.0</ele><time>2026-04-18T17:09:24.999Z</time></trkpt><trkpt lat="37.07436042049172" lon="14.889578065965207"><ele>560.0</ele><time>2026-04-18T17:09:25.999Z</time></trkpt><trkpt lat="37.0743382029858" lon="14.88972412732863"><ele>560.0</ele><time>2026-04-18T17:09:26.999Z</time></trkpt><trkpt lat="37.07429737115641" lon="14.889843676139854"><ele>560.0</ele><time>2026-04-18T17:09:27.999Z</time></trkpt><trkpt lat="37.07427235667339" lon="14.889963168996402"><ele>560.0</ele><time>2026-04-18T17:09:28.999Z</time></trkpt><trkpt lat="37.07419851195745" lon="14.890045783778435"><ele>560.0</ele><time>2026-04-18T17:09:29.999Z</time></trkpt><trkpt lat="37.07410880030144" lon="14.890091741869986"><ele>560.0</ele><time>2026-04-18T17:09:30.999Z</time></trkpt><trkpt lat="37.07401172048683" lon="14.890096355404948"><ele>560.0</ele><time>2026-04-18T17:09:31.999Z</time></trkpt><trkpt lat="37.07391604206225" lon="14.890064496201212"><ele>560.0</ele><time>2026-04-18T17:09:32.999Z</time></trkpt><trkpt lat="37.07383254349597" lon="14.890003078907945"><ele>554.75</ele><time>2026-04-18T17:09:33.999Z</time></trkpt><trkpt lat="37.073762062387914" lon="14.889905013999819"><ele>549.5</ele><time>2026-04-18T17:09:34.999Z</time></trkpt><trkpt lat="37.07371450215469" lon="14.88978198099618"><ele>544.25</ele><time>2026-04-18T17:09:35.999Z</time></trkpt><trkpt lat="37.073719168360995" lon="14.889628805888481"><ele>539.0</ele><time>2026-04-18T17:09:36.999Z</time></trkpt><trkpt lat="37.07373559822097" lon="14.889438353470595"><ele>539.0</ele><time>2026-04-18T17:09:37.999Z</time></trkpt><trkpt lat="37.07375322986393" lon="14.889209216201714"><ele>539.0</ele><time>2026-04-18T17:09:38.999Z</time></trkpt><trkpt lat="37.073773400993176" lon="14.888952107836465"><ele>539.0</ele><time>2026-04-18T17:09:39.999Z</time></trkpt><trkpt lat="37.07377992612401" lon="14.888698184566453"><ele>539.0</ele><time>2026-04-18T17:09:40.999Z</time></trkpt><trkpt lat="37.07380835700414" lon="14.888431634080012"><ele>539.0</ele><time>2026-04-18T17:09:41.999Z</time></trkpt><trkpt lat="37.07383765814542" lon="14.888165725059977"><ele>539.0</ele><time>2026-04-18T17:09:42.999Z</time></trkpt><trkpt lat="37.07386067255525" lon="14.887913915899816"><ele>538.6666666666666</ele><time>2026-04-18T17:09:43.999Z</time></trkpt><trkpt lat="37.07387160793726" lon="14.887677079820769"><ele>538.3333333333334</ele><time>2026-04-18T17:09:44.999Z</time></trkpt><trkpt lat="37.07385508956605" lon="14.887450586826237"><ele>538.0</ele><time>2026-04-18T17:09:45.999Z</time></trkpt><trkpt lat="37.07379255636761" lon="14.887243195406"><ele>538.6666666666667</ele><time>2026-04-18T17:09:46.999Z</time></trkpt><trkpt lat="37.0736912431164" lon="14.887066509894865"><ele>539.3333333333334</ele><time>2026-04-18T17:09:47.999Z</time></trkpt><trkpt lat="37.07356180944902" lon="14.886925331030344"><ele>540.0</ele><time>2026-04-18T17:09:48.999Z</time></trkpt><trkpt lat="37.07340969338698" lon="14.886837664437463"><ele>540.0</ele><time>2026-04-18T17:09:49.999Z</time></trkpt><trkpt lat="37.07323763346952" lon="14.886797029538775"><ele>540.0</ele><time>2026-04-18T17:09:50.999Z</time></trkpt><trkpt lat="37.07305903974857" lon="14.886774320653746"><ele>540.0</ele><time>2026-04-18T17:09:51.999Z</time></trkpt><trkpt lat="37.07287134833465" lon="14.886721198935739"><ele>540.0</ele><time>2026-04-18T17:09:52.999Z</time></trkpt><trkpt lat="37.07268155354851" lon="14.886619299241643"><ele>540.0</ele><time>2026-04-18T17:09:53.999Z</time></trkpt><trkpt lat="37.072499477742" lon="14.886481401483376"><ele>540.0</ele><time>2026-04-18T17:09:54.999Z</time></trkpt><trkpt lat="37.07232338461265" lon="14.886300102002968"><ele>535.0</ele><time>2026-04-18T17:09:55.999Z</time></trkpt><trkpt lat="37.07215644482309" lon="14.886090256129934"><ele>530.0</ele><time>2026-04-18T17:09:56.999Z</time></trkpt><trkpt lat="37.07202585540051" lon="14.88585272479296"><ele>530.0</ele><time>2026-04-18T17:09:57.999Z</time></trkpt><trkpt lat="37.071924792263594" lon="14.885588973894071"><ele>530.0</ele><time>2026-04-18T17:09:58.999Z</time></trkpt><trkpt lat="37.0718437256794" lon="14.885295126788302"><ele>533.5</ele><time>2026-04-18T17:09:59.999Z</time></trkpt><trkpt lat="37.071760980911186" lon="14.884971251685704"><ele>537.0</ele><time>2026-04-18T17:10:00.999Z</time></trkpt><trkpt lat="37.07166606306027" lon="14.884642199854762"><ele>525.5</ele><time>2026-04-18T17:10:01.999Z</time></trkpt><trkpt lat="37.071570375025026" lon="14.884319587567225"><ele>514.0</ele><time>2026-04-18T17:10:02.999Z</time></trkpt><trkpt lat="37.071471964540656" lon="14.883997474333267"><ele>514.0</ele><time>2026-04-18T17:10:03.999Z</time></trkpt><trkpt lat="37.07137804841602" lon="14.883684148681246"><ele>514.0</ele><time>2026-04-18T17:10:04.999Z</time></trkpt><trkpt lat="37.07129459078098" lon="14.883375087979253"><ele>514.5</ele><time>2026-04-18T17:10:05.999Z</time></trkpt><trkpt lat="37.071218721591556" lon="14.883079142361465"><ele>515.0</ele><time>2026-04-18T17:10:06.999Z</time></trkpt><trkpt lat="37.07115017878246" lon="14.882781410035712"><ele>516.5</ele><time>2026-04-18T17:10:07.999Z</time></trkpt><trkpt lat="37.07109963081313" lon="14.882474774691392"><ele>518.0</ele><time>2026-04-18T17:10:08.999Z</time></trkpt><trkpt lat="37.07107043018923" lon="14.882159584785816"><ele>518.0</ele><time>2026-04-18T17:10:09.999Z</time></trkpt><trkpt lat="37.07105961247527" lon="14.881834519304805"><ele>518.0</ele><time>2026-04-18T17:10:10.999Z</time></trkpt><trkpt lat="37.07105020736749" lon="14.88150370633423"><ele>517.5</ele><time>2026-04-18T17:10:11.999Z</time></trkpt><trkpt lat="37.07103362841573" lon="14.8811698851983"><ele>517.0</ele><time>2026-04-18T17:10:12.999Z</time></trkpt><trkpt lat="37.07101014698244" lon="14.880837416656703"><ele>517.0</ele><time>2026-04-18T17:10:13.999Z</time></trkpt><trkpt lat="37.07097974920617" lon="14.880506038737257"><ele>517.0</ele><time>2026-04-18T17:10:14.999Z</time></trkpt><trkpt lat="37.070941639212435" lon="14.880182435384713"><ele>515.5</ele><time>2026-04-18T17:10:15.999Z</time></trkpt><trkpt lat="37.070889695353166" lon="14.879856422709585"><ele>514.0</ele><time>2026-04-18T17:10:16.999Z</time></trkpt><trkpt lat="37.07082583315914" lon="14.879527497741277"><ele>508.0</ele><time>2026-04-18T17:10:17.999Z</time></trkpt><trkpt lat="37.07074554195595" lon="14.879195261183602"><ele>502.0</ele><time>2026-04-18T17:10:18.999Z</time></trkpt><trkpt lat="37.07064769400206" lon="14.878869557703059"><ele>502.0</ele><time>2026-04-18T17:10:19.999Z</time></trkpt><trkpt lat="37.070532213161044" lon="14.878555324364667"><ele>502.0</ele><time>2026-04-18T17:10:20.999Z</time></trkpt><trkpt lat="37.07039723815142" lon="14.878252363622664"><ele>504.5</ele><time>2026-04-18T17:10:21.999Z</time></trkpt><trkpt lat="37.07024108695264" lon="14.877965914979129"><ele>507.0</ele><time>2026-04-18T17:10:22.999Z</time></trkpt><trkpt lat="37.07006537802249" lon="14.87769796945208"><ele>510.5</ele><time>2026-04-18T17:10:23.999Z</time></trkpt><trkpt lat="37.06987109802613" lon="14.87744880338627"><ele>514.0</ele><time>2026-04-18T17:10:24.999Z</time></trkpt><trkpt lat="37.06965783106187" lon="14.877226935511842"><ele>514.0</ele><time>2026-04-18T17:10:25.998Z</time></trkpt><trkpt lat="37.069460242598566" lon="14.876997033363931"><ele>514.0</ele><time>2026-04-18T17:10:26.998Z</time></trkpt><trkpt lat="37.06926274609182" lon="14.87678339664676"><ele>520.0</ele><time>2026-04-18T17:10:27.998Z</time></trkpt><trkpt lat="37.069064159632646" lon="14.876585201404142"><ele>526.0</ele><time>2026-04-18T17:10:28.998Z</time></trkpt><trkpt lat="37.06866514938049" lon="14.876683580273921"><ele>526.0</ele><time>2026-04-18T17:10:29.998Z</time></trkpt><trkpt lat="37.06839510093665" lon="14.876625693524558"><ele>526.0</ele><time>2026-04-18T17:10:30.998Z</time></trkpt><trkpt lat="37.06811655069222" lon="14.87659458540762"><ele>525.0</ele><time>2026-04-18T17:10:31.998Z</time></trkpt><trkpt lat="37.06783369587845" lon="14.876599742595324"><ele>524.0</ele><time>2026-04-18T17:10:32.998Z</time></trkpt><trkpt lat="37.067555401088235" lon="14.876649148271312"><ele>525.0</ele><time>2026-04-18T17:10:34Z</time></trkpt><trkpt lat="37.067284358853726" lon="14.876734903490473"><ele>526.0</ele><time>2026-04-18T17:10:35Z</time></trkpt><trkpt lat="37.06702396902819" lon="14.876858297108729"><ele>531.0</ele><time>2026-04-18T17:10:36Z</time></trkpt><trkpt lat="37.06677150377437" lon="14.877010976596972"><ele>536.0</ele><time>2026-04-18T17:10:37Z</time></trkpt><trkpt lat="37.06653113353616" lon="14.877192256156102"><ele>538.5</ele><time>2026-04-18T17:10:38Z</time></trkpt><trkpt lat="37.06630721111479" lon="14.8774004555112"><ele>541.0</ele><time>2026-04-18T17:10:39Z</time></trkpt><trkpt lat="37.06610123843599" lon="14.877633414314358"><ele>541.5</ele><time>2026-04-18T17:10:40Z</time></trkpt><trkpt lat="37.065904303431736" lon="14.877888761252965"><ele>542.0</ele><time>2026-04-18T17:10:41Z</time></trkpt><trkpt lat="37.0657170948791" lon="14.878170154568759"><ele>544.5</ele><time>2026-04-18T17:10:42Z</time></trkpt><trkpt lat="37.065534394429136" lon="14.878470140039047"><ele>547.0</ele><time>2026-04-18T17:10:43Z</time></trkpt><trkpt lat="37.06536189572738" lon="14.878776907558862"><ele>547.0</ele><time>2026-04-18T17:10:44Z</time></trkpt><trkpt lat="37.06519924959392" lon="14.879089140270017"><ele>547.0</ele><time>2026-04-18T17:10:45Z</time></trkpt><trkpt lat="37.065042199241795" lon="14.879405963873888"><ele>550.0</ele><time>2026-04-18T17:10:46Z</time></trkpt><trkpt lat="37.0648904068034" lon="14.879720659550305"><ele>553.0</ele><time>2026-04-18T17:10:47Z</time></trkpt><trkpt lat="37.0647388642836" lon="14.88003035493185"><ele>555.0</ele><time>2026-04-18T17:10:48Z</time></trkpt><trkpt lat="37.06459251398495" lon="14.880324938508146"><ele>557.0</ele><time>2026-04-18T17:10:49Z</time></trkpt><trkpt lat="37.06445444315747" lon="14.88059581141695"><ele>557.0</ele><time>2026-04-18T17:10:50Z</time></trkpt><trkpt lat="37.064325742127274" lon="14.88084897127382"><ele>557.0</ele><time>2026-04-18T17:10:51Z</time></trkpt><trkpt lat="37.064203455702504" lon="14.881083199236677"><ele>561.0</ele><time>2026-04-18T17:10:52Z</time></trkpt><trkpt lat="37.064079499129726" lon="14.881315274112069"><ele>565.0</ele><time>2026-04-18T17:10:53Z</time></trkpt><trkpt lat="37.06395611897366" lon="14.881548188071555"><ele>569.0</ele><time>2026-04-18T17:10:54Z</time></trkpt><trkpt lat="37.06383459813781" lon="14.881780224199185"><ele>569.0</ele><time>2026-04-18T17:10:55Z</time></trkpt><trkpt lat="37.063709349831576" lon="14.882014232127261"><ele>569.0</ele><time>2026-04-18T17:10:56Z</time></trkpt><trkpt lat="37.0635843713139" lon="14.882251441499918"><ele>569.0</ele><time>2026-04-18T17:10:57Z</time></trkpt><trkpt lat="37.06346045866037" lon="14.882484146017632"><ele>569.0</ele><time>2026-04-18T17:10:58Z</time></trkpt><trkpt lat="37.06333189462335" lon="14.882721852380381"><ele>572.3333333333333</ele><time>2026-04-18T17:10:59Z</time></trkpt><trkpt lat="37.0632124715342" lon="14.882954893248783"><ele>575.6666666666666</ele><time>2026-04-18T17:11:00Z</time></trkpt><trkpt lat="37.0630915044253" lon="14.883184995437308"><ele>579.0</ele><time>2026-04-18T17:11:01Z</time></trkpt><trkpt lat="37.06297600762245" lon="14.883401474682444"><ele>579.0</ele><time>2026-04-18T17:11:02Z</time></trkpt><trkpt lat="37.062868941361074" lon="14.883624297502916"><ele>579.0</ele><time>2026-04-18T17:11:03Z</time></trkpt><trkpt lat="37.06279574995447" lon="14.883870350431053"><ele>579.0</ele><time>2026-04-18T17:11:04Z</time></trkpt><trkpt lat="37.06276782505708" lon="14.884128208070356"><ele>580.6666666666666</ele><time>2026-04-18T17:11:05Z</time></trkpt><trkpt lat="37.062793723460345" lon="14.884392222258182"><ele>582.3333333333333</ele><time>2026-04-18T17:11:06Z</time></trkpt><trkpt lat="37.062854998257926" lon="14.884657962544528"><ele>584.0</ele><time>2026-04-18T17:11:07Z</time></trkpt><trkpt lat="37.06295133558348" lon="14.884918089151341"><ele>587.5</ele><time>2026-04-18T17:11:08Z</time></trkpt><trkpt lat="37.06305561642552" lon="14.885186781155333"><ele>591.0</ele><time>2026-04-18T17:11:09Z</time></trkpt><trkpt lat="37.06316144086851" lon="14.885464746458611"><ele>591.0</ele><time>2026-04-18T17:11:10Z</time></trkpt><trkpt lat="37.06326596287526" lon="14.88574785435131"><ele>591.0</ele><time>2026-04-18T17:11:11Z</time></trkpt><trkpt lat="37.06337043379868" lon="14.886031458283009"><ele>591.0</ele><time>2026-04-18T17:11:12Z</time></trkpt><trkpt lat="37.063475963930046" lon="14.886313636211502"><ele>591.0</ele><time>2026-04-18T17:11:13Z</time></trkpt><trkpt lat="37.06357940795003" lon="14.886594115042856"><ele>594.0</ele><time>2026-04-18T17:11:14Z</time></trkpt><trkpt lat="37.06367985407196" lon="14.886871750212295"><ele>597.0</ele><time>2026-04-18T17:11:15Z</time></trkpt><trkpt lat="37.06377782136829" lon="14.887147824815523"><ele>597.0</ele><time>2026-04-18T17:11:16Z</time></trkpt><trkpt lat="37.06388323453707" lon="14.887417507553106"><ele>597.0</ele><time>2026-04-18T17:11:17Z</time></trkpt><trkpt lat="37.064000389812996" lon="14.88768094960677"><ele>594.5</ele><time>2026-04-18T17:11:18Z</time></trkpt><trkpt lat="37.064136950134376" lon="14.887938046698022"><ele>592.0</ele><time>2026-04-18T17:11:19Z</time></trkpt><trkpt lat="37.064290408724695" lon="14.888177177706472"><ele>592.0</ele><time>2026-04-18T17:11:20Z</time></trkpt><trkpt lat="37.06446360529047" lon="14.888407130407938"><ele>592.0</ele><time>2026-04-18T17:11:21Z</time></trkpt><trkpt lat="37.064642450081195" lon="14.888625219788702"><ele>594.5</ele><time>2026-04-18T17:11:22Z</time></trkpt><trkpt lat="37.0648198182346" lon="14.8888438354422"><ele>597.0</ele><time>2026-04-18T17:11:23Z</time></trkpt><trkpt lat="37.064995727543256" lon="14.8890622683856"><ele>608.5</ele><time>2026-04-18T17:11:23.999Z</time></trkpt><trkpt lat="37.06517889649964" lon="14.889271937547578"><ele>620.0</ele><time>2026-04-18T17:11:24.999Z</time></trkpt><trkpt lat="37.06537404266773" lon="14.889458193153336"><ele>620.0</ele><time>2026-04-18T17:11:25.999Z</time></trkpt><trkpt lat="37.06558743135601" lon="14.88960970465228"><ele>620.0</ele><time>2026-04-18T17:11:26.999Z</time></trkpt><trkpt lat="37.06581398898627" lon="14.889725217187227"><ele>614.0</ele><time>2026-04-18T17:11:27.999Z</time></trkpt><trkpt lat="37.06602708733985" lon="14.889810396704354"><ele>608.0</ele><time>2026-04-18T17:11:28.999Z</time></trkpt><trkpt lat="37.06622746708749" lon="14.889905620319688"><ele>602.0</ele><time>2026-04-18T17:11:29.999Z</time></trkpt><trkpt lat="37.06640654210571" lon="14.89001777094957"><ele>602.0</ele><time>2026-04-18T17:11:30.999Z</time></trkpt><trkpt lat="37.06656041761149" lon="14.890150625247825"><ele>602.0</ele><time>2026-04-18T17:11:31.999Z</time></trkpt><trkpt lat="37.06667964131931" lon="14.890321550638461"><ele>602.0</ele><time>2026-04-18T17:11:32.999Z</time></trkpt><trkpt lat="37.066757650594106" lon="14.890519495046838"><ele>602.0</ele><time>2026-04-18T17:11:33.999Z</time></trkpt><trkpt lat="37.06679555891228" lon="14.890733217169785"><ele>602.0</ele><time>2026-04-18T17:11:34.999Z</time></trkpt><trkpt lat="37.06679462053545" lon="14.890941467167856"><ele>602.0</ele><time>2026-04-18T17:11:35.999Z</time></trkpt><trkpt lat="37.066759347613015" lon="14.891149070007174"><ele>602.3333333333333</ele><time>2026-04-18T17:11:36.999Z</time></trkpt><trkpt lat="37.0666826980595" lon="14.891347914171604"><ele>602.6666666666666</ele><time>2026-04-18T17:11:37.999Z</time></trkpt><trkpt lat="37.06657682012941" lon="14.891512565071531"><ele>603.0</ele><time>2026-04-18T17:11:38.999Z</time></trkpt><trkpt lat="37.066429356932034" lon="14.891640415611157"><ele>603.0</ele><time>2026-04-18T17:11:39.999Z</time></trkpt><trkpt lat="37.066261694394385" lon="14.89172631100855"><ele>603.0</ele><time>2026-04-18T17:11:40.999Z</time></trkpt><trkpt lat="37.06608422298021" lon="14.891767979499884"><ele>603.0</ele><time>2026-04-18T17:11:41.999Z</time></trkpt><trkpt lat="37.065906650490284" lon="14.891748015838315"><ele>604.6666666666666</ele><time>2026-04-18T17:11:42.999Z</time></trkpt><trkpt lat="37.06573073071418" lon="14.891685452991291"><ele>606.3333333333333</ele><time>2026-04-18T17:11:43.999Z</time></trkpt><trkpt lat="37.06555917564918" lon="14.891585529215224"><ele>608.0</ele><time>2026-04-18T17:11:44.999Z</time></trkpt><trkpt lat="37.065385132088466" lon="14.891508554081385"><ele>608.0</ele><time>2026-04-18T17:11:45.999Z</time></trkpt><trkpt lat="37.06520773547413" lon="14.891504669110725"><ele>608.0</ele><time>2026-04-18T17:11:46.999Z</time></trkpt><trkpt lat="37.06504596826815" lon="14.891563940522442"><ele>608.0</ele><time>2026-04-18T17:11:47.999Z</time></trkpt><trkpt lat="37.06491815230528" lon="14.891675027537516"><ele>616.0</ele><time>2026-04-18T17:11:48.999Z</time></trkpt><trkpt lat="37.06482801590725" lon="14.891833598283268"><ele>624.0</ele><time>2026-04-18T17:11:49.999Z</time></trkpt><trkpt lat="37.0647785048476" lon="14.892027271694408"><ele>632.0</ele><time>2026-04-18T17:11:50.999Z</time></trkpt><trkpt lat="37.064762281494694" lon="14.892237174067635"><ele>632.0</ele><time>2026-04-18T17:11:51.999Z</time></trkpt><trkpt lat="37.064764358912136" lon="14.892456978673215"><ele>632.0</ele><time>2026-04-18T17:11:52.999Z</time></trkpt><trkpt lat="37.064743734079094" lon="14.892684260427862"><ele>632.0</ele><time>2026-04-18T17:11:53.999Z</time></trkpt><trkpt lat="37.064706777749166" lon="14.892925003913696"><ele>633.0</ele><time>2026-04-18T17:11:54.999Z</time></trkpt><trkpt lat="37.064645541960545" lon="14.893168424434377"><ele>634.0</ele><time>2026-04-18T17:11:55.999Z</time></trkpt><trkpt lat="37.0645831977916" lon="14.89341327756604"><ele>635.0</ele><time>2026-04-18T17:11:56.999Z</time></trkpt><trkpt lat="37.06453504716781" lon="14.89365465307264"><ele>635.0</ele><time>2026-04-18T17:11:57.999Z</time></trkpt><trkpt lat="37.06451457694501" lon="14.893898154518727"><ele>635.0</ele><time>2026-04-18T17:11:58.999Z</time></trkpt><trkpt lat="37.06452004656212" lon="14.894149300198437"><ele>635.0</ele><time>2026-04-18T17:11:59.999Z</time></trkpt><trkpt lat="37.06451963504895" lon="14.894387723836202"><ele>632.0</ele><time>2026-04-18T17:12:00.999Z</time></trkpt><trkpt lat="37.06450743011199" lon="14.894604733986954"><ele>629.0</ele><time>2026-04-18T17:12:01.999Z</time></trkpt><trkpt lat="37.06447625508793" lon="14.894806324531697"><ele>626.0</ele><time>2026-04-18T17:12:02.999Z</time></trkpt><trkpt lat="37.064409014771" lon="14.894976499147505"><ele>620.3333333333333</ele><time>2026-04-18T17:12:03.999Z</time></trkpt><trkpt lat="37.064294330085716" lon="14.895096208174728"><ele>614.6666666666666</ele><time>2026-04-18T17:12:04.999Z</time></trkpt><trkpt lat="37.06415450277753" lon="14.895179906154521"><ele>609.0</ele><time>2026-04-18T17:12:05.999Z</time></trkpt><trkpt lat="37.06399735726738" lon="14.895215162876532"><ele>609.0</ele><time>2026-04-18T17:12:06.999Z</time></trkpt><trkpt lat="37.063834019828796" lon="14.895210004432467"><ele>609.0</ele><time>2026-04-18T17:12:07.999Z</time></trkpt><trkpt lat="37.063659928952" lon="14.8951543877367"><ele>609.0</ele><time>2026-04-18T17:12:08.999Z</time></trkpt><trkpt lat="37.06347956515579" lon="14.895088859184046"><ele>617.0</ele><time>2026-04-18T17:12:09.999Z</time></trkpt><trkpt lat="37.0632978911636" lon="14.895066277447809"><ele>625.0</ele><time>2026-04-18T17:12:10.999Z</time></trkpt><trkpt lat="37.06312931962453" lon="14.895107531549764"><ele>633.0</ele><time>2026-04-18T17:12:11.999Z</time></trkpt><trkpt lat="37.062975985167895" lon="14.8951981267088"><ele>634.0</ele><time>2026-04-18T17:12:12.999Z</time></trkpt><trkpt lat="37.062844526426694" lon="14.895336242344333"><ele>635.0</ele><time>2026-04-18T17:12:13.999Z</time></trkpt><trkpt lat="37.06272532873579" lon="14.895515625013806"><ele>636.0</ele><time>2026-04-18T17:12:14.999Z</time></trkpt><trkpt lat="37.06259783440971" lon="14.895721168860334"><ele>629.3333333333334</ele><time>2026-04-18T17:12:15.999Z</time></trkpt><trkpt lat="37.06245228621138" lon="14.895920151148188"><ele>622.6666666666667</ele><time>2026-04-18T17:12:16.999Z</time></trkpt><trkpt lat="37.06229491666711" lon="14.89610821608985"><ele>616.0</ele><time>2026-04-18T17:12:17.999Z</time></trkpt><trkpt lat="37.06214688304621" lon="14.896283130046506"><ele>630.6666666666667</ele><time>2026-04-18T17:12:18.999Z</time></trkpt><trkpt lat="37.06201288304087" lon="14.896469169683034"><ele>645.3333333333334</ele><time>2026-04-18T17:12:19.999Z</time></trkpt><trkpt lat="37.06191455701142" lon="14.896673534103826"><ele>660.0</ele><time>2026-04-18T17:12:20.999Z</time></trkpt><trkpt lat="37.06185744421699" lon="14.89689003390055"><ele>660.6666666666666</ele><time>2026-04-18T17:12:21.999Z</time></trkpt><trkpt lat="37.061855584110056" lon="14.897106807431044"><ele>661.3333333333333</ele><time>2026-04-18T17:12:22.999Z</time></trkpt><trkpt lat="37.06187985289372" lon="14.897337452219515"><ele>662.0</ele><time>2026-04-18T17:12:23.999Z</time></trkpt><trkpt lat="37.06192779976515" lon="14.897578350202567"><ele>668.6666666666666</ele><time>2026-04-18T17:12:24.999Z</time></trkpt><trkpt lat="37.06200641742596" lon="14.897819208760268"><ele>675.3333333333334</ele><time>2026-04-18T17:12:25.999Z</time></trkpt><trkpt lat="37.06211589702274" lon="14.898046620277494"><ele>682.0</ele><time>2026-04-18T17:12:26.999Z</time></trkpt><trkpt lat="37.06223755602841" lon="14.898278465883116"><ele>686.6666666666667</ele><time>2026-04-18T17:12:27.999Z</time></trkpt><trkpt lat="37.06235850410376" lon="14.898515126560879"><ele>691.3333333333334</ele><time>2026-04-18T17:12:28.999Z</time></trkpt><trkpt lat="37.062468883837404" lon="14.898740727783762"><ele>696.0</ele><time>2026-04-18T17:12:29.998Z</time></trkpt><trkpt lat="37.06258064118643" lon="14.89894146729819"><ele>694.0</ele><time>2026-04-18T17:12:30.998Z</time></trkpt><trkpt lat="37.062707728320724" lon="14.899117690753231"><ele>692.0</ele><time>2026-04-18T17:12:31.998Z</time></trkpt><trkpt lat="37.06284866554651" lon="14.899252886467734"><ele>690.0</ele><time>2026-04-18T17:12:32.998Z</time></trkpt><trkpt lat="37.06298817918038" lon="14.89935547966078"><ele>690.0</ele><time>2026-04-18T17:12:33.998Z</time></trkpt><trkpt lat="37.063106267983045" lon="14.899444525366402"><ele>690.0</ele><time>2026-04-18T17:12:34.998Z</time></trkpt><trkpt lat="37.063189051812664" lon="14.899548009286624"><ele>690.0</ele><time>2026-04-18T17:12:35.998Z</time></trkpt><trkpt lat="37.06324677551735" lon="14.899653680366729"><ele>690.0</ele><time>2026-04-18T17:12:36.998Z</time></trkpt><trkpt lat="37.06340419652672" lon="14.899684795742704"><ele>686.25</ele><time>2026-04-18T17:12:37.998Z</time></trkpt><trkpt lat="37.06347864456002" lon="14.899803601176883"><ele>682.5</ele><time>2026-04-18T17:12:38.998Z</time></trkpt><trkpt lat="37.06354501481886" lon="14.899964321239324"><ele>678.75</ele><time>2026-04-18T17:12:40Z</time></trkpt><trkpt lat="37.063617940296815" lon="14.900119430390133"><ele>675.0</ele><time>2026-04-18T17:12:41Z</time></trkpt><trkpt lat="37.063713868803994" lon="14.900276777173685"><ele>675.0</ele><time>2026-04-18T17:12:42Z</time></trkpt><trkpt lat="37.06382941832074" lon="14.900418723390043"><ele>675.0</ele><time>2026-04-18T17:12:43Z</time></trkpt><trkpt lat="37.06397024252155" lon="14.900552240396761"><ele>675.0</ele><time>2026-04-18T17:12:44Z</time></trkpt><trkpt lat="37.06413456010436" lon="14.900654421817682"><ele>665.6666666666666</ele><time>2026-04-18T17:12:45Z</time></trkpt><trkpt lat="37.06430422537495" lon="14.900718530601974"><ele>656.3333333333333</ele><time>2026-04-18T17:12:46Z</time></trkpt><trkpt lat="37.06448139114347" lon="14.900748879133724"><ele>647.0</ele><time>2026-04-18T17:12:47Z</time></trkpt><trkpt lat="37.06465198837529" lon="14.900744213537237"><ele>647.0</ele><time>2026-04-18T17:12:48Z</time></trkpt><trkpt lat="37.064827503895906" lon="14.900773308061337"><ele>647.0</ele><time>2026-04-18T17:12:49Z</time></trkpt><trkpt lat="37.0649763428922" lon="14.900814836427495"><ele>647.0</ele><time>2026-04-18T17:12:50Z</time></trkpt><trkpt lat="37.06510155239657" lon="14.900893586674878"><ele>651.3333333333333</ele><time>2026-04-18T17:12:51Z</time></trkpt><trkpt lat="37.06522916337915" lon="14.901021270580024"><ele>655.6666666666666</ele><time>2026-04-18T17:12:52Z</time></trkpt><trkpt lat="37.065388545317475" lon="14.901169342164021"><ele>660.0</ele><time>2026-04-18T17:12:53Z</time></trkpt><trkpt lat="37.0655204212701" lon="14.901338620831119"><ele>660.0</ele><time>2026-04-18T17:12:54Z</time></trkpt><trkpt lat="37.0656478776002" lon="14.901505079131834"><ele>660.0</ele><time>2026-04-18T17:12:55Z</time></trkpt><trkpt lat="37.06575753021544" lon="14.901694540723934"><ele>660.0</ele><time>2026-04-18T17:12:56Z</time></trkpt><trkpt lat="37.06584696707908" lon="14.901905142952936"><ele>658.6666666666666</ele><time>2026-04-18T17:12:57Z</time></trkpt><trkpt lat="37.06592834475624" lon="14.902147184928529"><ele>657.3333333333333</ele><time>2026-04-18T17:12:58Z</time></trkpt><trkpt lat="37.066003661203496" lon="14.902404405649376"><ele>656.0</ele><time>2026-04-18T17:12:59Z</time></trkpt><trkpt lat="37.066075706149824" lon="14.90267399188772"><ele>656.0</ele><time>2026-04-18T17:13:00Z</time></trkpt><trkpt lat="37.06614935670878" lon="14.90295911744757"><ele>656.0</ele><time>2026-04-18T17:13:01Z</time></trkpt><trkpt lat="37.0662216393139" lon="14.903262310808701"><ele>654.3333333333333</ele><time>2026-04-18T17:13:02Z</time></trkpt><trkpt lat="37.0662898330582" lon="14.9035361361196"><ele>652.6666666666666</ele><time>2026-04-18T17:13:03Z</time></trkpt><trkpt lat="37.06635309588314" lon="14.90379367543353"><ele>651.0</ele><time>2026-04-18T17:13:04Z</time></trkpt><trkpt lat="37.06643687039033" lon="14.904040594332871"><ele>650.0</ele><time>2026-04-18T17:13:05Z</time></trkpt><trkpt lat="37.06655285713706" lon="14.904261357241412"><ele>649.0</ele><time>2026-04-18T17:13:06Z</time></trkpt><trkpt lat="37.066685703623065" lon="14.904435383405664"><ele>648.0</ele><time>2026-04-18T17:13:07Z</time></trkpt><trkpt lat="37.066819103777426" lon="14.904576251136167"><ele>648.0</ele><time>2026-04-18T17:13:08Z</time></trkpt><trkpt lat="37.06692980023025" lon="14.904715791307568"><ele>648.0</ele><time>2026-04-18T17:13:09Z</time></trkpt><trkpt lat="37.06701582982075" lon="14.904858909822735"><ele>648.0</ele><time>2026-04-18T17:13:10Z</time></trkpt><trkpt lat="37.06707979046112" lon="14.905002686575719"><ele>648.0</ele><time>2026-04-18T17:13:11Z</time></trkpt><trkpt lat="37.067124979833515" lon="14.905146503495997"><ele>647.5999999999999</ele><time>2026-04-18T17:13:12Z</time></trkpt><trkpt lat="37.067153945324996" lon="14.90527862776639"><ele>647.1999999999999</ele><time>2026-04-18T17:13:13Z</time></trkpt><trkpt lat="37.0671855246861" lon="14.905395531238016"><ele>646.8</ele><time>2026-04-18T17:13:14Z</time></trkpt><trkpt lat="37.067207626556915" lon="14.905504997905497"><ele>646.4</ele><time>2026-04-18T17:13:15Z</time></trkpt><trkpt lat="37.0672162363121" lon="14.905634412503524"><ele>646.0</ele><time>2026-04-18T17:13:16Z</time></trkpt><trkpt lat="37.0673067393709" lon="14.905766175309171"><ele>644.6666666666667</ele><time>2026-04-18T17:13:17Z</time></trkpt><trkpt lat="37.06738944845125" lon="14.905924179574114"><ele>643.3333333333334</ele><time>2026-04-18T17:13:18Z</time></trkpt><trkpt lat="37.06746967243393" lon="14.906129314138028"><ele>642.0</ele><time>2026-04-18T17:13:19Z</time></trkpt><trkpt lat="37.067545451317486" lon="14.906368407177533"><ele>641.3333333333334</ele><time>2026-04-18T17:13:20Z</time></trkpt><trkpt lat="37.06762441326076" lon="14.906603377027933"><ele>640.6666666666667</ele><time>2026-04-18T17:13:21Z</time></trkpt><trkpt lat="37.06769803371935" lon="14.906824066180228"><ele>640.0</ele><time>2026-04-18T17:13:22Z</time></trkpt><trkpt lat="37.06776944558211" lon="14.907040271829679"><ele>639.6666666666667</ele><time>2026-04-18T17:13:23Z</time></trkpt><trkpt lat="37.06782805164761" lon="14.907247188210249"><ele>639.3333333333334</ele><time>2026-04-18T17:13:24Z</time></trkpt><trkpt lat="37.06787157176247" lon="14.907443925564063"><ele>639.0</ele><time>2026-04-18T17:13:25Z</time></trkpt><trkpt lat="37.0678965444873" lon="14.90764024162048"><ele>638.0</ele><time>2026-04-18T17:13:26Z</time></trkpt><trkpt lat="37.06790795289539" lon="14.907832709237995"><ele>637.0</ele><time>2026-04-18T17:13:27Z</time></trkpt><trkpt lat="37.06790724210512" lon="14.908022697664489"><ele>636.0</ele><time>2026-04-18T17:13:28Z</time></trkpt><trkpt lat="37.06788859038327" lon="14.90821714249363"><ele>634.3333333333334</ele><time>2026-04-18T17:13:29Z</time></trkpt><trkpt lat="37.067849484150784" lon="14.908432754094855"><ele>632.6666666666667</ele><time>2026-04-18T17:13:29.999Z</time></trkpt><trkpt lat="37.06777241427528" lon="14.908658149532181"><ele>631.0</ele><time>2026-04-18T17:13:30.999Z</time></trkpt><trkpt lat="37.067692040681024" lon="14.908856434613975"><ele>631.0</ele><time>2026-04-18T17:13:31.999Z</time></trkpt><trkpt lat="37.06759546942633" lon="14.909048257454012"><ele>631.0</ele><time>2026-04-18T17:13:32.999Z</time></trkpt><trkpt lat="37.06748215545874" lon="14.909217959061253"><ele>631.0</ele><time>2026-04-18T17:13:33.999Z</time></trkpt><trkpt lat="37.067353052773974" lon="14.909367654164972"><ele>630.0</ele><time>2026-04-18T17:13:34.999Z</time></trkpt><trkpt lat="37.06721777275044" lon="14.909489177927204"><ele>629.0</ele><time>2026-04-18T17:13:35.999Z</time></trkpt><trkpt lat="37.06708452158564" lon="14.909598880974077"><ele>628.0</ele><time>2026-04-18T17:13:36.999Z</time></trkpt><trkpt lat="37.06696389578111" lon="14.909686905463682"><ele>628.0</ele><time>2026-04-18T17:13:37.999Z</time></trkpt><trkpt lat="37.0668637950835" lon="14.909752225493452"><ele>628.0</ele><time>2026-04-18T17:13:38.999Z</time></trkpt><trkpt lat="37.066780062675576" lon="14.90979799307593"><ele>628.0</ele><time>2026-04-18T17:13:39.999Z</time></trkpt><trkpt lat="37.0666981272725" lon="14.909838742277008"><ele>628.0</ele><time>2026-04-18T17:13:40.999Z</time></trkpt><trkpt lat="37.06662504090827" lon="14.90989374990516"><ele>628.0</ele><time>2026-04-18T17:13:41.999Z</time></trkpt><trkpt lat="37.066566316102026" lon="14.90996109859161"><ele>627.6666666666667</ele><time>2026-04-18T17:13:42.999Z</time></trkpt><trkpt lat="37.066510817511606" lon="14.910032494456127"><ele>627.3333333333334</ele><time>2026-04-18T17:13:43.999Z</time></trkpt><trkpt lat="37.06644538850046" lon="14.910100976477915"><ele>627.0</ele><time>2026-04-18T17:13:44.999Z</time></trkpt><trkpt lat="37.06637005675596" lon="14.910166869607881"><ele>626.6666666666666</ele><time>2026-04-18T17:13:45.999Z</time></trkpt><trkpt lat="37.06629733786867" lon="14.910229801469276"><ele>626.3333333333333</ele><time>2026-04-18T17:13:46.999Z</time></trkpt><trkpt lat="37.066223698190626" lon="14.910295012082438"><ele>626.0</ele><time>2026-04-18T17:13:47.999Z</time></trkpt><trkpt lat="37.06613674953751" lon="14.910365877139885"><ele>626.0</ele><time>2026-04-18T17:13:48.999Z</time></trkpt><trkpt lat="37.066027401821025" lon="14.910447472584076"><ele>626.0</ele><time>2026-04-18T17:13:49.999Z</time></trkpt><trkpt lat="37.065889955298225" lon="14.910550625199418"><ele>626.0</ele><time>2026-04-18T17:13:50.999Z</time></trkpt><trkpt lat="37.06575343226173" lon="14.910655702644272"><ele>626.0</ele><time>2026-04-18T17:13:51.999Z</time></trkpt><trkpt lat="37.06561472447133" lon="14.910760681187126"><ele>626.6666666666666</ele><time>2026-04-18T17:13:52.999Z</time></trkpt><trkpt lat="37.065464117339516" lon="14.910849930269173"><ele>627.3333333333334</ele><time>2026-04-18T17:13:53.999Z</time></trkpt><trkpt lat="37.06529486166851" lon="14.910925660615451"><ele>628.0</ele><time>2026-04-18T17:13:54.999Z</time></trkpt><trkpt lat="37.065098195098834" lon="14.9109811537834"><ele>626.3333333333334</ele><time>2026-04-18T17:13:55.999Z</time></trkpt><trkpt lat="37.064881229924836" lon="14.911030835100936"><ele>624.6666666666666</ele><time>2026-04-18T17:13:56.999Z</time></trkpt><trkpt lat="37.06466139744242" lon="14.911079918054035"><ele>623.0</ele><time>2026-04-18T17:13:57.999Z</time></trkpt><trkpt lat="37.064442202921526" lon="14.911131309606807"><ele>623.0</ele><time>2026-04-18T17:13:58.999Z</time></trkpt><trkpt lat="37.064212644148505" lon="14.91118420566183"><ele>623.0</ele><time>2026-04-18T17:13:59.999Z</time></trkpt><trkpt lat="37.063970235822545" lon="14.911239606228028"><ele>615.5</ele><time>2026-04-18T17:14:00.999Z</time></trkpt><trkpt lat="37.06372558895693" lon="14.91128586007458"><ele>608.0</ele><time>2026-04-18T17:14:01.999Z</time></trkpt><trkpt lat="37.06347582008863" lon="14.911342286186173"><ele>605.5</ele><time>2026-04-18T17:14:02.999Z</time></trkpt><trkpt lat="37.06323546728777" lon="14.911399082902385"><ele>603.0</ele><time>2026-04-18T17:14:03.999Z</time></trkpt><trkpt lat="37.06298547162207" lon="14.911452036401123"><ele>603.0</ele><time>2026-04-18T17:14:04.999Z</time></trkpt><trkpt lat="37.062743145624836" lon="14.9115066142714"><ele>603.0</ele><time>2026-04-18T17:14:05.999Z</time></trkpt><trkpt lat="37.06250529211309" lon="14.91155757451313"><ele>611.0</ele><time>2026-04-18T17:14:06.999Z</time></trkpt><trkpt lat="37.06228386758259" lon="14.911607772557518"><ele>619.0</ele><time>2026-04-18T17:14:07.999Z</time></trkpt><trkpt lat="37.06207585152054" lon="14.911653058959466"><ele>627.0</ele><time>2026-04-18T17:14:08.999Z</time></trkpt><trkpt lat="37.061876567192336" lon="14.911694346677745"><ele>628.6666666666666</ele><time>2026-04-18T17:14:09.999Z</time></trkpt><trkpt lat="37.06168652858406" lon="14.91175300874017"><ele>630.3333333333333</ele><time>2026-04-18T17:14:10.999Z</time></trkpt><trkpt lat="37.06151066414713" lon="14.91185047634649"><ele>632.0</ele><time>2026-04-18T17:14:11.999Z</time></trkpt><trkpt lat="37.061347557124336" lon="14.911991745862911"><ele>632.0</ele><time>2026-04-18T17:14:12.999Z</time></trkpt><trkpt lat="37.06119952995128" lon="14.912175041778607"><ele>632.0</ele><time>2026-04-18T17:14:13.999Z</time></trkpt><trkpt lat="37.06105419519405" lon="14.912388006262475"><ele>632.0</ele><time>2026-04-18T17:14:14.999Z</time></trkpt><trkpt lat="37.060895754326296" lon="14.912608346439209"><ele>636.5</ele><time>2026-04-18T17:14:15.999Z</time></trkpt><trkpt lat="37.06073704054695" lon="14.91283119026494"><ele>641.0</ele><time>2026-04-18T17:14:16.999Z</time></trkpt><trkpt lat="37.060572541415915" lon="14.91305808125829"><ele>641.0</ele><time>2026-04-18T17:14:17.999Z</time></trkpt><trkpt lat="37.0604006138647" lon="14.913278524156933"><ele>641.0</ele><time>2026-04-18T17:14:18.999Z</time></trkpt><trkpt lat="37.06022793247009" lon="14.913500559349787"><ele>638.5</ele><time>2026-04-18T17:14:19.999Z</time></trkpt><trkpt lat="37.060063319309" lon="14.913711929237706"><ele>636.0</ele><time>2026-04-18T17:14:20.999Z</time></trkpt><trkpt lat="37.059906906692504" lon="14.913917017937036"><ele>636.0</ele><time>2026-04-18T17:14:21.999Z</time></trkpt><trkpt lat="37.059750674469896" lon="14.914123108005448"><ele>636.0</ele><time>2026-04-18T17:14:22.999Z</time></trkpt><trkpt lat="37.059587343827275" lon="14.914310303478537"><ele>636.0</ele><time>2026-04-18T17:14:23.999Z</time></trkpt><trkpt lat="37.05941186080367" lon="14.914493657873448"><ele>633.5</ele><time>2026-04-18T17:14:24.999Z</time></trkpt><trkpt lat="37.059233594555984" lon="14.914675315136293"><ele>631.0</ele><time>2026-04-18T17:14:25.999Z</time></trkpt><trkpt lat="37.05903394314871" lon="14.914835731677583"><ele>630.0</ele><time>2026-04-18T17:14:26.999Z</time></trkpt><trkpt lat="37.058837341725784" lon="14.914995449353116"><ele>629.0</ele><time>2026-04-18T17:14:27.999Z</time></trkpt><trkpt lat="37.05863004047725" lon="14.91513591820033"><ele>622.0</ele><time>2026-04-18T17:14:28.999Z</time></trkpt><trkpt lat="37.058402771490535" lon="14.91528170075726"><ele>615.0</ele><time>2026-04-18T17:14:29.999Z</time></trkpt><trkpt lat="37.05817475177657" lon="14.915372073621606"><ele>607.0</ele><time>2026-04-18T17:14:30.999Z</time></trkpt><trkpt lat="37.057937868224926" lon="14.915462925315534"><ele>599.0</ele><time>2026-04-18T17:14:31.999Z</time></trkpt><trkpt lat="37.05767637412201" lon="14.915545415079427"><ele>597.0</ele><time>2026-04-18T17:14:32.999Z</time></trkpt><trkpt lat="37.05741910548954" lon="14.915632016573607"><ele>595.0</ele><time>2026-04-18T17:14:33.998Z</time></trkpt><trkpt lat="37.05715952606664" lon="14.915699635308249"><ele>595.0</ele><time>2026-04-18T17:14:34.998Z</time></trkpt><trkpt lat="37.056910902505635" lon="14.915747695654707"><ele>595.0</ele><time>2026-04-18T17:14:35.998Z</time></trkpt><trkpt lat="37.056644856399764" lon="14.91580311922894"><ele>596.5</ele><time>2026-04-18T17:14:36.998Z</time></trkpt><trkpt lat="37.05637933362125" lon="14.91587067038894"><ele>598.0</ele><time>2026-04-18T17:14:37.998Z</time></trkpt><trkpt lat="37.056110130929184" lon="14.915921970664158"><ele>604.5</ele><time>2026-04-18T17:14:38.998Z</time></trkpt><trkpt lat="37.05584244310895" lon="14.915972223894864"><ele>611.0</ele><time>2026-04-18T17:14:39.998Z</time></trkpt><trkpt lat="37.055579030314824" lon="14.916029043384453"><ele>616.5</ele><time>2026-04-18T17:14:40.998Z</time></trkpt><trkpt lat="37.05530944740894" lon="14.916088545334798"><ele>622.0</ele><time>2026-04-18T17:14:41.998Z</time></trkpt><trkpt lat="37.05504653096082" lon="14.916145907321932"><ele>623.0</ele><time>2026-04-18T17:14:42.998Z</time></trkpt><trkpt lat="37.0547839086284" lon="14.916200709885947"><ele>624.0</ele><time>2026-04-18T17:14:43.998Z</time></trkpt><trkpt lat="37.05452451727494" lon="14.916265271865312"><ele>624.0</ele><time>2026-04-18T17:14:44.998Z</time></trkpt><trkpt lat="37.054271974655094" lon="14.916347853762955"><ele>624.0</ele><time>2026-04-18T17:14:46Z</time></trkpt><trkpt lat="37.054024590114" lon="14.916447931362741"><ele>626.5</ele><time>2026-04-18T17:14:47Z</time></trkpt><trkpt lat="37.05378991644575" lon="14.916569640927346"><ele>629.0</ele><time>2026-04-18T17:14:48Z</time></trkpt><trkpt lat="37.053567192614025" lon="14.916708144736031"><ele>629.0</ele><time>2026-04-18T17:14:49Z</time></trkpt><trkpt lat="37.053361707763095" lon="14.916859399343558"><ele>629.0</ele><time>2026-04-18T17:14:50Z</time></trkpt><trkpt lat="37.053176996594644" lon="14.917024248138986"><ele>631.0</ele><time>2026-04-18T17:14:51Z</time></trkpt><trkpt lat="37.053002078572014" lon="14.9172027567748"><ele>633.0</ele><time>2026-04-18T17:14:52Z</time></trkpt><trkpt lat="37.052832601738984" lon="14.917377770435907"><ele>635.0</ele><time>2026-04-18T17:14:53Z</time></trkpt><trkpt lat="37.05267761893598" lon="14.917571038176556"><ele>635.0</ele><time>2026-04-18T17:14:54Z</time></trkpt><trkpt lat="37.05252932821779" lon="14.91778269952325"><ele>635.0</ele><time>2026-04-18T17:14:55Z</time></trkpt><trkpt lat="37.05238225698226" lon="14.918003745225073"><ele>636.0</ele><time>2026-04-18T17:14:56Z</time></trkpt><trkpt lat="37.052234715067456" lon="14.91823346200019"><ele>637.0</ele><time>2026-04-18T17:14:57Z</time></trkpt><trkpt lat="37.05209374023838" lon="14.918482262970624"><ele>637.0</ele><time>2026-04-18T17:14:58Z</time></trkpt><trkpt lat="37.05197822974872" lon="14.918788495579026"><ele>637.0</ele><time>2026-04-18T17:14:59Z</time></trkpt><trkpt lat="37.05186943672862" lon="14.919088208891454"><ele>632.0</ele><time>2026-04-18T17:15:00Z</time></trkpt><trkpt lat="37.05177617804962" lon="14.919403365702783"><ele>627.0</ele><time>2026-04-18T17:15:01Z</time></trkpt><trkpt lat="37.05170003150385" lon="14.919711721428078"><ele>627.0</ele><time>2026-04-18T17:15:02Z</time></trkpt><trkpt lat="37.05164046292181" lon="14.920028082115818"><ele>627.0</ele><time>2026-04-18T17:15:03Z</time></trkpt><trkpt lat="37.051592379172654" lon="14.920360738533265"><ele>625.5</ele><time>2026-04-18T17:15:04Z</time></trkpt><trkpt lat="37.05156213035946" lon="14.920697036264942"><ele>624.0</ele><time>2026-04-18T17:15:05Z</time></trkpt><trkpt lat="37.051544686065505" lon="14.921040684137509"><ele>628.0</ele><time>2026-04-18T17:15:06Z</time></trkpt><trkpt lat="37.051521613325356" lon="14.921387681673615"><ele>632.0</ele><time>2026-04-18T17:15:07Z</time></trkpt><trkpt lat="37.05149068525742" lon="14.921725725972616"><ele>634.0</ele><time>2026-04-18T17:15:08Z</time></trkpt><trkpt lat="37.0514621965345" lon="14.922068321755978"><ele>636.0</ele><time>2026-04-18T17:15:09Z</time></trkpt><trkpt lat="37.051435191981795" lon="14.922412049694953"><ele>637.0</ele><time>2026-04-18T17:15:10Z</time></trkpt><trkpt lat="37.05140828656156" lon="14.922756270721322"><ele>638.0</ele><time>2026-04-18T17:15:11Z</time></trkpt><trkpt lat="37.05138101821625" lon="14.92310061688002"><ele>639.0</ele><time>2026-04-18T17:15:12Z</time></trkpt><trkpt lat="37.05135308892247" lon="14.923439789676108"><ele>640.0</ele><time>2026-04-18T17:15:13Z</time></trkpt><trkpt lat="37.05132792215769" lon="14.923780513295705"><ele>640.0</ele><time>2026-04-18T17:15:14Z</time></trkpt><trkpt lat="37.051300235191505" lon="14.924123899233507"><ele>640.0</ele><time>2026-04-18T17:15:15Z</time></trkpt><trkpt lat="37.051272282654516" lon="14.924475679040116"><ele>640.0</ele><time>2026-04-18T17:15:16Z</time></trkpt><trkpt lat="37.05124619759345" lon="14.924822097397811"><ele>640.0</ele><time>2026-04-18T17:15:17Z</time></trkpt><trkpt lat="37.05121975933952" lon="14.925176772805385"><ele>638.5</ele><time>2026-04-18T17:15:18Z</time></trkpt><trkpt lat="37.051193128793685" lon="14.925530701780115"><ele>637.0</ele><time>2026-04-18T17:15:19Z</time></trkpt><trkpt lat="37.051166164967135" lon="14.925879046244336"><ele>634.0</ele><time>2026-04-18T17:15:20Z</time></trkpt><trkpt lat="37.05113756779383" lon="14.926228013639642"><ele>631.0</ele><time>2026-04-18T17:15:21Z</time></trkpt><trkpt lat="37.05110944400424" lon="14.926578435563965"><ele>628.5</ele><time>2026-04-18T17:15:22Z</time></trkpt><trkpt lat="37.05108109451586" lon="14.926937706001873"><ele>626.0</ele><time>2026-04-18T17:15:23Z</time></trkpt><trkpt lat="37.05105273990933" lon="14.927297050879933"><ele>624.5</ele><time>2026-04-18T17:15:24Z</time></trkpt><trkpt lat="37.0510267122857" lon="14.927655239616323"><ele>623.0</ele><time>2026-04-18T17:15:25Z</time></trkpt><trkpt lat="37.05099729160088" lon="14.928012659954453"><ele>623.0</ele><time>2026-04-18T17:15:26Z</time></trkpt><trkpt lat="37.05097100256272" lon="14.928372479910639"><ele>623.0</ele><time>2026-04-18T17:15:27Z</time></trkpt><trkpt lat="37.05094338290857" lon="14.928729890110226"><ele>622.0</ele><time>2026-04-18T17:15:28Z</time></trkpt><trkpt lat="37.0509161287191" lon="14.929088020839991"><ele>621.0</ele><time>2026-04-18T17:15:29Z</time></trkpt><trkpt lat="37.05089082896802" lon="14.929444499324896"><ele>619.0</ele><time>2026-04-18T17:15:30Z</time></trkpt><trkpt lat="37.0508661592282" lon="14.929796068545732"><ele>617.0</ele><time>2026-04-18T17:15:31Z</time></trkpt><trkpt lat="37.05083461006009" lon="14.930150991316706"><ele>614.0</ele><time>2026-04-18T17:15:32Z</time></trkpt><trkpt lat="37.05080561051383" lon="14.930500864215794"><ele>611.0</ele><time>2026-04-18T17:15:32.999Z</time></trkpt><trkpt lat="37.05077875891539" lon="14.930850649817009"><ele>608.0</ele><time>2026-04-18T17:15:33.999Z</time></trkpt><trkpt lat="37.050745144317894" lon="14.931195095021843"><ele>605.0</ele><time>2026-04-18T17:15:34.999Z</time></trkpt><trkpt lat="37.05071212728362" lon="14.931534498485666"><ele>602.0</ele><time>2026-04-18T17:15:35.999Z</time></trkpt><trkpt lat="37.05067365738384" lon="14.931874966057153"><ele>599.0</ele><time>2026-04-18T17:15:36.999Z</time></trkpt><trkpt lat="37.05062143917775" lon="14.932208324141186"><ele>599.0</ele><time>2026-04-18T17:15:37.999Z</time></trkpt><trkpt lat="37.050562449924854" lon="14.93254090955527"><ele>599.0</ele><time>2026-04-18T17:15:38.999Z</time></trkpt><trkpt lat="37.05049404426727" lon="14.93287429268277"><ele>596.5</ele><time>2026-04-18T17:15:39.999Z</time></trkpt><trkpt lat="37.05041441983121" lon="14.933203960240176"><ele>594.0</ele><time>2026-04-18T17:15:40.999Z</time></trkpt><trkpt lat="37.050324464541035" lon="14.933533600495426"><ele>591.5</ele><time>2026-04-18T17:15:41.999Z</time></trkpt><trkpt lat="37.05022162463669" lon="14.933861934834958"><ele>589.0</ele><time>2026-04-18T17:15:42.999Z</time></trkpt><trkpt lat="37.05011548378603" lon="14.934187012865427"><ele>588.0</ele><time>2026-04-18T17:15:43.999Z</time></trkpt><trkpt lat="37.050002793087124" lon="14.93451300683156"><ele>587.0</ele><time>2026-04-18T17:15:44.999Z</time></trkpt><trkpt lat="37.04989278588498" lon="14.93484275506097"><ele>584.0</ele><time>2026-04-18T17:15:45.999Z</time></trkpt><trkpt lat="37.049784348130714" lon="14.935169968835737"><ele>581.0</ele><time>2026-04-18T17:15:46.999Z</time></trkpt><trkpt lat="37.04967889737113" lon="14.935499008456626"><ele>581.0</ele><time>2026-04-18T17:15:47.999Z</time></trkpt><trkpt lat="37.04957115618019" lon="14.935828813243212"><ele>581.0</ele><time>2026-04-18T17:15:48.999Z</time></trkpt><trkpt lat="37.049460673141795" lon="14.936161928629028"><ele>581.0</ele><time>2026-04-18T17:15:49.999Z</time></trkpt><trkpt lat="37.04934948893192" lon="14.93649921117457"><ele>581.0</ele><time>2026-04-18T17:15:50.999Z</time></trkpt><trkpt lat="37.049239486138205" lon="14.936830886620006"><ele>580.0</ele><time>2026-04-18T17:15:51.999Z</time></trkpt><trkpt lat="37.04912937514528" lon="14.937163365409493"><ele>579.0</ele><time>2026-04-18T17:15:52.999Z</time></trkpt><trkpt lat="37.04901946200379" lon="14.937494579443053"><ele>577.0</ele><time>2026-04-18T17:15:53.999Z</time></trkpt><trkpt lat="37.04890895661027" lon="14.93782342859496"><ele>575.0</ele><time>2026-04-18T17:15:54.999Z</time></trkpt><trkpt lat="37.04879996245311" lon="14.938150954041898"><ele>574.0</ele><time>2026-04-18T17:15:55.999Z</time></trkpt><trkpt lat="37.04869329699568" lon="14.938479217430666"><ele>573.0</ele><time>2026-04-18T17:15:56.999Z</time></trkpt><trkpt lat="37.04858649216505" lon="14.93880200230515"><ele>573.0</ele><time>2026-04-18T17:15:57.999Z</time></trkpt><trkpt lat="37.04848025075605" lon="14.939130070214835"><ele>573.0</ele><time>2026-04-18T17:15:58.999Z</time></trkpt><trkpt lat="37.0483725108909" lon="14.939449651141569"><ele>570.5</ele><time>2026-04-18T17:15:59.999Z</time></trkpt><trkpt lat="37.04826446042876" lon="14.939769422019804"><ele>568.0</ele><time>2026-04-18T17:16:00.999Z</time></trkpt><trkpt lat="37.04815310060587" lon="14.940088883326258"><ele>568.0</ele><time>2026-04-18T17:16:01.999Z</time></trkpt><trkpt lat="37.04803837416549" lon="14.94040843508495"><ele>568.0</ele><time>2026-04-18T17:16:02.999Z</time></trkpt><trkpt lat="37.04791816452587" lon="14.940725770911651"><ele>568.0</ele><time>2026-04-18T17:16:03.999Z</time></trkpt><trkpt lat="37.047791158485666" lon="14.941039879014419"><ele>568.0</ele><time>2026-04-18T17:16:04.999Z</time></trkpt><trkpt lat="37.04765694121274" lon="14.941350135297492"><ele>568.0</ele><time>2026-04-18T17:16:05.999Z</time></trkpt><trkpt lat="37.04750818576775" lon="14.941654610352302"><ele>568.0</ele><time>2026-04-18T17:16:06.999Z</time></trkpt><trkpt lat="37.04734975971807" lon="14.941961075849402"><ele>563.5</ele><time>2026-04-18T17:16:07.999Z</time></trkpt><trkpt lat="37.047183664117874" lon="14.942254984237678"><ele>559.0</ele><time>2026-04-18T17:16:08.999Z</time></trkpt><trkpt lat="37.0470104916916" lon="14.942540580132317"><ele>559.5</ele><time>2026-04-18T17:16:09.999Z</time></trkpt><trkpt lat="37.04683418447171" lon="14.94281833619427"><ele>560.0</ele><time>2026-04-18T17:16:10.999Z</time></trkpt><trkpt lat="37.04665336026078" lon="14.943090768678458"><ele>560.0</ele><time>2026-04-18T17:16:11.999Z</time></trkpt><trkpt lat="37.046471042843116" lon="14.943362542962202"><ele>560.0</ele><time>2026-04-18T17:16:12.999Z</time></trkpt><trkpt lat="37.046291176937565" lon="14.943628490004409"><ele>559.0</ele><time>2026-04-18T17:16:13.999Z</time></trkpt><trkpt lat="37.046113372984706" lon="14.943893595530708"><ele>558.0</ele><time>2026-04-18T17:16:14.999Z</time></trkpt><trkpt lat="37.04593638504387" lon="14.944157905609995"><ele>556.5</ele><time>2026-04-18T17:16:15.999Z</time></trkpt><trkpt lat="37.045757484511526" lon="14.9444272256017"><ele>555.0</ele><time>2026-04-18T17:16:16.999Z</time></trkpt><trkpt lat="37.045579980690874" lon="14.944690517678575"><ele>555.0</ele><time>2026-04-18T17:16:17.999Z</time></trkpt><trkpt lat="37.04540482956886" lon="14.944953961608842"><ele>555.0</ele><time>2026-04-18T17:16:18.999Z</time></trkpt><trkpt lat="37.04522873118001" lon="14.945215303176557"><ele>555.0</ele><time>2026-04-18T17:16:19.999Z</time></trkpt><trkpt lat="37.04505301058625" lon="14.9454769023138"><ele>555.0</ele><time>2026-04-18T17:16:20.999Z</time></trkpt><trkpt lat="37.044882912252135" lon="14.945735906621875"><ele>554.5</ele><time>2026-04-18T17:16:21.999Z</time></trkpt><trkpt lat="37.04471853019196" lon="14.946005526895947"><ele>554.0</ele><time>2026-04-18T17:16:22.999Z</time></trkpt><trkpt lat="37.04455298455378" lon="14.946285076416459"><ele>554.0</ele><time>2026-04-18T17:16:23.999Z</time></trkpt><trkpt lat="37.04439885307062" lon="14.946580674639266"><ele>554.0</ele><time>2026-04-18T17:16:24.999Z</time></trkpt><trkpt lat="37.04425642259727" lon="14.946885771948207"><ele>553.0</ele><time>2026-04-18T17:16:25.999Z</time></trkpt><trkpt lat="37.04412051048591" lon="14.947202685825433"><ele>552.0</ele><time>2026-04-18T17:16:26.999Z</time></trkpt><trkpt lat="37.043996189984696" lon="14.947530925499377"><ele>551.5</ele><time>2026-04-18T17:16:27.999Z</time></trkpt><trkpt lat="37.04387938690294" lon="14.947860170586495"><ele>551.0</ele><time>2026-04-18T17:16:28.999Z</time></trkpt><trkpt lat="37.043775339860254" lon="14.94819949655233"><ele>550.5</ele><time>2026-04-18T17:16:29.999Z</time></trkpt><trkpt lat="37.04366760228979" lon="14.948548424027717"><ele>550.0</ele><time>2026-04-18T17:16:30.999Z</time></trkpt><trkpt lat="37.0435598360466" lon="14.948887293770785"><ele>549.5</ele><time>2026-04-18T17:16:31.999Z</time></trkpt><trkpt lat="37.043451881216114" lon="14.949230265651712"><ele>549.0</ele><time>2026-04-18T17:16:32.999Z</time></trkpt><trkpt lat="37.043342286655566" lon="14.94957135376121"><ele>548.0</ele><time>2026-04-18T17:16:33.999Z</time></trkpt><trkpt lat="37.04323575028771" lon="14.949902887638503"><ele>547.0</ele><time>2026-04-18T17:16:34.999Z</time></trkpt><trkpt lat="37.04313107070681" lon="14.950233379361892"><ele>547.0</ele><time>2026-04-18T17:16:35.999Z</time></trkpt><trkpt lat="37.04302612869979" lon="14.950559658671347"><ele>547.0</ele><time>2026-04-18T17:16:36.998Z</time></trkpt><trkpt lat="37.04292683114575" lon="14.950879092428677"><ele>547.0</ele><time>2026-04-18T17:16:37.998Z</time></trkpt><trkpt lat="37.042829888297874" lon="14.95119149771014"><ele>547.0</ele><time>2026-04-18T17:16:38.998Z</time></trkpt><trkpt lat="37.04273065285681" lon="14.95149998594229"><ele>546.5</ele><time>2026-04-18T17:16:39.998Z</time></trkpt><trkpt lat="37.0426352453254" lon="14.951797850870387"><ele>546.0</ele><time>2026-04-18T17:16:40.998Z</time></trkpt><trkpt lat="37.04253525078184" lon="14.952101874206244"><ele>545.0</ele><time>2026-04-18T17:16:41.998Z</time></trkpt><trkpt lat="37.04243870523764" lon="14.952402288219552"><ele>544.0</ele><time>2026-04-18T17:16:42.998Z</time></trkpt><trkpt lat="37.0423399116961" lon="14.952701640005676"><ele>544.0</ele><time>2026-04-18T17:16:43.998Z</time></trkpt><trkpt lat="37.042243179588176" lon="14.95300309773186"><ele>544.0</ele><time>2026-04-18T17:16:44.998Z</time></trkpt><trkpt lat="37.04214630769018" lon="14.953305155532655"><ele>542.5</ele><time>2026-04-18T17:16:45.998Z</time></trkpt><trkpt lat="37.042049576485326" lon="14.953601745854552"><ele>541.0</ele><time>2026-04-18T17:16:46.998Z</time></trkpt><trkpt lat="37.04195461742803" lon="14.95389335582203"><ele>541.0</ele><time>2026-04-18T17:16:47.998Z</time></trkpt><trkpt lat="37.041859226035115" lon="14.954183577989763"><ele>541.0</ele><time>2026-04-18T17:16:48.998Z</time></trkpt><trkpt lat="37.04176305424189" lon="14.95447568165839"><ele>539.5</ele><time>2026-04-18T17:16:49.998Z</time></trkpt><trkpt lat="37.04166591186874" lon="14.954766365686204"><ele>538.0</ele><time>2026-04-18T17:16:50.998Z</time></trkpt><trkpt lat="37.04157094669212" lon="14.955056077812236"><ele>537.0</ele><time>2026-04-18T17:16:52Z</time></trkpt><trkpt lat="37.04147430034214" lon="14.955353102161173"><ele>536.0</ele><time>2026-04-18T17:16:53Z</time></trkpt><trkpt lat="37.04137611845768" lon="14.955653781713403"><ele>535.0</ele><time>2026-04-18T17:16:54Z</time></trkpt><trkpt lat="37.04128095912895" lon="14.955953506530811"><ele>534.0</ele><time>2026-04-18T17:16:55Z</time></trkpt><trkpt lat="37.041185305775045" lon="14.956260818051094"><ele>534.0</ele><time>2026-04-18T17:16:56Z</time></trkpt><trkpt lat="37.0410884668675" lon="14.956567104653475"><ele>534.0</ele><time>2026-04-18T17:16:57Z</time></trkpt><trkpt lat="37.04098805391723" lon="14.956870975461475"><ele>533.5</ele><time>2026-04-18T17:16:58Z</time></trkpt><trkpt lat="37.0408868433934" lon="14.957182672773282"><ele>533.0</ele><time>2026-04-18T17:16:59Z</time></trkpt><trkpt lat="37.040784082547006" lon="14.957492374731977"><ele>532.0</ele><time>2026-04-18T17:17:00Z</time></trkpt><trkpt lat="37.040681295177286" lon="14.957804212428492"><ele>531.0</ele><time>2026-04-18T17:17:01Z</time></trkpt><trkpt lat="37.040578797411946" lon="14.95811775132165"><ele>530.0</ele><time>2026-04-18T17:17:02Z</time></trkpt><trkpt lat="37.04047866914929" lon="14.958427744467103"><ele>529.0</ele><time>2026-04-18T17:17:03Z</time></trkpt><trkpt lat="37.04037752990572" lon="14.958749299063587"><ele>529.0</ele><time>2026-04-18T17:17:04Z</time></trkpt><trkpt lat="37.04027426619157" lon="14.95906648205738"><ele>529.0</ele><time>2026-04-18T17:17:05Z</time></trkpt><trkpt lat="37.04017063398604" lon="14.959380328252669"><ele>526.5</ele><time>2026-04-18T17:17:06Z</time></trkpt><trkpt lat="37.04006958589626" lon="14.95969686825409"><ele>524.0</ele><time>2026-04-18T17:17:07Z</time></trkpt><trkpt lat="37.039965636285395" lon="14.96001642554916"><ele>523.0</ele><time>2026-04-18T17:17:08Z</time></trkpt><trkpt lat="37.03986961494187" lon="14.960328280449195"><ele>522.0</ele><time>2026-04-18T17:17:09Z</time></trkpt><trkpt lat="37.0397709575425" lon="14.960641588910592"><ele>521.0</ele><time>2026-04-18T17:17:10Z</time></trkpt><trkpt lat="37.03967429276069" lon="14.96095343523426"><ele>520.0</ele><time>2026-04-18T17:17:11Z</time></trkpt><trkpt lat="37.039574908258736" lon="14.961264577666398"><ele>520.0</ele><time>2026-04-18T17:17:12Z</time></trkpt><trkpt lat="37.039478151877304" lon="14.961574572404041"><ele>520.0</ele><time>2026-04-18T17:17:13Z</time></trkpt><trkpt lat="37.03937112247136" lon="14.961885410430298"><ele>521.0</ele><time>2026-04-18T17:17:14Z</time></trkpt><trkpt lat="37.03928118894377" lon="14.96219632432953"><ele>522.0</ele><time>2026-04-18T17:17:15Z</time></trkpt><trkpt lat="37.039185018560495" lon="14.96250780505803"><ele>519.0</ele><time>2026-04-18T17:17:16Z</time></trkpt><trkpt lat="37.0390889262207" lon="14.962820008996628"><ele>516.0</ele><time>2026-04-18T17:17:17Z</time></trkpt><trkpt lat="37.038990887112206" lon="14.963133552547264"><ele>515.5</ele><time>2026-04-18T17:17:18Z</time></trkpt><trkpt lat="37.038890157766616" lon="14.96344202769214"><ele>515.0</ele><time>2026-04-18T17:17:19Z</time></trkpt><trkpt lat="37.038788645949346" lon="14.963752725245984"><ele>515.0</ele><time>2026-04-18T17:17:20Z</time></trkpt><trkpt lat="37.03868800526727" lon="14.964062290504343"><ele>515.0</ele><time>2026-04-18T17:17:21Z</time></trkpt><trkpt lat="37.03858681887666" lon="14.964369544758554"><ele>515.5</ele><time>2026-04-18T17:17:22Z</time></trkpt><trkpt lat="37.03848627856521" lon="14.964674562857205"><ele>516.0</ele><time>2026-04-18T17:17:23Z</time></trkpt><trkpt lat="37.03838504096843" lon="14.964979155003157"><ele>514.5</ele><time>2026-04-18T17:17:24Z</time></trkpt><trkpt lat="37.03828470593995" lon="14.965282492497003"><ele>513.0</ele><time>2026-04-18T17:17:25Z</time></trkpt><trkpt lat="37.038184681995396" lon="14.965582251451384"><ele>512.5</ele><time>2026-04-18T17:17:26Z</time></trkpt><trkpt lat="37.03808538458837" lon="14.965883143561063"><ele>512.0</ele><time>2026-04-18T17:17:27Z</time></trkpt><trkpt lat="37.037987298685294" lon="14.96618364881235"><ele>512.0</ele><time>2026-04-18T17:17:28Z</time></trkpt><trkpt lat="37.03788886737459" lon="14.966485469307369"><ele>512.0</ele><time>2026-04-18T17:17:29Z</time></trkpt><trkpt lat="37.03779116420428" lon="14.966790884295998"><ele>512.5</ele><time>2026-04-18T17:17:30Z</time></trkpt><trkpt lat="37.03769186746943" lon="14.967095303851476"><ele>513.0</ele><time>2026-04-18T17:17:31Z</time></trkpt><trkpt lat="37.037594332009384" lon="14.967398380194052"><ele>513.0</ele><time>2026-04-18T17:17:32Z</time></trkpt><trkpt lat="37.037495894880706" lon="14.967702873970723"><ele>513.0</ele><time>2026-04-18T17:17:33Z</time></trkpt><trkpt lat="37.037396793582964" lon="14.968007348590541"><ele>513.0</ele><time>2026-04-18T17:17:34Z</time></trkpt><trkpt lat="37.03729681316429" lon="14.968310079335586"><ele>513.0</ele><time>2026-04-18T17:17:35Z</time></trkpt><trkpt lat="37.03719680090763" lon="14.9686131810982"><ele>512.5</ele><time>2026-04-18T17:17:36Z</time></trkpt><trkpt lat="37.03709739095099" lon="14.968917113103416"><ele>512.0</ele><time>2026-04-18T17:17:37Z</time></trkpt><trkpt lat="37.03700275576879" lon="14.969227728668953"><ele>511.5</ele><time>2026-04-18T17:17:37.999Z</time></trkpt><trkpt lat="37.036906174696355" lon="14.969542175465886"><ele>511.0</ele><time>2026-04-18T17:17:38.999Z</time></trkpt><trkpt lat="37.03680999134185" lon="14.969857196850125"><ele>511.0</ele><time>2026-04-18T17:17:39.999Z</time></trkpt><trkpt lat="37.03671203415059" lon="14.97017705553537"><ele>511.0</ele><time>2026-04-18T17:17:40.999Z</time></trkpt><trkpt lat="37.03661253143953" lon="14.970497198767681"><ele>511.0</ele><time>2026-04-18T17:17:41.999Z</time></trkpt><trkpt lat="37.036514632379614" lon="14.970817681301215"><ele>511.0</ele><time>2026-04-18T17:17:42.999Z</time></trkpt><trkpt lat="37.0364219790333" lon="14.971138091597927"><ele>510.0</ele><time>2026-04-18T17:17:43.999Z</time></trkpt><trkpt lat="37.03633671472861" lon="14.971463051009014"><ele>509.0</ele><time>2026-04-18T17:17:44.999Z</time></trkpt><trkpt lat="37.036262218953624" lon="14.971792626597198"><ele>509.0</ele><time>2026-04-18T17:17:45.999Z</time></trkpt><trkpt lat="37.03619850304277" lon="14.97212327601666"><ele>509.0</ele><time>2026-04-18T17:17:46.999Z</time></trkpt><trkpt lat="37.03614479480923" lon="14.972452348159047"><ele>508.0</ele><time>2026-04-18T17:17:47.999Z</time></trkpt><trkpt lat="37.03609856458642" lon="14.972788440992412"><ele>507.0</ele><time>2026-04-18T17:17:48.999Z</time></trkpt><trkpt lat="37.036037829434136" lon="14.973131095122485"><ele>507.0</ele><time>2026-04-18T17:17:49.999Z</time></trkpt><trkpt lat="37.03598781201061" lon="14.973494531695364"><ele>507.0</ele><time>2026-04-18T17:17:50.999Z</time></trkpt><trkpt lat="37.03593503841405" lon="14.973877995185346"><ele>507.0</ele><time>2026-04-18T17:17:51.999Z</time></trkpt><trkpt lat="37.03588306993564" lon="14.974255608484208"><ele>507.0</ele><time>2026-04-18T17:17:52.999Z</time></trkpt><trkpt lat="37.03582919945193" lon="14.974647819705039"><ele>505.5</ele><time>2026-04-18T17:17:53.999Z</time></trkpt><trkpt lat="37.03578241342425" lon="14.975033649062835"><ele>504.0</ele><time>2026-04-18T17:17:54.999Z</time></trkpt><trkpt lat="37.03572346664541" lon="14.97541587609504"><ele>504.0</ele><time>2026-04-18T17:17:55.999Z</time></trkpt><trkpt lat="37.03566752457539" lon="14.975790279907248"><ele>504.0</ele><time>2026-04-18T17:17:56.999Z</time></trkpt><trkpt lat="37.03561486280434" lon="14.976161243993747"><ele>503.5</ele><time>2026-04-18T17:17:57.999Z</time></trkpt><trkpt lat="37.03556610128294" lon="14.97652873360518"><ele>503.0</ele><time>2026-04-18T17:17:58.999Z</time></trkpt><trkpt lat="37.03552002471076" lon="14.976887599154495"><ele>502.5</ele><time>2026-04-18T17:17:59.999Z</time></trkpt><trkpt lat="37.03547151320616" lon="14.977238805188406"><ele>502.0</ele><time>2026-04-18T17:18:00.999Z</time></trkpt><trkpt lat="37.03542453655957" lon="14.977590159435392"><ele>502.0</ele><time>2026-04-18T17:18:01.999Z</time></trkpt><trkpt lat="37.03537795843562" lon="14.977940887646144"><ele>502.0</ele><time>2026-04-18T17:18:02.999Z</time></trkpt><trkpt lat="37.03533082048726" lon="14.978289287628755"><ele>502.5</ele><time>2026-04-18T17:18:03.999Z</time></trkpt><trkpt lat="37.03528488725837" lon="14.978639586206198"><ele>503.0</ele><time>2026-04-18T17:18:04.999Z</time></trkpt><trkpt lat="37.03523833625561" lon="14.978988964431537"><ele>503.0</ele><time>2026-04-18T17:18:05.999Z</time></trkpt><trkpt lat="37.0351909899162" lon="14.979331789783934"><ele>503.0</ele><time>2026-04-18T17:18:06.999Z</time></trkpt><trkpt lat="37.03513947639108" lon="14.979675163325469"><ele>503.0</ele><time>2026-04-18T17:18:07.999Z</time></trkpt><trkpt lat="37.03508467003586" lon="14.980022336381914"><ele>503.0</ele><time>2026-04-18T17:18:08.999Z</time></trkpt><trkpt lat="37.03502372987517" lon="14.98036721127571"><ele>505.0</ele><time>2026-04-18T17:18:09.999Z</time></trkpt><trkpt lat="37.03495328038578" lon="14.980718975268667"><ele>507.0</ele><time>2026-04-18T17:18:10.999Z</time></trkpt><trkpt lat="37.034878146907246" lon="14.98106563951405"><ele>507.0</ele><time>2026-04-18T17:18:11.999Z</time></trkpt><trkpt lat="37.03479615984759" lon="14.981412054584197"><ele>507.0</ele><time>2026-04-18T17:18:12.999Z</time></trkpt><trkpt lat="37.03471131673139" lon="14.981756551567763"><ele>505.5</ele><time>2026-04-18T17:18:13.999Z</time></trkpt><trkpt lat="37.034621925817206" lon="14.982102959972714"><ele>504.0</ele><time>2026-04-18T17:18:14.999Z</time></trkpt><trkpt lat="37.034530883981034" lon="14.98244929307"><ele>501.0</ele><time>2026-04-18T17:18:15.999Z</time></trkpt><trkpt lat="37.034438293596466" lon="14.98279581748744"><ele>498.0</ele><time>2026-04-18T17:18:16.999Z</time></trkpt><trkpt lat="37.03434745170583" lon="14.983139171704275"><ele>497.5</ele><time>2026-04-18T17:18:17.999Z</time></trkpt><trkpt lat="37.03425768605633" lon="14.9834824841311"><ele>497.0</ele><time>2026-04-18T17:18:18.999Z</time></trkpt><trkpt lat="37.03417054702412" lon="14.983822178561752"><ele>497.0</ele><time>2026-04-18T17:18:19.999Z</time></trkpt><trkpt lat="37.034082631897924" lon="14.98415868806589"><ele>497.0</ele><time>2026-04-18T17:18:20.999Z</time></trkpt><trkpt lat="37.033991930263426" lon="14.98449546077093"><ele>497.0</ele><time>2026-04-18T17:18:21.999Z</time></trkpt><trkpt lat="37.03390235187827" lon="14.984830131077702"><ele>497.0</ele><time>2026-04-18T17:18:22.999Z</time></trkpt><trkpt lat="37.033812428058596" lon="14.985162965419182"><ele>497.0</ele><time>2026-04-18T17:18:23.999Z</time></trkpt><trkpt lat="37.03372162358316" lon="14.985495401695498"><ele>497.0</ele><time>2026-04-18T17:18:24.999Z</time></trkpt><trkpt lat="37.03363234125378" lon="14.98582514692723"><ele>498.0</ele><time>2026-04-18T17:18:25.999Z</time></trkpt><trkpt lat="37.03354174639481" lon="14.986154762386729"><ele>499.0</ele><time>2026-04-18T17:18:26.999Z</time></trkpt><trkpt lat="37.033447314898744" lon="14.986479638847689"><ele>499.0</ele><time>2026-04-18T17:18:27.999Z</time></trkpt><trkpt lat="37.03334610339727" lon="14.986799238222332"><ele>499.0</ele><time>2026-04-18T17:18:28.999Z</time></trkpt><trkpt lat="37.03323078680205" lon="14.987116532634206"><ele>498.0</ele><time>2026-04-18T17:18:29.999Z</time></trkpt><trkpt lat="37.03310205665753" lon="14.987431187025667"><ele>497.0</ele><time>2026-04-18T17:18:30.999Z</time></trkpt><trkpt lat="37.03296233936733" lon="14.98773906845889"><ele>497.0</ele><time>2026-04-18T17:18:31.999Z</time></trkpt><trkpt lat="37.032821703274756" lon="14.988048839814033"><ele>497.0</ele><time>2026-04-18T17:18:32.999Z</time></trkpt><trkpt lat="37.032681120365496" lon="14.98836044092589"><ele>498.0</ele><time>2026-04-18T17:18:33.999Z</time></trkpt><trkpt lat="37.03255108326057" lon="14.988669103247778"><ele>499.0</ele><time>2026-04-18T17:18:34.999Z</time></trkpt><trkpt lat="37.03242460866757" lon="14.988986388648666"><ele>495.0</ele><time>2026-04-18T17:18:35.999Z</time></trkpt><trkpt lat="37.032322209534435" lon="14.989315055470907"><ele>491.0</ele><time>2026-04-18T17:18:36.999Z</time></trkpt><trkpt lat="37.03224959169761" lon="14.989644869265204"><ele>491.0</ele><time>2026-04-18T17:18:37.999Z</time></trkpt><trkpt lat="37.032192560332305" lon="14.989981355343138"><ele>491.0</ele><time>2026-04-18T17:18:38.999Z</time></trkpt><trkpt lat="37.03215960830044" lon="14.990324400615094"><ele>491.0</ele><time>2026-04-18T17:18:39.999Z</time></trkpt><trkpt lat="37.03214754138913" lon="14.99067774156061"><ele>491.0</ele><time>2026-04-18T17:18:40.999Z</time></trkpt><trkpt lat="37.03214971350616" lon="14.99103596667465"><ele>491.5</ele><time>2026-04-18T17:18:41.999Z</time></trkpt><trkpt lat="37.032163732984486" lon="14.991390584024133"><ele>492.0</ele><time>2026-04-18T17:18:42.998Z</time></trkpt><trkpt lat="37.03217996604751" lon="14.991748948654807"><ele>493.0</ele><time>2026-04-18T17:18:43.998Z</time></trkpt><trkpt lat="37.03219885538442" lon="14.992108670593023"><ele>494.0</ele><time>2026-04-18T17:18:44.998Z</time></trkpt><trkpt lat="37.03221675623774" lon="14.992465140083661"><ele>495.0</ele><time>2026-04-18T17:18:45.998Z</time></trkpt><trkpt lat="37.03223626571976" lon="14.992821342076223"><ele>496.0</ele><time>2026-04-18T17:18:46.998Z</time></trkpt><trkpt lat="37.03225938392228" lon="14.993172044514782"><ele>496.5</ele><time>2026-04-18T17:18:47.998Z</time></trkpt><trkpt lat="37.03228078810141" lon="14.993516324453681"><ele>497.0</ele><time>2026-04-18T17:18:48.998Z</time></trkpt><trkpt lat="37.032299922601545" lon="14.993858236108414"><ele>497.5</ele><time>2026-04-18T17:18:49.998Z</time></trkpt><trkpt lat="37.03231080923669" lon="14.994196067996949"><ele>498.0</ele><time>2026-04-18T17:18:50.998Z</time></trkpt><trkpt lat="37.03230995194622" lon="14.994530691274491"><ele>498.0</ele><time>2026-04-18T17:18:51.998Z</time></trkpt><trkpt lat="37.032292243025005" lon="14.994858313817023"><ele>498.0</ele><time>2026-04-18T17:18:52.998Z</time></trkpt><trkpt lat="37.032255479007034" lon="14.995179508435498"><ele>496.5</ele><time>2026-04-18T17:18:53.998Z</time></trkpt><trkpt lat="37.03220268127799" lon="14.99549512706388"><ele>495.0</ele><time>2026-04-18T17:18:54.998Z</time></trkpt><trkpt lat="37.03212637444585" lon="14.99579940341217"><ele>494.5</ele><time>2026-04-18T17:18:55.998Z</time></trkpt><trkpt lat="37.032034399592426" lon="14.99610617122863"><ele>494.0</ele><time>2026-04-18T17:18:56.998Z</time></trkpt><trkpt lat="37.031932955612554" lon="14.996395151864482"><ele>495.0</ele><time>2026-04-18T17:18:58Z</time></trkpt><trkpt lat="37.031827786173665" lon="14.996677913649513"><ele>496.0</ele><time>2026-04-18T17:18:59Z</time></trkpt><trkpt lat="37.0317167323415" lon="14.996975273850195"><ele>493.0</ele><time>2026-04-18T17:19:00Z</time></trkpt><trkpt lat="37.03159849626644" lon="14.997288695412095"><ele>490.0</ele><time>2026-04-18T17:19:01Z</time></trkpt><trkpt lat="37.03147466535336" lon="14.997606052738478"><ele>490.0</ele><time>2026-04-18T17:19:02Z</time></trkpt><trkpt lat="37.03134358408744" lon="14.99792265479334"><ele>490.0</ele><time>2026-04-18T17:19:03Z</time></trkpt><trkpt lat="37.03120383348376" lon="14.998237787392537"><ele>491.5</ele><time>2026-04-18T17:19:04Z</time></trkpt><trkpt lat="37.031052136504385" lon="14.998548184848637"><ele>493.0</ele><time>2026-04-18T17:19:05Z</time></trkpt><trkpt lat="37.03088840050143" lon="14.998848134710512"><ele>488.0</ele><time>2026-04-18T17:19:06Z</time></trkpt><trkpt lat="37.03071882629952" lon="14.999142394741702"><ele>483.0</ele><time>2026-04-18T17:19:07Z</time></trkpt><trkpt lat="37.030547991286376" lon="14.999430842746326"><ele>483.0</ele><time>2026-04-18T17:19:08Z</time></trkpt><trkpt lat="37.03038277730397" lon="14.999707010365412"><ele>483.0</ele><time>2026-04-18T17:19:09Z</time></trkpt><trkpt lat="37.030219045599196" lon="14.999981017607631"><ele>483.0</ele><time>2026-04-18T17:19:10Z</time></trkpt><trkpt lat="37.03005616372683" lon="15.000251710886314"><ele>483.0</ele><time>2026-04-18T17:19:11Z</time></trkpt><trkpt lat="37.02984280065145" lon="15.000661427337672"><ele>481.5</ele><time>2026-04-18T17:19:12Z</time></trkpt><trkpt lat="37.02967013141683" lon="15.0009566107549"><ele>480.0</ele><time>2026-04-18T17:19:13Z</time></trkpt><trkpt lat="37.02950379143352" lon="15.001247243498943"><ele>480.0</ele><time>2026-04-18T17:19:14Z</time></trkpt><trkpt lat="37.02933361846403" lon="15.001534547617851"><ele>480.0</ele><time>2026-04-18T17:19:15Z</time></trkpt><trkpt lat="37.02916414126407" lon="15.00182278299186"><ele>477.0</ele><time>2026-04-18T17:19:16Z</time></trkpt><trkpt lat="37.02899356400201" lon="15.002103309560516"><ele>474.0</ele><time>2026-04-18T17:19:17Z</time></trkpt><trkpt lat="37.028814759355335" lon="15.002383241550298"><ele>475.0</ele><time>2026-04-18T17:19:18Z</time></trkpt><trkpt lat="37.02863169252274" lon="15.002653830648109"><ele>476.0</ele><time>2026-04-18T17:19:19Z</time></trkpt><trkpt lat="37.02844163598289" lon="15.002909812842455"><ele>474.5</ele><time>2026-04-18T17:19:20Z</time></trkpt><trkpt lat="37.028244814627804" lon="15.003156280785502"><ele>473.0</ele><time>2026-04-18T17:19:21Z</time></trkpt><trkpt lat="37.0280400390887" lon="15.003391668185065"><ele>473.0</ele><time>2026-04-18T17:19:22Z</time></trkpt><trkpt lat="37.027828317263484" lon="15.003616916915433"><ele>473.0</ele><time>2026-04-18T17:19:23Z</time></trkpt><trkpt lat="37.02761050709523" lon="15.003839306432335"><ele>472.0</ele><time>2026-04-18T17:19:24Z</time></trkpt><trkpt lat="37.027388198285564" lon="15.004055153855015"><ele>471.0</ele><time>2026-04-18T17:19:25Z</time></trkpt><trkpt lat="37.02716197901609" lon="15.004267708957503"><ele>471.0</ele><time>2026-04-18T17:19:26Z</time></trkpt><trkpt lat="37.02693742404353" lon="15.004482859957655"><ele>471.0</ele><time>2026-04-18T17:19:27Z</time></trkpt><trkpt lat="37.02670502824162" lon="15.00470088397327"><ele>470.0</ele><time>2026-04-18T17:19:28Z</time></trkpt><trkpt lat="37.026475447090434" lon="15.004917938474916"><ele>469.0</ele><time>2026-04-18T17:19:29Z</time></trkpt><trkpt lat="37.02625010131149" lon="15.005129061423139"><ele>469.0</ele><time>2026-04-18T17:19:30Z</time></trkpt><trkpt lat="37.02602717504677" lon="15.005335736885513"><ele>469.0</ele><time>2026-04-18T17:19:31Z</time></trkpt><trkpt lat="37.02579848891014" lon="15.005532086342432"><ele>469.5</ele><time>2026-04-18T17:19:32Z</time></trkpt><trkpt lat="37.025567416663876" lon="15.0057192489092"><ele>470.0</ele><time>2026-04-18T17:19:33Z</time></trkpt><trkpt lat="37.02532431648003" lon="15.005885027454017"><ele>470.0</ele><time>2026-04-18T17:19:34Z</time></trkpt><trkpt lat="37.025078847451695" lon="15.00605136267521"><ele>470.0</ele><time>2026-04-18T17:19:35Z</time></trkpt><trkpt lat="37.02482741069291" lon="15.006209572175498"><ele>467.5</ele><time>2026-04-18T17:19:36Z</time></trkpt><trkpt lat="37.02457203286767" lon="15.006367913981174"><ele>465.0</ele><time>2026-04-18T17:19:37Z</time></trkpt><trkpt lat="37.02431684566959" lon="15.006535936981015"><ele>464.0</ele><time>2026-04-18T17:19:38Z</time></trkpt><trkpt lat="37.02406148209606" lon="15.006703067091806"><ele>463.0</ele><time>2026-04-18T17:19:39Z</time></trkpt><trkpt lat="37.02380442490394" lon="15.006871508609297"><ele>463.0</ele><time>2026-04-18T17:19:40Z</time></trkpt><trkpt lat="37.023553400101996" lon="15.00704148725363"><ele>463.0</ele><time>2026-04-18T17:19:41Z</time></trkpt><trkpt lat="37.02330016108636" lon="15.007208781431327"><ele>462.0</ele><time>2026-04-18T17:19:42Z</time></trkpt><trkpt lat="37.023045087046455" lon="15.007375633557253"><ele>461.0</ele><time>2026-04-18T17:19:43Z</time></trkpt><trkpt lat="37.022790504651844" lon="15.007550000856964"><ele>461.0</ele><time>2026-04-18T17:19:44Z</time></trkpt><trkpt lat="37.022537695253156" lon="15.007724337253881"><ele>461.0</ele><time>2026-04-18T17:19:44.999Z</time></trkpt><trkpt lat="37.0222869370068" lon="15.007910798359744"><ele>459.5</ele><time>2026-04-18T17:19:45.999Z</time></trkpt><trkpt lat="37.02204634468078" lon="15.008105505152066"><ele>458.0</ele><time>2026-04-18T17:19:46.999Z</time></trkpt><trkpt lat="37.0218069117168" lon="15.00831404193989"><ele>458.5</ele><time>2026-04-18T17:19:47.999Z</time></trkpt><trkpt lat="37.021575207624814" lon="15.008528159164289"><ele>459.0</ele><time>2026-04-18T17:19:48.999Z</time></trkpt><trkpt lat="37.021346268827" lon="15.008752702225108"><ele>459.0</ele><time>2026-04-18T17:19:49.999Z</time></trkpt><trkpt lat="37.021117252005844" lon="15.008982148516045"><ele>459.0</ele><time>2026-04-18T17:19:50.999Z</time></trkpt><trkpt lat="37.02089249792062" lon="15.009210917643342"><ele>458.0</ele><time>2026-04-18T17:19:51.999Z</time></trkpt><trkpt lat="37.02066557199368" lon="15.009441726716997"><ele>457.0</ele><time>2026-04-18T17:19:52.999Z</time></trkpt><trkpt lat="37.02044358270028" lon="15.009665717104562"><ele>457.0</ele><time>2026-04-18T17:19:53.999Z</time></trkpt><trkpt lat="37.02022190462384" lon="15.009888811477824"><ele>457.0</ele><time>2026-04-18T17:19:54.999Z</time></trkpt><trkpt lat="37.02000459906218" lon="15.010104058845219"><ele>455.5</ele><time>2026-04-18T17:19:55.999Z</time></trkpt><trkpt lat="37.01979168028868" lon="15.010316303215967"><ele>454.0</ele><time>2026-04-18T17:19:56.999Z</time></trkpt><trkpt lat="37.019578516176274" lon="15.010530422261086"><ele>454.0</ele><time>2026-04-18T17:19:57.999Z</time></trkpt><trkpt lat="37.01937356392431" lon="15.01073918214959"><ele>454.0</ele><time>2026-04-18T17:19:58.999Z</time></trkpt><trkpt lat="37.01917393046765" lon="15.010938932681107"><ele>453.5</ele><time>2026-04-18T17:19:59.999Z</time></trkpt><trkpt lat="37.01898016586268" lon="15.011135204245484"><ele>453.0</ele><time>2026-04-18T17:20:00.999Z</time></trkpt><trkpt lat="37.018794269273414" lon="15.011325016137707"><ele>453.0</ele><time>2026-04-18T17:20:01.999Z</time></trkpt><trkpt lat="37.018619535866584" lon="15.011502787552935"><ele>453.0</ele><time>2026-04-18T17:20:02.999Z</time></trkpt><trkpt lat="37.01845105643612" lon="15.011673994155723"><ele>453.0</ele><time>2026-04-18T17:20:03.999Z</time></trkpt><trkpt lat="37.018283536177755" lon="15.011846651061118"><ele>453.33333333333337</ele><time>2026-04-18T17:20:04.999Z</time></trkpt><trkpt lat="37.01811416202343" lon="15.012016925466824"><ele>453.6666666666667</ele><time>2026-04-18T17:20:05.999Z</time></trkpt><trkpt lat="37.017950488531234" lon="15.012185816062413"><ele>454.0</ele><time>2026-04-18T17:20:06.999Z</time></trkpt><trkpt lat="37.01778608540948" lon="15.012351064416201"><ele>454.33333333333337</ele><time>2026-04-18T17:20:07.999Z</time></trkpt><trkpt lat="37.01762360866113" lon="15.012510297378926"><ele>454.66666666666663</ele><time>2026-04-18T17:20:08.999Z</time></trkpt><trkpt lat="37.01745823176796" lon="15.012660507954584"><ele>455.0</ele><time>2026-04-18T17:20:09.999Z</time></trkpt><trkpt lat="37.017288887862904" lon="15.012800418247169"><ele>455.0</ele><time>2026-04-18T17:20:10.999Z</time></trkpt><trkpt lat="37.017112715421916" lon="15.012933311458768"><ele>455.0</ele><time>2026-04-18T17:20:11.999Z</time></trkpt><trkpt lat="37.01694056711683" lon="15.013056472561251"><ele>455.0</ele><time>2026-04-18T17:20:12.999Z</time></trkpt><trkpt lat="37.016768312806896" lon="15.013174884613209"><ele>455.0</ele><time>2026-04-18T17:20:13.999Z</time></trkpt><trkpt lat="37.01659989789298" lon="15.013275916802135"><ele>455.0</ele><time>2026-04-18T17:20:14.999Z</time></trkpt><trkpt lat="37.016439048383" lon="15.013359507650398"><ele>455.0</ele><time>2026-04-18T17:20:15.999Z</time></trkpt><trkpt lat="37.01627956916671" lon="15.013422481805854"><ele>455.0</ele><time>2026-04-18T17:20:16.999Z</time></trkpt><trkpt lat="37.01611338346671" lon="15.013460335061382"><ele>455.0</ele><time>2026-04-18T17:20:17.999Z</time></trkpt><trkpt lat="37.01594799143516" lon="15.013480930436037"><ele>455.0</ele><time>2026-04-18T17:20:18.999Z</time></trkpt><trkpt lat="37.015775515519834" lon="15.013440252153007"><ele>454.66666666666663</ele><time>2026-04-18T17:20:19.999Z</time></trkpt><trkpt lat="37.01561683975721" lon="15.013370569938097"><ele>454.33333333333337</ele><time>2026-04-18T17:20:20.999Z</time></trkpt><trkpt lat="37.01546648444805" lon="15.01325867548007"><ele>454.0</ele><time>2026-04-18T17:20:21.999Z</time></trkpt><trkpt lat="37.0153356692819" lon="15.013127649049991"><ele>454.5</ele><time>2026-04-18T17:20:22.999Z</time></trkpt><trkpt lat="37.01523127749147" lon="15.012971524007087"><ele>455.0</ele><time>2026-04-18T17:20:23.999Z</time></trkpt><trkpt lat="37.01513064929108" lon="15.012841852843907"><ele>455.5</ele><time>2026-04-18T17:20:24.999Z</time></trkpt><trkpt lat="37.015013811516866" lon="15.01277192517426"><ele>456.0</ele><time>2026-04-18T17:20:25.999Z</time></trkpt><trkpt lat="37.01488981863859" lon="15.012768207133622"><ele>455.0</ele><time>2026-04-18T17:20:26.999Z</time></trkpt><trkpt lat="37.01477976867257" lon="15.012831126850712"><ele>454.0</ele><time>2026-04-18T17:20:27.999Z</time></trkpt><trkpt lat="37.01467880404937" lon="15.012928607543484"><ele>453.0</ele><time>2026-04-18T17:20:28.999Z</time></trkpt><trkpt lat="37.014600260620114" lon="15.013062272167758"><ele>452.0</ele><time>2026-04-18T17:20:29.999Z</time></trkpt><trkpt lat="37.0145478789015" lon="15.01322130000017"><ele>452.0</ele><time>2026-04-18T17:20:30.999Z</time></trkpt><trkpt lat="37.014530597411586" lon="15.013404348127903"><ele>452.0</ele><time>2026-04-18T17:20:31.999Z</time></trkpt><trkpt lat="37.01453811361234" lon="15.013601901856168"><ele>452.0</ele><time>2026-04-18T17:20:32.999Z</time></trkpt><trkpt lat="37.014538737718055" lon="15.013819452293648"><ele>452.0</ele><time>2026-04-18T17:20:33.999Z</time></trkpt><trkpt lat="37.01452432003846" lon="15.01405337025962"><ele>452.0</ele><time>2026-04-18T17:20:34.999Z</time></trkpt><trkpt lat="37.01450607846551" lon="15.014317227298593"><ele>452.0</ele><time>2026-04-18T17:20:35.999Z</time></trkpt><trkpt lat="37.01448960293307" lon="15.014595391564377"><ele>452.0</ele><time>2026-04-18T17:20:36.999Z</time></trkpt><trkpt lat="37.01446879413752" lon="15.014881908203416"><ele>452.0</ele><time>2026-04-18T17:20:37.999Z</time></trkpt><trkpt lat="37.01444800106425" lon="15.015189986264575"><ele>452.0</ele><time>2026-04-18T17:20:38.999Z</time></trkpt><trkpt lat="37.01442798460374" lon="15.01552025974071"><ele>452.0</ele><time>2026-04-18T17:20:39.999Z</time></trkpt><trkpt lat="37.01440678412997" lon="15.015856753865432"><ele>452.5</ele><time>2026-04-18T17:20:40.999Z</time></trkpt><trkpt lat="37.01438575306698" lon="15.016201420231905"><ele>453.0</ele><time>2026-04-18T17:20:41.999Z</time></trkpt><trkpt lat="37.01436458875247" lon="15.016542907915447"><ele>454.5</ele><time>2026-04-18T17:20:42.999Z</time></trkpt><trkpt lat="37.01434732756791" lon="15.016881395437412"><ele>456.0</ele><time>2026-04-18T17:20:43.999Z</time></trkpt><trkpt lat="37.01432878017586" lon="15.017224070359614"><ele>457.5</ele><time>2026-04-18T17:20:44.999Z</time></trkpt><trkpt lat="37.01430894214547" lon="15.017571176313952"><ele>459.0</ele><time>2026-04-18T17:20:45.999Z</time></trkpt><trkpt lat="37.01428772173615" lon="15.017919600002609"><ele>459.0</ele><time>2026-04-18T17:20:46.999Z</time></trkpt><trkpt lat="37.0142672328323" lon="15.018262844193798"><ele>459.0</ele><time>2026-04-18T17:20:47.999Z</time></trkpt><trkpt lat="37.014247123491664" lon="15.01859632667866"><ele>460.5</ele><time>2026-04-18T17:20:48.998Z</time></trkpt><trkpt lat="37.014229308111176" lon="15.018929986750807"><ele>462.0</ele><time>2026-04-18T17:20:49.998Z</time></trkpt><trkpt lat="37.01421094809656" lon="15.01925407600109"><ele>465.0</ele><time>2026-04-18T17:20:50.998Z</time></trkpt><trkpt lat="37.01418891452086" lon="15.019574740641763"><ele>468.0</ele><time>2026-04-18T17:20:51.998Z</time></trkpt><trkpt lat="37.01416880688016" lon="15.019897818601464"><ele>472.5</ele><time>2026-04-18T17:20:52.998Z</time></trkpt><trkpt lat="37.014149852882575" lon="15.020222435125701"><ele>477.0</ele><time>2026-04-18T17:20:53.998Z</time></trkpt><trkpt lat="37.01413322700527" lon="15.020548952741184"><ele>476.0</ele><time>2026-04-18T17:20:54.998Z</time></trkpt><trkpt lat="37.014113204464344" lon="15.020877105826283"><ele>475.0</ele><time>2026-04-18T17:20:55.998Z</time></trkpt><trkpt lat="37.01409549404501" lon="15.021207461493585"><ele>475.0</ele><time>2026-04-18T17:20:56.998Z</time></trkpt><trkpt lat="37.014076827612136" lon="15.021542602105534"><ele>475.0</ele><time>2026-04-18T17:20:57.998Z</time></trkpt><trkpt lat="37.01405688403245" lon="15.021883528358314"><ele>473.0</ele><time>2026-04-18T17:20:58.998Z</time></trkpt><trkpt lat="37.01403560823504" lon="15.022228708654755"><ele>471.0</ele><time>2026-04-18T17:20:59.998Z</time></trkpt><trkpt lat="37.01401565465278" lon="15.022568771530661"><ele>475.0</ele><time>2026-04-18T17:21:00.998Z</time></trkpt><trkpt lat="37.01399510373712" lon="15.022914883906761"><ele>479.0</ele><time>2026-04-18T17:21:01.998Z</time></trkpt><trkpt lat="37.013974027718774" lon="15.023267501349688"><ele>485.0</ele><time>2026-04-18T17:21:02.998Z</time></trkpt><trkpt lat="37.01395308291713" lon="15.023619726255449"><ele>491.0</ele><time>2026-04-18T17:21:04Z</time></trkpt><trkpt lat="37.013933425913976" lon="15.023970467085016"><ele>489.5</ele><time>2026-04-18T17:21:05Z</time></trkpt><trkpt lat="37.01391292770138" lon="15.024319879459085"><ele>488.0</ele><time>2026-04-18T17:21:06Z</time></trkpt><trkpt lat="37.01389460097918" lon="15.024664101633876"><ele>486.0</ele><time>2026-04-18T17:21:07Z</time></trkpt><trkpt lat="37.01387127320449" lon="15.025013641414596"><ele>484.0</ele><time>2026-04-18T17:21:08Z</time></trkpt><trkpt lat="37.0138506583124" lon="15.025355161665395"><ele>484.0</ele><time>2026-04-18T17:21:09Z</time></trkpt><trkpt lat="37.01383175231104" lon="15.025696080651727"><ele>484.0</ele><time>2026-04-18T17:21:10Z</time></trkpt><trkpt lat="37.01381291742963" lon="15.026035512193877"><ele>484.5</ele><time>2026-04-18T17:21:11Z</time></trkpt><trkpt lat="37.01379863984717" lon="15.026370606951094"><ele>485.0</ele><time>2026-04-18T17:21:12Z</time></trkpt><trkpt lat="37.0137942211239" lon="15.02671114732308"><ele>486.5</ele><time>2026-04-18T17:21:13Z</time></trkpt><trkpt lat="37.01379685139037" lon="15.02704858725775"><ele>488.0</ele><time>2026-04-18T17:21:14Z</time></trkpt><trkpt lat="37.01381915033322" lon="15.027395173426049"><ele>490.0</ele><time>2026-04-18T17:21:15Z</time></trkpt><trkpt lat="37.01385844363584" lon="15.02773897567752"><ele>492.0</ele><time>2026-04-18T17:21:16Z</time></trkpt><trkpt lat="37.01390804038977" lon="15.028086417319923"><ele>490.0</ele><time>2026-04-18T17:21:17Z</time></trkpt><trkpt lat="37.013968486226375" lon="15.028425813520315"><ele>488.0</ele><time>2026-04-18T17:21:18Z</time></trkpt><trkpt lat="37.0140469994757" lon="15.028762374735331"><ele>488.0</ele><time>2026-04-18T17:21:19Z</time></trkpt><trkpt lat="37.014145392144435" lon="15.029092988038787"><ele>488.0</ele><time>2026-04-18T17:21:20Z</time></trkpt><trkpt lat="37.014263031943" lon="15.029420767943844"><ele>482.5</ele><time>2026-04-18T17:21:21Z</time></trkpt><trkpt lat="37.014391575973065" lon="15.029747373008368"><ele>477.0</ele><time>2026-04-18T17:21:22Z</time></trkpt><trkpt lat="37.014526948331934" lon="15.03006835009376"><ele>474.0</ele><time>2026-04-18T17:21:23Z</time></trkpt><trkpt lat="37.01467506842878" lon="15.030382825894147"><ele>471.0</ele><time>2026-04-18T17:21:24Z</time></trkpt><trkpt lat="37.01483907803276" lon="15.030687851444135"><ele>470.0</ele><time>2026-04-18T17:21:25Z</time></trkpt><trkpt lat="37.015017030831515" lon="15.030981763022659"><ele>469.0</ele><time>2026-04-18T17:21:26Z</time></trkpt><trkpt lat="37.01521425188682" lon="15.031260427557632"><ele>469.0</ele><time>2026-04-18T17:21:27Z</time></trkpt><trkpt lat="37.01542225133691" lon="15.031518578160734"><ele>469.0</ele><time>2026-04-18T17:21:28Z</time></trkpt><trkpt lat="37.015647934830874" lon="15.031774880215755"><ele>467.0</ele><time>2026-04-18T17:21:29Z</time></trkpt><trkpt lat="37.01587254729914" lon="15.032011517568902"><ele>465.0</ele><time>2026-04-18T17:21:30Z</time></trkpt><trkpt lat="37.01610557363513" lon="15.032233794754644"><ele>465.0</ele><time>2026-04-18T17:21:31Z</time></trkpt><trkpt lat="37.016343428295585" lon="15.03245117280327"><ele>465.0</ele><time>2026-04-18T17:21:32Z</time></trkpt><trkpt lat="37.016584634674025" lon="15.032669043465512"><ele>463.0</ele><time>2026-04-18T17:21:33Z</time></trkpt><trkpt lat="37.01682424693821" lon="15.032887987150417"><ele>461.0</ele><time>2026-04-18T17:21:34Z</time></trkpt><trkpt lat="37.01706139171807" lon="15.033113711995606"><ele>459.5</ele><time>2026-04-18T17:21:35Z</time></trkpt><trkpt lat="37.01729993132245" lon="15.033341056434978"><ele>458.0</ele><time>2026-04-18T17:21:36Z</time></trkpt><trkpt lat="37.017543068067354" lon="15.033570703394687"><ele>456.5</ele><time>2026-04-18T17:21:37Z</time></trkpt><trkpt lat="37.01778231409824" lon="15.033796290173514"><ele>455.0</ele><time>2026-04-18T17:21:38Z</time></trkpt><trkpt lat="37.01801895327673" lon="15.034017798292158"><ele>455.0</ele><time>2026-04-18T17:21:39Z</time></trkpt><trkpt lat="37.018255178780684" lon="15.03423752736152"><ele>455.0</ele><time>2026-04-18T17:21:40Z</time></trkpt><trkpt lat="37.01848686667426" lon="15.034451819441637"><ele>453.5</ele><time>2026-04-18T17:21:41Z</time></trkpt><trkpt lat="37.01871919393294" lon="15.03467354954564"><ele>452.0</ele><time>2026-04-18T17:21:42Z</time></trkpt><trkpt lat="37.01895149756622" lon="15.034892972561058"><ele>453.0</ele><time>2026-04-18T17:21:43Z</time></trkpt><trkpt lat="37.01918065266587" lon="15.03511334562948"><ele>454.0</ele><time>2026-04-18T17:21:44Z</time></trkpt><trkpt lat="37.01941010648944" lon="15.035332805005142"><ele>454.0</ele><time>2026-04-18T17:21:45Z</time></trkpt><trkpt lat="37.01964270259411" lon="15.035547480452198"><ele>454.0</ele><time>2026-04-18T17:21:46Z</time></trkpt><trkpt lat="37.01987640075393" lon="15.035764692419297"><ele>456.0</ele><time>2026-04-18T17:21:47Z</time></trkpt><trkpt lat="37.02011628086875" lon="15.035986005481014"><ele>458.0</ele><time>2026-04-18T17:21:48Z</time></trkpt><trkpt lat="37.02035447592194" lon="15.036204737201961"><ele>458.0</ele><time>2026-04-18T17:21:48.999Z</time></trkpt><trkpt lat="37.02058840299785" lon="15.036422034215112"><ele>458.0</ele><time>2026-04-18T17:21:49.999Z</time></trkpt><trkpt lat="37.02083250309529" lon="15.036630406895766"><ele>461.0</ele><time>2026-04-18T17:21:50.999Z</time></trkpt><trkpt lat="37.021085281248816" lon="15.036809153528058"><ele>464.0</ele><time>2026-04-18T17:21:51.999Z</time></trkpt><trkpt lat="37.02134590281061" lon="15.036976013197192"><ele>464.0</ele><time>2026-04-18T17:21:52.999Z</time></trkpt><trkpt lat="37.02161235983068" lon="15.037125990650159"><ele>464.0</ele><time>2026-04-18T17:21:53.999Z</time></trkpt><trkpt lat="37.02188097394699" lon="15.037273143914199"><ele>464.5</ele><time>2026-04-18T17:21:54.999Z</time></trkpt><trkpt lat="37.02214845200445" lon="15.03742456836727"><ele>465.0</ele><time>2026-04-18T17:21:55.999Z</time></trkpt><trkpt lat="37.022408831316184" lon="15.037574508458725"><ele>467.0</ele><time>2026-04-18T17:21:56.999Z</time></trkpt><trkpt lat="37.02268186653156" lon="15.037708894670244"><ele>469.0</ele><time>2026-04-18T17:21:57.999Z</time></trkpt><trkpt lat="37.022964495201016" lon="15.037829213438249"><ele>469.0</ele><time>2026-04-18T17:21:58.999Z</time></trkpt><trkpt lat="37.023248116308125" lon="15.037932558777852"><ele>469.0</ele><time>2026-04-18T17:21:59.999Z</time></trkpt><trkpt lat="37.02353234459993" lon="15.038027482980683"><ele>469.5</ele><time>2026-04-18T17:22:00.999Z</time></trkpt><trkpt lat="37.023812116102064" lon="15.038130682051825"><ele>470.0</ele><time>2026-04-18T17:22:01.999Z</time></trkpt><trkpt lat="37.02409291784814" lon="15.038220435451786"><ele>468.5</ele><time>2026-04-18T17:22:02.999Z</time></trkpt><trkpt lat="37.02436877181724" lon="15.038325313473766"><ele>467.0</ele><time>2026-04-18T17:22:03.999Z</time></trkpt><trkpt lat="37.02463902164651" lon="15.038426499891587"><ele>467.0</ele><time>2026-04-18T17:22:04.999Z</time></trkpt><trkpt lat="37.024905760511366" lon="15.0385256699062"><ele>467.0</ele><time>2026-04-18T17:22:05.999Z</time></trkpt><trkpt lat="37.0251671155972" lon="15.038623857235606"><ele>469.0</ele><time>2026-04-18T17:22:06.999Z</time></trkpt><trkpt lat="37.025426434499906" lon="15.03872888941727"><ele>471.0</ele><time>2026-04-18T17:22:07.999Z</time></trkpt><trkpt lat="37.02568726024215" lon="15.038855497051797"><ele>476.0</ele><time>2026-04-18T17:22:08.999Z</time></trkpt><trkpt lat="37.02594393726432" lon="15.039021387576957"><ele>481.0</ele><time>2026-04-18T17:22:09.999Z</time></trkpt><trkpt lat="37.026197332410185" lon="15.039206653988503"><ele>481.0</ele><time>2026-04-18T17:22:10.999Z</time></trkpt><trkpt lat="37.026442109239724" lon="15.039397242923739"><ele>481.0</ele><time>2026-04-18T17:22:11.999Z</time></trkpt><trkpt lat="37.02666337015498" lon="15.039589387409103"><ele>484.5</ele><time>2026-04-18T17:22:12.999Z</time></trkpt><trkpt lat="37.02687738137981" lon="15.039776794534411"><ele>488.0</ele><time>2026-04-18T17:22:13.999Z</time></trkpt><trkpt lat="37.02709556054025" lon="15.03994011535728"><ele>488.0</ele><time>2026-04-18T17:22:14.999Z</time></trkpt><trkpt lat="37.027325023341184" lon="15.040082763668513"><ele>488.0</ele><time>2026-04-18T17:22:15.999Z</time></trkpt><trkpt lat="37.02756467498214" lon="15.040207985064447"><ele>488.0</ele><time>2026-04-18T17:22:16.999Z</time></trkpt><trkpt lat="37.02780326154551" lon="15.04033264914668"><ele>488.0</ele><time>2026-04-18T17:22:17.999Z</time></trkpt><trkpt lat="37.02804676952801" lon="15.040447887915741"><ele>488.0</ele><time>2026-04-18T17:22:18.999Z</time></trkpt><trkpt lat="37.02828442293966" lon="15.040569177094811"><ele>488.0</ele><time>2026-04-18T17:22:19.999Z</time></trkpt><trkpt lat="37.02851427729382" lon="15.040727128558439"><ele>487.5</ele><time>2026-04-18T17:22:20.999Z</time></trkpt><trkpt lat="37.028736094118926" lon="15.040913459162411"><ele>487.0</ele><time>2026-04-18T17:22:21.999Z</time></trkpt><trkpt lat="37.02894832073108" lon="15.04112434420857"><ele>479.5</ele><time>2026-04-18T17:22:22.999Z</time></trkpt><trkpt lat="37.029145031167445" lon="15.041352997423058"><ele>472.0</ele><time>2026-04-18T17:22:23.999Z</time></trkpt><trkpt lat="37.02932468154588" lon="15.04160811148297"><ele>476.0</ele><time>2026-04-18T17:22:24.999Z</time></trkpt><trkpt lat="37.029484679752244" lon="15.041886074475219"><ele>480.0</ele><time>2026-04-18T17:22:25.999Z</time></trkpt><trkpt lat="37.02964019525103" lon="15.042167003521357"><ele>480.0</ele><time>2026-04-18T17:22:26.999Z</time></trkpt><trkpt lat="37.029798824811955" lon="15.04244670966826"><ele>480.0</ele><time>2026-04-18T17:22:27.999Z</time></trkpt><trkpt lat="37.02996765924948" lon="15.042714741221904"><ele>474.5</ele><time>2026-04-18T17:22:28.999Z</time></trkpt><trkpt lat="37.030136684727424" lon="15.042986288695495"><ele>469.0</ele><time>2026-04-18T17:22:29.999Z</time></trkpt><trkpt lat="37.03030553113199" lon="15.043253642101915"><ele>466.5</ele><time>2026-04-18T17:22:30.999Z</time></trkpt><trkpt lat="37.03047842634471" lon="15.043535063807987"><ele>464.0</ele><time>2026-04-18T17:22:31.999Z</time></trkpt><trkpt lat="37.030650232574416" lon="15.043817899728788"><ele>459.5</ele><time>2026-04-18T17:22:32.999Z</time></trkpt><trkpt lat="37.030821175203855" lon="15.044101050122618"><ele>455.0</ele><time>2026-04-18T17:22:33.999Z</time></trkpt><trkpt lat="37.030989075727476" lon="15.04438509074633"><ele>455.0</ele><time>2026-04-18T17:22:34.999Z</time></trkpt><trkpt lat="37.03115960650623" lon="15.044669542934924"><ele>455.0</ele><time>2026-04-18T17:22:35.999Z</time></trkpt><trkpt lat="37.031326851521534" lon="15.044952857080927"><ele>454.5</ele><time>2026-04-18T17:22:36.999Z</time></trkpt><trkpt lat="37.0314991979651" lon="15.045235333232613"><ele>454.0</ele><time>2026-04-18T17:22:37.999Z</time></trkpt><trkpt lat="37.031673997966315" lon="15.045510821380832"><ele>451.5</ele><time>2026-04-18T17:22:38.999Z</time></trkpt><trkpt lat="37.03184346290845" lon="15.045795776351007"><ele>449.0</ele><time>2026-04-18T17:22:39.999Z</time></trkpt><trkpt lat="37.03201506208029" lon="15.046078777746994"><ele>449.0</ele><time>2026-04-18T17:22:40.999Z</time></trkpt><trkpt lat="37.032189176608235" lon="15.046363157556353"><ele>449.0</ele><time>2026-04-18T17:22:41.999Z</time></trkpt><trkpt lat="37.032363336357115" lon="15.046650092079119"><ele>451.0</ele><time>2026-04-18T17:22:42.999Z</time></trkpt><trkpt lat="37.032543721799705" lon="15.04694299432481"><ele>453.0</ele><time>2026-04-18T17:22:43.999Z</time></trkpt><trkpt lat="37.032722984314276" lon="15.047243783090163"><ele>452.0</ele><time>2026-04-18T17:22:44.999Z</time></trkpt><trkpt lat="37.032902440809636" lon="15.04753904218354"><ele>451.0</ele><time>2026-04-18T17:22:45.999Z</time></trkpt><trkpt lat="37.033079363533226" lon="15.047835300897976"><ele>451.0</ele><time>2026-04-18T17:22:46.999Z</time></trkpt><trkpt lat="37.0332539999985" lon="15.048124578869503"><ele>451.0</ele><time>2026-04-18T17:22:47.999Z</time></trkpt><trkpt lat="37.03342292437012" lon="15.048397231489345"><ele>448.5</ele><time>2026-04-18T17:22:48.999Z</time></trkpt><trkpt lat="37.033581923576556" lon="15.048660731825635"><ele>446.0</ele><time>2026-04-18T17:22:49.999Z</time></trkpt><trkpt lat="37.033737104755666" lon="15.04890115112012"><ele>442.0</ele><time>2026-04-18T17:22:50.999Z</time></trkpt><trkpt lat="37.03387775933641" lon="15.049139320093"><ele>438.0</ele><time>2026-04-18T17:22:51.999Z</time></trkpt><trkpt lat="37.034014730895066" lon="15.04936424836089"><ele>435.66666666666663</ele><time>2026-04-18T17:22:52.999Z</time></trkpt><trkpt lat="37.034146797362396" lon="15.049580346956807"><ele>433.3333333333333</ele><time>2026-04-18T17:22:53.998Z</time></trkpt><trkpt lat="37.03426991007278" lon="15.049783993666638"><ele>431.0</ele><time>2026-04-18T17:22:54.998Z</time></trkpt><trkpt lat="37.03438453050294" lon="15.049992077345994"><ele>430.3333333333333</ele><time>2026-04-18T17:22:55.998Z</time></trkpt><trkpt lat="37.03448472279996" lon="15.050201495881062"><ele>429.66666666666663</ele><time>2026-04-18T17:22:56.998Z</time></trkpt><trkpt lat="37.034564217745114" lon="15.050434293161274"><ele>429.0</ele><time>2026-04-18T17:22:57.998Z</time></trkpt><trkpt lat="37.03462627532402" lon="15.05066666374432"><ele>430.66666666666663</ele><time>2026-04-18T17:22:58.998Z</time></trkpt><trkpt lat="37.03467168690155" lon="15.050892477542616"><ele>432.3333333333333</ele><time>2026-04-18T17:22:59.998Z</time></trkpt><trkpt lat="37.03469414809035" lon="15.051098203529637"><ele>434.0</ele><time>2026-04-18T17:23:00.998Z</time></trkpt><trkpt lat="37.03470035233976" lon="15.051287712196276"><ele>434.0</ele><time>2026-04-18T17:23:01.998Z</time></trkpt><trkpt lat="37.034678469070364" lon="15.05146227762797"><ele>434.0</ele><time>2026-04-18T17:23:02.998Z</time></trkpt><trkpt lat="37.03464206768254" lon="15.051612911774454"><ele>434.0</ele><time>2026-04-18T17:23:03.998Z</time></trkpt><trkpt lat="37.03459554141508" lon="15.051728746465372"><ele>434.0</ele><time>2026-04-18T17:23:04.998Z</time></trkpt><trkpt lat="37.03453983110788" lon="15.051806884679404"><ele>434.8333333333333</ele><time>2026-04-18T17:23:05.998Z</time></trkpt><trkpt lat="37.034479346440676" lon="15.051874805065552"><ele>435.66666666666663</ele><time>2026-04-18T17:23:06.998Z</time></trkpt><trkpt lat="37.03446809696537" lon="15.051973327378292"><ele>436.5</ele><time>2026-04-18T17:23:07.998Z</time></trkpt><trkpt lat="37.03449528897402" lon="15.052080115732817"><ele>437.33333333333337</ele><time>2026-04-18T17:23:08.998Z</time></trkpt><trkpt lat="37.034532066930325" lon="15.052183791536335"><ele>438.1666666666667</ele><time>2026-04-18T17:23:10Z</time></trkpt><trkpt lat="37.03455225553179" lon="15.052280611174972"><ele>439.0</ele><time>2026-04-18T17:23:11Z</time></trkpt><trkpt lat="37.03454838131896" lon="15.052387847479192"><ele>439.79999999999995</ele><time>2026-04-18T17:23:12Z</time></trkpt><trkpt lat="37.03452835267179" lon="15.05249943389558"><ele>440.59999999999997</ele><time>2026-04-18T17:23:13Z</time></trkpt><trkpt lat="37.03449543207064" lon="15.052595989597169"><ele>441.4</ele><time>2026-04-18T17:23:14Z</time></trkpt><trkpt lat="37.034450681287254" lon="15.052698703559754"><ele>442.2</ele><time>2026-04-18T17:23:15Z</time></trkpt><trkpt lat="37.034404847819204" lon="15.052807500459014"><ele>443.0</ele><time>2026-04-18T17:23:16Z</time></trkpt><trkpt lat="37.03435163757618" lon="15.052916306055158"><ele>443.0</ele><time>2026-04-18T17:23:17Z</time></trkpt><trkpt lat="37.034274456520045" lon="15.053076903980942"><ele>443.0</ele><time>2026-04-18T17:23:18Z</time></trkpt><trkpt lat="37.034162834047905" lon="15.053314199053258"><ele>443.0</ele><time>2026-04-18T17:23:19Z</time></trkpt><trkpt lat="37.03405158368738" lon="15.053552828568693"><ele>443.3333333333333</ele><time>2026-04-18T17:23:20Z</time></trkpt><trkpt lat="37.0339426367035" lon="15.05381185783347"><ele>443.66666666666663</ele><time>2026-04-18T17:23:21Z</time></trkpt><trkpt lat="37.03384406022803" lon="15.0540410703577"><ele>444.0</ele><time>2026-04-18T17:23:22Z</time></trkpt><trkpt lat="37.033759596781614" lon="15.05420122640109"><ele>444.0</ele><time>2026-04-18T17:23:23Z</time></trkpt><trkpt lat="37.03366109112571" lon="15.054411540996316"><ele>444.0</ele><time>2026-04-18T17:23:24Z</time></trkpt><trkpt lat="37.03355752118142" lon="15.054643012983256"><ele>444.0</ele><time>2026-04-18T17:23:25Z</time></trkpt><trkpt lat="37.03345678656474" lon="15.054880001342157"><ele>442.0</ele><time>2026-04-18T17:23:26Z</time></trkpt><trkpt lat="37.03334479289693" lon="15.055123596406073"><ele>440.0</ele><time>2026-04-18T17:23:27Z</time></trkpt><trkpt lat="37.03322653266574" lon="15.055378765373419"><ele>440.0</ele><time>2026-04-18T17:23:28Z</time></trkpt><trkpt lat="37.033115594971726" lon="15.055646641964604"><ele>440.0</ele><time>2026-04-18T17:23:29Z</time></trkpt><trkpt lat="37.0330210258215" lon="15.055901069861754"><ele>440.0</ele><time>2026-04-18T17:23:30Z</time></trkpt><trkpt lat="37.03289156063775" lon="15.05620893801212"><ele>440.0</ele><time>2026-04-18T17:23:31Z</time></trkpt><trkpt lat="37.03277917988286" lon="15.056501806680336"><ele>438.5</ele><time>2026-04-18T17:23:32Z</time></trkpt><trkpt lat="37.03267042150156" lon="15.056797260616039"><ele>437.0</ele><time>2026-04-18T17:23:33Z</time></trkpt><trkpt lat="37.03256015815934" lon="15.057098604824347"><ele>436.0</ele><time>2026-04-18T17:23:34Z</time></trkpt><trkpt lat="37.03245133594452" lon="15.057402407803586"><ele>435.0</ele><time>2026-04-18T17:23:35Z</time></trkpt><trkpt lat="37.032339282161225" lon="15.057703993899487"><ele>433.5</ele><time>2026-04-18T17:23:36Z</time></trkpt><trkpt lat="37.03222096184396" lon="15.05801176152119"><ele>432.0</ele><time>2026-04-18T17:23:37Z</time></trkpt><trkpt lat="37.032104632209375" lon="15.058325031825362"><ele>429.5</ele><time>2026-04-18T17:23:38Z</time></trkpt><trkpt lat="37.03198356331237" lon="15.058640364889271"><ele>427.0</ele><time>2026-04-18T17:23:39Z</time></trkpt><trkpt lat="37.031871403081794" lon="15.05893491994556"><ele>424.5</ele><time>2026-04-18T17:23:40Z</time></trkpt><trkpt lat="37.031769665791884" lon="15.059222809885068"><ele>422.0</ele><time>2026-04-18T17:23:41Z</time></trkpt><trkpt lat="37.03166758013735" lon="15.05950009647572"><ele>415.0</ele><time>2026-04-18T17:23:42Z</time></trkpt><trkpt lat="37.03157418213695" lon="15.059767387622138"><ele>408.0</ele><time>2026-04-18T17:23:43Z</time></trkpt><trkpt lat="37.03148103086942" lon="15.060028390327366"><ele>407.0</ele><time>2026-04-18T17:23:44Z</time></trkpt><trkpt lat="37.03138874661407" lon="15.060282315426607"><ele>406.0</ele><time>2026-04-18T17:23:45Z</time></trkpt><trkpt lat="37.03127741365445" lon="15.060526238205087"><ele>405.0</ele><time>2026-04-18T17:23:46Z</time></trkpt><trkpt lat="37.031179110155755" lon="15.06078850039126"><ele>404.0</ele><time>2026-04-18T17:23:47Z</time></trkpt><trkpt lat="37.031078695297474" lon="15.061055117456336"><ele>403.0</ele><time>2026-04-18T17:23:48Z</time></trkpt><trkpt lat="37.03097375214784" lon="15.061325528427103"><ele>403.0</ele><time>2026-04-18T17:23:49Z</time></trkpt><trkpt lat="37.03086570935644" lon="15.061587163534892"><ele>403.0</ele><time>2026-04-18T17:23:50Z</time></trkpt><trkpt lat="37.03075065376685" lon="15.061845934801354"><ele>395.0</ele><time>2026-04-18T17:23:51Z</time></trkpt><trkpt lat="37.03061323852422" lon="15.062090917866536"><ele>387.0</ele><time>2026-04-18T17:23:52Z</time></trkpt><trkpt lat="37.03045558260631" lon="15.062333868185746"><ele>388.0</ele><time>2026-04-18T17:23:53Z</time></trkpt><trkpt lat="37.03031345708679" lon="15.06257001512281"><ele>389.0</ele><time>2026-04-18T17:23:54Z</time></trkpt><trkpt lat="37.03015886150237" lon="15.062775780252862"><ele>389.0</ele><time>2026-04-18T17:23:55Z</time></trkpt><trkpt lat="37.03001259024422" lon="15.062984214093138"><ele>389.0</ele><time>2026-04-18T17:23:55.999Z</time></trkpt><trkpt lat="37.029858069947934" lon="15.06321121905854"><ele>386.5</ele><time>2026-04-18T17:23:56.999Z</time></trkpt><trkpt lat="37.029689125808545" lon="15.063432412453448"><ele>384.0</ele><time>2026-04-18T17:23:57.999Z</time></trkpt><trkpt lat="37.02950168307906" lon="15.063613634084478"><ele>384.0</ele><time>2026-04-18T17:23:58.999Z</time></trkpt><trkpt lat="37.029335866626354" lon="15.063802430516109"><ele>384.0</ele><time>2026-04-18T17:23:59.999Z</time></trkpt><trkpt lat="37.02916546311352" lon="15.063958964820015"><ele>384.0</ele><time>2026-04-18T17:24:00.999Z</time></trkpt><trkpt lat="37.029007619191724" lon="15.06410712367266"><ele>382.3333333333333</ele><time>2026-04-18T17:24:01.999Z</time></trkpt><trkpt lat="37.02886971385421" lon="15.064245260328223"><ele>380.66666666666663</ele><time>2026-04-18T17:24:02.999Z</time></trkpt><trkpt lat="37.02874917551281" lon="15.064381666378274"><ele>379.0</ele><time>2026-04-18T17:24:03.999Z</time></trkpt><trkpt lat="37.02862735034129" lon="15.064512161947603"><ele>379.0</ele><time>2026-04-18T17:24:04.999Z</time></trkpt><trkpt lat="37.02851823550749" lon="15.064688592517456"><ele>379.0</ele><time>2026-04-18T17:24:05.999Z</time></trkpt><trkpt lat="37.028412708503105" lon="15.064917242976273"><ele>379.0</ele><time>2026-04-18T17:24:06.999Z</time></trkpt><trkpt lat="37.02830682955693" lon="15.06516369639953"><ele>377.3333333333333</ele><time>2026-04-18T17:24:07.999Z</time></trkpt><trkpt lat="37.02820189942888" lon="15.065414611136934"><ele>375.6666666666667</ele><time>2026-04-18T17:24:08.999Z</time></trkpt><trkpt lat="37.028099204036224" lon="15.065660182003176"><ele>374.0</ele><time>2026-04-18T17:24:09.999Z</time></trkpt><trkpt lat="37.02799791870225" lon="15.065902452218635"><ele>373.6666666666667</ele><time>2026-04-18T17:24:10.999Z</time></trkpt><trkpt lat="37.02789577757263" lon="15.066148907954735"><ele>373.3333333333333</ele><time>2026-04-18T17:24:11.999Z</time></trkpt><trkpt lat="37.02781178862762" lon="15.066391961875429"><ele>373.0</ele><time>2026-04-18T17:24:12.999Z</time></trkpt><trkpt lat="37.02770995759415" lon="15.066626199152479"><ele>373.0</ele><time>2026-04-18T17:24:13.999Z</time></trkpt><trkpt lat="37.02761245384547" lon="15.066860295313425"><ele>373.0</ele><time>2026-04-18T17:24:14.999Z</time></trkpt><trkpt lat="37.027507287093975" lon="15.067100553479172"><ele>373.0</ele><time>2026-04-18T17:24:15.999Z</time></trkpt><trkpt lat="37.027406916250136" lon="15.067336424035622"><ele>371.0</ele><time>2026-04-18T17:24:16.999Z</time></trkpt><trkpt lat="37.02731451515436" lon="15.067585241332461"><ele>369.0</ele><time>2026-04-18T17:24:17.999Z</time></trkpt><trkpt lat="37.02723833182857" lon="15.067843921498172"><ele>367.0</ele><time>2026-04-18T17:24:18.999Z</time></trkpt><trkpt lat="37.02718026126211" lon="15.068103488256746"><ele>367.3333333333333</ele><time>2026-04-18T17:24:19.999Z</time></trkpt><trkpt lat="37.02712631244102" lon="15.068355680168814"><ele>367.6666666666667</ele><time>2026-04-18T17:24:20.999Z</time></trkpt><trkpt lat="37.02708200565939" lon="15.068595036238012"><ele>368.0</ele><time>2026-04-18T17:24:21.999Z</time></trkpt><trkpt lat="37.027040092077684" lon="15.068826788608714"><ele>368.0</ele><time>2026-04-18T17:24:22.999Z</time></trkpt><trkpt lat="37.0269967893879" lon="15.069048459196669"><ele>368.0</ele><time>2026-04-18T17:24:23.999Z</time></trkpt><trkpt lat="37.02695287500987" lon="15.069260941456957"><ele>368.0</ele><time>2026-04-18T17:24:24.999Z</time></trkpt><trkpt lat="37.026912746550686" lon="15.069468650352869"><ele>367.6666666666667</ele><time>2026-04-18T17:24:25.999Z</time></trkpt><trkpt lat="37.02687055722345" lon="15.069668452877227"><ele>367.3333333333333</ele><time>2026-04-18T17:24:26.999Z</time></trkpt><trkpt lat="37.02682710508345" lon="15.069871716414731"><ele>367.0</ele><time>2026-04-18T17:24:27.999Z</time></trkpt><trkpt lat="37.026778547505586" lon="15.070088275710512"><ele>366.3333333333333</ele><time>2026-04-18T17:24:28.999Z</time></trkpt><trkpt lat="37.026729881525945" lon="15.070318299169934"><ele>365.6666666666667</ele><time>2026-04-18T17:24:29.999Z</time></trkpt><trkpt lat="37.02668803468343" lon="15.070553251726736"><ele>365.0</ele><time>2026-04-18T17:24:30.999Z</time></trkpt><trkpt lat="37.02664626219754" lon="15.07079811641028"><ele>364.33333333333337</ele><time>2026-04-18T17:24:31.999Z</time></trkpt><trkpt lat="37.026601991565265" lon="15.071037235363464"><ele>363.6666666666667</ele><time>2026-04-18T17:24:32.999Z</time></trkpt><trkpt lat="37.02655504321025" lon="15.071273142522836"><ele>363.0</ele><time>2026-04-18T17:24:33.999Z</time></trkpt><trkpt lat="37.0265121862007" lon="15.071501995451207"><ele>363.3333333333333</ele><time>2026-04-18T17:24:34.999Z</time></trkpt><trkpt lat="37.02646861195738" lon="15.071717761670524"><ele>363.66666666666663</ele><time>2026-04-18T17:24:35.999Z</time></trkpt><trkpt lat="37.02642664745156" lon="15.071932803180955"><ele>364.0</ele><time>2026-04-18T17:24:36.999Z</time></trkpt><trkpt lat="37.02638657155179" lon="15.072139660809949"><ele>364.0</ele><time>2026-04-18T17:24:37.999Z</time></trkpt><trkpt lat="37.026359037925616" lon="15.072347634380447"><ele>364.0</ele><time>2026-04-18T17:24:38.999Z</time></trkpt><trkpt lat="37.02632159296762" lon="15.072543145556669"><ele>364.0</ele><time>2026-04-18T17:24:39.999Z</time></trkpt><trkpt lat="37.02628771019283" lon="15.072736497045078"><ele>363.66666666666663</ele><time>2026-04-18T17:24:40.999Z</time></trkpt><trkpt lat="37.02626011975256" lon="15.072928756524648"><ele>363.3333333333333</ele><time>2026-04-18T17:24:41.999Z</time></trkpt><trkpt lat="37.02623069700719" lon="15.07312350577476"><ele>363.0</ele><time>2026-04-18T17:24:42.999Z</time></trkpt><trkpt lat="37.02620382555757" lon="15.073327613519178"><ele>362.3333333333333</ele><time>2026-04-18T17:24:43.999Z</time></trkpt><trkpt lat="37.026183279363394" lon="15.073529579862635"><ele>361.66666666666663</ele><time>2026-04-18T17:24:44.999Z</time></trkpt><trkpt lat="37.02616482555961" lon="15.073730432344531"><ele>361.0</ele><time>2026-04-18T17:24:45.999Z</time></trkpt><trkpt lat="37.02614540862206" lon="15.073922295005916"><ele>359.3333333333333</ele><time>2026-04-18T17:24:46.999Z</time></trkpt><trkpt lat="37.02611931648461" lon="15.074116596960764"><ele>357.6666666666667</ele><time>2026-04-18T17:24:47.999Z</time></trkpt><trkpt lat="37.02609481686911" lon="15.074308526976974"><ele>356.0</ele><time>2026-04-18T17:24:48.999Z</time></trkpt><trkpt lat="37.026082164756126" lon="15.074502615248216"><ele>356.0</ele><time>2026-04-18T17:24:49.999Z</time></trkpt><trkpt lat="37.0260744703656" lon="15.074691566862978"><ele>356.0</ele><time>2026-04-18T17:24:50.999Z</time></trkpt><trkpt lat="37.026070521289974" lon="15.07487784852313"><ele>356.0</ele><time>2026-04-18T17:24:51.999Z</time></trkpt><trkpt lat="37.02606348775709" lon="15.075056464260589"><ele>356.0</ele><time>2026-04-18T17:24:52.999Z</time></trkpt><trkpt lat="37.02603541259776" lon="15.075233855118931"><ele>354.0</ele><time>2026-04-18T17:24:53.999Z</time></trkpt><trkpt lat="37.02599975882774" lon="15.075409149937816"><ele>352.0</ele><time>2026-04-18T17:24:54.999Z</time></trkpt><trkpt lat="37.0259855341031" lon="15.075602065038105"><ele>350.0</ele><time>2026-04-18T17:24:55.999Z</time></trkpt><trkpt lat="37.025981478480475" lon="15.075810286044712"><ele>347.0</ele><time>2026-04-18T17:24:56.999Z</time></trkpt><trkpt lat="37.02598147540834" lon="15.076027883860107"><ele>344.0</ele><time>2026-04-18T17:24:57.999Z</time></trkpt><trkpt lat="37.02597358994672" lon="15.076250238101455"><ele>341.0</ele><time>2026-04-18T17:24:58.999Z</time></trkpt><trkpt lat="37.025962534068434" lon="15.076479673320481"><ele>339.33333333333337</ele><time>2026-04-18T17:24:59.999Z</time></trkpt><trkpt lat="37.02595898384201" lon="15.076716861675376"><ele>337.6666666666667</ele><time>2026-04-18T17:25:00.998Z</time></trkpt><trkpt lat="37.025946413760444" lon="15.076958089684588"><ele>336.0</ele><time>2026-04-18T17:25:01.998Z</time></trkpt><trkpt lat="37.02593630389657" lon="15.077205632311495"><ele>334.3333333333333</ele><time>2026-04-18T17:25:02.998Z</time></trkpt><trkpt lat="37.025928943279396" lon="15.077460978994408"><ele>332.66666666666663</ele><time>2026-04-18T17:25:03.998Z</time></trkpt><trkpt lat="37.02591882825987" lon="15.077723349379642"><ele>331.0</ele><time>2026-04-18T17:25:04.998Z</time></trkpt><trkpt lat="37.02591087234944" lon="15.077985560527116"><ele>331.0</ele><time>2026-04-18T17:25:05.998Z</time></trkpt><trkpt lat="37.02590393778369" lon="15.078246708045228"><ele>331.0</ele><time>2026-04-18T17:25:06.998Z</time></trkpt><trkpt lat="37.02589353153633" lon="15.07851988175389"><ele>331.0</ele><time>2026-04-18T17:25:07.998Z</time></trkpt><trkpt lat="37.02588346454747" lon="15.078806679136319"><ele>329.5</ele><time>2026-04-18T17:25:08.998Z</time></trkpt><trkpt lat="37.02587571676224" lon="15.079093367085648"><ele>328.0</ele><time>2026-04-18T17:25:09.998Z</time></trkpt><trkpt lat="37.02586675822175" lon="15.079398806726932"><ele>325.5</ele><time>2026-04-18T17:25:10.998Z</time></trkpt><trkpt lat="37.025855335109945" lon="15.079705968574165"><ele>323.0</ele><time>2026-04-18T17:25:11.998Z</time></trkpt><trkpt lat="37.025843455940766" lon="15.080009256410982"><ele>321.0</ele><time>2026-04-18T17:25:12.998Z</time></trkpt><trkpt lat="37.02583417605424" lon="15.080303550049043"><ele>319.0</ele><time>2026-04-18T17:25:13.998Z</time></trkpt><trkpt lat="37.02582107455808" lon="15.08060174230682"><ele>325.0</ele><time>2026-04-18T17:25:14.998Z</time></trkpt><trkpt lat="37.02581049570759" lon="15.08090526707887"><ele>331.0</ele><time>2026-04-18T17:25:16Z</time></trkpt><trkpt lat="37.02579680464962" lon="15.081201415612847"><ele>331.0</ele><time>2026-04-18T17:25:17Z</time></trkpt><trkpt lat="37.02579019458766" lon="15.081498747168395"><ele>331.0</ele><time>2026-04-18T17:25:18Z</time></trkpt><trkpt lat="37.02577969797501" lon="15.081791360422226"><ele>329.0</ele><time>2026-04-18T17:25:19Z</time></trkpt><trkpt lat="37.02577101400039" lon="15.082083045611089"><ele>327.0</ele><time>2026-04-18T17:25:20Z</time></trkpt><trkpt lat="37.02576153405831" lon="15.082378644944827"><ele>326.0</ele><time>2026-04-18T17:25:21Z</time></trkpt><trkpt lat="37.025753810563785" lon="15.082666372210879"><ele>325.0</ele><time>2026-04-18T17:25:22Z</time></trkpt><trkpt lat="37.02574385487316" lon="15.08295949726524"><ele>325.0</ele><time>2026-04-18T17:25:23Z</time></trkpt><trkpt lat="37.02573389170348" lon="15.08324840984792"><ele>325.0</ele><time>2026-04-18T17:25:24Z</time></trkpt><trkpt lat="37.02572056713186" lon="15.083537886313714"><ele>327.0</ele><time>2026-04-18T17:25:25Z</time></trkpt><trkpt lat="37.025707254255956" lon="15.083826106069472"><ele>329.0</ele><time>2026-04-18T17:25:26Z</time></trkpt><trkpt lat="37.02569723609848" lon="15.084113098254724"><ele>330.0</ele><time>2026-04-18T17:25:27Z</time></trkpt><trkpt lat="37.02569892801594" lon="15.084402529854561"><ele>331.0</ele><time>2026-04-18T17:25:28Z</time></trkpt><trkpt lat="37.02571657135729" lon="15.084688312634748"><ele>330.0</ele><time>2026-04-18T17:25:29Z</time></trkpt><trkpt lat="37.02574544925613" lon="15.08497242720468"><ele>329.0</ele><time>2026-04-18T17:25:30Z</time></trkpt><trkpt lat="37.02578346751618" lon="15.085256509341313"><ele>320.5</ele><time>2026-04-18T17:25:31Z</time></trkpt><trkpt lat="37.02582308383007" lon="15.085553156506624"><ele>312.0</ele><time>2026-04-18T17:25:32Z</time></trkpt><trkpt lat="37.02586217307475" lon="15.08585019911803"><ele>310.5</ele><time>2026-04-18T17:25:33Z</time></trkpt><trkpt lat="37.025895899489676" lon="15.086155267525925"><ele>309.0</ele><time>2026-04-18T17:25:34Z</time></trkpt><trkpt lat="37.02593284979322" lon="15.086454512252429"><ele>309.0</ele><time>2026-04-18T17:25:35Z</time></trkpt><trkpt lat="37.025940708910184" lon="15.086750224959525"><ele>309.0</ele><time>2026-04-18T17:25:36Z</time></trkpt><trkpt lat="37.02593747991266" lon="15.087058610478923"><ele>309.0</ele><time>2026-04-18T17:25:37Z</time></trkpt><trkpt lat="37.025888436073764" lon="15.087364421858812"><ele>309.0</ele><time>2026-04-18T17:25:38Z</time></trkpt><trkpt lat="37.02584114829854" lon="15.087659886659175"><ele>313.0</ele><time>2026-04-18T17:25:39Z</time></trkpt><trkpt lat="37.02580094945284" lon="15.087967991528904"><ele>317.0</ele><time>2026-04-18T17:25:40Z</time></trkpt><trkpt lat="37.02576702906422" lon="15.088278074491189"><ele>317.0</ele><time>2026-04-18T17:25:41Z</time></trkpt><trkpt lat="37.02574098554972" lon="15.08859730403693"><ele>317.0</ele><time>2026-04-18T17:25:42Z</time></trkpt><trkpt lat="37.025717873983254" lon="15.08891961049292"><ele>316.5</ele><time>2026-04-18T17:25:43Z</time></trkpt><trkpt lat="37.025707063346424" lon="15.089237111205739"><ele>316.0</ele><time>2026-04-18T17:25:44Z</time></trkpt><trkpt lat="37.02569943790178" lon="15.089553644944825"><ele>316.0</ele><time>2026-04-18T17:25:45Z</time></trkpt><trkpt lat="37.02569280717449" lon="15.089870437455065"><ele>316.0</ele><time>2026-04-18T17:25:46Z</time></trkpt><trkpt lat="37.02568253840345" lon="15.090180192212397"><ele>316.0</ele><time>2026-04-18T17:25:47Z</time></trkpt><trkpt lat="37.025671711633656" lon="15.090492230954275"><ele>316.0</ele><time>2026-04-18T17:25:48Z</time></trkpt><trkpt lat="37.02565954409672" lon="15.090806013804047"><ele>314.0</ele><time>2026-04-18T17:25:49Z</time></trkpt><trkpt lat="37.02564429521217" lon="15.091118468993832"><ele>312.0</ele><time>2026-04-18T17:25:50Z</time></trkpt><trkpt lat="37.02563244862775" lon="15.091426532286674"><ele>308.5</ele><time>2026-04-18T17:25:51Z</time></trkpt><trkpt lat="37.0256233979188" lon="15.091736237263378"><ele>305.0</ele><time>2026-04-18T17:25:52Z</time></trkpt><trkpt lat="37.02561379868589" lon="15.092043815565312"><ele>305.0</ele><time>2026-04-18T17:25:53Z</time></trkpt><trkpt lat="37.025609192939044" lon="15.092352606755107"><ele>305.0</ele><time>2026-04-18T17:25:54Z</time></trkpt><trkpt lat="37.025609746043145" lon="15.092657038738217"><ele>303.0</ele><time>2026-04-18T17:25:55Z</time></trkpt><trkpt lat="37.025627477774556" lon="15.092962677875716"><ele>301.0</ele><time>2026-04-18T17:25:56Z</time></trkpt><trkpt lat="37.02566063257663" lon="15.09327205003643"><ele>300.5</ele><time>2026-04-18T17:25:57Z</time></trkpt><trkpt lat="37.025701980807675" lon="15.093585897141008"><ele>300.0</ele><time>2026-04-18T17:25:58Z</time></trkpt><trkpt lat="37.02574387056706" lon="15.093892303805413"><ele>301.5</ele><time>2026-04-18T17:25:59Z</time></trkpt><trkpt lat="37.02578616254793" lon="15.094194622796103"><ele>303.0</ele><time>2026-04-18T17:26:00Z</time></trkpt><trkpt lat="37.02582525495589" lon="15.094493209760968"><ele>294.5</ele><time>2026-04-18T17:26:01Z</time></trkpt><trkpt lat="37.02586255517484" lon="15.0947928918815"><ele>286.0</ele><time>2026-04-18T17:26:02Z</time></trkpt><trkpt lat="37.02588916285447" lon="15.09509016090053"><ele>285.0</ele><time>2026-04-18T17:26:03Z</time></trkpt><trkpt lat="37.02590718332274" lon="15.095393722712403"><ele>284.0</ele><time>2026-04-18T17:26:03.999Z</time></trkpt><trkpt lat="37.02591027270424" lon="15.095690488235915"><ele>283.5</ele><time>2026-04-18T17:26:04.999Z</time></trkpt><trkpt lat="37.02590163589138" lon="15.095989496271594"><ele>283.0</ele><time>2026-04-18T17:26:05.999Z</time></trkpt><trkpt lat="37.02592358558839" lon="15.096272603225056"><ele>283.0</ele><time>2026-04-18T17:26:06.999Z</time></trkpt><trkpt lat="37.02584461604031" lon="15.096576518411846"><ele>283.0</ele><time>2026-04-18T17:26:07.999Z</time></trkpt><trkpt lat="37.02580459828213" lon="15.09688082657664"><ele>286.5</ele><time>2026-04-18T17:26:08.999Z</time></trkpt><trkpt lat="37.0257679505433" lon="15.097182757468856"><ele>290.0</ele><time>2026-04-18T17:26:09.999Z</time></trkpt><trkpt lat="37.02573038518003" lon="15.097485740085139"><ele>290.0</ele><time>2026-04-18T17:26:10.999Z</time></trkpt><trkpt lat="37.02569399864281" lon="15.097788558116417"><ele>290.0</ele><time>2026-04-18T17:26:11.999Z</time></trkpt><trkpt lat="37.02565916922745" lon="15.098087095362516"><ele>287.5</ele><time>2026-04-18T17:26:12.999Z</time></trkpt><trkpt lat="37.025625201604484" lon="15.09838121619729"><ele>285.0</ele><time>2026-04-18T17:26:13.999Z</time></trkpt><trkpt lat="37.02558838268007" lon="15.098672670531792"><ele>285.0</ele><time>2026-04-18T17:26:14.999Z</time></trkpt><trkpt lat="37.02555008718771" lon="15.098970508922932"><ele>285.0</ele><time>2026-04-18T17:26:15.999Z</time></trkpt><trkpt lat="37.02550785479304" lon="15.09926357479916"><ele>283.0</ele><time>2026-04-18T17:26:16.999Z</time></trkpt><trkpt lat="37.02545600875709" lon="15.099552876170726"><ele>281.0</ele><time>2026-04-18T17:26:17.999Z</time></trkpt><trkpt lat="37.02539330857888" lon="15.099840023549175"><ele>281.5</ele><time>2026-04-18T17:26:18.999Z</time></trkpt><trkpt lat="37.02531231626787" lon="15.100123338771764"><ele>282.0</ele><time>2026-04-18T17:26:19.999Z</time></trkpt><trkpt lat="37.02521643210538" lon="15.100404595986044"><ele>282.0</ele><time>2026-04-18T17:26:20.999Z</time></trkpt><trkpt lat="37.025103151097326" lon="15.100680452282726"><ele>282.0</ele><time>2026-04-18T17:26:21.999Z</time></trkpt><trkpt lat="37.02497659047166" lon="15.10095650543787"><ele>283.5</ele><time>2026-04-18T17:26:22.999Z</time></trkpt><trkpt lat="37.0248438567203" lon="15.101232014915967"><ele>285.0</ele><time>2026-04-18T17:26:23.999Z</time></trkpt><trkpt lat="37.02469964794926" lon="15.101506368485987"><ele>281.0</ele><time>2026-04-18T17:26:24.999Z</time></trkpt><trkpt lat="37.0245349429844" lon="15.101770077482467"><ele>277.0</ele><time>2026-04-18T17:26:25.999Z</time></trkpt><trkpt lat="37.02435661410413" lon="15.102020380216015"><ele>277.0</ele><time>2026-04-18T17:26:26.999Z</time></trkpt><trkpt lat="37.02417150066069" lon="15.10226816808606"><ele>277.0</ele><time>2026-04-18T17:26:27.999Z</time></trkpt><trkpt lat="37.02398967316347" lon="15.102513714069858"><ele>274.5</ele><time>2026-04-18T17:26:28.999Z</time></trkpt><trkpt lat="37.02379738690677" lon="15.10277849007552"><ele>272.0</ele><time>2026-04-18T17:26:29.999Z</time></trkpt><trkpt lat="37.02361371071341" lon="15.103037877402064"><ele>268.5</ele><time>2026-04-18T17:26:30.999Z</time></trkpt><trkpt lat="37.023427355082866" lon="15.10330043345383"><ele>265.0</ele><time>2026-04-18T17:26:31.999Z</time></trkpt><trkpt lat="37.02324201962017" lon="15.103560896872425"><ele>265.0</ele><time>2026-04-18T17:26:32.999Z</time></trkpt><trkpt lat="37.02305469224758" lon="15.103819146302975"><ele>265.0</ele><time>2026-04-18T17:26:33.999Z</time></trkpt><trkpt lat="37.022867159551886" lon="15.104075748038703"><ele>262.5</ele><time>2026-04-18T17:26:34.999Z</time></trkpt><trkpt lat="37.02267745020353" lon="15.104330824688411"><ele>260.0</ele><time>2026-04-18T17:26:35.999Z</time></trkpt><trkpt lat="37.02248874248135" lon="15.104588382348213"><ele>261.0</ele><time>2026-04-18T17:26:36.999Z</time></trkpt><trkpt lat="37.02230884674776" lon="15.104843228604024"><ele>262.0</ele><time>2026-04-18T17:26:37.999Z</time></trkpt><trkpt lat="37.022126295673125" lon="15.105098669031893"><ele>260.0</ele><time>2026-04-18T17:26:38.999Z</time></trkpt><trkpt lat="37.02194900651853" lon="15.105344967085962"><ele>258.0</ele><time>2026-04-18T17:26:39.999Z</time></trkpt><trkpt lat="37.021769766917046" lon="15.105591574828207"><ele>257.0</ele><time>2026-04-18T17:26:40.999Z</time></trkpt><trkpt lat="37.021591549695565" lon="15.105844510466081"><ele>256.0</ele><time>2026-04-18T17:26:41.999Z</time></trkpt><trkpt lat="37.021419693885846" lon="15.106090122826252"><ele>256.0</ele><time>2026-04-18T17:26:42.999Z</time></trkpt><trkpt lat="37.02124783842673" lon="15.106332114946953"><ele>256.0</ele><time>2026-04-18T17:26:43.999Z</time></trkpt><trkpt lat="37.021078841106544" lon="15.106579660675106"><ele>254.0</ele><time>2026-04-18T17:26:44.999Z</time></trkpt><trkpt lat="37.02091808975962" lon="15.106833341746722"><ele>252.0</ele><time>2026-04-18T17:26:45.999Z</time></trkpt><trkpt lat="37.02076666630623" lon="15.107098728199167"><ele>252.0</ele><time>2026-04-18T17:26:46.999Z</time></trkpt><trkpt lat="37.02062825554382" lon="15.107373349628613"><ele>252.0</ele><time>2026-04-18T17:26:47.999Z</time></trkpt><trkpt lat="37.02050022535911" lon="15.107660009964844"><ele>251.0</ele><time>2026-04-18T17:26:48.999Z</time></trkpt><trkpt lat="37.02038549004109" lon="15.107954294247683"><ele>250.0</ele><time>2026-04-18T17:26:49.999Z</time></trkpt><trkpt lat="37.02028525960149" lon="15.108257187638145"><ele>248.0</ele><time>2026-04-18T17:26:50.999Z</time></trkpt><trkpt lat="37.02020571123884" lon="15.108570682818915"><ele>246.0</ele><time>2026-04-18T17:26:51.999Z</time></trkpt><trkpt lat="37.020140406302446" lon="15.108894036683724"><ele>245.0</ele><time>2026-04-18T17:26:52.999Z</time></trkpt><trkpt lat="37.02008933205008" lon="15.109223849920898"><ele>244.0</ele><time>2026-04-18T17:26:53.999Z</time></trkpt><trkpt lat="37.02005468753049" lon="15.109555499204536"><ele>244.0</ele><time>2026-04-18T17:26:54.999Z</time></trkpt><trkpt lat="37.020032027500726" lon="15.109887200765813"><ele>244.0</ele><time>2026-04-18T17:26:55.999Z</time></trkpt><trkpt lat="37.02001753718177" lon="15.110218962519147"><ele>244.0</ele><time>2026-04-18T17:26:56.999Z</time></trkpt><trkpt lat="37.02003001811374" lon="15.110546903717108"><ele>244.0</ele><time>2026-04-18T17:26:57.999Z</time></trkpt><trkpt lat="37.02005668118628" lon="15.11087505785526"><ele>244.0</ele><time>2026-04-18T17:26:58.999Z</time></trkpt><trkpt lat="37.02009211294697" lon="15.111208801832003"><ele>244.0</ele><time>2026-04-18T17:26:59.999Z</time></trkpt><trkpt lat="37.02013591500117" lon="15.11154303333027"><ele>242.5</ele><time>2026-04-18T17:27:00.999Z</time></trkpt><trkpt lat="37.020186237990096" lon="15.111878873665109"><ele>241.0</ele><time>2026-04-18T17:27:01.999Z</time></trkpt><trkpt lat="37.02024298224961" lon="15.112218266357804"><ele>240.5</ele><time>2026-04-18T17:27:02.999Z</time></trkpt><trkpt lat="37.02029712683221" lon="15.112555879818045"><ele>240.0</ele><time>2026-04-18T17:27:03.999Z</time></trkpt><trkpt lat="37.02035020388592" lon="15.11289786703641"><ele>240.0</ele><time>2026-04-18T17:27:04.999Z</time></trkpt><trkpt lat="37.02040283333667" lon="15.113236540384262"><ele>240.0</ele><time>2026-04-18T17:27:05.999Z</time></trkpt><trkpt lat="37.02045474176613" lon="15.113576483970531"><ele>240.0</ele><time>2026-04-18T17:27:06.999Z</time></trkpt><trkpt lat="37.02050569755451" lon="15.113912467513384"><ele>240.0</ele><time>2026-04-18T17:27:07.998Z</time></trkpt><trkpt lat="37.02055646949166" lon="15.114251554244394"><ele>239.0</ele><time>2026-04-18T17:27:08.998Z</time></trkpt><trkpt lat="37.02060737834574" lon="15.114592645145764"><ele>238.0</ele><time>2026-04-18T17:27:09.998Z</time></trkpt><trkpt lat="37.02065849560794" lon="15.114935335535131"><ele>237.0</ele><time>2026-04-18T17:27:10.998Z</time></trkpt><trkpt lat="37.02071377671356" lon="15.115270598452407"><ele>236.0</ele><time>2026-04-18T17:27:11.998Z</time></trkpt><trkpt lat="37.02076653132222" lon="15.115607698336621"><ele>235.5</ele><time>2026-04-18T17:27:12.998Z</time></trkpt><trkpt lat="37.02081726257797" lon="15.115934465938686"><ele>235.0</ele><time>2026-04-18T17:27:13.998Z</time></trkpt><trkpt lat="37.02086602114784" lon="15.11625995926723"><ele>235.0</ele><time>2026-04-18T17:27:14.998Z</time></trkpt><trkpt lat="37.02091475988619" lon="15.11658663554754"><ele>235.0</ele><time>2026-04-18T17:27:15.998Z</time></trkpt><trkpt lat="37.02096389316073" lon="15.116914365474106"><ele>235.0</ele><time>2026-04-18T17:27:16.998Z</time></trkpt><trkpt lat="37.021016122030716" lon="15.117239827116402"><ele>235.0</ele><time>2026-04-18T17:27:17.998Z</time></trkpt><trkpt lat="37.02106620260141" lon="15.117563819999637"><ele>234.0</ele><time>2026-04-18T17:27:18.998Z</time></trkpt><trkpt lat="37.02111729614128" lon="15.117888289561867"><ele>233.0</ele><time>2026-04-18T17:27:19.998Z</time></trkpt><trkpt lat="37.021169321163114" lon="15.118209535106589"><ele>234.0</ele><time>2026-04-18T17:27:20.998Z</time></trkpt><trkpt lat="37.02122243334328" lon="15.118524985881628"><ele>235.0</ele><time>2026-04-18T17:27:22Z</time></trkpt><trkpt lat="37.021273957690305" lon="15.11884029615191"><ele>236.0</ele><time>2026-04-18T17:27:23Z</time></trkpt><trkpt lat="37.02132224349347" lon="15.119157152091887"><ele>237.0</ele><time>2026-04-18T17:27:24Z</time></trkpt><trkpt lat="37.021367619740616" lon="15.119472946818536"><ele>237.0</ele><time>2026-04-18T17:27:25Z</time></trkpt><trkpt lat="37.02140584868643" lon="15.119790971516053"><ele>237.0</ele><time>2026-04-18T17:27:26Z</time></trkpt><trkpt lat="37.02142969178379" lon="15.120111325869773"><ele>236.0</ele><time>2026-04-18T17:27:27Z</time></trkpt><trkpt lat="37.02144517598456" lon="15.120439020547668"><ele>235.0</ele><time>2026-04-18T17:27:28Z</time></trkpt><trkpt lat="37.02144327675724" lon="15.120768193047342"><ele>234.5</ele><time>2026-04-18T17:27:29Z</time></trkpt><trkpt lat="37.021435258129536" lon="15.121098014540616"><ele>234.0</ele><time>2026-04-18T17:27:30Z</time></trkpt><trkpt lat="37.02141937838354" lon="15.12143114375501"><ele>233.0</ele><time>2026-04-18T17:27:31Z</time></trkpt><trkpt lat="37.02139865634943" lon="15.121759041789245"><ele>232.0</ele><time>2026-04-18T17:27:32Z</time></trkpt><trkpt lat="37.02136794390922" lon="15.122090427555708"><ele>231.5</ele><time>2026-04-18T17:27:33Z</time></trkpt><trkpt lat="37.02133764901695" lon="15.122422951976167"><ele>231.0</ele><time>2026-04-18T17:27:34Z</time></trkpt><trkpt lat="37.02130809665925" lon="15.122758367316328"><ele>231.0</ele><time>2026-04-18T17:27:35Z</time></trkpt><trkpt lat="37.02128147897294" lon="15.123082356270213"><ele>231.0</ele><time>2026-04-18T17:27:36Z</time></trkpt><trkpt lat="37.0212552203775" lon="15.123411978761085"><ele>230.5</ele><time>2026-04-18T17:27:37Z</time></trkpt><trkpt lat="37.02123178731078" lon="15.123740091006088"><ele>230.0</ele><time>2026-04-18T17:27:38Z</time></trkpt><trkpt lat="37.021205833990386" lon="15.12406952089081"><ele>229.0</ele><time>2026-04-18T17:27:39Z</time></trkpt><trkpt lat="37.02117786783207" lon="15.124393493143021"><ele>228.0</ele><time>2026-04-18T17:27:40Z</time></trkpt><trkpt lat="37.02114554410397" lon="15.12472704888367"><ele>226.5</ele><time>2026-04-18T17:27:41Z</time></trkpt><trkpt lat="37.02111360139112" lon="15.125058056564725"><ele>225.0</ele><time>2026-04-18T17:27:42Z</time></trkpt><trkpt lat="37.0210815571925" lon="15.12538795067416"><ele>225.0</ele><time>2026-04-18T17:27:43Z</time></trkpt><trkpt lat="37.02105646222549" lon="15.125716312789354"><ele>225.0</ele><time>2026-04-18T17:27:44Z</time></trkpt><trkpt lat="37.021026099725184" lon="15.126052276031295"><ele>225.5</ele><time>2026-04-18T17:27:45Z</time></trkpt><trkpt lat="37.02099565963522" lon="15.12638161213798"><ele>226.0</ele><time>2026-04-18T17:27:46Z</time></trkpt><trkpt lat="37.02096241125004" lon="15.126717256310332"><ele>225.0</ele><time>2026-04-18T17:27:47Z</time></trkpt><trkpt lat="37.020928394484784" lon="15.127048344850476"><ele>224.0</ele><time>2026-04-18T17:27:48Z</time></trkpt><trkpt lat="37.02089652944751" lon="15.127382027219433"><ele>223.0</ele><time>2026-04-18T17:27:49Z</time></trkpt><trkpt lat="37.020866795317275" lon="15.127719253974153"><ele>222.0</ele><time>2026-04-18T17:27:50Z</time></trkpt><trkpt lat="37.02084060030251" lon="15.128045003802466"><ele>220.0</ele><time>2026-04-18T17:27:51Z</time></trkpt><trkpt lat="37.02081347500663" lon="15.12836793395438"><ele>218.0</ele><time>2026-04-18T17:27:52Z</time></trkpt><trkpt lat="37.02078499793777" lon="15.128690028655964"><ele>218.0</ele><time>2026-04-18T17:27:53Z</time></trkpt><trkpt lat="37.02075713983264" lon="15.12901096737379"><ele>218.0</ele><time>2026-04-18T17:27:54Z</time></trkpt><trkpt lat="37.020730235911415" lon="15.129336057630349"><ele>216.5</ele><time>2026-04-18T17:27:55Z</time></trkpt><trkpt lat="37.020705070238805" lon="15.129657934118477"><ele>215.0</ele><time>2026-04-18T17:27:56Z</time></trkpt><trkpt lat="37.020676357937724" lon="15.129986081926237"><ele>214.0</ele><time>2026-04-18T17:27:57Z</time></trkpt><trkpt lat="37.02065194982544" lon="15.130310912340232"><ele>213.0</ele><time>2026-04-18T17:27:58Z</time></trkpt><trkpt lat="37.02063202514505" lon="15.130647094721569"><ele>213.0</ele><time>2026-04-18T17:27:59Z</time></trkpt><trkpt lat="37.02061366794593" lon="15.130976095364627"><ele>213.0</ele><time>2026-04-18T17:28:00Z</time></trkpt><trkpt lat="37.020597278851184" lon="15.13130995843449"><ele>213.0</ele><time>2026-04-18T17:28:01Z</time></trkpt><trkpt lat="37.02058055510113" lon="15.131644680219893"><ele>213.0</ele><time>2026-04-18T17:28:02Z</time></trkpt><trkpt lat="37.02056673015926" lon="15.131979015241566"><ele>213.0</ele><time>2026-04-18T17:28:03Z</time></trkpt><trkpt lat="37.02054974528673" lon="15.132308831558834"><ele>213.0</ele><time>2026-04-18T17:28:04Z</time></trkpt><trkpt lat="37.02053689592741" lon="15.132643284148786"><ele>212.5</ele><time>2026-04-18T17:28:05Z</time></trkpt><trkpt lat="37.0205263606185" lon="15.132977885484559"><ele>212.0</ele><time>2026-04-18T17:28:06Z</time></trkpt><trkpt lat="37.02051808198326" lon="15.133312422943824"><ele>211.5</ele><time>2026-04-18T17:28:07Z</time></trkpt><trkpt lat="37.02051374660586" lon="15.133641455174086"><ele>211.0</ele><time>2026-04-18T17:28:08Z</time></trkpt><trkpt lat="37.020509989426635" lon="15.13397074043789"><ele>210.0</ele><time>2026-04-18T17:28:08.999Z</time></trkpt><trkpt lat="37.02050333305972" lon="15.134295714797698"><ele>209.0</ele><time>2026-04-18T17:28:09.999Z</time></trkpt><trkpt lat="37.02049998512789" lon="15.134626826787485"><ele>208.5</ele><time>2026-04-18T17:28:10.999Z</time></trkpt><trkpt lat="37.020496656888604" lon="15.134957016688576"><ele>208.0</ele><time>2026-04-18T17:28:11.999Z</time></trkpt><trkpt lat="37.02049561282634" lon="15.135286145658494"><ele>208.0</ele><time>2026-04-18T17:28:12.999Z</time></trkpt><trkpt lat="37.02049593541162" lon="15.135617202747877"><ele>208.0</ele><time>2026-04-18T17:28:13.999Z</time></trkpt><trkpt lat="37.020495088181285" lon="15.135944217992112"><ele>208.5</ele><time>2026-04-18T17:28:14.999Z</time></trkpt><trkpt lat="37.02049679596113" lon="15.136270408391733"><ele>209.0</ele><time>2026-04-18T17:28:15.999Z</time></trkpt><trkpt lat="37.02049956945626" lon="15.136592724346368"><ele>209.0</ele><time>2026-04-18T17:28:16.999Z</time></trkpt><trkpt lat="37.02050739186207" lon="15.136916760360691"><ele>209.0</ele><time>2026-04-18T17:28:17.999Z</time></trkpt><trkpt lat="37.02049714601175" lon="15.137242799848025"><ele>211.0</ele><time>2026-04-18T17:28:18.999Z</time></trkpt><trkpt lat="37.02052320679983" lon="15.137570620587994"><ele>213.0</ele><time>2026-04-18T17:28:19.999Z</time></trkpt><trkpt lat="37.02052863876087" lon="15.137897172931705"><ele>214.0</ele><time>2026-04-18T17:28:20.999Z</time></trkpt><trkpt lat="37.02053615121311" lon="15.138222019888836"><ele>215.0</ele><time>2026-04-18T17:28:21.999Z</time></trkpt><trkpt lat="37.020551267776604" lon="15.138546467274644"><ele>215.0</ele><time>2026-04-18T17:28:22.999Z</time></trkpt><trkpt lat="37.020569982749215" lon="15.138870096798389"><ele>215.0</ele><time>2026-04-18T17:28:23.999Z</time></trkpt><trkpt lat="37.0206056737354" lon="15.13919236635528"><ele>214.5</ele><time>2026-04-18T17:28:24.999Z</time></trkpt><trkpt lat="37.020639521230144" lon="15.139508002255802"><ele>214.0</ele><time>2026-04-18T17:28:25.999Z</time></trkpt><trkpt lat="37.020681156705024" lon="15.139828318012034"><ele>213.5</ele><time>2026-04-18T17:28:26.999Z</time></trkpt><trkpt lat="37.02077267503982" lon="15.140133805993873"><ele>213.0</ele><time>2026-04-18T17:28:27.999Z</time></trkpt><trkpt lat="37.02082592353592" lon="15.140450897883754"><ele>209.5</ele><time>2026-04-18T17:28:28.999Z</time></trkpt><trkpt lat="37.020878049700855" lon="15.140769591769315"><ele>206.0</ele><time>2026-04-18T17:28:29.999Z</time></trkpt><trkpt lat="37.02092910309884" lon="15.14108695779016"><ele>206.0</ele><time>2026-04-18T17:28:30.999Z</time></trkpt><trkpt lat="37.02097643634104" lon="15.141398731950908"><ele>206.0</ele><time>2026-04-18T17:28:31.999Z</time></trkpt><trkpt lat="37.021019624070895" lon="15.141709930540161"><ele>204.0</ele><time>2026-04-18T17:28:32.999Z</time></trkpt><trkpt lat="37.02105696894111" lon="15.142015037350593"><ele>202.0</ele><time>2026-04-18T17:28:33.999Z</time></trkpt><trkpt lat="37.02108557280266" lon="15.142322845817024"><ele>200.0</ele><time>2026-04-18T17:28:34.999Z</time></trkpt><trkpt lat="37.021099528016755" lon="15.142636720207708"><ele>198.0</ele><time>2026-04-18T17:28:35.999Z</time></trkpt><trkpt lat="37.02110504404765" lon="15.142947767558143"><ele>196.5</ele><time>2026-04-18T17:28:36.999Z</time></trkpt><trkpt lat="37.02109672239823" lon="15.143261243453898"><ele>195.0</ele><time>2026-04-18T17:28:37.999Z</time></trkpt><trkpt lat="37.021078862927475" lon="15.143576459244459"><ele>195.0</ele><time>2026-04-18T17:28:38.999Z</time></trkpt><trkpt lat="37.021051956629904" lon="15.143893661338561"><ele>195.0</ele><time>2026-04-18T17:28:39.999Z</time></trkpt><trkpt lat="37.02102308798622" lon="15.14421034177411"><ele>193.5</ele><time>2026-04-18T17:28:40.999Z</time></trkpt><trkpt lat="37.02099245226459" lon="15.144530678515556"><ele>192.0</ele><time>2026-04-18T17:28:41.999Z</time></trkpt><trkpt lat="37.02096383247097" lon="15.144848947131647"><ele>191.0</ele><time>2026-04-18T17:28:42.999Z</time></trkpt><trkpt lat="37.02093875513933" lon="15.145167802659682"><ele>190.0</ele><time>2026-04-18T17:28:43.999Z</time></trkpt><trkpt lat="37.02090820965789" lon="15.145492402405004"><ele>189.0</ele><time>2026-04-18T17:28:44.999Z</time></trkpt><trkpt lat="37.020876296712615" lon="15.145819765386417"><ele>188.0</ele><time>2026-04-18T17:28:45.999Z</time></trkpt><trkpt lat="37.020843229847316" lon="15.146149050984445"><ele>188.0</ele><time>2026-04-18T17:28:46.999Z</time></trkpt><trkpt lat="37.02081144959755" lon="15.146475729295656"><ele>188.0</ele><time>2026-04-18T17:28:47.999Z</time></trkpt><trkpt lat="37.020783935012105" lon="15.14680359615551"><ele>188.0</ele><time>2026-04-18T17:28:48.999Z</time></trkpt><trkpt lat="37.02076367228506" lon="15.147123608627668"><ele>188.0</ele><time>2026-04-18T17:28:49.999Z</time></trkpt><trkpt lat="37.02075571959088" lon="15.147449501331714"><ele>189.0</ele><time>2026-04-18T17:28:50.999Z</time></trkpt><trkpt lat="37.02076150688535" lon="15.147776583737471"><ele>190.0</ele><time>2026-04-18T17:28:51.999Z</time></trkpt><trkpt lat="37.020776919103795" lon="15.148107330067795"><ele>189.0</ele><time>2026-04-18T17:28:52.999Z</time></trkpt><trkpt lat="37.0207955964066" lon="15.148439402975121"><ele>188.0</ele><time>2026-04-18T17:28:53.999Z</time></trkpt><trkpt lat="37.02081139292877" lon="15.148767860480994"><ele>181.5</ele><time>2026-04-18T17:28:54.999Z</time></trkpt><trkpt lat="37.020822076930436" lon="15.149102471613533"><ele>175.0</ele><time>2026-04-18T17:28:55.999Z</time></trkpt><trkpt lat="37.0208338329525" lon="15.149438318133951"><ele>175.0</ele><time>2026-04-18T17:28:56.999Z</time></trkpt><trkpt lat="37.020847639838856" lon="15.149780076646435"><ele>175.0</ele><time>2026-04-18T17:28:57.999Z</time></trkpt><trkpt lat="37.020857407725074" lon="15.150120921198358"><ele>174.0</ele><time>2026-04-18T17:28:58.999Z</time></trkpt><trkpt lat="37.02086661911758" lon="15.150462208448525"><ele>173.0</ele><time>2026-04-18T17:28:59.999Z</time></trkpt><trkpt lat="37.02088016650168" lon="15.150804202527825"><ele>170.5</ele><time>2026-04-18T17:29:00.999Z</time></trkpt><trkpt lat="37.020897498764185" lon="15.151152715343292"><ele>168.0</ele><time>2026-04-18T17:29:01.999Z</time></trkpt><trkpt lat="37.0209161038639" lon="15.151491882666212"><ele>166.5</ele><time>2026-04-18T17:29:02.999Z</time></trkpt><trkpt lat="37.02092961072752" lon="15.15182039187294"><ele>165.0</ele><time>2026-04-18T17:29:03.999Z</time></trkpt><trkpt lat="37.02094375022313" lon="15.15215642147372"><ele>163.0</ele><time>2026-04-18T17:29:04.999Z</time></trkpt><trkpt lat="37.02096142840066" lon="15.15247994653504"><ele>161.0</ele><time>2026-04-18T17:29:05.999Z</time></trkpt><trkpt lat="37.02097646544853" lon="15.152785235221671"><ele>161.0</ele><time>2026-04-18T17:29:06.999Z</time></trkpt><trkpt lat="37.020985183967206" lon="15.153088027780267"><ele>161.0</ele><time>2026-04-18T17:29:07.999Z</time></trkpt><trkpt lat="37.020995430550144" lon="15.15338685710523"><ele>161.5</ele><time>2026-04-18T17:29:08.999Z</time></trkpt><trkpt lat="37.021006616429354" lon="15.153682479235426"><ele>162.0</ele><time>2026-04-18T17:29:09.999Z</time></trkpt><trkpt lat="37.02101489046587" lon="15.15398132593304"><ele>161.0</ele><time>2026-04-18T17:29:10.999Z</time></trkpt><trkpt lat="37.02102056104208" lon="15.15427447284245"><ele>160.0</ele><time>2026-04-18T17:29:11.998Z</time></trkpt><trkpt lat="37.02102584438461" lon="15.154569599269054"><ele>160.0</ele><time>2026-04-18T17:29:12.998Z</time></trkpt><trkpt lat="37.02103635969685" lon="15.154859647255257"><ele>160.0</ele><time>2026-04-18T17:29:13.998Z</time></trkpt><trkpt lat="37.02104760341343" lon="15.1551451956306"><ele>159.33333333333334</ele><time>2026-04-18T17:29:14.998Z</time></trkpt><trkpt lat="37.02105852215532" lon="15.155422289104301"><ele>158.66666666666666</ele><time>2026-04-18T17:29:15.998Z</time></trkpt><trkpt lat="37.02107141500445" lon="15.155698484991776"><ele>158.0</ele><time>2026-04-18T17:29:16.998Z</time></trkpt><trkpt lat="37.021087808687284" lon="15.155975705454795"><ele>157.33333333333331</ele><time>2026-04-18T17:29:17.998Z</time></trkpt><trkpt lat="37.021112858558354" lon="15.15624969775185"><ele>156.66666666666666</ele><time>2026-04-18T17:29:18.998Z</time></trkpt><trkpt lat="37.021147434651326" lon="15.156527256282448"><ele>156.0</ele><time>2026-04-18T17:29:19.998Z</time></trkpt><trkpt lat="37.021196786535256" lon="15.156797844192456"><ele>155.33333333333334</ele><time>2026-04-18T17:29:20.998Z</time></trkpt><trkpt lat="37.0212581950736" lon="15.157069087469988"><ele>154.66666666666669</ele><time>2026-04-18T17:29:21.998Z</time></trkpt><trkpt lat="37.021339658231504" lon="15.15732304529103"><ele>154.0</ele><time>2026-04-18T17:29:22.998Z</time></trkpt><trkpt lat="37.02144100043874" lon="15.157574166340234"><ele>154.0</ele><time>2026-04-18T17:29:23.998Z</time></trkpt><trkpt lat="37.021561715423935" lon="15.157822608478194"><ele>154.0</ele><time>2026-04-18T17:29:24.998Z</time></trkpt><trkpt lat="37.021697546844266" lon="15.158060840109306"><ele>152.0</ele><time>2026-04-18T17:29:25.998Z</time></trkpt><trkpt lat="37.02182992541317" lon="15.158311143660578"><ele>150.0</ele><time>2026-04-18T17:29:26.998Z</time></trkpt><trkpt lat="37.02197225573835" lon="15.158555052951654"><ele>150.0</ele><time>2026-04-18T17:29:28Z</time></trkpt><trkpt lat="37.022129006538805" lon="15.15876086525429"><ele>150.0</ele><time>2026-04-18T17:29:29Z</time></trkpt><trkpt lat="37.022281775490164" lon="15.158952869407242"><ele>150.0</ele><time>2026-04-18T17:29:30Z</time></trkpt><trkpt lat="37.02243053263489" lon="15.159144813390277"><ele>146.66666666666666</ele><time>2026-04-18T17:29:31Z</time></trkpt><trkpt lat="37.02256782995709" lon="15.159328587009472"><ele>143.33333333333331</ele><time>2026-04-18T17:29:32Z</time></trkpt><trkpt lat="37.02270303940961" lon="15.159516454979341"><ele>140.0</ele><time>2026-04-18T17:29:33Z</time></trkpt><trkpt lat="37.0228335914101" lon="15.159704109407816"><ele>141.0</ele><time>2026-04-18T17:29:34Z</time></trkpt><trkpt lat="37.02296151185835" lon="15.15989467114562"><ele>142.0</ele><time>2026-04-18T17:29:35Z</time></trkpt><trkpt lat="37.023087162043964" lon="15.160092951989837"><ele>143.0</ele><time>2026-04-18T17:29:36Z</time></trkpt><trkpt lat="37.023200555405424" lon="15.1602880616542"><ele>143.0</ele><time>2026-04-18T17:29:37Z</time></trkpt><trkpt lat="37.0233048602839" lon="15.160484861223493"><ele>143.0</ele><time>2026-04-18T17:29:38Z</time></trkpt><trkpt lat="37.023405520716764" lon="15.160679750323407"><ele>143.0</ele><time>2026-04-18T17:29:39Z</time></trkpt><trkpt lat="37.023489828432545" lon="15.160873706290008"><ele>139.0</ele><time>2026-04-18T17:29:40Z</time></trkpt><trkpt lat="37.023557967669745" lon="15.16108660553322"><ele>135.0</ele><time>2026-04-18T17:29:41Z</time></trkpt><trkpt lat="37.02363051775731" lon="15.161291733545204"><ele>131.0</ele><time>2026-04-18T17:29:42Z</time></trkpt><trkpt lat="37.0236927916607" lon="15.161497142412722"><ele>129.33333333333331</ele><time>2026-04-18T17:29:43Z</time></trkpt><trkpt lat="37.02374256561398" lon="15.161702326294407"><ele>127.66666666666666</ele><time>2026-04-18T17:29:44Z</time></trkpt><trkpt lat="37.02379158346711" lon="15.161906713452844"><ele>126.0</ele><time>2026-04-18T17:29:45Z</time></trkpt><trkpt lat="37.02384410156853" lon="15.162103736967172"><ele>126.0</ele><time>2026-04-18T17:29:46Z</time></trkpt><trkpt lat="37.023897899928485" lon="15.162299593152019"><ele>126.0</ele><time>2026-04-18T17:29:47Z</time></trkpt><trkpt lat="37.02395285987368" lon="15.162502523252442"><ele>126.0</ele><time>2026-04-18T17:29:48Z</time></trkpt><trkpt lat="37.02400690387821" lon="15.162705273559054"><ele>121.66666666666666</ele><time>2026-04-18T17:29:49Z</time></trkpt><trkpt lat="37.024062954884705" lon="15.162893149553536"><ele>117.33333333333333</ele><time>2026-04-18T17:29:50Z</time></trkpt><trkpt lat="37.024115727638524" lon="15.163081036244211"><ele>113.0</ele><time>2026-04-18T17:29:51Z</time></trkpt><trkpt lat="37.024167898191926" lon="15.163256069333855"><ele>111.0</ele><time>2026-04-18T17:29:52Z</time></trkpt><trkpt lat="37.02422237071688" lon="15.163416273326424"><ele>109.0</ele><time>2026-04-18T17:29:53Z</time></trkpt><trkpt lat="37.024284499404196" lon="15.16355823544105"><ele>107.0</ele><time>2026-04-18T17:29:54Z</time></trkpt><trkpt lat="37.024353652730966" lon="15.163682776998106"><ele>105.0</ele><time>2026-04-18T17:29:55Z</time></trkpt><trkpt lat="37.024449165770164" lon="15.163790001759018"><ele>105.0</ele><time>2026-04-18T17:29:56Z</time></trkpt><trkpt lat="37.02456151474036" lon="15.163870434019321"><ele>105.0</ele><time>2026-04-18T17:29:57Z</time></trkpt><trkpt lat="37.02466535300929" lon="15.163934367008238"><ele>105.0</ele><time>2026-04-18T17:29:58Z</time></trkpt><trkpt lat="37.024760301812066" lon="15.164017488038802"><ele>105.0</ele><time>2026-04-18T17:29:59Z</time></trkpt><trkpt lat="37.02485003647921" lon="15.164111556698995"><ele>103.75</ele><time>2026-04-18T17:30:00Z</time></trkpt><trkpt lat="37.02493606691093" lon="15.164213945221498"><ele>102.5</ele><time>2026-04-18T17:30:01Z</time></trkpt><trkpt lat="37.02501418287372" lon="15.164328801132369"><ele>101.25</ele><time>2026-04-18T17:30:02Z</time></trkpt><trkpt lat="37.025086235320316" lon="15.164461557495619"><ele>100.0</ele><time>2026-04-18T17:30:03Z</time></trkpt><trkpt lat="37.02514736319221" lon="15.164615401332446"><ele>99.75</ele><time>2026-04-18T17:30:04Z</time></trkpt><trkpt lat="37.025210723221406" lon="15.164755976193039"><ele>99.5</ele><time>2026-04-18T17:30:05Z</time></trkpt><trkpt lat="37.025274178786056" lon="15.164889363339126"><ele>99.25</ele><time>2026-04-18T17:30:06Z</time></trkpt><trkpt lat="37.02533928539075" lon="15.165017299131646"><ele>99.0</ele><time>2026-04-18T17:30:07Z</time></trkpt><trkpt lat="37.02540133410541" lon="15.165140842931477"><ele>98.33333333333333</ele><time>2026-04-18T17:30:08Z</time></trkpt><trkpt lat="37.02545191895188" lon="15.165248895229807"><ele>97.66666666666667</ele><time>2026-04-18T17:30:09Z</time></trkpt><trkpt lat="37.02548166009468" lon="15.16533736232388"><ele>97.0</ele><time>2026-04-18T17:30:10Z</time></trkpt><trkpt lat="37.02546939305782" lon="15.16543565147278"><ele>96.33333333333334</ele><time>2026-04-18T17:30:12Z</time></trkpt><trkpt lat="37.025394577052886" lon="15.165490811103119"><ele>95.66666666666667</ele><time>2026-04-18T17:30:14.999Z</time></trkpt><trkpt lat="37.02529583079762" lon="15.165470885433539"><ele>95.0</ele><time>2026-04-18T17:30:15.999Z</time></trkpt><trkpt lat="37.025187799426945" lon="15.165446967698077"><ele>95.0</ele><time>2026-04-18T17:30:16.999Z</time></trkpt><trkpt lat="37.02506650761547" lon="15.165422702579669"><ele>95.0</ele><time>2026-04-18T17:30:17.999Z</time></trkpt><trkpt lat="37.02494122120761" lon="15.165401322275438"><ele>95.0</ele><time>2026-04-18T17:30:18.999Z</time></trkpt><trkpt lat="37.02479339208735" lon="15.165377854310556"><ele>95.0</ele><time>2026-04-18T17:30:19.999Z</time></trkpt><trkpt lat="37.02464746844258" lon="15.1653564015789"><ele>95.0</ele><time>2026-04-18T17:30:20.999Z</time></trkpt><trkpt lat="37.024519145488256" lon="15.16533328454067"><ele>95.0</ele><time>2026-04-18T17:30:21.999Z</time></trkpt><trkpt lat="37.024393699651874" lon="15.165310239997748"><ele>95.0</ele><time>2026-04-18T17:30:22.999Z</time></trkpt><trkpt lat="37.024282679434975" lon="15.165283754524594"><ele>95.0</ele><time>2026-04-18T17:30:23.999Z</time></trkpt><trkpt lat="37.02418410696958" lon="15.16531255826314"><ele>95.0</ele><time>2026-04-18T17:30:24.999Z</time></trkpt><trkpt lat="37.02412363579135" lon="15.165387466312389"><ele>95.0</ele><time>2026-04-18T17:30:25.999Z</time></trkpt><trkpt lat="37.02409941498486" lon="15.165484133496404"><ele>95.0</ele><time>2026-04-18T17:30:26.999Z</time></trkpt><trkpt lat="37.02411302394034" lon="15.165590013172102"><ele>95.0</ele><time>2026-04-18T17:30:27.999Z</time></trkpt><trkpt lat="37.024154322329295" lon="15.165710672403794"><ele>95.0</ele><time>2026-04-18T17:30:28.999Z</time></trkpt><trkpt lat="37.02423192681161" lon="15.165867894989884"><ele>94.0</ele><time>2026-04-18T17:30:29.999Z</time></trkpt><trkpt lat="37.02431595086439" lon="15.166056962709206"><ele>93.0</ele><time>2026-04-18T17:30:30.999Z</time></trkpt><trkpt lat="37.02441299171123" lon="15.166283533438753"><ele>92.0</ele><time>2026-04-18T17:30:31.999Z</time></trkpt><trkpt lat="37.02450743719794" lon="15.166508849470512"><ele>91.0</ele><time>2026-04-18T17:30:32.999Z</time></trkpt><trkpt lat="37.02458758833759" lon="15.166776415735749"><ele>90.0</ele><time>2026-04-18T17:30:33.999Z</time></trkpt><trkpt lat="37.02469825697002" lon="15.167049877444764"><ele>90.0</ele><time>2026-04-18T17:30:34.999Z</time></trkpt><trkpt lat="37.02481732851695" lon="15.167339453814952"><ele>90.0</ele><time>2026-04-18T17:30:35.999Z</time></trkpt><trkpt lat="37.024933201748915" lon="15.16762650626559"><ele>90.0</ele><time>2026-04-18T17:30:36.999Z</time></trkpt><trkpt lat="37.02503417505328" lon="15.16788289192908"><ele>90.0</ele><time>2026-04-18T17:30:37.999Z</time></trkpt><trkpt lat="37.02512110540724" lon="15.168111172590223"><ele>90.0</ele><time>2026-04-18T17:30:38.999Z</time></trkpt><trkpt lat="37.025204803465016" lon="15.168329645629166"><ele>88.33333333333333</ele><time>2026-04-18T17:30:39.999Z</time></trkpt><trkpt lat="37.025247632722106" lon="15.168556961257003"><ele>86.66666666666666</ele><time>2026-04-18T17:30:40.999Z</time></trkpt><trkpt lat="37.02525931893173" lon="15.16878941428936"><ele>85.0</ele><time>2026-04-18T17:30:41.999Z</time></trkpt><trkpt lat="37.0252461166752" lon="15.169023783040899"><ele>83.66666666666666</ele><time>2026-04-18T17:30:42.999Z</time></trkpt><trkpt lat="37.02519685476118" lon="15.16925426774558"><ele>82.33333333333333</ele><time>2026-04-18T17:30:43.999Z</time></trkpt><trkpt lat="37.025115649227395" lon="15.16949530282386"><ele>81.0</ele><time>2026-04-18T17:30:44.999Z</time></trkpt><trkpt lat="37.02501172435841" lon="15.169749386483296"><ele>80.5</ele><time>2026-04-18T17:30:45.999Z</time></trkpt><trkpt lat="37.0248836904688" lon="15.170029466166264"><ele>80.0</ele><time>2026-04-18T17:30:46.999Z</time></trkpt><trkpt lat="37.02474564628829" lon="15.170343285351942"><ele>80.0</ele><time>2026-04-18T17:30:47.999Z</time></trkpt><trkpt lat="37.024596199585005" lon="15.170688764398529"><ele>80.0</ele><time>2026-04-18T17:30:48.999Z</time></trkpt><trkpt lat="37.024426766336056" lon="15.171082544474771"><ele>79.5</ele><time>2026-04-18T17:30:49.999Z</time></trkpt><trkpt lat="37.02424528217394" lon="15.17149765654278"><ele>79.0</ele><time>2026-04-18T17:30:50.999Z</time></trkpt><trkpt lat="37.02405764179399" lon="15.17193312394795"><ele>78.0</ele><time>2026-04-18T17:30:51.999Z</time></trkpt><trkpt lat="37.023872357170895" lon="15.172360844623157"><ele>77.0</ele><time>2026-04-18T17:30:52.999Z</time></trkpt><trkpt lat="37.02369012873581" lon="15.172772541168511"><ele>77.0</ele><time>2026-04-18T17:30:53.999Z</time></trkpt><trkpt lat="37.02362237365409" lon="15.17297501650678"><ele>77.0</ele><time>2026-04-18T17:30:54.999Z</time></trkpt><trkpt lat="37.02344924798938" lon="15.173369912196357"><ele>77.5</ele><time>2026-04-18T17:30:55.999Z</time></trkpt><trkpt lat="37.02328304292064" lon="15.173758020031709"><ele>78.0</ele><time>2026-04-18T17:30:56.999Z</time></trkpt><trkpt lat="37.023113444784094" lon="15.174144704108222"><ele>77.0</ele><time>2026-04-18T17:30:57.999Z</time></trkpt><trkpt lat="37.022950675002704" lon="15.174511694756854"><ele>76.0</ele><time>2026-04-18T17:30:58.999Z</time></trkpt><trkpt lat="37.022801297949584" lon="15.174854947976188"><ele>76.0</ele><time>2026-04-18T17:30:59.999Z</time></trkpt><trkpt lat="37.022659146841626" lon="15.1751771727557"><ele>76.0</ele><time>2026-04-18T17:31:00.999Z</time></trkpt><trkpt lat="37.02252708996019" lon="15.175484343855429"><ele>76.0</ele><time>2026-04-18T17:31:01.999Z</time></trkpt><trkpt lat="37.02240224476005" lon="15.175772912798942"><ele>76.0</ele><time>2026-04-18T17:31:02.999Z</time></trkpt><trkpt lat="37.02227989818061" lon="15.1760447918979"><ele>76.0</ele><time>2026-04-18T17:31:03.999Z</time></trkpt><trkpt lat="37.02216163056408" lon="15.176292950508891"><ele>76.0</ele><time>2026-04-18T17:31:04.999Z</time></trkpt><trkpt lat="37.022017454311865" lon="15.176496453147074"><ele>76.0</ele><time>2026-04-18T17:31:05.999Z</time></trkpt><trkpt lat="37.02186214144976" lon="15.176687172242314"><ele>75.5</ele><time>2026-04-18T17:31:06.999Z</time></trkpt><trkpt lat="37.02168635450752" lon="15.176895604252362"><ele>75.0</ele><time>2026-04-18T17:31:07.999Z</time></trkpt><trkpt lat="37.02149521451473" lon="15.177122916880004"><ele>74.0</ele><time>2026-04-18T17:31:08.999Z</time></trkpt><trkpt lat="37.021293391311" lon="15.177361396638497"><ele>73.0</ele><time>2026-04-18T17:31:09.999Z</time></trkpt><trkpt lat="37.02109679665766" lon="15.177620239852017"><ele>73.0</ele><time>2026-04-18T17:31:10.999Z</time></trkpt><trkpt lat="37.020885712943375" lon="15.17786797126751"><ele>73.0</ele><time>2026-04-18T17:31:11.999Z</time></trkpt><trkpt lat="37.02067039253704" lon="15.178121256150312"><ele>71.5</ele><time>2026-04-18T17:31:12.999Z</time></trkpt><trkpt lat="37.020459183894786" lon="15.178369587177277"><ele>70.0</ele><time>2026-04-18T17:31:13.999Z</time></trkpt><trkpt lat="37.020264465537124" lon="15.178598869424718"><ele>70.0</ele><time>2026-04-18T17:31:14.999Z</time></trkpt><trkpt lat="37.02007939804302" lon="15.178815182098294"><ele>70.0</ele><time>2026-04-18T17:31:15.999Z</time></trkpt><trkpt lat="37.019904647901996" lon="15.179016437368391"><ele>69.66666666666666</ele><time>2026-04-18T17:31:16.999Z</time></trkpt><trkpt lat="37.01974118967779" lon="15.179144289117687"><ele>69.33333333333333</ele><time>2026-04-18T17:31:17.998Z</time></trkpt><trkpt lat="37.01955035452292" lon="15.179224419853904"><ele>69.0</ele><time>2026-04-18T17:31:18.998Z</time></trkpt><trkpt lat="37.01936337954375" lon="15.179323203879736"><ele>68.5</ele><time>2026-04-18T17:31:19.998Z</time></trkpt><trkpt lat="37.01914410541187" lon="15.179400213118246"><ele>68.0</ele><time>2026-04-18T17:31:20.998Z</time></trkpt><trkpt lat="37.01890353470211" lon="15.179497109373951"><ele>68.0</ele><time>2026-04-18T17:31:21.998Z</time></trkpt><trkpt lat="37.0186623001807" lon="15.179600558198478"><ele>68.0</ele><time>2026-04-18T17:31:22.998Z</time></trkpt><trkpt lat="37.01841589818237" lon="15.17970584308005"><ele>68.5</ele><time>2026-04-18T17:31:23.998Z</time></trkpt><trkpt lat="37.01816375453374" lon="15.179813308480961"><ele>69.0</ele><time>2026-04-18T17:31:24.998Z</time></trkpt><trkpt lat="37.01790461729878" lon="15.17992377997724"><ele>68.0</ele><time>2026-04-18T17:31:25.998Z</time></trkpt><trkpt lat="37.017649921591925" lon="15.180030078984277"><ele>67.0</ele><time>2026-04-18T17:31:26.998Z</time></trkpt><trkpt lat="37.01739659017044" lon="15.18013447281301"><ele>67.0</ele><time>2026-04-18T17:31:27.998Z</time></trkpt><trkpt lat="37.017152718048365" lon="15.180238504554104"><ele>67.0</ele><time>2026-04-18T17:31:28.998Z</time></trkpt><trkpt lat="37.01692345516393" lon="15.180333827884272"><ele>67.0</ele><time>2026-04-18T17:31:29.998Z</time></trkpt><trkpt lat="37.0166869128542" lon="15.180452445296686"><ele>67.0</ele><time>2026-04-18T17:31:30.998Z</time></trkpt><trkpt lat="37.01642654208534" lon="15.180548421838047"><ele>66.0</ele><time>2026-04-18T17:31:31.998Z</time></trkpt><trkpt lat="37.01619169870559" lon="15.180785983827866"><ele>65.0</ele><time>2026-04-18T17:31:32.998Z</time></trkpt><trkpt lat="37.01592464907284" lon="15.18097479305558"><ele>65.0</ele><time>2026-04-18T17:31:34Z</time></trkpt><trkpt lat="37.01565025647449" lon="15.181163900978195"><ele>65.0</ele><time>2026-04-18T17:31:35Z</time></trkpt><trkpt lat="37.01536709181662" lon="15.181358662622022"><ele>63.5</ele><time>2026-04-18T17:31:36Z</time></trkpt><trkpt lat="37.015102664868685" lon="15.18154294429904"><ele>62.0</ele><time>2026-04-18T17:31:37Z</time></trkpt><trkpt lat="37.01484084871432" lon="15.181724656736574"><ele>61.5</ele><time>2026-04-18T17:31:38Z</time></trkpt><trkpt lat="37.01457550574713" lon="15.181907633220789"><ele>61.0</ele><time>2026-04-18T17:31:39Z</time></trkpt><trkpt lat="37.01431162237888" lon="15.182090462019092"><ele>61.0</ele><time>2026-04-18T17:31:40Z</time></trkpt><trkpt lat="37.01404139121629" lon="15.1822776139093"><ele>61.0</ele><time>2026-04-18T17:31:41Z</time></trkpt><trkpt lat="37.01376831683671" lon="15.182466569321463"><ele>61.0</ele><time>2026-04-18T17:31:42Z</time></trkpt><trkpt lat="37.01348927816751" lon="15.182657293521764"><ele>61.0</ele><time>2026-04-18T17:31:43Z</time></trkpt><trkpt lat="37.01321344942391" lon="15.182847599710316"><ele>60.5</ele><time>2026-04-18T17:31:44Z</time></trkpt><trkpt lat="37.01293754753791" lon="15.183038994594202"><ele>60.0</ele><time>2026-04-18T17:31:45Z</time></trkpt><trkpt lat="37.01265955373922" lon="15.183229538061704"><ele>59.0</ele><time>2026-04-18T17:31:46Z</time></trkpt><trkpt lat="37.0123846650177" lon="15.183421930433948"><ele>58.0</ele><time>2026-04-18T17:31:47Z</time></trkpt><trkpt lat="37.01210571540822" lon="15.183617816593024"><ele>58.0</ele><time>2026-04-18T17:31:48Z</time></trkpt><trkpt lat="37.01182637622254" lon="15.183811171803761"><ele>58.0</ele><time>2026-04-18T17:31:49Z</time></trkpt><trkpt lat="37.01154651647943" lon="15.184001816395822"><ele>57.5</ele><time>2026-04-18T17:31:50Z</time></trkpt><trkpt lat="37.01126597335652" lon="15.184193471666873"><ele>57.0</ele><time>2026-04-18T17:31:51Z</time></trkpt><trkpt lat="37.01098485769279" lon="15.184387122331373"><ele>57.0</ele><time>2026-04-18T17:31:52Z</time></trkpt><trkpt lat="37.01070517117498" lon="15.184583637279594"><ele>57.0</ele><time>2026-04-18T17:31:53Z</time></trkpt><trkpt lat="37.010425025885986" lon="15.184779625110773"><ele>56.5</ele><time>2026-04-18T17:31:54Z</time></trkpt><trkpt lat="37.010145820514424" lon="15.18497595820683"><ele>56.0</ele><time>2026-04-18T17:31:55Z</time></trkpt><trkpt lat="37.00986910417347" lon="15.185172719035394"><ele>55.5</ele><time>2026-04-18T17:31:56Z</time></trkpt><trkpt lat="37.00959068671791" lon="15.18536638843247"><ele>55.0</ele><time>2026-04-18T17:31:57Z</time></trkpt><trkpt lat="37.00930791660321" lon="15.185561288351437"><ele>55.0</ele><time>2026-04-18T17:31:58Z</time></trkpt><trkpt lat="37.00902875679467" lon="15.185750832225422"><ele>55.0</ele><time>2026-04-18T17:31:59Z</time></trkpt><trkpt lat="37.00874962169062" lon="15.185940126409388"><ele>55.0</ele><time>2026-04-18T17:32:00Z</time></trkpt><trkpt lat="37.008465660773375" lon="15.186133322515987"><ele>55.0</ele><time>2026-04-18T17:32:01Z</time></trkpt><trkpt lat="37.00816577919771" lon="15.186329813579983"><ele>55.5</ele><time>2026-04-18T17:32:02Z</time></trkpt><trkpt lat="37.00784566095836" lon="15.186494075654036"><ele>56.0</ele><time>2026-04-18T17:32:03Z</time></trkpt><trkpt lat="37.00759207581172" lon="15.186690541682726"><ele>57.0</ele><time>2026-04-18T17:32:04Z</time></trkpt><trkpt lat="37.007377021012" lon="15.186877044602571"><ele>58.0</ele><time>2026-04-18T17:32:05Z</time></trkpt><trkpt lat="37.00714529989715" lon="15.187046794909477"><ele>58.0</ele><time>2026-04-18T17:32:06Z</time></trkpt><trkpt lat="37.00693310609438" lon="15.18719477916162"><ele>58.0</ele><time>2026-04-18T17:32:07Z</time></trkpt><trkpt lat="37.00673568280275" lon="15.1873197416401"><ele>56.666666666666664</ele><time>2026-04-18T17:32:08Z</time></trkpt><trkpt lat="37.00655149183503" lon="15.187420405176525"><ele>55.33333333333333</ele><time>2026-04-18T17:32:09Z</time></trkpt><trkpt lat="37.00636499357157" lon="15.187478303730726"><ele>54.0</ele><time>2026-04-18T17:32:10Z</time></trkpt><trkpt lat="37.00616762835793" lon="15.187481480079468"><ele>54.0</ele><time>2026-04-18T17:32:11Z</time></trkpt><trkpt lat="37.00594978002942" lon="15.187474269533654"><ele>54.0</ele><time>2026-04-18T17:32:12Z</time></trkpt><trkpt lat="37.00570937092674" lon="15.187471046499391"><ele>54.0</ele><time>2026-04-18T17:32:13Z</time></trkpt><trkpt lat="37.00545369633081" lon="15.187473887562849"><ele>54.0</ele><time>2026-04-18T17:32:14Z</time></trkpt><trkpt lat="37.005187654324786" lon="15.18747671835749"><ele>54.0</ele><time>2026-04-18T17:32:14.999Z</time></trkpt><trkpt lat="37.00491684823138" lon="15.187476632894729"><ele>54.0</ele><time>2026-04-18T17:32:15.999Z</time></trkpt><trkpt lat="37.004647257068605" lon="15.187476616845487"><ele>54.0</ele><time>2026-04-18T17:32:16.999Z</time></trkpt><trkpt lat="37.00440160894754" lon="15.187482093807215"><ele>54.0</ele><time>2026-04-18T17:32:17.999Z</time></trkpt><trkpt lat="37.00418490599627" lon="15.187488109044054"><ele>54.33333333333333</ele><time>2026-04-18T17:32:18.999Z</time></trkpt><trkpt lat="37.00399257307932" lon="15.187496201138401"><ele>54.666666666666664</ele><time>2026-04-18T17:32:19.999Z</time></trkpt><trkpt lat="37.00382518484935" lon="15.187502666184198"><ele>55.0</ele><time>2026-04-18T17:32:20.999Z</time></trkpt><trkpt lat="37.00367634478524" lon="15.18751101293442"><ele>55.0</ele><time>2026-04-18T17:32:21.999Z</time></trkpt><trkpt lat="37.0035344375603" lon="15.187515615378773"><ele>55.0</ele><time>2026-04-18T17:32:22.999Z</time></trkpt><trkpt lat="37.003394634241815" lon="15.187518987960223"><ele>55.0</ele><time>2026-04-18T17:32:23.999Z</time></trkpt><trkpt lat="37.00324861226604" lon="15.187519825444667"><ele>55.0</ele><time>2026-04-18T17:32:24.999Z</time></trkpt><trkpt lat="37.00308788610038" lon="15.18752370180163"><ele>55.666666666666664</ele><time>2026-04-18T17:32:25.999Z</time></trkpt><trkpt lat="37.002906501058916" lon="15.187526009441537"><ele>56.33333333333333</ele><time>2026-04-18T17:32:26.999Z</time></trkpt><trkpt lat="37.00270709730178" lon="15.187530494344927"><ele>57.0</ele><time>2026-04-18T17:32:27.999Z</time></trkpt><trkpt lat="37.00249915185582" lon="15.187535511176613"><ele>56.5</ele><time>2026-04-18T17:32:28.999Z</time></trkpt><trkpt lat="37.002279772529896" lon="15.18753570103407"><ele>56.0</ele><time>2026-04-18T17:32:29.999Z</time></trkpt><trkpt lat="37.00204788638465" lon="15.187539247523638"><ele>56.0</ele><time>2026-04-18T17:32:30.999Z</time></trkpt><trkpt lat="37.00181306131755" lon="15.187543609491975"><ele>56.0</ele><time>2026-04-18T17:32:31.999Z</time></trkpt><trkpt lat="37.00157355200985" lon="15.187549777566522"><ele>56.5</ele><time>2026-04-18T17:32:32.999Z</time></trkpt><trkpt lat="37.001332574723634" lon="15.187553401557553"><ele>57.0</ele><time>2026-04-18T17:32:33.999Z</time></trkpt><trkpt lat="37.00109535199316" lon="15.187557268696894"><ele>57.0</ele><time>2026-04-18T17:32:34.999Z</time></trkpt><trkpt lat="37.00087657835123" lon="15.187557004251424"><ele>57.0</ele><time>2026-04-18T17:32:35.999Z</time></trkpt><trkpt lat="37.000661817615075" lon="15.18755920178924"><ele>57.0</ele><time>2026-04-18T17:32:36.999Z</time></trkpt><trkpt lat="37.00044459331646" lon="15.187566602759192"><ele>57.0</ele><time>2026-04-18T17:32:37.999Z</time></trkpt><trkpt lat="37.00022579187898" lon="15.187595420288053"><ele>57.0</ele><time>2026-04-18T17:32:38.999Z</time></trkpt><trkpt lat="37.000015667291656" lon="15.187664700279056"><ele>57.0</ele><time>2026-04-18T17:32:39.999Z</time></trkpt><trkpt lat="36.999805545526044" lon="15.187770002764031"><ele>57.0</ele><time>2026-04-18T17:32:40.999Z</time></trkpt><trkpt lat="36.99959982435584" lon="15.187897244977668"><ele>57.0</ele><time>2026-04-18T17:32:41.999Z</time></trkpt><trkpt lat="36.9993895091239" lon="15.18803250889812"><ele>57.0</ele><time>2026-04-18T17:32:42.999Z</time></trkpt><trkpt lat="36.99917108075878" lon="15.188165897438934"><ele>57.0</ele><time>2026-04-18T17:32:43.999Z</time></trkpt><trkpt lat="36.99894399659377" lon="15.188301303105382"><ele>55.5</ele><time>2026-04-18T17:32:44.999Z</time></trkpt><trkpt lat="36.99871157455141" lon="15.188437512873747"><ele>54.0</ele><time>2026-04-18T17:32:45.999Z</time></trkpt><trkpt lat="36.99848110425764" lon="15.188576253311851"><ele>54.5</ele><time>2026-04-18T17:32:46.999Z</time></trkpt><trkpt lat="36.99825892588213" lon="15.188714300764946"><ele>55.0</ele><time>2026-04-18T17:32:47.999Z</time></trkpt><trkpt lat="36.99803789697825" lon="15.188852676190224"><ele>55.0</ele><time>2026-04-18T17:32:48.999Z</time></trkpt><trkpt lat="36.99781346914531" lon="15.188987295351186"><ele>55.0</ele><time>2026-04-18T17:32:49.999Z</time></trkpt><trkpt lat="36.997599745673476" lon="15.189111428791644"><ele>54.33333333333333</ele><time>2026-04-18T17:32:50.999Z</time></trkpt><trkpt lat="36.99739917832683" lon="15.189228897774932"><ele>53.66666666666667</ele><time>2026-04-18T17:32:51.999Z</time></trkpt><trkpt lat="36.997207935303855" lon="15.189342464124557"><ele>53.0</ele><time>2026-04-18T17:32:52.999Z</time></trkpt><trkpt lat="36.99702796226701" lon="15.18944680403141"><ele>53.0</ele><time>2026-04-18T17:32:53.999Z</time></trkpt><trkpt lat="36.99684154221782" lon="15.189533785804478"><ele>53.0</ele><time>2026-04-18T17:32:54.999Z</time></trkpt><trkpt lat="36.996645495230176" lon="15.189581238228966"><ele>53.0</ele><time>2026-04-18T17:32:55.999Z</time></trkpt><trkpt lat="36.99642716948265" lon="15.18958477805391"><ele>52.5</ele><time>2026-04-18T17:32:56.999Z</time></trkpt><trkpt lat="36.996194735966355" lon="15.189542908048097"><ele>52.0</ele><time>2026-04-18T17:32:57.999Z</time></trkpt><trkpt lat="36.995941518545315" lon="15.189520042841744"><ele>51.0</ele><time>2026-04-18T17:32:58.999Z</time></trkpt><trkpt lat="36.99568095677477" lon="15.18947133759879"><ele>50.0</ele><time>2026-04-18T17:32:59.999Z</time></trkpt><trkpt lat="36.99541821190843" lon="15.189424764564732"><ele>50.0</ele><time>2026-04-18T17:33:00.999Z</time></trkpt><trkpt lat="36.99516711923771" lon="15.18938861997797"><ele>50.0</ele><time>2026-04-18T17:33:01.999Z</time></trkpt><trkpt lat="36.994921650745475" lon="15.189380923803872"><ele>50.5</ele><time>2026-04-18T17:33:02.999Z</time></trkpt><trkpt lat="36.994665805536876" lon="15.189409043874408"><ele>51.0</ele><time>2026-04-18T17:33:03.999Z</time></trkpt><trkpt lat="36.99438721884734" lon="15.189471653804459"><ele>52.0</ele><time>2026-04-18T17:33:04.999Z</time></trkpt><trkpt lat="36.994099910504104" lon="15.189565694166568"><ele>53.0</ele><time>2026-04-18T17:33:05.999Z</time></trkpt><trkpt lat="36.99381866336694" lon="15.189659453234936"><ele>53.0</ele><time>2026-04-18T17:33:06.999Z</time></trkpt><trkpt lat="36.993535251216514" lon="15.18972024776407"><ele>53.0</ele><time>2026-04-18T17:33:07.999Z</time></trkpt><trkpt lat="36.99324998766215" lon="15.189822737518398"><ele>52.5</ele><time>2026-04-18T17:33:08.999Z</time></trkpt><trkpt lat="36.99295899346201" lon="15.189908752392398"><ele>52.0</ele><time>2026-04-18T17:33:09.999Z</time></trkpt><trkpt lat="36.99268237474978" lon="15.189991893773534"><ele>53.0</ele><time>2026-04-18T17:33:10.999Z</time></trkpt><trkpt lat="36.99242240933694" lon="15.19007226494183"><ele>54.0</ele><time>2026-04-18T17:33:11.999Z</time></trkpt><trkpt lat="36.992171573525965" lon="15.190126355782127"><ele>54.0</ele><time>2026-04-18T17:33:12.999Z</time></trkpt><trkpt lat="36.991920695342266" lon="15.1901713183262"><ele>54.0</ele><time>2026-04-18T17:33:13.999Z</time></trkpt><trkpt lat="36.99165871269978" lon="15.190207167452245"><ele>54.5</ele><time>2026-04-18T17:33:14.999Z</time></trkpt><trkpt lat="36.99138984415665" lon="15.190253554891731"><ele>55.0</ele><time>2026-04-18T17:33:15.999Z</time></trkpt><trkpt lat="36.991122418651905" lon="15.190271182914936"><ele>55.0</ele><time>2026-04-18T17:33:16.999Z</time></trkpt><trkpt lat="36.9908476852383" lon="15.190295982976657"><ele>55.0</ele><time>2026-04-18T17:33:17.999Z</time></trkpt><trkpt lat="36.99055988169558" lon="15.190323407675264"><ele>54.5</ele><time>2026-04-18T17:33:18.999Z</time></trkpt><trkpt lat="36.99027905120806" lon="15.190352118677193"><ele>54.0</ele><time>2026-04-18T17:33:19.999Z</time></trkpt><trkpt lat="36.99001138710224" lon="15.19038073652812"><ele>54.0</ele><time>2026-04-18T17:33:20.998Z</time></trkpt><trkpt lat="36.9897457609474" lon="15.19040777772133"><ele>54.0</ele><time>2026-04-18T17:33:21.998Z</time></trkpt><trkpt lat="36.98948493937195" lon="15.190437006053655"><ele>54.0</ele><time>2026-04-18T17:33:22.998Z</time></trkpt><trkpt lat="36.98922684769091" lon="15.19047504633372"><ele>54.0</ele><time>2026-04-18T17:33:23.998Z</time></trkpt><trkpt lat="36.9889594328806" lon="15.190525070817753"><ele>53.5</ele><time>2026-04-18T17:33:24.998Z</time></trkpt><trkpt lat="36.98868107481045" lon="15.190601112602199"><ele>53.0</ele><time>2026-04-18T17:33:25.998Z</time></trkpt><trkpt lat="36.988388930146726" lon="15.190656535311922"><ele>52.0</ele><time>2026-04-18T17:33:26.998Z</time></trkpt><trkpt lat="36.98808184307824" lon="15.19073251631405"><ele>51.0</ele><time>2026-04-18T17:33:27.998Z</time></trkpt><trkpt lat="36.987753992852774" lon="15.190814295175512"><ele>51.5</ele><time>2026-04-18T17:33:28.998Z</time></trkpt><trkpt lat="36.98741796215059" lon="15.19089969415337"><ele>52.0</ele><time>2026-04-18T17:33:29.998Z</time></trkpt><trkpt lat="36.98708161293345" lon="15.190984427420442"><ele>52.0</ele><time>2026-04-18T17:33:30.998Z</time></trkpt><trkpt lat="36.98673976849821" lon="15.191070683606235"><ele>52.0</ele><time>2026-04-18T17:33:31.998Z</time></trkpt><trkpt lat="36.98639082485354" lon="15.191158732393642"><ele>53.0</ele><time>2026-04-18T17:33:32.998Z</time></trkpt><trkpt lat="36.98604692647193" lon="15.191265291851183"><ele>54.0</ele><time>2026-04-18T17:33:33.998Z</time></trkpt><trkpt lat="36.98573191665401" lon="15.191337397195376"><ele>54.5</ele><time>2026-04-18T17:33:34.998Z</time></trkpt><trkpt lat="36.985427015982445" lon="15.191404555588583"><ele>55.0</ele><time>2026-04-18T17:33:35.998Z</time></trkpt><trkpt lat="36.98515360932513" lon="15.191455774652132"><ele>55.5</ele><time>2026-04-18T17:33:36.998Z</time></trkpt><trkpt lat="36.984919930516725" lon="15.19150347018493"><ele>56.0</ele><time>2026-04-18T17:33:37.998Z</time></trkpt><trkpt lat="36.98443676433917" lon="15.191656556006036"><ele>56.5</ele><time>2026-04-18T17:33:38.998Z</time></trkpt><trkpt lat="36.984150056638576" lon="15.191730827281004"><ele>57.0</ele><time>2026-04-18T17:33:40Z</time></trkpt><trkpt lat="36.983901735343274" lon="15.191791682829429"><ele>57.0</ele><time>2026-04-18T17:33:41Z</time></trkpt><trkpt lat="36.983695448258786" lon="15.19184629679172"><ele>57.0</ele><time>2026-04-18T17:33:42Z</time></trkpt><trkpt lat="36.98349576018384" lon="15.191890130526092"><ele>57.0</ele><time>2026-04-18T17:33:43Z</time></trkpt><trkpt lat="36.98330503500845" lon="15.191909667750418"><ele>57.66666666666667</ele><time>2026-04-18T17:33:44Z</time></trkpt><trkpt lat="36.98311357184538" lon="15.191897785305681"><ele>58.333333333333336</ele><time>2026-04-18T17:33:45Z</time></trkpt><trkpt lat="36.98291059866384" lon="15.19186320519394"><ele>59.0</ele><time>2026-04-18T17:33:46Z</time></trkpt><trkpt lat="36.98268324456325" lon="15.191818727436623"><ele>58.5</ele><time>2026-04-18T17:33:47Z</time></trkpt><trkpt lat="36.9824377082127" lon="15.19176955570299"><ele>58.0</ele><time>2026-04-18T17:33:48Z</time></trkpt><trkpt lat="36.98218640945343" lon="15.191723828333277"><ele>58.0</ele><time>2026-04-18T17:33:49Z</time></trkpt><trkpt lat="36.98192896338233" lon="15.191681184992122"><ele>58.0</ele><time>2026-04-18T17:33:50Z</time></trkpt><trkpt lat="36.98167555995759" lon="15.19163645336701"><ele>58.0</ele><time>2026-04-18T17:33:51Z</time></trkpt><trkpt lat="36.98142062454061" lon="15.191594969259693"><ele>58.0</ele><time>2026-04-18T17:33:52Z</time></trkpt><trkpt lat="36.98116637971988" lon="15.191552909356156"><ele>58.0</ele><time>2026-04-18T17:33:53Z</time></trkpt><trkpt lat="36.980912753737734" lon="15.191516390414634"><ele>58.0</ele><time>2026-04-18T17:33:54Z</time></trkpt><trkpt lat="36.980663015605515" lon="15.191477455694619"><ele>58.5</ele><time>2026-04-18T17:33:55Z</time></trkpt><trkpt lat="36.98041386986328" lon="15.19143570693339"><ele>59.0</ele><time>2026-04-18T17:33:56Z</time></trkpt><trkpt lat="36.980162646117584" lon="15.191393487299196"><ele>59.5</ele><time>2026-04-18T17:33:57Z</time></trkpt><trkpt lat="36.97991172311409" lon="15.191347655989697"><ele>60.0</ele><time>2026-04-18T17:33:58Z</time></trkpt><trkpt lat="36.97966523846926" lon="15.191306489644699"><ele>60.0</ele><time>2026-04-18T17:33:59Z</time></trkpt><trkpt lat="36.97941605198932" lon="15.191267781761852"><ele>60.0</ele><time>2026-04-18T17:34:00Z</time></trkpt><trkpt lat="36.979172773456916" lon="15.191230288863888"><ele>61.0</ele><time>2026-04-18T17:34:01Z</time></trkpt><trkpt lat="36.97893655053508" lon="15.191197991550593"><ele>62.0</ele><time>2026-04-18T17:34:02Z</time></trkpt><trkpt lat="36.978695104105945" lon="15.19117138317688"><ele>62.0</ele><time>2026-04-18T17:34:03Z</time></trkpt><trkpt lat="36.978454080947856" lon="15.191141291920097"><ele>62.0</ele><time>2026-04-18T17:34:04Z</time></trkpt><trkpt lat="36.97819152854701" lon="15.191106002202435"><ele>62.5</ele><time>2026-04-18T17:34:05Z</time></trkpt><trkpt lat="36.977906725873524" lon="15.191067003087051"><ele>63.0</ele><time>2026-04-18T17:34:06Z</time></trkpt><trkpt lat="36.97761805911826" lon="15.191017084359503"><ele>62.5</ele><time>2026-04-18T17:34:07Z</time></trkpt><trkpt lat="36.977329467509975" lon="15.190970325155563"><ele>62.0</ele><time>2026-04-18T17:34:08Z</time></trkpt><trkpt lat="36.97705518715636" lon="15.19095342482462"><ele>62.0</ele><time>2026-04-18T17:34:09Z</time></trkpt><trkpt lat="36.97680160169472" lon="15.190950195276086"><ele>62.0</ele><time>2026-04-18T17:34:10Z</time></trkpt><trkpt lat="36.97656535983976" lon="15.190946128045413"><ele>61.333333333333336</ele><time>2026-04-18T17:34:11Z</time></trkpt><trkpt lat="36.976344420971635" lon="15.190932690340777"><ele>60.66666666666667</ele><time>2026-04-18T17:34:12Z</time></trkpt><trkpt lat="36.976142514877246" lon="15.190910285696827"><ele>60.0</ele><time>2026-04-18T17:34:13Z</time></trkpt><trkpt lat="36.97597098846818" lon="15.190866555765066"><ele>60.0</ele><time>2026-04-18T17:34:14Z</time></trkpt><trkpt lat="36.975838109341716" lon="15.190794915774594"><ele>60.0</ele><time>2026-04-18T17:34:15Z</time></trkpt><trkpt lat="36.97571999986781" lon="15.19070984815716"><ele>60.0</ele><time>2026-04-18T17:34:16Z</time></trkpt><trkpt lat="36.975609966744756" lon="15.190598523257087"><ele>60.0</ele><time>2026-04-18T17:34:17Z</time></trkpt><trkpt lat="36.97549147829681" lon="15.190449562267716"><ele>60.0</ele><time>2026-04-18T17:34:18Z</time></trkpt><trkpt lat="36.9753657722893" lon="15.19028166262193"><ele>60.0</ele><time>2026-04-18T17:34:19Z</time></trkpt><trkpt lat="36.975230920673695" lon="15.190105391023275"><ele>60.0</ele><time>2026-04-18T17:34:20Z</time></trkpt><trkpt lat="36.975076270589625" lon="15.189924183646314"><ele>58.66666666666667</ele><time>2026-04-18T17:34:21Z</time></trkpt><trkpt lat="36.9749109828156" lon="15.189767908704008"><ele>57.333333333333336</ele><time>2026-04-18T17:34:22Z</time></trkpt><trkpt lat="36.97473249956483" lon="15.189644480949507"><ele>56.0</ele><time>2026-04-18T17:34:23Z</time></trkpt><trkpt lat="36.97455488164605" lon="15.189551153790571"><ele>56.0</ele><time>2026-04-18T17:34:23.999Z</time></trkpt><trkpt lat="36.97437399152521" lon="15.189481568415346"><ele>56.0</ele><time>2026-04-18T17:34:24.999Z</time></trkpt><trkpt lat="36.974183054666675" lon="15.18942222168102"><ele>56.0</ele><time>2026-04-18T17:34:25.999Z</time></trkpt><trkpt lat="36.974006651276476" lon="15.189389594792017"><ele>56.0</ele><time>2026-04-18T17:34:26.999Z</time></trkpt><trkpt lat="36.973839232720316" lon="15.189364522567349"><ele>56.0</ele><time>2026-04-18T17:34:27.999Z</time></trkpt><trkpt lat="36.97367610713088" lon="15.189342339450773"><ele>56.0</ele><time>2026-04-18T17:34:28.999Z</time></trkpt><trkpt lat="36.97351921645013" lon="15.189349814054566"><ele>56.0</ele><time>2026-04-18T17:34:29.999Z</time></trkpt><trkpt lat="36.97336506921954" lon="15.189390849474384"><ele>56.0</ele><time>2026-04-18T17:34:30.999Z</time></trkpt><trkpt lat="36.97322501997477" lon="15.18948261216857"><ele>56.0</ele><time>2026-04-18T17:34:31.999Z</time></trkpt><trkpt lat="36.973099270117736" lon="15.18960673443737"><ele>55.66666666666667</ele><time>2026-04-18T17:34:32.999Z</time></trkpt><trkpt lat="36.97298692478774" lon="15.189755314314269"><ele>55.33333333333333</ele><time>2026-04-18T17:34:33.999Z</time></trkpt><trkpt lat="36.97286676147972" lon="15.189905959608065"><ele>55.0</ele><time>2026-04-18T17:34:34.999Z</time></trkpt><trkpt lat="36.972718373322785" lon="15.190095178888201"><ele>55.0</ele><time>2026-04-18T17:34:35.999Z</time></trkpt><trkpt lat="36.97257379643077" lon="15.190329710850467"><ele>55.0</ele><time>2026-04-18T17:34:36.999Z</time></trkpt><trkpt lat="36.972450011417166" lon="15.19049335482855"><ele>55.0</ele><time>2026-04-18T17:34:37.999Z</time></trkpt><trkpt lat="36.972334907018976" lon="15.190644089274276"><ele>54.5</ele><time>2026-04-18T17:34:38.999Z</time></trkpt><trkpt lat="36.97222297600189" lon="15.190792371645937"><ele>54.0</ele><time>2026-04-18T17:34:39.999Z</time></trkpt><trkpt lat="36.97211984762414" lon="15.190932605934453"><ele>53.5</ele><time>2026-04-18T17:34:40.999Z</time></trkpt><trkpt lat="36.97202621488034" lon="15.191050529438158"><ele>53.0</ele><time>2026-04-18T17:34:41.999Z</time></trkpt><trkpt lat="36.9719472407203" lon="15.191137178167569"><ele>53.0</ele><time>2026-04-18T17:34:42.999Z</time></trkpt><trkpt lat="36.971885957807125" lon="15.191207700663481"><ele>53.0</ele><time>2026-04-18T17:34:43.999Z</time></trkpt><trkpt lat="36.971796306603906" lon="15.191282276133762"><ele>53.0</ele><time>2026-04-18T17:34:45.999Z</time></trkpt><trkpt lat="36.97170399005213" lon="15.191323541247256"><ele>53.0</ele><time>2026-04-18T17:34:47.999Z</time></trkpt><trkpt lat="36.97160297906715" lon="15.1913366602938"><ele>53.0</ele><time>2026-04-18T17:34:49.999Z</time></trkpt><trkpt lat="36.97149892490284" lon="15.191315430757491"><ele>52.599999999999994</ele><time>2026-04-18T17:34:51.999Z</time></trkpt><trkpt lat="36.9713787633113" lon="15.191244652027839"><ele>52.199999999999996</ele><time>2026-04-18T17:34:53.999Z</time></trkpt><trkpt lat="36.97132041721692" lon="15.191200652659845"><ele>51.8</ele><time>2026-04-18T17:34:54.999Z</time></trkpt><trkpt lat="36.971258907263405" lon="15.191162378448107"><ele>51.4</ele><time>2026-04-18T17:34:55.999Z</time></trkpt><trkpt lat="36.97118219058782" lon="15.191095188499109"><ele>51.0</ele><time>2026-04-18T17:34:56.999Z</time></trkpt><trkpt lat="36.97107393429585" lon="15.191022545025694"><ele>51.0</ele><time>2026-04-18T17:34:57.999Z</time></trkpt><trkpt lat="36.97097056161629" lon="15.190918446358376"><ele>51.0</ele><time>2026-04-18T17:34:58.999Z</time></trkpt><trkpt lat="36.970849867009974" lon="15.190761635185414"><ele>51.0</ele><time>2026-04-18T17:34:59.999Z</time></trkpt><trkpt lat="36.970713516721965" lon="15.190594936378423"><ele>50.0</ele><time>2026-04-18T17:35:00.999Z</time></trkpt><trkpt lat="36.970557356202754" lon="15.190423255717942"><ele>49.0</ele><time>2026-04-18T17:35:01.999Z</time></trkpt><trkpt lat="36.97038571865579" lon="15.19023168076323"><ele>48.0</ele><time>2026-04-18T17:35:02.999Z</time></trkpt><trkpt lat="36.97020958404751" lon="15.190021744067009"><ele>48.66666666666667</ele><time>2026-04-18T17:35:03.999Z</time></trkpt><trkpt lat="36.97004557649109" lon="15.189832078080359"><ele>49.333333333333336</ele><time>2026-04-18T17:35:04.999Z</time></trkpt><trkpt lat="36.96988904853533" lon="15.189672688917794"><ele>50.0</ele><time>2026-04-18T17:35:05.999Z</time></trkpt><trkpt lat="36.9697160531099" lon="15.189549781680276"><ele>49.66666666666667</ele><time>2026-04-18T17:35:06.999Z</time></trkpt><trkpt lat="36.96951900092287" lon="15.189502292062327"><ele>49.33333333333333</ele><time>2026-04-18T17:35:07.999Z</time></trkpt><trkpt lat="36.96931042118999" lon="15.189511835555537"><ele>49.0</ele><time>2026-04-18T17:35:08.999Z</time></trkpt><trkpt lat="36.96910122815789" lon="15.189557493583829"><ele>49.0</ele><time>2026-04-18T17:35:09.999Z</time></trkpt><trkpt lat="36.96888188615414" lon="15.18956711825239"><ele>49.0</ele><time>2026-04-18T17:35:10.999Z</time></trkpt><trkpt lat="36.96863399545108" lon="15.189579152212692"><ele>49.5</ele><time>2026-04-18T17:35:11.999Z</time></trkpt><trkpt lat="36.968349926630225" lon="15.189592835161788"><ele>50.0</ele><time>2026-04-18T17:35:12.999Z</time></trkpt><trkpt lat="36.96806548976023" lon="15.18960725440666"><ele>50.0</ele><time>2026-04-18T17:35:13.999Z</time></trkpt><trkpt lat="36.96776140075371" lon="15.189623126235984"><ele>50.0</ele><time>2026-04-18T17:35:14.999Z</time></trkpt><trkpt lat="36.96744069378608" lon="15.189639834071423"><ele>48.5</ele><time>2026-04-18T17:35:15.999Z</time></trkpt><trkpt lat="36.967118657366825" lon="15.189655402380312"><ele>47.0</ele><time>2026-04-18T17:35:16.999Z</time></trkpt><trkpt lat="36.96678625321576" lon="15.189671470484852"><ele>45.0</ele><time>2026-04-18T17:35:17.999Z</time></trkpt><trkpt lat="36.96644404345382" lon="15.189688012586283"><ele>43.0</ele><time>2026-04-18T17:35:18.999Z</time></trkpt><trkpt lat="36.96609898900117" lon="15.189704788607933"><ele>42.5</ele><time>2026-04-18T17:35:19.999Z</time></trkpt><trkpt lat="36.965752487587004" lon="15.189721992941791"><ele>42.0</ele><time>2026-04-18T17:35:20.999Z</time></trkpt><trkpt lat="36.9654100459752" lon="15.189748617248322"><ele>42.0</ele><time>2026-04-18T17:35:21.999Z</time></trkpt><trkpt lat="36.965056836832694" lon="15.189762357564007"><ele>42.0</ele><time>2026-04-18T17:35:22.999Z</time></trkpt><trkpt lat="36.9646910666994" lon="15.189777894807209"><ele>40.5</ele><time>2026-04-18T17:35:23.999Z</time></trkpt><trkpt lat="36.96433901034318" lon="15.1897980111219"><ele>39.0</ele><time>2026-04-18T17:35:24.999Z</time></trkpt><trkpt lat="36.964015048514895" lon="15.189813593719483"><ele>38.0</ele><time>2026-04-18T17:35:25.999Z</time></trkpt><trkpt lat="36.96368992954784" lon="15.189831410475259"><ele>37.0</ele><time>2026-04-18T17:35:26.999Z</time></trkpt><trkpt lat="36.96338701345149" lon="15.189846495224188"><ele>35.5</ele><time>2026-04-18T17:35:27.999Z</time></trkpt><trkpt lat="36.96309557832761" lon="15.189856431601642"><ele>34.0</ele><time>2026-04-18T17:35:28.999Z</time></trkpt><trkpt lat="36.962812522198895" lon="15.189871094251425"><ele>34.0</ele><time>2026-04-18T17:35:29.999Z</time></trkpt><trkpt lat="36.96253400513288" lon="15.189882336027342"><ele>34.0</ele><time>2026-04-18T17:35:30.999Z</time></trkpt><trkpt lat="36.96226046241478" lon="15.189893112439888"><ele>33.0</ele><time>2026-04-18T17:35:31.998Z</time></trkpt><trkpt lat="36.962002039489306" lon="15.189905336728131"><ele>32.0</ele><time>2026-04-18T17:35:32.998Z</time></trkpt><trkpt lat="36.96175080381184" lon="15.189915995875907"><ele>31.0</ele><time>2026-04-18T17:35:33.998Z</time></trkpt><trkpt lat="36.961496249873214" lon="15.189928605782724"><ele>30.0</ele><time>2026-04-18T17:35:34.998Z</time></trkpt><trkpt lat="36.96123708314906" lon="15.189941673952175"><ele>30.0</ele><time>2026-04-18T17:35:35.998Z</time></trkpt><trkpt lat="36.96096971794473" lon="15.189957841577538"><ele>30.0</ele><time>2026-04-18T17:35:36.998Z</time></trkpt><trkpt lat="36.9607173696769" lon="15.189968896137993"><ele>30.0</ele><time>2026-04-18T17:35:37.998Z</time></trkpt><trkpt lat="36.96045994804123" lon="15.189978173383494"><ele>30.0</ele><time>2026-04-18T17:35:38.998Z</time></trkpt><trkpt lat="36.960196414392065" lon="15.189990690282485"><ele>30.0</ele><time>2026-04-18T17:35:39.998Z</time></trkpt><trkpt lat="36.959933823134236" lon="15.19000219523835"><ele>30.0</ele><time>2026-04-18T17:35:40.998Z</time></trkpt><trkpt lat="36.95966897283408" lon="15.190013565624072"><ele>30.0</ele><time>2026-04-18T17:35:41.998Z</time></trkpt><trkpt lat="36.959408143126815" lon="15.190025122818039"><ele>30.0</ele><time>2026-04-18T17:35:42.998Z</time></trkpt><trkpt lat="36.959148811003104" lon="15.190035920519604"><ele>29.0</ele><time>2026-04-18T17:35:43.998Z</time></trkpt><trkpt lat="36.958888195117716" lon="15.190048887657856"><ele>28.0</ele><time>2026-04-18T17:35:44.998Z</time></trkpt><trkpt lat="36.958632677770694" lon="15.19006138313707"><ele>28.0</ele><time>2026-04-18T17:35:46Z</time></trkpt><trkpt lat="36.9583749084304" lon="15.190073513548693"><ele>28.0</ele><time>2026-04-18T17:35:47Z</time></trkpt><trkpt lat="36.958099689075304" lon="15.190093368368403"><ele>26.5</ele><time>2026-04-18T17:35:48Z</time></trkpt><trkpt lat="36.957832448158854" lon="15.190110248008988"><ele>25.0</ele><time>2026-04-18T17:35:49Z</time></trkpt><trkpt lat="36.95758275718786" lon="15.19012764609629"><ele>24.5</ele><time>2026-04-18T17:35:50Z</time></trkpt><trkpt lat="36.957341821639275" lon="15.190147664740335"><ele>24.0</ele><time>2026-04-18T17:35:51Z</time></trkpt><trkpt lat="36.95707927352292" lon="15.190170776646287"><ele>24.0</ele><time>2026-04-18T17:35:52Z</time></trkpt><trkpt lat="36.95679491770385" lon="15.19018956307883"><ele>24.0</ele><time>2026-04-18T17:35:53Z</time></trkpt><trkpt lat="36.956513015031916" lon="15.190198966714428"><ele>24.0</ele><time>2026-04-18T17:35:54Z</time></trkpt><trkpt lat="36.95625201743746" lon="15.190203855001348"><ele>24.0</ele><time>2026-04-18T17:35:55Z</time></trkpt><trkpt lat="36.956001907681085" lon="15.190211567428413"><ele>23.5</ele><time>2026-04-18T17:35:56Z</time></trkpt><trkpt lat="36.95573513119371" lon="15.1902286211238"><ele>23.0</ele><time>2026-04-18T17:35:57Z</time></trkpt><trkpt lat="36.95544929354471" lon="15.190249273348005"><ele>23.0</ele><time>2026-04-18T17:35:58Z</time></trkpt><trkpt lat="36.95517257197147" lon="15.190257257096615"><ele>23.0</ele><time>2026-04-18T17:35:59Z</time></trkpt><trkpt lat="36.954916207721794" lon="15.190252762544624"><ele>23.5</ele><time>2026-04-18T17:36:00Z</time></trkpt><trkpt lat="36.954673694311204" lon="15.190252880770002"><ele>24.0</ele><time>2026-04-18T17:36:01Z</time></trkpt><trkpt lat="36.95442935613601" lon="15.190263060236449"><ele>23.0</ele><time>2026-04-18T17:36:02Z</time></trkpt><trkpt lat="36.95417757603841" lon="15.190276724940546"><ele>22.0</ele><time>2026-04-18T17:36:03Z</time></trkpt><trkpt lat="36.9539232161165" lon="15.190290932455282"><ele>22.0</ele><time>2026-04-18T17:36:04Z</time></trkpt><trkpt lat="36.95367198409036" lon="15.1903054081814"><ele>22.0</ele><time>2026-04-18T17:36:05Z</time></trkpt><trkpt lat="36.95342471251286" lon="15.19031924437305"><ele>21.333333333333332</ele><time>2026-04-18T17:36:06Z</time></trkpt><trkpt lat="36.95319468072906" lon="15.190335356897421"><ele>20.666666666666668</ele><time>2026-04-18T17:36:07Z</time></trkpt><trkpt lat="36.952981494090395" lon="15.190351481311579"><ele>20.0</ele><time>2026-04-18T17:36:08Z</time></trkpt><trkpt lat="36.95278450891282" lon="15.19036317259191"><ele>20.0</ele><time>2026-04-18T17:36:09Z</time></trkpt><trkpt lat="36.952611048277966" lon="15.190369923704273"><ele>20.0</ele><time>2026-04-18T17:36:10Z</time></trkpt><trkpt lat="36.95248878153112" lon="15.190355164143018"><ele>20.0</ele><time>2026-04-18T17:36:11Z</time></trkpt><trkpt lat="36.952387266819066" lon="15.190332019666462"><ele>20.0</ele><time>2026-04-18T17:36:12Z</time></trkpt><trkpt lat="36.95230111911835" lon="15.190291242970964"><ele>20.0</ele><time>2026-04-18T17:36:13Z</time></trkpt><trkpt lat="36.95223305458166" lon="15.190252720627184"><ele>20.0</ele><time>2026-04-18T17:36:14Z</time></trkpt><trkpt lat="36.95215209796585" lon="15.190263861935286"><ele>20.0</ele><time>2026-04-18T17:36:15Z</time></trkpt><trkpt lat="36.952071322346605" lon="15.190305870321309"><ele>20.0</ele><time>2026-04-18T17:36:16Z</time></trkpt><trkpt lat="36.951970368440875" lon="15.190364370192324"><ele>20.0</ele><time>2026-04-18T17:36:17Z</time></trkpt><trkpt lat="36.95183911907515" lon="15.19040384508898"><ele>19.333333333333336</ele><time>2026-04-18T17:36:18Z</time></trkpt><trkpt lat="36.95168397557425" lon="15.19041973494236"><ele>18.666666666666668</ele><time>2026-04-18T17:36:19Z</time></trkpt><trkpt lat="36.95152061219627" lon="15.190423793891686"><ele>18.0</ele><time>2026-04-18T17:36:20Z</time></trkpt><trkpt lat="36.951364482064385" lon="15.190430734953615"><ele>18.0</ele><time>2026-04-18T17:36:21Z</time></trkpt><trkpt lat="36.95122007266312" lon="15.190418947190395"><ele>18.0</ele><time>2026-04-18T17:36:22Z</time></trkpt><trkpt lat="36.951080535908254" lon="15.19039318188542"><ele>18.0</ele><time>2026-04-18T17:36:23Z</time></trkpt><trkpt lat="36.950947707599866" lon="15.19035238182149"><ele>18.0</ele><time>2026-04-18T17:36:24Z</time></trkpt><trkpt lat="36.95082044014432" lon="15.19030535382101"><ele>17.0</ele><time>2026-04-18T17:36:25Z</time></trkpt><trkpt lat="36.950697249605" lon="15.190241640336675"><ele>16.0</ele><time>2026-04-18T17:36:26Z</time></trkpt><trkpt lat="36.95058039490526" lon="15.190159265844066"><ele>15.0</ele><time>2026-04-18T17:36:27Z</time></trkpt><trkpt lat="36.95046525482179" lon="15.190067188909934"><ele>14.0</ele><time>2026-04-18T17:36:28Z</time></trkpt><trkpt lat="36.95035670005709" lon="15.189953957649257"><ele>13.333333333333334</ele><time>2026-04-18T17:36:29Z</time></trkpt><trkpt lat="36.95024667665598" lon="15.189819580566473"><ele>12.666666666666668</ele><time>2026-04-18T17:36:30Z</time></trkpt><trkpt lat="36.95013675947409" lon="15.189656891282771"><ele>12.0</ele><time>2026-04-18T17:36:31Z</time></trkpt><trkpt lat="36.95003072889874" lon="15.189470748488391"><ele>11.0</ele><time>2026-04-18T17:36:32Z</time></trkpt><trkpt lat="36.94992999890357" lon="15.189289022354055"><ele>10.0</ele><time>2026-04-18T17:36:32.999Z</time></trkpt><trkpt lat="36.9498063720391" lon="15.189065900215065"><ele>9.0</ele><time>2026-04-18T17:36:33.999Z</time></trkpt><trkpt lat="36.9496867134684" lon="15.1888596043612"><ele>7.666666666666667</ele><time>2026-04-18T17:36:34.999Z</time></trkpt><trkpt lat="36.94956862180447" lon="15.188663361854989"><ele>6.333333333333334</ele><time>2026-04-18T17:36:35.999Z</time></trkpt><trkpt lat="36.94945360218549" lon="15.188461795339604"><ele>5.0</ele><time>2026-04-18T17:36:36.999Z</time></trkpt><trkpt lat="36.94934604766705" lon="15.188264754750922"><ele>5.0</ele><time>2026-04-18T17:36:37.999Z</time></trkpt><trkpt lat="36.949238898665605" lon="15.188072509070146"><ele>5.0</ele><time>2026-04-18T17:36:38.999Z</time></trkpt><trkpt lat="36.949132590521124" lon="15.187877290864135"><ele>5.0</ele><time>2026-04-18T17:36:39.999Z</time></trkpt><trkpt lat="36.949026818131486" lon="15.187690219590563"><ele>5.0</ele><time>2026-04-18T17:36:40.999Z</time></trkpt><trkpt lat="36.948926575843615" lon="15.187505851805557"><ele>5.0</ele><time>2026-04-18T17:36:41.999Z</time></trkpt><trkpt lat="36.94882591441535" lon="15.187318961786705"><ele>5.0</ele><time>2026-04-18T17:36:42.999Z</time></trkpt><trkpt lat="36.94872612428146" lon="15.187135586430507"><ele>5.333333333333334</ele><time>2026-04-18T17:36:43.999Z</time></trkpt><trkpt lat="36.948628925984345" lon="15.186956109767728"><ele>5.666666666666667</ele><time>2026-04-18T17:36:44.999Z</time></trkpt><trkpt lat="36.948535609338805" lon="15.186773562287769"><ele>6.0</ele><time>2026-04-18T17:36:45.999Z</time></trkpt><trkpt lat="36.948451502236644" lon="15.186593504947721"><ele>6.0</ele><time>2026-04-18T17:36:46.999Z</time></trkpt><trkpt lat="36.948366976519814" lon="15.18640643170385"><ele>6.0</ele><time>2026-04-18T17:36:47.999Z</time></trkpt><trkpt lat="36.94828594199103" lon="15.186221257718266"><ele>6.0</ele><time>2026-04-18T17:36:48.999Z</time></trkpt><trkpt lat="36.94820103403135" lon="15.186035346457725"><ele>6.0</ele><time>2026-04-18T17:36:49.999Z</time></trkpt><trkpt lat="36.94810836527836" lon="15.185832039902012"><ele>6.0</ele><time>2026-04-18T17:36:50.999Z</time></trkpt><trkpt lat="36.948019395587295" lon="15.185592255685162"><ele>6.0</ele><time>2026-04-18T17:36:51.999Z</time></trkpt><trkpt lat="36.947926400669246" lon="15.185330905430765"><ele>6.0</ele><time>2026-04-18T17:36:52.999Z</time></trkpt><trkpt lat="36.94781793147717" lon="15.185058004051148"><ele>6.0</ele><time>2026-04-18T17:36:53.999Z</time></trkpt><trkpt lat="36.947732347764784" lon="15.184747799567283"><ele>6.5</ele><time>2026-04-18T17:36:54.999Z</time></trkpt><trkpt lat="36.94764825236495" lon="15.184426583579306"><ele>7.0</ele><time>2026-04-18T17:36:55.999Z</time></trkpt><trkpt lat="36.94756652075933" lon="15.18410535974311"><ele>9.5</ele><time>2026-04-18T17:36:56.999Z</time></trkpt><trkpt lat="36.947478397099175" lon="15.1837824422506"><ele>12.0</ele><time>2026-04-18T17:36:57.999Z</time></trkpt><trkpt lat="36.94739263651701" lon="15.183466135652587"><ele>12.0</ele><time>2026-04-18T17:36:58.999Z</time></trkpt><trkpt lat="36.94731083601872" lon="15.183186902151018"><ele>12.0</ele><time>2026-04-18T17:36:59.999Z</time></trkpt><trkpt lat="36.94723429047834" lon="15.182935199226876"><ele>13.0</ele><time>2026-04-18T17:37:00.999Z</time></trkpt><trkpt lat="36.9471635214096" lon="15.182697836278942"><ele>14.0</ele><time>2026-04-18T17:37:01.999Z</time></trkpt><trkpt lat="36.94711292680963" lon="15.182448189247195"><ele>15.0</ele><time>2026-04-18T17:37:02.999Z</time></trkpt><trkpt lat="36.94702584496081" lon="15.182162986117907"><ele>16.333333333333332</ele><time>2026-04-18T17:37:03.999Z</time></trkpt><trkpt lat="36.94695933179082" lon="15.181919114640946"><ele>17.666666666666664</ele><time>2026-04-18T17:37:04.999Z</time></trkpt><trkpt lat="36.946889771651875" lon="15.181688629323883"><ele>19.0</ele><time>2026-04-18T17:37:05.999Z</time></trkpt><trkpt lat="36.94680204415479" lon="15.181439596792314"><ele>21.0</ele><time>2026-04-18T17:37:06.999Z</time></trkpt><trkpt lat="36.946700093850204" lon="15.181164878488252"><ele>23.0</ele><time>2026-04-18T17:37:07.999Z</time></trkpt><trkpt lat="36.946596710671976" lon="15.180889502468057"><ele>24.5</ele><time>2026-04-18T17:37:08.999Z</time></trkpt><trkpt lat="36.946483315852255" lon="15.180625570203123"><ele>26.0</ele><time>2026-04-18T17:37:09.999Z</time></trkpt><trkpt lat="36.94635406074169" lon="15.180369277398807"><ele>26.0</ele><time>2026-04-18T17:37:10.999Z</time></trkpt><trkpt lat="36.946225297778234" lon="15.180128844519286"><ele>26.0</ele><time>2026-04-18T17:37:11.999Z</time></trkpt><trkpt lat="36.946104716219" lon="15.17990888645624"><ele>26.0</ele><time>2026-04-18T17:37:12.999Z</time></trkpt><trkpt lat="36.94598089980089" lon="15.179700201793276"><ele>25.666666666666664</ele><time>2026-04-18T17:37:13.999Z</time></trkpt><trkpt lat="36.94586435236315" lon="15.179483839874957"><ele>25.333333333333336</ele><time>2026-04-18T17:37:14.999Z</time></trkpt><trkpt lat="36.94572053758333" lon="15.17927198599707"><ele>25.0</ele><time>2026-04-18T17:37:15.999Z</time></trkpt><trkpt lat="36.945556229854844" lon="15.179044939182168"><ele>26.5</ele><time>2026-04-18T17:37:16.999Z</time></trkpt><trkpt lat="36.945376864098975" lon="15.178808727085855"><ele>28.0</ele><time>2026-04-18T17:37:17.999Z</time></trkpt><trkpt lat="36.94519002089962" lon="15.178568807884401"><ele>27.5</ele><time>2026-04-18T17:37:18.999Z</time></trkpt><trkpt lat="36.945017814895316" lon="15.178346018160688"><ele>27.0</ele><time>2026-04-18T17:37:19.999Z</time></trkpt><trkpt lat="36.94485603385192" lon="15.178136303049248"><ele>27.0</ele><time>2026-04-18T17:37:20.999Z</time></trkpt><trkpt lat="36.944701495933074" lon="15.177935977128419"><ele>27.0</ele><time>2026-04-18T17:37:21.999Z</time></trkpt><trkpt lat="36.944554255102624" lon="15.177745719242512"><ele>27.0</ele><time>2026-04-18T17:37:22.999Z</time></trkpt><trkpt lat="36.944401502549354" lon="15.177579324561307"><ele>27.0</ele><time>2026-04-18T17:37:23.999Z</time></trkpt><trkpt lat="36.94426539823439" lon="15.177398025156306"><ele>27.0</ele><time>2026-04-18T17:37:24.999Z</time></trkpt><trkpt lat="36.94412595454936" lon="15.177213893819175"><ele>27.0</ele><time>2026-04-18T17:37:25.999Z</time></trkpt><trkpt lat="36.94398450139099" lon="15.177030947109195"><ele>26.666666666666664</ele><time>2026-04-18T17:37:26.999Z</time></trkpt><trkpt lat="36.943847017460605" lon="15.176845320795437"><ele>26.333333333333332</ele><time>2026-04-18T17:37:27.999Z</time></trkpt><trkpt lat="36.94370621726658" lon="15.17666008041113"><ele>26.0</ele><time>2026-04-18T17:37:28.999Z</time></trkpt><trkpt lat="36.94356182523107" lon="15.176477151696112"><ele>26.0</ele><time>2026-04-18T17:37:29.999Z</time></trkpt><trkpt lat="36.943418654370774" lon="15.176296172508557"><ele>26.0</ele><time>2026-04-18T17:37:30.999Z</time></trkpt><trkpt lat="36.94327918456652" lon="15.176118368611336"><ele>26.0</ele><time>2026-04-18T17:37:31.999Z</time></trkpt><trkpt lat="36.943140334440564" lon="15.175938062783432"><ele>25.666666666666664</ele><time>2026-04-18T17:37:32.999Z</time></trkpt><trkpt lat="36.943001841276086" lon="15.175768294595608"><ele>25.333333333333336</ele><time>2026-04-18T17:37:33.999Z</time></trkpt><trkpt lat="36.94284260731058" lon="15.175592105802735"><ele>25.0</ele><time>2026-04-18T17:37:34.999Z</time></trkpt><trkpt lat="36.94265818631825" lon="15.175390491806967"><ele>23.0</ele><time>2026-04-18T17:37:35.999Z</time></trkpt><trkpt lat="36.942452645388826" lon="15.17518383655706"><ele>21.0</ele><time>2026-04-18T17:37:36.999Z</time></trkpt><trkpt lat="36.94223354997489" lon="15.17496945806678"><ele>22.5</ele><time>2026-04-18T17:37:37.999Z</time></trkpt><trkpt lat="36.94200945373146" lon="15.174744535602425"><ele>24.0</ele><time>2026-04-18T17:37:38.999Z</time></trkpt><trkpt lat="36.94175214619928" lon="15.174470759973305"><ele>24.0</ele><time>2026-04-18T17:37:39.999Z</time></trkpt><trkpt lat="36.941444289596205" lon="15.17416773829641"><ele>24.0</ele><time>2026-04-18T17:37:40.998Z</time></trkpt><trkpt lat="36.941335987448156" lon="15.174065637541473"><ele>26.0</ele><time>2026-04-18T17:37:41.998Z</time></trkpt><trkpt lat="36.9411049445942" lon="15.173863213039443"><ele>28.0</ele><time>2026-04-18T17:37:42.998Z</time></trkpt><trkpt lat="36.940883118547646" lon="15.17366905782023"><ele>26.0</ele><time>2026-04-18T17:37:43.998Z</time></trkpt><trkpt lat="36.94067484815745" lon="15.17348655283121"><ele>24.0</ele><time>2026-04-18T17:37:44.998Z</time></trkpt><trkpt lat="36.94045540531193" lon="15.17330567500401"><ele>24.0</ele><time>2026-04-18T17:37:45.998Z</time></trkpt><trkpt lat="36.94021754228229" lon="15.173106762065206"><ele>24.0</ele><time>2026-04-18T17:37:46.998Z</time></trkpt><trkpt lat="36.93996560394871" lon="15.172893739488375"><ele>20.5</ele><time>2026-04-18T17:37:47.998Z</time></trkpt><trkpt lat="36.939696738237636" lon="15.172673621412846"><ele>17.0</ele><time>2026-04-18T17:37:48.998Z</time></trkpt><trkpt lat="36.939425353875464" lon="15.172446813960729"><ele>16.0</ele><time>2026-04-18T17:37:49.998Z</time></trkpt><trkpt lat="36.9391528348936" lon="15.172220886984213"><ele>15.0</ele><time>2026-04-18T17:37:50.998Z</time></trkpt><trkpt lat="36.938865822963535" lon="15.171984296584748"><ele>15.0</ele><time>2026-04-18T17:37:52Z</time></trkpt><trkpt lat="36.938563072611075" lon="15.171753422335904"><ele>15.0</ele><time>2026-04-18T17:37:53Z</time></trkpt><trkpt lat="36.93825301843605" lon="15.171525523191969"><ele>17.0</ele><time>2026-04-18T17:37:54Z</time></trkpt><trkpt lat="36.93795592436458" lon="15.171311204819064"><ele>19.0</ele><time>2026-04-18T17:37:55Z</time></trkpt><trkpt lat="36.937671517936295" lon="15.171113018615637"><ele>17.5</ele><time>2026-04-18T17:37:56Z</time></trkpt><trkpt lat="36.93738301854627" lon="15.170907460377851"><ele>16.0</ele><time>2026-04-18T17:37:57Z</time></trkpt><trkpt lat="36.93708547501618" lon="15.170692359427193"><ele>17.0</ele><time>2026-04-18T17:37:58Z</time></trkpt><trkpt lat="36.93680329143867" lon="15.170491416794484"><ele>18.0</ele><time>2026-04-18T17:37:59Z</time></trkpt><trkpt lat="36.93654716074161" lon="15.170307493081507"><ele>18.0</ele><time>2026-04-18T17:38:00Z</time></trkpt><trkpt lat="36.93630885710029" lon="15.170133170804483"><ele>18.0</ele><time>2026-04-18T17:38:01Z</time></trkpt><trkpt lat="36.93608523561771" lon="15.169967655090112"><ele>19.0</ele><time>2026-04-18T17:38:02Z</time></trkpt><trkpt lat="36.935868979380515" lon="15.169815459351668"><ele>20.0</ele><time>2026-04-18T17:38:03Z</time></trkpt><trkpt lat="36.935656498697256" lon="15.16966332151394"><ele>20.0</ele><time>2026-04-18T17:38:04Z</time></trkpt><trkpt lat="36.935466352073874" lon="15.16951389777973"><ele>20.0</ele><time>2026-04-18T17:38:05Z</time></trkpt><trkpt lat="36.93527468847055" lon="15.169370268338428"><ele>20.0</ele><time>2026-04-18T17:38:06Z</time></trkpt><trkpt lat="36.93508972523087" lon="15.169240796218492"><ele>20.0</ele><time>2026-04-18T17:38:07Z</time></trkpt><trkpt lat="36.93492372174099" lon="15.169124705386494"><ele>20.0</ele><time>2026-04-18T17:38:08Z</time></trkpt><trkpt lat="36.934771363996305" lon="15.169013896068021"><ele>20.0</ele><time>2026-04-18T17:38:09Z</time></trkpt><trkpt lat="36.934634882188675" lon="15.168909107613517"><ele>20.0</ele><time>2026-04-18T17:38:10Z</time></trkpt><trkpt lat="36.93450981006619" lon="15.168812712912578"><ele>20.0</ele><time>2026-04-18T17:38:11Z</time></trkpt><trkpt lat="36.93439019112773" lon="15.168735106975669"><ele>20.0</ele><time>2026-04-18T17:38:12Z</time></trkpt><trkpt lat="36.93428041140097" lon="15.168657441744648"><ele>20.0</ele><time>2026-04-18T17:38:13Z</time></trkpt><trkpt lat="36.93417083647921" lon="15.168573566673482"><ele>19.75</ele><time>2026-04-18T17:38:14Z</time></trkpt><trkpt lat="36.934066541747995" lon="15.168497005800917"><ele>19.5</ele><time>2026-04-18T17:38:15Z</time></trkpt><trkpt lat="36.93395929706029" lon="15.16841427066289"><ele>19.25</ele><time>2026-04-18T17:38:16Z</time></trkpt><trkpt lat="36.9338513373908" lon="15.16832684923061"><ele>19.0</ele><time>2026-04-18T17:38:17Z</time></trkpt><trkpt lat="36.93373695773533" lon="15.168249883290576"><ele>19.333333333333332</ele><time>2026-04-18T17:38:18Z</time></trkpt><trkpt lat="36.93359173515154" lon="15.16817426332247"><ele>19.666666666666668</ele><time>2026-04-18T17:38:19Z</time></trkpt><trkpt lat="36.9334194716955" lon="15.16806021199017"><ele>20.0</ele><time>2026-04-18T17:38:20Z</time></trkpt><trkpt lat="36.93323489116849" lon="15.167917025010023"><ele>17.5</ele><time>2026-04-18T17:38:21Z</time></trkpt><trkpt lat="36.93302679257384" lon="15.167765800348755"><ele>15.0</ele><time>2026-04-18T17:38:22Z</time></trkpt><trkpt lat="36.93280444495191" lon="15.167606094906866"><ele>15.0</ele><time>2026-04-18T17:38:23Z</time></trkpt><trkpt lat="36.932573014362866" lon="15.167435280309169"><ele>15.0</ele><time>2026-04-18T17:38:24Z</time></trkpt><trkpt lat="36.932345015602145" lon="15.167264117553307"><ele>15.5</ele><time>2026-04-18T17:38:25Z</time></trkpt><trkpt lat="36.932117111949495" lon="15.16709835029925"><ele>16.0</ele><time>2026-04-18T17:38:26Z</time></trkpt><trkpt lat="36.93190214551664" lon="15.166941898413677"><ele>16.0</ele><time>2026-04-18T17:38:27Z</time></trkpt><trkpt lat="36.93170791841505" lon="15.16679018488758"><ele>16.0</ele><time>2026-04-18T17:38:28Z</time></trkpt><trkpt lat="36.931527466600556" lon="15.166651812595921"><ele>16.0</ele><time>2026-04-18T17:38:29Z</time></trkpt><trkpt lat="36.931359396983716" lon="15.166526153532809"><ele>16.666666666666664</ele><time>2026-04-18T17:38:30Z</time></trkpt><trkpt lat="36.9311914782048" lon="15.166399169236543"><ele>17.333333333333332</ele><time>2026-04-18T17:38:31Z</time></trkpt><trkpt lat="36.93101812333661" lon="15.166261398462575"><ele>18.0</ele><time>2026-04-18T17:38:32Z</time></trkpt><trkpt lat="36.930852325025704" lon="15.166129629063715"><ele>18.0</ele><time>2026-04-18T17:38:33Z</time></trkpt><trkpt lat="36.93069960077966" lon="15.166011362008298"><ele>18.0</ele><time>2026-04-18T17:38:34Z</time></trkpt><trkpt lat="36.930556599135855" lon="15.16589689966404"><ele>18.0</ele><time>2026-04-18T17:38:35Z</time></trkpt><trkpt lat="36.93042477117408" lon="15.16579517499012"><ele>18.0</ele><time>2026-04-18T17:38:36Z</time></trkpt><trkpt lat="36.93029831646123" lon="15.165700983937073"><ele>18.0</ele><time>2026-04-18T17:38:37Z</time></trkpt><trkpt lat="36.930155817317505" lon="15.165600711790017"><ele>18.0</ele><time>2026-04-18T17:38:38Z</time></trkpt><trkpt lat="36.92998667900875" lon="15.165488744095937"><ele>19.666666666666668</ele><time>2026-04-18T17:38:38.999Z</time></trkpt><trkpt lat="36.92980494788222" lon="15.165355720883063"><ele>21.333333333333336</ele><time>2026-04-18T17:38:39.999Z</time></trkpt><trkpt lat="36.929610658722666" lon="15.165207206189136"><ele>23.0</ele><time>2026-04-18T17:38:40.999Z</time></trkpt><trkpt lat="36.9294211478584" lon="15.16505108369059"><ele>23.0</ele><time>2026-04-18T17:38:41.999Z</time></trkpt><trkpt lat="36.92923168646321" lon="15.16489617979797"><ele>23.0</ele><time>2026-04-18T17:38:42.999Z</time></trkpt><trkpt lat="36.92905945615372" lon="15.164749063733108"><ele>23.0</ele><time>2026-04-18T17:38:43.999Z</time></trkpt><trkpt lat="36.928897848450035" lon="15.164608593666625"><ele>23.0</ele><time>2026-04-18T17:38:44.999Z</time></trkpt><trkpt lat="36.9287488199503" lon="15.16447934221562"><ele>23.0</ele><time>2026-04-18T17:38:45.999Z</time></trkpt><trkpt lat="36.92860437872449" lon="15.164352607877225"><ele>23.0</ele><time>2026-04-18T17:38:46.999Z</time></trkpt><trkpt lat="36.92848186594813" lon="15.164237347726125"><ele>23.0</ele><time>2026-04-18T17:38:47.999Z</time></trkpt><trkpt lat="36.92838331920982" lon="15.164140299438607"><ele>23.0</ele><time>2026-04-18T17:38:48.999Z</time></trkpt><trkpt lat="36.92829220805355" lon="15.16402444475156"><ele>23.0</ele><time>2026-04-18T17:38:49.999Z</time></trkpt><trkpt lat="36.92820283217784" lon="15.163882651817014"><ele>23.0</ele><time>2026-04-18T17:38:50.999Z</time></trkpt><trkpt lat="36.928103026818015" lon="15.163723636787084"><ele>23.0</ele><time>2026-04-18T17:38:51.999Z</time></trkpt><trkpt lat="36.928001603695016" lon="15.16356717693822"><ele>23.0</ele><time>2026-04-18T17:38:52.999Z</time></trkpt><trkpt lat="36.92790673840349" lon="15.163428093416766"><ele>23.0</ele><time>2026-04-18T17:38:53.999Z</time></trkpt><trkpt lat="36.927818157280534" lon="15.163301810069473"><ele>23.0</ele><time>2026-04-18T17:38:54.999Z</time></trkpt><trkpt lat="36.927730690225225" lon="15.163179891027548"><ele>23.25</ele><time>2026-04-18T17:38:55.999Z</time></trkpt><trkpt lat="36.927649427740725" lon="15.163064702481389"><ele>23.5</ele><time>2026-04-18T17:38:56.999Z</time></trkpt><trkpt lat="36.92757147327837" lon="15.162948713904552"><ele>23.75</ele><time>2026-04-18T17:38:57.999Z</time></trkpt><trkpt lat="36.92749032889172" lon="15.162828957120196"><ele>24.0</ele><time>2026-04-18T17:38:58.999Z</time></trkpt><trkpt lat="36.92740506595011" lon="15.162702915815622"><ele>23.75</ele><time>2026-04-18T17:38:59.999Z</time></trkpt><trkpt lat="36.92732117987126" lon="15.162583137549966"><ele>23.5</ele><time>2026-04-18T17:39:00.999Z</time></trkpt><trkpt lat="36.92724234393756" lon="15.162472338938846"><ele>23.25</ele><time>2026-04-18T17:39:01.999Z</time></trkpt><trkpt lat="36.92716810240799" lon="15.162367736960155"><ele>23.0</ele><time>2026-04-18T17:39:02.999Z</time></trkpt><trkpt lat="36.92709491205089" lon="15.16226264119338"><ele>23.0</ele><time>2026-04-18T17:39:03.999Z</time></trkpt><trkpt lat="36.92700739442487" lon="15.162141996660353"><ele>23.0</ele><time>2026-04-18T17:39:04.999Z</time></trkpt><trkpt lat="36.926895672343875" lon="15.161991205843488"><ele>23.0</ele><time>2026-04-18T17:39:05.999Z</time></trkpt><trkpt lat="36.926774912355434" lon="15.161816694071746"><ele>22.333333333333336</ele><time>2026-04-18T17:39:06.999Z</time></trkpt><trkpt lat="36.926664718469766" lon="15.161646737896296"><ele>21.666666666666668</ele><time>2026-04-18T17:39:07.999Z</time></trkpt><trkpt lat="36.926564924719244" lon="15.161491806776176"><ele>21.0</ele><time>2026-04-18T17:39:08.999Z</time></trkpt><trkpt lat="36.9264658105061" lon="15.161350611111592"><ele>21.0</ele><time>2026-04-18T17:39:09.999Z</time></trkpt><trkpt lat="36.92636309194596" lon="15.161210232075303"><ele>21.0</ele><time>2026-04-18T17:39:10.999Z</time></trkpt><trkpt lat="36.9262583366245" lon="15.161034936039595"><ele>21.0</ele><time>2026-04-18T17:39:11.999Z</time></trkpt><trkpt lat="36.92614861547006" lon="15.160844794423001"><ele>21.333333333333332</ele><time>2026-04-18T17:39:12.999Z</time></trkpt><trkpt lat="36.92603953332423" lon="15.16064961169263"><ele>21.666666666666664</ele><time>2026-04-18T17:39:13.999Z</time></trkpt><trkpt lat="36.92593746431657" lon="15.160475723192338"><ele>22.0</ele><time>2026-04-18T17:39:14.999Z</time></trkpt><trkpt lat="36.92585615755698" lon="15.160295652650085"><ele>22.0</ele><time>2026-04-18T17:39:15.999Z</time></trkpt><trkpt lat="36.92577279649841" lon="15.160131913064625"><ele>22.0</ele><time>2026-04-18T17:39:16.999Z</time></trkpt><trkpt lat="36.925690821142915" lon="15.15996877087889"><ele>22.0</ele><time>2026-04-18T17:39:17.999Z</time></trkpt><trkpt lat="36.92561638286284" lon="15.159803816031179"><ele>22.75</ele><time>2026-04-18T17:39:18.999Z</time></trkpt><trkpt lat="36.925549683158394" lon="15.15965453647873"><ele>23.5</ele><time>2026-04-18T17:39:19.999Z</time></trkpt><trkpt lat="36.925478660132036" lon="15.159514877219886"><ele>24.25</ele><time>2026-04-18T17:39:20.999Z</time></trkpt><trkpt lat="36.92541531548491" lon="15.159384831955787"><ele>25.0</ele><time>2026-04-18T17:39:21.999Z</time></trkpt><trkpt lat="36.92536676615262" lon="15.159277057489073"><ele>25.0</ele><time>2026-04-18T17:39:22.999Z</time></trkpt><trkpt lat="36.92533869413747" lon="15.159193209131496"><ele>25.0</ele><time>2026-04-18T17:39:23.999Z</time></trkpt><trkpt lat="36.92533756177307" lon="15.159054353628036"><ele>25.0</ele><time>2026-04-18T17:39:25.999Z</time></trkpt><trkpt lat="36.92532999566687" lon="15.158937639851796"><ele>25.0</ele><time>2026-04-18T17:39:27.999Z</time></trkpt><trkpt lat="36.92524287306151" lon="15.158863179664772"><ele>25.0</ele><time>2026-04-18T17:39:29.999Z</time></trkpt><trkpt lat="36.925166909643885" lon="15.158818535285356"><ele>24.8</ele><time>2026-04-18T17:39:30.999Z</time></trkpt><trkpt lat="36.9250986352728" lon="15.158745493010082"><ele>24.6</ele><time>2026-04-18T17:39:31.999Z</time></trkpt><trkpt lat="36.92504792818578" lon="15.158649384299578"><ele>24.4</ele><time>2026-04-18T17:39:32.999Z</time></trkpt><trkpt lat="36.92500384569994" lon="15.158538148138485"><ele>24.2</ele><time>2026-04-18T17:39:33.999Z</time></trkpt><trkpt lat="36.924952995320304" lon="15.158422762515354"><ele>24.0</ele><time>2026-04-18T17:39:34.999Z</time></trkpt><trkpt lat="36.92490325344574" lon="15.158326541527806"><ele>23.6</ele><time>2026-04-18T17:39:35.999Z</time></trkpt><trkpt lat="36.92485363947043" lon="15.158227740655605"><ele>23.2</ele><time>2026-04-18T17:39:36.999Z</time></trkpt><trkpt lat="36.9248059870428" lon="15.158133713257136"><ele>22.8</ele><time>2026-04-18T17:39:37.999Z</time></trkpt><trkpt lat="36.92475984353659" lon="15.158038005774658"><ele>22.400000000000002</ele><time>2026-04-18T17:39:38.999Z</time></trkpt><trkpt lat="36.92470870535849" lon="15.157940213122219"><ele>22.0</ele><time>2026-04-18T17:39:39.999Z</time></trkpt><trkpt lat="36.924659566478674" lon="15.157838805575063"><ele>22.0</ele><time>2026-04-18T17:39:40.999Z</time></trkpt><trkpt lat="36.92461902509473" lon="15.15774078213647"><ele>22.0</ele><time>2026-04-18T17:39:41.999Z</time></trkpt><trkpt lat="36.924574981874926" lon="15.157646263973644"><ele>22.0</ele><time>2026-04-18T17:39:42.999Z</time></trkpt><trkpt lat="36.924520966471036" lon="15.157556133540357"><ele>22.0</ele><time>2026-04-18T17:39:43.999Z</time></trkpt><trkpt lat="36.924462507600744" lon="15.157464983439924"><ele>22.0</ele><time>2026-04-18T17:39:44.999Z</time></trkpt><trkpt lat="36.924401696921585" lon="15.157367739988976"><ele>22.0</ele><time>2026-04-18T17:39:45.999Z</time></trkpt><trkpt lat="36.92434502131961" lon="15.157268698251421"><ele>22.0</ele><time>2026-04-18T17:39:46.999Z</time></trkpt><trkpt lat="36.92429492641835" lon="15.157181036502072"><ele>22.0</ele><time>2026-04-18T17:39:47.998Z</time></trkpt><trkpt lat="36.924244991233444" lon="15.157097598716982"><ele>22.0</ele><time>2026-04-18T17:39:48.998Z</time></trkpt><trkpt lat="36.924193829391626" lon="15.157012006402578"><ele>22.0</ele><time>2026-04-18T17:39:49.998Z</time></trkpt><trkpt lat="36.92413893368958" lon="15.156921256804367"><ele>22.0</ele><time>2026-04-18T17:39:50.998Z</time></trkpt><trkpt lat="36.924079790784134" lon="15.156834165832406"><ele>22.0</ele><time>2026-04-18T17:39:51.998Z</time></trkpt><trkpt lat="36.9239975989783" lon="15.156727403847519"><ele>22.0</ele><time>2026-04-18T17:39:52.998Z</time></trkpt><trkpt lat="36.92391074223568" lon="15.156588771103262"><ele>22.0</ele><time>2026-04-18T17:39:53.998Z</time></trkpt><trkpt lat="36.923814031348805" lon="15.156412926327686"><ele>22.0</ele><time>2026-04-18T17:39:54.998Z</time></trkpt><trkpt lat="36.92373929382039" lon="15.156258127576141"><ele>22.0</ele><time>2026-04-18T17:39:55.998Z</time></trkpt><trkpt lat="36.92367113131324" lon="15.156130380137842"><ele>22.0</ele><time>2026-04-18T17:39:56.998Z</time></trkpt><trkpt lat="36.92360481727265" lon="15.156013995689719"><ele>22.0</ele><time>2026-04-18T17:39:58Z</time></trkpt><trkpt lat="36.92354943930561" lon="15.155913223842829"><ele>22.0</ele><time>2026-04-18T17:39:59Z</time></trkpt><trkpt lat="36.92349939509312" lon="15.155828868685024"><ele>22.0</ele><time>2026-04-18T17:40:00Z</time></trkpt><trkpt lat="36.92345014707956" lon="15.155754890602307"><ele>22.166666666666664</ele><time>2026-04-18T17:40:01Z</time></trkpt><trkpt lat="36.9234051767431" lon="15.155688838589503"><ele>22.333333333333332</ele><time>2026-04-18T17:40:02Z</time></trkpt><trkpt lat="36.92333446967135" lon="15.155583065004906"><ele>22.5</ele><time>2026-04-18T17:40:04Z</time></trkpt><trkpt lat="36.92328810233934" lon="15.155490807054159"><ele>22.666666666666668</ele><time>2026-04-18T17:40:06Z</time></trkpt><trkpt lat="36.92321701114851" lon="15.155472038633452"><ele>22.833333333333336</ele><time>2026-04-18T17:40:08Z</time></trkpt><trkpt lat="36.92316238140569" lon="15.155528937317811"><ele>23.0</ele><time>2026-04-18T17:40:10Z</time></trkpt><trkpt lat="36.92309831409777" lon="15.15563378479342"><ele>22.5</ele><time>2026-04-18T17:40:12Z</time></trkpt><trkpt lat="36.92305295018554" lon="15.155709274975559"><ele>22.0</ele><time>2026-04-18T17:40:13Z</time></trkpt><trkpt lat="36.923001968083064" lon="15.155782644615474"><ele>21.5</ele><time>2026-04-18T17:40:14Z</time></trkpt><trkpt lat="36.9229317583835" lon="15.155856834407118"><ele>21.0</ele><time>2026-04-18T17:40:15Z</time></trkpt><trkpt lat="36.92284507701773" lon="15.155929898567578"><ele>20.5</ele><time>2026-04-18T17:40:16Z</time></trkpt><trkpt lat="36.92277109962209" lon="15.15599132437894"><ele>20.0</ele><time>2026-04-18T17:40:17Z</time></trkpt><trkpt lat="36.92270031589746" lon="15.15604821845873"><ele>20.0</ele><time>2026-04-18T17:40:18Z</time></trkpt><trkpt lat="36.92263284332432" lon="15.156109641917796"><ele>20.0</ele><time>2026-04-18T17:40:19Z</time></trkpt><trkpt lat="36.9225645837965" lon="15.156164782492912"><ele>20.0</ele><time>2026-04-18T17:40:20Z</time></trkpt><trkpt lat="36.92249562758371" lon="15.1562238383032"><ele>20.0</ele><time>2026-04-18T17:40:21Z</time></trkpt><trkpt lat="36.922433511598975" lon="15.156273950146321"><ele>20.0</ele><time>2026-04-18T17:40:22Z</time></trkpt><trkpt lat="36.92237616617463" lon="15.156325270224276"><ele>20.0</ele><time>2026-04-18T17:40:23Z</time></trkpt><trkpt lat="36.92232286571758" lon="15.156378804678457"><ele>19.833333333333336</ele><time>2026-04-18T17:40:24Z</time></trkpt><trkpt lat="36.922270461825526" lon="15.156429726487358"><ele>19.666666666666668</ele><time>2026-04-18T17:40:25Z</time></trkpt><trkpt lat="36.9222189466705" lon="15.156479823040847"><ele>19.5</ele><time>2026-04-18T17:40:26Z</time></trkpt><trkpt lat="36.922129663034475" lon="15.156562265467533"><ele>19.333333333333332</ele><time>2026-04-18T17:40:28Z</time></trkpt><trkpt lat="36.92207090615081" lon="15.156618138348426"><ele>19.166666666666664</ele><time>2026-04-18T17:40:30Z</time></trkpt><trkpt lat="36.922001320135195" lon="15.15667715175387"><ele>19.0</ele><time>2026-04-18T17:40:32Z</time></trkpt><trkpt lat="36.92193156144055" lon="15.156738097404155"><ele>19.0</ele><time>2026-04-18T17:40:34Z</time></trkpt><trkpt lat="36.92184784588864" lon="15.156819991202271"><ele>19.0</ele><time>2026-04-18T17:40:36Z</time></trkpt><trkpt lat="36.921785616601845" lon="15.156877460627683"><ele>19.0</ele><time>2026-04-18T17:40:37Z</time></trkpt><trkpt lat="36.92173237089027" lon="15.15693335670704"><ele>19.0</ele><time>2026-04-18T17:40:38Z</time></trkpt><trkpt lat="36.921665487867635" lon="15.156982348590008"><ele>19.0</ele><time>2026-04-18T17:40:39Z</time></trkpt><trkpt lat="36.921597972502376" lon="15.15703984211514"><ele>19.0</ele><time>2026-04-18T17:40:40Z</time></trkpt><trkpt lat="36.92153381623781" lon="15.15711886539918"><ele>18.4</ele><time>2026-04-18T17:40:41Z</time></trkpt><trkpt lat="36.92143459748219" lon="15.157145216409841"><ele>17.799999999999997</ele><time>2026-04-18T17:40:42Z</time></trkpt><trkpt lat="36.92132985786919" lon="15.157195133139025"><ele>17.200000000000003</ele><time>2026-04-18T17:40:43Z</time></trkpt><trkpt lat="36.92122545059061" lon="15.15723812925892"><ele>16.6</ele><time>2026-04-18T17:40:44Z</time></trkpt><trkpt lat="36.92111070391556" lon="15.157278883151928"><ele>16.0</ele><time>2026-04-18T17:40:45Z</time></trkpt><trkpt lat="36.920971176382736" lon="15.157314525462079"><ele>15.5</ele><time>2026-04-18T17:40:45.999Z</time></trkpt><trkpt lat="36.92082454021587" lon="15.157357872091895"><ele>15.0</ele><time>2026-04-18T17:40:46.999Z</time></trkpt><trkpt lat="36.92069224247741" lon="15.157363619408954"><ele>14.5</ele><time>2026-04-18T17:40:47.999Z</time></trkpt><trkpt lat="36.92057399680454" lon="15.157357962071272"><ele>14.0</ele><time>2026-04-18T17:40:48.999Z</time></trkpt><trkpt lat="36.920461063522275" lon="15.15735148273613"><ele>14.0</ele><time>2026-04-18T17:40:49.999Z</time></trkpt><trkpt lat="36.92035638094842" lon="15.157334578109435"><ele>13.999999999999998</ele><time>2026-04-18T17:40:50.999Z</time></trkpt><trkpt lat="36.920259739891435" lon="15.157309196552376"><ele>13.999999999999998</ele><time>2026-04-18T17:40:51.999Z</time></trkpt><trkpt lat="36.92016491474461" lon="15.157281980873796"><ele>14.0</ele><time>2026-04-18T17:40:52.999Z</time></trkpt><trkpt lat="36.92007458023282" lon="15.15725049662654"><ele>14.0</ele><time>2026-04-18T17:40:53.999Z</time></trkpt><trkpt lat="36.919982918396755" lon="15.157210574230891"><ele>13.0</ele><time>2026-04-18T17:40:54.999Z</time></trkpt><trkpt lat="36.91989070536821" lon="15.157166199373961"><ele>12.0</ele><time>2026-04-18T17:40:55.999Z</time></trkpt><trkpt lat="36.91979128783238" lon="15.157112961085359"><ele>11.0</ele><time>2026-04-18T17:40:56.999Z</time></trkpt><trkpt lat="36.91967362305256" lon="15.157049928460742"><ele>10.0</ele><time>2026-04-18T17:40:57.999Z</time></trkpt><trkpt lat="36.91955446472763" lon="15.156947984193188"><ele>10.0</ele><time>2026-04-18T17:40:58.999Z</time></trkpt><trkpt lat="36.91943509444152" lon="15.156853816660888"><ele>10.0</ele><time>2026-04-18T17:40:59.999Z</time></trkpt><trkpt lat="36.919305795356756" lon="15.15675788344169"><ele>10.0</ele><time>2026-04-18T17:41:00.999Z</time></trkpt><trkpt lat="36.919167244125475" lon="15.156666264004619"><ele>10.0</ele><time>2026-04-18T17:41:01.999Z</time></trkpt><trkpt lat="36.91903469436697" lon="15.156564058582573"><ele>10.0</ele><time>2026-04-18T17:41:02.999Z</time></trkpt><trkpt lat="36.918890508274735" lon="15.156455808958745"><ele>10.0</ele><time>2026-04-18T17:41:03.999Z</time></trkpt><trkpt lat="36.91872073219852" lon="15.156333521926259"><ele>10.0</ele><time>2026-04-18T17:41:04.999Z</time></trkpt><trkpt lat="36.918533846009645" lon="15.156203195290797"><ele>9.333333333333334</ele><time>2026-04-18T17:41:05.999Z</time></trkpt><trkpt lat="36.91835148703226" lon="15.15606999463302"><ele>8.666666666666666</ele><time>2026-04-18T17:41:06.999Z</time></trkpt><trkpt lat="36.91817612785337" lon="15.155943594316911"><ele>8.0</ele><time>2026-04-18T17:41:07.999Z</time></trkpt><trkpt lat="36.91799970962362" lon="15.15581952079265"><ele>8.0</ele><time>2026-04-18T17:41:08.999Z</time></trkpt><trkpt lat="36.917823013050764" lon="15.155698673317643"><ele>8.0</ele><time>2026-04-18T17:41:09.999Z</time></trkpt><trkpt lat="36.91765213929841" lon="15.15557781651867"><ele>8.0</ele><time>2026-04-18T17:41:10.999Z</time></trkpt><trkpt lat="36.91748656345202" lon="15.155457229302518"><ele>8.0</ele><time>2026-04-18T17:41:11.999Z</time></trkpt><trkpt lat="36.91733943692259" lon="15.155344756356978"><ele>8.0</ele><time>2026-04-18T17:41:12.999Z</time></trkpt><trkpt lat="36.91719843021427" lon="15.155238563332942"><ele>8.0</ele><time>2026-04-18T17:41:13.999Z</time></trkpt><trkpt lat="36.91706993407296" lon="15.155136985211177"><ele>8.0</ele><time>2026-04-18T17:41:14.999Z</time></trkpt><trkpt lat="36.91694863744483" lon="15.155030382302943"><ele>8.0</ele><time>2026-04-18T17:41:15.999Z</time></trkpt><trkpt lat="36.91683157414242" lon="15.154918126736696"><ele>8.0</ele><time>2026-04-18T17:41:16.999Z</time></trkpt><trkpt lat="36.916730439939954" lon="15.1548226037476"><ele>8.0</ele><time>2026-04-18T17:41:17.999Z</time></trkpt><trkpt lat="36.91665363087227" lon="15.154751355301554"><ele>7.999999999999999</ele><time>2026-04-18T17:41:18.999Z</time></trkpt><trkpt lat="36.91659008739247" lon="15.154688636560191"><ele>8.0</ele><time>2026-04-18T17:41:19.999Z</time></trkpt><trkpt lat="36.91649128412056" lon="15.154591913711537"><ele>8.0</ele><time>2026-04-18T17:41:21.999Z</time></trkpt><trkpt lat="36.91643507267155" lon="15.154544448357218"><ele>8.0</ele><time>2026-04-18T17:41:22.999Z</time></trkpt><trkpt lat="36.9163701979347" lon="15.154489337057264"><ele>7.999999999999999</ele><time>2026-04-18T17:41:23.999Z</time></trkpt><trkpt lat="36.91630025160299" lon="15.154425181404024"><ele>8.0</ele><time>2026-04-18T17:41:24.999Z</time></trkpt><trkpt lat="36.91623413999406" lon="15.154360990642958"><ele>7.999999999999999</ele><time>2026-04-18T17:41:25.999Z</time></trkpt><trkpt lat="36.9161682674703" lon="15.154300805982398"><ele>8.0</ele><time>2026-04-18T17:41:26.999Z</time></trkpt><trkpt lat="36.91609998543722" lon="15.15424096957497"><ele>8.0</ele><time>2026-04-18T17:41:27.999Z</time></trkpt><trkpt lat="36.91603085636287" lon="15.15418544107582"><ele>8.0</ele><time>2026-04-18T17:41:28.999Z</time></trkpt><trkpt lat="36.91597205253501" lon="15.1541215327667"><ele>7.999999999999999</ele><time>2026-04-18T17:41:29.999Z</time></trkpt><trkpt lat="36.91590717819844" lon="15.154062843233767"><ele>8.0</ele><time>2026-04-18T17:41:30.999Z</time></trkpt><trkpt lat="36.91584754305296" lon="15.154007932701802"><ele>7.999999999999999</ele><time>2026-04-18T17:41:31.999Z</time></trkpt><trkpt lat="36.91578486832405" lon="15.153948900343254"><ele>8.0</ele><time>2026-04-18T17:41:32.999Z</time></trkpt><trkpt lat="36.91571427960363" lon="15.15388285275099"><ele>8.0</ele><time>2026-04-18T17:41:33.999Z</time></trkpt><trkpt lat="36.91564920278881" lon="15.153805329784511"><ele>8.0</ele><time>2026-04-18T17:41:34.999Z</time></trkpt><trkpt lat="36.91559277973484" lon="15.153716336890403"><ele>7.999999999999999</ele><time>2026-04-18T17:41:35.999Z</time></trkpt><trkpt lat="36.915537741774976" lon="15.153626176208974"><ele>8.0</ele><time>2026-04-18T17:41:36.999Z</time></trkpt><trkpt lat="36.915482376676025" lon="15.153541475342042"><ele>8.0</ele><time>2026-04-18T17:41:37.999Z</time></trkpt><trkpt lat="36.91542251112143" lon="15.153458680678789"><ele>8.0</ele><time>2026-04-18T17:41:38.999Z</time></trkpt><trkpt lat="36.91535630827828" lon="15.153381461346305"><ele>8.0</ele><time>2026-04-18T17:41:39.999Z</time></trkpt><trkpt lat="36.91528471557569" lon="15.153312294323419"><ele>8.0</ele><time>2026-04-18T17:41:40.999Z</time></trkpt><trkpt lat="36.915204613914355" lon="15.15325415186363"><ele>8.0</ele><time>2026-04-18T17:41:41.999Z</time></trkpt><trkpt lat="36.9151179577468" lon="15.153207030964241"><ele>8.200000000000001</ele><time>2026-04-18T17:41:42.999Z</time></trkpt><trkpt lat="36.91502618581231" lon="15.153163951653996"><ele>8.4</ele><time>2026-04-18T17:41:43.999Z</time></trkpt><trkpt lat="36.914931050064475" lon="15.15311974368939"><ele>8.600000000000001</ele><time>2026-04-18T17:41:44.999Z</time></trkpt><trkpt lat="36.914829442241775" lon="15.153072698795855"><ele>8.8</ele><time>2026-04-18T17:41:45.999Z</time></trkpt><trkpt lat="36.914719440411496" lon="15.152995384098517"><ele>9.0</ele><time>2026-04-18T17:41:46.999Z</time></trkpt><trkpt lat="36.91456606243771" lon="15.152910375748823"><ele>9.0</ele><time>2026-04-18T17:41:47.999Z</time></trkpt><trkpt lat="36.91438608327744" lon="15.152815430691195"><ele>9.0</ele><time>2026-04-18T17:41:48.999Z</time></trkpt><trkpt lat="36.914213446603746" lon="15.152724359083127"><ele>9.0</ele><time>2026-04-18T17:41:49.999Z</time></trkpt><trkpt lat="36.914057081189945" lon="15.15265984085666"><ele>9.25</ele><time>2026-04-18T17:41:50.999Z</time></trkpt><trkpt lat="36.91391794240647" lon="15.152569833347231"><ele>9.5</ele><time>2026-04-18T17:41:51.999Z</time></trkpt><trkpt lat="36.913813829483296" lon="15.152498008847521"><ele>9.75</ele><time>2026-04-18T17:41:52.999Z</time></trkpt><trkpt lat="36.913716779064465" lon="15.152421073841495"><ele>10.0</ele><time>2026-04-18T17:41:53.999Z</time></trkpt><trkpt lat="36.91364164729151" lon="15.152329549851002"><ele>10.333333333333334</ele><time>2026-04-18T17:41:54.998Z</time></trkpt><trkpt lat="36.913701911710966" lon="15.15224717093912"><ele>10.666666666666668</ele><time>2026-04-18T17:41:55.998Z</time></trkpt><trkpt lat="36.91371334430987" lon="15.15216854739541"><ele>11.0</ele><time>2026-04-18T17:41:56.998Z</time></trkpt><trkpt lat="36.913717246804126" lon="15.152081838182742"><ele>11.333333333333334</ele><time>2026-04-18T17:41:57.998Z</time></trkpt><trkpt lat="36.9136902406279" lon="15.152004316517495"><ele>11.666666666666666</ele><time>2026-04-18T17:41:58.998Z</time></trkpt><trkpt lat="36.91364597573475" lon="15.151881683671778"><ele>12.0</ele><time>2026-04-18T17:42:00.998Z</time></trkpt><trkpt lat="36.91359670529202" lon="15.15180342162676"><ele>12.0</ele><time>2026-04-18T17:42:02.998Z</time></trkpt><trkpt lat="36.913527924742795" lon="15.15172233805079"><ele>12.0</ele><time>2026-04-18T17:42:10Z</time></trkpt><trkpt lat="36.913450897343964" lon="15.151667273367371"><ele>12.0</ele><time>2026-04-18T17:42:12Z</time></trkpt><trkpt lat="36.913375311546595" lon="15.151648318430228"><ele>12.0</ele><time>2026-04-18T17:42:13Z</time></trkpt><trkpt lat="36.913299822390314" lon="15.151634516527958"><ele>12.0</ele><time>2026-04-18T17:42:14Z</time></trkpt><trkpt lat="36.913206396700566" lon="15.151646730412507"><ele>12.0</ele><time>2026-04-18T17:42:16Z</time></trkpt><trkpt lat="36.913126203978045" lon="15.151698023955879"><ele>11.714285714285714</ele><time>2026-04-18T17:42:22Z</time></trkpt><trkpt lat="36.913052289725144" lon="15.151740560975567"><ele>11.428571428571429</ele><time>2026-04-18T17:42:23Z</time></trkpt><trkpt lat="36.91299826004842" lon="15.151793990389063"><ele>11.142857142857142</ele><time>2026-04-18T17:42:24Z</time></trkpt><trkpt lat="36.9129593739883" lon="15.151856448714188"><ele>10.857142857142858</ele><time>2026-04-18T17:42:25Z</time></trkpt><trkpt lat="36.91292524544158" lon="15.151929652201396"><ele>10.571428571428571</ele><time>2026-04-18T17:42:26Z</time></trkpt><trkpt lat="36.91289232220108" lon="15.152010884092453"><ele>10.285714285714285</ele><time>2026-04-18T17:42:27Z</time></trkpt><trkpt lat="36.912849068796206" lon="15.152073339287496"><ele>10.0</ele><time>2026-04-18T17:42:28Z</time></trkpt><trkpt lat="36.91273308043186" lon="15.152104002427581"><ele>10.0</ele><time>2026-04-18T17:42:30Z</time></trkpt><trkpt lat="36.912662723214" lon="15.152081721201549"><ele>10.0</ele><time>2026-04-18T17:42:31Z</time></trkpt><trkpt lat="36.91260546378145" lon="15.152045364617319"><ele>10.0</ele><time>2026-04-18T17:42:32Z</time></trkpt><trkpt lat="36.912473649357636" lon="15.151975750919654"><ele>10.0</ele><time>2026-04-18T17:42:34Z</time></trkpt><trkpt lat="36.91239992027989" lon="15.151934368100239"><ele>10.0</ele><time>2026-04-18T17:42:35Z</time></trkpt><trkpt lat="36.912341033261754" lon="15.151901498134194"><ele>10.0</ele><time>2026-04-18T17:42:36Z</time></trkpt><trkpt lat="36.91224629406934" lon="15.151851439854198"><ele>9.666666666666668</ele><time>2026-04-18T17:42:38Z</time></trkpt><trkpt lat="36.91217422707065" lon="15.151815494052059"><ele>9.333333333333334</ele><time>2026-04-18T17:42:40Z</time></trkpt><trkpt lat="36.91211561728011" lon="15.151780755559045"><ele>9.0</ele><time>2026-04-18T17:42:42Z</time></trkpt><trkpt lat="36.91204569668511" lon="15.151736125686577"><ele>8.666666666666666</ele><time>2026-04-18T17:42:44Z</time></trkpt><trkpt lat="36.91196699822168" lon="15.151687449443743"><ele>8.333333333333332</ele><time>2026-04-18T17:42:46Z</time></trkpt><trkpt lat="36.91190114199424" lon="15.151661885713876"><ele>8.0</ele><time>2026-04-18T17:42:47Z</time></trkpt><trkpt lat="36.91183033564075" lon="15.151607847562238"><ele>7.800000000000001</ele><time>2026-04-18T17:42:48Z</time></trkpt><trkpt lat="36.91173906520031" lon="15.15157630654667"><ele>7.6000000000000005</ele><time>2026-04-18T17:42:49Z</time></trkpt><trkpt lat="36.911660141559516" lon="15.151522764326048"><ele>7.3999999999999995</ele><time>2026-04-18T17:42:50Z</time></trkpt><trkpt lat="36.91159432968321" lon="15.151480797639499"><ele>7.199999999999999</ele><time>2026-04-18T17:42:51Z</time></trkpt><trkpt lat="36.91151238590089" lon="15.15142579873392"><ele>7.0</ele><time>2026-04-18T17:42:53Z</time></trkpt><trkpt lat="36.91141155775273" lon="15.151358321667805"><ele>8.0</ele><time>2026-04-18T17:42:54.999Z</time></trkpt><trkpt lat="36.911347224576744" lon="15.151327704898593"><ele>9.0</ele><time>2026-04-18T17:42:55.999Z</time></trkpt><trkpt lat="36.91125028445385" lon="15.151293888307388"><ele>10.0</ele><time>2026-04-18T17:42:56.999Z</time></trkpt><trkpt lat="36.911147283710115" lon="15.151246202185666"><ele>11.0</ele><time>2026-04-18T17:42:57.999Z</time></trkpt><trkpt lat="36.911062872657666" lon="15.151208205055966"><ele>12.0</ele><time>2026-04-18T17:42:58.999Z</time></trkpt><trkpt lat="36.91098457010223" lon="15.151179911334172"><ele>12.0</ele><time>2026-04-18T17:42:59.999Z</time></trkpt><trkpt lat="36.91091361579742" lon="15.151157694599728"><ele>12.0</ele><time>2026-04-18T17:43:00.999Z</time></trkpt><trkpt lat="36.91084012741669" lon="15.151132810964882"><ele>12.0</ele><time>2026-04-18T17:43:01.999Z</time></trkpt><trkpt lat="36.91077018410085" lon="15.1511080975335"><ele>12.0</ele><time>2026-04-18T17:43:02.999Z</time></trkpt><trkpt lat="36.91069565958133" lon="15.151084398522771"><ele>12.0</ele><time>2026-04-18T17:43:03.999Z</time></trkpt><trkpt lat="36.91061987020823" lon="15.151059641240208"><ele>12.0</ele><time>2026-04-18T17:43:04.999Z</time></trkpt><trkpt lat="36.91054579694869" lon="15.151034797699436"><ele>11.857142857142856</ele><time>2026-04-18T17:43:05.999Z</time></trkpt><trkpt lat="36.910474955746295" lon="15.151010415347889"><ele>11.714285714285714</ele><time>2026-04-18T17:43:06.999Z</time></trkpt><trkpt lat="36.9104068676319" lon="15.15098643797435"><ele>11.571428571428571</ele><time>2026-04-18T17:43:07.999Z</time></trkpt><trkpt lat="36.91033710730861" lon="15.15096328716268"><ele>11.428571428571427</ele><time>2026-04-18T17:43:08.999Z</time></trkpt><trkpt lat="36.9102725312021" lon="15.150938606458096"><ele>11.285714285714285</ele><time>2026-04-18T17:43:09.999Z</time></trkpt><trkpt lat="36.91021114249238" lon="15.150914247292544"><ele>11.142857142857142</ele><time>2026-04-18T17:43:10.999Z</time></trkpt><trkpt lat="36.91015087277574" lon="15.150888977681001"><ele>11.0</ele><time>2026-04-18T17:43:11.999Z</time></trkpt><trkpt lat="36.91008746582532" lon="15.150860672987069"><ele>11.142857142857142</ele><time>2026-04-18T17:43:12.999Z</time></trkpt><trkpt lat="36.91002171182814" lon="15.150830630210239"><ele>11.285714285714285</ele><time>2026-04-18T17:43:13.999Z</time></trkpt><trkpt lat="36.909954222374" lon="15.150801365526227"><ele>11.428571428571427</ele><time>2026-04-18T17:43:14.999Z</time></trkpt><trkpt lat="36.90988796866956" lon="15.150769993104806"><ele>11.571428571428571</ele><time>2026-04-18T17:43:15.999Z</time></trkpt><trkpt lat="36.90982508436085" lon="15.150737276149844"><ele>11.714285714285714</ele><time>2026-04-18T17:43:16.999Z</time></trkpt><trkpt lat="36.90976359556053" lon="15.150701532278275"><ele>11.857142857142856</ele><time>2026-04-18T17:43:17.999Z</time></trkpt><trkpt lat="36.90970210480844" lon="15.150663412760096"><ele>12.0</ele><time>2026-04-18T17:43:18.999Z</time></trkpt><trkpt lat="36.90963999293833" lon="15.150628928946572"><ele>12.0</ele><time>2026-04-18T17:43:19.999Z</time></trkpt><trkpt lat="36.909581278991645" lon="15.150596323591687"><ele>12.0</ele><time>2026-04-18T17:43:20.999Z</time></trkpt><trkpt lat="36.90946842317089" lon="15.150534518057565"><ele>12.0</ele><time>2026-04-18T17:43:22.999Z</time></trkpt><trkpt lat="36.909403037952266" lon="15.150496684836348"><ele>12.0</ele><time>2026-04-18T17:43:23.999Z</time></trkpt><trkpt lat="36.90933277854008" lon="15.150457303676728"><ele>12.0</ele><time>2026-04-18T17:43:24.999Z</time></trkpt><trkpt lat="36.90926467994749" lon="15.150420474269753"><ele>12.0</ele><time>2026-04-18T17:43:25.999Z</time></trkpt><trkpt lat="36.90915791809459" lon="15.150361616080508"><ele>11.666666666666666</ele><time>2026-04-18T17:43:27.999Z</time></trkpt><trkpt lat="36.90905471448443" lon="15.150305346542869"><ele>11.333333333333334</ele><time>2026-04-18T17:43:29.999Z</time></trkpt><trkpt lat="36.908992793484494" lon="15.150272067476346"><ele>11.0</ele><time>2026-04-18T17:43:30.999Z</time></trkpt><trkpt lat="36.90892478155198" lon="15.150238859839217"><ele>10.666666666666668</ele><time>2026-04-18T17:43:31.999Z</time></trkpt><trkpt lat="36.90885667539912" lon="15.150204570370539"><ele>10.333333333333334</ele><time>2026-04-18T17:43:32.999Z</time></trkpt><trkpt lat="36.90878536469494" lon="15.15016934670006"><ele>10.0</ele><time>2026-04-18T17:43:33.999Z</time></trkpt><trkpt lat="36.90870399704876" lon="15.15013596237821"><ele>10.0</ele><time>2026-04-18T17:43:34.999Z</time></trkpt><trkpt lat="36.90859525337897" lon="15.150069358589043"><ele>10.0</ele><time>2026-04-18T17:43:35.999Z</time></trkpt><trkpt lat="36.90845860296987" lon="15.150011806942079"><ele>10.0</ele><time>2026-04-18T17:43:36.999Z</time></trkpt><trkpt lat="36.90831550828466" lon="15.149981947976807"><ele>10.0</ele><time>2026-04-18T17:43:37.999Z</time></trkpt><trkpt lat="36.90819579868318" lon="15.149938413919411"><ele>9.6</ele><time>2026-04-18T17:43:38.999Z</time></trkpt><trkpt lat="36.908087489224556" lon="15.149901539719703"><ele>9.2</ele><time>2026-04-18T17:43:39.999Z</time></trkpt><trkpt lat="36.90798477995869" lon="15.149867495736343"><ele>8.8</ele><time>2026-04-18T17:43:40.999Z</time></trkpt><trkpt lat="36.90788704497504" lon="15.149832666341615"><ele>8.4</ele><time>2026-04-18T17:43:41.999Z</time></trkpt><trkpt lat="36.90779435799077" lon="15.14979684500252"><ele>8.0</ele><time>2026-04-18T17:43:42.999Z</time></trkpt><trkpt lat="36.90771647928427" lon="15.149753046852267"><ele>8.666666666666666</ele><time>2026-04-18T17:43:43.999Z</time></trkpt><trkpt lat="36.907651641761504" lon="15.149707516104522"><ele>9.333333333333332</ele><time>2026-04-18T17:43:44.999Z</time></trkpt><trkpt lat="36.90759691376074" lon="15.149662054513513"><ele>10.0</ele><time>2026-04-18T17:43:45.999Z</time></trkpt><trkpt lat="36.90754792937449" lon="15.149609938612208"><ele>10.666666666666666</ele><time>2026-04-18T17:43:46.999Z</time></trkpt><trkpt lat="36.90749056336596" lon="15.149549058975449"><ele>11.333333333333334</ele><time>2026-04-18T17:43:47.999Z</time></trkpt><trkpt lat="36.90743250469379" lon="15.149442371045067"><ele>12.0</ele><time>2026-04-18T17:43:48.999Z</time></trkpt><trkpt lat="36.90735870174766" lon="15.14933785856822"><ele>12.0</ele><time>2026-04-18T17:43:49.999Z</time></trkpt><trkpt lat="36.90731124803669" lon="15.149224533406997"><ele>12.0</ele><time>2026-04-18T17:43:50.999Z</time></trkpt><trkpt lat="36.90726674563161" lon="15.1491296975486"><ele>12.0</ele><time>2026-04-18T17:43:51.999Z</time></trkpt><trkpt lat="36.90722216387942" lon="15.149048488851642"><ele>12.0</ele><time>2026-04-18T17:43:52.999Z</time></trkpt><trkpt lat="36.90716948846655" lon="15.148975882404585"><ele>12.0</ele><time>2026-04-18T17:43:53.999Z</time></trkpt><trkpt lat="36.90710021304188" lon="15.14888717381726"><ele>12.0</ele><time>2026-04-18T17:43:54.999Z</time></trkpt><trkpt lat="36.907045724569535" lon="15.148798459669019"><ele>12.333333333333334</ele><time>2026-04-18T17:43:55.999Z</time></trkpt><trkpt lat="36.906993669530394" lon="15.148707719237905"><ele>12.666666666666668</ele><time>2026-04-18T17:43:56.999Z</time></trkpt><trkpt lat="36.90694507329458" lon="15.148622755080572"><ele>13.0</ele><time>2026-04-18T17:43:57.999Z</time></trkpt><trkpt lat="36.90690275574902" lon="15.148546868976364"><ele>13.333333333333334</ele><time>2026-04-18T17:43:58.999Z</time></trkpt><trkpt lat="36.90685742066232" lon="15.148482869072984"><ele>13.666666666666668</ele><time>2026-04-18T17:43:59.999Z</time></trkpt><trkpt lat="36.90676582971137" lon="15.148384467871189"><ele>14.0</ele><time>2026-04-18T17:44:01.998Z</time></trkpt><trkpt lat="36.9066646363337" lon="15.148299525855561"><ele>14.0</ele><time>2026-04-18T17:44:03.998Z</time></trkpt><trkpt lat="36.90660679616015" lon="15.148263124918442"><ele>14.0</ele><time>2026-04-18T17:44:04.998Z</time></trkpt><trkpt lat="36.9065472962371" lon="15.148234081200233"><ele>14.0</ele><time>2026-04-18T17:44:05.998Z</time></trkpt><trkpt lat="36.90648785759153" lon="15.14820351831476"><ele>14.0</ele><time>2026-04-18T17:44:06.998Z</time></trkpt><trkpt lat="36.90642225277273" lon="15.148173130660537"><ele>14.0</ele><time>2026-04-18T17:44:07.998Z</time></trkpt><trkpt lat="36.906353134869676" lon="15.14814820820446"><ele>14.0</ele><time>2026-04-18T17:44:08.998Z</time></trkpt><trkpt lat="36.90628925391825" lon="15.148131650328219"><ele>14.0</ele><time>2026-04-18T17:44:10Z</time></trkpt><trkpt lat="36.9062258883664" lon="15.148120728103313"><ele>14.0</ele><time>2026-04-18T17:44:11Z</time></trkpt><trkpt lat="36.90615797590886" lon="15.148110744445482"><ele>13.999999999999998</ele><time>2026-04-18T17:44:12Z</time></trkpt><trkpt lat="36.906096002084816" lon="15.148096602538205"><ele>13.999999999999998</ele><time>2026-04-18T17:44:13Z</time></trkpt><trkpt lat="36.905987034070925" lon="15.148057872548284"><ele>14.0</ele><time>2026-04-18T17:44:15Z</time></trkpt><trkpt lat="36.90587849971943" lon="15.14801692469195"><ele>14.0</ele><time>2026-04-18T17:44:17Z</time></trkpt><trkpt lat="36.9057556388306" lon="15.147979530922955"><ele>14.000000000000002</ele><time>2026-04-18T17:44:19Z</time></trkpt><trkpt lat="36.90564175141583" lon="15.14794725172754"><ele>14.0</ele><time>2026-04-18T17:44:21Z</time></trkpt><trkpt lat="36.905560669186244" lon="15.14792043739993"><ele>14.0</ele><time>2026-04-18T17:44:23Z</time></trkpt><trkpt lat="36.905485173789955" lon="15.147896592464296"><ele>14.0</ele><time>2026-04-18T17:44:25Z</time></trkpt><trkpt lat="36.905416189361105" lon="15.147875828937998"><ele>14.000000000000002</ele><time>2026-04-18T17:44:27Z</time></trkpt><trkpt lat="36.90534455922522" lon="15.147858366749912"><ele>14.0</ele><time>2026-04-18T17:44:30Z</time></trkpt><trkpt lat="36.905228167315194" lon="15.147840538856986"><ele>14.0</ele><time>2026-04-18T17:44:32Z</time></trkpt><trkpt lat="36.905124905076214" lon="15.147824319100323"><ele>13.999999999999998</ele><time>2026-04-18T17:44:33Z</time></trkpt><trkpt lat="36.90499648830098" lon="15.147783145371726"><ele>13.999999999999998</ele><time>2026-04-18T17:44:34Z</time></trkpt><trkpt lat="36.90490236273037" lon="15.147744309575643"><ele>14.0</ele><time>2026-04-18T17:44:35Z</time></trkpt><trkpt lat="36.90481075614529" lon="15.14770663784996"><ele>14.0</ele><time>2026-04-18T17:44:36Z</time></trkpt><trkpt lat="36.904736334277764" lon="15.147678850901656"><ele>13.399999999999999</ele><time>2026-04-18T17:44:37Z</time></trkpt><trkpt lat="36.90464622633884" lon="15.147649790558127"><ele>12.799999999999999</ele><time>2026-04-18T17:44:39Z</time></trkpt><trkpt lat="36.904565760301324" lon="15.147626685462177"><ele>12.2</ele><time>2026-04-18T17:44:43Z</time></trkpt><trkpt lat="36.9044736773251" lon="15.147602789268513"><ele>11.600000000000001</ele><time>2026-04-18T17:44:45Z</time></trkpt><trkpt lat="36.90437886865263" lon="15.147571627671555"><ele>11.0</ele><time>2026-04-18T17:44:47Z</time></trkpt><trkpt lat="36.90425057415398" lon="15.147537945468809"><ele>10.8</ele><time>2026-04-18T17:44:49Z</time></trkpt><trkpt lat="36.90414971856653" lon="15.147494058299442"><ele>10.600000000000001</ele><time>2026-04-18T17:44:50Z</time></trkpt><trkpt lat="36.904051596356545" lon="15.147464770664843"><ele>10.4</ele><time>2026-04-18T17:44:51Z</time></trkpt><trkpt lat="36.903945544447026" lon="15.147451344847456"><ele>10.2</ele><time>2026-04-18T17:44:52Z</time></trkpt><trkpt lat="36.90383750889872" lon="15.14740643766907"><ele>10.0</ele><time>2026-04-18T17:44:53Z</time></trkpt><trkpt lat="36.903731130124626" lon="15.147359874720797"><ele>10.6</ele><time>2026-04-18T17:44:54Z</time></trkpt><trkpt lat="36.90363092138448" lon="15.147306697054805"><ele>11.2</ele><time>2026-04-18T17:44:55Z</time></trkpt><trkpt lat="36.903540709062646" lon="15.147239012234177"><ele>11.8</ele><time>2026-04-18T17:44:56Z</time></trkpt><trkpt lat="36.90346780560493" lon="15.147147724975126"><ele>12.4</ele><time>2026-04-18T17:44:57Z</time></trkpt><trkpt lat="36.9033968182825" lon="15.14706224155846"><ele>13.0</ele><time>2026-04-18T17:44:57.999Z</time></trkpt><trkpt lat="36.90333001654604" lon="15.146978545775655"><ele>12.999999999999998</ele><time>2026-04-18T17:44:58.999Z</time></trkpt><trkpt lat="36.90326919232413" lon="15.146896147150029"><ele>13.0</ele><time>2026-04-18T17:44:59.999Z</time></trkpt><trkpt lat="36.903215553878226" lon="15.146821433367915"><ele>13.0</ele><time>2026-04-18T17:45:00.999Z</time></trkpt><trkpt lat="36.903162565914364" lon="15.146754300319023"><ele>13.0</ele><time>2026-04-18T17:45:01.999Z</time></trkpt><trkpt lat="36.903106750140395" lon="15.146685383955157"><ele>12.999999999999998</ele><time>2026-04-18T17:45:02.999Z</time></trkpt><trkpt lat="36.903053829862294" lon="15.146618855967263"><ele>13.0</ele><time>2026-04-18T17:45:03.999Z</time></trkpt><trkpt lat="36.9030068679366" lon="15.146559971415224"><ele>13.4</ele><time>2026-04-18T17:45:04.999Z</time></trkpt><trkpt lat="36.902958341264096" lon="15.146498853217441"><ele>13.8</ele><time>2026-04-18T17:45:05.999Z</time></trkpt><trkpt lat="36.90290650008037" lon="15.14644043250827"><ele>14.2</ele><time>2026-04-18T17:45:06.999Z</time></trkpt><trkpt lat="36.90282422539998" lon="15.14634351387372"><ele>14.6</ele><time>2026-04-18T17:45:08.999Z</time></trkpt><trkpt lat="36.902751456395976" lon="15.14624722895094"><ele>15.0</ele><time>2026-04-18T17:45:10.999Z</time></trkpt><trkpt lat="36.902661121342476" lon="15.146147275397778"><ele>15.0</ele><time>2026-04-18T17:45:12.999Z</time></trkpt><trkpt lat="36.9025906975513" lon="15.146045288034623"><ele>15.0</ele><time>2026-04-18T17:45:14.999Z</time></trkpt><trkpt lat="36.902520632235046" lon="15.145953437091896"><ele>15.0</ele><time>2026-04-18T17:45:16.999Z</time></trkpt><trkpt lat="36.90247177474771" lon="15.145894002326704"><ele>15.0</ele><time>2026-04-18T17:45:17.999Z</time></trkpt><trkpt lat="36.90242117174369" lon="15.145834979352598"><ele>15.0</ele><time>2026-04-18T17:45:18.999Z</time></trkpt><trkpt lat="36.90235134579038" lon="15.145767153714717"><ele>15.0</ele><time>2026-04-18T17:45:19.999Z</time></trkpt><trkpt lat="36.90227135418729" lon="15.145634773646544"><ele>15.333333333333332</ele><time>2026-04-18T17:45:20.999Z</time></trkpt><trkpt lat="36.90215278990684" lon="15.145504088674203"><ele>15.666666666666666</ele><time>2026-04-18T17:45:21.999Z</time></trkpt><trkpt lat="36.90204035620372" lon="15.145344260197755"><ele>16.0</ele><time>2026-04-18T17:45:22.999Z</time></trkpt><trkpt lat="36.90193339514228" lon="15.145210618083393"><ele>16.0</ele><time>2026-04-18T17:45:23.999Z</time></trkpt><trkpt lat="36.90184524664105" lon="15.145097354919729"><ele>16.0</ele><time>2026-04-18T17:45:24.999Z</time></trkpt><trkpt lat="36.901770168717064" lon="15.14499782388931"><ele>16.0</ele><time>2026-04-18T17:45:25.999Z</time></trkpt><trkpt lat="36.90171001220417" lon="15.144920875065594"><ele>16.0</ele><time>2026-04-18T17:45:26.999Z</time></trkpt><trkpt lat="36.90165898986137" lon="15.144863509959663"><ele>16.0</ele><time>2026-04-18T17:45:27.999Z</time></trkpt><trkpt lat="36.90160089233833" lon="15.144779890952009"><ele>15.8</ele><time>2026-04-18T17:45:29.999Z</time></trkpt><trkpt lat="36.901543221576226" lon="15.14470542720412"><ele>15.600000000000001</ele><time>2026-04-18T17:45:31.999Z</time></trkpt><trkpt lat="36.901482983232704" lon="15.144622851202447"><ele>15.4</ele><time>2026-04-18T17:45:33.999Z</time></trkpt><trkpt lat="36.90140533432626" lon="15.14452183790421"><ele>15.2</ele><time>2026-04-18T17:45:35.999Z</time></trkpt><trkpt lat="36.90135931823114" lon="15.144462312768601"><ele>15.0</ele><time>2026-04-18T17:45:36.999Z</time></trkpt><trkpt lat="36.90127584763834" lon="15.144356629363063"><ele>15.0</ele><time>2026-04-18T17:45:38.999Z</time></trkpt><trkpt lat="36.901196848777374" lon="15.144253251991968"><ele>15.0</ele><time>2026-04-18T17:45:40.999Z</time></trkpt><trkpt lat="36.90110978997632" lon="15.144153220465487"><ele>15.0</ele><time>2026-04-18T17:45:42.999Z</time></trkpt><trkpt lat="36.901022351134465" lon="15.144051016222981"><ele>15.0</ele><time>2026-04-18T17:45:44.999Z</time></trkpt><trkpt lat="36.90093129419771" lon="15.143946323322334"><ele>15.0</ele><time>2026-04-18T17:45:46.999Z</time></trkpt><trkpt lat="36.90087850773917" lon="15.143900944698988"><ele>15.0</ele><time>2026-04-18T17:45:47.999Z</time></trkpt><trkpt lat="36.900819392486994" lon="15.143861855355437"><ele>15.0</ele><time>2026-04-18T17:45:48.999Z</time></trkpt><trkpt lat="36.90075980896473" lon="15.143828534527005"><ele>15.0</ele><time>2026-04-18T17:45:49.999Z</time></trkpt><trkpt lat="36.90066123466812" lon="15.143769169624028"><ele>15.0</ele><time>2026-04-18T17:45:51.999Z</time></trkpt><trkpt lat="36.90055894278408" lon="15.143713978739404"><ele>15.0</ele><time>2026-04-18T17:45:53.999Z</time></trkpt><trkpt lat="36.90045862471987" lon="15.143651097242484"><ele>15.0</ele><time>2026-04-18T17:45:55.999Z</time></trkpt><trkpt lat="36.900380105229125" lon="15.143592923962856"><ele>15.0</ele><time>2026-04-18T17:45:57.999Z</time></trkpt><trkpt lat="36.900326775804736" lon="15.143550106904112"><ele>15.0</ele><time>2026-04-18T17:45:59.999Z</time></trkpt><trkpt lat="36.900260037757505" lon="15.143498840758841"><ele>15.0</ele><time>2026-04-18T17:46:03.999Z</time></trkpt><trkpt lat="36.90026861431476" lon="15.143371652531446"><ele>15.0</ele><time>2026-04-18T17:46:06.998Z</time></trkpt><trkpt lat="36.900337220836754" lon="15.143264180471437"><ele>15.0</ele><time>2026-04-18T17:46:08.998Z</time></trkpt><trkpt lat="36.900368902855405" lon="15.143195955957216"><ele>15.0</ele><time>2026-04-18T17:46:09.998Z</time></trkpt><trkpt lat="36.9004035264641" lon="15.143126003981864"><ele>15.0</ele><time>2026-04-18T17:46:10.998Z</time></trkpt><trkpt lat="36.9004606445438" lon="15.142987296052326"><ele>15.0</ele><time>2026-04-18T17:46:12.998Z</time></trkpt><trkpt lat="36.90050051885954" lon="15.142870711132073"><ele>15.0</ele><time>2026-04-18T17:46:13.998Z</time></trkpt><trkpt lat="36.900575490430114" lon="15.142755178392873"><ele>15.0</ele><time>2026-04-18T17:46:14.998Z</time></trkpt><trkpt lat="36.90062627854033" lon="15.14263560303812"><ele>15.0</ele><time>2026-04-18T17:46:16Z</time></trkpt><trkpt lat="36.90069421363066" lon="15.142525389867679"><ele>15.0</ele><time>2026-04-18T17:46:17Z</time></trkpt><trkpt lat="36.90075182773539" lon="15.14242394854312"><ele>15.0</ele><time>2026-04-18T17:46:18Z</time></trkpt><trkpt lat="36.900799602566785" lon="15.142333518063056"><ele>15.0</ele><time>2026-04-18T17:46:19Z</time></trkpt><trkpt lat="36.90083371954627" lon="15.142256506908543"><ele>15.0</ele><time>2026-04-18T17:46:20Z</time></trkpt><trkpt lat="36.90089424109573" lon="15.142129136731654"><ele>16.0</ele><time>2026-04-18T17:46:22Z</time></trkpt><trkpt lat="36.90095564842856" lon="15.142009592208527"><ele>17.0</ele><time>2026-04-18T17:46:24Z</time></trkpt><trkpt lat="36.901056775561486" lon="15.14192090176662"><ele>18.0</ele><time>2026-04-18T17:46:26Z</time></trkpt><trkpt lat="36.90120489407271" lon="15.141969802186146"><ele>19.0</ele><time>2026-04-18T17:46:28Z</time></trkpt><trkpt lat="36.90131074869153" lon="15.142021634998555"><ele>19.0</ele><time>2026-04-18T17:46:29Z</time></trkpt><trkpt lat="36.90143625656943" lon="15.142085904526844"><ele>19.0</ele><time>2026-04-18T17:46:30Z</time></trkpt><trkpt lat="36.90154600679038" lon="15.142140191880978"><ele>19.0</ele><time>2026-04-18T17:46:31Z</time></trkpt><trkpt lat="36.90165210761962" lon="15.14219339974648"><ele>19.0</ele><time>2026-04-18T17:46:32Z</time></trkpt><trkpt lat="36.90175846635341" lon="15.14224845387878"><ele>19.0</ele><time>2026-04-18T17:46:33Z</time></trkpt><trkpt lat="36.901863703978286" lon="15.142302606379129"><ele>19.0</ele><time>2026-04-18T17:46:34Z</time></trkpt><trkpt lat="36.90196419090752" lon="15.142353592633238"><ele>19.0</ele><time>2026-04-18T17:46:35Z</time></trkpt><trkpt lat="36.902057611012154" lon="15.142405580358004"><ele>19.0</ele><time>2026-04-18T17:46:36Z</time></trkpt><trkpt lat="36.902129515244546" lon="15.142446644305116"><ele>19.0</ele><time>2026-04-18T17:46:37Z</time></trkpt><trkpt lat="36.902195616439116" lon="15.142482270420127"><ele>19.0</ele><time>2026-04-18T17:46:38Z</time></trkpt><trkpt lat="36.90226046344655" lon="15.142519799889133"><ele>19.0</ele><time>2026-04-18T17:46:39Z</time></trkpt><trkpt lat="36.90231989125421" lon="15.142551338414219"><ele>19.0</ele><time>2026-04-18T17:46:40Z</time></trkpt><trkpt lat="36.902414250953946" lon="15.142614680501975"><ele>19.0</ele><time>2026-04-18T17:46:42Z</time></trkpt><trkpt lat="36.902477931111214" lon="15.14263502757576"><ele>19.0</ele><time>2026-04-18T17:46:44Z</time></trkpt><trkpt lat="36.90242050281572" lon="15.14272966604961"><ele>19.0</ele><time>2026-04-18T17:46:46Z</time></trkpt><trkpt lat="36.902388119599955" lon="15.142809502896549"><ele>19.0</ele><time>2026-04-18T17:46:47Z</time></trkpt><trkpt lat="36.902337711815385" lon="15.142895306304693"><ele>19.0</ele><time>2026-04-18T17:46:48Z</time></trkpt><trkpt lat="36.902275522685485" lon="15.14300839421138"><ele>19.0</ele><time>2026-04-18T17:46:49Z</time></trkpt><trkpt lat="36.90220397379825" lon="15.143129447784489"><ele>19.0</ele><time>2026-04-18T17:46:50Z</time></trkpt><trkpt lat="36.902127572311954" lon="15.143252948416594"><ele>19.0</ele><time>2026-04-18T17:46:51Z</time></trkpt><trkpt lat="36.90206254517919" lon="15.143369530098209"><ele>18.4</ele><time>2026-04-18T17:46:52Z</time></trkpt><trkpt lat="36.90199751426784" lon="15.143479820170274"><ele>17.799999999999997</ele><time>2026-04-18T17:46:53Z</time></trkpt><trkpt lat="36.90193593991777" lon="15.14358507433252"><ele>17.200000000000003</ele><time>2026-04-18T17:46:54Z</time></trkpt><trkpt lat="36.90186518463745" lon="15.1436714288691"><ele>16.6</ele><time>2026-04-18T17:46:55Z</time></trkpt><trkpt lat="36.90180896678356" lon="15.143764665547359"><ele>16.0</ele><time>2026-04-18T17:46:56Z</time></trkpt><trkpt lat="36.90176607954313" lon="15.143862415134139"><ele>16.0</ele><time>2026-04-18T17:46:57Z</time></trkpt><trkpt lat="36.90170645864955" lon="15.14394394121792"><ele>16.0</ele><time>2026-04-18T17:46:58Z</time></trkpt><trkpt lat="36.901642061622915" lon="15.144034526089923"><ele>16.0</ele><time>2026-04-18T17:46:59Z</time></trkpt><trkpt lat="36.901576424978806" lon="15.144126165559308"><ele>16.0</ele><time>2026-04-18T17:47:00Z</time></trkpt><trkpt lat="36.90151403713564" lon="15.144205279591374"><ele>16.0</ele><time>2026-04-18T17:47:01Z</time></trkpt><trkpt lat="36.90145586099756" lon="15.144275451567722"><ele>15.8</ele><time>2026-04-18T17:47:02Z</time></trkpt><trkpt lat="36.90140677094922" lon="15.14433144227066"><ele>15.600000000000001</ele><time>2026-04-18T17:47:03Z</time></trkpt><trkpt lat="36.90135030642971" lon="15.144389337790034"><ele>15.4</ele><time>2026-04-18T17:47:04.999Z</time></trkpt><trkpt lat="36.90120281062015" lon="15.144288089790972"><ele>15.2</ele><time>2026-04-18T17:47:08.999Z</time></trkpt><trkpt lat="36.90114745615243" lon="15.144208199904167"><ele>15.0</ele><time>2026-04-18T17:47:09.999Z</time></trkpt><trkpt lat="36.90109182729289" lon="15.144134161305534"><ele>15.0</ele><time>2026-04-18T17:47:10.999Z</time></trkpt><trkpt lat="36.901027191927355" lon="15.144051965937166"><ele>15.0</ele><time>2026-04-18T17:47:11.999Z</time></trkpt><trkpt lat="36.90095047582738" lon="15.143973855090499"><ele>15.0</ele><time>2026-04-18T17:47:12.999Z</time></trkpt><trkpt lat="36.900873671544936" lon="15.143904735995312"><ele>15.0</ele><time>2026-04-18T17:47:13.999Z</time></trkpt><trkpt lat="36.900798498085614" lon="15.143847064426726"><ele>15.0</ele><time>2026-04-18T17:47:14.999Z</time></trkpt><trkpt lat="36.90072028862967" lon="15.143808541262493"><ele>15.0</ele><time>2026-04-18T17:47:15.999Z</time></trkpt><trkpt lat="36.90065219724301" lon="15.14376802556902"><ele>15.0</ele><time>2026-04-18T17:47:16.999Z</time></trkpt><trkpt lat="36.900588378882915" lon="15.143731209239549"><ele>15.0</ele><time>2026-04-18T17:47:17.999Z</time></trkpt><trkpt lat="36.90053157652824" lon="15.143695150184236"><ele>15.0</ele><time>2026-04-18T17:47:18.999Z</time></trkpt><trkpt lat="36.90043202469626" lon="15.143635956606357"><ele>15.0</ele><time>2026-04-18T17:47:20.999Z</time></trkpt><trkpt lat="36.90034543940065" lon="15.143582777704752"><ele>15.0</ele><time>2026-04-18T17:47:22.999Z</time></trkpt><trkpt lat="36.900264894043424" lon="15.143540436522596"><ele>15.0</ele><time>2026-04-18T17:47:25.999Z</time></trkpt><trkpt lat="36.900326884459766" lon="15.143588424716647"><ele>15.0</ele><time>2026-04-18T17:47:36.999Z</time></trkpt><trkpt lat="36.900398589082485" lon="15.14363438045999"><ele>15.0</ele><time>2026-04-18T17:47:39.999Z</time></trkpt><trkpt lat="36.90051054560728" lon="15.143694289598175"><ele>15.0</ele><time>2026-04-18T17:49:19.999Z</time></trkpt><trkpt lat="36.90057383517411" lon="15.143726311053884"><ele>15.0</ele><time>2026-04-18T17:49:20.999Z</time></trkpt><trkpt lat="36.90067825298084" lon="15.143774929865476"><ele>15.0</ele><time>2026-04-18T17:49:22.999Z</time></trkpt><trkpt lat="36.90079292780719" lon="15.143832663391898"><ele>15.0</ele><time>2026-04-18T17:49:24.999Z</time></trkpt><trkpt lat="36.90086864462961" lon="15.143880171300804"><ele>15.0</ele><time>2026-04-18T17:49:25.999Z</time></trkpt><trkpt lat="36.90092819257166" lon="15.143915915866353"><ele>15.0</ele><time>2026-04-18T17:49:26.999Z</time></trkpt><trkpt lat="36.90099899997988" lon="15.1439750183802"><ele>15.0</ele><time>2026-04-18T17:49:27.999Z</time></trkpt><trkpt lat="36.901056292424784" lon="15.144054148670962"><ele>15.0</ele><time>2026-04-18T17:49:28.999Z</time></trkpt><trkpt lat="36.90109933097134" lon="15.144132014170593"><ele>15.0</ele><time>2026-04-18T17:49:29.999Z</time></trkpt><trkpt lat="36.901153650540536" lon="15.144203410323492"><ele>15.0</ele><time>2026-04-18T17:49:30.999Z</time></trkpt><trkpt lat="36.901199686390484" lon="15.14426207558447"><ele>15.0</ele><time>2026-04-18T17:49:31.999Z</time></trkpt><trkpt lat="36.90128460331602" lon="15.144370289085018"><ele>15.0</ele><time>2026-04-18T17:49:33.999Z</time></trkpt><trkpt lat="36.90133405366291" lon="15.144422885837194"><ele>15.0</ele><time>2026-04-18T17:49:34.999Z</time></trkpt><trkpt lat="36.90138369129604" lon="15.144481525411956"><ele>15.0</ele><time>2026-04-18T17:49:35.999Z</time></trkpt><trkpt lat="36.901454657588424" lon="15.144647992221252"><ele>15.0</ele><time>2026-04-18T17:49:36.999Z</time></trkpt><trkpt lat="36.90153958989767" lon="15.144735071615727"><ele>15.0</ele><time>2026-04-18T17:49:37.999Z</time></trkpt><trkpt lat="36.901612550522046" lon="15.144831699360934"><ele>15.0</ele><time>2026-04-18T17:49:38.999Z</time></trkpt><trkpt lat="36.90168610956398" lon="15.144925834873701"><ele>15.0</ele><time>2026-04-18T17:49:39.999Z</time></trkpt><trkpt lat="36.901744206521236" lon="15.145014096734794"><ele>15.0</ele><time>2026-04-18T17:49:40.999Z</time></trkpt><trkpt lat="36.90179873525637" lon="15.145092538876854"><ele>15.2</ele><time>2026-04-18T17:49:41.999Z</time></trkpt><trkpt lat="36.901853086566334" lon="15.145161281400698"><ele>15.4</ele><time>2026-04-18T17:49:42.999Z</time></trkpt><trkpt lat="36.90190271712685" lon="15.145227765113226"><ele>15.600000000000001</ele><time>2026-04-18T17:49:43.999Z</time></trkpt><trkpt lat="36.901958344791865" lon="15.14529344787287"><ele>15.8</ele><time>2026-04-18T17:49:44.999Z</time></trkpt><trkpt lat="36.90203889554443" lon="15.145381093258944"><ele>16.0</ele><time>2026-04-18T17:49:45.999Z</time></trkpt><trkpt lat="36.90214322522574" lon="15.145504510677481"><ele>16.0</ele><time>2026-04-18T17:49:46.999Z</time></trkpt><trkpt lat="36.902242105013926" lon="15.145651823376069"><ele>16.0</ele><time>2026-04-18T17:49:47.999Z</time></trkpt><trkpt lat="36.90235361184238" lon="15.14581042564674"><ele>16.0</ele><time>2026-04-18T17:49:48.999Z</time></trkpt><trkpt lat="36.902455595257095" lon="15.145942760251176"><ele>15.75</ele><time>2026-04-18T17:49:49.999Z</time></trkpt><trkpt lat="36.90254915230565" lon="15.146064696165354"><ele>15.5</ele><time>2026-04-18T17:49:50.999Z</time></trkpt><trkpt lat="36.90264894695603" lon="15.1461830263404"><ele>15.25</ele><time>2026-04-18T17:49:51.999Z</time></trkpt><trkpt lat="36.902748609169265" lon="15.146309650387966"><ele>15.0</ele><time>2026-04-18T17:49:52.999Z</time></trkpt><trkpt lat="36.90285659385998" lon="15.146448222045219"><ele>14.5</ele><time>2026-04-18T17:49:53.999Z</time></trkpt><trkpt lat="36.902950030508755" lon="15.146570482169535"><ele>14.0</ele><time>2026-04-18T17:49:54.999Z</time></trkpt><trkpt lat="36.903038593686716" lon="15.146681463884821"><ele>13.5</ele><time>2026-04-18T17:49:55.999Z</time></trkpt><trkpt lat="36.90312817037736" lon="15.146793123420618"><ele>13.0</ele><time>2026-04-18T17:49:56.999Z</time></trkpt><trkpt lat="36.90321232950067" lon="15.146904056939489"><ele>12.999999999999998</ele><time>2026-04-18T17:49:57.999Z</time></trkpt><trkpt lat="36.903289828799466" lon="15.147005892126334"><ele>13.0</ele><time>2026-04-18T17:49:58.999Z</time></trkpt><trkpt lat="36.90336057347349" lon="15.147091060541465"><ele>13.0</ele><time>2026-04-18T17:49:59.999Z</time></trkpt><trkpt lat="36.90341549534657" lon="15.147154447892362"><ele>13.0</ele><time>2026-04-18T17:50:00.999Z</time></trkpt><trkpt lat="36.90346685810748" lon="15.147214987863284"><ele>12.999999999999998</ele><time>2026-04-18T17:50:01.999Z</time></trkpt><trkpt lat="36.903529917540716" lon="15.147276645678536"><ele>13.0</ele><time>2026-04-18T17:50:03.999Z</time></trkpt><trkpt lat="36.90360554182676" lon="15.147343086129453"><ele>13.0</ele><time>2026-04-18T17:50:12.999Z</time></trkpt><trkpt lat="36.90368698208391" lon="15.147201318064244"><ele>13.0</ele><time>2026-04-18T17:50:13.999Z</time></trkpt><trkpt lat="36.90371269285569" lon="15.147107865778997"><ele>13.0</ele><time>2026-04-18T17:50:14.999Z</time></trkpt><trkpt lat="36.90375507730004" lon="15.146992953432994"><ele>13.0</ele><time>2026-04-18T17:50:15.999Z</time></trkpt><trkpt lat="36.90381513517925" lon="15.146893925184377"><ele>13.0</ele><time>2026-04-18T17:50:16.999Z</time></trkpt><trkpt lat="36.903860639504444" lon="15.146786941096602"><ele>13.0</ele><time>2026-04-18T17:50:17.999Z</time></trkpt><trkpt lat="36.90390471489431" lon="15.146653787166136"><ele>13.0</ele><time>2026-04-18T17:50:18.999Z</time></trkpt><trkpt lat="36.90396877975295" lon="15.146524984125175"><ele>13.0</ele><time>2026-04-18T17:50:19.999Z</time></trkpt><trkpt lat="36.904028346388266" lon="15.146396898193338"><ele>13.0</ele><time>2026-04-18T17:50:20.998Z</time></trkpt><trkpt lat="36.904088091757856" lon="15.146264437517411"><ele>13.25</ele><time>2026-04-18T17:50:21.998Z</time></trkpt><trkpt lat="36.904157545230774" lon="15.14610790168829"><ele>13.5</ele><time>2026-04-18T17:50:22.998Z</time></trkpt><trkpt lat="36.90422934496851" lon="15.145948806301776"><ele>13.75</ele><time>2026-04-18T17:50:23.998Z</time></trkpt><trkpt lat="36.90428966008139" lon="15.145802694936611"><ele>14.0</ele><time>2026-04-18T17:50:24.998Z</time></trkpt><trkpt lat="36.90433988879652" lon="15.1456752320944"><ele>14.2</ele><time>2026-04-18T17:50:25.998Z</time></trkpt><trkpt lat="36.90437491695504" lon="15.145580520554235"><ele>14.399999999999999</ele><time>2026-04-18T17:50:26.998Z</time></trkpt><trkpt lat="36.90442460898537" lon="15.145462361533792"><ele>14.6</ele><time>2026-04-18T17:50:29Z</time></trkpt><trkpt lat="36.904462373742035" lon="15.145372036251123"><ele>14.8</ele><time>2026-04-18T17:50:32Z</time></trkpt><trkpt lat="36.90448743282312" lon="15.145271608508985"><ele>15.0</ele><time>2026-04-18T17:50:35Z</time></trkpt><trkpt lat="36.904554425829296" lon="15.145137763698992"><ele>15.0</ele><time>2026-04-18T17:50:37Z</time></trkpt><trkpt lat="36.90458955852663" lon="15.145048037493003"><ele>15.0</ele><time>2026-04-18T17:50:38Z</time></trkpt><trkpt lat="36.904625764531495" lon="15.144919391372492"><ele>15.0</ele><time>2026-04-18T17:50:39Z</time></trkpt><trkpt lat="36.90468898677694" lon="15.144799750767595"><ele>15.0</ele><time>2026-04-18T17:50:40Z</time></trkpt><trkpt lat="36.90474697913677" lon="15.144680664158019"><ele>15.0</ele><time>2026-04-18T17:50:41Z</time></trkpt><trkpt lat="36.904795834309226" lon="15.144574887291805"><ele>15.333333333333334</ele><time>2026-04-18T17:50:42Z</time></trkpt><trkpt lat="36.90482714336761" lon="15.144494700521385"><ele>15.666666666666668</ele><time>2026-04-18T17:50:43Z</time></trkpt><trkpt lat="36.90488572110452" lon="15.144402268610316"><ele>16.0</ele><time>2026-04-18T17:50:45Z</time></trkpt><trkpt lat="36.904925666281706" lon="15.144322925450048"><ele>16.333333333333336</ele><time>2026-04-18T17:50:46Z</time></trkpt><trkpt lat="36.90495693874504" lon="15.144239289559135"><ele>16.666666666666668</ele><time>2026-04-18T17:50:47Z</time></trkpt><trkpt lat="36.9049891082664" lon="15.14414831935455"><ele>17.0</ele><time>2026-04-18T17:50:48Z</time></trkpt><trkpt lat="36.905005301890164" lon="15.144064341249031"><ele>17.4</ele><time>2026-04-18T17:50:49Z</time></trkpt><trkpt lat="36.905032890162445" lon="15.143967989928875"><ele>17.799999999999997</ele><time>2026-04-18T17:50:51Z</time></trkpt><trkpt lat="36.9050988268527" lon="15.143866212469138"><ele>18.2</ele><time>2026-04-18T17:51:07Z</time></trkpt><trkpt lat="36.9051574276232" lon="15.143770348689335"><ele>18.599999999999998</ele><time>2026-04-18T17:51:09Z</time></trkpt><trkpt lat="36.90521413694683" lon="15.143606778788811"><ele>19.0</ele><time>2026-04-18T17:51:11Z</time></trkpt><trkpt lat="36.90527281691721" lon="15.143465582312826"><ele>19.333333333333332</ele><time>2026-04-18T17:51:12Z</time></trkpt><trkpt lat="36.9053559210889" lon="15.143267290404449"><ele>19.666666666666668</ele><time>2026-04-18T17:51:13Z</time></trkpt><trkpt lat="36.905437348428215" lon="15.1430750962821"><ele>20.0</ele><time>2026-04-18T17:51:14Z</time></trkpt><trkpt lat="36.90552272952276" lon="15.142882443597937"><ele>20.666666666666668</ele><time>2026-04-18T17:51:15Z</time></trkpt><trkpt lat="36.90560768302702" lon="15.14269262941829"><ele>21.333333333333332</ele><time>2026-04-18T17:51:16Z</time></trkpt><trkpt lat="36.905696659761155" lon="15.142491825688133"><ele>22.0</ele><time>2026-04-18T17:51:16.999Z</time></trkpt><trkpt lat="36.90578645351028" lon="15.142271766677318"><ele>22.5</ele><time>2026-04-18T17:51:17.999Z</time></trkpt><trkpt lat="36.90589677657001" lon="15.142005835244143"><ele>23.0</ele><time>2026-04-18T17:51:18.999Z</time></trkpt><trkpt lat="36.906021433341756" lon="15.141718847587615"><ele>24.0</ele><time>2026-04-18T17:51:19.999Z</time></trkpt><trkpt lat="36.90613202424141" lon="15.141466317610888"><ele>25.0</ele><time>2026-04-18T17:51:20.999Z</time></trkpt><trkpt lat="36.90622582840625" lon="15.141247694513424"><ele>26.0</ele><time>2026-04-18T17:51:21.999Z</time></trkpt><trkpt lat="36.90630756969941" lon="15.141054717595425"><ele>26.0</ele><time>2026-04-18T17:51:22.999Z</time></trkpt><trkpt lat="36.90638386367169" lon="15.140898916737218"><ele>26.0</ele><time>2026-04-18T17:51:23.999Z</time></trkpt><trkpt lat="36.906465535338924" lon="15.140692731718783"><ele>26.0</ele><time>2026-04-18T17:51:24.999Z</time></trkpt><trkpt lat="36.90652312127454" lon="15.140557425298681"><ele>26.0</ele><time>2026-04-18T17:51:25.999Z</time></trkpt><trkpt lat="36.906562767088026" lon="15.140454699155764"><ele>26.0</ele><time>2026-04-18T17:51:26.999Z</time></trkpt><trkpt lat="36.906610294150404" lon="15.140367633366608"><ele>26.0</ele><time>2026-04-18T17:51:28.999Z</time></trkpt><trkpt lat="36.906457362177434" lon="15.14048113866653"><ele>26.0</ele><time>2026-04-18T17:51:32.999Z</time></trkpt><trkpt lat="36.90640970364528" lon="15.140570267821122"><ele>26.0</ele><time>2026-04-18T17:51:33.999Z</time></trkpt><trkpt lat="36.90635123348927" lon="15.140721504137666"><ele>26.0</ele><time>2026-04-18T17:51:34.999Z</time></trkpt><trkpt lat="36.90629943852758" lon="15.140857205458486"><ele>26.0</ele><time>2026-04-18T17:51:35.999Z</time></trkpt><trkpt lat="36.90624473614989" lon="15.140968705905808"><ele>26.0</ele><time>2026-04-18T17:51:36.999Z</time></trkpt><trkpt lat="36.90619940329313" lon="15.141069417731405"><ele>26.0</ele><time>2026-04-18T17:51:37.999Z</time></trkpt><trkpt lat="36.9061560977031" lon="15.141162707295651"><ele>26.0</ele><time>2026-04-18T17:51:38.999Z</time></trkpt><trkpt lat="36.90612295405367" lon="15.141236551246065"><ele>26.0</ele><time>2026-04-18T17:51:39.999Z</time></trkpt><trkpt lat="36.905975410386866" lon="15.141202511860367"><ele>26.0</ele><time>2026-04-18T17:51:43.999Z</time></trkpt><trkpt lat="36.90590589051299" lon="15.14112195298801"><ele>26.0</ele><time>2026-04-18T17:51:44.999Z</time></trkpt><trkpt lat="36.90582327228237" lon="15.141065178371752"><ele>26.0</ele><time>2026-04-18T17:51:45.999Z</time></trkpt><trkpt lat="36.90575765813051" lon="15.141021777969025"><ele>26.0</ele><time>2026-04-18T17:51:46.999Z</time></trkpt><trkpt lat="36.90566828210425" lon="15.140973061959084"><ele>25.8</ele><time>2026-04-18T17:51:48.999Z</time></trkpt><trkpt lat="36.90571096077733" lon="15.141200982278171"><ele>25.6</ele><time>2026-04-18T17:51:52.999Z</time></trkpt><trkpt lat="36.90578035758713" lon="15.141235860688615"><ele>25.4</ele><time>2026-04-18T17:51:53.999Z</time></trkpt><trkpt lat="36.90581984900499" lon="15.14134620410033"><ele>25.2</ele><time>2026-04-18T17:51:55.999Z</time></trkpt><trkpt lat="36.90580668322339" lon="15.141435254589487"><ele>25.0</ele><time>2026-04-18T17:51:56.999Z</time></trkpt><trkpt lat="36.9057834720795" lon="15.1415092934394"><ele>24.714285714285715</ele><time>2026-04-18T17:51:57.999Z</time></trkpt><trkpt lat="36.9057449234433" lon="15.141610825123983"><ele>24.42857142857143</ele><time>2026-04-18T17:51:59.999Z</time></trkpt><trkpt lat="36.90571551545938" lon="15.141693340414337"><ele>24.142857142857146</ele><time>2026-04-18T17:52:01.999Z</time></trkpt><trkpt lat="36.90567827724992" lon="15.141758920221799"><ele>23.857142857142858</ele><time>2026-04-18T17:52:03.999Z</time></trkpt><trkpt lat="36.905714001349544" lon="15.141823987159142"><ele>23.57142857142857</ele><time>2026-04-18T17:52:07.999Z</time></trkpt><trkpt lat="36.90571568138236" lon="15.141736874634926"><ele>23.28571428571429</ele><time>2026-04-18T17:52:11.999Z</time></trkpt><trkpt lat="36.90572812173041" lon="15.141657614736387"><ele>23.0</ele><time>2026-04-18T17:52:13.999Z</time></trkpt><trkpt lat="36.90574843994241" lon="15.141552834413723"><ele>23.333333333333336</ele><time>2026-04-18T17:56:52Z</time></trkpt><trkpt lat="36.905785252757795" lon="15.1414524505966"><ele>23.666666666666668</ele><time>2026-04-18T17:56:53Z</time></trkpt><trkpt lat="36.90579834564591" lon="15.141354275784424"><ele>24.0</ele><time>2026-04-18T17:56:54Z</time></trkpt><trkpt lat="36.90577554766067" lon="15.141225367428436"><ele>24.333333333333336</ele><time>2026-04-18T17:56:56Z</time></trkpt><trkpt lat="36.90571564512874" lon="15.14117527098881"><ele>24.666666666666668</ele><time>2026-04-18T17:56:57Z</time></trkpt><trkpt lat="36.905642741062195" lon="15.141127878316107"><ele>25.0</ele><time>2026-04-18T17:56:58Z</time></trkpt><trkpt lat="36.90561303461706" lon="15.141022423674295"><ele>25.0</ele><time>2026-04-18T17:57:00Z</time></trkpt><trkpt lat="36.905722134728755" lon="15.141047762160893"><ele>25.0</ele><time>2026-04-18T17:57:03Z</time></trkpt><trkpt lat="36.90581342560615" lon="15.141108697033944"><ele>25.0</ele><time>2026-04-18T17:57:04Z</time></trkpt><trkpt lat="36.90591513411274" lon="15.141178411924049"><ele>25.0</ele><time>2026-04-18T17:57:05Z</time></trkpt><trkpt lat="36.90598812483407" lon="15.141239117964929"><ele>25.0</ele><time>2026-04-18T17:57:06Z</time></trkpt><trkpt lat="36.906042708423634" lon="15.141283592031062"><ele>25.2</ele><time>2026-04-18T17:57:07Z</time></trkpt><trkpt lat="36.9060861406348" lon="15.141346054733921"><ele>25.4</ele><time>2026-04-18T17:57:10Z</time></trkpt><trkpt lat="36.906138668623065" lon="15.141428853961987"><ele>25.6</ele><time>2026-04-18T17:57:12Z</time></trkpt><trkpt lat="36.90622366034323" lon="15.141357622629354"><ele>25.8</ele><time>2026-04-18T17:57:14Z</time></trkpt><trkpt lat="36.90627147551331" lon="15.141247034694105"><ele>26.0</ele><time>2026-04-18T17:57:15Z</time></trkpt><trkpt lat="36.90632553925546" lon="15.141105116274211"><ele>26.0</ele><time>2026-04-18T17:57:16Z</time></trkpt><trkpt lat="36.90638405763087" lon="15.140955399864945"><ele>26.0</ele><time>2026-04-18T17:57:17Z</time></trkpt><trkpt lat="36.9064532911378" lon="15.140780189934762"><ele>26.0</ele><time>2026-04-18T17:57:18Z</time></trkpt><trkpt lat="36.9065264175845" lon="15.140590908793763"><ele>26.5</ele><time>2026-04-18T17:57:19Z</time></trkpt><trkpt lat="36.90659310120351" lon="15.14040860185032"><ele>27.0</ele><time>2026-04-18T17:57:20Z</time></trkpt><trkpt lat="36.90664934028132" lon="15.140237282745277"><ele>27.5</ele><time>2026-04-18T17:57:21Z</time></trkpt><trkpt lat="36.906726287112" lon="15.14009316518487"><ele>28.0</ele><time>2026-04-18T17:57:22Z</time></trkpt><trkpt lat="36.90676027147953" lon="15.139941933404401"><ele>29.2</ele><time>2026-04-18T17:57:23Z</time></trkpt><trkpt lat="36.906808918336246" lon="15.139813080488203"><ele>30.4</ele><time>2026-04-18T17:57:24Z</time></trkpt><trkpt lat="36.90685367314738" lon="15.139702449591564"><ele>31.599999999999998</ele><time>2026-04-18T17:57:25Z</time></trkpt><trkpt lat="36.9068956105102" lon="15.139591710466915"><ele>32.8</ele><time>2026-04-18T17:57:26Z</time></trkpt><trkpt lat="36.90692394483381" lon="15.139483793880759"><ele>34.0</ele><time>2026-04-18T17:57:27Z</time></trkpt><trkpt lat="36.906952053963" lon="15.1393643374909"><ele>34.0</ele><time>2026-04-18T17:57:28Z</time></trkpt><trkpt lat="36.90699860326744" lon="15.139266335426976"><ele>34.0</ele><time>2026-04-18T17:57:29Z</time></trkpt><trkpt lat="36.907036064786446" lon="15.139187727137788"><ele>34.0</ele><time>2026-04-18T17:57:30Z</time></trkpt><trkpt lat="36.90709697556547" lon="15.139068687192465"><ele>34.0</ele><time>2026-04-18T17:57:32Z</time></trkpt><trkpt lat="36.907128980066226" lon="15.138971182118748"><ele>34.0</ele><time>2026-04-18T17:57:34Z</time></trkpt><trkpt lat="36.90716967718012" lon="15.13887743102017"><ele>34.0</ele><time>2026-04-18T17:57:35.999Z</time></trkpt><trkpt lat="36.90722523198686" lon="15.138748027451454"><ele>34.16666666666667</ele><time>2026-04-18T17:57:37.999Z</time></trkpt><trkpt lat="36.90727192709267" lon="15.138644954214001"><ele>34.333333333333336</ele><time>2026-04-18T17:57:39.999Z</time></trkpt><trkpt lat="36.907325949508234" lon="15.138551873567813"><ele>34.5</ele><time>2026-04-18T17:57:41.999Z</time></trkpt><trkpt lat="36.907378084685675" lon="15.138463945149281"><ele>34.666666666666664</ele><time>2026-04-18T17:57:43.999Z</time></trkpt><trkpt lat="36.90740781558777" lon="15.13836511008959"><ele>34.83333333333333</ele><time>2026-04-18T17:57:45.999Z</time></trkpt><trkpt lat="36.907443721089805" lon="15.13826635190916"><ele>35.0</ele><time>2026-04-18T17:57:47.999Z</time></trkpt><trkpt lat="36.907478144398404" lon="15.138184885693796"><ele>35.166666666666664</ele><time>2026-04-18T17:57:49.999Z</time></trkpt><trkpt lat="36.90749497814915" lon="15.138102824143058"><ele>35.33333333333333</ele><time>2026-04-18T17:57:53.999Z</time></trkpt><trkpt lat="36.907584640024865" lon="15.138084706268833"><ele>35.5</ele><time>2026-04-18T17:57:56.999Z</time></trkpt><trkpt lat="36.90765650624301" lon="15.138120827577916"><ele>35.666666666666664</ele><time>2026-04-18T17:57:57.999Z</time></trkpt><trkpt lat="36.90774524895758" lon="15.138166681588453"><ele>35.833333333333336</ele><time>2026-04-18T17:57:58.999Z</time></trkpt><trkpt lat="36.9078484282792" lon="15.138196303051814"><ele>36.0</ele><time>2026-04-18T17:58:00.999Z</time></trkpt><trkpt lat="36.9079541641728" lon="15.13824081603077"><ele>36.166666666666664</ele><time>2026-04-18T17:58:02.999Z</time></trkpt><trkpt lat="36.90803714395271" lon="15.138272233976219"><ele>36.333333333333336</ele><time>2026-04-18T17:58:04.999Z</time></trkpt><trkpt lat="36.90814414832739" lon="15.138328365085645"><ele>36.5</ele><time>2026-04-18T17:58:06.999Z</time></trkpt><trkpt lat="36.90820600395078" lon="15.138368597568094"><ele>36.66666666666667</ele><time>2026-04-18T17:58:07.999Z</time></trkpt><trkpt lat="36.90827076116009" lon="15.138408580509521"><ele>36.833333333333336</ele><time>2026-04-18T17:58:08.999Z</time></trkpt><trkpt lat="36.90833300710461" lon="15.138452604395798"><ele>37.0</ele><time>2026-04-18T17:58:09.999Z</time></trkpt><trkpt lat="36.9084385098789" lon="15.138518729932356"><ele>37.0</ele><time>2026-04-18T17:58:11.999Z</time></trkpt><trkpt lat="36.90854123657332" lon="15.138571495940031"><ele>37.0</ele><time>2026-04-18T17:58:13.999Z</time></trkpt><trkpt lat="36.90862823910626" lon="15.138619310979422"><ele>37.0</ele><time>2026-04-18T17:58:15.999Z</time></trkpt><trkpt lat="36.90871116817057" lon="15.138662971430897"><ele>37.0</ele><time>2026-04-18T17:58:17.999Z</time></trkpt><trkpt lat="36.908783448196175" lon="15.138680760599376"><ele>37.0</ele><time>2026-04-18T17:58:19.999Z</time></trkpt><trkpt lat="36.90885227174297" lon="15.13870138587754"><ele>37.0</ele><time>2026-04-18T17:58:22.999Z</time></trkpt><trkpt lat="36.90893409751728" lon="15.138731548641005"><ele>37.0</ele><time>2026-04-18T17:58:24.999Z</time></trkpt><trkpt lat="36.90903474439853" lon="15.138768018782239"><ele>37.0</ele><time>2026-04-18T17:58:28.999Z</time></trkpt><trkpt lat="36.90912862030291" lon="15.138795713412355"><ele>37.0</ele><time>2026-04-18T17:58:30.999Z</time></trkpt><trkpt lat="36.90921153324475" lon="15.138823819896723"><ele>37.0</ele><time>2026-04-18T17:58:32.999Z</time></trkpt><trkpt lat="36.909314119101104" lon="15.138862789539582"><ele>37.0</ele><time>2026-04-18T17:58:34.999Z</time></trkpt><trkpt lat="36.909404287232604" lon="15.13888704504593"><ele>37.2</ele><time>2026-04-18T17:58:36.999Z</time></trkpt><trkpt lat="36.90949773463678" lon="15.138916271649821"><ele>37.400000000000006</ele><time>2026-04-18T17:58:38.999Z</time></trkpt><trkpt lat="36.90960134767253" lon="15.138948172942811"><ele>37.599999999999994</ele><time>2026-04-18T17:58:40.998Z</time></trkpt><trkpt lat="36.90968830860583" lon="15.138966909435638"><ele>37.8</ele><time>2026-04-18T17:58:42.998Z</time></trkpt><trkpt lat="36.90979443017444" lon="15.139006181359958"><ele>38.0</ele><time>2026-04-18T17:58:44.998Z</time></trkpt><trkpt lat="36.90989223224482" lon="15.139046220332744"><ele>37.6</ele><time>2026-04-18T17:58:46.998Z</time></trkpt><trkpt lat="36.90999225992335" lon="15.139087270206506"><ele>37.199999999999996</ele><time>2026-04-18T17:58:48.998Z</time></trkpt><trkpt lat="36.91009677960999" lon="15.139114465431664"><ele>36.8</ele><time>2026-04-18T17:58:50.998Z</time></trkpt><trkpt lat="36.91018278323741" lon="15.139145122094916"><ele>36.4</ele><time>2026-04-18T17:58:53Z</time></trkpt><trkpt lat="36.91024632995318" lon="15.139172306422196"><ele>36.0</ele><time>2026-04-18T17:58:55Z</time></trkpt><trkpt lat="36.91033424633907" lon="15.139201934153446"><ele>35.666666666666664</ele><time>2026-04-18T17:58:58Z</time></trkpt><trkpt lat="36.910394464248434" lon="15.139229635763945"><ele>35.333333333333336</ele><time>2026-04-18T17:59:00Z</time></trkpt><trkpt lat="36.91045624521747" lon="15.139333298658956"><ele>35.0</ele><time>2026-04-18T17:59:02Z</time></trkpt><trkpt lat="36.910480368315916" lon="15.13943260421338"><ele>34.66666666666667</ele><time>2026-04-18T17:59:03Z</time></trkpt><trkpt lat="36.91049871705745" lon="15.13951551572496"><ele>34.333333333333336</ele><time>2026-04-18T17:59:04Z</time></trkpt><trkpt lat="36.91051683909142" lon="15.139601428622328"><ele>34.0</ele><time>2026-04-18T17:59:05Z</time></trkpt><trkpt lat="36.910541312459046" lon="15.139715710450522"><ele>34.0</ele><time>2026-04-18T17:59:06Z</time></trkpt><trkpt lat="36.91056338608126" lon="15.139829503047519"><ele>34.0</ele><time>2026-04-18T17:59:07Z</time></trkpt><trkpt lat="36.91058884235533" lon="15.139922913261247"><ele>34.0</ele><time>2026-04-18T17:59:08Z</time></trkpt><trkpt lat="36.91062550231609" lon="15.14004898548591"><ele>34.0</ele><time>2026-04-18T17:59:10Z</time></trkpt><trkpt lat="36.91079658701068" lon="15.14004310075366"><ele>33.8</ele><time>2026-04-18T17:59:12Z</time></trkpt><trkpt lat="36.91089672071345" lon="15.140007371119752"><ele>33.599999999999994</ele><time>2026-04-18T17:59:13Z</time></trkpt><trkpt lat="36.91101598993919" lon="15.139960619971946"><ele>33.4</ele><time>2026-04-18T17:59:14Z</time></trkpt><trkpt lat="36.911098350190294" lon="15.139927471105166"><ele>33.199999999999996</ele><time>2026-04-18T17:59:15Z</time></trkpt><trkpt lat="36.911164648243044" lon="15.139919461613372"><ele>33.0</ele><time>2026-04-18T17:59:16Z</time></trkpt><trkpt lat="36.911263541316366" lon="15.13991571737739"><ele>33.5</ele><time>2026-04-18T17:59:18Z</time></trkpt><trkpt lat="36.91132189399949" lon="15.140011333304706"><ele>34.0</ele><time>2026-04-18T17:59:19Z</time></trkpt><trkpt lat="36.91143586430367" lon="15.14011694008865"><ele>34.5</ele><time>2026-04-18T17:59:21Z</time></trkpt><trkpt lat="36.91153762538516" lon="15.140183280166278"><ele>35.0</ele><time>2026-04-18T17:59:22Z</time></trkpt><trkpt lat="36.91162106393127" lon="15.140268595968028"><ele>35.0</ele><time>2026-04-18T17:59:23Z</time></trkpt><trkpt lat="36.91170778785829" lon="15.14035390165779"><ele>35.0</ele><time>2026-04-18T17:59:24Z</time></trkpt><trkpt lat="36.911795922825185" lon="15.140437660467434"><ele>35.0</ele><time>2026-04-18T17:59:25Z</time></trkpt><trkpt lat="36.911872336036176" lon="15.140490141561072"><ele>35.0</ele><time>2026-04-18T17:59:26Z</time></trkpt><trkpt lat="36.91192840230694" lon="15.140528088405109"><ele>35.0</ele><time>2026-04-18T17:59:27Z</time></trkpt><trkpt lat="36.91198299364069" lon="15.140572017448793"><ele>35.0</ele><time>2026-04-18T17:59:28Z</time></trkpt><trkpt lat="36.9120432266144" lon="15.1406239678283"><ele>35.2</ele><time>2026-04-18T17:59:30Z</time></trkpt><trkpt lat="36.912111606509455" lon="15.1406868358875"><ele>35.4</ele><time>2026-04-18T17:59:33Z</time></trkpt><trkpt lat="36.912188348560456" lon="15.140751128078632"><ele>35.6</ele><time>2026-04-18T17:59:34Z</time></trkpt><trkpt lat="36.912277986616964" lon="15.14082692149991"><ele>35.8</ele><time>2026-04-18T17:59:35Z</time></trkpt><trkpt lat="36.91237081252034" lon="15.140898024396423"><ele>36.0</ele><time>2026-04-18T17:59:36Z</time></trkpt><trkpt lat="36.91245527456452" lon="15.140970620766872"><ele>35.666666666666664</ele><time>2026-04-18T17:59:37Z</time></trkpt><trkpt lat="36.91253049478302" lon="15.141039848845493"><ele>35.333333333333336</ele><time>2026-04-18T17:59:38Z</time></trkpt><trkpt lat="36.912595327699606" lon="15.141095762406298"><ele>35.0</ele><time>2026-04-18T17:59:39Z</time></trkpt><trkpt lat="36.91265089922404" lon="15.141141509177016"><ele>34.66666666666667</ele><time>2026-04-18T17:59:40Z</time></trkpt><trkpt lat="36.912715535055604" lon="15.141194375756331"><ele>34.333333333333336</ele><time>2026-04-18T17:59:41.999Z</time></trkpt><trkpt lat="36.91276775953039" lon="15.141254994848067"><ele>34.0</ele><time>2026-04-18T17:59:46.999Z</time></trkpt><trkpt lat="36.912828109316685" lon="15.14128889328021"><ele>33.833333333333336</ele><time>2026-04-18T17:59:49.999Z</time></trkpt><trkpt lat="36.91291266396268" lon="15.141346006594258"><ele>33.66666666666667</ele><time>2026-04-18T17:59:52.999Z</time></trkpt><trkpt lat="36.91297691685251" lon="15.141402597856633"><ele>33.5</ele><time>2026-04-18T17:59:54.999Z</time></trkpt><trkpt lat="36.9130437074342" lon="15.14145838794986"><ele>33.333333333333336</ele><time>2026-04-18T17:59:56.999Z</time></trkpt><trkpt lat="36.91311752411359" lon="15.141517034187515"><ele>33.166666666666664</ele><time>2026-04-18T17:59:58.999Z</time></trkpt><trkpt lat="36.913183125987715" lon="15.141583496173999"><ele>33.0</ele><time>2026-04-18T18:00:00.999Z</time></trkpt><trkpt lat="36.91324656491834" lon="15.141640277236894"><ele>32.6</ele><time>2026-04-18T18:00:02.999Z</time></trkpt><trkpt lat="36.91331533814963" lon="15.14169985620197"><ele>32.199999999999996</ele><time>2026-04-18T18:00:04.999Z</time></trkpt><trkpt lat="36.9133906527475" lon="15.141765615731323"><ele>31.8</ele><time>2026-04-18T18:00:06.999Z</time></trkpt><trkpt lat="36.913496238690016" lon="15.141847023884944"><ele>31.4</ele><time>2026-04-18T18:00:08.999Z</time></trkpt><trkpt lat="36.91358193765512" lon="15.141918396320644"><ele>31.0</ele><time>2026-04-18T18:00:10.999Z</time></trkpt><trkpt lat="36.913657630658484" lon="15.14198353377242"><ele>31.000000000000004</ele><time>2026-04-18T18:00:12.999Z</time></trkpt><trkpt lat="36.913721643810355" lon="15.142036493287003"><ele>31.0</ele><time>2026-04-18T18:00:14.999Z</time></trkpt><trkpt lat="36.9137786616387" lon="15.142084348080965"><ele>31.0</ele><time>2026-04-18T18:00:16.999Z</time></trkpt><trkpt lat="36.91384245421244" lon="15.142134147010946"><ele>31.0</ele><time>2026-04-18T18:00:18.999Z</time></trkpt><trkpt lat="36.913905846377325" lon="15.142190347363412"><ele>31.000000000000004</ele><time>2026-04-18T18:00:20.999Z</time></trkpt><trkpt lat="36.913978856324434" lon="15.142250505891074"><ele>31.0</ele><time>2026-04-18T18:00:22.999Z</time></trkpt><trkpt lat="36.91408359017506" lon="15.142329750233849"><ele>30.8</ele><time>2026-04-18T18:00:24.999Z</time></trkpt><trkpt lat="36.91418461923869" lon="15.142407177245959"><ele>30.6</ele><time>2026-04-18T18:00:26.999Z</time></trkpt><trkpt lat="36.91423327658919" lon="15.142471669838876"><ele>30.4</ele><time>2026-04-18T18:00:27.999Z</time></trkpt><trkpt lat="36.91432055414724" lon="15.142544782910447"><ele>30.2</ele><time>2026-04-18T18:00:28.999Z</time></trkpt><trkpt lat="36.91441637986509" lon="15.142624651751467"><ele>30.0</ele><time>2026-04-18T18:00:29.999Z</time></trkpt><trkpt lat="36.91451622153446" lon="15.142707866876219"><ele>29.5</ele><time>2026-04-18T18:00:30.999Z</time></trkpt><trkpt lat="36.91462665990495" lon="15.142800995675348"><ele>29.0</ele><time>2026-04-18T18:00:31.999Z</time></trkpt><trkpt lat="36.91473425993562" lon="15.14289150913576"><ele>28.5</ele><time>2026-04-18T18:00:32.999Z</time></trkpt><trkpt lat="36.914837016223686" lon="15.142959364605375"><ele>28.0</ele><time>2026-04-18T18:00:33.999Z</time></trkpt><trkpt lat="36.91491983785998" lon="15.143032655931137"><ele>28.000000000000004</ele><time>2026-04-18T18:00:34.999Z</time></trkpt><trkpt lat="36.91499424797263" lon="15.143095235814204"><ele>28.0</ele><time>2026-04-18T18:00:35.999Z</time></trkpt><trkpt lat="36.915060421460325" lon="15.143147303250625"><ele>28.0</ele><time>2026-04-18T18:00:36.999Z</time></trkpt><trkpt lat="36.915127568960465" lon="15.143203539776588"><ele>28.0</ele><time>2026-04-18T18:00:37.999Z</time></trkpt><trkpt lat="36.9152079105689" lon="15.143273195112084"><ele>28.000000000000004</ele><time>2026-04-18T18:00:38.999Z</time></trkpt><trkpt lat="36.915290588654116" lon="15.14334071850901"><ele>28.0</ele><time>2026-04-18T18:00:39.999Z</time></trkpt><trkpt lat="36.91535032348072" lon="15.14339238892025"><ele>28.000000000000004</ele><time>2026-04-18T18:00:40.999Z</time></trkpt><trkpt lat="36.91540953189801" lon="15.143441696695108"><ele>28.0</ele><time>2026-04-18T18:00:41.999Z</time></trkpt><trkpt lat="36.91547679316987" lon="15.14350222108313"><ele>28.0</ele><time>2026-04-18T18:00:42.999Z</time></trkpt><trkpt lat="36.91553970059525" lon="15.143561552099843"><ele>28.0</ele><time>2026-04-18T18:00:43.999Z</time></trkpt><trkpt lat="36.9156010403808" lon="15.143617535814636"><ele>28.000000000000004</ele><time>2026-04-18T18:00:44.999Z</time></trkpt><trkpt lat="36.91566986624938" lon="15.143676275383063"><ele>28.0</ele><time>2026-04-18T18:00:45.998Z</time></trkpt><trkpt lat="36.91574026665881" lon="15.143730102356637"><ele>28.000000000000004</ele><time>2026-04-18T18:00:46.998Z</time></trkpt><trkpt lat="36.91580092312359" lon="15.143780787641681"><ele>28.0</ele><time>2026-04-18T18:00:47.998Z</time></trkpt><trkpt lat="36.91585722998782" lon="15.143824833083782"><ele>28.0</ele><time>2026-04-18T18:00:48.998Z</time></trkpt><trkpt lat="36.91592570673574" lon="15.14388607648053"><ele>28.0</ele><time>2026-04-18T18:00:50.998Z</time></trkpt><trkpt lat="36.91600317925443" lon="15.143952042387522"><ele>28.000000000000004</ele><time>2026-04-18T18:00:53.998Z</time></trkpt><trkpt lat="36.91608814060929" lon="15.144013548743128"><ele>28.0</ele><time>2026-04-18T18:00:55.998Z</time></trkpt><trkpt lat="36.91619604781879" lon="15.144123929600195"><ele>27.599999999999998</ele><time>2026-04-18T18:00:58Z</time></trkpt><trkpt lat="36.916280597991936" lon="15.144193454730425"><ele>27.199999999999996</ele><time>2026-04-18T18:00:59Z</time></trkpt><trkpt lat="36.91637561800064" lon="15.144264449854996"><ele>26.8</ele><time>2026-04-18T18:01:00Z</time></trkpt><trkpt lat="36.916462263863124" lon="15.144327460493479"><ele>26.4</ele><time>2026-04-18T18:01:01Z</time></trkpt><trkpt lat="36.91654240564048" lon="15.1443684104743"><ele>26.0</ele><time>2026-04-18T18:01:02Z</time></trkpt><trkpt lat="36.91659961025236" lon="15.144416682079296"><ele>25.999999999999996</ele><time>2026-04-18T18:01:03Z</time></trkpt><trkpt lat="36.9166801749654" lon="15.144483543250667"><ele>26.0</ele><time>2026-04-18T18:01:05Z</time></trkpt><trkpt lat="36.91673222320265" lon="15.144539755376625"><ele>26.0</ele><time>2026-04-18T18:01:12Z</time></trkpt><trkpt lat="36.91679239964578" lon="15.144625372785478"><ele>26.0</ele><time>2026-04-18T18:01:14Z</time></trkpt><trkpt lat="36.91683692806436" lon="15.144690382203825"><ele>25.999999999999996</ele><time>2026-04-18T18:01:15Z</time></trkpt><trkpt lat="36.91692148685706" lon="15.144695942449768"><ele>26.0</ele><time>2026-04-18T18:01:16Z</time></trkpt><trkpt lat="36.91700309570988" lon="15.144736099988169"><ele>26.0</ele><time>2026-04-18T18:01:17Z</time></trkpt><trkpt lat="36.917097142499514" lon="15.144816082784905"><ele>26.0</ele><time>2026-04-18T18:01:18Z</time></trkpt><trkpt lat="36.91721702508335" lon="15.14492129045955"><ele>26.0</ele><time>2026-04-18T18:01:19Z</time></trkpt><trkpt lat="36.91736353413772" lon="15.145045698024221"><ele>26.0</ele><time>2026-04-18T18:01:20Z</time></trkpt><trkpt lat="36.91753244597168" lon="15.145186404829486"><ele>26.333333333333332</ele><time>2026-04-18T18:01:21Z</time></trkpt><trkpt lat="36.91767859115304" lon="15.145313204257473"><ele>26.666666666666664</ele><time>2026-04-18T18:01:22Z</time></trkpt><trkpt lat="36.91784293049588" lon="15.14545825553633"><ele>27.0</ele><time>2026-04-18T18:01:23Z</time></trkpt><trkpt lat="36.918045766895986" lon="15.145630939135717"><ele>27.0</ele><time>2026-04-18T18:01:24Z</time></trkpt><trkpt lat="36.91825703716184" lon="15.145810897297647"><ele>27.0</ele><time>2026-04-18T18:01:25Z</time></trkpt><trkpt lat="36.91844558865045" lon="15.14596853674703"><ele>27.0</ele><time>2026-04-18T18:01:26Z</time></trkpt><trkpt lat="36.91859996609744" lon="15.146110618942146"><ele>27.0</ele><time>2026-04-18T18:01:27Z</time></trkpt><trkpt lat="36.91874288361922" lon="15.146224526573624"><ele>27.0</ele><time>2026-04-18T18:01:28Z</time></trkpt><trkpt lat="36.91887073324822" lon="15.146334054100151"><ele>27.0</ele><time>2026-04-18T18:01:29Z</time></trkpt><trkpt lat="36.91898214374168" lon="15.146428573154846"><ele>27.0</ele><time>2026-04-18T18:01:30Z</time></trkpt><trkpt lat="36.919076512593776" lon="15.146513990647763"><ele>27.0</ele><time>2026-04-18T18:01:31Z</time></trkpt><trkpt lat="36.91916141461446" lon="15.146583525534933"><ele>27.0</ele><time>2026-04-18T18:01:32Z</time></trkpt><trkpt lat="36.91925538399055" lon="15.146685556621435"><ele>26.75</ele><time>2026-04-18T18:01:33Z</time></trkpt><trkpt lat="36.919380740123934" lon="15.146775712437208"><ele>26.5</ele><time>2026-04-18T18:01:34Z</time></trkpt><trkpt lat="36.919469476850196" lon="15.146880259496136"><ele>26.25</ele><time>2026-04-18T18:01:35Z</time></trkpt><trkpt lat="36.919527984185926" lon="15.14699149582512"><ele>26.0</ele><time>2026-04-18T18:01:36Z</time></trkpt><trkpt lat="36.919571791230595" lon="15.147103844337202"><ele>26.0</ele><time>2026-04-18T18:01:37Z</time></trkpt><trkpt lat="36.91960772276893" lon="15.147226999316201"><ele>26.0</ele><time>2026-04-18T18:01:38Z</time></trkpt><trkpt lat="36.919655145797925" lon="15.147355533497494"><ele>26.0</ele><time>2026-04-18T18:01:39Z</time></trkpt><trkpt lat="36.91970482430609" lon="15.14748836291978"><ele>26.0</ele><time>2026-04-18T18:01:40Z</time></trkpt><trkpt lat="36.91976445440538" lon="15.147626572566397"><ele>25.666666666666664</ele><time>2026-04-18T18:01:41Z</time></trkpt><trkpt lat="36.919851839183615" lon="15.147808277569137"><ele>25.333333333333336</ele><time>2026-04-18T18:01:42Z</time></trkpt><trkpt lat="36.919908406528776" lon="15.14804609330802"><ele>25.0</ele><time>2026-04-18T18:01:43Z</time></trkpt><trkpt lat="36.920004949786005" lon="15.148298444390889"><ele>25.5</ele><time>2026-04-18T18:01:44Z</time></trkpt><trkpt lat="36.920122139990546" lon="15.148555512428958"><ele>26.0</ele><time>2026-04-18T18:01:44.999Z</time></trkpt><trkpt lat="36.92023557224856" lon="15.148852602668311"><ele>26.0</ele><time>2026-04-18T18:01:45.999Z</time></trkpt><trkpt lat="36.92033544565094" lon="15.149078392791868"><ele>26.0</ele><time>2026-04-18T18:01:46.999Z</time></trkpt><trkpt lat="36.92042135129739" lon="15.14928839455166"><ele>26.0</ele><time>2026-04-18T18:01:47.999Z</time></trkpt><trkpt lat="36.92050171321015" lon="15.149491163740107"><ele>26.0</ele><time>2026-04-18T18:01:48.999Z</time></trkpt><trkpt lat="36.92057596525075" lon="15.14968105536731"><ele>26.0</ele><time>2026-04-18T18:01:49.999Z</time></trkpt><trkpt lat="36.92064600604579" lon="15.149849523105793"><ele>26.0</ele><time>2026-04-18T18:01:50.999Z</time></trkpt><trkpt lat="36.92071335453566" lon="15.150005236628774"><ele>26.0</ele><time>2026-04-18T18:01:51.999Z</time></trkpt><trkpt lat="36.920775124325345" lon="15.15015865409697"><ele>26.0</ele><time>2026-04-18T18:01:52.999Z</time></trkpt><trkpt lat="36.9208331171716" lon="15.150286617418216"><ele>26.0</ele><time>2026-04-18T18:01:53.999Z</time></trkpt><trkpt lat="36.92088215201143" lon="15.150403994348597"><ele>26.0</ele><time>2026-04-18T18:01:54.999Z</time></trkpt><trkpt lat="36.920933400706176" lon="15.150527170666347"><ele>26.0</ele><time>2026-04-18T18:01:55.999Z</time></trkpt><trkpt lat="36.920975269340076" lon="15.150677568461704"><ele>26.0</ele><time>2026-04-18T18:01:56.999Z</time></trkpt><trkpt lat="36.921038675429735" lon="15.150795762161666"><ele>26.0</ele><time>2026-04-18T18:01:57.999Z</time></trkpt><trkpt lat="36.92107495591022" lon="15.15088536292909"><ele>26.0</ele><time>2026-04-18T18:01:58.999Z</time></trkpt><trkpt lat="36.921097834527885" lon="15.150999879614666"><ele>26.0</ele><time>2026-04-18T18:02:00.999Z</time></trkpt><trkpt lat="36.92106481345846" lon="15.151120570802453"><ele>25.8</ele><time>2026-04-18T18:02:02.999Z</time></trkpt><trkpt lat="36.92100561594945" lon="15.151288230440592"><ele>25.6</ele><time>2026-04-18T18:02:03.999Z</time></trkpt><trkpt lat="36.9209728927272" lon="15.15142973093857"><ele>25.4</ele><time>2026-04-18T18:02:04.999Z</time></trkpt><trkpt lat="36.92093864961928" lon="15.151528814803955"><ele>25.2</ele><time>2026-04-18T18:02:05.999Z</time></trkpt><trkpt lat="36.92086811731358" lon="15.151615477093422"><ele>25.0</ele><time>2026-04-18T18:02:07.999Z</time></trkpt><trkpt lat="36.920896274427214" lon="15.151535214504696"><ele>24.857142857142858</ele><time>2026-04-18T18:03:14Z</time></trkpt><trkpt lat="36.92085482038998" lon="15.151597961637849"><ele>24.714285714285715</ele><time>2026-04-18T18:07:34Z</time></trkpt><trkpt lat="36.92081218486545" lon="15.151678299106969"><ele>24.57142857142857</ele><time>2026-04-18T18:13:26.998Z</time></trkpt><trkpt lat="36.92076049767834" lon="15.151629836597982"><ele>24.42857142857143</ele><time>2026-04-18T18:13:32.998Z</time></trkpt><trkpt lat="36.92071074692992" lon="15.151570800027093"><ele>24.285714285714285</ele><time>2026-04-18T18:13:38Z</time></trkpt><trkpt lat="36.920658359773185" lon="15.151514681831994"><ele>24.142857142857142</ele><time>2026-04-18T18:14:11Z</time></trkpt><trkpt lat="36.92069536310131" lon="15.151446499976947"><ele>24.0</ele><time>2026-04-18T18:14:43.999Z</time></trkpt><trkpt lat="36.920704631021714" lon="15.151525777181801"><ele>24.0</ele><time>2026-04-18T18:17:59Z</time></trkpt><trkpt lat="36.9207611340235" lon="15.151483922398402"><ele>24.0</ele><time>2026-04-18T18:33:50.999Z</time></trkpt><trkpt lat="36.92085298185338" lon="15.151494238091816"><ele>24.0</ele><time>2026-04-18T18:33:53.999Z</time></trkpt><trkpt lat="36.9209183019534" lon="15.151430659159098"><ele>24.0</ele><time>2026-04-18T18:33:56.999Z</time></trkpt><trkpt lat="36.92096425239267" lon="15.151344701955125"><ele>24.0</ele><time>2026-04-18T18:33:58.999Z</time></trkpt><trkpt lat="36.920989421500366" lon="15.151247377736874"><ele>24.0</ele><time>2026-04-18T18:34:00.999Z</time></trkpt><trkpt lat="36.921009551685806" lon="15.151163590764613"><ele>24.166666666666668</ele><time>2026-04-18T18:34:02.999Z</time></trkpt><trkpt lat="36.92104552696921" lon="15.151081195214815"><ele>24.333333333333336</ele><time>2026-04-18T18:34:04.999Z</time></trkpt><trkpt lat="36.92109648903541" lon="15.15102453115793"><ele>24.5</ele><time>2026-04-18T18:34:20.998Z</time></trkpt><trkpt lat="36.92109302849854" lon="15.15092090787243"><ele>24.666666666666668</ele><time>2026-04-18T18:34:22.998Z</time></trkpt><trkpt lat="36.92104711207624" lon="15.1508270841748"><ele>24.833333333333336</ele><time>2026-04-18T18:34:23.998Z</time></trkpt><trkpt lat="36.92100561027146" lon="15.150751206013972"><ele>25.0</ele><time>2026-04-18T18:34:24.998Z</time></trkpt><trkpt lat="36.920966524595535" lon="15.150654355788454"><ele>25.2</ele><time>2026-04-18T18:34:25.998Z</time></trkpt><trkpt lat="36.92095500642948" lon="15.150533288380231"><ele>25.4</ele><time>2026-04-18T18:34:26.998Z</time></trkpt><trkpt lat="36.92091351725078" lon="15.150430919079993"><ele>25.6</ele><time>2026-04-18T18:34:27.998Z</time></trkpt><trkpt lat="36.92087209748304" lon="15.150329975731028"><ele>25.8</ele><time>2026-04-18T18:34:28.998Z</time></trkpt><trkpt lat="36.92083222773036" lon="15.15023292200904"><ele>26.0</ele><time>2026-04-18T18:34:29.998Z</time></trkpt><trkpt lat="36.92079151959829" lon="15.15013381142681"><ele>25.999999999999996</ele><time>2026-04-18T18:34:30.998Z</time></trkpt><trkpt lat="36.920750564604795" lon="15.150033617530962"><ele>26.0</ele><time>2026-04-18T18:34:31.998Z</time></trkpt><trkpt lat="36.92071258427577" lon="15.14994070101597"><ele>26.0</ele><time>2026-04-18T18:34:32.998Z</time></trkpt><trkpt lat="36.92067840197677" lon="15.14985707611032"><ele>26.0</ele><time>2026-04-18T18:34:34Z</time></trkpt><trkpt lat="36.92063739101076" lon="15.149756745266274"><ele>25.999999999999996</ele><time>2026-04-18T18:34:35Z</time></trkpt><trkpt lat="36.92060126577182" lon="15.149668455587461"><ele>26.0</ele><time>2026-04-18T18:34:36Z</time></trkpt><trkpt lat="36.92056394186865" lon="15.149577319654407"><ele>26.0</ele><time>2026-04-18T18:34:37Z</time></trkpt><trkpt lat="36.92050576786463" lon="15.149485156025944"><ele>26.0</ele><time>2026-04-18T18:34:38Z</time></trkpt><trkpt lat="36.92046037027377" lon="15.149378331752649"><ele>26.0</ele><time>2026-04-18T18:34:39Z</time></trkpt><trkpt lat="36.9204177580818" lon="15.149271674166974"><ele>26.0</ele><time>2026-04-18T18:34:40Z</time></trkpt><trkpt lat="36.92037588545373" lon="15.149168246971723"><ele>26.0</ele><time>2026-04-18T18:34:41Z</time></trkpt><trkpt lat="36.92035021723591" lon="15.149053462401262"><ele>26.0</ele><time>2026-04-18T18:34:42Z</time></trkpt><trkpt lat="36.92030431268728" lon="15.148940097125822"><ele>26.0</ele><time>2026-04-18T18:34:43Z</time></trkpt><trkpt lat="36.92025404915605" lon="15.148816707172973"><ele>26.0</ele><time>2026-04-18T18:34:44Z</time></trkpt><trkpt lat="36.920193183542125" lon="15.148667406241557"><ele>26.0</ele><time>2026-04-18T18:34:45Z</time></trkpt><trkpt lat="36.92012162467359" lon="15.148492867315442"><ele>25.75</ele><time>2026-04-18T18:34:46Z</time></trkpt><trkpt lat="36.92005208874219" lon="15.148322938571797"><ele>25.5</ele><time>2026-04-18T18:34:47Z</time></trkpt><trkpt lat="36.91999517606488" lon="15.148181419306406"><ele>25.25</ele><time>2026-04-18T18:34:48Z</time></trkpt><trkpt lat="36.91994782886228" lon="15.148055173576832"><ele>25.0</ele><time>2026-04-18T18:34:49Z</time></trkpt><trkpt lat="36.91991630544694" lon="15.147937486460291"><ele>25.0</ele><time>2026-04-18T18:34:50Z</time></trkpt><trkpt lat="36.91992208090625" lon="15.147819251023154"><ele>25.0</ele><time>2026-04-18T18:34:51Z</time></trkpt><trkpt lat="36.91994945906106" lon="15.147703339518577"><ele>25.0</ele><time>2026-04-18T18:34:52Z</time></trkpt><trkpt lat="36.919985827672534" lon="15.14761156276395"><ele>25.0</ele><time>2026-04-18T18:34:53Z</time></trkpt><trkpt lat="36.920023879258316" lon="15.147524141205992"><ele>25.0</ele><time>2026-04-18T18:34:55Z</time></trkpt><trkpt lat="36.920077225475566" lon="15.147400902782856"><ele>25.166666666666668</ele><time>2026-04-18T18:34:59Z</time></trkpt><trkpt lat="36.92010079855286" lon="15.147299966772021"><ele>25.333333333333336</ele><time>2026-04-18T18:35:00Z</time></trkpt><trkpt lat="36.920100907867315" lon="15.14719140356297"><ele>25.5</ele><time>2026-04-18T18:35:01Z</time></trkpt><trkpt lat="36.92008472241086" lon="15.147093075238981"><ele>25.666666666666664</ele><time>2026-04-18T18:35:02Z</time></trkpt><trkpt lat="36.92005033866388" lon="15.147007990433798"><ele>25.833333333333332</ele><time>2026-04-18T18:35:03Z</time></trkpt><trkpt lat="36.919995792438534" lon="15.146929279843304"><ele>26.0</ele><time>2026-04-18T18:35:04Z</time></trkpt><trkpt lat="36.91991303926513" lon="15.14687879661145"><ele>26.0</ele><time>2026-04-18T18:35:05Z</time></trkpt><trkpt lat="36.91981446693181" lon="15.146861500324398"><ele>26.0</ele><time>2026-04-18T18:35:06Z</time></trkpt><trkpt lat="36.919694797110736" lon="15.146865510082677"><ele>26.0</ele><time>2026-04-18T18:35:07Z</time></trkpt><trkpt lat="36.919576301080255" lon="15.146849001315664"><ele>26.0</ele><time>2026-04-18T18:35:08Z</time></trkpt><trkpt lat="36.919461098104854" lon="15.146790767607586"><ele>26.0</ele><time>2026-04-18T18:35:09Z</time></trkpt><trkpt lat="36.91935025920808" lon="15.146712179286313"><ele>26.0</ele><time>2026-04-18T18:35:10Z</time></trkpt><trkpt lat="36.91924576538055" lon="15.146623635518903"><ele>26.0</ele><time>2026-04-18T18:35:11Z</time></trkpt><trkpt lat="36.919139000814766" lon="15.146533879324956"><ele>26.0</ele><time>2026-04-18T18:35:12Z</time></trkpt><trkpt lat="36.91902958788645" lon="15.146440925704159"><ele>26.25</ele><time>2026-04-18T18:35:13Z</time></trkpt><trkpt lat="36.91891751878841" lon="15.14634338544301"><ele>26.5</ele><time>2026-04-18T18:35:14Z</time></trkpt><trkpt lat="36.918797421301456" lon="15.146246165699681"><ele>26.75</ele><time>2026-04-18T18:35:15Z</time></trkpt><trkpt lat="36.918667460814945" lon="15.14613507087561"><ele>27.0</ele><time>2026-04-18T18:35:16Z</time></trkpt><trkpt lat="36.91853594983016" lon="15.146017245682248"><ele>27.0</ele><time>2026-04-18T18:35:17Z</time></trkpt><trkpt lat="36.91840873222067" lon="15.14590608476767"><ele>27.0</ele><time>2026-04-18T18:35:18Z</time></trkpt><trkpt lat="36.91828655883774" lon="15.145801236356103"><ele>27.0</ele><time>2026-04-18T18:35:19Z</time></trkpt><trkpt lat="36.9181592024053" lon="15.1456956585685"><ele>27.0</ele><time>2026-04-18T18:35:19.999Z</time></trkpt><trkpt lat="36.91802445999049" lon="15.145577900837797"><ele>27.0</ele><time>2026-04-18T18:35:20.999Z</time></trkpt><trkpt lat="36.9178773873298" lon="15.145449478458398"><ele>27.0</ele><time>2026-04-18T18:35:21.999Z</time></trkpt><trkpt lat="36.91774540019069" lon="15.14533271248334"><ele>27.0</ele><time>2026-04-18T18:35:22.999Z</time></trkpt><trkpt lat="36.91762150645628" lon="15.145218691658624"><ele>27.0</ele><time>2026-04-18T18:35:23.999Z</time></trkpt><trkpt lat="36.91750305683731" lon="15.145112033708104"><ele>27.0</ele><time>2026-04-18T18:35:24.999Z</time></trkpt><trkpt lat="36.917391306855194" lon="15.145013925773208"><ele>27.0</ele><time>2026-04-18T18:35:25.999Z</time></trkpt><trkpt lat="36.917288540738106" lon="15.144929202947065"><ele>27.333333333333332</ele><time>2026-04-18T18:35:26.999Z</time></trkpt><trkpt lat="36.91719870857082" lon="15.144851412971466"><ele>27.666666666666664</ele><time>2026-04-18T18:35:27.999Z</time></trkpt><trkpt lat="36.91712309355126" lon="15.144779031456864"><ele>28.0</ele><time>2026-04-18T18:35:28.999Z</time></trkpt><trkpt lat="36.91705423080457" lon="15.144719417536287"><ele>28.333333333333332</ele><time>2026-04-18T18:35:29.999Z</time></trkpt><trkpt lat="36.91698978370911" lon="15.144658852544207"><ele>28.666666666666664</ele><time>2026-04-18T18:35:30.999Z</time></trkpt><trkpt lat="36.916925677017126" lon="15.144599382069746"><ele>29.0</ele><time>2026-04-18T18:35:32.999Z</time></trkpt><trkpt lat="36.91685480340676" lon="15.144500842026481"><ele>29.0</ele><time>2026-04-18T18:35:35.999Z</time></trkpt><trkpt lat="36.916764323152904" lon="15.144403059320547"><ele>29.0</ele><time>2026-04-18T18:35:37.999Z</time></trkpt><trkpt lat="36.91668330412116" lon="15.144378768303772"><ele>29.0</ele><time>2026-04-18T18:35:38.999Z</time></trkpt><trkpt lat="36.91659694949024" lon="15.14434686676206"><ele>29.0</ele><time>2026-04-18T18:35:39.999Z</time></trkpt><trkpt lat="36.91650949281822" lon="15.144302796658428"><ele>29.0</ele><time>2026-04-18T18:35:40.999Z</time></trkpt><trkpt lat="36.91642138542044" lon="15.144248446508849"><ele>28.4</ele><time>2026-04-18T18:35:41.999Z</time></trkpt><trkpt lat="36.916346594269875" lon="15.144190938966219"><ele>27.799999999999997</ele><time>2026-04-18T18:35:42.999Z</time></trkpt><trkpt lat="36.91627978774784" lon="15.14414470591511"><ele>27.200000000000003</ele><time>2026-04-18T18:35:43.999Z</time></trkpt><trkpt lat="36.9162272459144" lon="15.144099699579563"><ele>26.6</ele><time>2026-04-18T18:35:44.999Z</time></trkpt><trkpt lat="36.91612077490249" lon="15.144213470096709"><ele>26.0</ele><time>2026-04-18T18:35:46.999Z</time></trkpt><trkpt lat="36.91606115548545" lon="15.1443057163301"><ele>26.0</ele><time>2026-04-18T18:35:47.999Z</time></trkpt><trkpt lat="36.91599785535741" lon="15.144402606184014"><ele>26.0</ele><time>2026-04-18T18:35:48.999Z</time></trkpt><trkpt lat="36.91593324463974" lon="15.14449459656051"><ele>26.0</ele><time>2026-04-18T18:35:49.999Z</time></trkpt><trkpt lat="36.915883277351156" lon="15.144572567284365"><ele>26.0</ele><time>2026-04-18T18:35:50.999Z</time></trkpt><trkpt lat="36.915826535763095" lon="15.14465795506672"><ele>26.0</ele><time>2026-04-18T18:35:51.999Z</time></trkpt><trkpt lat="36.915772095319404" lon="15.144779880341574"><ele>25.0</ele><time>2026-04-18T18:35:52.999Z</time></trkpt><trkpt lat="36.915725861563295" lon="15.144910618838264"><ele>24.0</ele><time>2026-04-18T18:35:53.999Z</time></trkpt><trkpt lat="36.91568449779047" lon="15.145022375029132"><ele>23.0</ele><time>2026-04-18T18:35:54.999Z</time></trkpt><trkpt lat="36.915645900538316" lon="15.145122375131516"><ele>22.0</ele><time>2026-04-18T18:35:55.999Z</time></trkpt><trkpt lat="36.91560514865426" lon="15.145209070377087"><ele>21.0</ele><time>2026-04-18T18:35:56.999Z</time></trkpt><trkpt lat="36.9155665159144" lon="15.14528778769383"><ele>21.0</ele><time>2026-04-18T18:35:57.999Z</time></trkpt><trkpt lat="36.91553494466493" lon="15.145363901518063"><ele>21.0</ele><time>2026-04-18T18:35:58.999Z</time></trkpt><trkpt lat="36.915507076312764" lon="15.145437012866868"><ele>21.0</ele><time>2026-04-18T18:35:59.999Z</time></trkpt><trkpt lat="36.915454455480834" lon="15.145565859636386"><ele>21.0</ele><time>2026-04-18T18:36:01.999Z</time></trkpt><trkpt lat="36.91541286360404" lon="15.145644518598258"><ele>21.0</ele><time>2026-04-18T18:36:03.999Z</time></trkpt><trkpt lat="36.915257625020544" lon="15.145538471838714"><ele>21.0</ele><time>2026-04-18T18:36:07.999Z</time></trkpt><trkpt lat="36.915152473874414" lon="15.14546397544566"><ele>21.0</ele><time>2026-04-18T18:36:08.999Z</time></trkpt><trkpt lat="36.915066196366055" lon="15.145414672011693"><ele>21.0</ele><time>2026-04-18T18:36:09.999Z</time></trkpt><trkpt lat="36.914970090176155" lon="15.145344917672544"><ele>21.0</ele><time>2026-04-18T18:36:10.999Z</time></trkpt><trkpt lat="36.91488941426594" lon="15.145289603406164"><ele>21.0</ele><time>2026-04-18T18:36:11.999Z</time></trkpt><trkpt lat="36.91482975611116" lon="15.145243473390565"><ele>21.5</ele><time>2026-04-18T18:36:12.999Z</time></trkpt><trkpt lat="36.91478505111128" lon="15.145184859924694"><ele>22.0</ele><time>2026-04-18T18:36:14.999Z</time></trkpt><trkpt lat="36.91478604271249" lon="15.145065751860436"><ele>22.5</ele><time>2026-04-18T18:36:16.999Z</time></trkpt><trkpt lat="36.91472938620348" lon="15.144945581735412"><ele>23.0</ele><time>2026-04-18T18:36:18.999Z</time></trkpt><trkpt lat="36.91465612199813" lon="15.14489686495915"><ele>23.5</ele><time>2026-04-18T18:36:19.999Z</time></trkpt><trkpt lat="36.91457755909926" lon="15.144859853423828"><ele>24.0</ele><time>2026-04-18T18:36:20.999Z</time></trkpt><trkpt lat="36.91447940358268" lon="15.144824932635032"><ele>24.4</ele><time>2026-04-18T18:36:21.999Z</time></trkpt><trkpt lat="36.91439453287757" lon="15.144766046978539"><ele>24.799999999999997</ele><time>2026-04-18T18:36:22.999Z</time></trkpt><trkpt lat="36.91430054198986" lon="15.144738050482948"><ele>25.200000000000003</ele><time>2026-04-18T18:36:23.998Z</time></trkpt><trkpt lat="36.91423068163314" lon="15.144695938233783"><ele>25.6</ele><time>2026-04-18T18:36:24.998Z</time></trkpt><trkpt lat="36.91414525086599" lon="15.144651483447635"><ele>26.0</ele><time>2026-04-18T18:36:26.998Z</time></trkpt><trkpt lat="36.91405648062058" lon="15.144573608222624"><ele>26.25</ele><time>2026-04-18T18:36:28.998Z</time></trkpt><trkpt lat="36.91400125786055" lon="15.144354665365766"><ele>26.5</ele><time>2026-04-18T18:36:30.998Z</time></trkpt><trkpt lat="36.913952180208476" lon="15.144213759572112"><ele>26.75</ele><time>2026-04-18T18:36:31.998Z</time></trkpt><trkpt lat="36.91392641716414" lon="15.14409748125229"><ele>27.0</ele><time>2026-04-18T18:36:32.998Z</time></trkpt><trkpt lat="36.91391697700207" lon="15.14397978000638"><ele>27.0</ele><time>2026-04-18T18:36:34.998Z</time></trkpt><trkpt lat="36.913728750838956" lon="15.14400984768093"><ele>27.0</ele><time>2026-04-18T18:36:38.998Z</time></trkpt><trkpt lat="36.91362916402378" lon="15.144021368343108"><ele>27.0</ele><time>2026-04-18T18:36:40Z</time></trkpt><trkpt lat="36.913530053107586" lon="15.144052526956136"><ele>27.0</ele><time>2026-04-18T18:36:41Z</time></trkpt><trkpt lat="36.91341788786173" lon="15.144089730505332"><ele>27.0</ele><time>2026-04-18T18:36:42Z</time></trkpt><trkpt lat="36.9133112126327" lon="15.144147325063528"><ele>27.0</ele><time>2026-04-18T18:36:43Z</time></trkpt><trkpt lat="36.91319790253549" lon="15.144178413280807"><ele>27.0</ele><time>2026-04-18T18:36:44Z</time></trkpt><trkpt lat="36.91307793654877" lon="15.1442167071906"><ele>27.0</ele><time>2026-04-18T18:36:45Z</time></trkpt><trkpt lat="36.912959725449284" lon="15.144263409142715"><ele>27.0</ele><time>2026-04-18T18:36:46Z</time></trkpt><trkpt lat="36.912859257041404" lon="15.144296688179287"><ele>27.000000000000004</ele><time>2026-04-18T18:36:47Z</time></trkpt><trkpt lat="36.91275103427037" lon="15.144338533330188"><ele>27.000000000000004</ele><time>2026-04-18T18:36:48Z</time></trkpt><trkpt lat="36.91265184175089" lon="15.14436734905914"><ele>27.0</ele><time>2026-04-18T18:36:49Z</time></trkpt><trkpt lat="36.912566369596185" lon="15.144398921507653"><ele>27.0</ele><time>2026-04-18T18:36:50Z</time></trkpt><trkpt lat="36.912483462763454" lon="15.144416844547996"><ele>26.833333333333332</ele><time>2026-04-18T18:36:51Z</time></trkpt><trkpt lat="36.91240219405713" lon="15.14443587545627"><ele>26.666666666666664</ele><time>2026-04-18T18:36:52Z</time></trkpt><trkpt lat="36.91232567056015" lon="15.14446352887956"><ele>26.5</ele><time>2026-04-18T18:36:53Z</time></trkpt><trkpt lat="36.91226084129127" lon="15.144491030764373"><ele>26.333333333333332</ele><time>2026-04-18T18:36:54Z</time></trkpt><trkpt lat="36.91218410011227" lon="15.144514012308768"><ele>26.166666666666664</ele><time>2026-04-18T18:36:55Z</time></trkpt><trkpt lat="36.91206352612766" lon="15.144554452613471"><ele>26.0</ele><time>2026-04-18T18:36:57Z</time></trkpt><trkpt lat="36.911998087977" lon="15.144576416311633"><ele>26.0</ele><time>2026-04-18T18:36:58Z</time></trkpt><trkpt lat="36.91188449657183" lon="15.14459770050631"><ele>26.0</ele><time>2026-04-18T18:37:00Z</time></trkpt><trkpt lat="36.911812084795606" lon="15.144620676159628"><ele>26.0</ele><time>2026-04-18T18:37:02Z</time></trkpt><trkpt lat="36.911726303260735" lon="15.14465563603356"><ele>26.0</ele><time>2026-04-18T18:37:05Z</time></trkpt><trkpt lat="36.91166025306735" lon="15.144672346577638"><ele>26.0</ele><time>2026-04-18T18:37:07Z</time></trkpt><trkpt lat="36.91167721976322" lon="15.144900642669906"><ele>25.833333333333332</ele><time>2026-04-18T18:37:10Z</time></trkpt><trkpt lat="36.91170134193608" lon="15.14499010421218"><ele>25.666666666666664</ele><time>2026-04-18T18:37:11Z</time></trkpt><trkpt lat="36.91171975561526" lon="15.145083178857426"><ele>25.5</ele><time>2026-04-18T18:37:12Z</time></trkpt><trkpt lat="36.91173944240373" lon="15.145170989550872"><ele>25.333333333333336</ele><time>2026-04-18T18:37:13Z</time></trkpt><trkpt lat="36.911760353991184" lon="15.145265299275184"><ele>25.166666666666668</ele><time>2026-04-18T18:37:14Z</time></trkpt><trkpt lat="36.91178427997281" lon="15.14536604642287"><ele>25.0</ele><time>2026-04-18T18:37:15Z</time></trkpt><trkpt lat="36.91180832458987" lon="15.145469683380279"><ele>25.000000000000004</ele><time>2026-04-18T18:37:16Z</time></trkpt><trkpt lat="36.91183394802752" lon="15.145578032784446"><ele>25.0</ele><time>2026-04-18T18:37:17Z</time></trkpt><trkpt lat="36.91185794324892" lon="15.145690607185825"><ele>25.0</ele><time>2026-04-18T18:37:18Z</time></trkpt><trkpt lat="36.91188557345477" lon="15.145799069435784"><ele>25.0</ele><time>2026-04-18T18:37:19Z</time></trkpt><trkpt lat="36.91191136109742" lon="15.145899339663538"><ele>25.000000000000004</ele><time>2026-04-18T18:37:20Z</time></trkpt><trkpt lat="36.91193576798827" lon="15.145995950707174"><ele>25.0</ele><time>2026-04-18T18:37:21Z</time></trkpt><trkpt lat="36.91195620983698" lon="15.146090201557827"><ele>24.857142857142858</ele><time>2026-04-18T18:37:22Z</time></trkpt><trkpt lat="36.91197217094647" lon="15.146180325294324"><ele>24.714285714285715</ele><time>2026-04-18T18:37:23Z</time></trkpt><trkpt lat="36.911988584389384" lon="15.146266435642874"><ele>24.57142857142857</ele><time>2026-04-18T18:37:24Z</time></trkpt><trkpt lat="36.91200450063595" lon="15.14634556975078"><ele>24.42857142857143</ele><time>2026-04-18T18:37:24.999Z</time></trkpt><trkpt lat="36.91201989956027" lon="15.146423288892333"><ele>24.285714285714285</ele><time>2026-04-18T18:37:25.999Z</time></trkpt><trkpt lat="36.912037646926684" lon="15.146505202534824"><ele>24.142857142857142</ele><time>2026-04-18T18:37:26.999Z</time></trkpt><trkpt lat="36.9120554828354" lon="15.14659197855449"><ele>24.0</ele><time>2026-04-18T18:37:27.999Z</time></trkpt><trkpt lat="36.91207070734671" lon="15.146670476431611"><ele>23.5</ele><time>2026-04-18T18:37:28.999Z</time></trkpt><trkpt lat="36.91209465288409" lon="15.146796319714237"><ele>23.0</ele><time>2026-04-18T18:37:30.999Z</time></trkpt><trkpt lat="36.91210980049998" lon="15.146873705074068"><ele>22.5</ele><time>2026-04-18T18:37:32.999Z</time></trkpt><trkpt lat="36.9121341483969" lon="15.146967091405935"><ele>22.0</ele><time>2026-04-18T18:37:35.999Z</time></trkpt><trkpt lat="36.912152291851854" lon="15.14705916719783"><ele>21.5</ele><time>2026-04-18T18:37:38.999Z</time></trkpt><trkpt lat="36.912165915741916" lon="15.147144307464115"><ele>21.0</ele><time>2026-04-18T18:37:44.999Z</time></trkpt><trkpt lat="36.91203493381399" lon="15.147161557570971"><ele>21.0</ele><time>2026-04-18T18:37:45.999Z</time></trkpt><trkpt lat="36.91194800992076" lon="15.147114248182154"><ele>21.0</ele><time>2026-04-18T18:37:46.999Z</time></trkpt><trkpt lat="36.91186329331019" lon="15.147075453264332"><ele>21.0</ele><time>2026-04-18T18:37:47.999Z</time></trkpt><trkpt lat="36.91177650851516" lon="15.14703536676592"><ele>21.0</ele><time>2026-04-18T18:37:48.999Z</time></trkpt><trkpt lat="36.91169582188421" lon="15.146996403545712"><ele>21.0</ele><time>2026-04-18T18:37:49.999Z</time></trkpt><trkpt lat="36.91161808650493" lon="15.146960993723015"><ele>21.0</ele><time>2026-04-18T18:37:50.999Z</time></trkpt><trkpt lat="36.91154190816922" lon="15.146927763326465"><ele>21.0</ele><time>2026-04-18T18:37:51.999Z</time></trkpt><trkpt lat="36.91146648115859" lon="15.146893387458613"><ele>21.0</ele><time>2026-04-18T18:37:52.999Z</time></trkpt><trkpt lat="36.911398253934465" lon="15.146860296450663"><ele>21.0</ele><time>2026-04-18T18:37:53.999Z</time></trkpt><trkpt lat="36.91133811262015" lon="15.146831241976543"><ele>21.0</ele><time>2026-04-18T18:37:54.999Z</time></trkpt><trkpt lat="36.91122005855232" lon="15.146777255947976"><ele>21.0</ele><time>2026-04-18T18:37:56.999Z</time></trkpt><trkpt lat="36.91115708100924" lon="15.146746251506402"><ele>21.0</ele><time>2026-04-18T18:37:57.999Z</time></trkpt><trkpt lat="36.91109488620437" lon="15.146712055903299"><ele>21.0</ele><time>2026-04-18T18:37:58.999Z</time></trkpt><trkpt lat="36.911023928264854" lon="15.146652554372773"><ele>21.0</ele><time>2026-04-18T18:37:59.999Z</time></trkpt><trkpt lat="36.91092892330518" lon="15.1466078582109"><ele>21.0</ele><time>2026-04-18T18:38:00.999Z</time></trkpt><trkpt lat="36.91081084573201" lon="15.146552307237986"><ele>21.0</ele><time>2026-04-18T18:38:01.999Z</time></trkpt><trkpt lat="36.91069901556243" lon="15.146499696071375"><ele>21.0</ele><time>2026-04-18T18:38:02.999Z</time></trkpt><trkpt lat="36.91059567737968" lon="15.146450642164687"><ele>21.4</ele><time>2026-04-18T18:38:03.999Z</time></trkpt><trkpt lat="36.910497962745346" lon="15.146404348640326"><ele>21.8</ele><time>2026-04-18T18:38:04.999Z</time></trkpt><trkpt lat="36.91040794518696" lon="15.146361701654621"><ele>22.2</ele><time>2026-04-18T18:38:05.999Z</time></trkpt><trkpt lat="36.910317936596755" lon="15.146319059329096"><ele>22.599999999999998</ele><time>2026-04-18T18:38:06.999Z</time></trkpt><trkpt lat="36.910226703231885" lon="15.146275584142597"><ele>23.0</ele><time>2026-04-18T18:38:07.999Z</time></trkpt><trkpt lat="36.91012717950736" lon="15.146228873330308"><ele>22.833333333333336</ele><time>2026-04-18T18:38:08.999Z</time></trkpt><trkpt lat="36.91002866994269" lon="15.146182899816832"><ele>22.666666666666668</ele><time>2026-04-18T18:38:09.999Z</time></trkpt><trkpt lat="36.90993765467708" lon="15.14614042377458"><ele>22.5</ele><time>2026-04-18T18:38:10.999Z</time></trkpt><trkpt lat="36.90985876834554" lon="15.146104244232797"><ele>22.333333333333332</ele><time>2026-04-18T18:38:11.999Z</time></trkpt><trkpt lat="36.90978698517472" lon="15.146071392833584"><ele>22.166666666666664</ele><time>2026-04-18T18:38:12.999Z</time></trkpt><trkpt lat="36.909712306775845" lon="15.146037216460483"><ele>22.0</ele><time>2026-04-18T18:38:13.999Z</time></trkpt><trkpt lat="36.90963532321067" lon="15.146001985082846"><ele>22.0</ele><time>2026-04-18T18:38:14.999Z</time></trkpt><trkpt lat="36.9095679894239" lon="15.145971169946112"><ele>22.0</ele><time>2026-04-18T18:38:15.999Z</time></trkpt><trkpt lat="36.90946260720451" lon="15.145937540455368"><ele>22.0</ele><time>2026-04-18T18:38:17.999Z</time></trkpt><trkpt lat="36.90937282574271" lon="15.14589495546609"><ele>22.0</ele><time>2026-04-18T18:38:19.999Z</time></trkpt><trkpt lat="36.90927523167883" lon="15.145850718410573"><ele>22.0</ele><time>2026-04-18T18:38:21.999Z</time></trkpt><trkpt lat="36.90917730942262" lon="15.145806260331705"><ele>21.8</ele><time>2026-04-18T18:38:23.999Z</time></trkpt><trkpt lat="36.909059794087725" lon="15.145746526554756"><ele>21.6</ele><time>2026-04-18T18:38:25.999Z</time></trkpt><trkpt lat="36.9089869460757" lon="15.145712940722817"><ele>21.400000000000002</ele><time>2026-04-18T18:38:26.999Z</time></trkpt><trkpt lat="36.908911700322086" lon="15.145671313643803"><ele>21.200000000000003</ele><time>2026-04-18T18:38:27.998Z</time></trkpt><trkpt lat="36.908828999707225" lon="15.145627588278684"><ele>21.0</ele><time>2026-04-18T18:38:28.998Z</time></trkpt><trkpt lat="36.90875685457082" lon="15.145591009032279"><ele>21.0</ele><time>2026-04-18T18:38:29.998Z</time></trkpt><trkpt lat="36.90868482840407" lon="15.145544506384498"><ele>21.0</ele><time>2026-04-18T18:38:30.998Z</time></trkpt><trkpt lat="36.90862539606792" lon="15.145484045859192"><ele>21.0</ele><time>2026-04-18T18:38:31.998Z</time></trkpt><trkpt lat="36.90857437286712" lon="15.145430548390848"><ele>21.0</ele><time>2026-04-18T18:38:32.998Z</time></trkpt><trkpt lat="36.908477437078425" lon="15.145317985511126"><ele>21.0</ele><time>2026-04-18T18:38:34.998Z</time></trkpt><trkpt lat="36.9083945641159" lon="15.145318192929743"><ele>21.0</ele><time>2026-04-18T18:38:35.998Z</time></trkpt><trkpt lat="36.908297167552455" lon="15.145372599317154"><ele>20.5</ele><time>2026-04-18T18:38:36.998Z</time></trkpt><trkpt lat="36.90818608180435" lon="15.145314834745571"><ele>20.0</ele><time>2026-04-18T18:38:37.998Z</time></trkpt><trkpt lat="36.90806009177449" lon="15.14526685386125"><ele>19.5</ele><time>2026-04-18T18:38:38.998Z</time></trkpt><trkpt lat="36.90792915220794" lon="15.145198451005653"><ele>19.0</ele><time>2026-04-18T18:38:39.998Z</time></trkpt><trkpt lat="36.90779334130999" lon="15.145131329241867"><ele>19.0</ele><time>2026-04-18T18:38:40.998Z</time></trkpt><trkpt lat="36.907650074472016" lon="15.145061081221614"><ele>19.0</ele><time>2026-04-18T18:38:41.998Z</time></trkpt><trkpt lat="36.90750386249855" lon="15.144989424880047"><ele>19.0</ele><time>2026-04-18T18:38:42.998Z</time></trkpt><trkpt lat="36.90736710676311" lon="15.144924899781023"><ele>20.25</ele><time>2026-04-18T18:38:43.998Z</time></trkpt><trkpt lat="36.90723676964267" lon="15.144861908933333"><ele>21.5</ele><time>2026-04-18T18:38:44.998Z</time></trkpt><trkpt lat="36.907118428788316" lon="15.144803635948305"><ele>22.75</ele><time>2026-04-18T18:38:46Z</time></trkpt><trkpt lat="36.9070113502557" lon="15.1447512917736"><ele>24.0</ele><time>2026-04-18T18:38:47Z</time></trkpt><trkpt lat="36.90690403527677" lon="15.144698900602544"><ele>24.0</ele><time>2026-04-18T18:38:48Z</time></trkpt><trkpt lat="36.906793274383205" lon="15.144639306542608"><ele>24.0</ele><time>2026-04-18T18:38:49Z</time></trkpt><trkpt lat="36.90666413336821" lon="15.144567739694192"><ele>24.0</ele><time>2026-04-18T18:38:50Z</time></trkpt><trkpt lat="36.90651791346682" lon="15.144480161636121"><ele>24.0</ele><time>2026-04-18T18:38:51Z</time></trkpt><trkpt lat="36.90633602671005" lon="15.144392726923344"><ele>22.333333333333332</ele><time>2026-04-18T18:38:52Z</time></trkpt><trkpt lat="36.90615019961985" lon="15.144320556829731"><ele>20.666666666666664</ele><time>2026-04-18T18:38:53Z</time></trkpt><trkpt lat="36.9059990256064" lon="15.144243798994586"><ele>19.0</ele><time>2026-04-18T18:38:54Z</time></trkpt><trkpt lat="36.905866363658056" lon="15.144176028559334"><ele>19.25</ele><time>2026-04-18T18:38:55Z</time></trkpt><trkpt lat="36.905738965608485" lon="15.144114964043807"><ele>19.5</ele><time>2026-04-18T18:38:56Z</time></trkpt><trkpt lat="36.905622754043456" lon="15.144062543059887"><ele>19.75</ele><time>2026-04-18T18:38:57Z</time></trkpt><trkpt lat="36.905515074366726" lon="15.144006497796655"><ele>20.0</ele><time>2026-04-18T18:38:58Z</time></trkpt><trkpt lat="36.90542245899359" lon="15.14396181504675"><ele>20.0</ele><time>2026-04-18T18:38:59Z</time></trkpt><trkpt lat="36.90534394528567" lon="15.143924898813145"><ele>20.0</ele><time>2026-04-18T18:39:00Z</time></trkpt><trkpt lat="36.90527261516367" lon="15.143888885443312"><ele>20.0</ele><time>2026-04-18T18:39:01Z</time></trkpt><trkpt lat="36.90521176230076" lon="15.14384962208762"><ele>20.0</ele><time>2026-04-18T18:39:02Z</time></trkpt><trkpt lat="36.905141546968736" lon="15.143801870246211"><ele>20.0</ele><time>2026-04-18T18:39:04Z</time></trkpt><trkpt lat="36.90518671493582" lon="15.143643924269034"><ele>20.0</ele><time>2026-04-18T18:39:05Z</time></trkpt><trkpt lat="36.90523698963162" lon="15.143561735215767"><ele>20.0</ele><time>2026-04-18T18:39:06Z</time></trkpt><trkpt lat="36.905279392443276" lon="15.143423781424072"><ele>20.0</ele><time>2026-04-18T18:39:07Z</time></trkpt><trkpt lat="36.90535549196205" lon="15.143265567324885"><ele>20.0</ele><time>2026-04-18T18:39:08Z</time></trkpt><trkpt lat="36.90542840467333" lon="15.143101453065066"><ele>20.0</ele><time>2026-04-18T18:39:09Z</time></trkpt><trkpt lat="36.90549930444552" lon="15.142941272699861"><ele>20.5</ele><time>2026-04-18T18:39:10Z</time></trkpt><trkpt lat="36.90556942527487" lon="15.142780196582121"><ele>21.0</ele><time>2026-04-18T18:39:11Z</time></trkpt><trkpt lat="36.90564114862798" lon="15.142622841034042"><ele>21.5</ele><time>2026-04-18T18:39:12Z</time></trkpt><trkpt lat="36.90570315554845" lon="15.142466780900248"><ele>22.0</ele><time>2026-04-18T18:39:13Z</time></trkpt><trkpt lat="36.905766706630374" lon="15.142310668899801"><ele>22.25</ele><time>2026-04-18T18:39:14Z</time></trkpt><trkpt lat="36.905827292769565" lon="15.142159846684565"><ele>22.5</ele><time>2026-04-18T18:39:15Z</time></trkpt><trkpt lat="36.90589111474975" lon="15.142010932897243"><ele>22.75</ele><time>2026-04-18T18:39:16Z</time></trkpt><trkpt lat="36.90595253377763" lon="15.1418640126905"><ele>23.0</ele><time>2026-04-18T18:39:17Z</time></trkpt><trkpt lat="36.90601011064972" lon="15.141739228920725"><ele>23.0</ele><time>2026-04-18T18:39:18Z</time></trkpt><trkpt lat="36.90605351607127" lon="15.14162951722763"><ele>23.0</ele><time>2026-04-18T18:39:19Z</time></trkpt><trkpt lat="36.906094049032134" lon="15.141541607836615"><ele>23.0</ele><time>2026-04-18T18:39:20Z</time></trkpt><trkpt lat="36.9061352694225" lon="15.1414407077662"><ele>23.0</ele><time>2026-04-18T18:39:22Z</time></trkpt><trkpt lat="36.905879057117545" lon="15.141138360382064"><ele>23.333333333333336</ele><time>2026-04-18T18:39:30.999Z</time></trkpt><trkpt lat="36.9058034308992" lon="15.141083245631442"><ele>23.666666666666668</ele><time>2026-04-18T18:39:31.999Z</time></trkpt><trkpt lat="36.90574273619658" lon="15.14104161857304"><ele>24.0</ele><time>2026-04-18T18:39:32.999Z</time></trkpt><trkpt lat="36.90565156260878" lon="15.141021293435024"><ele>24.333333333333336</ele><time>2026-04-18T18:39:34.999Z</time></trkpt><trkpt lat="36.90562235169922" lon="15.141103466990355"><ele>24.666666666666668</ele><time>2026-04-18T18:39:36.999Z</time></trkpt><trkpt lat="36.90569696062824" lon="15.141207398357205"><ele>25.0</ele><time>2026-04-18T18:39:38.999Z</time></trkpt><trkpt lat="36.90575886201347" lon="15.141239350340943"><ele>25.0</ele><time>2026-04-18T18:39:39.999Z</time></trkpt><trkpt lat="36.90580954124521" lon="15.141350870668305"><ele>25.0</ele><time>2026-04-18T18:39:41.999Z</time></trkpt><trkpt lat="36.9057880821468" lon="15.14146591841824"><ele>25.0</ele><time>2026-04-18T18:39:43.999Z</time></trkpt><trkpt lat="36.90575398853219" lon="15.141563179398164"><ele>25.0</ele><time>2026-04-18T18:39:45.999Z</time></trkpt><trkpt lat="36.90568012255823" lon="15.141595546400834"><ele>25.0</ele><time>2026-04-18T18:42:15.999Z</time></trkpt><trkpt lat="36.90570261351331" lon="15.141704758033605"><ele>24.0</ele><time>2026-04-18T18:46:02.999Z</time></trkpt><trkpt lat="36.90593075476311" lon="15.1417485717825"><ele>23.0</ele><time>2026-04-18T18:46:25.999Z</time></trkpt><trkpt lat="36.90566364931274" lon="15.14168536045354"><ele>23.0</ele><time>2026-04-18T18:46:31.999Z</time></trkpt><trkpt lat="36.90572252224628" lon="15.14172755015144"><ele>23.0</ele><time>2026-04-18T18:50:23.13Z</time></trkpt><trkpt lat="36.90568653816651" lon="15.141629819534794"><ele>23.0</ele><time>2026-04-18T18:52:36.999Z</time></trkpt><trkpt lat="36.905603892299276" lon="15.141654642407843"><ele>23.0</ele><time>2026-04-18T18:53:08.999Z</time></trkpt><trkpt lat="36.905560429784714" lon="15.1418862538065"><ele>23.0</ele><time>2026-04-18T18:53:12.999Z</time></trkpt><trkpt lat="36.90559096453852" lon="15.141783021565578"><ele>23.0</ele><time>2026-04-18T18:53:17.999Z</time></trkpt><trkpt lat="36.905613980355255" lon="15.141690389811673"><ele>23.0</ele><time>2026-04-18T18:53:22.999Z</time></trkpt><trkpt lat="36.90562504286698" lon="15.141603208797221"><ele>23.0</ele><time>2026-04-18T18:53:27.999Z</time></trkpt><trkpt lat="36.90558051706788" lon="15.141661498313471"><ele>23.0</ele><time>2026-04-18T18:54:15Z</time></trkpt><trkpt lat="36.90567152395782" lon="15.141562067538718"><ele>23.0</ele><time>2026-04-18T18:57:25.999Z</time></trkpt><trkpt lat="36.90558364923842" lon="15.141562854155309"><ele>23.0</ele><time>2026-04-18T19:06:25.999Z</time></trkpt><trkpt lat="36.905690283360485" lon="15.14160941190857"><ele>23.0</ele><time>2026-04-18T19:14:36.999Z</time></trkpt><trkpt lat="36.905632296375295" lon="15.141705606704344"><ele>23.0</ele><time>2026-04-18T19:16:03.999Z</time></trkpt><trkpt lat="36.905696953696335" lon="15.14162657481379"><ele>23.0</ele><time>2026-04-18T19:16:13.999Z</time></trkpt><trkpt lat="36.90562462701012" lon="15.141635159372703"><ele>23.0</ele><time>2026-04-18T19:32:30Z</time></trkpt><trkpt lat="36.90571735213374" lon="15.141683112606993"><ele>23.0</ele><time>2026-04-18T19:32:59Z</time></trkpt><trkpt lat="36.90566802552418" lon="15.141626225406506"><ele>23.0</ele><time>2026-04-18T19:34:47Z</time></trkpt><trkpt lat="36.90560761278688" lon="15.141659671985085"><ele>23.0</ele><time>2026-04-18T19:48:22.999Z</time></trkpt><trkpt lat="36.90570523797196" lon="15.14163081042268"><ele>23.0</ele><time>2026-04-18T20:13:17.45Z</time></trkpt><trkpt lat="36.90561632425841" lon="15.141623114960021"><ele>23.0</ele><time>2026-04-18T20:13:33.999Z</time></trkpt><trkpt lat="36.90570523797196" lon="15.14163081042268"><ele>23.0</ele><time>2026-04-18T20:31:40.739Z</time></trkpt><trkpt lat="36.905609130000016" lon="15.141796003200353"><ele>23.0</ele><time>2026-04-18T20:32:09.273Z</time></trkpt><trkpt lat="36.90562566113323" lon="15.141718185032"><ele>23.0</ele><time>2026-04-18T20:33:46.999Z</time></trkpt><trkpt lat="36.90575743208837" lon="15.141551479969918"><ele>23.0</ele><time>2026-04-18T20:47:13Z</time></trkpt><trkpt lat="36.90569621103486" lon="15.141505747162274"><ele>25.0</ele><time>2026-04-18T20:47:26Z</time></trkpt><trkpt lat="36.90564096158977" lon="15.141556536035878"><ele>23.0</ele><time>2026-04-18T20:47:52.999Z</time></trkpt><trkpt lat="36.905718462719626" lon="15.141540000687598"><ele>25.0</ele><time>2026-04-18T20:47:58.999Z</time></trkpt></trkseg></trk></gpx>